<?xml version='1.0' encoding='UTF-8'?><gpx version="1.1" creator="JPX - https://github.com/jenetics/jpx" xmlns="http://www.topografix.com/GPX/1/1"><trk><trkseg><trkpt lat="43.50475482399225" lon="10.62044280394358"><ele>304.0</ele><time>2026-04-18T06:41:45.999Z</time></trkpt><trkpt lat="43.50472017660222" lon="10.620361197398202"><ele>304.0</ele><time>2026-04-18T06:41:55Z</time></trkpt><trkpt lat="43.50468107754542" lon="10.620281438758642"><ele>304.0</ele><time>2026-04-18T06:41:57Z</time></trkpt><trkpt lat="43.50463335832954" lon="10.62022241403924"><ele>304.0</ele><time>2026-04-18T06:42:00Z</time></trkpt><trkpt lat="43.50470368849347" lon="10.620171555856322"><ele>304.0</ele><time>2026-04-18T06:42:18Z</time></trkpt><trkpt lat="43.50480291201188" lon="10.620067412871732"><ele>304.0</ele><time>2026-04-18T06:42:47Z</time></trkpt><trkpt lat="43.50486714886803" lon="10.619997164871293"><ele>305.0</ele><time>2026-04-18T06:42:48Z</time></trkpt><trkpt lat="43.504953859544784" lon="10.61992766167913"><ele>306.0</ele><time>2026-04-18T06:42:49Z</time></trkpt><trkpt lat="43.5050223733377" lon="10.619847594180847"><ele>307.0</ele><time>2026-04-18T06:42:50Z</time></trkpt><trkpt lat="43.50506839462529" lon="10.619772059176483"><ele>308.0</ele><time>2026-04-18T06:42:51Z</time></trkpt><trkpt lat="43.505098131611334" lon="10.619628310174416"><ele>309.0</ele><time>2026-04-18T06:42:52Z</time></trkpt><trkpt lat="43.50512189577186" lon="10.619518747957363"><ele>309.59999999999997</ele><time>2026-04-18T06:42:53Z</time></trkpt><trkpt lat="43.50518115033735" lon="10.619412645824625"><ele>310.2</ele><time>2026-04-18T06:42:54Z</time></trkpt><trkpt lat="43.505247452130064" lon="10.619308030423966"><ele>310.79999999999995</ele><time>2026-04-18T06:42:56Z</time></trkpt><trkpt lat="43.50534046909064" lon="10.619383880144943"><ele>311.4</ele><time>2026-04-18T06:42:58Z</time></trkpt><trkpt lat="43.505413186619606" lon="10.619403377142822"><ele>312.0</ele><time>2026-04-18T06:42:59Z</time></trkpt><trkpt lat="43.5055039284095" lon="10.619414729739379"><ele>309.6</ele><time>2026-04-18T06:43:00Z</time></trkpt><trkpt lat="43.50559652751027" lon="10.619454153688608"><ele>307.2</ele><time>2026-04-18T06:43:01Z</time></trkpt><trkpt lat="43.50570746396571" lon="10.619485521179277"><ele>304.8</ele><time>2026-04-18T06:43:02Z</time></trkpt><trkpt lat="43.50581965566433" lon="10.619501883627699"><ele>302.4</ele><time>2026-04-18T06:43:03Z</time></trkpt><trkpt lat="43.505910372087996" lon="10.619473401429111"><ele>300.0</ele><time>2026-04-18T06:43:04Z</time></trkpt><trkpt lat="43.505989806663074" lon="10.61943619766971"><ele>300.0</ele><time>2026-04-18T06:43:05Z</time></trkpt><trkpt lat="43.50609639364175" lon="10.619378608178426"><ele>300.0</ele><time>2026-04-18T06:43:06Z</time></trkpt><trkpt lat="43.50621094651244" lon="10.619337212968095"><ele>300.0</ele><time>2026-04-18T06:43:07Z</time></trkpt><trkpt lat="43.50634655798542" lon="10.619337568278764"><ele>300.0</ele><time>2026-04-18T06:43:08Z</time></trkpt><trkpt lat="43.506466206529815" lon="10.619351830789551"><ele>297.8</ele><time>2026-04-18T06:43:09Z</time></trkpt><trkpt lat="43.50657208802028" lon="10.619336991762147"><ele>295.6</ele><time>2026-04-18T06:43:10Z</time></trkpt><trkpt lat="43.506662384659734" lon="10.619328844552566"><ele>293.4</ele><time>2026-04-18T06:43:11Z</time></trkpt><trkpt lat="43.50675011392973" lon="10.619289074153313"><ele>291.2</ele><time>2026-04-18T06:43:12Z</time></trkpt><trkpt lat="43.50683053332749" lon="10.619242149081108"><ele>289.0</ele><time>2026-04-18T06:43:13Z</time></trkpt><trkpt lat="43.50690385353109" lon="10.619205497693764"><ele>289.0</ele><time>2026-04-18T06:43:14Z</time></trkpt><trkpt lat="43.50697278347726" lon="10.619143691295529"><ele>289.0</ele><time>2026-04-18T06:43:15Z</time></trkpt><trkpt lat="43.50703575620561" lon="10.619041378141654"><ele>289.0</ele><time>2026-04-18T06:43:16Z</time></trkpt><trkpt lat="43.507099713219674" lon="10.618936939659552"><ele>289.0</ele><time>2026-04-18T06:43:17Z</time></trkpt><trkpt lat="43.50718691952778" lon="10.61884859108011"><ele>289.0</ele><time>2026-04-18T06:43:17.998Z</time></trkpt><trkpt lat="43.50728518078725" lon="10.618814715548659"><ele>288.0</ele><time>2026-04-18T06:43:18.998Z</time></trkpt><trkpt lat="43.507386151578984" lon="10.618788571109722"><ele>287.0</ele><time>2026-04-18T06:43:19.998Z</time></trkpt><trkpt lat="43.50749807254806" lon="10.61875098252156"><ele>286.0</ele><time>2026-04-18T06:43:20.998Z</time></trkpt><trkpt lat="43.50760148805882" lon="10.618673787900043"><ele>285.0</ele><time>2026-04-18T06:43:21.998Z</time></trkpt><trkpt lat="43.507698292505125" lon="10.618577704175081"><ele>285.0</ele><time>2026-04-18T06:43:22.998Z</time></trkpt><trkpt lat="43.507786544118694" lon="10.618459066857856"><ele>285.0</ele><time>2026-04-18T06:43:23.998Z</time></trkpt><trkpt lat="43.507866128100986" lon="10.618327915809985"><ele>285.0</ele><time>2026-04-18T06:43:24.998Z</time></trkpt><trkpt lat="43.50794231072893" lon="10.61820053475925"><ele>285.0</ele><time>2026-04-18T06:43:25.998Z</time></trkpt><trkpt lat="43.508008990183164" lon="10.61806877539215"><ele>286.3333333333333</ele><time>2026-04-18T06:43:26.998Z</time></trkpt><trkpt lat="43.508078494693585" lon="10.617891879201355"><ele>287.66666666666663</ele><time>2026-04-18T06:43:27.998Z</time></trkpt><trkpt lat="43.50814331096623" lon="10.61769356662339"><ele>289.0</ele><time>2026-04-18T06:43:28.998Z</time></trkpt><trkpt lat="43.508216170186046" lon="10.617482903407941"><ele>289.0</ele><time>2026-04-18T06:43:29.998Z</time></trkpt><trkpt lat="43.50827230506823" lon="10.617305724726307"><ele>289.0</ele><time>2026-04-18T06:43:30.998Z</time></trkpt><trkpt lat="43.50833791726232" lon="10.617177068388784"><ele>289.0</ele><time>2026-04-18T06:43:31.998Z</time></trkpt><trkpt lat="43.50841707908756" lon="10.61704181051753"><ele>289.0</ele><time>2026-04-18T06:43:32.998Z</time></trkpt><trkpt lat="43.50851720922496" lon="10.616875188467604"><ele>289.75</ele><time>2026-04-18T06:43:33.998Z</time></trkpt><trkpt lat="43.508652308734256" lon="10.616731324271282"><ele>290.5</ele><time>2026-04-18T06:43:34.998Z</time></trkpt><trkpt lat="43.50877297494685" lon="10.616597046995466"><ele>291.25</ele><time>2026-04-18T06:43:35.998Z</time></trkpt><trkpt lat="43.508860346985614" lon="10.616480589975774"><ele>292.0</ele><time>2026-04-18T06:43:36.998Z</time></trkpt><trkpt lat="43.508922164245135" lon="10.61640379474622"><ele>292.0</ele><time>2026-04-18T06:43:37.998Z</time></trkpt><trkpt lat="43.508989335123914" lon="10.616363389048573"><ele>292.0</ele><time>2026-04-18T06:43:39.998Z</time></trkpt><trkpt lat="43.50910484386218" lon="10.616560004046748"><ele>292.0</ele><time>2026-04-18T06:43:58.999Z</time></trkpt><trkpt lat="43.50916783519828" lon="10.616672603748126"><ele>292.0</ele><time>2026-04-18T06:43:59.999Z</time></trkpt><trkpt lat="43.50923295344555" lon="10.616827393506634"><ele>292.0</ele><time>2026-04-18T06:44:00.999Z</time></trkpt><trkpt lat="43.50932358830591" lon="10.616967329166584"><ele>292.0</ele><time>2026-04-18T06:44:01.999Z</time></trkpt><trkpt lat="43.50941228027947" lon="10.617142674258842"><ele>292.0</ele><time>2026-04-18T06:44:02.999Z</time></trkpt><trkpt lat="43.5095143904474" lon="10.617330470938438"><ele>290.0</ele><time>2026-04-18T06:44:03.999Z</time></trkpt><trkpt lat="43.509614946405634" lon="10.617516664196167"><ele>288.0</ele><time>2026-04-18T06:44:04.999Z</time></trkpt><trkpt lat="43.50971252854629" lon="10.617698353128432"><ele>286.0</ele><time>2026-04-18T06:44:05.999Z</time></trkpt><trkpt lat="43.50979656720715" lon="10.617869125467326"><ele>285.25</ele><time>2026-04-18T06:44:06.999Z</time></trkpt><trkpt lat="43.50985932898191" lon="10.618029514475518"><ele>284.5</ele><time>2026-04-18T06:44:07.999Z</time></trkpt><trkpt lat="43.50990449283581" lon="10.618177956455503"><ele>283.75</ele><time>2026-04-18T06:44:08.999Z</time></trkpt><trkpt lat="43.50994639528928" lon="10.618305185638542"><ele>283.0</ele><time>2026-04-18T06:44:09.999Z</time></trkpt><trkpt lat="43.509982363261" lon="10.618439871616456"><ele>283.0</ele><time>2026-04-18T06:44:10.999Z</time></trkpt><trkpt lat="43.51002975270093" lon="10.618568708390004"><ele>283.0</ele><time>2026-04-18T06:44:11.999Z</time></trkpt><trkpt lat="43.510096438294774" lon="10.618656537384542"><ele>283.0</ele><time>2026-04-18T06:44:12.999Z</time></trkpt><trkpt lat="43.510176858747194" lon="10.618657409356462"><ele>283.0</ele><time>2026-04-18T06:44:13.999Z</time></trkpt><trkpt lat="43.51028168969337" lon="10.618589363913795"><ele>283.0</ele><time>2026-04-18T06:44:14.999Z</time></trkpt><trkpt lat="43.510388601154" lon="10.61848859787332"><ele>279.66666666666663</ele><time>2026-04-18T06:44:15.999Z</time></trkpt><trkpt lat="43.51051555043909" lon="10.618364506837294"><ele>276.3333333333333</ele><time>2026-04-18T06:44:16.999Z</time></trkpt><trkpt lat="43.51065448842625" lon="10.61825622580889"><ele>273.0</ele><time>2026-04-18T06:44:17.999Z</time></trkpt><trkpt lat="43.5107861331633" lon="10.618187943897016"><ele>273.0</ele><time>2026-04-18T06:44:18.999Z</time></trkpt><trkpt lat="43.5109142369068" lon="10.618201075908416"><ele>273.0</ele><time>2026-04-18T06:44:19.999Z</time></trkpt><trkpt lat="43.51103644134228" lon="10.618219068892342"><ele>273.0</ele><time>2026-04-18T06:44:20.999Z</time></trkpt><trkpt lat="43.51117656157972" lon="10.618265770197098"><ele>273.0</ele><time>2026-04-18T06:44:21.999Z</time></trkpt><trkpt lat="43.511334871216924" lon="10.618298236349194"><ele>270.75</ele><time>2026-04-18T06:44:22.999Z</time></trkpt><trkpt lat="43.51149183625866" lon="10.618325177970634"><ele>268.5</ele><time>2026-04-18T06:44:23.999Z</time></trkpt><trkpt lat="43.51163044368277" lon="10.618361650444381"><ele>266.25</ele><time>2026-04-18T06:44:24.999Z</time></trkpt><trkpt lat="43.51175849052074" lon="10.61841979351876"><ele>264.0</ele><time>2026-04-18T06:44:25.999Z</time></trkpt><trkpt lat="43.51188109333816" lon="10.61850467691278"><ele>264.0</ele><time>2026-04-18T06:44:26.999Z</time></trkpt><trkpt lat="43.51200562683223" lon="10.61864570413803"><ele>264.0</ele><time>2026-04-18T06:44:27.999Z</time></trkpt><trkpt lat="43.51213538274382" lon="10.618774146670663"><ele>264.0</ele><time>2026-04-18T06:44:28.999Z</time></trkpt><trkpt lat="43.51227894931525" lon="10.618896071820123"><ele>261.0</ele><time>2026-04-18T06:44:29.999Z</time></trkpt><trkpt lat="43.51243466700133" lon="10.618979235337218"><ele>258.0</ele><time>2026-04-18T06:44:30.999Z</time></trkpt><trkpt lat="43.51262217942256" lon="10.619060186483255"><ele>255.0</ele><time>2026-04-18T06:44:31.999Z</time></trkpt><trkpt lat="43.5128104444978" lon="10.619138297956463"><ele>252.0</ele><time>2026-04-18T06:44:32.999Z</time></trkpt><trkpt lat="43.512990723" lon="10.619222621193606"><ele>249.0</ele><time>2026-04-18T06:44:33.999Z</time></trkpt><trkpt lat="43.5131591958796" lon="10.619297855555361"><ele>246.0</ele><time>2026-04-18T06:44:34.999Z</time></trkpt><trkpt lat="43.513307324693315" lon="10.619370129663084"><ele>246.0</ele><time>2026-04-18T06:44:35.999Z</time></trkpt><trkpt lat="43.51345447564185" lon="10.619440012913131"><ele>246.0</ele><time>2026-04-18T06:44:36.999Z</time></trkpt><trkpt lat="43.51360189829703" lon="10.619504528808907"><ele>246.0</ele><time>2026-04-18T06:44:37.999Z</time></trkpt><trkpt lat="43.5137536761353" lon="10.619575961738994"><ele>243.5</ele><time>2026-04-18T06:44:38.999Z</time></trkpt><trkpt lat="43.51389679023472" lon="10.619647715095955"><ele>241.0</ele><time>2026-04-18T06:44:39.999Z</time></trkpt><trkpt lat="43.5140056541612" lon="10.619720525073951"><ele>238.5</ele><time>2026-04-18T06:44:40.999Z</time></trkpt><trkpt lat="43.51408172753008" lon="10.619814370007969"><ele>236.0</ele><time>2026-04-18T06:44:41.999Z</time></trkpt><trkpt lat="43.51411918560917" lon="10.619935674297057"><ele>236.0</ele><time>2026-04-18T06:44:42.999Z</time></trkpt><trkpt lat="43.514102891477194" lon="10.620055204608537"><ele>236.0</ele><time>2026-04-18T06:44:43.999Z</time></trkpt><trkpt lat="43.514037873781255" lon="10.620189647035348"><ele>236.0</ele><time>2026-04-18T06:44:44.999Z</time></trkpt><trkpt lat="43.513987385420194" lon="10.620351943412837"><ele>236.0</ele><time>2026-04-18T06:44:45.999Z</time></trkpt><trkpt lat="43.51390513731578" lon="10.620501442458467"><ele>235.33333333333334</ele><time>2026-04-18T06:44:46.999Z</time></trkpt><trkpt lat="43.51377612209129" lon="10.62062660390783"><ele>234.66666666666669</ele><time>2026-04-18T06:44:47.999Z</time></trkpt><trkpt lat="43.513669474074554" lon="10.62079758134757"><ele>234.0</ele><time>2026-04-18T06:44:48.999Z</time></trkpt><trkpt lat="43.51356258972475" lon="10.62093714799627"><ele>234.0</ele><time>2026-04-18T06:44:49.999Z</time></trkpt><trkpt lat="43.51348235317219" lon="10.621045379028676"><ele>233.99999999999997</ele><time>2026-04-18T06:44:50.999Z</time></trkpt><trkpt lat="43.513444201797945" lon="10.621123579536354"><ele>233.99999999999997</ele><time>2026-04-18T06:44:51.999Z</time></trkpt><trkpt lat="43.51342128389941" lon="10.621283333409215"><ele>234.0</ele><time>2026-04-18T06:44:52.999Z</time></trkpt><trkpt lat="43.513423525297426" lon="10.621418361930925"><ele>234.0</ele><time>2026-04-18T06:44:53.999Z</time></trkpt><trkpt lat="43.51352561517428" lon="10.621529985799285"><ele>232.0</ele><time>2026-04-18T06:44:54.999Z</time></trkpt><trkpt lat="43.513616170980754" lon="10.621603233021867"><ele>230.0</ele><time>2026-04-18T06:44:55.999Z</time></trkpt><trkpt lat="43.51373588456765" lon="10.621639020514621"><ele>228.0</ele><time>2026-04-18T06:44:56.999Z</time></trkpt><trkpt lat="43.51387500427847" lon="10.621648938789116"><ele>226.0</ele><time>2026-04-18T06:44:57.999Z</time></trkpt><trkpt lat="43.51401469351958" lon="10.621705342290282"><ele>225.0</ele><time>2026-04-18T06:44:58.999Z</time></trkpt><trkpt lat="43.51415119835342" lon="10.621785322129673"><ele>224.0</ele><time>2026-04-18T06:44:59.999Z</time></trkpt><trkpt lat="43.51429347041403" lon="10.621877601572862"><ele>223.0</ele><time>2026-04-18T06:45:00.999Z</time></trkpt><trkpt lat="43.51443571930666" lon="10.622000804100137"><ele>220.0</ele><time>2026-04-18T06:45:01.999Z</time></trkpt><trkpt lat="43.514601939486525" lon="10.622088681803294"><ele>217.0</ele><time>2026-04-18T06:45:02.999Z</time></trkpt><trkpt lat="43.51478566969864" lon="10.622146666508263"><ele>214.0</ele><time>2026-04-18T06:45:03.999Z</time></trkpt><trkpt lat="43.514976623879164" lon="10.622183034586792"><ele>214.0</ele><time>2026-04-18T06:45:04.999Z</time></trkpt><trkpt lat="43.51517935507643" lon="10.622212867559833"><ele>214.0</ele><time>2026-04-18T06:45:05.999Z</time></trkpt><trkpt lat="43.515381316885666" lon="10.622225134104998"><ele>214.0</ele><time>2026-04-18T06:45:06.999Z</time></trkpt><trkpt lat="43.51558159710754" lon="10.622224870010301"><ele>212.0</ele><time>2026-04-18T06:45:07.999Z</time></trkpt><trkpt lat="43.515770976169144" lon="10.622215129794258"><ele>210.0</ele><time>2026-04-18T06:45:08.999Z</time></trkpt><trkpt lat="43.51595765629115" lon="10.622218768165656"><ele>208.0</ele><time>2026-04-18T06:45:09.999Z</time></trkpt><trkpt lat="43.51612258446811" lon="10.622261997059573"><ele>206.33333333333331</ele><time>2026-04-18T06:45:10.999Z</time></trkpt><trkpt lat="43.51628427972994" lon="10.6223377160085"><ele>204.66666666666669</ele><time>2026-04-18T06:45:11.999Z</time></trkpt><trkpt lat="43.516420830521795" lon="10.622468046569528"><ele>203.0</ele><time>2026-04-18T06:45:12.999Z</time></trkpt><trkpt lat="43.51653972504702" lon="10.622611277652148"><ele>203.0</ele><time>2026-04-18T06:45:13.999Z</time></trkpt><trkpt lat="43.516641914378084" lon="10.62276809619953"><ele>203.0</ele><time>2026-04-18T06:45:14.999Z</time></trkpt><trkpt lat="43.51674579408311" lon="10.622956868596026"><ele>203.0</ele><time>2026-04-18T06:45:15.999Z</time></trkpt><trkpt lat="43.51681892193339" lon="10.623179107147966"><ele>202.66666666666669</ele><time>2026-04-18T06:45:16.999Z</time></trkpt><trkpt lat="43.51688296758873" lon="10.62342056571936"><ele>202.33333333333331</ele><time>2026-04-18T06:45:17.999Z</time></trkpt><trkpt lat="43.516931503180935" lon="10.623647383086793"><ele>202.0</ele><time>2026-04-18T06:45:18.999Z</time></trkpt><trkpt lat="43.51698421654498" lon="10.62383604016433"><ele>201.75</ele><time>2026-04-18T06:45:19.999Z</time></trkpt><trkpt lat="43.517060066180804" lon="10.623992092830058"><ele>201.5</ele><time>2026-04-18T06:45:20.999Z</time></trkpt><trkpt lat="43.51716804889153" lon="10.624102853506294"><ele>201.25</ele><time>2026-04-18T06:45:21.999Z</time></trkpt><trkpt lat="43.51730919864163" lon="10.62416419332324"><ele>201.0</ele><time>2026-04-18T06:45:22.999Z</time></trkpt><trkpt lat="43.51747366861778" lon="10.624205640032558"><ele>198.0</ele><time>2026-04-18T06:45:23.997Z</time></trkpt><trkpt lat="43.51764068042259" lon="10.624228730884706"><ele>195.0</ele><time>2026-04-18T06:45:24.997Z</time></trkpt><trkpt lat="43.51781502589715" lon="10.624263032400892"><ele>192.0</ele><time>2026-04-18T06:45:25.997Z</time></trkpt><trkpt lat="43.517971659031005" lon="10.624301459690251"><ele>188.0</ele><time>2026-04-18T06:45:26.997Z</time></trkpt><trkpt lat="43.518124613523554" lon="10.624341223293959"><ele>184.0</ele><time>2026-04-18T06:45:27.997Z</time></trkpt><trkpt lat="43.51828269572814" lon="10.624377957120371"><ele>180.0</ele><time>2026-04-18T06:45:28.997Z</time></trkpt><trkpt lat="43.51847062426437" lon="10.624424574403562"><ele>180.0</ele><time>2026-04-18T06:45:29.997Z</time></trkpt><trkpt lat="43.51865325552544" lon="10.624471512599829"><ele>180.0</ele><time>2026-04-18T06:45:30.997Z</time></trkpt><trkpt lat="43.51882508884238" lon="10.624519557273539"><ele>180.0</ele><time>2026-04-18T06:45:31.997Z</time></trkpt><trkpt lat="43.518978037444406" lon="10.624562285093289"><ele>178.0</ele><time>2026-04-18T06:45:32.997Z</time></trkpt><trkpt lat="43.51912057871809" lon="10.624603691033343"><ele>176.0</ele><time>2026-04-18T06:45:33.997Z</time></trkpt><trkpt lat="43.51925140215139" lon="10.624648383913021"><ele>174.0</ele><time>2026-04-18T06:45:34.997Z</time></trkpt><trkpt lat="43.51935990179277" lon="10.624690600842618"><ele>172.0</ele><time>2026-04-18T06:45:35.997Z</time></trkpt><trkpt lat="43.519429449531614" lon="10.624725308287205"><ele>172.0</ele><time>2026-04-18T06:45:36.997Z</time></trkpt><trkpt lat="43.519523920494144" lon="10.624767566363206"><ele>172.0</ele><time>2026-04-18T06:45:40.997Z</time></trkpt><trkpt lat="43.51959094131878" lon="10.624796332670288"><ele>172.0</ele><time>2026-04-18T06:45:41.997Z</time></trkpt><trkpt lat="43.519677176183514" lon="10.624853576229022"><ele>172.0</ele><time>2026-04-18T06:45:42.998Z</time></trkpt><trkpt lat="43.519773623900456" lon="10.624950909034288"><ele>172.0</ele><time>2026-04-18T06:45:43.998Z</time></trkpt><trkpt lat="43.519874977980486" lon="10.625061744926889"><ele>170.25</ele><time>2026-04-18T06:45:44.998Z</time></trkpt><trkpt lat="43.51998456600862" lon="10.62516653299383"><ele>168.5</ele><time>2026-04-18T06:45:45.998Z</time></trkpt><trkpt lat="43.5201122391782" lon="10.625266280423766"><ele>166.75</ele><time>2026-04-18T06:45:46.998Z</time></trkpt><trkpt lat="43.52025052586888" lon="10.625373591730023"><ele>165.0</ele><time>2026-04-18T06:45:47.998Z</time></trkpt><trkpt lat="43.52038062171782" lon="10.625468859681543"><ele>164.0</ele><time>2026-04-18T06:45:48.998Z</time></trkpt><trkpt lat="43.520492980751" lon="10.625555969832249"><ele>163.0</ele><time>2026-04-18T06:45:49.998Z</time></trkpt><trkpt lat="43.520577954814584" lon="10.62565536308857"><ele>162.0</ele><time>2026-04-18T06:45:50.998Z</time></trkpt><trkpt lat="43.52060912072599" lon="10.62580230567127"><ele>161.0</ele><time>2026-04-18T06:45:51.998Z</time></trkpt><trkpt lat="43.52067093162432" lon="10.625954655945616"><ele>161.0</ele><time>2026-04-18T06:45:52.998Z</time></trkpt><trkpt lat="43.5207165456484" lon="10.626116343269462"><ele>161.0</ele><time>2026-04-18T06:45:53.998Z</time></trkpt><trkpt lat="43.52077139018616" lon="10.62624580802007"><ele>161.0</ele><time>2026-04-18T06:45:54.998Z</time></trkpt><trkpt lat="43.520852410896296" lon="10.62632979019872"><ele>161.0</ele><time>2026-04-18T06:45:55.998Z</time></trkpt><trkpt lat="43.52095658760323" lon="10.626389912145628"><ele>161.0</ele><time>2026-04-18T06:45:56.998Z</time></trkpt><trkpt lat="43.52108749494783" lon="10.626451066345243"><ele>161.0</ele><time>2026-04-18T06:45:57.998Z</time></trkpt><trkpt lat="43.52123036813999" lon="10.62652445286807"><ele>161.0</ele><time>2026-04-18T06:45:58.998Z</time></trkpt><trkpt lat="43.52137352554921" lon="10.62661746719584"><ele>161.0</ele><time>2026-04-18T06:45:59.998Z</time></trkpt><trkpt lat="43.52151908891483" lon="10.626726895176368"><ele>161.0</ele><time>2026-04-18T06:46:00.998Z</time></trkpt><trkpt lat="43.52166388916196" lon="10.626809583431363"><ele>161.0</ele><time>2026-04-18T06:46:01.998Z</time></trkpt><trkpt lat="43.52182694938242" lon="10.626887718108348"><ele>161.0</ele><time>2026-04-18T06:46:02.998Z</time></trkpt><trkpt lat="43.522171831686514" lon="10.627024637014397"><ele>159.66666666666666</ele><time>2026-04-18T06:46:04.998Z</time></trkpt><trkpt lat="43.52235089214761" lon="10.627073727699814"><ele>158.33333333333334</ele><time>2026-04-18T06:46:05.998Z</time></trkpt><trkpt lat="43.522526820572054" lon="10.627120227573204"><ele>157.0</ele><time>2026-04-18T06:46:06.998Z</time></trkpt><trkpt lat="43.52268525015728" lon="10.627162224790169"><ele>157.0</ele><time>2026-04-18T06:46:07.998Z</time></trkpt><trkpt lat="43.52283995875814" lon="10.627206070463899"><ele>157.0</ele><time>2026-04-18T06:46:08.998Z</time></trkpt><trkpt lat="43.52298335698565" lon="10.627255052029472"><ele>157.0</ele><time>2026-04-18T06:46:09.998Z</time></trkpt><trkpt lat="43.52312250295136" lon="10.627310030090314"><ele>155.25</ele><time>2026-04-18T06:46:10.998Z</time></trkpt><trkpt lat="43.52323391662991" lon="10.627399373783694"><ele>153.5</ele><time>2026-04-18T06:46:11.998Z</time></trkpt><trkpt lat="43.523309029299085" lon="10.627501043059487"><ele>151.75</ele><time>2026-04-18T06:46:12.998Z</time></trkpt><trkpt lat="43.523387046231015" lon="10.62762724737019"><ele>150.0</ele><time>2026-04-18T06:46:13.998Z</time></trkpt><trkpt lat="43.52348493332525" lon="10.627737459022892"><ele>150.25</ele><time>2026-04-18T06:46:14.998Z</time></trkpt><trkpt lat="43.52358662680732" lon="10.627812011115351"><ele>150.5</ele><time>2026-04-18T06:46:15.998Z</time></trkpt><trkpt lat="43.523711230997975" lon="10.62782886104692"><ele>150.75</ele><time>2026-04-18T06:46:16.998Z</time></trkpt><trkpt lat="43.523842690117945" lon="10.627808050166916"><ele>151.0</ele><time>2026-04-18T06:46:17.998Z</time></trkpt><trkpt lat="43.52396538888035" lon="10.627782149224686"><ele>149.83333333333334</ele><time>2026-04-18T06:46:18.998Z</time></trkpt><trkpt lat="43.52406389344019" lon="10.627816190529582"><ele>148.66666666666669</ele><time>2026-04-18T06:46:19.999Z</time></trkpt><trkpt lat="43.524127277759206" lon="10.627807247540975"><ele>147.5</ele><time>2026-04-18T06:46:20.999Z</time></trkpt><trkpt lat="43.52422483863606" lon="10.627814945148407"><ele>146.33333333333334</ele><time>2026-04-18T06:46:22.999Z</time></trkpt><trkpt lat="43.52428934243729" lon="10.627815667683558"><ele>145.16666666666666</ele><time>2026-04-18T06:46:24.999Z</time></trkpt><trkpt lat="43.5244057281552" lon="10.627806122957331"><ele>144.0</ele><time>2026-04-18T06:46:26.999Z</time></trkpt><trkpt lat="43.524475170130046" lon="10.62780042805274"><ele>143.6</ele><time>2026-04-18T06:46:27.999Z</time></trkpt><trkpt lat="43.52452209678194" lon="10.627591762097797"><ele>143.2</ele><time>2026-04-18T06:46:28.999Z</time></trkpt><trkpt lat="43.524656500142505" lon="10.62757378621864"><ele>142.79999999999998</ele><time>2026-04-18T06:46:30.999Z</time></trkpt><trkpt lat="43.524730575339056" lon="10.62755757926134"><ele>142.4</ele><time>2026-04-18T06:46:31.999Z</time></trkpt><trkpt lat="43.524805905874096" lon="10.62753980821219"><ele>142.0</ele><time>2026-04-18T06:46:32.999Z</time></trkpt><trkpt lat="43.5248841670317" lon="10.627520742228473"><ele>141.66666666666669</ele><time>2026-04-18T06:46:33.999Z</time></trkpt><trkpt lat="43.52496567150281" lon="10.627502291100578"><ele>141.33333333333334</ele><time>2026-04-18T06:46:34.999Z</time></trkpt><trkpt lat="43.525048502651735" lon="10.627482901649005"><ele>141.0</ele><time>2026-04-18T06:46:35.999Z</time></trkpt><trkpt lat="43.525114388584" lon="10.627462909267418"><ele>140.66666666666666</ele><time>2026-04-18T06:46:36.999Z</time></trkpt><trkpt lat="43.525204363892" lon="10.627437960905358"><ele>140.33333333333331</ele><time>2026-04-18T06:46:37.999Z</time></trkpt><trkpt lat="43.52531041401149" lon="10.627385612790437"><ele>140.0</ele><time>2026-04-18T06:46:38.999Z</time></trkpt><trkpt lat="43.525446872223554" lon="10.627310887356787"><ele>140.0</ele><time>2026-04-18T06:46:39.999Z</time></trkpt><trkpt lat="43.525533406134365" lon="10.627211350267649"><ele>140.0</ele><time>2026-04-18T06:46:41.999Z</time></trkpt><trkpt lat="43.52575591509689" lon="10.627102059362498"><ele>140.0</ele><time>2026-04-18T06:46:43.999Z</time></trkpt><trkpt lat="43.52585879318388" lon="10.627023771109975"><ele>139.6</ele><time>2026-04-18T06:46:44.999Z</time></trkpt><trkpt lat="43.525956595041556" lon="10.626971153424476"><ele>139.2</ele><time>2026-04-18T06:46:45.999Z</time></trkpt><trkpt lat="43.52604780482915" lon="10.626952256542785"><ele>138.8</ele><time>2026-04-18T06:46:46.999Z</time></trkpt><trkpt lat="43.526144429970124" lon="10.62692766112494"><ele>138.4</ele><time>2026-04-18T06:46:47.999Z</time></trkpt><trkpt lat="43.52623708140501" lon="10.626900338940494"><ele>138.0</ele><time>2026-04-18T06:46:48.999Z</time></trkpt><trkpt lat="43.52632803480659" lon="10.626872683062293"><ele>137.66666666666666</ele><time>2026-04-18T06:46:49.999Z</time></trkpt><trkpt lat="43.52641532521327" lon="10.626849255817719"><ele>137.33333333333334</ele><time>2026-04-18T06:46:50.999Z</time></trkpt><trkpt lat="43.52648537932629" lon="10.62682806289662"><ele>137.0</ele><time>2026-04-18T06:46:51.999Z</time></trkpt><trkpt lat="43.52656086438622" lon="10.62679672726406"><ele>136.66666666666669</ele><time>2026-04-18T06:46:52.999Z</time></trkpt><trkpt lat="43.526640034887414" lon="10.626784020452533"><ele>136.33333333333334</ele><time>2026-04-18T06:46:53.999Z</time></trkpt><trkpt lat="43.52671006255501" lon="10.626776326291592"><ele>136.0</ele><time>2026-04-18T06:46:54.999Z</time></trkpt><trkpt lat="43.52683894935847" lon="10.62678175677821"><ele>136.0</ele><time>2026-04-18T06:46:56.999Z</time></trkpt><trkpt lat="43.526941229842386" lon="10.626738597624394"><ele>136.0</ele><time>2026-04-18T06:46:58.999Z</time></trkpt><trkpt lat="43.52700252019984" lon="10.62670614516732"><ele>136.0</ele><time>2026-04-18T06:46:59.999Z</time></trkpt><trkpt lat="43.52707225931065" lon="10.626666402878293"><ele>136.0</ele><time>2026-04-18T06:47:00.999Z</time></trkpt><trkpt lat="43.52712538178181" lon="10.626617092444985"><ele>136.0</ele><time>2026-04-18T06:47:01.999Z</time></trkpt><trkpt lat="43.52720564940581" lon="10.626512797794792"><ele>136.0</ele><time>2026-04-18T06:47:03.999Z</time></trkpt><trkpt lat="43.52729041253905" lon="10.626390668487058"><ele>134.83333333333334</ele><time>2026-04-18T06:47:05.999Z</time></trkpt><trkpt lat="43.527388417946746" lon="10.626307455572798"><ele>133.66666666666669</ele><time>2026-04-18T06:47:07.999Z</time></trkpt><trkpt lat="43.527462329590044" lon="10.626275774530432"><ele>132.5</ele><time>2026-04-18T06:47:09.999Z</time></trkpt><trkpt lat="43.52755336378404" lon="10.626274895669344"><ele>131.33333333333334</ele><time>2026-04-18T06:47:11.999Z</time></trkpt><trkpt lat="43.52763055650948" lon="10.626279824274647"><ele>130.16666666666666</ele><time>2026-04-18T06:47:12.999Z</time></trkpt><trkpt lat="43.52771148507922" lon="10.62628347055626"><ele>129.0</ele><time>2026-04-18T06:47:13.999Z</time></trkpt><trkpt lat="43.52779721491283" lon="10.62627597551375"><ele>129.0</ele><time>2026-04-18T06:47:14.999Z</time></trkpt><trkpt lat="43.527881268771075" lon="10.626277293793112"><ele>129.0</ele><time>2026-04-18T06:47:15.999Z</time></trkpt><trkpt lat="43.52796549140611" lon="10.626298761708552"><ele>129.0</ele><time>2026-04-18T06:47:16.999Z</time></trkpt><trkpt lat="43.528057571462575" lon="10.626302158834001"><ele>129.0</ele><time>2026-04-18T06:47:17.999Z</time></trkpt><trkpt lat="43.528140301185346" lon="10.626293792442294"><ele>129.0</ele><time>2026-04-18T06:47:18.999Z</time></trkpt><trkpt lat="43.52821091651048" lon="10.626278879423877"><ele>129.0</ele><time>2026-04-18T06:47:19.999Z</time></trkpt><trkpt lat="43.52828483536937" lon="10.626246738142175"><ele>128.16666666666666</ele><time>2026-04-18T06:47:20.999Z</time></trkpt><trkpt lat="43.52835512173746" lon="10.626240338902422"><ele>127.33333333333334</ele><time>2026-04-18T06:47:21.999Z</time></trkpt><trkpt lat="43.52846820236005" lon="10.626291367422512"><ele>126.5</ele><time>2026-04-18T06:47:23.999Z</time></trkpt><trkpt lat="43.5285277738666" lon="10.626325069623594"><ele>125.66666666666667</ele><time>2026-04-18T06:47:24.999Z</time></trkpt><trkpt lat="43.528604078437745" lon="10.626344290490346"><ele>124.83333333333334</ele><time>2026-04-18T06:47:25.999Z</time></trkpt><trkpt lat="43.52866416624379" lon="10.626372156873359"><ele>124.0</ele><time>2026-04-18T06:47:26.999Z</time></trkpt><trkpt lat="43.52873495350178" lon="10.626395600513723"><ele>124.00000000000001</ele><time>2026-04-18T06:47:27.999Z</time></trkpt><trkpt lat="43.52882947435232" lon="10.626434212602389"><ele>124.0</ele><time>2026-04-18T06:47:28.999Z</time></trkpt><trkpt lat="43.528938870176255" lon="10.626445297479481"><ele>124.0</ele><time>2026-04-18T06:47:29.997Z</time></trkpt><trkpt lat="43.52901601019636" lon="10.626401431649896"><ele>124.0</ele><time>2026-04-18T06:47:30.997Z</time></trkpt><trkpt lat="43.529085045733105" lon="10.62635880911224"><ele>124.00000000000001</ele><time>2026-04-18T06:47:31.997Z</time></trkpt><trkpt lat="43.529148594148786" lon="10.626320856381948"><ele>124.0</ele><time>2026-04-18T06:47:32.997Z</time></trkpt><trkpt lat="43.52922392724952" lon="10.626272969836501"><ele>124.00000000000001</ele><time>2026-04-18T06:47:33.997Z</time></trkpt><trkpt lat="43.52929987099335" lon="10.626240996193143"><ele>124.0</ele><time>2026-04-18T06:47:34.997Z</time></trkpt><trkpt lat="43.52937224099979" lon="10.62622940466983"><ele>124.0</ele><time>2026-04-18T06:47:35.997Z</time></trkpt><trkpt lat="43.52944537605528" lon="10.626250108157539"><ele>124.0</ele><time>2026-04-18T06:47:36.997Z</time></trkpt><trkpt lat="43.52953202008044" lon="10.626257396508484"><ele>124.00000000000001</ele><time>2026-04-18T06:47:37.997Z</time></trkpt><trkpt lat="43.52961886375143" lon="10.626236744582602"><ele>124.0</ele><time>2026-04-18T06:47:38.997Z</time></trkpt><trkpt lat="43.52970479442068" lon="10.626204928269358"><ele>122.80000000000001</ele><time>2026-04-18T06:47:39.997Z</time></trkpt><trkpt lat="43.52979618051929" lon="10.62617004229994"><ele>121.60000000000001</ele><time>2026-04-18T06:47:40.997Z</time></trkpt><trkpt lat="43.52989912229246" lon="10.626135014156251"><ele>120.4</ele><time>2026-04-18T06:47:41.997Z</time></trkpt><trkpt lat="43.52999793486738" lon="10.626106628703383"><ele>119.2</ele><time>2026-04-18T06:47:42.997Z</time></trkpt><trkpt lat="43.53011442868648" lon="10.62607764886262"><ele>118.0</ele><time>2026-04-18T06:47:44.998Z</time></trkpt><trkpt lat="43.530241619085444" lon="10.626109428945979"><ele>117.80000000000001</ele><time>2026-04-18T06:47:46.998Z</time></trkpt><trkpt lat="43.530322861894454" lon="10.626114058812115"><ele>117.60000000000001</ele><time>2026-04-18T06:47:47.998Z</time></trkpt><trkpt lat="43.530415338818415" lon="10.626116707627"><ele>117.39999999999999</ele><time>2026-04-18T06:47:48.998Z</time></trkpt><trkpt lat="43.53050189454599" lon="10.626119870664235"><ele>117.19999999999999</ele><time>2026-04-18T06:47:49.998Z</time></trkpt><trkpt lat="43.53059982105253" lon="10.626134162918099"><ele>117.0</ele><time>2026-04-18T06:47:50.998Z</time></trkpt><trkpt lat="43.53070515983545" lon="10.626158753690559"><ele>117.0</ele><time>2026-04-18T06:47:51.998Z</time></trkpt><trkpt lat="43.530807728536686" lon="10.62617031364167"><ele>116.99999999999999</ele><time>2026-04-18T06:47:52.998Z</time></trkpt><trkpt lat="43.53090735679236" lon="10.62617626075873"><ele>116.99999999999999</ele><time>2026-04-18T06:47:53.998Z</time></trkpt><trkpt lat="43.531017239880285" lon="10.62618552176054"><ele>117.0</ele><time>2026-04-18T06:47:54.998Z</time></trkpt><trkpt lat="43.53108639789368" lon="10.626201098617793"><ele>117.0</ele><time>2026-04-18T06:47:55.998Z</time></trkpt><trkpt lat="43.531154524290805" lon="10.626220174618746"><ele>118.6</ele><time>2026-04-18T06:47:56.998Z</time></trkpt><trkpt lat="43.531237350374894" lon="10.626253126315069"><ele>120.19999999999999</ele><time>2026-04-18T06:47:57.998Z</time></trkpt><trkpt lat="43.531318974614805" lon="10.626280336559839"><ele>121.8</ele><time>2026-04-18T06:47:58.998Z</time></trkpt><trkpt lat="43.53144855771258" lon="10.62629953669695"><ele>123.4</ele><time>2026-04-18T06:48:00.998Z</time></trkpt><trkpt lat="43.53154142751117" lon="10.626319017871985"><ele>125.0</ele><time>2026-04-18T06:48:01.998Z</time></trkpt><trkpt lat="43.531620222061946" lon="10.626325879157706"><ele>124.99999999999999</ele><time>2026-04-18T06:48:02.998Z</time></trkpt><trkpt lat="43.531712740650576" lon="10.626332282408011"><ele>125.0</ele><time>2026-04-18T06:48:03.998Z</time></trkpt><trkpt lat="43.53179836524036" lon="10.626348215295168"><ele>125.0</ele><time>2026-04-18T06:48:04.998Z</time></trkpt><trkpt lat="43.531892296653474" lon="10.626377999895839"><ele>125.0</ele><time>2026-04-18T06:48:05.998Z</time></trkpt><trkpt lat="43.531977685127366" lon="10.62641655759366"><ele>124.99999999999999</ele><time>2026-04-18T06:48:06.999Z</time></trkpt><trkpt lat="43.532045128635275" lon="10.626446529216206"><ele>125.0</ele><time>2026-04-18T06:48:07.999Z</time></trkpt><trkpt lat="43.532143699191735" lon="10.626494254619836"><ele>125.0</ele><time>2026-04-18T06:48:09.999Z</time></trkpt><trkpt lat="43.532210766605154" lon="10.626510610891916"><ele>125.0</ele><time>2026-04-18T06:48:11.999Z</time></trkpt><trkpt lat="43.53229124312405" lon="10.626536502686973"><ele>125.0</ele><time>2026-04-18T06:48:13.999Z</time></trkpt><trkpt lat="43.53235519009101" lon="10.626563829379768"><ele>125.0</ele><time>2026-04-18T06:48:16.999Z</time></trkpt><trkpt lat="43.532424475205616" lon="10.626598485777524"><ele>125.0</ele><time>2026-04-18T06:48:20.999Z</time></trkpt><trkpt lat="43.53245716332874" lon="10.626687727305859"><ele>125.0</ele><time>2026-04-18T06:48:23.999Z</time></trkpt><trkpt lat="43.5325216659347" lon="10.626762369318223"><ele>125.0</ele><time>2026-04-18T06:48:33.999Z</time></trkpt><trkpt lat="43.53259936137477" lon="10.626820982417092"><ele>124.99999999999999</ele><time>2026-04-18T06:48:37.999Z</time></trkpt><trkpt lat="43.5326625971406" lon="10.626850053139982"><ele>125.0</ele><time>2026-04-18T06:48:39.999Z</time></trkpt><trkpt lat="43.53275189408972" lon="10.62686803863134"><ele>125.0</ele><time>2026-04-18T06:48:42.999Z</time></trkpt><trkpt lat="43.53282653775531" lon="10.626887401438099"><ele>125.0</ele><time>2026-04-18T06:48:46.999Z</time></trkpt><trkpt lat="43.532904373547815" lon="10.626905125525344"><ele>124.99999999999999</ele><time>2026-04-18T06:48:51.999Z</time></trkpt><trkpt lat="43.53298021687755" lon="10.626937448949914"><ele>125.0</ele><time>2026-04-18T06:48:53.999Z</time></trkpt><trkpt lat="43.53309959826556" lon="10.626960490114334"><ele>124.2</ele><time>2026-04-18T06:48:55.999Z</time></trkpt><trkpt lat="43.53316641975817" lon="10.626958733606532"><ele>123.4</ele><time>2026-04-18T06:48:56.999Z</time></trkpt><trkpt lat="43.533264457766066" lon="10.62696176098808"><ele>122.6</ele><time>2026-04-18T06:48:58.999Z</time></trkpt><trkpt lat="43.533355836170244" lon="10.626953100304917"><ele>121.8</ele><time>2026-04-18T06:49:00.999Z</time></trkpt><trkpt lat="43.53345594054415" lon="10.626944895637285"><ele>121.0</ele><time>2026-04-18T06:49:02.999Z</time></trkpt><trkpt lat="43.533553199446644" lon="10.626889768214953"><ele>121.00000000000001</ele><time>2026-04-18T06:49:04.999Z</time></trkpt><trkpt lat="43.53365865434773" lon="10.62680294280941"><ele>121.0</ele><time>2026-04-18T06:49:06.999Z</time></trkpt><trkpt lat="43.53372480195008" lon="10.626751269417305"><ele>121.0</ele><time>2026-04-18T06:49:07.999Z</time></trkpt><trkpt lat="43.533789368442235" lon="10.62671029746603"><ele>121.0</ele><time>2026-04-18T06:49:08.999Z</time></trkpt><trkpt lat="43.53385671726908" lon="10.626667254436128"><ele>121.00000000000001</ele><time>2026-04-18T06:49:09.999Z</time></trkpt><trkpt lat="43.53392238634335" lon="10.626624427718092"><ele>121.0</ele><time>2026-04-18T06:49:11Z</time></trkpt><trkpt lat="43.53398956345983" lon="10.626574565135114"><ele>120.83333333333334</ele><time>2026-04-18T06:49:12Z</time></trkpt><trkpt lat="43.53404622165339" lon="10.626503395749296"><ele>120.66666666666667</ele><time>2026-04-18T06:49:13Z</time></trkpt><trkpt lat="43.53409191729629" lon="10.626430957382706"><ele>120.5</ele><time>2026-04-18T06:49:14Z</time></trkpt><trkpt lat="43.5341388917345" lon="10.6263545859881"><ele>120.33333333333334</ele><time>2026-04-18T06:49:15Z</time></trkpt><trkpt lat="43.534180108205945" lon="10.62627792068545"><ele>120.16666666666667</ele><time>2026-04-18T06:49:16Z</time></trkpt><trkpt lat="43.534248860830296" lon="10.626136856865147"><ele>120.0</ele><time>2026-04-18T06:49:18Z</time></trkpt><trkpt lat="43.53431400716669" lon="10.626007792675454"><ele>120.0</ele><time>2026-04-18T06:49:20Z</time></trkpt><trkpt lat="43.534358681597965" lon="10.62591684119017"><ele>120.0</ele><time>2026-04-18T06:49:22Z</time></trkpt><trkpt lat="43.53442154687935" lon="10.625819381802685"><ele>120.0</ele><time>2026-04-18T06:49:24Z</time></trkpt><trkpt lat="43.53446465065136" lon="10.625753297183827"><ele>120.0</ele><time>2026-04-18T06:49:25Z</time></trkpt><trkpt lat="43.5345475022308" lon="10.625649768450844"><ele>120.0</ele><time>2026-04-18T06:49:27Z</time></trkpt><trkpt lat="43.53464596699175" lon="10.625569923111582"><ele>119.0</ele><time>2026-04-18T06:49:29Z</time></trkpt><trkpt lat="43.53474184420248" lon="10.62549465045052"><ele>118.0</ele><time>2026-04-18T06:49:31Z</time></trkpt><trkpt lat="43.534839628104116" lon="10.625446674488812"><ele>117.0</ele><time>2026-04-18T06:49:33Z</time></trkpt><trkpt lat="43.53492422122303" lon="10.625386664802875"><ele>116.0</ele><time>2026-04-18T06:49:35Z</time></trkpt><trkpt lat="43.53499930263795" lon="10.625332488021773"><ele>115.0</ele><time>2026-04-18T06:49:36.998Z</time></trkpt><trkpt lat="43.53507435011868" lon="10.625286494937246"><ele>114.83333333333334</ele><time>2026-04-18T06:49:38.998Z</time></trkpt><trkpt lat="43.535140625608854" lon="10.625244363190175"><ele>114.66666666666667</ele><time>2026-04-18T06:49:40.998Z</time></trkpt><trkpt lat="43.53522139096659" lon="10.625186948787999"><ele>114.5</ele><time>2026-04-18T06:49:42.998Z</time></trkpt><trkpt lat="43.53529694543229" lon="10.625130188764846"><ele>114.33333333333334</ele><time>2026-04-18T06:49:44.998Z</time></trkpt><trkpt lat="43.53539079687607" lon="10.625068982200572"><ele>114.16666666666667</ele><time>2026-04-18T06:49:46.998Z</time></trkpt><trkpt lat="43.53547241141778" lon="10.625021142495505"><ele>114.0</ele><time>2026-04-18T06:49:48.998Z</time></trkpt><trkpt lat="43.535531362787616" lon="10.624988328964033"><ele>113.16666666666667</ele><time>2026-04-18T06:49:49.998Z</time></trkpt><trkpt lat="43.53559203697691" lon="10.624960168070764"><ele>112.33333333333334</ele><time>2026-04-18T06:49:50.998Z</time></trkpt><trkpt lat="43.53567780638994" lon="10.62493483373814"><ele>111.5</ele><time>2026-04-18T06:49:52.998Z</time></trkpt><trkpt lat="43.53577279126684" lon="10.624901866610214"><ele>110.66666666666667</ele><time>2026-04-18T06:49:54.998Z</time></trkpt><trkpt lat="43.53587428261837" lon="10.624873966731528"><ele>109.83333333333334</ele><time>2026-04-18T06:49:56.998Z</time></trkpt><trkpt lat="43.53594237752064" lon="10.624865944753452"><ele>109.0</ele><time>2026-04-18T06:49:57.998Z</time></trkpt><trkpt lat="43.536049144095855" lon="10.624897134420571"><ele>109.00000000000001</ele><time>2026-04-18T06:49:59.999Z</time></trkpt><trkpt lat="43.53612304215218" lon="10.624940860668087"><ele>109.0</ele><time>2026-04-18T06:50:01.999Z</time></trkpt><trkpt lat="43.536219164000656" lon="10.624974734302093"><ele>109.0</ele><time>2026-04-18T06:50:03.999Z</time></trkpt><trkpt lat="43.536298360403656" lon="10.624985262492784"><ele>109.0</ele><time>2026-04-18T06:50:05.999Z</time></trkpt><trkpt lat="43.53636818020326" lon="10.624995883896162"><ele>109.00000000000001</ele><time>2026-04-18T06:50:07.999Z</time></trkpt><trkpt lat="43.53645410886694" lon="10.625002424521647"><ele>109.0</ele><time>2026-04-18T06:50:10.999Z</time></trkpt><trkpt lat="43.53654133597997" lon="10.625019845946522"><ele>108.0</ele><time>2026-04-18T06:50:49Z</time></trkpt><trkpt lat="43.53663691553657" lon="10.625029896437416"><ele>107.0</ele><time>2026-04-18T06:50:51Z</time></trkpt><trkpt lat="43.53676179506692" lon="10.625082045560307"><ele>106.0</ele><time>2026-04-18T06:50:53Z</time></trkpt><trkpt lat="43.53684779892452" lon="10.625105442128957"><ele>105.0</ele><time>2026-04-18T06:50:54Z</time></trkpt><trkpt lat="43.536917804745556" lon="10.625129482863926"><ele>104.0</ele><time>2026-04-18T06:50:55Z</time></trkpt><trkpt lat="43.53701757013639" lon="10.625162450712981"><ele>103.0</ele><time>2026-04-18T06:50:57Z</time></trkpt><trkpt lat="43.537111766863596" lon="10.625182500086503"><ele>102.0</ele><time>2026-04-18T06:50:59Z</time></trkpt><trkpt lat="43.537217664954994" lon="10.625219701593727"><ele>101.0</ele><time>2026-04-18T06:51:01Z</time></trkpt><trkpt lat="43.53733369198324" lon="10.625247332074922"><ele>100.0</ele><time>2026-04-18T06:51:03Z</time></trkpt><trkpt lat="43.537416891553356" lon="10.625271905628379"><ele>99.0</ele><time>2026-04-18T06:51:04Z</time></trkpt><trkpt lat="43.537505437698954" lon="10.625302674292652"><ele>99.33333333333333</ele><time>2026-04-18T06:51:05Z</time></trkpt><trkpt lat="43.537579899071794" lon="10.625333811456604"><ele>99.66666666666666</ele><time>2026-04-18T06:51:06Z</time></trkpt><trkpt lat="43.5376535810783" lon="10.625376106652402"><ele>100.0</ele><time>2026-04-18T06:51:08Z</time></trkpt><trkpt lat="43.53773834319594" lon="10.625419179101433"><ele>100.33333333333333</ele><time>2026-04-18T06:51:10Z</time></trkpt><trkpt lat="43.537803904661516" lon="10.625429231288186"><ele>100.66666666666666</ele><time>2026-04-18T06:51:11Z</time></trkpt><trkpt lat="43.53786623931958" lon="10.625443025163749"><ele>101.0</ele><time>2026-04-18T06:51:12Z</time></trkpt><trkpt lat="43.5379640727112" lon="10.625455841457134"><ele>100.99999999999999</ele><time>2026-04-18T06:51:14Z</time></trkpt><trkpt lat="43.53805465530625" lon="10.62545264027467"><ele>101.0</ele><time>2026-04-18T06:51:16Z</time></trkpt><trkpt lat="43.538140056647904" lon="10.6254560886736"><ele>101.0</ele><time>2026-04-18T06:51:18Z</time></trkpt><trkpt lat="43.53820548999768" lon="10.625439067520674"><ele>101.0</ele><time>2026-04-18T06:51:19Z</time></trkpt><trkpt lat="43.538268141991935" lon="10.625403060743373"><ele>100.99999999999999</ele><time>2026-04-18T06:51:20Z</time></trkpt><trkpt lat="43.53832980701749" lon="10.625355645671949"><ele>101.0</ele><time>2026-04-18T06:51:21Z</time></trkpt><trkpt lat="43.53841142758854" lon="10.62527539126395"><ele>101.19999999999999</ele><time>2026-04-18T06:51:23Z</time></trkpt><trkpt lat="43.53849710380967" lon="10.62518021748881"><ele>101.39999999999999</ele><time>2026-04-18T06:51:25Z</time></trkpt><trkpt lat="43.538570668392964" lon="10.625078086853367"><ele>101.6</ele><time>2026-04-18T06:51:27Z</time></trkpt><trkpt lat="43.53866002003278" lon="10.624956821981936"><ele>101.8</ele><time>2026-04-18T06:51:29Z</time></trkpt><trkpt lat="43.53870915895989" lon="10.624890699088485"><ele>102.0</ele><time>2026-04-18T06:51:30Z</time></trkpt><trkpt lat="43.53877327838777" lon="10.624788451557661"><ele>103.6</ele><time>2026-04-18T06:51:32Z</time></trkpt><trkpt lat="43.53884329286924" lon="10.624680034507735"><ele>105.19999999999999</ele><time>2026-04-18T06:51:34Z</time></trkpt><trkpt lat="43.53891719163846" lon="10.624579403233442"><ele>106.8</ele><time>2026-04-18T06:51:36Z</time></trkpt><trkpt lat="43.538962252339836" lon="10.624516252238612"><ele>108.4</ele><time>2026-04-18T06:51:37Z</time></trkpt><trkpt lat="43.53903088520838" lon="10.624420422716845"><ele>110.0</ele><time>2026-04-18T06:51:39Z</time></trkpt><trkpt lat="43.53909190364305" lon="10.624333785365796"><ele>109.99999999999999</ele><time>2026-04-18T06:51:41Z</time></trkpt><trkpt lat="43.53915284721565" lon="10.624240236539833"><ele>110.0</ele><time>2026-04-18T06:51:43.999Z</time></trkpt><trkpt lat="43.539197809613725" lon="10.62415421334101"><ele>110.0</ele><time>2026-04-18T06:51:45.999Z</time></trkpt><trkpt lat="43.539234251282174" lon="10.624081791937549"><ele>110.0</ele><time>2026-04-18T06:51:49.999Z</time></trkpt><trkpt lat="43.539271013617075" lon="10.624005584115471"><ele>110.0</ele><time>2026-04-18T06:52:21.001Z</time></trkpt><trkpt lat="43.5393092185953" lon="10.623931177924698"><ele>109.99999999999999</ele><time>2026-04-18T06:52:24.001Z</time></trkpt><trkpt lat="43.53937880573535" lon="10.62389703213155"><ele>110.0</ele><time>2026-04-18T06:52:36.001Z</time></trkpt><trkpt lat="43.53944599672176" lon="10.623873907293124"><ele>110.0</ele><time>2026-04-18T06:52:45.001Z</time></trkpt><trkpt lat="43.53953950869766" lon="10.623874648261202"><ele>110.0</ele><time>2026-04-18T06:52:48.001Z</time></trkpt><trkpt lat="43.539621702670736" lon="10.62395664570696"><ele>110.0</ele><time>2026-04-18T06:55:41.002Z</time></trkpt><trkpt lat="43.53970137082604" lon="10.624046326644352"><ele>110.0</ele><time>2026-04-18T06:55:43.002Z</time></trkpt><trkpt lat="43.53978383860408" lon="10.624173681749719"><ele>110.0</ele><time>2026-04-18T06:55:45.002Z</time></trkpt><trkpt lat="43.53982932983592" lon="10.624254976466059"><ele>110.4</ele><time>2026-04-18T06:55:46.002Z</time></trkpt><trkpt lat="43.539896119748356" lon="10.624357196574772"><ele>110.8</ele><time>2026-04-18T06:55:47.002Z</time></trkpt><trkpt lat="43.53998227632559" lon="10.624440509795477"><ele>111.19999999999999</ele><time>2026-04-18T06:55:48.002Z</time></trkpt><trkpt lat="43.5400596015206" lon="10.62454002041754"><ele>111.6</ele><time>2026-04-18T06:55:49.002Z</time></trkpt><trkpt lat="43.54014164571429" lon="10.624637494205725"><ele>112.0</ele><time>2026-04-18T06:55:50.002Z</time></trkpt><trkpt lat="43.54022007541406" lon="10.62474050950908"><ele>112.0</ele><time>2026-04-18T06:55:51.002Z</time></trkpt><trkpt lat="43.540283063328985" lon="10.624824983430567"><ele>111.99999999999999</ele><time>2026-04-18T06:55:52.002Z</time></trkpt><trkpt lat="43.5403332313002" lon="10.624967212424147"><ele>111.99999999999999</ele><time>2026-04-18T06:55:54.001Z</time></trkpt><trkpt lat="43.540338804538436" lon="10.62507138507083"><ele>112.0</ele><time>2026-04-18T06:55:55.001Z</time></trkpt><trkpt lat="43.540338790801485" lon="10.625187753965683"><ele>112.0</ele><time>2026-04-18T06:55:56.001Z</time></trkpt><trkpt lat="43.54034347510788" lon="10.625309569745623"><ele>111.00000000000001</ele><time>2026-04-18T06:55:57.001Z</time></trkpt><trkpt lat="43.540375735421556" lon="10.625398444894111"><ele>110.0</ele><time>2026-04-18T06:55:58.001Z</time></trkpt><trkpt lat="43.54042380251789" lon="10.625497147731936"><ele>109.0</ele><time>2026-04-18T06:55:59.001Z</time></trkpt><trkpt lat="43.5404652205067" lon="10.625598389033904"><ele>108.0</ele><time>2026-04-18T06:56:00.001Z</time></trkpt><trkpt lat="43.54049166006585" lon="10.6256824313443"><ele>107.00000000000001</ele><time>2026-04-18T06:56:01.001Z</time></trkpt><trkpt lat="43.54051045272182" lon="10.625795728852717"><ele>106.0</ele><time>2026-04-18T06:56:03.001Z</time></trkpt><trkpt lat="43.540401554898374" lon="10.625833305391557"><ele>106.0</ele><time>2026-04-18T06:56:28.001Z</time></trkpt><trkpt lat="43.540302879476606" lon="10.625927668811029"><ele>106.0</ele><time>2026-04-18T06:56:30.001Z</time></trkpt><trkpt lat="43.540239569635666" lon="10.625986932472118"><ele>106.0</ele><time>2026-04-18T06:56:31.001Z</time></trkpt><trkpt lat="43.54015728754653" lon="10.626047121218354"><ele>106.0</ele><time>2026-04-18T06:56:32.001Z</time></trkpt><trkpt lat="43.54006770606973" lon="10.626118176676988"><ele>106.0</ele><time>2026-04-18T06:56:34.001Z</time></trkpt><trkpt lat="43.54004967379949" lon="10.626214566155905"><ele>103.8</ele><time>2026-04-18T06:56:37.002Z</time></trkpt><trkpt lat="43.540072048507966" lon="10.62631847437509"><ele>101.6</ele><time>2026-04-18T06:56:40.002Z</time></trkpt><trkpt lat="43.540122254275396" lon="10.62642745634726"><ele>99.4</ele><time>2026-04-18T06:56:42.002Z</time></trkpt><trkpt lat="43.540162972687625" lon="10.626513838380799"><ele>97.2</ele><time>2026-04-18T06:56:43.002Z</time></trkpt><trkpt lat="43.54021651795993" lon="10.626634370542446"><ele>95.0</ele><time>2026-04-18T06:56:44.002Z</time></trkpt><trkpt lat="43.540277026103375" lon="10.62677508860899"><ele>95.0</ele><time>2026-04-18T06:56:45.002Z</time></trkpt><trkpt lat="43.54032863800324" lon="10.62685615423133"><ele>95.0</ele><time>2026-04-18T06:56:46.002Z</time></trkpt><trkpt lat="43.54037336236573" lon="10.626988361675986"><ele>95.0</ele><time>2026-04-18T06:56:47.002Z</time></trkpt><trkpt lat="43.54045001244153" lon="10.627109647527249"><ele>95.0</ele><time>2026-04-18T06:56:48.002Z</time></trkpt><trkpt lat="43.54049152594864" lon="10.627238673363532"><ele>95.0</ele><time>2026-04-18T06:56:49.002Z</time></trkpt><trkpt lat="43.540565132167636" lon="10.627358798401776"><ele>92.75</ele><time>2026-04-18T06:56:50.002Z</time></trkpt><trkpt lat="43.540632997339564" lon="10.627518082887713"><ele>90.5</ele><time>2026-04-18T06:56:51.002Z</time></trkpt><trkpt lat="43.54070221606995" lon="10.627670255655568"><ele>88.25</ele><time>2026-04-18T06:56:52.002Z</time></trkpt><trkpt lat="43.5407690660323" lon="10.62781041182203"><ele>86.0</ele><time>2026-04-18T06:56:53.002Z</time></trkpt><trkpt lat="43.54084181003258" lon="10.627961760814156"><ele>84.39999999999999</ele><time>2026-04-18T06:56:54.002Z</time></trkpt><trkpt lat="43.54090988066372" lon="10.628114384920938"><ele>82.8</ele><time>2026-04-18T06:56:55.002Z</time></trkpt><trkpt lat="43.54096651618983" lon="10.628235934213993"><ele>81.19999999999999</ele><time>2026-04-18T06:56:56.002Z</time></trkpt><trkpt lat="43.541024907208474" lon="10.628360612953882"><ele>79.6</ele><time>2026-04-18T06:56:57.002Z</time></trkpt><trkpt lat="43.54105691736639" lon="10.628482912827844"><ele>78.0</ele><time>2026-04-18T06:56:58.002Z</time></trkpt><trkpt lat="43.54110151530996" lon="10.62859350537921"><ele>75.6</ele><time>2026-04-18T06:56:59.002Z</time></trkpt><trkpt lat="43.541172475631306" lon="10.62869994982828"><ele>73.19999999999999</ele><time>2026-04-18T06:57:00.002Z</time></trkpt><trkpt lat="43.54122769546754" lon="10.628831276088066"><ele>70.8</ele><time>2026-04-18T06:57:01.002Z</time></trkpt><trkpt lat="43.54129302168712" lon="10.628940065340819"><ele>68.39999999999999</ele><time>2026-04-18T06:57:02.002Z</time></trkpt><trkpt lat="43.541348807413684" lon="10.629075425282767"><ele>66.0</ele><time>2026-04-18T06:57:03.002Z</time></trkpt><trkpt lat="43.541403729710254" lon="10.6292225343207"><ele>65.8</ele><time>2026-04-18T06:57:04.002Z</time></trkpt><trkpt lat="43.54147439562666" lon="10.629335839084508"><ele>65.6</ele><time>2026-04-18T06:57:05.002Z</time></trkpt><trkpt lat="43.54152271033265" lon="10.62945696528589"><ele>65.4</ele><time>2026-04-18T06:57:06.002Z</time></trkpt><trkpt lat="43.54157221860135" lon="10.62956510183359"><ele>65.2</ele><time>2026-04-18T06:57:07.002Z</time></trkpt><trkpt lat="43.54161616152224" lon="10.629662560526388"><ele>65.0</ele><time>2026-04-18T06:57:08.002Z</time></trkpt><trkpt lat="43.54165701425043" lon="10.629744061239116"><ele>63.6</ele><time>2026-04-18T06:57:09.002Z</time></trkpt><trkpt lat="43.54170685091893" lon="10.629894675560541"><ele>62.2</ele><time>2026-04-18T06:57:11.002Z</time></trkpt><trkpt lat="43.5416693781623" lon="10.629989889014967"><ele>60.8</ele><time>2026-04-18T06:57:15.002Z</time></trkpt><trkpt lat="43.54160839871704" lon="10.630117847919692"><ele>59.4</ele><time>2026-04-18T06:57:17.002Z</time></trkpt><trkpt lat="43.541537556217484" lon="10.630237134885398"><ele>58.0</ele><time>2026-04-18T06:57:18.002Z</time></trkpt><trkpt lat="43.541466522639865" lon="10.630354134810482"><ele>56.75</ele><time>2026-04-18T06:57:19.002Z</time></trkpt><trkpt lat="43.54139250209575" lon="10.63049312647901"><ele>55.5</ele><time>2026-04-18T06:57:20.002Z</time></trkpt><trkpt lat="43.54132036954082" lon="10.630658355976278"><ele>54.25</ele><time>2026-04-18T06:57:21.002Z</time></trkpt><trkpt lat="43.541244229879005" lon="10.630844346028534"><ele>53.0</ele><time>2026-04-18T06:57:22.002Z</time></trkpt><trkpt lat="43.54114817384982" lon="10.631033905177835"><ele>53.0</ele><time>2026-04-18T06:57:23.002Z</time></trkpt><trkpt lat="43.541065382367044" lon="10.631241710984757"><ele>53.0</ele><time>2026-04-18T06:57:24.002Z</time></trkpt><trkpt lat="43.54100635723542" lon="10.631481816876951"><ele>53.0</ele><time>2026-04-18T06:57:25.002Z</time></trkpt><trkpt lat="43.54090282542561" lon="10.631673495429602"><ele>53.0</ele><time>2026-04-18T06:57:26.002Z</time></trkpt><trkpt lat="43.540786966259624" lon="10.631848588440102"><ele>53.0</ele><time>2026-04-18T06:57:27.002Z</time></trkpt><trkpt lat="43.54070327164363" lon="10.632050561919307"><ele>53.0</ele><time>2026-04-18T06:57:28.002Z</time></trkpt><trkpt lat="43.540633893560475" lon="10.632260368310767"><ele>53.333333333333336</ele><time>2026-04-18T06:57:29.002Z</time></trkpt><trkpt lat="43.54051957809866" lon="10.632467228767958"><ele>53.66666666666667</ele><time>2026-04-18T06:57:30.002Z</time></trkpt><trkpt lat="43.54041298085909" lon="10.632678343030117"><ele>54.0</ele><time>2026-04-18T06:57:31.002Z</time></trkpt><trkpt lat="43.5403121860072" lon="10.632874992516914"><ele>56.0</ele><time>2026-04-18T06:57:32.002Z</time></trkpt><trkpt lat="43.54021169511114" lon="10.633069707024086"><ele>58.0</ele><time>2026-04-18T06:57:33.002Z</time></trkpt><trkpt lat="43.54011358167502" lon="10.633278750377002"><ele>60.0</ele><time>2026-04-18T06:57:34.002Z</time></trkpt><trkpt lat="43.54003420445213" lon="10.633422971629061"><ele>60.0</ele><time>2026-04-18T06:57:35.002Z</time></trkpt><trkpt lat="43.53998387304252" lon="10.633576992539012"><ele>60.0</ele><time>2026-04-18T06:57:36.002Z</time></trkpt><trkpt lat="43.53993553372955" lon="10.63373629081013"><ele>60.0</ele><time>2026-04-18T06:57:37.002Z</time></trkpt><trkpt lat="43.539845917076086" lon="10.633873972981062"><ele>60.0</ele><time>2026-04-18T06:57:38.002Z</time></trkpt><trkpt lat="43.53975414337508" lon="10.634024569340124"><ele>58.66666666666667</ele><time>2026-04-18T06:57:39.002Z</time></trkpt><trkpt lat="43.53966627871611" lon="10.634205340457378"><ele>57.333333333333336</ele><time>2026-04-18T06:57:40.002Z</time></trkpt><trkpt lat="43.53956115535784" lon="10.634375487193902"><ele>56.0</ele><time>2026-04-18T06:57:41.002Z</time></trkpt><trkpt lat="43.539452734509126" lon="10.63455112958682"><ele>56.0</ele><time>2026-04-18T06:57:42.002Z</time></trkpt><trkpt lat="43.539375396437414" lon="10.63471456354157"><ele>56.0</ele><time>2026-04-18T06:57:43.002Z</time></trkpt><trkpt lat="43.53929971517056" lon="10.634865918011842"><ele>56.0</ele><time>2026-04-18T06:57:44.002Z</time></trkpt><trkpt lat="43.53923391735471" lon="10.634996410247183"><ele>56.0</ele><time>2026-04-18T06:57:45.003Z</time></trkpt><trkpt lat="43.53914700009429" lon="10.635073959366471"><ele>56.0</ele><time>2026-04-18T06:57:46.003Z</time></trkpt><trkpt lat="43.53905938886652" lon="10.635134664172954"><ele>56.0</ele><time>2026-04-18T06:57:47.003Z</time></trkpt><trkpt lat="43.5389869540306" lon="10.63526575444383"><ele>56.0</ele><time>2026-04-18T06:57:48.003Z</time></trkpt><trkpt lat="43.538920085670924" lon="10.635404294298452"><ele>56.0</ele><time>2026-04-18T06:57:49.003Z</time></trkpt><trkpt lat="43.53883647404959" lon="10.635552293672902"><ele>56.0</ele><time>2026-04-18T06:57:50.003Z</time></trkpt><trkpt lat="43.53873565795826" lon="10.6356881029808"><ele>56.0</ele><time>2026-04-18T06:57:51.003Z</time></trkpt><trkpt lat="43.53866418135195" lon="10.635844018169593"><ele>56.0</ele><time>2026-04-18T06:57:52.003Z</time></trkpt><trkpt lat="43.53859738776728" lon="10.635965030545778"><ele>56.0</ele><time>2026-04-18T06:57:53.003Z</time></trkpt><trkpt lat="43.53854314465853" lon="10.636111770525293"><ele>56.75</ele><time>2026-04-18T06:57:54.003Z</time></trkpt><trkpt lat="43.538512167011305" lon="10.63629668068673"><ele>57.5</ele><time>2026-04-18T06:57:55.003Z</time></trkpt><trkpt lat="43.538501661939236" lon="10.636511970700399"><ele>58.25</ele><time>2026-04-18T06:57:56.003Z</time></trkpt><trkpt lat="43.538478901845366" lon="10.636690371253515"><ele>59.0</ele><time>2026-04-18T06:57:57.003Z</time></trkpt><trkpt lat="43.538434835154284" lon="10.636826388046373"><ele>59.0</ele><time>2026-04-18T06:57:58.003Z</time></trkpt><trkpt lat="43.53837350914631" lon="10.636925768952903"><ele>59.0</ele><time>2026-04-18T06:57:59.003Z</time></trkpt><trkpt lat="43.53832105707325" lon="10.63698765388143"><ele>59.0</ele><time>2026-04-18T06:58:00.002Z</time></trkpt><trkpt lat="43.53845706130412" lon="10.63722093877952"><ele>59.0</ele><time>2026-04-18T06:58:02.002Z</time></trkpt><trkpt lat="43.538521490983904" lon="10.63729053116795"><ele>58.333333333333336</ele><time>2026-04-18T06:58:03.002Z</time></trkpt><trkpt lat="43.53859660498872" lon="10.637369728664641"><ele>57.66666666666667</ele><time>2026-04-18T06:58:04.002Z</time></trkpt><trkpt lat="43.53866493586217" lon="10.63746177620114"><ele>57.0</ele><time>2026-04-18T06:58:05.002Z</time></trkpt><trkpt lat="43.53872124416197" lon="10.637538410274281"><ele>56.33333333333333</ele><time>2026-04-18T06:58:06.002Z</time></trkpt><trkpt lat="43.53877387443669" lon="10.637601963212731"><ele>55.666666666666664</ele><time>2026-04-18T06:58:07.002Z</time></trkpt><trkpt lat="43.53882884248425" lon="10.63767201072988"><ele>55.0</ele><time>2026-04-18T06:58:08.002Z</time></trkpt><trkpt lat="43.538885508699146" lon="10.63774210070984"><ele>54.33333333333333</ele><time>2026-04-18T06:58:09.002Z</time></trkpt><trkpt lat="43.5389407662466" lon="10.637809172223648"><ele>53.666666666666664</ele><time>2026-04-18T06:58:10.002Z</time></trkpt><trkpt lat="43.53899838276572" lon="10.637881458323733"><ele>53.0</ele><time>2026-04-18T06:58:11.002Z</time></trkpt><trkpt lat="43.53909594953203" lon="10.638011200546224"><ele>52.33333333333333</ele><time>2026-04-18T06:58:13.001Z</time></trkpt><trkpt lat="43.53914955298821" lon="10.638073503463568"><ele>51.666666666666664</ele><time>2026-04-18T06:58:14.001Z</time></trkpt><trkpt lat="43.53919948482682" lon="10.638134667328472"><ele>51.0</ele><time>2026-04-18T06:58:15.001Z</time></trkpt><trkpt lat="43.53924424195344" lon="10.63819766413311"><ele>51.0</ele><time>2026-04-18T06:58:16.001Z</time></trkpt><trkpt lat="43.53930101961626" lon="10.638265771163029"><ele>51.0</ele><time>2026-04-18T06:58:17.001Z</time></trkpt><trkpt lat="43.53935671237574" lon="10.638325946303993"><ele>51.0</ele><time>2026-04-18T06:58:18.001Z</time></trkpt><trkpt lat="43.53942772455862" lon="10.638389770444281"><ele>51.0</ele><time>2026-04-18T06:58:19.001Z</time></trkpt><trkpt lat="43.53949905275273" lon="10.638484408969235"><ele>51.0</ele><time>2026-04-18T06:58:20.001Z</time></trkpt><trkpt lat="43.53958590144152" lon="10.638561856030785"><ele>51.0</ele><time>2026-04-18T06:58:21.001Z</time></trkpt><trkpt lat="43.53968593669602" lon="10.638641051647156"><ele>51.5</ele><time>2026-04-18T06:58:22.001Z</time></trkpt><trkpt lat="43.53976270829449" lon="10.638781866981063"><ele>52.0</ele><time>2026-04-18T06:58:23.001Z</time></trkpt><trkpt lat="43.539856399402765" lon="10.638943026165226"><ele>52.5</ele><time>2026-04-18T06:58:24.001Z</time></trkpt><trkpt lat="43.53996840773902" lon="10.63907785051679"><ele>53.0</ele><time>2026-04-18T06:58:25.001Z</time></trkpt><trkpt lat="43.54005762565831" lon="10.639209162477933"><ele>53.0</ele><time>2026-04-18T06:58:26.001Z</time></trkpt><trkpt lat="43.54015561107915" lon="10.639316258490755"><ele>53.0</ele><time>2026-04-18T06:58:27.001Z</time></trkpt><trkpt lat="43.54025910912292" lon="10.63944017480935"><ele>53.0</ele><time>2026-04-18T06:58:28.001Z</time></trkpt><trkpt lat="43.54036031947825" lon="10.63957155480369"><ele>53.0</ele><time>2026-04-18T06:58:29.001Z</time></trkpt><trkpt lat="43.540453089954454" lon="10.639687057459923"><ele>53.599999999999994</ele><time>2026-04-18T06:58:30.001Z</time></trkpt><trkpt lat="43.5405496962132" lon="10.63980880904426"><ele>54.199999999999996</ele><time>2026-04-18T06:58:31.001Z</time></trkpt><trkpt lat="43.54062435972461" lon="10.639899884104588"><ele>54.8</ele><time>2026-04-18T06:58:32.001Z</time></trkpt><trkpt lat="43.540685770174726" lon="10.639971578915056"><ele>55.4</ele><time>2026-04-18T06:58:33.001Z</time></trkpt><trkpt lat="43.54074795903562" lon="10.640089776991145"><ele>56.0</ele><time>2026-04-18T06:58:35.001Z</time></trkpt><trkpt lat="43.54079044687967" lon="10.640164786498985"><ele>56.199999999999996</ele><time>2026-04-18T06:58:37.001Z</time></trkpt><trkpt lat="43.540731585963684" lon="10.640320222832646"><ele>56.39999999999999</ele><time>2026-04-18T06:58:39.001Z</time></trkpt><trkpt lat="43.54068570080248" lon="10.640436736860138"><ele>56.6</ele><time>2026-04-18T06:58:40.001Z</time></trkpt><trkpt lat="43.54061499820594" lon="10.640554131557396"><ele>56.8</ele><time>2026-04-18T06:58:41.001Z</time></trkpt><trkpt lat="43.54055021521252" lon="10.640684663833174"><ele>57.0</ele><time>2026-04-18T06:58:42.001Z</time></trkpt><trkpt lat="43.54048294439045" lon="10.640825170329203"><ele>57.0</ele><time>2026-04-18T06:58:43.001Z</time></trkpt><trkpt lat="43.540407075884815" lon="10.64096574945292"><ele>57.0</ele><time>2026-04-18T06:58:44.002Z</time></trkpt><trkpt lat="43.540323002513745" lon="10.64110870219528"><ele>57.0</ele><time>2026-04-18T06:58:45.002Z</time></trkpt><trkpt lat="43.540237792520564" lon="10.641255293715991"><ele>57.0</ele><time>2026-04-18T06:58:46.002Z</time></trkpt><trkpt lat="43.540152892911195" lon="10.64140509345926"><ele>57.25</ele><time>2026-04-18T06:58:47.002Z</time></trkpt><trkpt lat="43.54006263179222" lon="10.641557086106658"><ele>57.5</ele><time>2026-04-18T06:58:48.002Z</time></trkpt><trkpt lat="43.53996819107424" lon="10.641708988552692"><ele>57.75</ele><time>2026-04-18T06:58:49.002Z</time></trkpt><trkpt lat="43.53987127199044" lon="10.641858003420133"><ele>58.0</ele><time>2026-04-18T06:58:50.002Z</time></trkpt><trkpt lat="43.53976494120111" lon="10.642008077656566"><ele>58.0</ele><time>2026-04-18T06:58:51.002Z</time></trkpt><trkpt lat="43.539656244685965" lon="10.642151149024535"><ele>58.0</ele><time>2026-04-18T06:58:52.002Z</time></trkpt><trkpt lat="43.53955107063868" lon="10.642290216574187"><ele>58.0</ele><time>2026-04-18T06:58:53.002Z</time></trkpt><trkpt lat="43.539446304176195" lon="10.642430001016029"><ele>58.0</ele><time>2026-04-18T06:58:54.002Z</time></trkpt><trkpt lat="43.53933840093909" lon="10.642577201556426"><ele>58.0</ele><time>2026-04-18T06:58:55.002Z</time></trkpt><trkpt lat="43.53923135767244" lon="10.642728347227575"><ele>58.0</ele><time>2026-04-18T06:58:56.002Z</time></trkpt><trkpt lat="43.539108027102" lon="10.642873855100445"><ele>58.0</ele><time>2026-04-18T06:58:57.002Z</time></trkpt><trkpt lat="43.53899895377079" lon="10.643032568356022"><ele>58.33333333333333</ele><time>2026-04-18T06:58:58.002Z</time></trkpt><trkpt lat="43.53889845343553" lon="10.643216685799041"><ele>58.66666666666667</ele><time>2026-04-18T06:58:59.002Z</time></trkpt><trkpt lat="43.538790133913366" lon="10.64338932151827"><ele>59.0</ele><time>2026-04-18T06:59:00.002Z</time></trkpt><trkpt lat="43.538702166087056" lon="10.643553827053506"><ele>61.0</ele><time>2026-04-18T06:59:01.002Z</time></trkpt><trkpt lat="43.53860822524485" lon="10.643739361653209"><ele>63.0</ele><time>2026-04-18T06:59:02.002Z</time></trkpt><trkpt lat="43.53852072212059" lon="10.64392086197626"><ele>65.0</ele><time>2026-04-18T06:59:03.002Z</time></trkpt><trkpt lat="43.538426700645" lon="10.644110338529826"><ele>65.0</ele><time>2026-04-18T06:59:04.002Z</time></trkpt><trkpt lat="43.538331367297296" lon="10.6443005270214"><ele>65.0</ele><time>2026-04-18T06:59:05.002Z</time></trkpt><trkpt lat="43.538240527132025" lon="10.644492212962376"><ele>65.0</ele><time>2026-04-18T06:59:06.002Z</time></trkpt><trkpt lat="43.53815122059195" lon="10.644687863500655"><ele>67.33333333333334</ele><time>2026-04-18T06:59:07.002Z</time></trkpt><trkpt lat="43.538065353523926" lon="10.644889813991457"><ele>69.66666666666667</ele><time>2026-04-18T06:59:08.002Z</time></trkpt><trkpt lat="43.5379952840853" lon="10.645093641818569"><ele>72.0</ele><time>2026-04-18T06:59:09.002Z</time></trkpt><trkpt lat="43.53793911131024" lon="10.645306883225976"><ele>73.25</ele><time>2026-04-18T06:59:10.002Z</time></trkpt><trkpt lat="43.53790242596572" lon="10.64551023145842"><ele>74.5</ele><time>2026-04-18T06:59:11.002Z</time></trkpt><trkpt lat="43.5378443460409" lon="10.645713324275917"><ele>75.75</ele><time>2026-04-18T06:59:12.002Z</time></trkpt><trkpt lat="43.53779278137614" lon="10.645878148177411"><ele>77.0</ele><time>2026-04-18T06:59:13.002Z</time></trkpt><trkpt lat="43.53771950824927" lon="10.64602405405535"><ele>74.5</ele><time>2026-04-18T06:59:14.002Z</time></trkpt><trkpt lat="43.53762391334952" lon="10.646165140479784"><ele>72.0</ele><time>2026-04-18T06:59:15.002Z</time></trkpt><trkpt lat="43.53750963830094" lon="10.646288214897925"><ele>69.5</ele><time>2026-04-18T06:59:16.002Z</time></trkpt><trkpt lat="43.53738724715309" lon="10.646375753653814"><ele>67.0</ele><time>2026-04-18T06:59:17.002Z</time></trkpt><trkpt lat="43.53725517384895" lon="10.646464548155063"><ele>67.0</ele><time>2026-04-18T06:59:18.002Z</time></trkpt><trkpt lat="43.537107980729154" lon="10.646499589995429"><ele>67.0</ele><time>2026-04-18T06:59:19.002Z</time></trkpt><trkpt lat="43.53695755033124" lon="10.646505838314996"><ele>67.0</ele><time>2026-04-18T06:59:20.002Z</time></trkpt><trkpt lat="43.53679637351576" lon="10.646475816714611"><ele>66.66666666666666</ele><time>2026-04-18T06:59:21.002Z</time></trkpt><trkpt lat="43.536640589052155" lon="10.646411010789667"><ele>66.33333333333333</ele><time>2026-04-18T06:59:22.002Z</time></trkpt><trkpt lat="43.53648093007328" lon="10.646316096870354"><ele>66.0</ele><time>2026-04-18T06:59:23.002Z</time></trkpt><trkpt lat="43.536326937853815" lon="10.646239680495029"><ele>66.25</ele><time>2026-04-18T06:59:24.002Z</time></trkpt><trkpt lat="43.5361767085959" lon="10.646190336851824"><ele>66.5</ele><time>2026-04-18T06:59:25.002Z</time></trkpt><trkpt lat="43.5360318020126" lon="10.646180522256184"><ele>66.75</ele><time>2026-04-18T06:59:26.002Z</time></trkpt><trkpt lat="43.53589061854366" lon="10.646198014942911"><ele>67.0</ele><time>2026-04-18T06:59:27.002Z</time></trkpt><trkpt lat="43.53576156259908" lon="10.646254720591525"><ele>67.0</ele><time>2026-04-18T06:59:28.002Z</time></trkpt><trkpt lat="43.53561004173824" lon="10.646318940856101"><ele>67.0</ele><time>2026-04-18T06:59:29.002Z</time></trkpt><trkpt lat="43.53545780042336" lon="10.646386014709702"><ele>67.0</ele><time>2026-04-18T06:59:30.002Z</time></trkpt><trkpt lat="43.53529468749183" lon="10.64642029247711"><ele>66.33333333333333</ele><time>2026-04-18T06:59:31.002Z</time></trkpt><trkpt lat="43.535133620441826" lon="10.646499629756736"><ele>65.66666666666667</ele><time>2026-04-18T06:59:32.002Z</time></trkpt><trkpt lat="43.5349650180466" lon="10.646558190109594"><ele>65.0</ele><time>2026-04-18T06:59:33.002Z</time></trkpt><trkpt lat="43.53479724934794" lon="10.64662069703811"><ele>65.0</ele><time>2026-04-18T06:59:34.002Z</time></trkpt><trkpt lat="43.53462485649298" lon="10.64666249608863"><ele>65.0</ele><time>2026-04-18T06:59:35.002Z</time></trkpt><trkpt lat="43.53446022163049" lon="10.6467218042141"><ele>65.0</ele><time>2026-04-18T06:59:36.002Z</time></trkpt><trkpt lat="43.534295414318485" lon="10.646778211906474"><ele>64.0</ele><time>2026-04-18T06:59:37.002Z</time></trkpt><trkpt lat="43.53413579678113" lon="10.646848658278941"><ele>63.0</ele><time>2026-04-18T06:59:38.002Z</time></trkpt><trkpt lat="43.53397302971162" lon="10.64689732037906"><ele>62.0</ele><time>2026-04-18T06:59:39.002Z</time></trkpt><trkpt lat="43.53380987964167" lon="10.646949091257788"><ele>63.0</ele><time>2026-04-18T06:59:40.002Z</time></trkpt><trkpt lat="43.53365696578808" lon="10.646992227409422"><ele>64.0</ele><time>2026-04-18T06:59:41.002Z</time></trkpt><trkpt lat="43.533497432700244" lon="10.64704133198061"><ele>65.0</ele><time>2026-04-18T06:59:42.002Z</time></trkpt><trkpt lat="43.53333327234546" lon="10.647085407838466"><ele>65.0</ele><time>2026-04-18T06:59:43.002Z</time></trkpt><trkpt lat="43.5331634693935" lon="10.647085394598527"><ele>65.0</ele><time>2026-04-18T06:59:44.002Z</time></trkpt><trkpt lat="43.532996753030794" lon="10.647120271209252"><ele>65.0</ele><time>2026-04-18T06:59:45.002Z</time></trkpt><trkpt lat="43.532829804806674" lon="10.64712509875734"><ele>65.33333333333334</ele><time>2026-04-18T06:59:46.002Z</time></trkpt><trkpt lat="43.532668219256074" lon="10.647130945651494"><ele>65.66666666666667</ele><time>2026-04-18T06:59:47.002Z</time></trkpt><trkpt lat="43.532507614418286" lon="10.647146499657259"><ele>66.0</ele><time>2026-04-18T06:59:48.002Z</time></trkpt><trkpt lat="43.532345237477614" lon="10.647174790209128"><ele>66.0</ele><time>2026-04-18T06:59:49.002Z</time></trkpt><trkpt lat="43.53218810654476" lon="10.64721957579789"><ele>66.0</ele><time>2026-04-18T06:59:50.002Z</time></trkpt><trkpt lat="43.53202473951606" lon="10.6472846849109"><ele>66.0</ele><time>2026-04-18T06:59:51.002Z</time></trkpt><trkpt lat="43.53187057098413" lon="10.647366121151713"><ele>66.25</ele><time>2026-04-18T06:59:52.002Z</time></trkpt><trkpt lat="43.531732110633655" lon="10.647460489856812"><ele>66.5</ele><time>2026-04-18T06:59:53.002Z</time></trkpt><trkpt lat="43.53161703813883" lon="10.647575839987562"><ele>66.75</ele><time>2026-04-18T06:59:54.002Z</time></trkpt><trkpt lat="43.531515492664106" lon="10.647722245810325"><ele>67.0</ele><time>2026-04-18T06:59:55.002Z</time></trkpt><trkpt lat="43.53143023168479" lon="10.647897321736652"><ele>67.0</ele><time>2026-04-18T06:59:56.002Z</time></trkpt><trkpt lat="43.53133548834222" lon="10.64808496267413"><ele>67.0</ele><time>2026-04-18T06:59:57.002Z</time></trkpt><trkpt lat="43.53121711171699" lon="10.6482464189015"><ele>67.0</ele><time>2026-04-18T06:59:58.002Z</time></trkpt><trkpt lat="43.53106466120604" lon="10.648374417293807"><ele>66.33333333333333</ele><time>2026-04-18T06:59:59.002Z</time></trkpt><trkpt lat="43.530921244060494" lon="10.64850258048088"><ele>65.66666666666667</ele><time>2026-04-18T07:00:00.002Z</time></trkpt><trkpt lat="43.53079098917518" lon="10.64864124827936"><ele>65.0</ele><time>2026-04-18T07:00:01.002Z</time></trkpt><trkpt lat="43.530654429303574" lon="10.648760000929453"><ele>65.0</ele><time>2026-04-18T07:00:02.002Z</time></trkpt><trkpt lat="43.530527810667465" lon="10.648831348165947"><ele>65.0</ele><time>2026-04-18T07:00:03.003Z</time></trkpt><trkpt lat="43.53041211423983" lon="10.648912431599694"><ele>65.0</ele><time>2026-04-18T07:00:04.003Z</time></trkpt><trkpt lat="43.53028345459864" lon="10.64891119758386"><ele>65.0</ele><time>2026-04-18T07:00:05.003Z</time></trkpt><trkpt lat="43.530156772997856" lon="10.648884787763883"><ele>64.75</ele><time>2026-04-18T07:00:06.001Z</time></trkpt><trkpt lat="43.53002735701873" lon="10.64881807773893"><ele>64.5</ele><time>2026-04-18T07:00:07.001Z</time></trkpt><trkpt lat="43.52989859942175" lon="10.648742661523093"><ele>64.25</ele><time>2026-04-18T07:00:08.001Z</time></trkpt><trkpt lat="43.52975702286804" lon="10.648671161227222"><ele>64.0</ele><time>2026-04-18T07:00:09.001Z</time></trkpt><trkpt lat="43.52961871551394" lon="10.648559323040857"><ele>65.66666666666666</ele><time>2026-04-18T07:00:10.001Z</time></trkpt><trkpt lat="43.529485779057225" lon="10.648445158309162"><ele>67.33333333333333</ele><time>2026-04-18T07:00:11.001Z</time></trkpt><trkpt lat="43.529352989276695" lon="10.64831836684185"><ele>69.0</ele><time>2026-04-18T07:00:12.001Z</time></trkpt><trkpt lat="43.52922573734109" lon="10.648185657914135"><ele>69.0</ele><time>2026-04-18T07:00:13.001Z</time></trkpt><trkpt lat="43.52909815701808" lon="10.648051526696538"><ele>69.0</ele><time>2026-04-18T07:00:14.001Z</time></trkpt><trkpt lat="43.52898330949626" lon="10.647931579325554"><ele>69.0</ele><time>2026-04-18T07:00:15.001Z</time></trkpt><trkpt lat="43.52886309635424" lon="10.647811109479171"><ele>68.25</ele><time>2026-04-18T07:00:16.001Z</time></trkpt><trkpt lat="43.528743978549514" lon="10.64770250653105"><ele>67.5</ele><time>2026-04-18T07:00:17.001Z</time></trkpt><trkpt lat="43.52862220677168" lon="10.647610329342504"><ele>66.75</ele><time>2026-04-18T07:00:18.001Z</time></trkpt><trkpt lat="43.52849436784802" lon="10.647531383982082"><ele>66.0</ele><time>2026-04-18T07:00:19.001Z</time></trkpt><trkpt lat="43.528357475535245" lon="10.647459238053758"><ele>66.0</ele><time>2026-04-18T07:00:20.001Z</time></trkpt><trkpt lat="43.52822513217578" lon="10.647404795207624"><ele>66.0</ele><time>2026-04-18T07:00:21.001Z</time></trkpt><trkpt lat="43.52807898011162" lon="10.64735294668511"><ele>66.0</ele><time>2026-04-18T07:00:22.001Z</time></trkpt><trkpt lat="43.52793619411544" lon="10.647322705637272"><ele>66.0</ele><time>2026-04-18T07:00:23.001Z</time></trkpt><trkpt lat="43.52778546572603" lon="10.64730990654752"><ele>66.75</ele><time>2026-04-18T07:00:24.001Z</time></trkpt><trkpt lat="43.52763409198994" lon="10.647316967437357"><ele>67.5</ele><time>2026-04-18T07:00:25.001Z</time></trkpt><trkpt lat="43.527495657551746" lon="10.647336183672712"><ele>68.25</ele><time>2026-04-18T07:00:26.001Z</time></trkpt><trkpt lat="43.527350911241186" lon="10.64735497854049"><ele>69.0</ele><time>2026-04-18T07:00:27.001Z</time></trkpt><trkpt lat="43.52720195441099" lon="10.647379811175153"><ele>67.66666666666667</ele><time>2026-04-18T07:00:28.001Z</time></trkpt><trkpt lat="43.527051921313294" lon="10.647414458109047"><ele>66.33333333333334</ele><time>2026-04-18T07:00:29.001Z</time></trkpt><trkpt lat="43.52690525407909" lon="10.647459326327962"><ele>65.0</ele><time>2026-04-18T07:00:30.001Z</time></trkpt><trkpt lat="43.52676195019275" lon="10.647519149671064"><ele>65.0</ele><time>2026-04-18T07:00:31.001Z</time></trkpt><trkpt lat="43.5266240291048" lon="10.647600465177964"><ele>65.0</ele><time>2026-04-18T07:00:32.001Z</time></trkpt><trkpt lat="43.52648804293058" lon="10.647675788122362"><ele>65.0</ele><time>2026-04-18T07:00:33.001Z</time></trkpt><trkpt lat="43.52635878268929" lon="10.647776094334894"><ele>65.0</ele><time>2026-04-18T07:00:34.001Z</time></trkpt><trkpt lat="43.52623778662901" lon="10.6478822716693"><ele>64.5</ele><time>2026-04-18T07:00:35.001Z</time></trkpt><trkpt lat="43.52612143356387" lon="10.647990951487722"><ele>64.0</ele><time>2026-04-18T07:00:36.001Z</time></trkpt><trkpt lat="43.526008045678786" lon="10.648104254911708"><ele>63.5</ele><time>2026-04-18T07:00:37.001Z</time></trkpt><trkpt lat="43.52590691971161" lon="10.648195939616423"><ele>63.0</ele><time>2026-04-18T07:00:38.001Z</time></trkpt><trkpt lat="43.52582152717914" lon="10.648249297479758"><ele>63.0</ele><time>2026-04-18T07:00:39.001Z</time></trkpt><trkpt lat="43.52574297654434" lon="10.64827993890654"><ele>63.0</ele><time>2026-04-18T07:00:40.001Z</time></trkpt><trkpt lat="43.525669565768425" lon="10.648291550538485"><ele>63.0</ele><time>2026-04-18T07:00:41.001Z</time></trkpt><trkpt lat="43.525552621836574" lon="10.648258599595659"><ele>63.0</ele><time>2026-04-18T07:00:43.001Z</time></trkpt><trkpt lat="43.525487847359706" lon="10.648200777163542"><ele>63.0</ele><time>2026-04-18T07:00:45.001Z</time></trkpt><trkpt lat="43.525563486792" lon="10.648246488679893"><ele>63.0</ele><time>2026-04-18T07:00:56.001Z</time></trkpt><trkpt lat="43.52567954298921" lon="10.648331954470764"><ele>63.0</ele><time>2026-04-18T07:00:57.001Z</time></trkpt><trkpt lat="43.52577319138802" lon="10.648330645018238"><ele>63.0</ele><time>2026-04-18T07:00:58.001Z</time></trkpt><trkpt lat="43.52586079796931" lon="10.648299189319701"><ele>63.0</ele><time>2026-04-18T07:00:59.001Z</time></trkpt><trkpt lat="43.52591838031297" lon="10.64821792202809"><ele>63.0</ele><time>2026-04-18T07:01:00.001Z</time></trkpt><trkpt lat="43.52598433336792" lon="10.648320697178079"><ele>63.0</ele><time>2026-04-18T07:01:02.001Z</time></trkpt><trkpt lat="43.526031136538194" lon="10.648456435265569"><ele>63.0</ele><time>2026-04-18T07:01:04.001Z</time></trkpt><trkpt lat="43.52603988160094" lon="10.648553106818852"><ele>63.0</ele><time>2026-04-18T07:01:05.001Z</time></trkpt><trkpt lat="43.52605230370254" lon="10.648701325502206"><ele>63.0</ele><time>2026-04-18T07:01:07.001Z</time></trkpt><trkpt lat="43.52607932245691" lon="10.648823496238974"><ele>63.0</ele><time>2026-04-18T07:01:09.001Z</time></trkpt><trkpt lat="43.526119991766656" lon="10.649019273873394"><ele>63.0</ele><time>2026-04-18T07:01:11.001Z</time></trkpt><trkpt lat="43.526127396546485" lon="10.649129233178208"><ele>64.6</ele><time>2026-04-18T07:01:12.001Z</time></trkpt><trkpt lat="43.52607554595535" lon="10.649273553635226"><ele>66.19999999999999</ele><time>2026-04-18T07:01:14.001Z</time></trkpt><trkpt lat="43.525982289066256" lon="10.64929670417037"><ele>67.8</ele><time>2026-04-18T07:01:16.001Z</time></trkpt><trkpt lat="43.52592591054758" lon="10.64922679242038"><ele>69.39999999999999</ele><time>2026-04-18T07:01:17.001Z</time></trkpt><trkpt lat="43.52586694957198" lon="10.64916448897136"><ele>71.0</ele><time>2026-04-18T07:01:18.001Z</time></trkpt><trkpt lat="43.525784325285684" lon="10.64908680786867"><ele>71.0</ele><time>2026-04-18T07:01:19.001Z</time></trkpt><trkpt lat="43.525678997497366" lon="10.649011269019686"><ele>71.0</ele><time>2026-04-18T07:01:20.001Z</time></trkpt><trkpt lat="43.52557419720836" lon="10.648909424175205"><ele>71.0</ele><time>2026-04-18T07:01:21.001Z</time></trkpt><trkpt lat="43.52546226450068" lon="10.648794335353301"><ele>71.0</ele><time>2026-04-18T07:01:22.001Z</time></trkpt><trkpt lat="43.52535643011109" lon="10.648668958574655"><ele>69.83333333333334</ele><time>2026-04-18T07:01:23.001Z</time></trkpt><trkpt lat="43.52528049731703" lon="10.64856507171501"><ele>68.66666666666667</ele><time>2026-04-18T07:01:24.001Z</time></trkpt><trkpt lat="43.525220772457516" lon="10.648489552857257"><ele>67.5</ele><time>2026-04-18T07:01:25.001Z</time></trkpt><trkpt lat="43.52515435395883" lon="10.648448106706427"><ele>66.33333333333333</ele><time>2026-04-18T07:01:26.001Z</time></trkpt><trkpt lat="43.52507010916818" lon="10.648447184969575"><ele>65.16666666666666</ele><time>2026-04-18T07:01:27.001Z</time></trkpt><trkpt lat="43.524988169151115" lon="10.64847990045822"><ele>64.0</ele><time>2026-04-18T07:01:28.001Z</time></trkpt><trkpt lat="43.52492957221318" lon="10.648550733311549"><ele>65.0</ele><time>2026-04-18T07:01:29.001Z</time></trkpt><trkpt lat="43.5248953166405" lon="10.648649335329319"><ele>66.0</ele><time>2026-04-18T07:01:30.001Z</time></trkpt><trkpt lat="43.524880451624675" lon="10.648762062212707"><ele>67.0</ele><time>2026-04-18T07:01:31.002Z</time></trkpt><trkpt lat="43.524890396001425" lon="10.648863390328843"><ele>68.0</ele><time>2026-04-18T07:01:32.002Z</time></trkpt><trkpt lat="43.52492105165396" lon="10.648974270525684"><ele>69.0</ele><time>2026-04-18T07:01:33.002Z</time></trkpt><trkpt lat="43.52496241429226" lon="10.649103583857014"><ele>70.0</ele><time>2026-04-18T07:01:34.002Z</time></trkpt><trkpt lat="43.52501383633705" lon="10.649240001343301"><ele>70.0</ele><time>2026-04-18T07:01:35.002Z</time></trkpt><trkpt lat="43.52507762834023" lon="10.649383553816289"><ele>70.0</ele><time>2026-04-18T07:01:36.002Z</time></trkpt><trkpt lat="43.525146174129304" lon="10.649545838106242"><ele>70.0</ele><time>2026-04-18T07:01:37.002Z</time></trkpt><trkpt lat="43.525214631471535" lon="10.649732146882913"><ele>70.0</ele><time>2026-04-18T07:01:38.002Z</time></trkpt><trkpt lat="43.525282522905385" lon="10.649909348682637"><ele>70.2</ele><time>2026-04-18T07:01:39.002Z</time></trkpt><trkpt lat="43.525346388483605" lon="10.6500552942104"><ele>70.4</ele><time>2026-04-18T07:01:40.002Z</time></trkpt><trkpt lat="43.525406722207194" lon="10.650159330471949"><ele>70.6</ele><time>2026-04-18T07:01:41.002Z</time></trkpt><trkpt lat="43.5254792098762" lon="10.650231102954118"><ele>70.8</ele><time>2026-04-18T07:01:42.002Z</time></trkpt><trkpt lat="43.52556959509581" lon="10.650270354368796"><ele>71.0</ele><time>2026-04-18T07:01:43.002Z</time></trkpt><trkpt lat="43.52567762421246" lon="10.650286295012709"><ele>73.5</ele><time>2026-04-18T07:01:44.002Z</time></trkpt><trkpt lat="43.52579842756991" lon="10.650311649429652"><ele>76.0</ele><time>2026-04-18T07:01:45.002Z</time></trkpt><trkpt lat="43.52592236112909" lon="10.650398012177067"><ele>78.5</ele><time>2026-04-18T07:01:46.002Z</time></trkpt><trkpt lat="43.52602701315125" lon="10.650516537542995"><ele>81.0</ele><time>2026-04-18T07:01:47.002Z</time></trkpt><trkpt lat="43.52609955551273" lon="10.650648785875102"><ele>81.0</ele><time>2026-04-18T07:01:48.002Z</time></trkpt><trkpt lat="43.526141161104555" lon="10.650783340792021"><ele>81.0</ele><time>2026-04-18T07:01:49.002Z</time></trkpt><trkpt lat="43.52617238799972" lon="10.65091583751536"><ele>81.0</ele><time>2026-04-18T07:01:50.002Z</time></trkpt><trkpt lat="43.526247546983264" lon="10.651065901147003"><ele>81.0</ele><time>2026-04-18T07:01:51.002Z</time></trkpt><trkpt lat="43.52635274988859" lon="10.651194805209618"><ele>82.75</ele><time>2026-04-18T07:01:52.002Z</time></trkpt><trkpt lat="43.52645893478862" lon="10.651324263047696"><ele>84.5</ele><time>2026-04-18T07:01:53.002Z</time></trkpt><trkpt lat="43.52654673400483" lon="10.651469614550983"><ele>86.25</ele><time>2026-04-18T07:01:54.002Z</time></trkpt><trkpt lat="43.526617826040166" lon="10.651640645170264"><ele>88.0</ele><time>2026-04-18T07:01:55.002Z</time></trkpt><trkpt lat="43.526646306643485" lon="10.65178085116021"><ele>88.25</ele><time>2026-04-18T07:01:56.002Z</time></trkpt><trkpt lat="43.52667505651368" lon="10.65196253670606"><ele>88.5</ele><time>2026-04-18T07:01:57.002Z</time></trkpt><trkpt lat="43.52669368852686" lon="10.652153866081841"><ele>88.75</ele><time>2026-04-18T07:01:58.002Z</time></trkpt><trkpt lat="43.526723664200496" lon="10.652340179508213"><ele>89.0</ele><time>2026-04-18T07:01:59.002Z</time></trkpt><trkpt lat="43.526775040480366" lon="10.652533471653793"><ele>89.0</ele><time>2026-04-18T07:02:00.002Z</time></trkpt><trkpt lat="43.52684896770975" lon="10.652697269539548"><ele>89.0</ele><time>2026-04-18T07:02:01.002Z</time></trkpt><trkpt lat="43.52693358308793" lon="10.652828953694096"><ele>89.0</ele><time>2026-04-18T07:02:02.002Z</time></trkpt><trkpt lat="43.5270254962359" lon="10.65293510043924"><ele>89.0</ele><time>2026-04-18T07:02:03.002Z</time></trkpt><trkpt lat="43.5271283272666" lon="10.653026792598794"><ele>90.75</ele><time>2026-04-18T07:02:04.002Z</time></trkpt><trkpt lat="43.52724473983706" lon="10.653106047466233"><ele>92.5</ele><time>2026-04-18T07:02:05.002Z</time></trkpt><trkpt lat="43.5273583088251" lon="10.653187014448925"><ele>94.25</ele><time>2026-04-18T07:02:06.002Z</time></trkpt><trkpt lat="43.527468466424914" lon="10.653217331158217"><ele>96.0</ele><time>2026-04-18T07:02:07.002Z</time></trkpt><trkpt lat="43.527605230003815" lon="10.65320491448524"><ele>96.0</ele><time>2026-04-18T07:02:08.002Z</time></trkpt><trkpt lat="43.52773905913062" lon="10.653177344949649"><ele>96.0</ele><time>2026-04-18T07:02:09.002Z</time></trkpt><trkpt lat="43.52788190704366" lon="10.653147860058713"><ele>96.0</ele><time>2026-04-18T07:02:10.002Z</time></trkpt><trkpt lat="43.52802793023905" lon="10.653134643200096"><ele>96.0</ele><time>2026-04-18T07:02:11.002Z</time></trkpt><trkpt lat="43.52816795256781" lon="10.653162363592779"><ele>98.0</ele><time>2026-04-18T07:02:12.001Z</time></trkpt><trkpt lat="43.52829534238658" lon="10.653219515461187"><ele>100.0</ele><time>2026-04-18T07:02:13.001Z</time></trkpt><trkpt lat="43.52843330109326" lon="10.653361035018719"><ele>102.0</ele><time>2026-04-18T07:02:14.001Z</time></trkpt><trkpt lat="43.52857501394892" lon="10.653495233456704"><ele>102.0</ele><time>2026-04-18T07:02:15.001Z</time></trkpt><trkpt lat="43.52864818272407" lon="10.653541142364316"><ele>102.0</ele><time>2026-04-18T07:02:16.001Z</time></trkpt><trkpt lat="43.528768317856276" lon="10.653674632168473"><ele>102.0</ele><time>2026-04-18T07:02:17.001Z</time></trkpt><trkpt lat="43.528885953829814" lon="10.653806589056316"><ele>102.0</ele><time>2026-04-18T07:02:18.001Z</time></trkpt><trkpt lat="43.5290025609381" lon="10.653949533288774"><ele>104.0</ele><time>2026-04-18T07:02:19.001Z</time></trkpt><trkpt lat="43.529120797638484" lon="10.654106804138584"><ele>106.0</ele><time>2026-04-18T07:02:20.001Z</time></trkpt><trkpt lat="43.5292230793143" lon="10.654289911153823"><ele>108.0</ele><time>2026-04-18T07:02:21.001Z</time></trkpt><trkpt lat="43.52932195302826" lon="10.654479253773918"><ele>108.0</ele><time>2026-04-18T07:02:22.001Z</time></trkpt><trkpt lat="43.52942293270496" lon="10.654670425782863"><ele>108.0</ele><time>2026-04-18T07:02:23.001Z</time></trkpt><trkpt lat="43.52951893062618" lon="10.654844525682924"><ele>108.0</ele><time>2026-04-18T07:02:24.001Z</time></trkpt><trkpt lat="43.52956983950186" lon="10.655012473529021"><ele>108.0</ele><time>2026-04-18T07:02:25.001Z</time></trkpt><trkpt lat="43.529595652167025" lon="10.655161822166587"><ele>108.0</ele><time>2026-04-18T07:02:26.001Z</time></trkpt><trkpt lat="43.529591334271906" lon="10.655294238632578"><ele>108.0</ele><time>2026-04-18T07:02:27.001Z</time></trkpt><trkpt lat="43.529580110679426" lon="10.655452738274382"><ele>108.0</ele><time>2026-04-18T07:02:28.001Z</time></trkpt><trkpt lat="43.52960582317318" lon="10.65563554347637"><ele>110.33333333333334</ele><time>2026-04-18T07:02:29.001Z</time></trkpt><trkpt lat="43.52964266288663" lon="10.655836488727875"><ele>112.66666666666667</ele><time>2026-04-18T07:02:30.001Z</time></trkpt><trkpt lat="43.52971012183158" lon="10.656042310581256"><ele>115.0</ele><time>2026-04-18T07:02:31.001Z</time></trkpt><trkpt lat="43.52979579056311" lon="10.65623499387165"><ele>117.0</ele><time>2026-04-18T07:02:32.001Z</time></trkpt><trkpt lat="43.52987338681104" lon="10.656394534732682"><ele>119.0</ele><time>2026-04-18T07:02:33.001Z</time></trkpt><trkpt lat="43.529895280023524" lon="10.656548113450574"><ele>121.0</ele><time>2026-04-18T07:02:34.001Z</time></trkpt><trkpt lat="43.52988707939531" lon="10.656708275742684"><ele>123.0</ele><time>2026-04-18T07:02:35.001Z</time></trkpt><trkpt lat="43.52989430819087" lon="10.656896566905099"><ele>122.60000000000001</ele><time>2026-04-18T07:02:36.001Z</time></trkpt><trkpt lat="43.529914579762206" lon="10.657076748998982"><ele>122.20000000000002</ele><time>2026-04-18T07:02:37.001Z</time></trkpt><trkpt lat="43.52995503347705" lon="10.657198233381765"><ele>121.8</ele><time>2026-04-18T07:02:38.001Z</time></trkpt><trkpt lat="43.53006532638506" lon="10.657257882852184"><ele>121.4</ele><time>2026-04-18T07:02:39.001Z</time></trkpt><trkpt lat="43.53016367086332" lon="10.657292421300767"><ele>121.0</ele><time>2026-04-18T07:02:40.001Z</time></trkpt><trkpt lat="43.530272594223504" lon="10.657346708764623"><ele>124.5</ele><time>2026-04-18T07:02:41.001Z</time></trkpt><trkpt lat="43.53041362912048" lon="10.657395070303972"><ele>128.0</ele><time>2026-04-18T07:02:42.001Z</time></trkpt><trkpt lat="43.530541388939575" lon="10.657478120097869"><ele>131.5</ele><time>2026-04-18T07:02:43.001Z</time></trkpt><trkpt lat="43.53067908594369" lon="10.657542715103709"><ele>135.0</ele><time>2026-04-18T07:02:44.001Z</time></trkpt><trkpt lat="43.53082203550176" lon="10.65758417399398"><ele>135.0</ele><time>2026-04-18T07:02:45.001Z</time></trkpt><trkpt lat="43.530961173402815" lon="10.65757436614689"><ele>135.0</ele><time>2026-04-18T07:02:46.001Z</time></trkpt><trkpt lat="43.53109347052193" lon="10.657511650628878"><ele>135.0</ele><time>2026-04-18T07:02:47.001Z</time></trkpt><trkpt lat="43.53121460666114" lon="10.657427025180024"><ele>135.0</ele><time>2026-04-18T07:02:48.001Z</time></trkpt><trkpt lat="43.531331246418" lon="10.657333513383188"><ele>137.2</ele><time>2026-04-18T07:02:49.001Z</time></trkpt><trkpt lat="43.53142154241903" lon="10.657288869520384"><ele>139.4</ele><time>2026-04-18T07:02:50.001Z</time></trkpt><trkpt lat="43.53152676935181" lon="10.657293655380863"><ele>141.6</ele><time>2026-04-18T07:02:51.001Z</time></trkpt><trkpt lat="43.53160827310939" lon="10.65736511984784"><ele>143.8</ele><time>2026-04-18T07:02:52.001Z</time></trkpt><trkpt lat="43.53169935269922" lon="10.65743835805893"><ele>146.0</ele><time>2026-04-18T07:02:53.001Z</time></trkpt><trkpt lat="43.53177715996257" lon="10.657511418631682"><ele>146.0</ele><time>2026-04-18T07:02:54.001Z</time></trkpt><trkpt lat="43.53188299844232" lon="10.657564726496572"><ele>146.0</ele><time>2026-04-18T07:02:55.001Z</time></trkpt><trkpt lat="43.53199742281201" lon="10.657631127311724"><ele>146.0</ele><time>2026-04-18T07:02:56.001Z</time></trkpt><trkpt lat="43.53214786851668" lon="10.657686834626082"><ele>146.0</ele><time>2026-04-18T07:02:57.001Z</time></trkpt><trkpt lat="43.532283206648806" lon="10.657725451795745"><ele>144.6</ele><time>2026-04-18T07:02:58.001Z</time></trkpt><trkpt lat="43.53238528463803" lon="10.657782361646213"><ele>143.2</ele><time>2026-04-18T07:02:59.001Z</time></trkpt><trkpt lat="43.53245810693678" lon="10.657787011453975"><ele>141.8</ele><time>2026-04-18T07:03:00.001Z</time></trkpt><trkpt lat="43.53252761638513" lon="10.657872539757662"><ele>140.4</ele><time>2026-04-18T07:03:01.001Z</time></trkpt><trkpt lat="43.53252531268463" lon="10.65799389988162"><ele>139.0</ele><time>2026-04-18T07:03:03.001Z</time></trkpt><trkpt lat="43.53243959104331" lon="10.658133422382281"><ele>141.33333333333334</ele><time>2026-04-18T07:03:05.001Z</time></trkpt><trkpt lat="43.53236694450178" lon="10.65819600860932"><ele>143.66666666666669</ele><time>2026-04-18T07:03:06.001Z</time></trkpt><trkpt lat="43.53228799364413" lon="10.658180267403747"><ele>146.0</ele><time>2026-04-18T07:03:07.001Z</time></trkpt><trkpt lat="43.53220495033021" lon="10.658169417869981"><ele>148.33333333333334</ele><time>2026-04-18T07:03:08.001Z</time></trkpt><trkpt lat="43.53213407559123" lon="10.658073285263983"><ele>150.66666666666666</ele><time>2026-04-18T07:03:09.001Z</time></trkpt><trkpt lat="43.53204337863778" lon="10.658020887362715"><ele>153.0</ele><time>2026-04-18T07:03:10.001Z</time></trkpt><trkpt lat="43.53195273556543" lon="10.657953629785496"><ele>154.0</ele><time>2026-04-18T07:03:11.001Z</time></trkpt><trkpt lat="43.53186435689572" lon="10.657909604228836"><ele>155.0</ele><time>2026-04-18T07:03:12.001Z</time></trkpt><trkpt lat="43.53178739526852" lon="10.657887981754097"><ele>156.0</ele><time>2026-04-18T07:03:13.001Z</time></trkpt><trkpt lat="43.53171821364731" lon="10.657898684846652"><ele>157.0</ele><time>2026-04-18T07:03:14.001Z</time></trkpt><trkpt lat="43.53165414503529" lon="10.657952206042705"><ele>158.0</ele><time>2026-04-18T07:03:15.001Z</time></trkpt><trkpt lat="43.53161522241952" lon="10.65804217867171"><ele>159.0</ele><time>2026-04-18T07:03:16.001Z</time></trkpt><trkpt lat="43.53159811972648" lon="10.658148456124714"><ele>159.0</ele><time>2026-04-18T07:03:17.001Z</time></trkpt><trkpt lat="43.531620295112084" lon="10.658271752277019"><ele>159.0</ele><time>2026-04-18T07:03:18.001Z</time></trkpt><trkpt lat="43.53167187287995" lon="10.65833810773902"><ele>159.0</ele><time>2026-04-18T07:03:19.001Z</time></trkpt><trkpt lat="43.531740173584694" lon="10.658388299767386"><ele>159.0</ele><time>2026-04-18T07:03:20.001Z</time></trkpt><trkpt lat="43.531828106269835" lon="10.658445661964379"><ele>159.0</ele><time>2026-04-18T07:03:21.001Z</time></trkpt><trkpt lat="43.53191235116945" lon="10.65851041887841"><ele>159.0</ele><time>2026-04-18T07:03:22.001Z</time></trkpt><trkpt lat="43.53199696081186" lon="10.658599393023202"><ele>159.4</ele><time>2026-04-18T07:03:23.001Z</time></trkpt><trkpt lat="43.53205977044653" lon="10.658720837369108"><ele>159.8</ele><time>2026-04-18T07:03:24.001Z</time></trkpt><trkpt lat="43.53210798231806" lon="10.658859891714412"><ele>160.20000000000002</ele><time>2026-04-18T07:03:25.001Z</time></trkpt><trkpt lat="43.53215557436401" lon="10.658990975909937"><ele>160.60000000000002</ele><time>2026-04-18T07:03:26.002Z</time></trkpt><trkpt lat="43.53221583705557" lon="10.659115136851666"><ele>161.0</ele><time>2026-04-18T07:03:27.002Z</time></trkpt><trkpt lat="43.53227746320021" lon="10.659228636153268"><ele>161.0</ele><time>2026-04-18T07:03:28.002Z</time></trkpt><trkpt lat="43.53234441487927" lon="10.659334179388056"><ele>161.0</ele><time>2026-04-18T07:03:29.002Z</time></trkpt><trkpt lat="43.532409177950214" lon="10.659435648470632"><ele>161.0</ele><time>2026-04-18T07:03:30.002Z</time></trkpt><trkpt lat="43.5324695113278" lon="10.659537943425356"><ele>161.0</ele><time>2026-04-18T07:03:31.002Z</time></trkpt><trkpt lat="43.532523112778" lon="10.659634155004772"><ele>161.0</ele><time>2026-04-18T07:03:32.002Z</time></trkpt><trkpt lat="43.53257485708043" lon="10.659719457393786"><ele>160.16666666666666</ele><time>2026-04-18T07:03:33.002Z</time></trkpt><trkpt lat="43.532636330578285" lon="10.659809383392332"><ele>159.33333333333331</ele><time>2026-04-18T07:03:34.002Z</time></trkpt><trkpt lat="43.53269543124757" lon="10.659894617074539"><ele>158.5</ele><time>2026-04-18T07:03:35.002Z</time></trkpt><trkpt lat="43.5327508816072" lon="10.659979809613079"><ele>157.66666666666666</ele><time>2026-04-18T07:03:36.002Z</time></trkpt><trkpt lat="43.53280608548614" lon="10.660064624979979"><ele>156.83333333333334</ele><time>2026-04-18T07:03:37.002Z</time></trkpt><trkpt lat="43.53286272683945" lon="10.660156294874758"><ele>156.0</ele><time>2026-04-18T07:03:38.002Z</time></trkpt><trkpt lat="43.5329231263798" lon="10.660253939083512"><ele>158.6</ele><time>2026-04-18T07:03:39.002Z</time></trkpt><trkpt lat="43.53298756928958" lon="10.660351890588986"><ele>161.2</ele><time>2026-04-18T07:03:40.002Z</time></trkpt><trkpt lat="43.533046909194056" lon="10.660443337494401"><ele>163.79999999999998</ele><time>2026-04-18T07:03:41.002Z</time></trkpt><trkpt lat="43.533105774325534" lon="10.660538370078687"><ele>166.39999999999998</ele><time>2026-04-18T07:03:42.002Z</time></trkpt><trkpt lat="43.53317046678334" lon="10.66063442995089"><ele>169.0</ele><time>2026-04-18T07:03:43.002Z</time></trkpt><trkpt lat="43.533246591148504" lon="10.660728704490973"><ele>169.0</ele><time>2026-04-18T07:03:44.002Z</time></trkpt><trkpt lat="43.53333217057153" lon="10.660807876875111"><ele>169.0</ele><time>2026-04-18T07:03:45.002Z</time></trkpt><trkpt lat="43.53341075948499" lon="10.66086284049253"><ele>169.0</ele><time>2026-04-18T07:03:46.002Z</time></trkpt><trkpt lat="43.533473402411886" lon="10.660909782972976"><ele>169.0</ele><time>2026-04-18T07:03:47.002Z</time></trkpt><trkpt lat="43.53355463616993" lon="10.660988386388315"><ele>169.0</ele><time>2026-04-18T07:03:49.002Z</time></trkpt><trkpt lat="43.53358452630191" lon="10.661085118658631"><ele>169.0</ele><time>2026-04-18T07:03:53.002Z</time></trkpt><trkpt lat="43.53364974996088" lon="10.661091933900934"><ele>167.79999999999998</ele><time>2026-04-18T07:03:54.002Z</time></trkpt><trkpt lat="43.53378615770817" lon="10.661141244230192"><ele>166.6</ele><time>2026-04-18T07:03:56.002Z</time></trkpt><trkpt lat="43.5338737384938" lon="10.66115988759748"><ele>165.4</ele><time>2026-04-18T07:03:57.002Z</time></trkpt><trkpt lat="43.53396723952062" lon="10.661178184709074"><ele>164.2</ele><time>2026-04-18T07:03:58.002Z</time></trkpt><trkpt lat="43.534060655765224" lon="10.661195067564307"><ele>163.0</ele><time>2026-04-18T07:03:59.002Z</time></trkpt><trkpt lat="43.53414366483016" lon="10.661214589859442"><ele>163.0</ele><time>2026-04-18T07:04:00.002Z</time></trkpt><trkpt lat="43.53421763904144" lon="10.661239010798852"><ele>163.0</ele><time>2026-04-18T07:04:01.002Z</time></trkpt><trkpt lat="43.534276133892256" lon="10.66127997964146"><ele>163.0</ele><time>2026-04-18T07:04:03.002Z</time></trkpt><trkpt lat="43.53421141692873" lon="10.661424984309406"><ele>163.0</ele><time>2026-04-18T07:04:04.002Z</time></trkpt><trkpt lat="43.534167276842915" lon="10.661537850993591"><ele>163.0</ele><time>2026-04-18T07:04:05.002Z</time></trkpt><trkpt lat="43.53411186619974" lon="10.661716909522847"><ele>163.0</ele><time>2026-04-18T07:04:06.002Z</time></trkpt><trkpt lat="43.534043714010146" lon="10.661929480623382"><ele>163.0</ele><time>2026-04-18T07:04:07.002Z</time></trkpt><trkpt lat="43.533961069915264" lon="10.662157499406156"><ele>163.0</ele><time>2026-04-18T07:04:08.002Z</time></trkpt><trkpt lat="43.53386603452654" lon="10.662431717348744"><ele>161.0</ele><time>2026-04-18T07:04:09.002Z</time></trkpt><trkpt lat="43.5337567314015" lon="10.662710821702213"><ele>159.0</ele><time>2026-04-18T07:04:10.002Z</time></trkpt><trkpt lat="43.533682707527696" lon="10.662971972617168"><ele>157.0</ele><time>2026-04-18T07:04:11.002Z</time></trkpt><trkpt lat="43.53362520925954" lon="10.663197041165219"><ele>159.0</ele><time>2026-04-18T07:04:12.002Z</time></trkpt><trkpt lat="43.53357954014225" lon="10.663411327834602"><ele>161.0</ele><time>2026-04-18T07:04:13.002Z</time></trkpt><trkpt lat="43.533540302031085" lon="10.663599370969925"><ele>163.0</ele><time>2026-04-18T07:04:14.002Z</time></trkpt><trkpt lat="43.53351124690073" lon="10.663776570890498"><ele>165.0</ele><time>2026-04-18T07:04:15.002Z</time></trkpt><trkpt lat="43.53348108054606" lon="10.663943577135958"><ele>165.0</ele><time>2026-04-18T07:04:16.002Z</time></trkpt><trkpt lat="43.533462655737274" lon="10.664108695515319"><ele>165.0</ele><time>2026-04-18T07:04:17.002Z</time></trkpt><trkpt lat="43.53345532922524" lon="10.66427114824202"><ele>165.0</ele><time>2026-04-18T07:04:18.001Z</time></trkpt><trkpt lat="43.53342474368369" lon="10.664425525805065"><ele>165.0</ele><time>2026-04-18T07:04:19.001Z</time></trkpt><trkpt lat="43.53339022465025" lon="10.664558083538685"><ele>163.0</ele><time>2026-04-18T07:04:20.001Z</time></trkpt><trkpt lat="43.53333367561134" lon="10.664667541343201"><ele>161.0</ele><time>2026-04-18T07:04:21.001Z</time></trkpt><trkpt lat="43.53325964778192" lon="10.66476331754582"><ele>159.0</ele><time>2026-04-18T07:04:22.001Z</time></trkpt><trkpt lat="43.53317230246844" lon="10.664860643191801"><ele>157.0</ele><time>2026-04-18T07:04:23.001Z</time></trkpt><trkpt lat="43.533084443416755" lon="10.664965721797527"><ele>155.0</ele><time>2026-04-18T07:04:24.001Z</time></trkpt><trkpt lat="43.53297638433709" lon="10.665018704530429"><ele>154.5</ele><time>2026-04-18T07:04:25.001Z</time></trkpt><trkpt lat="43.53286753431927" lon="10.665054267823127"><ele>154.0</ele><time>2026-04-18T07:04:26.001Z</time></trkpt><trkpt lat="43.53275525571334" lon="10.665036733438477"><ele>153.5</ele><time>2026-04-18T07:04:27.001Z</time></trkpt><trkpt lat="43.532641606412405" lon="10.665004562940865"><ele>153.0</ele><time>2026-04-18T07:04:28.001Z</time></trkpt><trkpt lat="43.53252832893196" lon="10.664989147088807"><ele>153.0</ele><time>2026-04-18T07:04:29.001Z</time></trkpt><trkpt lat="43.53240869904189" lon="10.664965152004655"><ele>153.0</ele><time>2026-04-18T07:04:30.001Z</time></trkpt><trkpt lat="43.532300552488785" lon="10.66498223590382"><ele>153.0</ele><time>2026-04-18T07:04:31.001Z</time></trkpt><trkpt lat="43.532206695451556" lon="10.665037325736835"><ele>153.0</ele><time>2026-04-18T07:04:32.001Z</time></trkpt><trkpt lat="43.53212622272079" lon="10.665127929397787"><ele>153.0</ele><time>2026-04-18T07:04:33.001Z</time></trkpt><trkpt lat="43.53205433965083" lon="10.66524979211161"><ele>150.5</ele><time>2026-04-18T07:04:34.001Z</time></trkpt><trkpt lat="43.531987677495614" lon="10.665401680524868"><ele>148.0</ele><time>2026-04-18T07:04:35.001Z</time></trkpt><trkpt lat="43.53191414558638" lon="10.665565161573795"><ele>145.5</ele><time>2026-04-18T07:04:36.001Z</time></trkpt><trkpt lat="43.531829841041166" lon="10.665736227102094"><ele>143.0</ele><time>2026-04-18T07:04:37.001Z</time></trkpt><trkpt lat="43.53174604249156" lon="10.665906061016189"><ele>143.0</ele><time>2026-04-18T07:04:38.001Z</time></trkpt><trkpt lat="43.53167021517505" lon="10.66608473719247"><ele>143.0</ele><time>2026-04-18T07:04:39.001Z</time></trkpt><trkpt lat="43.53158803027072" lon="10.666263456788469"><ele>143.0</ele><time>2026-04-18T07:04:40.001Z</time></trkpt><trkpt lat="43.53150221192695" lon="10.66641826414847"><ele>143.0</ele><time>2026-04-18T07:04:41.001Z</time></trkpt><trkpt lat="43.53141243680392" lon="10.666564187414265"><ele>144.0</ele><time>2026-04-18T07:04:42.001Z</time></trkpt><trkpt lat="43.53131924118289" lon="10.666687727607595"><ele>145.0</ele><time>2026-04-18T07:04:43.001Z</time></trkpt><trkpt lat="43.53123470005113" lon="10.666813393299714"><ele>146.0</ele><time>2026-04-18T07:04:44.001Z</time></trkpt><trkpt lat="43.53114698959808" lon="10.666954277590392"><ele>147.0</ele><time>2026-04-18T07:04:45.001Z</time></trkpt><trkpt lat="43.53105810070221" lon="10.66708154724949"><ele>150.0</ele><time>2026-04-18T07:04:46.001Z</time></trkpt><trkpt lat="43.53096909109429" lon="10.667218558563507"><ele>153.0</ele><time>2026-04-18T07:04:47.001Z</time></trkpt><trkpt lat="43.530891952953766" lon="10.667352871449902"><ele>156.0</ele><time>2026-04-18T07:04:48.001Z</time></trkpt><trkpt lat="43.53079318977849" lon="10.667457649788993"><ele>159.0</ele><time>2026-04-18T07:04:49.001Z</time></trkpt><trkpt lat="43.530710447453785" lon="10.667578802835152"><ele>159.0</ele><time>2026-04-18T07:04:50.001Z</time></trkpt><trkpt lat="43.53060297285905" lon="10.667670885581767"><ele>159.0</ele><time>2026-04-18T07:04:51.001Z</time></trkpt><trkpt lat="43.53049493648064" lon="10.667762327785145"><ele>159.0</ele><time>2026-04-18T07:04:52.001Z</time></trkpt><trkpt lat="43.53039664411184" lon="10.667847248785629"><ele>159.0</ele><time>2026-04-18T07:04:53.001Z</time></trkpt><trkpt lat="43.53030012737234" lon="10.667945341750185"><ele>160.0</ele><time>2026-04-18T07:04:54.001Z</time></trkpt><trkpt lat="43.53019847885164" lon="10.668067959691218"><ele>161.0</ele><time>2026-04-18T07:04:55.001Z</time></trkpt><trkpt lat="43.530115947624644" lon="10.668213784199638"><ele>162.0</ele><time>2026-04-18T07:04:56.001Z</time></trkpt><trkpt lat="43.5300232604965" lon="10.668369827556829"><ele>163.0</ele><time>2026-04-18T07:04:57.001Z</time></trkpt><trkpt lat="43.529932189738865" lon="10.66850574176792"><ele>162.5</ele><time>2026-04-18T07:04:58.001Z</time></trkpt><trkpt lat="43.52983198888944" lon="10.668648631456081"><ele>162.0</ele><time>2026-04-18T07:04:59.001Z</time></trkpt><trkpt lat="43.52973515974193" lon="10.668793013491213"><ele>161.5</ele><time>2026-04-18T07:05:00.001Z</time></trkpt><trkpt lat="43.52963494429734" lon="10.668941330121594"><ele>161.0</ele><time>2026-04-18T07:05:01.001Z</time></trkpt><trkpt lat="43.52954468838598" lon="10.669069604225701"><ele>161.0</ele><time>2026-04-18T07:05:02.001Z</time></trkpt><trkpt lat="43.52947107518033" lon="10.669171391292666"><ele>161.0</ele><time>2026-04-18T07:05:03.001Z</time></trkpt><trkpt lat="43.529402119449706" lon="10.669264800289131"><ele>161.0</ele><time>2026-04-18T07:05:04.001Z</time></trkpt><trkpt lat="43.52932802527161" lon="10.66935364455718"><ele>161.0</ele><time>2026-04-18T07:05:05.001Z</time></trkpt><trkpt lat="43.529246989920814" lon="10.669435722037015"><ele>161.0</ele><time>2026-04-18T07:05:06.001Z</time></trkpt><trkpt lat="43.52916135800737" lon="10.669511189183787"><ele>161.4</ele><time>2026-04-18T07:05:07.001Z</time></trkpt><trkpt lat="43.529075253873245" lon="10.669591780248718"><ele>161.8</ele><time>2026-04-18T07:05:08.001Z</time></trkpt><trkpt lat="43.528988578833534" lon="10.669676873204395"><ele>162.20000000000002</ele><time>2026-04-18T07:05:09.001Z</time></trkpt><trkpt lat="43.528903583129434" lon="10.669771627942238"><ele>162.60000000000002</ele><time>2026-04-18T07:05:10.001Z</time></trkpt><trkpt lat="43.52882363901165" lon="10.669879004807592"><ele>163.0</ele><time>2026-04-18T07:05:11.001Z</time></trkpt><trkpt lat="43.52873437530011" lon="10.669987119561524"><ele>162.5</ele><time>2026-04-18T07:05:12.001Z</time></trkpt><trkpt lat="43.52864005829269" lon="10.670086979480832"><ele>162.0</ele><time>2026-04-18T07:05:13.001Z</time></trkpt><trkpt lat="43.52854981193411" lon="10.67019576298504"><ele>161.5</ele><time>2026-04-18T07:05:14.001Z</time></trkpt><trkpt lat="43.52845756505756" lon="10.670310495305527"><ele>161.0</ele><time>2026-04-18T07:05:15.001Z</time></trkpt><trkpt lat="43.528363124654526" lon="10.670429584671123"><ele>161.0</ele><time>2026-04-18T07:05:16.001Z</time></trkpt><trkpt lat="43.52826957558993" lon="10.670548143473589"><ele>161.0</ele><time>2026-04-18T07:05:17.001Z</time></trkpt><trkpt lat="43.52817344003413" lon="10.670667884872227"><ele>161.0</ele><time>2026-04-18T07:05:18.001Z</time></trkpt><trkpt lat="43.528077322787006" lon="10.670784906230015"><ele>161.0</ele><time>2026-04-18T07:05:19.001Z</time></trkpt><trkpt lat="43.52798162916932" lon="10.670905523112044"><ele>162.25</ele><time>2026-04-18T07:05:20.001Z</time></trkpt><trkpt lat="43.52788978840754" lon="10.671024400586429"><ele>163.5</ele><time>2026-04-18T07:05:21.001Z</time></trkpt><trkpt lat="43.52779757650409" lon="10.671147237033976"><ele>164.75</ele><time>2026-04-18T07:05:22.001Z</time></trkpt><trkpt lat="43.527708312839565" lon="10.671259204964764"><ele>166.0</ele><time>2026-04-18T07:05:23.001Z</time></trkpt><trkpt lat="43.52762281187023" lon="10.671363590775286"><ele>166.0</ele><time>2026-04-18T07:05:24.001Z</time></trkpt><trkpt lat="43.52754629833544" lon="10.671475214125296"><ele>166.0</ele><time>2026-04-18T07:05:25.001Z</time></trkpt><trkpt lat="43.52747780809422" lon="10.671608150538946"><ele>166.0</ele><time>2026-04-18T07:05:26.001Z</time></trkpt><trkpt lat="43.52741158532856" lon="10.671745630010518"><ele>166.0</ele><time>2026-04-18T07:05:27.001Z</time></trkpt><trkpt lat="43.52735269731528" lon="10.67190319659433"><ele>167.25</ele><time>2026-04-18T07:05:28.001Z</time></trkpt><trkpt lat="43.52728890623578" lon="10.672052266230606"><ele>168.5</ele><time>2026-04-18T07:05:29.001Z</time></trkpt><trkpt lat="43.52721738186907" lon="10.672191755552108"><ele>169.75</ele><time>2026-04-18T07:05:30.001Z</time></trkpt><trkpt lat="43.52713671284673" lon="10.672317225095812"><ele>171.0</ele><time>2026-04-18T07:05:31.001Z</time></trkpt><trkpt lat="43.52703765963745" lon="10.672427037602436"><ele>171.0</ele><time>2026-04-18T07:05:32.001Z</time></trkpt><trkpt lat="43.526914550682974" lon="10.672475350801324"><ele>171.0</ele><time>2026-04-18T07:05:33.001Z</time></trkpt><trkpt lat="43.5268023239726" lon="10.672481306031068"><ele>171.0</ele><time>2026-04-18T07:05:34.001Z</time></trkpt><trkpt lat="43.52669339232336" lon="10.672463167581096"><ele>171.0</ele><time>2026-04-18T07:05:35.001Z</time></trkpt><trkpt lat="43.52658347716446" lon="10.672448688236388"><ele>171.0</ele><time>2026-04-18T07:05:36.001Z</time></trkpt><trkpt lat="43.52647152940373" lon="10.672438074875158"><ele>171.0</ele><time>2026-04-18T07:05:37.001Z</time></trkpt><trkpt lat="43.52635782467384" lon="10.67244770668503"><ele>171.0</ele><time>2026-04-18T07:05:38.001Z</time></trkpt><trkpt lat="43.52624387828698" lon="10.67249330163616"><ele>171.0</ele><time>2026-04-18T07:05:39.001Z</time></trkpt><trkpt lat="43.52612540273422" lon="10.672551064053991"><ele>170.8</ele><time>2026-04-18T07:05:40.001Z</time></trkpt><trkpt lat="43.52604517495285" lon="10.672645432682062"><ele>170.60000000000002</ele><time>2026-04-18T07:05:41.001Z</time></trkpt><trkpt lat="43.52596482408266" lon="10.672748498616805"><ele>170.4</ele><time>2026-04-18T07:05:42.001Z</time></trkpt><trkpt lat="43.52591028636981" lon="10.672854527885114"><ele>170.2</ele><time>2026-04-18T07:05:43.001Z</time></trkpt><trkpt lat="43.52585378654505" lon="10.672990865885144"><ele>170.0</ele><time>2026-04-18T07:05:44.002Z</time></trkpt><trkpt lat="43.52582354356303" lon="10.67314461712767"><ele>170.0</ele><time>2026-04-18T07:05:45.002Z</time></trkpt><trkpt lat="43.52581255345392" lon="10.67331934190128"><ele>170.0</ele><time>2026-04-18T07:05:46.002Z</time></trkpt><trkpt lat="43.52581192024945" lon="10.673506690895076"><ele>170.0</ele><time>2026-04-18T07:05:47.002Z</time></trkpt><trkpt lat="43.52580789515496" lon="10.673687725693659"><ele>170.0</ele><time>2026-04-18T07:05:48.002Z</time></trkpt><trkpt lat="43.52579017030538" lon="10.673871424956683"><ele>172.0</ele><time>2026-04-18T07:05:49.002Z</time></trkpt><trkpt lat="43.52575338202258" lon="10.674046721465299"><ele>174.0</ele><time>2026-04-18T07:05:50.002Z</time></trkpt><trkpt lat="43.525738825167764" lon="10.674233526885088"><ele>176.0</ele><time>2026-04-18T07:05:51.002Z</time></trkpt><trkpt lat="43.52571239707223" lon="10.674412284535745"><ele>178.0</ele><time>2026-04-18T07:05:52.002Z</time></trkpt><trkpt lat="43.525684869654334" lon="10.674593593594224"><ele>179.0</ele><time>2026-04-18T07:05:53.002Z</time></trkpt><trkpt lat="43.52565603306427" lon="10.674755984762424"><ele>180.0</ele><time>2026-04-18T07:05:54.002Z</time></trkpt><trkpt lat="43.525634321944935" lon="10.674922593049946"><ele>181.0</ele><time>2026-04-18T07:05:55.002Z</time></trkpt><trkpt lat="43.52559800941512" lon="10.675073645218385"><ele>182.0</ele><time>2026-04-18T07:05:56.002Z</time></trkpt><trkpt lat="43.525592503287676" lon="10.675196958597185"><ele>183.0</ele><time>2026-04-18T07:05:57.002Z</time></trkpt><trkpt lat="43.52557512431519" lon="10.67531999423047"><ele>183.0</ele><time>2026-04-18T07:05:58.002Z</time></trkpt><trkpt lat="43.52552898028984" lon="10.675429492444453"><ele>183.0</ele><time>2026-04-18T07:05:59.002Z</time></trkpt><trkpt lat="43.525490532290775" lon="10.67553261576937"><ele>183.0</ele><time>2026-04-18T07:06:00.002Z</time></trkpt><trkpt lat="43.525456413466884" lon="10.67562142216545"><ele>183.0</ele><time>2026-04-18T07:06:01.002Z</time></trkpt><trkpt lat="43.52543777242429" lon="10.675705736059927"><ele>183.0</ele><time>2026-04-18T07:06:02.002Z</time></trkpt><trkpt lat="43.52537963623468" lon="10.67578248268229"><ele>183.0</ele><time>2026-04-18T07:06:03.002Z</time></trkpt><trkpt lat="43.52532421158446" lon="10.67584637257933"><ele>183.0</ele><time>2026-04-18T07:06:04.002Z</time></trkpt><trkpt lat="43.525259774760265" lon="10.675925787421816"><ele>183.0</ele><time>2026-04-18T07:06:05.002Z</time></trkpt><trkpt lat="43.52518294238067" lon="10.675995418841424"><ele>183.0</ele><time>2026-04-18T07:06:06.002Z</time></trkpt><trkpt lat="43.52512135536158" lon="10.676052476736754"><ele>183.0</ele><time>2026-04-18T07:06:07.002Z</time></trkpt><trkpt lat="43.52503204135173" lon="10.676131491372628"><ele>183.0</ele><time>2026-04-18T07:06:08.002Z</time></trkpt><trkpt lat="43.52497597903519" lon="10.67618030331354"><ele>183.0</ele><time>2026-04-18T07:06:09.002Z</time></trkpt><trkpt lat="43.52491037908902" lon="10.676237419893589"><ele>182.83333333333334</ele><time>2026-04-18T07:06:10.002Z</time></trkpt><trkpt lat="43.52485015498843" lon="10.676294178402859"><ele>182.66666666666666</ele><time>2026-04-18T07:06:11.002Z</time></trkpt><trkpt lat="43.52479486555208" lon="10.676354077418287"><ele>182.5</ele><time>2026-04-18T07:06:12.002Z</time></trkpt><trkpt lat="43.52473975260499" lon="10.676423941029125"><ele>182.33333333333331</ele><time>2026-04-18T07:06:13.002Z</time></trkpt><trkpt lat="43.52468658058892" lon="10.676497593220832"><ele>182.16666666666666</ele><time>2026-04-18T07:06:14.002Z</time></trkpt><trkpt lat="43.524631783609884" lon="10.676588307894486"><ele>182.0</ele><time>2026-04-18T07:06:15.002Z</time></trkpt><trkpt lat="43.52459264200689" lon="10.676675023235953"><ele>181.6</ele><time>2026-04-18T07:06:16.002Z</time></trkpt><trkpt lat="43.52454127478252" lon="10.67680114501676"><ele>181.2</ele><time>2026-04-18T07:06:18.002Z</time></trkpt><trkpt lat="43.52452699300103" lon="10.676888742152011"><ele>180.8</ele><time>2026-04-18T07:06:19.002Z</time></trkpt><trkpt lat="43.5245072201459" lon="10.677030907160082"><ele>180.4</ele><time>2026-04-18T07:06:21.002Z</time></trkpt><trkpt lat="43.52450908583731" lon="10.677169949038777"><ele>180.0</ele><time>2026-04-18T07:06:23.001Z</time></trkpt><trkpt lat="43.524588406575944" lon="10.67727343228041"><ele>179.0</ele><time>2026-04-18T07:06:25.001Z</time></trkpt><trkpt lat="43.52464110931711" lon="10.677362165474523"><ele>178.0</ele><time>2026-04-18T07:06:26.001Z</time></trkpt><trkpt lat="43.524708291111445" lon="10.677484344703897"><ele>177.0</ele><time>2026-04-18T07:06:28.001Z</time></trkpt><trkpt lat="43.524763303410616" lon="10.677644895378487"><ele>176.0</ele><time>2026-04-18T07:06:30.001Z</time></trkpt><trkpt lat="43.52473675297274" lon="10.677775445493017"><ele>175.0</ele><time>2026-04-18T07:06:31.001Z</time></trkpt><trkpt lat="43.52475692397621" lon="10.677892792710795"><ele>174.5</ele><time>2026-04-18T07:06:32.001Z</time></trkpt><trkpt lat="43.5247442841179" lon="10.677989901258382"><ele>174.0</ele><time>2026-04-18T07:06:33.001Z</time></trkpt><trkpt lat="43.524736444956844" lon="10.67809722796621"><ele>173.5</ele><time>2026-04-18T07:06:34.001Z</time></trkpt><trkpt lat="43.524733121054716" lon="10.67821909611667"><ele>173.0</ele><time>2026-04-18T07:06:35.001Z</time></trkpt><trkpt lat="43.524740264758975" lon="10.67832644058916"><ele>172.5</ele><time>2026-04-18T07:06:36.001Z</time></trkpt><trkpt lat="43.52475822834973" lon="10.678434712118706"><ele>172.0</ele><time>2026-04-18T07:06:37.001Z</time></trkpt><trkpt lat="43.52477489415569" lon="10.678538132974252"><ele>173.16666666666669</ele><time>2026-04-18T07:06:38.001Z</time></trkpt><trkpt lat="43.52479517567096" lon="10.67864442441932"><ele>174.33333333333334</ele><time>2026-04-18T07:06:39.001Z</time></trkpt><trkpt lat="43.52481489974311" lon="10.6787487068455"><ele>175.5</ele><time>2026-04-18T07:06:40.001Z</time></trkpt><trkpt lat="43.524843092924904" lon="10.678857919978816"><ele>176.66666666666666</ele><time>2026-04-18T07:06:41.001Z</time></trkpt><trkpt lat="43.524847375389086" lon="10.678968685540031"><ele>177.83333333333331</ele><time>2026-04-18T07:06:42.001Z</time></trkpt><trkpt lat="43.52485449179334" lon="10.679082215459735"><ele>179.0</ele><time>2026-04-18T07:06:43.001Z</time></trkpt><trkpt lat="43.524877128335255" lon="10.679199140246938"><ele>179.0</ele><time>2026-04-18T07:06:44.001Z</time></trkpt><trkpt lat="43.52486454820457" lon="10.679315073779422"><ele>179.0</ele><time>2026-04-18T07:06:45.001Z</time></trkpt><trkpt lat="43.5248770171621" lon="10.679440104473288"><ele>179.0</ele><time>2026-04-18T07:06:46.001Z</time></trkpt><trkpt lat="43.524863219483656" lon="10.679552534078898"><ele>179.0</ele><time>2026-04-18T07:06:47.001Z</time></trkpt><trkpt lat="43.52485088061123" lon="10.679664330293507"><ele>179.0</ele><time>2026-04-18T07:06:48.001Z</time></trkpt><trkpt lat="43.52483488871515" lon="10.679770900995718"><ele>179.0</ele><time>2026-04-18T07:06:49.001Z</time></trkpt><trkpt lat="43.524834067951474" lon="10.679891645504455"><ele>179.5</ele><time>2026-04-18T07:06:50.001Z</time></trkpt><trkpt lat="43.52484564578576" lon="10.680010654136126"><ele>180.0</ele><time>2026-04-18T07:06:51.001Z</time></trkpt><trkpt lat="43.524872264924426" lon="10.68011934381113"><ele>180.5</ele><time>2026-04-18T07:06:52.001Z</time></trkpt><trkpt lat="43.52490557119407" lon="10.68024041694472"><ele>181.0</ele><time>2026-04-18T07:06:53.001Z</time></trkpt><trkpt lat="43.524915079339834" lon="10.680359792191382"><ele>181.5</ele><time>2026-04-18T07:06:54.001Z</time></trkpt><trkpt lat="43.524936866578244" lon="10.680478205331886"><ele>182.0</ele><time>2026-04-18T07:06:55.001Z</time></trkpt><trkpt lat="43.52494999300754" lon="10.680603101406234"><ele>180.6</ele><time>2026-04-18T07:06:56.001Z</time></trkpt><trkpt lat="43.52495442034063" lon="10.680715589943167"><ele>179.2</ele><time>2026-04-18T07:06:57.001Z</time></trkpt><trkpt lat="43.524953870473226" lon="10.68082551949051"><ele>177.8</ele><time>2026-04-18T07:06:58.001Z</time></trkpt><trkpt lat="43.52495261407766" lon="10.680942416633306"><ele>176.4</ele><time>2026-04-18T07:06:59.001Z</time></trkpt><trkpt lat="43.52496652091895" lon="10.681047003238538"><ele>175.0</ele><time>2026-04-18T07:07:00.001Z</time></trkpt><trkpt lat="43.52495747650107" lon="10.681224978299802"><ele>174.5</ele><time>2026-04-18T07:07:02.001Z</time></trkpt><trkpt lat="43.52495482546532" lon="10.681328767785395"><ele>174.0</ele><time>2026-04-18T07:07:03.001Z</time></trkpt><trkpt lat="43.52495253723094" lon="10.681457407902666"><ele>173.5</ele><time>2026-04-18T07:07:04.001Z</time></trkpt><trkpt lat="43.524952967258955" lon="10.68158542681357"><ele>173.0</ele><time>2026-04-18T07:07:05.001Z</time></trkpt><trkpt lat="43.52495124705712" lon="10.681700300087023"><ele>172.5</ele><time>2026-04-18T07:07:06.001Z</time></trkpt><trkpt lat="43.52494917153866" lon="10.681804756146065"><ele>172.0</ele><time>2026-04-18T07:07:07.001Z</time></trkpt><trkpt lat="43.52495151576031" lon="10.681919044752831"><ele>171.71428571428572</ele><time>2026-04-18T07:07:08.001Z</time></trkpt><trkpt lat="43.52493393263277" lon="10.682032270020963"><ele>171.42857142857144</ele><time>2026-04-18T07:07:09.001Z</time></trkpt><trkpt lat="43.52494861322612" lon="10.682140657032749"><ele>171.14285714285717</ele><time>2026-04-18T07:07:10.001Z</time></trkpt><trkpt lat="43.524943492097805" lon="10.682233417157656"><ele>170.85714285714286</ele><time>2026-04-18T07:07:11.001Z</time></trkpt><trkpt lat="43.524943484191866" lon="10.682325591160021"><ele>170.57142857142856</ele><time>2026-04-18T07:07:12.001Z</time></trkpt><trkpt lat="43.52495838773043" lon="10.682413877808173"><ele>170.2857142857143</ele><time>2026-04-18T07:07:13.001Z</time></trkpt><trkpt lat="43.52499165930085" lon="10.682504941216918"><ele>170.0</ele><time>2026-04-18T07:07:14.001Z</time></trkpt><trkpt lat="43.52504299939039" lon="10.682579136887371"><ele>170.0</ele><time>2026-04-18T07:07:15.001Z</time></trkpt><trkpt lat="43.525123080524885" lon="10.682618693772666"><ele>170.0</ele><time>2026-04-18T07:07:16.001Z</time></trkpt><trkpt lat="43.525218778982946" lon="10.682638284665655"><ele>170.0</ele><time>2026-04-18T07:07:17.001Z</time></trkpt><trkpt lat="43.52530856661668" lon="10.682686975246437"><ele>170.0</ele><time>2026-04-18T07:07:18.001Z</time></trkpt><trkpt lat="43.52538247641438" lon="10.682730635200029"><ele>170.0</ele><time>2026-04-18T07:07:19.001Z</time></trkpt><trkpt lat="43.52543483542645" lon="10.682790235681198"><ele>170.0</ele><time>2026-04-18T07:07:20.001Z</time></trkpt><trkpt lat="43.52548725452582" lon="10.682866160914234"><ele>168.8</ele><time>2026-04-18T07:07:21.001Z</time></trkpt><trkpt lat="43.52556211111296" lon="10.683002244881488"><ele>167.6</ele><time>2026-04-18T07:07:23.001Z</time></trkpt><trkpt lat="43.52557609514669" lon="10.683087965757508"><ele>166.39999999999998</ele><time>2026-04-18T07:07:24.001Z</time></trkpt><trkpt lat="43.525627227639546" lon="10.683207766314858"><ele>165.2</ele><time>2026-04-18T07:07:26.001Z</time></trkpt><trkpt lat="43.52561913244068" lon="10.683338328928414"><ele>164.0</ele><time>2026-04-18T07:07:28.001Z</time></trkpt><trkpt lat="43.525529571247894" lon="10.683458993986735"><ele>164.0</ele><time>2026-04-18T07:07:30.001Z</time></trkpt><trkpt lat="43.52544941576737" lon="10.683523442155575"><ele>164.0</ele><time>2026-04-18T07:07:31.001Z</time></trkpt><trkpt lat="43.525351255687475" lon="10.683590205971509"><ele>164.0</ele><time>2026-04-18T07:07:32.001Z</time></trkpt><trkpt lat="43.52526463572045" lon="10.683648597289665"><ele>164.0</ele><time>2026-04-18T07:07:33.001Z</time></trkpt><trkpt lat="43.5251858997917" lon="10.683705862246153"><ele>164.0</ele><time>2026-04-18T07:07:34.001Z</time></trkpt><trkpt lat="43.52510959885966" lon="10.683763584857715"><ele>162.16666666666666</ele><time>2026-04-18T07:07:35.001Z</time></trkpt><trkpt lat="43.52503074699953" lon="10.683818204789187"><ele>160.33333333333331</ele><time>2026-04-18T07:07:36.001Z</time></trkpt><trkpt lat="43.5249508153134" lon="10.68387719234151"><ele>158.5</ele><time>2026-04-18T07:07:37.001Z</time></trkpt><trkpt lat="43.5248749483031" lon="10.683924364863014"><ele>156.66666666666666</ele><time>2026-04-18T07:07:38.001Z</time></trkpt><trkpt lat="43.5248097616821" lon="10.68394251460414"><ele>154.83333333333334</ele><time>2026-04-18T07:07:39.001Z</time></trkpt><trkpt lat="43.524700221732054" lon="10.68391135235266"><ele>153.0</ele><time>2026-04-18T07:07:41.001Z</time></trkpt><trkpt lat="43.524630559418" lon="10.683878322753896"><ele>150.8</ele><time>2026-04-18T07:07:43.001Z</time></trkpt><trkpt lat="43.52455356339675" lon="10.683950084830542"><ele>148.60000000000002</ele><time>2026-04-18T07:07:45.001Z</time></trkpt><trkpt lat="43.52451613884721" lon="10.684021592024337"><ele>146.39999999999998</ele><time>2026-04-18T07:07:46.001Z</time></trkpt><trkpt lat="43.52449628162147" lon="10.684179083688827"><ele>144.2</ele><time>2026-04-18T07:07:48.001Z</time></trkpt><trkpt lat="43.52450600252207" lon="10.684341733167994"><ele>142.0</ele><time>2026-04-18T07:07:50.001Z</time></trkpt><trkpt lat="43.52453640290363" lon="10.684427101332878"><ele>142.6</ele><time>2026-04-18T07:07:51.001Z</time></trkpt><trkpt lat="43.52459255422229" lon="10.684491486271945"><ele>143.2</ele><time>2026-04-18T07:07:52.001Z</time></trkpt><trkpt lat="43.5246760380551" lon="10.684539822432153"><ele>143.8</ele><time>2026-04-18T07:07:53.001Z</time></trkpt><trkpt lat="43.52476913767344" lon="10.684542107887529"><ele>144.4</ele><time>2026-04-18T07:07:54.001Z</time></trkpt><trkpt lat="43.524875030762786" lon="10.684552365229889"><ele>145.0</ele><time>2026-04-18T07:07:55.001Z</time></trkpt><trkpt lat="43.5249649020874" lon="10.684603978966116"><ele>145.0</ele><time>2026-04-18T07:07:56.001Z</time></trkpt><trkpt lat="43.52503166025992" lon="10.68463566385524"><ele>145.0</ele><time>2026-04-18T07:07:57.001Z</time></trkpt><trkpt lat="43.525141558616205" lon="10.684691680662821"><ele>145.0</ele><time>2026-04-18T07:07:59.001Z</time></trkpt><trkpt lat="43.52523238977211" lon="10.684813006017837"><ele>145.0</ele><time>2026-04-18T07:08:01.001Z</time></trkpt><trkpt lat="43.525268458921836" lon="10.684895275798976"><ele>145.0</ele><time>2026-04-18T07:08:02.001Z</time></trkpt><trkpt lat="43.525301448129795" lon="10.684995165181649"><ele>145.0</ele><time>2026-04-18T07:08:03.001Z</time></trkpt><trkpt lat="43.52531349364779" lon="10.685084785276501"><ele>145.0</ele><time>2026-04-18T07:08:04.001Z</time></trkpt><trkpt lat="43.52534436410642" lon="10.685245769339879"><ele>145.0</ele><time>2026-04-18T07:08:06.001Z</time></trkpt><trkpt lat="43.525375251859884" lon="10.685408876643388"><ele>145.0</ele><time>2026-04-18T07:08:08.001Z</time></trkpt><trkpt lat="43.52539856541754" lon="10.685521538420945"><ele>145.0</ele><time>2026-04-18T07:08:09.001Z</time></trkpt><trkpt lat="43.52542093737622" lon="10.685644564618586"><ele>146.0</ele><time>2026-04-18T07:08:10.001Z</time></trkpt><trkpt lat="43.52545504379282" lon="10.685773405973393"><ele>147.0</ele><time>2026-04-18T07:08:11.002Z</time></trkpt><trkpt lat="43.52548928352052" lon="10.685924014348126"><ele>148.0</ele><time>2026-04-18T07:08:12.001Z</time></trkpt><trkpt lat="43.525527766220634" lon="10.686084819419408"><ele>149.0</ele><time>2026-04-18T07:08:13.001Z</time></trkpt><trkpt lat="43.52554188608224" lon="10.686243203403995"><ele>146.6</ele><time>2026-04-18T07:08:14.002Z</time></trkpt><trkpt lat="43.52555398072363" lon="10.686390783014557"><ele>144.2</ele><time>2026-04-18T07:08:15.002Z</time></trkpt><trkpt lat="43.52556526120167" lon="10.686541270832256"><ele>141.79999999999998</ele><time>2026-04-18T07:08:16.002Z</time></trkpt><trkpt lat="43.52558306897356" lon="10.686685502615937"><ele>139.4</ele><time>2026-04-18T07:08:17.002Z</time></trkpt><trkpt lat="43.52558202372362" lon="10.686828238163315"><ele>137.0</ele><time>2026-04-18T07:08:18.002Z</time></trkpt><trkpt lat="43.52554942877895" lon="10.68697838888699"><ele>135.25</ele><time>2026-04-18T07:08:19.002Z</time></trkpt><trkpt lat="43.525530779141654" lon="10.68714443348349"><ele>133.5</ele><time>2026-04-18T07:08:20.002Z</time></trkpt><trkpt lat="43.525462248406015" lon="10.687297347973256"><ele>131.75</ele><time>2026-04-18T07:08:21.002Z</time></trkpt><trkpt lat="43.52540883667694" lon="10.687464035544549"><ele>130.0</ele><time>2026-04-18T07:08:22.002Z</time></trkpt><trkpt lat="43.52535725868828" lon="10.687637622611792"><ele>127.75</ele><time>2026-04-18T07:08:23.002Z</time></trkpt><trkpt lat="43.52530547633668" lon="10.687817268712994"><ele>125.5</ele><time>2026-04-18T07:08:24.002Z</time></trkpt><trkpt lat="43.52526083411672" lon="10.68800994757279"><ele>123.25</ele><time>2026-04-18T07:08:25.002Z</time></trkpt><trkpt lat="43.52522254840058" lon="10.6882006467288"><ele>121.0</ele><time>2026-04-18T07:08:26.002Z</time></trkpt><trkpt lat="43.525176191839876" lon="10.688371699242547"><ele>121.0</ele><time>2026-04-18T07:08:27.002Z</time></trkpt><trkpt lat="43.52516583989192" lon="10.688539768974088"><ele>121.0</ele><time>2026-04-18T07:08:28.002Z</time></trkpt><trkpt lat="43.52514201072849" lon="10.688705832373014"><ele>121.0</ele><time>2026-04-18T07:08:29.001Z</time></trkpt><trkpt lat="43.5251326584634" lon="10.68888980291554"><ele>121.0</ele><time>2026-04-18T07:08:30.001Z</time></trkpt><trkpt lat="43.52511013982499" lon="10.689072055387149"><ele>120.75</ele><time>2026-04-18T07:08:31.001Z</time></trkpt><trkpt lat="43.525079965296435" lon="10.689235677574867"><ele>120.5</ele><time>2026-04-18T07:08:32.001Z</time></trkpt><trkpt lat="43.525050747885096" lon="10.689390464049152"><ele>120.25</ele><time>2026-04-18T07:08:33.001Z</time></trkpt><trkpt lat="43.52502476397186" lon="10.689549591208559"><ele>120.0</ele><time>2026-04-18T07:08:34.001Z</time></trkpt><trkpt lat="43.52500346352025" lon="10.689714700270141"><ele>120.0</ele><time>2026-04-18T07:08:35.001Z</time></trkpt><trkpt lat="43.52498527195295" lon="10.689880950592725"><ele>120.0</ele><time>2026-04-18T07:08:36.001Z</time></trkpt><trkpt lat="43.52497809964967" lon="10.690043769527446"><ele>120.0</ele><time>2026-04-18T07:08:37.001Z</time></trkpt><trkpt lat="43.524994802309855" lon="10.690220817596392"><ele>120.0</ele><time>2026-04-18T07:08:38.001Z</time></trkpt><trkpt lat="43.5250262792495" lon="10.690413312074584"><ele>119.0</ele><time>2026-04-18T07:08:39.001Z</time></trkpt><trkpt lat="43.525055462980546" lon="10.690583404116207"><ele>118.0</ele><time>2026-04-18T07:08:40.001Z</time></trkpt><trkpt lat="43.52506394405672" lon="10.690739983267695"><ele>117.0</ele><time>2026-04-18T07:08:41.001Z</time></trkpt><trkpt lat="43.52510001816306" lon="10.690894168397511"><ele>116.0</ele><time>2026-04-18T07:08:42.001Z</time></trkpt><trkpt lat="43.52511041334746" lon="10.69104088813918"><ele>114.5</ele><time>2026-04-18T07:08:43.001Z</time></trkpt><trkpt lat="43.525130359139126" lon="10.691193843929826"><ele>113.0</ele><time>2026-04-18T07:08:44.001Z</time></trkpt><trkpt lat="43.525149955800984" lon="10.691354397107647"><ele>111.5</ele><time>2026-04-18T07:08:45.001Z</time></trkpt><trkpt lat="43.52519608026226" lon="10.691513710691975"><ele>110.0</ele><time>2026-04-18T07:08:46.001Z</time></trkpt><trkpt lat="43.52523843856705" lon="10.691673814277607"><ele>110.0</ele><time>2026-04-18T07:08:47.001Z</time></trkpt><trkpt lat="43.525277901743955" lon="10.691837543157657"><ele>110.0</ele><time>2026-04-18T07:08:48.001Z</time></trkpt><trkpt lat="43.5253135004474" lon="10.691989536579314"><ele>110.0</ele><time>2026-04-18T07:08:49.001Z</time></trkpt><trkpt lat="43.5253400499845" lon="10.69214553653691"><ele>110.0</ele><time>2026-04-18T07:08:50.001Z</time></trkpt><trkpt lat="43.52537126412368" lon="10.692299884112437"><ele>109.8</ele><time>2026-04-18T07:08:51.001Z</time></trkpt><trkpt lat="43.52537745098399" lon="10.692441253127333"><ele>109.6</ele><time>2026-04-18T07:08:52.001Z</time></trkpt><trkpt lat="43.525391861262456" lon="10.692566506005505"><ele>109.4</ele><time>2026-04-18T07:08:53.001Z</time></trkpt><trkpt lat="43.52540455479349" lon="10.692711097993092"><ele>109.2</ele><time>2026-04-18T07:08:54.001Z</time></trkpt><trkpt lat="43.52540689955557" lon="10.692862938521792"><ele>109.0</ele><time>2026-04-18T07:08:55.001Z</time></trkpt><trkpt lat="43.525405774644895" lon="10.693001424046868"><ele>109.0</ele><time>2026-04-18T07:08:56.001Z</time></trkpt><trkpt lat="43.52540696375119" lon="10.693151493403724"><ele>109.0</ele><time>2026-04-18T07:08:57.001Z</time></trkpt><trkpt lat="43.52541811545839" lon="10.693296869747156"><ele>109.0</ele><time>2026-04-18T07:08:58.001Z</time></trkpt><trkpt lat="43.52544802439047" lon="10.69344457487195"><ele>109.0</ele><time>2026-04-18T07:08:59.001Z</time></trkpt><trkpt lat="43.52550246813538" lon="10.693582699414067"><ele>109.0</ele><time>2026-04-18T07:09:00.001Z</time></trkpt><trkpt lat="43.52557289334127" lon="10.693729477184245"><ele>108.5</ele><time>2026-04-18T07:09:01.001Z</time></trkpt><trkpt lat="43.52565001301395" lon="10.693871702772487"><ele>108.0</ele><time>2026-04-18T07:09:02.001Z</time></trkpt><trkpt lat="43.52572012093292" lon="10.69401919208059"><ele>107.5</ele><time>2026-04-18T07:09:03.001Z</time></trkpt><trkpt lat="43.525775044662204" lon="10.694154365741346"><ele>107.0</ele><time>2026-04-18T07:09:04.001Z</time></trkpt><trkpt lat="43.525800036039335" lon="10.694283282761274"><ele>107.0</ele><time>2026-04-18T07:09:05.001Z</time></trkpt><trkpt lat="43.52584386102156" lon="10.694396151444675"><ele>106.99999999999999</ele><time>2026-04-18T07:09:06.001Z</time></trkpt><trkpt lat="43.52585939393902" lon="10.694521440054057"><ele>106.99999999999999</ele><time>2026-04-18T07:09:07.001Z</time></trkpt><trkpt lat="43.52586768781924" lon="10.694681349095422"><ele>107.0</ele><time>2026-04-18T07:09:08.001Z</time></trkpt><trkpt lat="43.525841201580604" lon="10.694841915824023"><ele>107.0</ele><time>2026-04-18T07:09:09.001Z</time></trkpt><trkpt lat="43.52581023137441" lon="10.695000782497061"><ele>106.6</ele><time>2026-04-18T07:09:10.001Z</time></trkpt><trkpt lat="43.52575804023535" lon="10.695131785263197"><ele>106.19999999999999</ele><time>2026-04-18T07:09:11.001Z</time></trkpt><trkpt lat="43.52568590751633" lon="10.69523010860161"><ele>105.8</ele><time>2026-04-18T07:09:12.001Z</time></trkpt><trkpt lat="43.525635150377255" lon="10.69533361623825"><ele>105.4</ele><time>2026-04-18T07:09:13.001Z</time></trkpt><trkpt lat="43.52560005519419" lon="10.695436122274224"><ele>105.0</ele><time>2026-04-18T07:09:14.001Z</time></trkpt><trkpt lat="43.52560190689136" lon="10.695564531108081"><ele>103.75</ele><time>2026-04-18T07:09:15.001Z</time></trkpt><trkpt lat="43.52563908202681" lon="10.69569973350351"><ele>102.5</ele><time>2026-04-18T07:09:16.001Z</time></trkpt><trkpt lat="43.52569431528308" lon="10.695839039444074"><ele>101.25</ele><time>2026-04-18T07:09:17.001Z</time></trkpt><trkpt lat="43.52571700711872" lon="10.695992904658087"><ele>100.0</ele><time>2026-04-18T07:09:18.001Z</time></trkpt><trkpt lat="43.5257394686092" lon="10.696152523546166"><ele>98.75</ele><time>2026-04-18T07:09:19.001Z</time></trkpt><trkpt lat="43.525743149027754" lon="10.696317329915548"><ele>97.5</ele><time>2026-04-18T07:09:20.001Z</time></trkpt><trkpt lat="43.52572851584956" lon="10.696481365006077"><ele>96.25</ele><time>2026-04-18T07:09:21.001Z</time></trkpt><trkpt lat="43.525718526629085" lon="10.696646719366457"><ele>95.0</ele><time>2026-04-18T07:09:22.001Z</time></trkpt><trkpt lat="43.52569365907171" lon="10.696796323808547"><ele>94.6</ele><time>2026-04-18T07:09:23.001Z</time></trkpt><trkpt lat="43.52566951836331" lon="10.696936927898221"><ele>94.2</ele><time>2026-04-18T07:09:24.001Z</time></trkpt><trkpt lat="43.52564161110004" lon="10.697062355593943"><ele>93.80000000000001</ele><time>2026-04-18T07:09:25.001Z</time></trkpt><trkpt lat="43.52558187640856" lon="10.697177808001907"><ele>93.4</ele><time>2026-04-18T07:09:26.001Z</time></trkpt><trkpt lat="43.525533828001855" lon="10.69731438872875"><ele>93.0</ele><time>2026-04-18T07:09:27.001Z</time></trkpt><trkpt lat="43.52546763921176" lon="10.697437539218411"><ele>93.0</ele><time>2026-04-18T07:09:28.001Z</time></trkpt><trkpt lat="43.5254166235507" lon="10.697575138622145"><ele>93.0</ele><time>2026-04-18T07:09:29.001Z</time></trkpt><trkpt lat="43.52538623402754" lon="10.697729088818203"><ele>93.0</ele><time>2026-04-18T07:09:30.001Z</time></trkpt><trkpt lat="43.52538845696971" lon="10.697889856718039"><ele>93.0</ele><time>2026-04-18T07:09:31.001Z</time></trkpt><trkpt lat="43.52540682490081" lon="10.69805457863954"><ele>92.2</ele><time>2026-04-18T07:09:32.001Z</time></trkpt><trkpt lat="43.52542997993146" lon="10.69822073625317"><ele>91.4</ele><time>2026-04-18T07:09:33.001Z</time></trkpt><trkpt lat="43.52548513569433" lon="10.698367806668946"><ele>90.60000000000001</ele><time>2026-04-18T07:09:34.001Z</time></trkpt><trkpt lat="43.525498218007215" lon="10.698515066744086"><ele>89.80000000000001</ele><time>2026-04-18T07:09:35.001Z</time></trkpt><trkpt lat="43.5255054425003" lon="10.698645454216868"><ele>89.0</ele><time>2026-04-18T07:09:36.001Z</time></trkpt><trkpt lat="43.52550222392743" lon="10.698777105963552"><ele>88.4</ele><time>2026-04-18T07:09:37.001Z</time></trkpt><trkpt lat="43.5254861409777" lon="10.698916265140166"><ele>87.80000000000001</ele><time>2026-04-18T07:09:38.001Z</time></trkpt><trkpt lat="43.52544644804208" lon="10.699066103788127"><ele>87.19999999999999</ele><time>2026-04-18T07:09:39.001Z</time></trkpt><trkpt lat="43.525394367093675" lon="10.699214477011907"><ele>86.6</ele><time>2026-04-18T07:09:40.001Z</time></trkpt><trkpt lat="43.52534934819962" lon="10.699351500811456"><ele>86.0</ele><time>2026-04-18T07:09:41.001Z</time></trkpt><trkpt lat="43.525293926617444" lon="10.699463702128806"><ele>84.39999999999999</ele><time>2026-04-18T07:09:42.001Z</time></trkpt><trkpt lat="43.525266471419556" lon="10.699579083410498"><ele>82.8</ele><time>2026-04-18T07:09:43.001Z</time></trkpt><trkpt lat="43.52527286925216" lon="10.699696280126718"><ele>81.19999999999999</ele><time>2026-04-18T07:09:44.001Z</time></trkpt><trkpt lat="43.52531031781642" lon="10.69981286955666"><ele>79.6</ele><time>2026-04-18T07:09:45.001Z</time></trkpt><trkpt lat="43.52536114734714" lon="10.699941003982394"><ele>78.0</ele><time>2026-04-18T07:09:46.001Z</time></trkpt><trkpt lat="43.52541535979786" lon="10.700074699921547"><ele>78.0</ele><time>2026-04-18T07:09:47.001Z</time></trkpt><trkpt lat="43.52546460036586" lon="10.700219951575985"><ele>78.0</ele><time>2026-04-18T07:09:48.001Z</time></trkpt><trkpt lat="43.52551346158565" lon="10.700358059598132"><ele>78.0</ele><time>2026-04-18T07:09:49.001Z</time></trkpt><trkpt lat="43.52554917099156" lon="10.70050270340207"><ele>78.0</ele><time>2026-04-18T07:09:50.001Z</time></trkpt><trkpt lat="43.52559407071278" lon="10.700633923516955"><ele>78.0</ele><time>2026-04-18T07:09:51.001Z</time></trkpt><trkpt lat="43.52564504862953" lon="10.700750312963056"><ele>75.6</ele><time>2026-04-18T07:09:52.001Z</time></trkpt><trkpt lat="43.52567565540351" lon="10.700870429994064"><ele>73.19999999999999</ele><time>2026-04-18T07:09:53.001Z</time></trkpt><trkpt lat="43.525706451502195" lon="10.700991439819648"><ele>70.8</ele><time>2026-04-18T07:09:54.001Z</time></trkpt><trkpt lat="43.52572074286286" lon="10.701125714176461"><ele>68.39999999999999</ele><time>2026-04-18T07:09:55.001Z</time></trkpt><trkpt lat="43.52572301156669" lon="10.701249570445603"><ele>66.0</ele><time>2026-04-18T07:09:56.001Z</time></trkpt><trkpt lat="43.52572824893009" lon="10.701387520915375"><ele>64.8</ele><time>2026-04-18T07:09:57.001Z</time></trkpt><trkpt lat="43.525730747546284" lon="10.701538301227249"><ele>63.599999999999994</ele><time>2026-04-18T07:09:58.001Z</time></trkpt><trkpt lat="43.52573331896427" lon="10.701694300744967"><ele>62.4</ele><time>2026-04-18T07:09:59.001Z</time></trkpt><trkpt lat="43.52574069299247" lon="10.701848158440406"><ele>61.2</ele><time>2026-04-18T07:10:00.001Z</time></trkpt><trkpt lat="43.525748292084494" lon="10.701998223365125"><ele>60.0</ele><time>2026-04-18T07:10:01.001Z</time></trkpt><trkpt lat="43.5257815404985" lon="10.702128119983048"><ele>59.5</ele><time>2026-04-18T07:10:02.001Z</time></trkpt><trkpt lat="43.52582369427905" lon="10.702244478462308"><ele>59.0</ele><time>2026-04-18T07:10:03.001Z</time></trkpt><trkpt lat="43.52586517605591" lon="10.702348822756612"><ele>58.5</ele><time>2026-04-18T07:10:04.001Z</time></trkpt><trkpt lat="43.52590020130133" lon="10.702445856744674"><ele>58.0</ele><time>2026-04-18T07:10:05.001Z</time></trkpt><trkpt lat="43.52593742878252" lon="10.702557811458828"><ele>57.5</ele><time>2026-04-18T07:10:07.001Z</time></trkpt><trkpt lat="43.52595672103874" lon="10.702675803876945"><ele>57.0</ele><time>2026-04-18T07:10:10.001Z</time></trkpt><trkpt lat="43.52600313248522" lon="10.7027628263274"><ele>57.0</ele><time>2026-04-18T07:10:13.001Z</time></trkpt><trkpt lat="43.526136759127155" lon="10.70266444261536"><ele>57.0</ele><time>2026-04-18T07:10:14.001Z</time></trkpt><trkpt lat="43.52625761492684" lon="10.702553041155014"><ele>57.0</ele><time>2026-04-18T07:10:15.001Z</time></trkpt><trkpt lat="43.526367116611084" lon="10.702470513828198"><ele>57.0</ele><time>2026-04-18T07:10:16.001Z</time></trkpt><trkpt lat="43.52648529380678" lon="10.702401179285108"><ele>56.75</ele><time>2026-04-18T07:10:17.001Z</time></trkpt><trkpt lat="43.52661174762835" lon="10.702338961518828"><ele>56.5</ele><time>2026-04-18T07:10:18.001Z</time></trkpt><trkpt lat="43.52674187250545" lon="10.70230035693269"><ele>56.25</ele><time>2026-04-18T07:10:19.001Z</time></trkpt><trkpt lat="43.526874298286586" lon="10.7022929487677"><ele>56.0</ele><time>2026-04-18T07:10:20.001Z</time></trkpt><trkpt lat="43.52701296759932" lon="10.702295576244163"><ele>56.0</ele><time>2026-04-18T07:10:21.001Z</time></trkpt><trkpt lat="43.52715427500094" lon="10.702295518998195"><ele>56.0</ele><time>2026-04-18T07:10:22.001Z</time></trkpt><trkpt lat="43.52729315676711" lon="10.702290420391913"><ele>56.0</ele><time>2026-04-18T07:10:23.001Z</time></trkpt><trkpt lat="43.52743604966772" lon="10.702283701730762"><ele>56.0</ele><time>2026-04-18T07:10:24.001Z</time></trkpt><trkpt lat="43.52757643534653" lon="10.702277763821153"><ele>56.0</ele><time>2026-04-18T07:10:25.001Z</time></trkpt><trkpt lat="43.527715874604525" lon="10.702273434769012"><ele>56.0</ele><time>2026-04-18T07:10:26.001Z</time></trkpt><trkpt lat="43.527865020702286" lon="10.70226846281485"><ele>56.0</ele><time>2026-04-18T07:10:27.001Z</time></trkpt><trkpt lat="43.52802406349839" lon="10.702260813625593"><ele>56.0</ele><time>2026-04-18T07:10:28.001Z</time></trkpt><trkpt lat="43.528175192649336" lon="10.702253708038167"><ele>56.66666666666667</ele><time>2026-04-18T07:10:29.001Z</time></trkpt><trkpt lat="43.528330526496894" lon="10.702245926705"><ele>57.33333333333333</ele><time>2026-04-18T07:10:30.001Z</time></trkpt><trkpt lat="43.5284906956393" lon="10.702240264297062"><ele>58.0</ele><time>2026-04-18T07:10:31.001Z</time></trkpt><trkpt lat="43.52864404637166" lon="10.70223773594385"><ele>57.0</ele><time>2026-04-18T07:10:32.001Z</time></trkpt><trkpt lat="43.52881639401049" lon="10.702234622819859"><ele>56.0</ele><time>2026-04-18T07:10:33.001Z</time></trkpt><trkpt lat="43.52896807616944" lon="10.70222838963068"><ele>55.0</ele><time>2026-04-18T07:10:34.001Z</time></trkpt><trkpt lat="43.529135228697854" lon="10.702218962582002"><ele>55.0</ele><time>2026-04-18T07:10:35.001Z</time></trkpt><trkpt lat="43.52929584803502" lon="10.702203636249383"><ele>55.0</ele><time>2026-04-18T07:10:36.001Z</time></trkpt><trkpt lat="43.529450873483384" lon="10.702185236052964"><ele>55.0</ele><time>2026-04-18T07:10:37.001Z</time></trkpt><trkpt lat="43.52962448852648" lon="10.70216283944969"><ele>54.666666666666664</ele><time>2026-04-18T07:10:38.001Z</time></trkpt><trkpt lat="43.52977815907757" lon="10.702146940804331"><ele>54.33333333333333</ele><time>2026-04-18T07:10:39.001Z</time></trkpt><trkpt lat="43.529938586544816" lon="10.70212567689104"><ele>54.0</ele><time>2026-04-18T07:10:40.001Z</time></trkpt><trkpt lat="43.53009483448557" lon="10.702105182095229"><ele>54.0</ele><time>2026-04-18T07:10:41.001Z</time></trkpt><trkpt lat="43.53024071324059" lon="10.702079551650861"><ele>54.0</ele><time>2026-04-18T07:10:42.001Z</time></trkpt><trkpt lat="43.530387969333816" lon="10.702059016049727"><ele>54.0</ele><time>2026-04-18T07:10:43.001Z</time></trkpt><trkpt lat="43.53054562645629" lon="10.70203705720819"><ele>54.33333333333333</ele><time>2026-04-18T07:10:44.001Z</time></trkpt><trkpt lat="43.5307136781082" lon="10.702013441597282"><ele>54.666666666666664</ele><time>2026-04-18T07:10:45.001Z</time></trkpt><trkpt lat="43.53088521378121" lon="10.701983584935814"><ele>55.0</ele><time>2026-04-18T07:10:46.001Z</time></trkpt><trkpt lat="43.531056532496386" lon="10.701955825017148"><ele>55.0</ele><time>2026-04-18T07:10:47.001Z</time></trkpt><trkpt lat="43.531229651970875" lon="10.701930260391482"><ele>55.0</ele><time>2026-04-18T07:10:48.001Z</time></trkpt><trkpt lat="43.53140958546615" lon="10.701898539250488"><ele>55.0</ele><time>2026-04-18T07:10:49.001Z</time></trkpt><trkpt lat="43.53157891722412" lon="10.701860996679237"><ele>55.0</ele><time>2026-04-18T07:10:50.001Z</time></trkpt><trkpt lat="43.531749239680835" lon="10.701826427678665"><ele>55.0</ele><time>2026-04-18T07:10:51.001Z</time></trkpt><trkpt lat="43.53191438557655" lon="10.701792390506606"><ele>55.0</ele><time>2026-04-18T07:10:52.001Z</time></trkpt><trkpt lat="43.53208017819715" lon="10.701759840325984"><ele>55.0</ele><time>2026-04-18T07:10:53.001Z</time></trkpt><trkpt lat="43.53224918007083" lon="10.701726846833505"><ele>55.0</ele><time>2026-04-18T07:10:54.001Z</time></trkpt><trkpt lat="43.53241889639308" lon="10.701694243863525"><ele>55.0</ele><time>2026-04-18T07:10:55.001Z</time></trkpt><trkpt lat="43.532584499336664" lon="10.701659650617641"><ele>55.0</ele><time>2026-04-18T07:10:56.001Z</time></trkpt><trkpt lat="43.532742374786935" lon="10.701625387489694"><ele>55.0</ele><time>2026-04-18T07:10:57.001Z</time></trkpt><trkpt lat="43.53289952391129" lon="10.701593039496489"><ele>55.0</ele><time>2026-04-18T07:10:58.001Z</time></trkpt><trkpt lat="43.53306054836245" lon="10.701558393691315"><ele>55.33333333333333</ele><time>2026-04-18T07:10:59.001Z</time></trkpt><trkpt lat="43.53322723103797" lon="10.70152208058269"><ele>55.66666666666667</ele><time>2026-04-18T07:11:00.001Z</time></trkpt><trkpt lat="43.53339954680879" lon="10.701482668069557"><ele>56.0</ele><time>2026-04-18T07:11:01.001Z</time></trkpt><trkpt lat="43.533567271422626" lon="10.701450213224732"><ele>56.66666666666667</ele><time>2026-04-18T07:11:02.001Z</time></trkpt><trkpt lat="43.533727630967874" lon="10.70141994119382"><ele>57.33333333333333</ele><time>2026-04-18T07:11:03.001Z</time></trkpt><trkpt lat="43.533890291736405" lon="10.70140392508432"><ele>58.0</ele><time>2026-04-18T07:11:04.001Z</time></trkpt><trkpt lat="43.53402850590691" lon="10.701374066332285"><ele>58.0</ele><time>2026-04-18T07:11:05.001Z</time></trkpt><trkpt lat="43.5341627026146" lon="10.70134175159869"><ele>58.0</ele><time>2026-04-18T07:11:06.001Z</time></trkpt><trkpt lat="43.53429494528625" lon="10.701307754678284"><ele>58.0</ele><time>2026-04-18T07:11:07.001Z</time></trkpt><trkpt lat="43.534427100963676" lon="10.701277951278849"><ele>58.0</ele><time>2026-04-18T07:11:08.001Z</time></trkpt><trkpt lat="43.53455637443888" lon="10.701253715452024"><ele>57.5</ele><time>2026-04-18T07:11:09.001Z</time></trkpt><trkpt lat="43.53468569205231" lon="10.701225741515742"><ele>57.0</ele><time>2026-04-18T07:11:10.001Z</time></trkpt><trkpt lat="43.53481819780294" lon="10.70119049077091"><ele>56.5</ele><time>2026-04-18T07:11:11.001Z</time></trkpt><trkpt lat="43.534957099728445" lon="10.701160972190657"><ele>56.0</ele><time>2026-04-18T07:11:12.001Z</time></trkpt><trkpt lat="43.53509236916103" lon="10.70113728407065"><ele>56.0</ele><time>2026-04-18T07:11:13.001Z</time></trkpt><trkpt lat="43.53522564567377" lon="10.701114993442054"><ele>56.0</ele><time>2026-04-18T07:11:14.001Z</time></trkpt><trkpt lat="43.535361162455374" lon="10.70108898100446"><ele>56.0</ele><time>2026-04-18T07:11:15.001Z</time></trkpt><trkpt lat="43.53550141462334" lon="10.701058566044317"><ele>56.0</ele><time>2026-04-18T07:11:16.001Z</time></trkpt><trkpt lat="43.535638293262984" lon="10.701028547792092"><ele>56.25</ele><time>2026-04-18T07:11:17.001Z</time></trkpt><trkpt lat="43.53577338112547" lon="10.701002547894978"><ele>56.5</ele><time>2026-04-18T07:11:18.001Z</time></trkpt><trkpt lat="43.535890418749844" lon="10.700980157879751"><ele>56.75</ele><time>2026-04-18T07:11:19.001Z</time></trkpt><trkpt lat="43.53599004700523" lon="10.700959005367151"><ele>57.0</ele><time>2026-04-18T07:11:20.001Z</time></trkpt><trkpt lat="43.536088791738976" lon="10.700934831346565"><ele>57.0</ele><time>2026-04-18T07:11:21.001Z</time></trkpt><trkpt lat="43.53618078647676" lon="10.700912888413463"><ele>57.0</ele><time>2026-04-18T07:11:22.001Z</time></trkpt><trkpt lat="43.53626837461597" lon="10.700889072260267"><ele>57.0</ele><time>2026-04-18T07:11:23.001Z</time></trkpt><trkpt lat="43.53635765731445" lon="10.700866138968909"><ele>57.0</ele><time>2026-04-18T07:11:24.001Z</time></trkpt><trkpt lat="43.536461789057384" lon="10.700845145645825"><ele>57.0</ele><time>2026-04-18T07:11:25.001Z</time></trkpt><trkpt lat="43.53658091512256" lon="10.700823012437482"><ele>57.0</ele><time>2026-04-18T07:11:26.001Z</time></trkpt><trkpt lat="43.536708674084814" lon="10.700796275082299"><ele>57.0</ele><time>2026-04-18T07:11:27.001Z</time></trkpt><trkpt lat="43.53683106342673" lon="10.700767850448429"><ele>57.0</ele><time>2026-04-18T07:11:28.001Z</time></trkpt><trkpt lat="43.53695605565736" lon="10.700740469663835"><ele>57.0</ele><time>2026-04-18T07:11:29.001Z</time></trkpt><trkpt lat="43.53708262015314" lon="10.700718238021302"><ele>57.0</ele><time>2026-04-18T07:11:30.001Z</time></trkpt><trkpt lat="43.53719044876826" lon="10.700696781742453"><ele>57.0</ele><time>2026-04-18T07:11:31.001Z</time></trkpt><trkpt lat="43.537271857519045" lon="10.70068278267081"><ele>57.0</ele><time>2026-04-18T07:11:32.001Z</time></trkpt><trkpt lat="43.53733620724026" lon="10.700672996477584"><ele>57.0</ele><time>2026-04-18T07:11:33.001Z</time></trkpt><trkpt lat="43.537396492966984" lon="10.700723863866184"><ele>57.0</ele><time>2026-04-18T07:11:35.001Z</time></trkpt><trkpt lat="43.537397381381595" lon="10.700881366181326"><ele>57.0</ele><time>2026-04-18T07:11:37.001Z</time></trkpt><trkpt lat="43.53740205491552" lon="10.70098762584863"><ele>56.833333333333336</ele><time>2026-04-18T07:11:38.001Z</time></trkpt><trkpt lat="43.53740845074334" lon="10.701087093049633"><ele>56.66666666666667</ele><time>2026-04-18T07:11:39.001Z</time></trkpt><trkpt lat="43.537421151842274" lon="10.701202811459645"><ele>56.5</ele><time>2026-04-18T07:11:40.001Z</time></trkpt><trkpt lat="43.537446701412506" lon="10.701311153841761"><ele>56.333333333333336</ele><time>2026-04-18T07:11:41.001Z</time></trkpt><trkpt lat="43.53746798820053" lon="10.701407730126489"><ele>56.16666666666667</ele><time>2026-04-18T07:11:42.001Z</time></trkpt><trkpt lat="43.53748356231249" lon="10.701507277394413"><ele>56.0</ele><time>2026-04-18T07:11:43.001Z</time></trkpt><trkpt lat="43.53749721578444" lon="10.701617220936079"><ele>56.0</ele><time>2026-04-18T07:11:44.001Z</time></trkpt><trkpt lat="43.53751467479178" lon="10.701753233450129"><ele>56.0</ele><time>2026-04-18T07:11:45.001Z</time></trkpt><trkpt lat="43.537534717941035" lon="10.701918540878122"><ele>56.0</ele><time>2026-04-18T07:11:46.001Z</time></trkpt><trkpt lat="43.53757260338157" lon="10.702126718730375"><ele>56.0</ele><time>2026-04-18T07:11:48.001Z</time></trkpt><trkpt lat="43.53759338430612" lon="10.702263093184161"><ele>55.4</ele><time>2026-04-18T07:11:49.001Z</time></trkpt><trkpt lat="43.53761020063034" lon="10.702397269145786"><ele>54.8</ele><time>2026-04-18T07:11:50.001Z</time></trkpt><trkpt lat="43.537625762880374" lon="10.702510690157554"><ele>54.199999999999996</ele><time>2026-04-18T07:11:51.001Z</time></trkpt><trkpt lat="43.53765118464479" lon="10.702594263833953"><ele>53.599999999999994</ele><time>2026-04-18T07:11:52.001Z</time></trkpt><trkpt lat="43.53775152838907" lon="10.702692787093778"><ele>53.0</ele><time>2026-04-18T07:11:54.001Z</time></trkpt><trkpt lat="43.53782861538529" lon="10.702752386657458"><ele>52.75</ele><time>2026-04-18T07:11:55.001Z</time></trkpt><trkpt lat="43.53792373875804" lon="10.702830017170156"><ele>52.5</ele><time>2026-04-18T07:11:56.001Z</time></trkpt><trkpt lat="43.53803084376092" lon="10.702917781390072"><ele>52.25</ele><time>2026-04-18T07:11:57.001Z</time></trkpt><trkpt lat="43.538136642335935" lon="10.703015747526848"><ele>52.0</ele><time>2026-04-18T07:11:58.001Z</time></trkpt><trkpt lat="43.53825603745396" lon="10.703125047134465"><ele>52.0</ele><time>2026-04-18T07:11:59.001Z</time></trkpt><trkpt lat="43.53837431176244" lon="10.703232443549357"><ele>52.0</ele><time>2026-04-18T07:12:00.001Z</time></trkpt><trkpt lat="43.53846518284623" lon="10.703321171314416"><ele>52.0</ele><time>2026-04-18T07:12:01.001Z</time></trkpt><trkpt lat="43.538544800796004" lon="10.703402327906385"><ele>52.0</ele><time>2026-04-18T07:12:02.001Z</time></trkpt><trkpt lat="43.53860524785631" lon="10.703492470934084"><ele>52.0</ele><time>2026-04-18T07:12:03.001Z</time></trkpt><trkpt lat="43.53863193460591" lon="10.703587376545885"><ele>51.6</ele><time>2026-04-18T07:12:04.001Z</time></trkpt><trkpt lat="43.53861987185401" lon="10.703703864076356"><ele>51.2</ele><time>2026-04-18T07:12:05.001Z</time></trkpt><trkpt lat="43.53863890784656" lon="10.703838057579121"><ele>50.8</ele><time>2026-04-18T07:12:06.001Z</time></trkpt><trkpt lat="43.53863707878647" lon="10.703976721793685"><ele>50.4</ele><time>2026-04-18T07:12:07.001Z</time></trkpt><trkpt lat="43.53865950072827" lon="10.704100881374442"><ele>50.0</ele><time>2026-04-18T07:12:08.001Z</time></trkpt><trkpt lat="43.538708988186336" lon="10.704220214981556"><ele>50.0</ele><time>2026-04-18T07:12:09.001Z</time></trkpt><trkpt lat="43.53878268256024" lon="10.70432392656161"><ele>50.0</ele><time>2026-04-18T07:12:10.001Z</time></trkpt><trkpt lat="43.538874213500186" lon="10.70441911631643"><ele>50.0</ele><time>2026-04-18T07:12:11.001Z</time></trkpt><trkpt lat="43.53896563113092" lon="10.704519083292444"><ele>50.0</ele><time>2026-04-18T07:12:12.001Z</time></trkpt><trkpt lat="43.53903574847794" lon="10.704614095815003"><ele>50.0</ele><time>2026-04-18T07:12:13.001Z</time></trkpt><trkpt lat="43.53907459735683" lon="10.704714819634168"><ele>50.00000000000001</ele><time>2026-04-18T07:12:14.001Z</time></trkpt><trkpt lat="43.539085158007325" lon="10.704824281004719"><ele>50.0</ele><time>2026-04-18T07:12:15.001Z</time></trkpt><trkpt lat="43.5390761078222" lon="10.704936733396789"><ele>50.0</ele><time>2026-04-18T07:12:16.001Z</time></trkpt><trkpt lat="43.53906343253468" lon="10.705070259579763"><ele>50.0</ele><time>2026-04-18T07:12:17.001Z</time></trkpt><trkpt lat="43.539048114568395" lon="10.705194472423823"><ele>50.00000000000001</ele><time>2026-04-18T07:12:18.001Z</time></trkpt><trkpt lat="43.53903592836046" lon="10.70530448508886"><ele>50.0</ele><time>2026-04-18T07:12:19.001Z</time></trkpt><trkpt lat="43.539026568929025" lon="10.705448757886977"><ele>50.0</ele><time>2026-04-18T07:12:21.001Z</time></trkpt><trkpt lat="43.539024738695126" lon="10.70555711043794"><ele>50.0</ele><time>2026-04-18T07:12:24.001Z</time></trkpt><trkpt lat="43.53902528451739" lon="10.705425597677866"><ele>50.0</ele><time>2026-04-18T07:15:13.001Z</time></trkpt><trkpt lat="43.53903191841916" lon="10.705322374037065"><ele>50.0</ele><time>2026-04-18T07:15:15.001Z</time></trkpt><trkpt lat="43.539041148455475" lon="10.705188246748001"><ele>50.0</ele><time>2026-04-18T07:15:17.001Z</time></trkpt><trkpt lat="43.5390687264436" lon="10.705048681491267"><ele>50.00000000000001</ele><time>2026-04-18T07:15:19.001Z</time></trkpt><trkpt lat="43.539059618148904" lon="10.704955536485672"><ele>50.0</ele><time>2026-04-18T07:15:20.001Z</time></trkpt><trkpt lat="43.53906390417389" lon="10.704867072470067"><ele>50.0</ele><time>2026-04-18T07:15:21.001Z</time></trkpt><trkpt lat="43.539059339854894" lon="10.70471859545749"><ele>50.0</ele><time>2026-04-18T07:15:23.001Z</time></trkpt><trkpt lat="43.53900189623914" lon="10.704576780332184"><ele>50.00000000000001</ele><time>2026-04-18T07:15:25.001Z</time></trkpt><trkpt lat="43.538954620592904" lon="10.7045107124812"><ele>50.0</ele><time>2026-04-18T07:15:26.001Z</time></trkpt><trkpt lat="43.53889365310134" lon="10.704446198043641"><ele>50.0</ele><time>2026-04-18T07:15:27.001Z</time></trkpt><trkpt lat="43.53880517629124" lon="10.704344680462667"><ele>50.0</ele><time>2026-04-18T07:15:29.001Z</time></trkpt><trkpt lat="43.53872062546927" lon="10.704221699632532"><ele>50.0</ele><time>2026-04-18T07:15:31.001Z</time></trkpt><trkpt lat="43.53864742339895" lon="10.704094546972845"><ele>50.0</ele><time>2026-04-18T07:15:33.001Z</time></trkpt><trkpt lat="43.53860966564183" lon="10.70400143610669"><ele>50.0</ele><time>2026-04-18T07:15:34.001Z</time></trkpt><trkpt lat="43.53867783348101" lon="10.703777585525792"><ele>50.0</ele><time>2026-04-18T07:15:36.001Z</time></trkpt><trkpt lat="43.53865025524199" lon="10.703675741048707"><ele>50.0</ele><time>2026-04-18T07:15:37Z</time></trkpt><trkpt lat="43.53864203185977" lon="10.703574440240917"><ele>50.0</ele><time>2026-04-18T07:15:38Z</time></trkpt><trkpt lat="43.538645700254875" lon="10.70344154663107"><ele>50.0</ele><time>2026-04-18T07:15:40Z</time></trkpt><trkpt lat="43.538426088911216" lon="10.703256085983385"><ele>50.333333333333336</ele><time>2026-04-18T07:15:42Z</time></trkpt><trkpt lat="43.53835079738084" lon="10.703196759711874"><ele>50.66666666666667</ele><time>2026-04-18T07:15:43Z</time></trkpt><trkpt lat="43.53827696018497" lon="10.703133730016331"><ele>51.0</ele><time>2026-04-18T07:15:44Z</time></trkpt><trkpt lat="43.53820100929922" lon="10.70306529423727"><ele>51.33333333333333</ele><time>2026-04-18T07:15:45Z</time></trkpt><trkpt lat="43.53812302141304" lon="10.702992345275185"><ele>51.666666666666664</ele><time>2026-04-18T07:15:46Z</time></trkpt><trkpt lat="43.53806103928558" lon="10.702932036233895"><ele>52.0</ele><time>2026-04-18T07:15:47Z</time></trkpt><trkpt lat="43.53796655309794" lon="10.702846016639548"><ele>51.99999999999999</ele><time>2026-04-18T07:15:49Z</time></trkpt><trkpt lat="43.53791129734356" lon="10.702798646249937"><ele>52.0</ele><time>2026-04-18T07:15:50Z</time></trkpt><trkpt lat="43.53784393110263" lon="10.702743401101573"><ele>52.0</ele><time>2026-04-18T07:15:51Z</time></trkpt><trkpt lat="43.537772971053286" lon="10.702687916103056"><ele>52.0</ele><time>2026-04-18T07:15:52Z</time></trkpt><trkpt lat="43.53771226339527" lon="10.702630367802794"><ele>51.99999999999999</ele><time>2026-04-18T07:15:53Z</time></trkpt><trkpt lat="43.53764763436498" lon="10.702513805791233"><ele>52.0</ele><time>2026-04-18T07:15:55Z</time></trkpt><trkpt lat="43.537621997745184" lon="10.702428434818978"><ele>52.166666666666664</ele><time>2026-04-18T07:15:56Z</time></trkpt><trkpt lat="43.53760756584546" lon="10.702327216542198"><ele>52.33333333333333</ele><time>2026-04-18T07:15:57Z</time></trkpt><trkpt lat="43.53759450510032" lon="10.702211502590254"><ele>52.5</ele><time>2026-04-18T07:15:58Z</time></trkpt><trkpt lat="43.5375851801226" lon="10.702099448368028"><ele>52.66666666666667</ele><time>2026-04-18T07:15:59Z</time></trkpt><trkpt lat="43.537569681852425" lon="10.701985728035316"><ele>52.833333333333336</ele><time>2026-04-18T07:16:00Z</time></trkpt><trkpt lat="43.53754651779987" lon="10.701858982481061"><ele>53.0</ele><time>2026-04-18T07:16:01Z</time></trkpt><trkpt lat="43.537525100184006" lon="10.70173482858906"><ele>53.599999999999994</ele><time>2026-04-18T07:16:02Z</time></trkpt><trkpt lat="43.53750996589196" lon="10.70160282641259"><ele>54.199999999999996</ele><time>2026-04-18T07:16:03Z</time></trkpt><trkpt lat="43.537491071029685" lon="10.70146823512971"><ele>54.8</ele><time>2026-04-18T07:16:04Z</time></trkpt><trkpt lat="43.53747103087241" lon="10.70134072663225"><ele>55.4</ele><time>2026-04-18T07:16:05Z</time></trkpt><trkpt lat="43.537453956007056" lon="10.701233162402488"><ele>56.0</ele><time>2026-04-18T07:16:06Z</time></trkpt><trkpt lat="43.53743712203785" lon="10.701083366703363"><ele>56.16666666666667</ele><time>2026-04-18T07:16:08Z</time></trkpt><trkpt lat="43.53742112718669" lon="10.70097399975488"><ele>56.333333333333336</ele><time>2026-04-18T07:16:10Z</time></trkpt><trkpt lat="43.53741330347268" lon="10.700881052253346"><ele>56.5</ele><time>2026-04-18T07:16:12Z</time></trkpt><trkpt lat="43.53739566689619" lon="10.700792449098033"><ele>56.66666666666667</ele><time>2026-04-18T07:16:14Z</time></trkpt><trkpt lat="43.53740156300281" lon="10.700687988974396"><ele>56.833333333333336</ele><time>2026-04-18T07:16:21Z</time></trkpt><trkpt lat="43.537522076514136" lon="10.700619616239555"><ele>57.0</ele><time>2026-04-18T07:16:23Z</time></trkpt><trkpt lat="43.53763017484906" lon="10.70061493336397"><ele>57.0</ele><time>2026-04-18T07:16:24Z</time></trkpt><trkpt lat="43.537740785081006" lon="10.700607678599315"><ele>57.0</ele><time>2026-04-18T07:16:25Z</time></trkpt><trkpt lat="43.53785867194223" lon="10.70059109196442"><ele>57.0</ele><time>2026-04-18T07:16:26Z</time></trkpt><trkpt lat="43.53798454801343" lon="10.70057046976792"><ele>57.0</ele><time>2026-04-18T07:16:27Z</time></trkpt><trkpt lat="43.53811079921935" lon="10.70055529729701"><ele>57.0</ele><time>2026-04-18T07:16:28Z</time></trkpt><trkpt lat="43.538236903268796" lon="10.700538094862083"><ele>57.0</ele><time>2026-04-18T07:16:29Z</time></trkpt><trkpt lat="43.53836554888946" lon="10.700519566291186"><ele>57.0</ele><time>2026-04-18T07:16:30Z</time></trkpt><trkpt lat="43.538503057046135" lon="10.700499828311706"><ele>57.0</ele><time>2026-04-18T07:16:31Z</time></trkpt><trkpt lat="43.53865155021637" lon="10.700482892581963"><ele>56.66666666666667</ele><time>2026-04-18T07:16:32Z</time></trkpt><trkpt lat="43.5388101586518" lon="10.700463678477902"><ele>56.333333333333336</ele><time>2026-04-18T07:16:33Z</time></trkpt><trkpt lat="43.538961001187005" lon="10.70044139364752"><ele>56.0</ele><time>2026-04-18T07:16:34Z</time></trkpt><trkpt lat="43.539104376178614" lon="10.700420780501345"><ele>56.0</ele><time>2026-04-18T07:16:35Z</time></trkpt><trkpt lat="43.53925810498616" lon="10.700396762112963"><ele>56.0</ele><time>2026-04-18T07:16:36Z</time></trkpt><trkpt lat="43.53940733791363" lon="10.70037927353227"><ele>56.0</ele><time>2026-04-18T07:16:37Z</time></trkpt><trkpt lat="43.539554162200524" lon="10.700364171294384"><ele>56.333333333333336</ele><time>2026-04-18T07:16:38Z</time></trkpt><trkpt lat="43.5397054913003" lon="10.700347853795428"><ele>56.66666666666667</ele><time>2026-04-18T07:16:39Z</time></trkpt><trkpt lat="43.53986882613277" lon="10.700327436630522"><ele>57.0</ele><time>2026-04-18T07:16:40Z</time></trkpt><trkpt lat="43.54002722274934" lon="10.700301057083974"><ele>57.0</ele><time>2026-04-18T07:16:41Z</time></trkpt><trkpt lat="43.540186815765125" lon="10.700278780236298"><ele>57.0</ele><time>2026-04-18T07:16:42Z</time></trkpt><trkpt lat="43.54034118533519" lon="10.70025816650028"><ele>57.0</ele><time>2026-04-18T07:16:43Z</time></trkpt><trkpt lat="43.5405074141807" lon="10.70023801738005"><ele>57.25</ele><time>2026-04-18T07:16:44Z</time></trkpt><trkpt lat="43.54065425930331" lon="10.700220523103216"><ele>57.5</ele><time>2026-04-18T07:16:45Z</time></trkpt><trkpt lat="43.54080806399639" lon="10.700199022704927"><ele>57.75</ele><time>2026-04-18T07:16:46Z</time></trkpt><trkpt lat="43.5409531592584" lon="10.700176436486935"><ele>58.0</ele><time>2026-04-18T07:16:47Z</time></trkpt><trkpt lat="43.54108246000818" lon="10.700152315841144"><ele>58.0</ele><time>2026-04-18T07:16:48Z</time></trkpt><trkpt lat="43.54120061678352" lon="10.700128434894676"><ele>58.0</ele><time>2026-04-18T07:16:49Z</time></trkpt><trkpt lat="43.54130930460623" lon="10.700101809267071"><ele>58.0</ele><time>2026-04-18T07:16:50Z</time></trkpt><trkpt lat="43.54140200440745" lon="10.700079946295649"><ele>58.0</ele><time>2026-04-18T07:16:51Z</time></trkpt><trkpt lat="43.541485735243306" lon="10.70007758930864"><ele>58.0</ele><time>2026-04-18T07:16:52Z</time></trkpt><trkpt lat="43.54156890598765" lon="10.700101511554575"><ele>57.599999999999994</ele><time>2026-04-18T07:16:53Z</time></trkpt><trkpt lat="43.54165124512157" lon="10.700162805884698"><ele>57.199999999999996</ele><time>2026-04-18T07:16:54Z</time></trkpt><trkpt lat="43.54173362911466" lon="10.700215206354482"><ele>56.8</ele><time>2026-04-18T07:16:55Z</time></trkpt><trkpt lat="43.54180301050559" lon="10.700281455002832"><ele>56.4</ele><time>2026-04-18T07:16:56Z</time></trkpt><trkpt lat="43.5417766467006" lon="10.700507793525773"><ele>56.0</ele><time>2026-04-18T07:16:57Z</time></trkpt><trkpt lat="43.541788782556466" lon="10.700659963905649"><ele>56.0</ele><time>2026-04-18T07:16:58Z</time></trkpt><trkpt lat="43.541804189405894" lon="10.700832145359248"><ele>56.0</ele><time>2026-04-18T07:16:59Z</time></trkpt><trkpt lat="43.54182775948225" lon="10.701021466167791"><ele>56.0</ele><time>2026-04-18T07:17:00Z</time></trkpt><trkpt lat="43.54185785047922" lon="10.701216054140577"><ele>56.0</ele><time>2026-04-18T07:17:01Z</time></trkpt><trkpt lat="43.541886127523526" lon="10.701417903855376"><ele>55.5</ele><time>2026-04-18T07:17:02Z</time></trkpt><trkpt lat="43.54191121319878" lon="10.701619552919393"><ele>55.0</ele><time>2026-04-18T07:17:03Z</time></trkpt><trkpt lat="43.54193425778852" lon="10.701812863400173"><ele>54.5</ele><time>2026-04-18T07:17:04Z</time></trkpt><trkpt lat="43.541958623925524" lon="10.70200291535497"><ele>54.0</ele><time>2026-04-18T07:17:05Z</time></trkpt><trkpt lat="43.54198212366828" lon="10.702178802915771"><ele>54.0</ele><time>2026-04-18T07:17:06Z</time></trkpt><trkpt lat="43.54200660318151" lon="10.702350310455438"><ele>54.0</ele><time>2026-04-18T07:17:07Z</time></trkpt><trkpt lat="43.54202997164912" lon="10.702524067434577"><ele>54.0</ele><time>2026-04-18T07:17:08Z</time></trkpt><trkpt lat="43.542059741198216" lon="10.702702222824591"><ele>54.0</ele><time>2026-04-18T07:17:09Z</time></trkpt><trkpt lat="43.54208504364802" lon="10.702885859363347"><ele>53.25</ele><time>2026-04-18T07:17:10Z</time></trkpt><trkpt lat="43.54210541047206" lon="10.70307007507346"><ele>52.5</ele><time>2026-04-18T07:17:11Z</time></trkpt><trkpt lat="43.54212821742663" lon="10.703253797492506"><ele>51.75</ele><time>2026-04-18T07:17:12Z</time></trkpt><trkpt lat="43.54215376451047" lon="10.703442848644658"><ele>51.0</ele><time>2026-04-18T07:17:13Z</time></trkpt><trkpt lat="43.54218007135292" lon="10.703634526928571"><ele>51.0</ele><time>2026-04-18T07:17:14Z</time></trkpt><trkpt lat="43.54220833287732" lon="10.703831663308705"><ele>51.0</ele><time>2026-04-18T07:17:15Z</time></trkpt><trkpt lat="43.5422356873713" lon="10.704034840226987"><ele>51.0</ele><time>2026-04-18T07:17:16Z</time></trkpt><trkpt lat="43.54226364410416" lon="10.704247275399137"><ele>50.33333333333333</ele><time>2026-04-18T07:17:17Z</time></trkpt><trkpt lat="43.54229630238311" lon="10.704469193361552"><ele>49.666666666666664</ele><time>2026-04-18T07:17:18Z</time></trkpt><trkpt lat="43.54232893590276" lon="10.70468000508599"><ele>49.0</ele><time>2026-04-18T07:17:19Z</time></trkpt><trkpt lat="43.542362383756846" lon="10.704901741443125"><ele>49.0</ele><time>2026-04-18T07:17:20Z</time></trkpt><trkpt lat="43.542394833126544" lon="10.705140353279717"><ele>49.0</ele><time>2026-04-18T07:17:21Z</time></trkpt><trkpt lat="43.54242036152676" lon="10.70536212335486"><ele>49.0</ele><time>2026-04-18T07:17:22Z</time></trkpt><trkpt lat="43.542446347466324" lon="10.70559718581642"><ele>49.33333333333333</ele><time>2026-04-18T07:17:23Z</time></trkpt><trkpt lat="43.54247555726854" lon="10.705825873512532"><ele>49.66666666666667</ele><time>2026-04-18T07:17:24Z</time></trkpt><trkpt lat="43.54250679645155" lon="10.706051278667614"><ele>50.0</ele><time>2026-04-18T07:17:25Z</time></trkpt><trkpt lat="43.542537728883254" lon="10.706283051428809"><ele>50.333333333333336</ele><time>2026-04-18T07:17:26Z</time></trkpt><trkpt lat="43.54256778167056" lon="10.706507525337019"><ele>50.66666666666667</ele><time>2026-04-18T07:17:27Z</time></trkpt><trkpt lat="43.54259698409525" lon="10.706730385157378"><ele>51.0</ele><time>2026-04-18T07:17:28Z</time></trkpt><trkpt lat="43.54262771162719" lon="10.70695443388546"><ele>50.33333333333333</ele><time>2026-04-18T07:17:29Z</time></trkpt><trkpt lat="43.54266072993104" lon="10.707179358116452"><ele>49.666666666666664</ele><time>2026-04-18T07:17:30Z</time></trkpt><trkpt lat="43.542694550705896" lon="10.707402496160608"><ele>49.0</ele><time>2026-04-18T07:17:31Z</time></trkpt><trkpt lat="43.54272674334349" lon="10.70763458540677"><ele>48.666666666666664</ele><time>2026-04-18T07:17:32Z</time></trkpt><trkpt lat="43.54275547599082" lon="10.7078645019508"><ele>48.33333333333333</ele><time>2026-04-18T07:17:33Z</time></trkpt><trkpt lat="43.54278818039158" lon="10.708100074428248"><ele>48.0</ele><time>2026-04-18T07:17:34Z</time></trkpt><trkpt lat="43.54282060799366" lon="10.708335540460833"><ele>48.0</ele><time>2026-04-18T07:17:35Z</time></trkpt><trkpt lat="43.54285349784347" lon="10.708567121289924"><ele>48.0</ele><time>2026-04-18T07:17:36Z</time></trkpt><trkpt lat="43.54288576395023" lon="10.708798881009837"><ele>48.0</ele><time>2026-04-18T07:17:37Z</time></trkpt><trkpt lat="43.54291716724754" lon="10.709037047131446"><ele>48.0</ele><time>2026-04-18T07:17:38Z</time></trkpt><trkpt lat="43.54295092736525" lon="10.70927651394085"><ele>48.0</ele><time>2026-04-18T07:17:39Z</time></trkpt><trkpt lat="43.54297960814099" lon="10.70950418028157"><ele>48.0</ele><time>2026-04-18T07:17:40Z</time></trkpt><trkpt lat="43.543009227177976" lon="10.709734035915671"><ele>48.0</ele><time>2026-04-18T07:17:41Z</time></trkpt><trkpt lat="43.54303910998451" lon="10.709954089495554"><ele>48.0</ele><time>2026-04-18T07:17:42Z</time></trkpt><trkpt lat="43.54307216601376" lon="10.710178542057687"><ele>48.0</ele><time>2026-04-18T07:17:43Z</time></trkpt><trkpt lat="43.543103163736056" lon="10.71040879312378"><ele>47.0</ele><time>2026-04-18T07:17:44Z</time></trkpt><trkpt lat="43.54313214089487" lon="10.710626973858767"><ele>46.0</ele><time>2026-04-18T07:17:45Z</time></trkpt><trkpt lat="43.54315984291825" lon="10.710827681748112"><ele>45.0</ele><time>2026-04-18T07:17:46Z</time></trkpt><trkpt lat="43.543184622870136" lon="10.711021308428597"><ele>44.5</ele><time>2026-04-18T07:17:47Z</time></trkpt><trkpt lat="43.54320999932284" lon="10.711219836762591"><ele>44.0</ele><time>2026-04-18T07:17:48Z</time></trkpt><trkpt lat="43.54323568646523" lon="10.711415467337922"><ele>43.5</ele><time>2026-04-18T07:17:49Z</time></trkpt><trkpt lat="43.54326330328365" lon="10.711606533972404"><ele>43.0</ele><time>2026-04-18T07:17:50Z</time></trkpt><trkpt lat="43.54329206855133" lon="10.71181021512058"><ele>43.0</ele><time>2026-04-18T07:17:51Z</time></trkpt><trkpt lat="43.54332303960645" lon="10.712016439296315"><ele>43.0</ele><time>2026-04-18T07:17:52Z</time></trkpt><trkpt lat="43.543350867811334" lon="10.712218562711191"><ele>43.0</ele><time>2026-04-18T07:17:53Z</time></trkpt><trkpt lat="43.5433789271855" lon="10.712414876313932"><ele>43.0</ele><time>2026-04-18T07:17:54Z</time></trkpt><trkpt lat="43.543406008388814" lon="10.712620408461719"><ele>42.75</ele><time>2026-04-18T07:17:55Z</time></trkpt><trkpt lat="43.543432726989025" lon="10.712820911697943"><ele>42.5</ele><time>2026-04-18T07:17:56Z</time></trkpt><trkpt lat="43.5434580844414" lon="10.713018364033768"><ele>42.25</ele><time>2026-04-18T07:17:57Z</time></trkpt><trkpt lat="43.543481338080625" lon="10.713194060186542"><ele>42.0</ele><time>2026-04-18T07:17:58Z</time></trkpt><trkpt lat="43.54350252113337" lon="10.71335279538564"><ele>42.0</ele><time>2026-04-18T07:17:59Z</time></trkpt><trkpt lat="43.543522649111225" lon="10.713512059671945"><ele>42.0</ele><time>2026-04-18T07:18:00Z</time></trkpt><trkpt lat="43.54354508951788" lon="10.713681516272613"><ele>42.0</ele><time>2026-04-18T07:18:01Z</time></trkpt><trkpt lat="43.54356983621512" lon="10.713857250728323"><ele>42.0</ele><time>2026-04-18T07:18:02Z</time></trkpt><trkpt lat="43.543591960816286" lon="10.71402083580363"><ele>41.8</ele><time>2026-04-18T07:18:03Z</time></trkpt><trkpt lat="43.54361207605925" lon="10.714168025148835"><ele>41.6</ele><time>2026-04-18T07:18:04Z</time></trkpt><trkpt lat="43.543630038976566" lon="10.714315218361355"><ele>41.4</ele><time>2026-04-18T07:18:05Z</time></trkpt><trkpt lat="43.54364844369487" lon="10.71444616482743"><ele>41.199999999999996</ele><time>2026-04-18T07:18:06Z</time></trkpt><trkpt lat="43.54366766702605" lon="10.71456807905344"><ele>41.0</ele><time>2026-04-18T07:18:07Z</time></trkpt><trkpt lat="43.54368916469462" lon="10.714675175689514"><ele>41.83333333333333</ele><time>2026-04-18T07:18:08Z</time></trkpt><trkpt lat="43.54371040310016" lon="10.714773404939693"><ele>42.666666666666664</ele><time>2026-04-18T07:18:09Z</time></trkpt><trkpt lat="43.54373880401485" lon="10.71487387423005"><ele>43.5</ele><time>2026-04-18T07:18:10Z</time></trkpt><trkpt lat="43.54376052100577" lon="10.714956301111043"><ele>44.333333333333336</ele><time>2026-04-18T07:18:11Z</time></trkpt><trkpt lat="43.543759899009814" lon="10.715096536770726"><ele>45.16666666666667</ele><time>2026-04-18T07:18:13Z</time></trkpt><trkpt lat="43.54368147121424" lon="10.715151463555722"><ele>46.0</ele><time>2026-04-18T07:18:16Z</time></trkpt><trkpt lat="43.54364518284278" lon="10.715071552693258"><ele>46.0</ele><time>2026-04-18T07:18:17Z</time></trkpt><trkpt lat="43.54362254896671" lon="10.714973102746178"><ele>46.0</ele><time>2026-04-18T07:18:18Z</time></trkpt><trkpt lat="43.54360187635109" lon="10.714845951163433"><ele>46.0</ele><time>2026-04-18T07:18:19Z</time></trkpt><trkpt lat="43.543575460611436" lon="10.714699181228266"><ele>46.0</ele><time>2026-04-18T07:18:20Z</time></trkpt><trkpt lat="43.54353447291401" lon="10.714537631664781"><ele>46.0</ele><time>2026-04-18T07:18:21Z</time></trkpt><trkpt lat="43.5434818475926" lon="10.714376669766025"><ele>45.0</ele><time>2026-04-18T07:18:22Z</time></trkpt><trkpt lat="43.543416812525415" lon="10.714227681835247"><ele>44.0</ele><time>2026-04-18T07:18:23Z</time></trkpt><trkpt lat="43.543349126549224" lon="10.714120294207648"><ele>43.0</ele><time>2026-04-18T07:18:24Z</time></trkpt><trkpt lat="43.543277970717" lon="10.71406503378251"><ele>42.0</ele><time>2026-04-18T07:18:25Z</time></trkpt><trkpt lat="43.543202600152995" lon="10.714044012136236"><ele>41.0</ele><time>2026-04-18T07:18:26Z</time></trkpt><trkpt lat="43.543104875808744" lon="10.714027376008007"><ele>41.0</ele><time>2026-04-18T07:18:27Z</time></trkpt><trkpt lat="43.542996222018296" lon="10.71403302271913"><ele>41.0</ele><time>2026-04-18T07:18:28Z</time></trkpt><trkpt lat="43.542890163413965" lon="10.71402314994093"><ele>41.0</ele><time>2026-04-18T07:18:29Z</time></trkpt><trkpt lat="43.54278309974564" lon="10.714027794910708"><ele>41.0</ele><time>2026-04-18T07:18:30Z</time></trkpt><trkpt lat="43.54269128480175" lon="10.714053588121857"><ele>41.0</ele><time>2026-04-18T07:18:31Z</time></trkpt><trkpt lat="43.54258248512713" lon="10.714061723917768"><ele>41.0</ele><time>2026-04-18T07:18:32Z</time></trkpt><trkpt lat="43.542472243819645" lon="10.714059348661415"><ele>41.0</ele><time>2026-04-18T07:18:33Z</time></trkpt><trkpt lat="43.54233886494764" lon="10.71406486399608"><ele>41.0</ele><time>2026-04-18T07:18:34Z</time></trkpt><trkpt lat="43.5421997081143" lon="10.714086126235099"><ele>41.0</ele><time>2026-04-18T07:18:35Z</time></trkpt><trkpt lat="43.54205122210543" lon="10.714120818511658"><ele>40.75</ele><time>2026-04-18T07:18:36Z</time></trkpt><trkpt lat="43.541915099755734" lon="10.714163319273215"><ele>40.5</ele><time>2026-04-18T07:18:37Z</time></trkpt><trkpt lat="43.541786950857556" lon="10.714188464820728"><ele>40.25</ele><time>2026-04-18T07:18:38Z</time></trkpt><trkpt lat="43.541657357823524" lon="10.71422634683005"><ele>40.0</ele><time>2026-04-18T07:18:39Z</time></trkpt><trkpt lat="43.5415469241457" lon="10.714325870974815"><ele>40.0</ele><time>2026-04-18T07:18:40Z</time></trkpt><trkpt lat="43.54140384066513" lon="10.714345509073613"><ele>40.0</ele><time>2026-04-18T07:18:41Z</time></trkpt><trkpt lat="43.54128126104478" lon="10.714364965583261"><ele>40.0</ele><time>2026-04-18T07:18:42Z</time></trkpt><trkpt lat="43.54115822421174" lon="10.714430321821181"><ele>40.0</ele><time>2026-04-18T07:18:43Z</time></trkpt><trkpt lat="43.541028358224104" lon="10.714461851983117"><ele>41.5</ele><time>2026-04-18T07:18:44Z</time></trkpt><trkpt lat="43.5409108006826" lon="10.714510007064835"><ele>43.0</ele><time>2026-04-18T07:18:45Z</time></trkpt><trkpt lat="43.5407878351895" lon="10.714505385425252"><ele>44.5</ele><time>2026-04-18T07:18:46Z</time></trkpt><trkpt lat="43.540662197227405" lon="10.714508802713592"><ele>46.0</ele><time>2026-04-18T07:18:47Z</time></trkpt><trkpt lat="43.54054088501596" lon="10.71453474351081"><ele>46.0</ele><time>2026-04-18T07:18:48Z</time></trkpt><trkpt lat="43.540414219950534" lon="10.71454225556275"><ele>46.0</ele><time>2026-04-18T07:18:49Z</time></trkpt><trkpt lat="43.54028300101288" lon="10.714521411888349"><ele>46.0</ele><time>2026-04-18T07:18:50Z</time></trkpt><trkpt lat="43.540158922631846" lon="10.714506596790487"><ele>46.0</ele><time>2026-04-18T07:18:51Z</time></trkpt><trkpt lat="43.54004071251239" lon="10.714486047183568"><ele>47.199999999999996</ele><time>2026-04-18T07:18:52Z</time></trkpt><trkpt lat="43.53993310532822" lon="10.714463350189577"><ele>48.4</ele><time>2026-04-18T07:18:53Z</time></trkpt><trkpt lat="43.5398364463316" lon="10.714438842677591"><ele>49.6</ele><time>2026-04-18T07:18:54Z</time></trkpt><trkpt lat="43.53975020979008" lon="10.714419657876068"><ele>50.8</ele><time>2026-04-18T07:18:55Z</time></trkpt><trkpt lat="43.53966546138454" lon="10.71443638195131"><ele>52.0</ele><time>2026-04-18T07:18:56Z</time></trkpt><trkpt lat="43.53959147407372" lon="10.714443702952755"><ele>51.83333333333333</ele><time>2026-04-18T07:18:57Z</time></trkpt><trkpt lat="43.53952103594553" lon="10.714473398892121"><ele>51.666666666666664</ele><time>2026-04-18T07:18:58Z</time></trkpt><trkpt lat="43.53946274022079" lon="10.714547593552403"><ele>51.5</ele><time>2026-04-18T07:18:58.999Z</time></trkpt><trkpt lat="43.53940552219962" lon="10.714642026107184"><ele>51.33333333333333</ele><time>2026-04-18T07:18:59.999Z</time></trkpt><trkpt lat="43.53934363146552" lon="10.714764780262794"><ele>51.166666666666664</ele><time>2026-04-18T07:19:00.999Z</time></trkpt><trkpt lat="43.53928540797603" lon="10.714869206752962"><ele>51.0</ele><time>2026-04-18T07:19:01.999Z</time></trkpt><trkpt lat="43.53922429992684" lon="10.7149178411576"><ele>51.0</ele><time>2026-04-18T07:19:02.999Z</time></trkpt><trkpt lat="43.53914055051955" lon="10.71491155925878"><ele>51.0</ele><time>2026-04-18T07:19:04.999Z</time></trkpt><trkpt lat="43.53909815502771" lon="10.714751301554527"><ele>51.0</ele><time>2026-04-18T07:19:06.999Z</time></trkpt><trkpt lat="43.53907935135222" lon="10.714632059838204"><ele>51.0</ele><time>2026-04-18T07:19:07.999Z</time></trkpt><trkpt lat="43.53904208655792" lon="10.714507257102346"><ele>51.0</ele><time>2026-04-18T07:19:08.999Z</time></trkpt><trkpt lat="43.53897897292788" lon="10.714383268456709"><ele>49.0</ele><time>2026-04-18T07:19:09.999Z</time></trkpt><trkpt lat="43.5388813194412" lon="10.714252671346326"><ele>47.0</ele><time>2026-04-18T07:19:10.999Z</time></trkpt><trkpt lat="43.53877765758736" lon="10.714141499089667"><ele>45.0</ele><time>2026-04-18T07:19:11.999Z</time></trkpt><trkpt lat="43.53867142441855" lon="10.714044003062284"><ele>43.0</ele><time>2026-04-18T07:19:12.999Z</time></trkpt><trkpt lat="43.53857580990524" lon="10.713962277246065"><ele>43.0</ele><time>2026-04-18T07:19:13.999Z</time></trkpt><trkpt lat="43.53850283897202" lon="10.713861018343435"><ele>43.0</ele><time>2026-04-18T07:19:14.999Z</time></trkpt><trkpt lat="43.53843133465493" lon="10.713772316847354"><ele>43.0</ele><time>2026-04-18T07:19:16Z</time></trkpt><trkpt lat="43.538369241369175" lon="10.71369471872452"><ele>43.0</ele><time>2026-04-18T07:19:17Z</time></trkpt><trkpt lat="43.53830446899482" lon="10.713580951213316"><ele>43.0</ele><time>2026-04-18T07:19:19Z</time></trkpt><trkpt lat="43.53828874262225" lon="10.713454957228668"><ele>42.8</ele><time>2026-04-18T07:19:21Z</time></trkpt><trkpt lat="43.53833656802239" lon="10.713303356762875"><ele>42.599999999999994</ele><time>2026-04-18T07:19:23Z</time></trkpt><trkpt lat="43.53833505107753" lon="10.713174012619492"><ele>42.400000000000006</ele><time>2026-04-18T07:19:25Z</time></trkpt><trkpt lat="43.538274286358195" lon="10.713140575074132"><ele>42.2</ele><time>2026-04-18T07:19:26Z</time></trkpt><trkpt lat="43.53817080520381" lon="10.71309100893765"><ele>42.0</ele><time>2026-04-18T07:19:28Z</time></trkpt><trkpt lat="43.53808583781877" lon="10.713027474536588"><ele>42.0</ele><time>2026-04-18T07:19:29Z</time></trkpt><trkpt lat="43.53801088125379" lon="10.712918510683542"><ele>42.0</ele><time>2026-04-18T07:19:30Z</time></trkpt><trkpt lat="43.53792422329412" lon="10.712808206127592"><ele>42.0</ele><time>2026-04-18T07:19:31Z</time></trkpt><trkpt lat="43.53783885971818" lon="10.712728470871815"><ele>42.0</ele><time>2026-04-18T07:19:32Z</time></trkpt><trkpt lat="43.537750595043775" lon="10.71264115856721"><ele>42.0</ele><time>2026-04-18T07:19:33Z</time></trkpt><trkpt lat="43.53763693628955" lon="10.712530572874075"><ele>42.0</ele><time>2026-04-18T07:19:34Z</time></trkpt><trkpt lat="43.53751664050652" lon="10.712409498021717"><ele>42.0</ele><time>2026-04-18T07:19:35Z</time></trkpt><trkpt lat="43.5373880282511" lon="10.71230804287089"><ele>42.0</ele><time>2026-04-18T07:19:36Z</time></trkpt><trkpt lat="43.53727000691306" lon="10.712189551273823"><ele>42.0</ele><time>2026-04-18T07:19:37Z</time></trkpt><trkpt lat="43.53716842539248" lon="10.71206378964162"><ele>42.0</ele><time>2026-04-18T07:19:38Z</time></trkpt><trkpt lat="43.5370586654366" lon="10.711990212698192"><ele>42.0</ele><time>2026-04-18T07:19:39Z</time></trkpt><trkpt lat="43.53696416213958" lon="10.711909250706105"><ele>42.0</ele><time>2026-04-18T07:19:40Z</time></trkpt><trkpt lat="43.536880693905815" lon="10.711845485713841"><ele>42.0</ele><time>2026-04-18T07:19:41Z</time></trkpt><trkpt lat="43.5367942082432" lon="10.711812311107405"><ele>42.0</ele><time>2026-04-18T07:19:42Z</time></trkpt><trkpt lat="43.53668674202289" lon="10.711788700831743"><ele>42.0</ele><time>2026-04-18T07:19:43Z</time></trkpt><trkpt lat="43.53658162047203" lon="10.711782478060801"><ele>42.0</ele><time>2026-04-18T07:19:44Z</time></trkpt><trkpt lat="43.5364565230391" lon="10.711760519384756"><ele>42.0</ele><time>2026-04-18T07:19:45Z</time></trkpt><trkpt lat="43.536334267904664" lon="10.711735433310078"><ele>42.0</ele><time>2026-04-18T07:19:46Z</time></trkpt><trkpt lat="43.53623342784093" lon="10.711723009812896"><ele>41.8</ele><time>2026-04-18T07:19:47Z</time></trkpt><trkpt lat="43.53613162940829" lon="10.711712517865097"><ele>41.6</ele><time>2026-04-18T07:19:48Z</time></trkpt><trkpt lat="43.53602702298293" lon="10.711695302329721"><ele>41.4</ele><time>2026-04-18T07:19:49Z</time></trkpt><trkpt lat="43.53590331737449" lon="10.711679774168925"><ele>41.199999999999996</ele><time>2026-04-18T07:19:50Z</time></trkpt><trkpt lat="43.535793502238356" lon="10.711631862034114"><ele>41.0</ele><time>2026-04-18T07:19:51Z</time></trkpt><trkpt lat="43.53568859607848" lon="10.711592990955346"><ele>41.0</ele><time>2026-04-18T07:19:52Z</time></trkpt><trkpt lat="43.53556241138516" lon="10.71155229753471"><ele>41.0</ele><time>2026-04-18T07:19:53Z</time></trkpt><trkpt lat="43.53544714577464" lon="10.711493431201726"><ele>41.0</ele><time>2026-04-18T07:19:54Z</time></trkpt><trkpt lat="43.53533469935513" lon="10.711450897142306"><ele>41.0</ele><time>2026-04-18T07:19:55Z</time></trkpt><trkpt lat="43.53523149770689" lon="10.711398517124882"><ele>41.25</ele><time>2026-04-18T07:19:56Z</time></trkpt><trkpt lat="43.53513525590667" lon="10.711328242439167"><ele>41.5</ele><time>2026-04-18T07:19:57Z</time></trkpt><trkpt lat="43.53501921230127" lon="10.711269429764556"><ele>41.75</ele><time>2026-04-18T07:19:58Z</time></trkpt><trkpt lat="43.53490534085827" lon="10.711209859353614"><ele>42.0</ele><time>2026-04-18T07:19:59Z</time></trkpt><trkpt lat="43.53479452590434" lon="10.7111494257512"><ele>42.0</ele><time>2026-04-18T07:20:00Z</time></trkpt><trkpt lat="43.53467248723991" lon="10.711081463198763"><ele>42.0</ele><time>2026-04-18T07:20:01Z</time></trkpt><trkpt lat="43.534565845866396" lon="10.711021698586665"><ele>42.0</ele><time>2026-04-18T07:20:02Z</time></trkpt><trkpt lat="43.53448044802816" lon="10.710973839420502"><ele>42.0</ele><time>2026-04-18T07:20:03Z</time></trkpt><trkpt lat="43.53440276301581" lon="10.710947170683122"><ele>42.0</ele><time>2026-04-18T07:20:04Z</time></trkpt><trkpt lat="43.53434620121603" lon="10.710892756318426"><ele>42.0</ele><time>2026-04-18T07:20:05Z</time></trkpt><trkpt lat="43.53424509001688" lon="10.710881477534539"><ele>42.0</ele><time>2026-04-18T07:20:07Z</time></trkpt><trkpt lat="43.534191822600086" lon="10.71098328864264"><ele>42.0</ele><time>2026-04-18T07:20:09Z</time></trkpt><trkpt lat="43.53415966070087" lon="10.711190624335243"><ele>42.0</ele><time>2026-04-18T07:20:11Z</time></trkpt><trkpt lat="43.53413118936943" lon="10.711324807488927"><ele>42.0</ele><time>2026-04-18T07:20:12Z</time></trkpt><trkpt lat="43.53408236165844" lon="10.711474549452506"><ele>41.8</ele><time>2026-04-18T07:20:13Z</time></trkpt><trkpt lat="43.53403264948342" lon="10.711604640030577"><ele>41.6</ele><time>2026-04-18T07:20:14Z</time></trkpt><trkpt lat="43.53400165142692" lon="10.711711732348814"><ele>41.4</ele><time>2026-04-18T07:20:15Z</time></trkpt><trkpt lat="43.53395794500965" lon="10.711778867583305"><ele>41.199999999999996</ele><time>2026-04-18T07:20:16Z</time></trkpt><trkpt lat="43.53390905701649" lon="10.711876195672092"><ele>41.0</ele><time>2026-04-18T07:20:18Z</time></trkpt><trkpt lat="43.533596820091525" lon="10.71184935552745"><ele>41.5</ele><time>2026-04-18T07:20:20Z</time></trkpt><trkpt lat="43.53346397300242" lon="10.71190422454246"><ele>42.0</ele><time>2026-04-18T07:20:21Z</time></trkpt><trkpt lat="43.53332401877543" lon="10.711952111650332"><ele>42.5</ele><time>2026-04-18T07:20:22Z</time></trkpt><trkpt lat="43.533180078766186" lon="10.712010220038211"><ele>43.0</ele><time>2026-04-18T07:20:23Z</time></trkpt><trkpt lat="43.53303316358293" lon="10.712071255534628"><ele>43.333333333333336</ele><time>2026-04-18T07:20:24Z</time></trkpt><trkpt lat="43.53288838606211" lon="10.7121317873671"><ele>43.666666666666664</ele><time>2026-04-18T07:20:25Z</time></trkpt><trkpt lat="43.53272840634788" lon="10.712188369198124"><ele>44.0</ele><time>2026-04-18T07:20:26Z</time></trkpt><trkpt lat="43.53256676481249" lon="10.712251768482233"><ele>44.0</ele><time>2026-04-18T07:20:27Z</time></trkpt><trkpt lat="43.53240702539767" lon="10.712309402516633"><ele>44.0</ele><time>2026-04-18T07:20:28Z</time></trkpt><trkpt lat="43.532248133287716" lon="10.712369665176658"><ele>44.0</ele><time>2026-04-18T07:20:29Z</time></trkpt><trkpt lat="43.53208510664801" lon="10.712436405336902"><ele>43.33333333333333</ele><time>2026-04-18T07:20:30Z</time></trkpt><trkpt lat="43.531915395970344" lon="10.712509770789994"><ele>42.666666666666664</ele><time>2026-04-18T07:20:31Z</time></trkpt><trkpt lat="43.53174163800641" lon="10.712583036917618"><ele>42.0</ele><time>2026-04-18T07:20:32Z</time></trkpt><trkpt lat="43.53156679056449" lon="10.712660824598542"><ele>42.0</ele><time>2026-04-18T07:20:33Z</time></trkpt><trkpt lat="43.53139570045022" lon="10.712735679461572"><ele>42.0</ele><time>2026-04-18T07:20:34Z</time></trkpt><trkpt lat="43.53124969233224" lon="10.712793894459416"><ele>42.0</ele><time>2026-04-18T07:20:35Z</time></trkpt><trkpt lat="43.53110399467867" lon="10.71285665111097"><ele>42.25</ele><time>2026-04-18T07:20:36Z</time></trkpt><trkpt lat="43.530978335202455" lon="10.71290742654494"><ele>42.5</ele><time>2026-04-18T07:20:37Z</time></trkpt><trkpt lat="43.5308421611294" lon="10.712966932798897"><ele>42.75</ele><time>2026-04-18T07:20:38Z</time></trkpt><trkpt lat="43.5306942667112" lon="10.713024702906752"><ele>43.0</ele><time>2026-04-18T07:20:39Z</time></trkpt><trkpt lat="43.53053355590766" lon="10.71309283502762"><ele>43.333333333333336</ele><time>2026-04-18T07:20:40Z</time></trkpt><trkpt lat="43.53037404435327" lon="10.713161495094885"><ele>43.666666666666664</ele><time>2026-04-18T07:20:41Z</time></trkpt><trkpt lat="43.53021001607485" lon="10.713228498627052"><ele>44.0</ele><time>2026-04-18T07:20:42Z</time></trkpt><trkpt lat="43.530036379285676" lon="10.71329248999344"><ele>44.0</ele><time>2026-04-18T07:20:43Z</time></trkpt><trkpt lat="43.52986355583216" lon="10.713357122886864"><ele>44.0</ele><time>2026-04-18T07:20:44Z</time></trkpt><trkpt lat="43.52968982502772" lon="10.71342096007256"><ele>44.0</ele><time>2026-04-18T07:20:45Z</time></trkpt><trkpt lat="43.529523990644265" lon="10.713491844354168"><ele>44.33333333333333</ele><time>2026-04-18T07:20:46Z</time></trkpt><trkpt lat="43.529355051596355" lon="10.713554349051954"><ele>44.666666666666664</ele><time>2026-04-18T07:20:47Z</time></trkpt><trkpt lat="43.529174113924235" lon="10.71362684892888"><ele>45.0</ele><time>2026-04-18T07:20:48Z</time></trkpt><trkpt lat="43.529004694282975" lon="10.71369045272807"><ele>45.0</ele><time>2026-04-18T07:20:49Z</time></trkpt><trkpt lat="43.52887752529305" lon="10.713747202976524"><ele>45.0</ele><time>2026-04-18T07:20:50Z</time></trkpt><trkpt lat="43.528742733262305" lon="10.713796744662558"><ele>45.0</ele><time>2026-04-18T07:20:51Z</time></trkpt><trkpt lat="43.528601128395486" lon="10.713852830103718"><ele>45.0</ele><time>2026-04-18T07:20:52Z</time></trkpt><trkpt lat="43.52845100500835" lon="10.713912650773311"><ele>45.0</ele><time>2026-04-18T07:20:53Z</time></trkpt><trkpt lat="43.52829915718353" lon="10.713973523942496"><ele>45.0</ele><time>2026-04-18T07:20:54Z</time></trkpt><trkpt lat="43.528147367362955" lon="10.714031338192767"><ele>45.0</ele><time>2026-04-18T07:20:55Z</time></trkpt><trkpt lat="43.52800277438275" lon="10.714091131013808"><ele>45.0</ele><time>2026-04-18T07:20:56Z</time></trkpt><trkpt lat="43.527847402122134" lon="10.714151537843904"><ele>45.0</ele><time>2026-04-18T07:20:57Z</time></trkpt><trkpt lat="43.52768662857" lon="10.71422078458786"><ele>45.0</ele><time>2026-04-18T07:20:58Z</time></trkpt><trkpt lat="43.527532558960104" lon="10.71428218236727"><ele>45.0</ele><time>2026-04-18T07:20:59Z</time></trkpt><trkpt lat="43.527381830421994" lon="10.714341617958596"><ele>45.0</ele><time>2026-04-18T07:21:00Z</time></trkpt><trkpt lat="43.5272244863141" lon="10.714406527898406"><ele>45.0</ele><time>2026-04-18T07:21:01Z</time></trkpt><trkpt lat="43.52707893844738" lon="10.714466042149876"><ele>47.33333333333333</ele><time>2026-04-18T07:21:02Z</time></trkpt><trkpt lat="43.52693378594804" lon="10.714527549576653"><ele>49.666666666666664</ele><time>2026-04-18T07:21:03Z</time></trkpt><trkpt lat="43.52677009839788" lon="10.714592801256442"><ele>52.0</ele><time>2026-04-18T07:21:04Z</time></trkpt><trkpt lat="43.52661383062796" lon="10.714656858788143"><ele>52.0</ele><time>2026-04-18T07:21:04.999Z</time></trkpt><trkpt lat="43.526456317099985" lon="10.714720921588047"><ele>52.0</ele><time>2026-04-18T07:21:05.999Z</time></trkpt><trkpt lat="43.52631284084183" lon="10.714785933596502"><ele>52.0</ele><time>2026-04-18T07:21:06.999Z</time></trkpt><trkpt lat="43.52616143108902" lon="10.714852325049588"><ele>50.0</ele><time>2026-04-18T07:21:07.999Z</time></trkpt><trkpt lat="43.52600574827901" lon="10.7149125934922"><ele>48.0</ele><time>2026-04-18T07:21:08.999Z</time></trkpt><trkpt lat="43.52585230889557" lon="10.714968823476196"><ele>46.0</ele><time>2026-04-18T07:21:09.999Z</time></trkpt><trkpt lat="43.52569061783182" lon="10.71503394165377"><ele>46.0</ele><time>2026-04-18T07:21:10.999Z</time></trkpt><trkpt lat="43.525548797525985" lon="10.715086953930264"><ele>46.0</ele><time>2026-04-18T07:21:11.999Z</time></trkpt><trkpt lat="43.525407800500474" lon="10.715139608108831"><ele>46.0</ele><time>2026-04-18T07:21:12.999Z</time></trkpt><trkpt lat="43.52527049638378" lon="10.715193703019985"><ele>46.0</ele><time>2026-04-18T07:21:13.999Z</time></trkpt><trkpt lat="43.52513971413998" lon="10.715252388914381"><ele>46.4</ele><time>2026-04-18T07:21:14.999Z</time></trkpt><trkpt lat="43.52502297052881" lon="10.715306858142924"><ele>46.8</ele><time>2026-04-18T07:21:16Z</time></trkpt><trkpt lat="43.524913496947484" lon="10.715355988193295"><ele>47.199999999999996</ele><time>2026-04-18T07:21:17Z</time></trkpt><trkpt lat="43.524820106617774" lon="10.715381816126312"><ele>47.599999999999994</ele><time>2026-04-18T07:21:18Z</time></trkpt><trkpt lat="43.52474227756105" lon="10.715410492115257"><ele>48.0</ele><time>2026-04-18T07:21:19Z</time></trkpt><trkpt lat="43.52465562256137" lon="10.715537911029372"><ele>48.0</ele><time>2026-04-18T07:21:21Z</time></trkpt><trkpt lat="43.52462103446427" lon="10.715656976472308"><ele>48.0</ele><time>2026-04-18T07:21:22Z</time></trkpt><trkpt lat="43.52459243697196" lon="10.715804069004179"><ele>48.0</ele><time>2026-04-18T07:21:23Z</time></trkpt><trkpt lat="43.52457498073245" lon="10.715959419524623"><ele>48.0</ele><time>2026-04-18T07:21:24Z</time></trkpt><trkpt lat="43.52457156310587" lon="10.716117522092567"><ele>48.0</ele><time>2026-04-18T07:21:25Z</time></trkpt><trkpt lat="43.524573028802536" lon="10.716289358510055"><ele>47.0</ele><time>2026-04-18T07:21:26Z</time></trkpt><trkpt lat="43.524570013637934" lon="10.716466285001943"><ele>46.0</ele><time>2026-04-18T07:21:27Z</time></trkpt><trkpt lat="43.524549965130625" lon="10.716642876882544"><ele>45.0</ele><time>2026-04-18T07:21:28Z</time></trkpt><trkpt lat="43.52451201168282" lon="10.71682061392531"><ele>44.0</ele><time>2026-04-18T07:21:29Z</time></trkpt><trkpt lat="43.52445117119297" lon="10.717009743274259"><ele>44.0</ele><time>2026-04-18T07:21:30Z</time></trkpt><trkpt lat="43.524384179537606" lon="10.717188070179683"><ele>44.0</ele><time>2026-04-18T07:21:31Z</time></trkpt><trkpt lat="43.52431271312666" lon="10.717366311764998"><ele>44.0</ele><time>2026-04-18T07:21:32Z</time></trkpt><trkpt lat="43.52424862937324" lon="10.717564032804765"><ele>44.75</ele><time>2026-04-18T07:21:33Z</time></trkpt><trkpt lat="43.52418976272715" lon="10.717748779746394"><ele>45.5</ele><time>2026-04-18T07:21:34Z</time></trkpt><trkpt lat="43.52413936322445" lon="10.71793578853934"><ele>46.25</ele><time>2026-04-18T07:21:35Z</time></trkpt><trkpt lat="43.52409731527776" lon="10.718126173075241"><ele>47.0</ele><time>2026-04-18T07:21:36Z</time></trkpt><trkpt lat="43.524053771324624" lon="10.71831995807"><ele>47.0</ele><time>2026-04-18T07:21:37Z</time></trkpt><trkpt lat="43.5240070093181" lon="10.718519441156415"><ele>47.0</ele><time>2026-04-18T07:21:38Z</time></trkpt><trkpt lat="43.52395476723681" lon="10.7187167068798"><ele>47.0</ele><time>2026-04-18T07:21:39Z</time></trkpt><trkpt lat="43.52390109839227" lon="10.71889612745106"><ele>47.0</ele><time>2026-04-18T07:21:40Z</time></trkpt><trkpt lat="43.52383798041011" lon="10.719099859827093"><ele>47.25</ele><time>2026-04-18T07:21:41Z</time></trkpt><trkpt lat="43.52377690735462" lon="10.71930702775194"><ele>47.5</ele><time>2026-04-18T07:21:42Z</time></trkpt><trkpt lat="43.52373277630984" lon="10.719479650533145"><ele>47.75</ele><time>2026-04-18T07:21:43Z</time></trkpt><trkpt lat="43.523684551735336" lon="10.719671028139668"><ele>48.0</ele><time>2026-04-18T07:21:44Z</time></trkpt><trkpt lat="43.52363067437528" lon="10.719838074331118"><ele>47.5</ele><time>2026-04-18T07:21:45Z</time></trkpt><trkpt lat="43.523568454173464" lon="10.719996726233596"><ele>47.0</ele><time>2026-04-18T07:21:46Z</time></trkpt><trkpt lat="43.52350059628669" lon="10.720157868708661"><ele>46.5</ele><time>2026-04-18T07:21:47Z</time></trkpt><trkpt lat="43.523418312656055" lon="10.720335185951953"><ele>46.0</ele><time>2026-04-18T07:21:48Z</time></trkpt><trkpt lat="43.523357331133816" lon="10.720498616657482"><ele>46.0</ele><time>2026-04-18T07:21:49Z</time></trkpt><trkpt lat="43.52330992099852" lon="10.720677982107356"><ele>46.0</ele><time>2026-04-18T07:21:50Z</time></trkpt><trkpt lat="43.52327692797126" lon="10.720875092681917"><ele>46.0</ele><time>2026-04-18T07:21:51Z</time></trkpt><trkpt lat="43.52325126159006" lon="10.721070726702223"><ele>46.0</ele><time>2026-04-18T07:21:52Z</time></trkpt><trkpt lat="43.52320200371488" lon="10.721276126979124"><ele>46.0</ele><time>2026-04-18T07:21:53Z</time></trkpt><trkpt lat="43.52313920930699" lon="10.721445009638876"><ele>46.0</ele><time>2026-04-18T07:21:54Z</time></trkpt><trkpt lat="43.52306924792989" lon="10.721602008732583"><ele>46.0</ele><time>2026-04-18T07:21:55Z</time></trkpt><trkpt lat="43.522988874104406" lon="10.721760520475238"><ele>46.0</ele><time>2026-04-18T07:21:56Z</time></trkpt><trkpt lat="43.522909614309896" lon="10.721897508202233"><ele>47.0</ele><time>2026-04-18T07:21:57Z</time></trkpt><trkpt lat="43.522844731948645" lon="10.722020730713487"><ele>48.0</ele><time>2026-04-18T07:21:58Z</time></trkpt><trkpt lat="43.52276521995604" lon="10.722164772456932"><ele>49.0</ele><time>2026-04-18T07:21:59Z</time></trkpt><trkpt lat="43.52267578127893" lon="10.722307333125936"><ele>50.0</ele><time>2026-04-18T07:22:00Z</time></trkpt><trkpt lat="43.5225911039322" lon="10.722416798218594"><ele>50.0</ele><time>2026-04-18T07:22:01Z</time></trkpt><trkpt lat="43.522492619006805" lon="10.722513365189396"><ele>50.0</ele><time>2026-04-18T07:22:02Z</time></trkpt><trkpt lat="43.52237098299996" lon="10.722631859514644"><ele>50.0</ele><time>2026-04-18T07:22:03Z</time></trkpt><trkpt lat="43.52225218249851" lon="10.7227613103048"><ele>50.0</ele><time>2026-04-18T07:22:04Z</time></trkpt><trkpt lat="43.52213547987895" lon="10.7228772145664"><ele>50.0</ele><time>2026-04-18T07:22:05Z</time></trkpt><trkpt lat="43.5220155052367" lon="10.72297518812782"><ele>50.0</ele><time>2026-04-18T07:22:06Z</time></trkpt><trkpt lat="43.52189573918743" lon="10.723070354877938"><ele>50.0</ele><time>2026-04-18T07:22:07Z</time></trkpt><trkpt lat="43.52177769779657" lon="10.723170479086301"><ele>50.0</ele><time>2026-04-18T07:22:08Z</time></trkpt><trkpt lat="43.52165709138675" lon="10.723286450052411"><ele>50.0</ele><time>2026-04-18T07:22:09Z</time></trkpt><trkpt lat="43.52155520350501" lon="10.723407499228482"><ele>50.0</ele><time>2026-04-18T07:22:10Z</time></trkpt><trkpt lat="43.52145606856005" lon="10.723535822505143"><ele>50.0</ele><time>2026-04-18T07:22:11Z</time></trkpt><trkpt lat="43.52136163497407" lon="10.723672966278714"><ele>50.0</ele><time>2026-04-18T07:22:12Z</time></trkpt><trkpt lat="43.52126883441013" lon="10.723820667345889"><ele>49.5</ele><time>2026-04-18T07:22:13Z</time></trkpt><trkpt lat="43.521181335937754" lon="10.72398255985227"><ele>49.0</ele><time>2026-04-18T07:22:14Z</time></trkpt><trkpt lat="43.52110434417315" lon="10.724144270631355"><ele>48.5</ele><time>2026-04-18T07:22:15Z</time></trkpt><trkpt lat="43.52102835397414" lon="10.72428911308377"><ele>48.0</ele><time>2026-04-18T07:22:16Z</time></trkpt><trkpt lat="43.52092976850389" lon="10.7244266979209"><ele>48.0</ele><time>2026-04-18T07:22:17Z</time></trkpt><trkpt lat="43.520844728954856" lon="10.724549062067627"><ele>48.0</ele><time>2026-04-18T07:22:18Z</time></trkpt><trkpt lat="43.52078741219622" lon="10.724665417183548"><ele>48.0</ele><time>2026-04-18T07:22:19Z</time></trkpt><trkpt lat="43.52075380856521" lon="10.724797508132795"><ele>48.0</ele><time>2026-04-18T07:22:20Z</time></trkpt><trkpt lat="43.52075242179523" lon="10.724924068340197"><ele>48.0</ele><time>2026-04-18T07:22:21Z</time></trkpt><trkpt lat="43.52076998013137" lon="10.72506197494688"><ele>48.0</ele><time>2026-04-18T07:22:22Z</time></trkpt><trkpt lat="43.520792090128246" lon="10.725215810450772"><ele>48.0</ele><time>2026-04-18T07:22:23Z</time></trkpt><trkpt lat="43.5208047262491" lon="10.725385838873354"><ele>48.0</ele><time>2026-04-18T07:22:24Z</time></trkpt><trkpt lat="43.520812494129174" lon="10.72558468893111"><ele>48.0</ele><time>2026-04-18T07:22:25Z</time></trkpt><trkpt lat="43.52083951384878" lon="10.725736913578444"><ele>48.75</ele><time>2026-04-18T07:22:26Z</time></trkpt><trkpt lat="43.52092170552303" lon="10.726070821878244"><ele>49.5</ele><time>2026-04-18T07:22:28Z</time></trkpt><trkpt lat="43.52095450945636" lon="10.72618958430937"><ele>50.25</ele><time>2026-04-18T07:22:29Z</time></trkpt><trkpt lat="43.52097786894009" lon="10.726292906540746"><ele>51.0</ele><time>2026-04-18T07:22:30Z</time></trkpt><trkpt lat="43.52090501469965" lon="10.726382577435599"><ele>51.0</ele><time>2026-04-18T07:22:32Z</time></trkpt><trkpt lat="43.520821850040726" lon="10.726447719990805"><ele>51.0</ele><time>2026-04-18T07:22:33Z</time></trkpt><trkpt lat="43.520722587135516" lon="10.726520961059391"><ele>51.0</ele><time>2026-04-18T07:22:34Z</time></trkpt><trkpt lat="43.52065342011358" lon="10.726568815170992"><ele>51.0</ele><time>2026-04-18T07:22:35Z</time></trkpt><trkpt lat="43.520550774906205" lon="10.72662582637857"><ele>51.0</ele><time>2026-04-18T07:22:37Z</time></trkpt><trkpt lat="43.520449665003994" lon="10.72669403363932"><ele>51.0</ele><time>2026-04-18T07:22:38Z</time></trkpt><trkpt lat="43.52034535888161" lon="10.726789897241297"><ele>51.0</ele><time>2026-04-18T07:22:39Z</time></trkpt><trkpt lat="43.52023195637384" lon="10.72689366675759"><ele>51.0</ele><time>2026-04-18T07:22:40Z</time></trkpt><trkpt lat="43.520106338951784" lon="10.72700788164825"><ele>51.0</ele><time>2026-04-18T07:22:41Z</time></trkpt><trkpt lat="43.51999618875432" lon="10.72710540361908"><ele>51.0</ele><time>2026-04-18T07:22:42Z</time></trkpt><trkpt lat="43.51989073621001" lon="10.727194985930907"><ele>51.0</ele><time>2026-04-18T07:22:43Z</time></trkpt><trkpt lat="43.51981011590018" lon="10.72726256460208"><ele>51.0</ele><time>2026-04-18T07:22:44Z</time></trkpt><trkpt lat="43.51974777191899" lon="10.727336345635829"><ele>51.0</ele><time>2026-04-18T07:22:45Z</time></trkpt><trkpt lat="43.519696785422596" lon="10.727510253603853"><ele>51.0</ele><time>2026-04-18T07:22:47Z</time></trkpt><trkpt lat="43.51966836679044" lon="10.7276334492368"><ele>52.0</ele><time>2026-04-18T07:22:48Z</time></trkpt><trkpt lat="43.519647016237215" lon="10.727743248405687"><ele>53.0</ele><time>2026-04-18T07:22:49Z</time></trkpt><trkpt lat="43.519647292880364" lon="10.727889474843451"><ele>53.99999999999999</ele><time>2026-04-18T07:22:51Z</time></trkpt><trkpt lat="43.51964779716381" lon="10.72802768307964"><ele>55.0</ele><time>2026-04-18T07:22:53Z</time></trkpt><trkpt lat="43.51963636041408" lon="10.728148440863949"><ele>56.0</ele><time>2026-04-18T07:22:54Z</time></trkpt><trkpt lat="43.51962770351531" lon="10.728300350885023"><ele>56.0</ele><time>2026-04-18T07:22:55Z</time></trkpt><trkpt lat="43.51962239385963" lon="10.72846924060729"><ele>55.99999999999999</ele><time>2026-04-18T07:22:56Z</time></trkpt><trkpt lat="43.51960503281214" lon="10.728591460224004"><ele>55.99999999999999</ele><time>2026-04-18T07:22:57Z</time></trkpt><trkpt lat="43.519588517147724" lon="10.728690402033477"><ele>56.0</ele><time>2026-04-18T07:22:58Z</time></trkpt><trkpt lat="43.51959135786527" lon="10.72879926550058"><ele>56.0</ele><time>2026-04-18T07:22:59Z</time></trkpt><trkpt lat="43.51961665719415" lon="10.728944537480329"><ele>56.8</ele><time>2026-04-18T07:23:00Z</time></trkpt><trkpt lat="43.51964013246715" lon="10.729109188566074"><ele>57.599999999999994</ele><time>2026-04-18T07:23:01Z</time></trkpt><trkpt lat="43.51966120714152" lon="10.729260463495248"><ele>58.4</ele><time>2026-04-18T07:23:02Z</time></trkpt><trkpt lat="43.51967192549359" lon="10.729387363166905"><ele>59.2</ele><time>2026-04-18T07:23:03Z</time></trkpt><trkpt lat="43.519688090391774" lon="10.729499772103779"><ele>60.0</ele><time>2026-04-18T07:23:04Z</time></trkpt><trkpt lat="43.51971244650349" lon="10.7296363461645"><ele>60.333333333333336</ele><time>2026-04-18T07:23:05Z</time></trkpt><trkpt lat="43.519714547238344" lon="10.729746406522013"><ele>60.66666666666667</ele><time>2026-04-18T07:23:06Z</time></trkpt><trkpt lat="43.51968016875858" lon="10.729838768360924"><ele>61.0</ele><time>2026-04-18T07:23:07Z</time></trkpt><trkpt lat="43.51964620649942" lon="10.729938912854186"><ele>61.333333333333336</ele><time>2026-04-18T07:23:08Z</time></trkpt><trkpt lat="43.51960017542803" lon="10.730069341005603"><ele>61.66666666666667</ele><time>2026-04-18T07:23:09Z</time></trkpt><trkpt lat="43.5195746243425" lon="10.73018707593194"><ele>62.0</ele><time>2026-04-18T07:23:10Z</time></trkpt><trkpt lat="43.51957143256935" lon="10.730289010939629"><ele>62.833333333333336</ele><time>2026-04-18T07:23:11Z</time></trkpt><trkpt lat="43.51961456890232" lon="10.73045949206333"><ele>63.66666666666667</ele><time>2026-04-18T07:23:13Z</time></trkpt><trkpt lat="43.51963254568447" lon="10.730562753778392"><ele>64.5</ele><time>2026-04-18T07:23:14Z</time></trkpt><trkpt lat="43.51963709804931" lon="10.730650339750005"><ele>65.33333333333333</ele><time>2026-04-18T07:23:15Z</time></trkpt><trkpt lat="43.519656069159005" lon="10.730748425414749"><ele>66.16666666666666</ele><time>2026-04-18T07:23:16Z</time></trkpt><trkpt lat="43.51964213344815" lon="10.730872719117235"><ele>67.0</ele><time>2026-04-18T07:23:17Z</time></trkpt><trkpt lat="43.519656948590395" lon="10.730980875842077"><ele>69.4</ele><time>2026-04-18T07:23:18Z</time></trkpt><trkpt lat="43.51966086988364" lon="10.731112915564802"><ele>71.80000000000001</ele><time>2026-04-18T07:23:19Z</time></trkpt><trkpt lat="43.5196549242248" lon="10.731248087982733"><ele>74.2</ele><time>2026-04-18T07:23:20Z</time></trkpt><trkpt lat="43.51965742628838" lon="10.731372366489627"><ele>76.60000000000001</ele><time>2026-04-18T07:23:21Z</time></trkpt><trkpt lat="43.51968861192067" lon="10.731528527963789"><ele>79.0</ele><time>2026-04-18T07:23:23Z</time></trkpt><trkpt lat="43.51969603904099" lon="10.731620647987851"><ele>79.0</ele><time>2026-04-18T07:23:24Z</time></trkpt><trkpt lat="43.51971470816037" lon="10.731703975057037"><ele>79.0</ele><time>2026-04-18T07:23:25Z</time></trkpt><trkpt lat="43.51974952599036" lon="10.73183102384063"><ele>79.0</ele><time>2026-04-18T07:23:26Z</time></trkpt><trkpt lat="43.51979586865824" lon="10.731955476714532"><ele>79.0</ele><time>2026-04-18T07:23:27Z</time></trkpt><trkpt lat="43.51983157123236" lon="10.732089002085267"><ele>79.0</ele><time>2026-04-18T07:23:28Z</time></trkpt><trkpt lat="43.51985795996836" lon="10.732220892635675"><ele>80.4</ele><time>2026-04-18T07:23:29Z</time></trkpt><trkpt lat="43.519869875934724" lon="10.732333374798921"><ele>81.80000000000001</ele><time>2026-04-18T07:23:30Z</time></trkpt><trkpt lat="43.51987942392304" lon="10.732446680268428"><ele>83.19999999999999</ele><time>2026-04-18T07:23:31Z</time></trkpt><trkpt lat="43.51987463712645" lon="10.732591110268563"><ele>84.6</ele><time>2026-04-18T07:23:32Z</time></trkpt><trkpt lat="43.51985761794624" lon="10.732708435607256"><ele>86.0</ele><time>2026-04-18T07:23:33Z</time></trkpt><trkpt lat="43.5198319932445" lon="10.732845304186402"><ele>88.0</ele><time>2026-04-18T07:23:34Z</time></trkpt><trkpt lat="43.51983087955321" lon="10.732993674158774"><ele>90.0</ele><time>2026-04-18T07:23:35Z</time></trkpt><trkpt lat="43.519846062430254" lon="10.733130655096389"><ele>92.0</ele><time>2026-04-18T07:23:36Z</time></trkpt><trkpt lat="43.519866474824916" lon="10.733279031548696"><ele>94.0</ele><time>2026-04-18T07:23:37Z</time></trkpt><trkpt lat="43.519875060856826" lon="10.73338526033711"><ele>96.0</ele><time>2026-04-18T07:23:38Z</time></trkpt><trkpt lat="43.51988311268038" lon="10.733535291357938"><ele>97.25</ele><time>2026-04-18T07:23:40Z</time></trkpt><trkpt lat="43.51985888228969" lon="10.733800445875005"><ele>98.5</ele><time>2026-04-18T07:23:41Z</time></trkpt><trkpt lat="43.51982615210229" lon="10.733917888674798"><ele>99.75</ele><time>2026-04-18T07:23:42Z</time></trkpt><trkpt lat="43.51981973330491" lon="10.734047827926304"><ele>101.0</ele><time>2026-04-18T07:23:43Z</time></trkpt><trkpt lat="43.51981285749615" lon="10.734191788482976"><ele>100.99999999999999</ele><time>2026-04-18T07:23:44Z</time></trkpt><trkpt lat="43.51980643419076" lon="10.734317596511806"><ele>101.0</ele><time>2026-04-18T07:23:45Z</time></trkpt><trkpt lat="43.51987297428833" lon="10.734410604010627"><ele>101.0</ele><time>2026-04-18T07:23:47Z</time></trkpt><trkpt lat="43.51994859822654" lon="10.734445194077145"><ele>101.0</ele><time>2026-04-18T07:23:48Z</time></trkpt><trkpt lat="43.5200307854515" lon="10.73448248286607"><ele>100.99999999999999</ele><time>2026-04-18T07:23:49Z</time></trkpt><trkpt lat="43.52011029775165" lon="10.734527621763302"><ele>101.0</ele><time>2026-04-18T07:23:50Z</time></trkpt><trkpt lat="43.5201957126212" lon="10.734591607083805"><ele>100.49999999999999</ele><time>2026-04-18T07:23:51Z</time></trkpt><trkpt lat="43.52027379118965" lon="10.734664596928543"><ele>100.0</ele><time>2026-04-18T07:23:52Z</time></trkpt><trkpt lat="43.52034847463851" lon="10.734737737110112"><ele>99.5</ele><time>2026-04-18T07:23:53Z</time></trkpt><trkpt lat="43.52042511604685" lon="10.734807036196793"><ele>99.0</ele><time>2026-04-18T07:23:54Z</time></trkpt><trkpt lat="43.520500400466496" lon="10.73486790480842"><ele>98.49999999999999</ele><time>2026-04-18T07:23:55Z</time></trkpt><trkpt lat="43.520568253328385" lon="10.734921302944338"><ele>98.0</ele><time>2026-04-18T07:23:56Z</time></trkpt><trkpt lat="43.520623935533386" lon="10.734977053919136"><ele>100.33333333333333</ele><time>2026-04-18T07:23:57Z</time></trkpt><trkpt lat="43.52067494939923" lon="10.735044742420538"><ele>102.66666666666666</ele><time>2026-04-18T07:23:58Z</time></trkpt><trkpt lat="43.52071633112203" lon="10.73512163477017"><ele>105.0</ele><time>2026-04-18T07:23:59Z</time></trkpt><trkpt lat="43.52075689669206" lon="10.735229729730102"><ele>107.33333333333334</ele><time>2026-04-18T07:24:00Z</time></trkpt><trkpt lat="43.52077568179673" lon="10.735364817555386"><ele>109.66666666666667</ele><time>2026-04-18T07:24:01Z</time></trkpt><trkpt lat="43.52079304086033" lon="10.735479367458133"><ele>112.0</ele><time>2026-04-18T07:24:02Z</time></trkpt><trkpt lat="43.52083823288037" lon="10.735559392748824"><ele>112.6</ele><time>2026-04-18T07:24:03Z</time></trkpt><trkpt lat="43.520912969184" lon="10.735653752387996"><ele>113.19999999999999</ele><time>2026-04-18T07:24:04Z</time></trkpt><trkpt lat="43.52098691158327" lon="10.735754646581844"><ele>113.8</ele><time>2026-04-18T07:24:05Z</time></trkpt><trkpt lat="43.52105849681114" lon="10.735852544476876"><ele>114.4</ele><time>2026-04-18T07:24:06Z</time></trkpt><trkpt lat="43.52112100768261" lon="10.735922004621973"><ele>115.0</ele><time>2026-04-18T07:24:07Z</time></trkpt><trkpt lat="43.52118346977335" lon="10.735971019086303"><ele>117.83333333333334</ele><time>2026-04-18T07:24:08Z</time></trkpt><trkpt lat="43.521257128102654" lon="10.73602308658862"><ele>120.66666666666667</ele><time>2026-04-18T07:24:09Z</time></trkpt><trkpt lat="43.521326914060474" lon="10.736078297422582"><ele>123.5</ele><time>2026-04-18T07:24:10Z</time></trkpt><trkpt lat="43.521391367065135" lon="10.73617031789928"><ele>126.33333333333334</ele><time>2026-04-18T07:24:11Z</time></trkpt><trkpt lat="43.521450996274" lon="10.73625600174747"><ele>129.16666666666666</ele><time>2026-04-18T07:24:12Z</time></trkpt><trkpt lat="43.521526808425506" lon="10.73635166518549"><ele>132.0</ele><time>2026-04-18T07:24:13Z</time></trkpt><trkpt lat="43.521599028755276" lon="10.73644260355834"><ele>132.4</ele><time>2026-04-18T07:24:14Z</time></trkpt><trkpt lat="43.52167172327897" lon="10.73654045748851"><ele>132.79999999999998</ele><time>2026-04-18T07:24:15Z</time></trkpt><trkpt lat="43.52170264669459" lon="10.736662899695173"><ele>133.2</ele><time>2026-04-18T07:24:16Z</time></trkpt><trkpt lat="43.52176526398581" lon="10.736718611006376"><ele>133.6</ele><time>2026-04-18T07:24:17Z</time></trkpt><trkpt lat="43.52183696114938" lon="10.736789408790482"><ele>134.0</ele><time>2026-04-18T07:24:18Z</time></trkpt><trkpt lat="43.5219355570905" lon="10.736872978943937"><ele>133.6</ele><time>2026-04-18T07:24:19Z</time></trkpt><trkpt lat="43.52202474045528" lon="10.736978794744214"><ele>133.2</ele><time>2026-04-18T07:24:20Z</time></trkpt><trkpt lat="43.52208528925447" lon="10.737074863992056"><ele>132.79999999999998</ele><time>2026-04-18T07:24:21Z</time></trkpt><trkpt lat="43.52214137467951" lon="10.737142594812294"><ele>132.4</ele><time>2026-04-18T07:24:23Z</time></trkpt><trkpt lat="43.5220883586826" lon="10.737291476209469"><ele>132.0</ele><time>2026-04-18T07:24:41Z</time></trkpt><trkpt lat="43.522055056379486" lon="10.737431604345321"><ele>134.0</ele><time>2026-04-18T07:24:43Z</time></trkpt><trkpt lat="43.5220138964401" lon="10.737580294326493"><ele>136.0</ele><time>2026-04-18T07:24:45Z</time></trkpt><trkpt lat="43.52196401098278" lon="10.737718866597477"><ele>138.0</ele><time>2026-04-18T07:24:47Z</time></trkpt><trkpt lat="43.521901389047706" lon="10.737827577746502"><ele>140.0</ele><time>2026-04-18T07:24:49Z</time></trkpt><trkpt lat="43.52181796495751" lon="10.73791870465998"><ele>142.0</ele><time>2026-04-18T07:24:51Z</time></trkpt><trkpt lat="43.52173783380309" lon="10.73801140802041"><ele>142.33333333333334</ele><time>2026-04-18T07:24:53Z</time></trkpt><trkpt lat="43.521672266321715" lon="10.738072614083764"><ele>142.66666666666669</ele><time>2026-04-18T07:24:55Z</time></trkpt><trkpt lat="43.52169069942002" lon="10.738258472039748"><ele>143.0</ele><time>2026-04-18T07:24:57Z</time></trkpt><trkpt lat="43.52171527422289" lon="10.738351017800543"><ele>143.33333333333334</ele><time>2026-04-18T07:24:58Z</time></trkpt><trkpt lat="43.521743393892216" lon="10.73845054184643"><ele>143.66666666666666</ele><time>2026-04-18T07:24:59Z</time></trkpt><trkpt lat="43.52176382110126" lon="10.738560466689059"><ele>144.0</ele><time>2026-04-18T07:25:00Z</time></trkpt><trkpt lat="43.52178208042345" lon="10.738672436179435"><ele>144.0</ele><time>2026-04-18T07:25:01Z</time></trkpt><trkpt lat="43.521806442211684" lon="10.738795589328927"><ele>144.0</ele><time>2026-04-18T07:25:02Z</time></trkpt><trkpt lat="43.52183917688468" lon="10.738919378446935"><ele>144.0</ele><time>2026-04-18T07:25:03Z</time></trkpt><trkpt lat="43.52188089347299" lon="10.739049237436706"><ele>144.0</ele><time>2026-04-18T07:25:04Z</time></trkpt><trkpt lat="43.52193000995775" lon="10.739182166274599"><ele>144.0</ele><time>2026-04-18T07:25:05Z</time></trkpt><trkpt lat="43.521986259532824" lon="10.739322613718521"><ele>143.25</ele><time>2026-04-18T07:25:06Z</time></trkpt><trkpt lat="43.522047198943135" lon="10.739498380425543"><ele>142.5</ele><time>2026-04-18T07:25:07Z</time></trkpt><trkpt lat="43.52210668172802" lon="10.739678012697949"><ele>141.75</ele><time>2026-04-18T07:25:08Z</time></trkpt><trkpt lat="43.522171839141194" lon="10.73987394547175"><ele>141.0</ele><time>2026-04-18T07:25:09Z</time></trkpt><trkpt lat="43.52224679501071" lon="10.740077136550072"><ele>147.33333333333334</ele><time>2026-04-18T07:25:10Z</time></trkpt><trkpt lat="43.5223286333209" lon="10.740281178876888"><ele>153.66666666666669</ele><time>2026-04-18T07:25:11Z</time></trkpt><trkpt lat="43.52240557667954" lon="10.740457624359516"><ele>160.0</ele><time>2026-04-18T07:25:12Z</time></trkpt><trkpt lat="43.52248766780321" lon="10.740645820608112"><ele>160.0</ele><time>2026-04-18T07:25:13Z</time></trkpt><trkpt lat="43.52256374655396" lon="10.740812684857094"><ele>160.0</ele><time>2026-04-18T07:25:14Z</time></trkpt><trkpt lat="43.52262570016792" lon="10.740950926800343"><ele>160.0</ele><time>2026-04-18T07:25:15Z</time></trkpt><trkpt lat="43.5226885362468" lon="10.741075681130319"><ele>160.0</ele><time>2026-04-18T07:25:16Z</time></trkpt><trkpt lat="43.522755545180985" lon="10.741191694292578"><ele>159.75</ele><time>2026-04-18T07:25:17Z</time></trkpt><trkpt lat="43.52283249024246" lon="10.741310099359163"><ele>159.5</ele><time>2026-04-18T07:25:18Z</time></trkpt><trkpt lat="43.522926720145996" lon="10.74142560317791"><ele>159.25</ele><time>2026-04-18T07:25:19Z</time></trkpt><trkpt lat="43.523033327124004" lon="10.74152873959179"><ele>159.0</ele><time>2026-04-18T07:25:20Z</time></trkpt><trkpt lat="43.523143040493096" lon="10.741626087315627"><ele>159.0</ele><time>2026-04-18T07:25:21Z</time></trkpt><trkpt lat="43.52325144601223" lon="10.741717338230686"><ele>159.0</ele><time>2026-04-18T07:25:22Z</time></trkpt><trkpt lat="43.52334893782434" lon="10.741814871764914"><ele>159.0</ele><time>2026-04-18T07:25:23Z</time></trkpt><trkpt lat="43.523432023722" lon="10.741906330937313"><ele>159.0</ele><time>2026-04-18T07:25:24Z</time></trkpt><trkpt lat="43.52351880487013" lon="10.741982241777453"><ele>159.6</ele><time>2026-04-18T07:25:25Z</time></trkpt><trkpt lat="43.52360959269004" lon="10.742041515338695"><ele>160.2</ele><time>2026-04-18T07:25:26Z</time></trkpt><trkpt lat="43.523702816413405" lon="10.74206383192487"><ele>160.79999999999998</ele><time>2026-04-18T07:25:27Z</time></trkpt><trkpt lat="43.5237962227941" lon="10.742043329190249"><ele>161.4</ele><time>2026-04-18T07:25:28Z</time></trkpt><trkpt lat="43.523900589031555" lon="10.741993244215273"><ele>162.0</ele><time>2026-04-18T07:25:29Z</time></trkpt><trkpt lat="43.52399158600494" lon="10.741945218730248"><ele>162.0</ele><time>2026-04-18T07:25:30Z</time></trkpt><trkpt lat="43.52409907783765" lon="10.741900656392517"><ele>162.0</ele><time>2026-04-18T07:25:31Z</time></trkpt><trkpt lat="43.524217890499145" lon="10.741854290570394"><ele>162.0</ele><time>2026-04-18T07:25:32Z</time></trkpt><trkpt lat="43.52436695433321" lon="10.74179100483168"><ele>162.0</ele><time>2026-04-18T07:25:33Z</time></trkpt><trkpt lat="43.52450362996039" lon="10.741768821922467"><ele>164.5</ele><time>2026-04-18T07:25:34Z</time></trkpt><trkpt lat="43.52463410165769" lon="10.741773372962033"><ele>167.0</ele><time>2026-04-18T07:25:35Z</time></trkpt><trkpt lat="43.5247641832842" lon="10.74180982777143"><ele>169.5</ele><time>2026-04-18T07:25:36Z</time></trkpt><trkpt lat="43.524886775533304" lon="10.741829785215927"><ele>172.0</ele><time>2026-04-18T07:25:37Z</time></trkpt><trkpt lat="43.52500281898878" lon="10.741821564969758"><ele>172.0</ele><time>2026-04-18T07:25:38Z</time></trkpt><trkpt lat="43.52514641949697" lon="10.741798790725932"><ele>172.0</ele><time>2026-04-18T07:25:39Z</time></trkpt><trkpt lat="43.52528268499999" lon="10.741763142716941"><ele>172.0</ele><time>2026-04-18T07:25:40Z</time></trkpt><trkpt lat="43.52539856721977" lon="10.741707362651761"><ele>172.0</ele><time>2026-04-18T07:25:41Z</time></trkpt><trkpt lat="43.525505760474516" lon="10.741633619952973"><ele>171.39999999999998</ele><time>2026-04-18T07:25:42Z</time></trkpt><trkpt lat="43.52559874792784" lon="10.741556541096292"><ele>170.79999999999998</ele><time>2026-04-18T07:25:43Z</time></trkpt><trkpt lat="43.52568761216689" lon="10.74147977778109"><ele>170.2</ele><time>2026-04-18T07:25:44Z</time></trkpt><trkpt lat="43.52575349340374" lon="10.741401410429797"><ele>169.6</ele><time>2026-04-18T07:25:45Z</time></trkpt><trkpt lat="43.52581694914302" lon="10.741354658343006"><ele>169.0</ele><time>2026-04-18T07:25:46Z</time></trkpt><trkpt lat="43.525898590692144" lon="10.741289059936449"><ele>169.0</ele><time>2026-04-18T07:25:48Z</time></trkpt><trkpt lat="43.52599750322479" lon="10.741375866237142"><ele>169.0</ele><time>2026-04-18T07:25:51Z</time></trkpt><trkpt lat="43.526043316330174" lon="10.741462172678474"><ele>169.0</ele><time>2026-04-18T07:25:52Z</time></trkpt><trkpt lat="43.52610474206507" lon="10.741550393530288"><ele>169.0</ele><time>2026-04-18T07:25:53Z</time></trkpt><trkpt lat="43.52618718726168" lon="10.74163617848982"><ele>169.0</ele><time>2026-04-18T07:25:54Z</time></trkpt><trkpt lat="43.52628202633288" lon="10.741739536843292"><ele>169.5</ele><time>2026-04-18T07:25:55Z</time></trkpt><trkpt lat="43.5263463496845" lon="10.741839649362591"><ele>170.0</ele><time>2026-04-18T07:25:56Z</time></trkpt><trkpt lat="43.52642972838036" lon="10.741927142329747"><ele>170.5</ele><time>2026-04-18T07:25:57Z</time></trkpt><trkpt lat="43.52651332126777" lon="10.742058732458966"><ele>171.0</ele><time>2026-04-18T07:25:58Z</time></trkpt><trkpt lat="43.526599937512245" lon="10.74218742300509"><ele>171.0</ele><time>2026-04-18T07:25:59Z</time></trkpt><trkpt lat="43.52669333242802" lon="10.742324055776326"><ele>171.0</ele><time>2026-04-18T07:26:00Z</time></trkpt><trkpt lat="43.52679498501568" lon="10.742462363226958"><ele>171.0</ele><time>2026-04-18T07:26:01Z</time></trkpt><trkpt lat="43.526888123749444" lon="10.742608831020025"><ele>171.0</ele><time>2026-04-18T07:26:02Z</time></trkpt><trkpt lat="43.5269618688329" lon="10.742756385666445"><ele>171.4</ele><time>2026-04-18T07:26:03Z</time></trkpt><trkpt lat="43.52699870645333" lon="10.742914988566005"><ele>171.8</ele><time>2026-04-18T07:26:04Z</time></trkpt><trkpt lat="43.527045786507664" lon="10.743042947415837"><ele>172.20000000000002</ele><time>2026-04-18T07:26:05Z</time></trkpt><trkpt lat="43.527076819804904" lon="10.743151277497269"><ele>172.60000000000002</ele><time>2026-04-18T07:26:06Z</time></trkpt><trkpt lat="43.52709721420757" lon="10.743255724432315"><ele>173.0</ele><time>2026-04-18T07:26:07Z</time></trkpt><trkpt lat="43.52712451922821" lon="10.743349871643645"><ele>172.66666666666666</ele><time>2026-04-18T07:26:08Z</time></trkpt><trkpt lat="43.52714811681325" lon="10.743434890989379"><ele>172.33333333333331</ele><time>2026-04-18T07:26:09Z</time></trkpt><trkpt lat="43.52717554176561" lon="10.7435383416712"><ele>172.0</ele><time>2026-04-18T07:26:10Z</time></trkpt><trkpt lat="43.52720521933993" lon="10.743650289388308"><ele>171.66666666666666</ele><time>2026-04-18T07:26:11Z</time></trkpt><trkpt lat="43.5272428861085" lon="10.743768651351465"><ele>171.33333333333334</ele><time>2026-04-18T07:26:12Z</time></trkpt><trkpt lat="43.52726426084857" lon="10.74389002870641"><ele>171.0</ele><time>2026-04-18T07:26:13Z</time></trkpt><trkpt lat="43.527300775200885" lon="10.744006263265103"><ele>171.0</ele><time>2026-04-18T07:26:14Z</time></trkpt><trkpt lat="43.527340855710364" lon="10.74409598191733"><ele>171.0</ele><time>2026-04-18T07:26:15Z</time></trkpt><trkpt lat="43.527388279128985" lon="10.744164282859787"><ele>171.0</ele><time>2026-04-18T07:26:16Z</time></trkpt><trkpt lat="43.527451138276874" lon="10.744230608316197"><ele>171.0</ele><time>2026-04-18T07:26:17Z</time></trkpt><trkpt lat="43.52752300534809" lon="10.744276657054527"><ele>171.0</ele><time>2026-04-18T07:26:18Z</time></trkpt><trkpt lat="43.52759751515489" lon="10.744304611176346"><ele>171.0</ele><time>2026-04-18T07:26:19Z</time></trkpt><trkpt lat="43.52769540035882" lon="10.744359034999341"><ele>170.16666666666666</ele><time>2026-04-18T07:26:21Z</time></trkpt><trkpt lat="43.52776370069792" lon="10.744409914733989"><ele>169.33333333333334</ele><time>2026-04-18T07:26:22Z</time></trkpt><trkpt lat="43.52783823611289" lon="10.744460034376988"><ele>168.5</ele><time>2026-04-18T07:26:23Z</time></trkpt><trkpt lat="43.52791228534742" lon="10.744514201331821"><ele>167.66666666666669</ele><time>2026-04-18T07:26:24Z</time></trkpt><trkpt lat="43.527988605677855" lon="10.744571284395052"><ele>166.83333333333334</ele><time>2026-04-18T07:26:25Z</time></trkpt><trkpt lat="43.52806463640766" lon="10.744631100839172"><ele>166.0</ele><time>2026-04-18T07:26:26Z</time></trkpt><trkpt lat="43.52813341044093" lon="10.744685616884109"><ele>165.83333333333334</ele><time>2026-04-18T07:26:27Z</time></trkpt><trkpt lat="43.52818861256007" lon="10.74477315276996"><ele>165.66666666666669</ele><time>2026-04-18T07:26:28Z</time></trkpt><trkpt lat="43.52823362751023" lon="10.74486575027365"><ele>165.5</ele><time>2026-04-18T07:26:29Z</time></trkpt><trkpt lat="43.528251793732174" lon="10.744982208520419"><ele>165.33333333333334</ele><time>2026-04-18T07:26:30Z</time></trkpt><trkpt lat="43.5283017516644" lon="10.745083155741272"><ele>165.16666666666666</ele><time>2026-04-18T07:26:31Z</time></trkpt><trkpt lat="43.5283477669938" lon="10.745188315264482"><ele>165.0</ele><time>2026-04-18T07:26:32Z</time></trkpt><trkpt lat="43.52838093749846" lon="10.745276508422656"><ele>165.0</ele><time>2026-04-18T07:26:33Z</time></trkpt><trkpt lat="43.52844472497627" lon="10.745389894281221"><ele>165.0</ele><time>2026-04-18T07:26:35Z</time></trkpt><trkpt lat="43.52849725849117" lon="10.745462631958775"><ele>165.0</ele><time>2026-04-18T07:26:38Z</time></trkpt><trkpt lat="43.52862895985424" lon="10.745399303431702"><ele>165.0</ele><time>2026-04-18T07:26:58Z</time></trkpt><trkpt lat="43.528667504399394" lon="10.745324261215305"><ele>165.0</ele><time>2026-04-18T07:27:00Z</time></trkpt><trkpt lat="43.52873556484503" lon="10.745262498911085"><ele>165.0</ele><time>2026-04-18T07:27:03Z</time></trkpt><trkpt lat="43.52886395129281" lon="10.745270835438175"><ele>165.0</ele><time>2026-04-18T07:27:04Z</time></trkpt><trkpt lat="43.528965613109996" lon="10.745266204721748"><ele>165.0</ele><time>2026-04-18T07:27:05Z</time></trkpt><trkpt lat="43.52904525426066" lon="10.745255247880019"><ele>165.0</ele><time>2026-04-18T07:27:06Z</time></trkpt><trkpt lat="43.529143557417584" lon="10.745232369246466"><ele>165.0</ele><time>2026-04-18T07:27:07Z</time></trkpt><trkpt lat="43.52922779785176" lon="10.74520179921687"><ele>165.0</ele><time>2026-04-18T07:27:08Z</time></trkpt><trkpt lat="43.529291049544675" lon="10.745181813914028"><ele>165.0</ele><time>2026-04-18T07:27:09Z</time></trkpt><trkpt lat="43.52935289995483" lon="10.745165402307087"><ele>165.0</ele><time>2026-04-18T07:27:10Z</time></trkpt><trkpt lat="43.529436365456846" lon="10.745194948934147"><ele>165.0</ele><time>2026-04-18T07:27:12Z</time></trkpt><trkpt lat="43.529526491307905" lon="10.745249195846892"><ele>165.0</ele><time>2026-04-18T07:27:14Z</time></trkpt><trkpt lat="43.52960343468625" lon="10.74528988760241"><ele>165.0</ele><time>2026-04-18T07:27:15Z</time></trkpt><trkpt lat="43.529691413387866" lon="10.745298491930976"><ele>163.0</ele><time>2026-04-18T07:27:16Z</time></trkpt><trkpt lat="43.52978636350565" lon="10.745323138720014"><ele>161.0</ele><time>2026-04-18T07:27:18Z</time></trkpt><trkpt lat="43.52992614636457" lon="10.745287758474236"><ele>159.0</ele><time>2026-04-18T07:27:20Z</time></trkpt><trkpt lat="43.53003443626109" lon="10.745227876662018"><ele>157.0</ele><time>2026-04-18T07:27:21Z</time></trkpt><trkpt lat="43.53013975159947" lon="10.745154965739703"><ele>156.75</ele><time>2026-04-18T07:27:22Z</time></trkpt><trkpt lat="43.530253630207966" lon="10.74504863679057"><ele>156.5</ele><time>2026-04-18T07:27:23Z</time></trkpt><trkpt lat="43.53035157381372" lon="10.74492857450835"><ele>156.25</ele><time>2026-04-18T07:27:24Z</time></trkpt><trkpt lat="43.53041855356807" lon="10.74482250178239"><ele>156.0</ele><time>2026-04-18T07:27:25Z</time></trkpt><trkpt lat="43.530519288820756" lon="10.744763943298233"><ele>156.0</ele><time>2026-04-18T07:27:26Z</time></trkpt><trkpt lat="43.53063951084185" lon="10.7447568028729"><ele>156.0</ele><time>2026-04-18T07:27:27Z</time></trkpt><trkpt lat="43.53075468261286" lon="10.744699800306256"><ele>156.0</ele><time>2026-04-18T07:27:28Z</time></trkpt><trkpt lat="43.53083442660343" lon="10.7446061902087"><ele>156.0</ele><time>2026-04-18T07:27:29Z</time></trkpt><trkpt lat="43.53090350195526" lon="10.744492978429484"><ele>156.0</ele><time>2026-04-18T07:27:30Z</time></trkpt><trkpt lat="43.53093686863859" lon="10.744361201239442"><ele>156.0</ele><time>2026-04-18T07:27:31Z</time></trkpt><trkpt lat="43.53095022084918" lon="10.744219749665668"><ele>156.0</ele><time>2026-04-18T07:27:32Z</time></trkpt><trkpt lat="43.530969920574805" lon="10.744053441545672"><ele>156.0</ele><time>2026-04-18T07:27:33Z</time></trkpt><trkpt lat="43.53098025811044" lon="10.743874786518887"><ele>156.0</ele><time>2026-04-18T07:27:34Z</time></trkpt><trkpt lat="43.53096052971468" lon="10.743696498587719"><ele>156.0</ele><time>2026-04-18T07:27:35Z</time></trkpt><trkpt lat="43.53091751157857" lon="10.743517388676887"><ele>156.0</ele><time>2026-04-18T07:27:36Z</time></trkpt><trkpt lat="43.5308942992385" lon="10.743331759396906"><ele>156.0</ele><time>2026-04-18T07:27:37Z</time></trkpt><trkpt lat="43.53086629823956" lon="10.743170157887718"><ele>157.0</ele><time>2026-04-18T07:27:38Z</time></trkpt><trkpt lat="43.530849446932464" lon="10.74303339331285"><ele>158.0</ele><time>2026-04-18T07:27:39Z</time></trkpt><trkpt lat="43.530848850760115" lon="10.742905692276388"><ele>159.0</ele><time>2026-04-18T07:27:40Z</time></trkpt><trkpt lat="43.53087770979618" lon="10.742796808116957"><ele>160.0</ele><time>2026-04-18T07:27:41Z</time></trkpt><trkpt lat="43.53090637942943" lon="10.742693018665584"><ele>161.0</ele><time>2026-04-18T07:27:42Z</time></trkpt><trkpt lat="43.53094401739047" lon="10.742588604314694"><ele>162.0</ele><time>2026-04-18T07:27:43Z</time></trkpt><trkpt lat="43.530975649326315" lon="10.742499065019755"><ele>163.0</ele><time>2026-04-18T07:27:44Z</time></trkpt><trkpt lat="43.53090416224624" lon="10.74232211444073"><ele>164.0</ele><time>2026-04-18T07:27:45Z</time></trkpt><trkpt lat="43.53086523593546" lon="10.742163524328728"><ele>165.0</ele><time>2026-04-18T07:27:46Z</time></trkpt><trkpt lat="43.53080862462607" lon="10.741991124638831"><ele>166.0</ele><time>2026-04-18T07:27:47Z</time></trkpt><trkpt lat="43.53077695637425" lon="10.741824141678398"><ele>166.5</ele><time>2026-04-18T07:27:48Z</time></trkpt><trkpt lat="43.53074106408237" lon="10.741674664731933"><ele>167.0</ele><time>2026-04-18T07:27:49Z</time></trkpt><trkpt lat="43.53071994935056" lon="10.7415541187631"><ele>167.5</ele><time>2026-04-18T07:27:50Z</time></trkpt><trkpt lat="43.530694794407594" lon="10.741469943489415"><ele>168.0</ele><time>2026-04-18T07:27:51Z</time></trkpt><trkpt lat="43.53071379117485" lon="10.74137458637899"><ele>168.5</ele><time>2026-04-18T07:27:52Z</time></trkpt><trkpt lat="43.53073967652341" lon="10.741258572000618"><ele>169.0</ele><time>2026-04-18T07:27:53Z</time></trkpt><trkpt lat="43.53084054297689" lon="10.74116100006103"><ele>168.75</ele><time>2026-04-18T07:27:54Z</time></trkpt><trkpt lat="43.53090435136753" lon="10.74100158722003"><ele>168.5</ele><time>2026-04-18T07:27:55Z</time></trkpt><trkpt lat="43.53094614527805" lon="10.740876909322292"><ele>168.25</ele><time>2026-04-18T07:27:56Z</time></trkpt><trkpt lat="43.53097344332752" lon="10.74072826014056"><ele>168.0</ele><time>2026-04-18T07:27:57Z</time></trkpt><trkpt lat="43.53100330625795" lon="10.74057463805259"><ele>168.0</ele><time>2026-04-18T07:27:58Z</time></trkpt><trkpt lat="43.53104173572479" lon="10.740428783243402"><ele>168.0</ele><time>2026-04-18T07:27:59Z</time></trkpt><trkpt lat="43.53107734029144" lon="10.740283570314775"><ele>168.0</ele><time>2026-04-18T07:28:00Z</time></trkpt><trkpt lat="43.531111814328035" lon="10.74015758350167"><ele>168.0</ele><time>2026-04-18T07:28:01Z</time></trkpt><trkpt lat="43.531141443840184" lon="10.740039390679014"><ele>168.0</ele><time>2026-04-18T07:28:02Z</time></trkpt><trkpt lat="43.53119572582812" lon="10.739920913347223"><ele>164.6</ele><time>2026-04-18T07:28:03Z</time></trkpt><trkpt lat="43.53122671284648" lon="10.739835239991212"><ele>161.20000000000002</ele><time>2026-04-18T07:28:04Z</time></trkpt><trkpt lat="43.53127005282254" lon="10.739746113580154"><ele>157.8</ele><time>2026-04-18T07:28:05Z</time></trkpt><trkpt lat="43.53133790835717" lon="10.739632222365369"><ele>154.4</ele><time>2026-04-18T07:28:06Z</time></trkpt><trkpt lat="43.53141677456214" lon="10.739532053425243"><ele>151.0</ele><time>2026-04-18T07:28:07Z</time></trkpt><trkpt lat="43.53149448862886" lon="10.739436835602511"><ele>152.75</ele><time>2026-04-18T07:28:08Z</time></trkpt><trkpt lat="43.5315812604909" lon="10.739338406186095"><ele>154.5</ele><time>2026-04-18T07:28:09Z</time></trkpt><trkpt lat="43.53168471407054" lon="10.739228054098275"><ele>156.25</ele><time>2026-04-18T07:28:10Z</time></trkpt><trkpt lat="43.53178831130627" lon="10.739121455368043"><ele>158.0</ele><time>2026-04-18T07:28:11Z</time></trkpt><trkpt lat="43.53188809340674" lon="10.739022495732215"><ele>158.0</ele><time>2026-04-18T07:28:12Z</time></trkpt><trkpt lat="43.53199100970399" lon="10.738931462985995"><ele>158.0</ele><time>2026-04-18T07:28:13Z</time></trkpt><trkpt lat="43.532106635501115" lon="10.738839623803994"><ele>158.0</ele><time>2026-04-18T07:28:14Z</time></trkpt><trkpt lat="43.532214439039464" lon="10.73876101462239"><ele>158.0</ele><time>2026-04-18T07:28:15Z</time></trkpt><trkpt lat="43.53232742218652" lon="10.73869361544575"><ele>156.5</ele><time>2026-04-18T07:28:16Z</time></trkpt><trkpt lat="43.53245290767062" lon="10.738606053277024"><ele>155.0</ele><time>2026-04-18T07:28:17Z</time></trkpt><trkpt lat="43.532574048989744" lon="10.738517592640806"><ele>153.5</ele><time>2026-04-18T07:28:18Z</time></trkpt><trkpt lat="43.53269685043337" lon="10.738428659986226"><ele>152.0</ele><time>2026-04-18T07:28:19Z</time></trkpt><trkpt lat="43.53282788527753" lon="10.738333831060697"><ele>151.0</ele><time>2026-04-18T07:28:20Z</time></trkpt><trkpt lat="43.53294134147556" lon="10.73820951733211"><ele>150.0</ele><time>2026-04-18T07:28:21Z</time></trkpt><trkpt lat="43.53305398430872" lon="10.738096189723944"><ele>149.0</ele><time>2026-04-18T07:28:22Z</time></trkpt><trkpt lat="43.53316832306252" lon="10.73799739019265"><ele>148.0</ele><time>2026-04-18T07:28:23Z</time></trkpt><trkpt lat="43.53326879696012" lon="10.737892225163133"><ele>148.0</ele><time>2026-04-18T07:28:24Z</time></trkpt><trkpt lat="43.53336773202045" lon="10.737799035544539"><ele>148.0</ele><time>2026-04-18T07:28:25Z</time></trkpt><trkpt lat="43.53346345451719" lon="10.73772889784162"><ele>148.0</ele><time>2026-04-18T07:28:26Z</time></trkpt><trkpt lat="43.53357163027313" lon="10.737684917435319"><ele>148.0</ele><time>2026-04-18T07:28:27Z</time></trkpt><trkpt lat="43.533673409038464" lon="10.73762601574096"><ele>147.0</ele><time>2026-04-18T07:28:28Z</time></trkpt><trkpt lat="43.533792811266316" lon="10.737590928020198"><ele>146.0</ele><time>2026-04-18T07:28:29Z</time></trkpt><trkpt lat="43.53390888248079" lon="10.73753992232109"><ele>145.0</ele><time>2026-04-18T07:28:30Z</time></trkpt><trkpt lat="43.53400363949388" lon="10.737479286665703"><ele>144.0</ele><time>2026-04-18T07:28:31Z</time></trkpt><trkpt lat="43.534151362165645" lon="10.73742517389941"><ele>144.0</ele><time>2026-04-18T07:28:32Z</time></trkpt><trkpt lat="43.534281663393195" lon="10.737359010555457"><ele>144.0</ele><time>2026-04-18T07:28:33Z</time></trkpt><trkpt lat="43.534403524094564" lon="10.737273484989972"><ele>144.0</ele><time>2026-04-18T07:28:34Z</time></trkpt><trkpt lat="43.534548113899895" lon="10.737211605299974"><ele>144.0</ele><time>2026-04-18T07:28:35Z</time></trkpt><trkpt lat="43.53468708876839" lon="10.737145213263341"><ele>142.75</ele><time>2026-04-18T07:28:36Z</time></trkpt><trkpt lat="43.53482092317038" lon="10.737078537629214"><ele>141.5</ele><time>2026-04-18T07:28:37Z</time></trkpt><trkpt lat="43.53494889030144" lon="10.736971315604906"><ele>140.25</ele><time>2026-04-18T07:28:38Z</time></trkpt><trkpt lat="43.53507889456463" lon="10.73685954441187"><ele>139.0</ele><time>2026-04-18T07:28:39Z</time></trkpt><trkpt lat="43.53523237919963" lon="10.736744582513845"><ele>138.75</ele><time>2026-04-18T07:28:40Z</time></trkpt><trkpt lat="43.535366474545356" lon="10.736616755544437"><ele>138.5</ele><time>2026-04-18T07:28:41Z</time></trkpt><trkpt lat="43.53548354805034" lon="10.73650582346029"><ele>138.25</ele><time>2026-04-18T07:28:42Z</time></trkpt><trkpt lat="43.53559049722052" lon="10.736380064006827"><ele>138.0</ele><time>2026-04-18T07:28:43Z</time></trkpt><trkpt lat="43.535707469135346" lon="10.736302170566612"><ele>137.5</ele><time>2026-04-18T07:28:44Z</time></trkpt><trkpt lat="43.53582465311309" lon="10.736196691669466"><ele>137.0</ele><time>2026-04-18T07:28:45Z</time></trkpt><trkpt lat="43.535926883656" lon="10.736075723701735"><ele>136.5</ele><time>2026-04-18T07:28:46Z</time></trkpt><trkpt lat="43.536036525505736" lon="10.735979231116389"><ele>136.0</ele><time>2026-04-18T07:28:47Z</time></trkpt><trkpt lat="43.5361417992756" lon="10.735874961496162"><ele>134.0</ele><time>2026-04-18T07:28:48Z</time></trkpt><trkpt lat="43.53624616913036" lon="10.735780134505944"><ele>132.0</ele><time>2026-04-18T07:28:49Z</time></trkpt><trkpt lat="43.53634802673686" lon="10.735682477723868"><ele>130.0</ele><time>2026-04-18T07:28:50Z</time></trkpt><trkpt lat="43.53643166689028" lon="10.735625377129846"><ele>128.0</ele><time>2026-04-18T07:28:51Z</time></trkpt><trkpt lat="43.53649727588805" lon="10.735565661085621"><ele>126.0</ele><time>2026-04-18T07:28:52Z</time></trkpt><trkpt lat="43.536573538157114" lon="10.73549677751078"><ele>126.0</ele><time>2026-04-18T07:28:53Z</time></trkpt><trkpt lat="43.53665233785598" lon="10.735424459970028"><ele>126.0</ele><time>2026-04-18T07:28:54Z</time></trkpt><trkpt lat="43.53674127798854" lon="10.735338466169797"><ele>126.0</ele><time>2026-04-18T07:28:55Z</time></trkpt><trkpt lat="43.53681363923946" lon="10.735256878798273"><ele>126.0</ele><time>2026-04-18T07:28:56Z</time></trkpt><trkpt lat="43.53688359095235" lon="10.735182796941869"><ele>126.0</ele><time>2026-04-18T07:28:57Z</time></trkpt><trkpt lat="43.53696256054863" lon="10.735111312763921"><ele>125.19999999999999</ele><time>2026-04-18T07:28:58Z</time></trkpt><trkpt lat="43.53705524146349" lon="10.735015900376133"><ele>124.39999999999999</ele><time>2026-04-18T07:28:59Z</time></trkpt><trkpt lat="43.537147040207934" lon="10.734948600999763"><ele>123.6</ele><time>2026-04-18T07:29:00Z</time></trkpt><trkpt lat="43.537227551498674" lon="10.73485219932711"><ele>122.8</ele><time>2026-04-18T07:29:01Z</time></trkpt><trkpt lat="43.53730045417904" lon="10.73477125517075"><ele>122.0</ele><time>2026-04-18T07:29:02Z</time></trkpt><trkpt lat="43.53738336659984" lon="10.73470058911921"><ele>122.0</ele><time>2026-04-18T07:29:03Z</time></trkpt><trkpt lat="43.537454348421456" lon="10.734621633550503"><ele>121.99999999999999</ele><time>2026-04-18T07:29:04Z</time></trkpt><trkpt lat="43.537541819710384" lon="10.734524032458427"><ele>121.99999999999999</ele><time>2026-04-18T07:29:05Z</time></trkpt><trkpt lat="43.53763111106737" lon="10.7344399617648"><ele>122.0</ele><time>2026-04-18T07:29:06Z</time></trkpt><trkpt lat="43.53769643274685" lon="10.734343116280895"><ele>122.0</ele><time>2026-04-18T07:29:07Z</time></trkpt><trkpt lat="43.53772857695853" lon="10.73422316529074"><ele>120.19999999999999</ele><time>2026-04-18T07:29:08Z</time></trkpt><trkpt lat="43.53776620648544" lon="10.734105441292984"><ele>118.39999999999999</ele><time>2026-04-18T07:29:09Z</time></trkpt><trkpt lat="43.53778316015359" lon="10.733980344734706"><ele>116.60000000000001</ele><time>2026-04-18T07:29:10Z</time></trkpt><trkpt lat="43.53780315999337" lon="10.73381704056573"><ele>114.80000000000001</ele><time>2026-04-18T07:29:11Z</time></trkpt><trkpt lat="43.537838303356416" lon="10.733634530004082"><ele>113.0</ele><time>2026-04-18T07:29:12Z</time></trkpt><trkpt lat="43.53782640762713" lon="10.733448529922121"><ele>111.0</ele><time>2026-04-18T07:29:13Z</time></trkpt><trkpt lat="43.53781131607333" lon="10.733293157456881"><ele>109.0</ele><time>2026-04-18T07:29:14Z</time></trkpt><trkpt lat="43.53778200015139" lon="10.733127478825065"><ele>107.0</ele><time>2026-04-18T07:29:15Z</time></trkpt><trkpt lat="43.53775636481226" lon="10.732959390932246"><ele>105.0</ele><time>2026-04-18T07:29:16Z</time></trkpt><trkpt lat="43.53774376201099" lon="10.73279468646343"><ele>103.5</ele><time>2026-04-18T07:29:17Z</time></trkpt><trkpt lat="43.5377456959681" lon="10.732630606834974"><ele>102.0</ele><time>2026-04-18T07:29:18Z</time></trkpt><trkpt lat="43.5377499814825" lon="10.73247873106751"><ele>100.5</ele><time>2026-04-18T07:29:19Z</time></trkpt><trkpt lat="43.53776791592" lon="10.73232120767128"><ele>99.0</ele><time>2026-04-18T07:29:20Z</time></trkpt><trkpt lat="43.53779896877695" lon="10.732170868208367"><ele>99.0</ele><time>2026-04-18T07:29:21Z</time></trkpt><trkpt lat="43.537863177274296" lon="10.732058714660052"><ele>99.0</ele><time>2026-04-18T07:29:22Z</time></trkpt><trkpt lat="43.53791568265424" lon="10.731912090649397"><ele>99.0</ele><time>2026-04-18T07:29:23Z</time></trkpt><trkpt lat="43.5380017153346" lon="10.73179530138843"><ele>99.0</ele><time>2026-04-18T07:29:24Z</time></trkpt><trkpt lat="43.53807760639147" lon="10.731688010427703"><ele>100.0</ele><time>2026-04-18T07:29:25Z</time></trkpt><trkpt lat="43.53814957136009" lon="10.73161728050433"><ele>101.0</ele><time>2026-04-18T07:29:26Z</time></trkpt><trkpt lat="43.53825294002734" lon="10.73155572961685"><ele>102.0</ele><time>2026-04-18T07:29:27Z</time></trkpt><trkpt lat="43.53837236903056" lon="10.73148324083091"><ele>103.0</ele><time>2026-04-18T07:29:28Z</time></trkpt><trkpt lat="43.538490620868316" lon="10.731397913482471"><ele>103.0</ele><time>2026-04-18T07:29:29Z</time></trkpt><trkpt lat="43.53858298349834" lon="10.731304313009325"><ele>103.0</ele><time>2026-04-18T07:29:30Z</time></trkpt><trkpt lat="43.53868145327054" lon="10.731240848796935"><ele>103.0</ele><time>2026-04-18T07:29:31Z</time></trkpt><trkpt lat="43.538785482625464" lon="10.731154513749193"><ele>103.0</ele><time>2026-04-18T07:29:32Z</time></trkpt><trkpt lat="43.53888512429473" lon="10.73107241259349"><ele>100.25</ele><time>2026-04-18T07:29:33Z</time></trkpt><trkpt lat="43.53897333001801" lon="10.730987396122837"><ele>97.5</ele><time>2026-04-18T07:29:34Z</time></trkpt><trkpt lat="43.53905963553968" lon="10.730889005401929"><ele>94.75</ele><time>2026-04-18T07:29:35Z</time></trkpt><trkpt lat="43.539152864686166" lon="10.730770523811481"><ele>92.0</ele><time>2026-04-18T07:29:36Z</time></trkpt><trkpt lat="43.53923912819231" lon="10.730633263567258"><ele>92.0</ele><time>2026-04-18T07:29:37Z</time></trkpt><trkpt lat="43.53931133817632" lon="10.730498717516594"><ele>92.0</ele><time>2026-04-18T07:29:38Z</time></trkpt><trkpt lat="43.53937070221414" lon="10.730380776810204"><ele>92.0</ele><time>2026-04-18T07:29:39Z</time></trkpt><trkpt lat="43.53943306649799" lon="10.730265400676533"><ele>92.0</ele><time>2026-04-18T07:29:40Z</time></trkpt><trkpt lat="43.5394981443151" lon="10.730154954768198"><ele>92.0</ele><time>2026-04-18T07:29:41Z</time></trkpt><trkpt lat="43.53955316060311" lon="10.730068065381454"><ele>88.5</ele><time>2026-04-18T07:29:42Z</time></trkpt><trkpt lat="43.53963898314035" lon="10.729979459401399"><ele>85.0</ele><time>2026-04-18T07:29:43Z</time></trkpt><trkpt lat="43.539736198580286" lon="10.729884146264482"><ele>81.5</ele><time>2026-04-18T07:29:44Z</time></trkpt><trkpt lat="43.53983216906384" lon="10.729794086769603"><ele>78.0</ele><time>2026-04-18T07:29:45Z</time></trkpt><trkpt lat="43.53994289270106" lon="10.729744473587571"><ele>78.0</ele><time>2026-04-18T07:29:46Z</time></trkpt><trkpt lat="43.54005015760521" lon="10.729687223982895"><ele>78.0</ele><time>2026-04-18T07:29:47Z</time></trkpt><trkpt lat="43.54015183766278" lon="10.72962415152371"><ele>78.0</ele><time>2026-04-18T07:29:48Z</time></trkpt><trkpt lat="43.540256665879866" lon="10.729576682186222"><ele>78.0</ele><time>2026-04-18T07:29:49Z</time></trkpt><trkpt lat="43.54036019257572" lon="10.729536467113016"><ele>78.0</ele><time>2026-04-18T07:29:50Z</time></trkpt><trkpt lat="43.54045203729036" lon="10.729519857607858"><ele>78.0</ele><time>2026-04-18T07:29:51Z</time></trkpt><trkpt lat="43.54054324825677" lon="10.72950413158272"><ele>78.0</ele><time>2026-04-18T07:29:52Z</time></trkpt><trkpt lat="43.540626480809706" lon="10.729487144449683"><ele>78.0</ele><time>2026-04-18T07:29:53Z</time></trkpt><trkpt lat="43.54069684829494" lon="10.72946820206649"><ele>78.0</ele><time>2026-04-18T07:29:54Z</time></trkpt><trkpt lat="43.54076590758646" lon="10.729435062171277"><ele>78.0</ele><time>2026-04-18T07:29:55Z</time></trkpt><trkpt lat="43.54082811912858" lon="10.729354203574315"><ele>78.0</ele><time>2026-04-18T07:29:56Z</time></trkpt><trkpt lat="43.540875255530175" lon="10.729244224181237"><ele>76.0</ele><time>2026-04-18T07:29:57Z</time></trkpt><trkpt lat="43.54092044426736" lon="10.729131411195318"><ele>74.0</ele><time>2026-04-18T07:29:58Z</time></trkpt><trkpt lat="43.540947433507206" lon="10.729008596025684"><ele>72.0</ele><time>2026-04-18T07:29:59Z</time></trkpt><trkpt lat="43.54099645287943" lon="10.728874833428245"><ele>70.0</ele><time>2026-04-18T07:30:00Z</time></trkpt><trkpt lat="43.541034438782184" lon="10.72873777252375"><ele>68.0</ele><time>2026-04-18T07:30:01Z</time></trkpt><trkpt lat="43.541081115791656" lon="10.728615905053168"><ele>66.25</ele><time>2026-04-18T07:30:02Z</time></trkpt><trkpt lat="43.54112102145775" lon="10.728458868332234"><ele>64.5</ele><time>2026-04-18T07:30:03Z</time></trkpt><trkpt lat="43.541177268217275" lon="10.728283128271288"><ele>62.75</ele><time>2026-04-18T07:30:04Z</time></trkpt><trkpt lat="43.54123029950777" lon="10.72812150968248"><ele>61.0</ele><time>2026-04-18T07:30:05Z</time></trkpt><trkpt lat="43.54127800735848" lon="10.727985368647026"><ele>60.5</ele><time>2026-04-18T07:30:06Z</time></trkpt><trkpt lat="43.54132268966254" lon="10.7278488655501"><ele>60.0</ele><time>2026-04-18T07:30:07Z</time></trkpt><trkpt lat="43.54134911556597" lon="10.727691260134621"><ele>59.5</ele><time>2026-04-18T07:30:08Z</time></trkpt><trkpt lat="43.54137074117129" lon="10.727528414697387"><ele>59.0</ele><time>2026-04-18T07:30:09Z</time></trkpt><trkpt lat="43.541399378792164" lon="10.727354677796402"><ele>59.0</ele><time>2026-04-18T07:30:10Z</time></trkpt><trkpt lat="43.541451942952946" lon="10.727204249063833"><ele>59.0</ele><time>2026-04-18T07:30:11Z</time></trkpt><trkpt lat="43.5415304876063" lon="10.727065933418366"><ele>59.0</ele><time>2026-04-18T07:30:12Z</time></trkpt><trkpt lat="43.54161759505487" lon="10.726938616535142"><ele>59.0</ele><time>2026-04-18T07:30:13Z</time></trkpt><trkpt lat="43.54170597664568" lon="10.72681728912458"><ele>59.0</ele><time>2026-04-18T07:30:14Z</time></trkpt><trkpt lat="43.54178762803984" lon="10.726694418098685"><ele>59.0</ele><time>2026-04-18T07:30:15Z</time></trkpt><trkpt lat="43.5418753531737" lon="10.726556127327312"><ele>59.0</ele><time>2026-04-18T07:30:16Z</time></trkpt><trkpt lat="43.54197087070172" lon="10.726406033191441"><ele>59.0</ele><time>2026-04-18T07:30:17Z</time></trkpt><trkpt lat="43.54206147747535" lon="10.726256977093682"><ele>59.0</ele><time>2026-04-18T07:30:18Z</time></trkpt><trkpt lat="43.54215913192583" lon="10.726105956388269"><ele>59.0</ele><time>2026-04-18T07:30:19Z</time></trkpt><trkpt lat="43.54226020161419" lon="10.725985390738744"><ele>59.0</ele><time>2026-04-18T07:30:20Z</time></trkpt><trkpt lat="43.54241368863058" lon="10.725751429386092"><ele>60.400000000000006</ele><time>2026-04-18T07:30:22Z</time></trkpt><trkpt lat="43.54247290400389" lon="10.725680505342247"><ele>61.800000000000004</ele><time>2026-04-18T07:30:23Z</time></trkpt><trkpt lat="43.54254728279459" lon="10.725606300974437"><ele>63.199999999999996</ele><time>2026-04-18T07:30:25Z</time></trkpt><trkpt lat="43.542665919309705" lon="10.725701919085086"><ele>64.6</ele><time>2026-04-18T07:30:26Z</time></trkpt><trkpt lat="43.54275947328623" lon="10.725686598150522"><ele>66.0</ele><time>2026-04-18T07:30:27Z</time></trkpt><trkpt lat="43.542842285756926" lon="10.725592350784286"><ele>69.0</ele><time>2026-04-18T07:30:28Z</time></trkpt><trkpt lat="43.542898960635306" lon="10.72546304552834"><ele>72.0</ele><time>2026-04-18T07:30:29Z</time></trkpt><trkpt lat="43.542920010662286" lon="10.72532032750268"><ele>75.0</ele><time>2026-04-18T07:30:30Z</time></trkpt><trkpt lat="43.54293864071909" lon="10.725186702711659"><ele>78.0</ele><time>2026-04-18T07:30:31Z</time></trkpt><trkpt lat="43.54295458894589" lon="10.725061212820215"><ele>81.0</ele><time>2026-04-18T07:30:32Z</time></trkpt><trkpt lat="43.54297030439855" lon="10.72493023140411"><ele>83.8</ele><time>2026-04-18T07:30:33Z</time></trkpt><trkpt lat="43.54299215266501" lon="10.724793155681722"><ele>86.6</ele><time>2026-04-18T07:30:34Z</time></trkpt><trkpt lat="43.54302296609394" lon="10.72466489250438"><ele>89.4</ele><time>2026-04-18T07:30:35Z</time></trkpt><trkpt lat="43.54309307998798" lon="10.724522625003155"><ele>92.2</ele><time>2026-04-18T07:30:37Z</time></trkpt><trkpt lat="43.54315362092893" lon="10.724498812041457"><ele>95.0</ele><time>2026-04-18T07:30:38Z</time></trkpt><trkpt lat="43.543331515306974" lon="10.724408117177136"><ele>95.6</ele><time>2026-04-18T07:30:40Z</time></trkpt><trkpt lat="43.54341879182635" lon="10.724358325675006"><ele>96.2</ele><time>2026-04-18T07:30:41Z</time></trkpt><trkpt lat="43.543487456690485" lon="10.724259555235177"><ele>96.80000000000001</ele><time>2026-04-18T07:30:42Z</time></trkpt><trkpt lat="43.543503663890334" lon="10.724112992514195"><ele>97.4</ele><time>2026-04-18T07:30:43Z</time></trkpt><trkpt lat="43.54355324464038" lon="10.723996491057125"><ele>98.0</ele><time>2026-04-18T07:30:44Z</time></trkpt><trkpt lat="43.543605645182815" lon="10.72388357626889"><ele>98.0</ele><time>2026-04-18T07:30:45Z</time></trkpt><trkpt lat="43.54367869218754" lon="10.723781400538059"><ele>98.0</ele><time>2026-04-18T07:30:46Z</time></trkpt><trkpt lat="43.543760900208135" lon="10.723681999438744"><ele>98.0</ele><time>2026-04-18T07:30:47Z</time></trkpt><trkpt lat="43.54384390496445" lon="10.72357261226215"><ele>98.0</ele><time>2026-04-18T07:30:48Z</time></trkpt><trkpt lat="43.543917744265364" lon="10.723435229379733"><ele>101.80000000000001</ele><time>2026-04-18T07:30:49Z</time></trkpt><trkpt lat="43.54399205774497" lon="10.723304841590394"><ele>105.6</ele><time>2026-04-18T07:30:50Z</time></trkpt><trkpt lat="43.54403936987509" lon="10.723180057982018"><ele>109.39999999999999</ele><time>2026-04-18T07:30:51Z</time></trkpt><trkpt lat="43.544071114738244" lon="10.723052003464785"><ele>113.19999999999999</ele><time>2026-04-18T07:30:52Z</time></trkpt><trkpt lat="43.54410053008982" lon="10.722905648971903"><ele>117.0</ele><time>2026-04-18T07:30:53Z</time></trkpt><trkpt lat="43.54415262614645" lon="10.722722069968308"><ele>118.66666666666666</ele><time>2026-04-18T07:30:54Z</time></trkpt><trkpt lat="43.54424206363598" lon="10.72254811216278"><ele>120.33333333333333</ele><time>2026-04-18T07:30:55Z</time></trkpt><trkpt lat="43.54431485011016" lon="10.722357970360957"><ele>122.0</ele><time>2026-04-18T07:30:56Z</time></trkpt><trkpt lat="43.544404200861926" lon="10.722186977186716"><ele>122.0</ele><time>2026-04-18T07:30:57Z</time></trkpt><trkpt lat="43.54448766587283" lon="10.722048585963805"><ele>122.0</ele><time>2026-04-18T07:30:58Z</time></trkpt><trkpt lat="43.544562998411955" lon="10.72194048761265"><ele>122.0</ele><time>2026-04-18T07:30:59Z</time></trkpt><trkpt lat="43.5446584974525" lon="10.721822556616365"><ele>122.0</ele><time>2026-04-18T07:31:00Z</time></trkpt><trkpt lat="43.544766946455674" lon="10.721729616800005"><ele>121.5</ele><time>2026-04-18T07:31:01Z</time></trkpt><trkpt lat="43.54486482439541" lon="10.721648051653409"><ele>121.0</ele><time>2026-04-18T07:31:02Z</time></trkpt><trkpt lat="43.54495879084656" lon="10.721586175950677"><ele>120.5</ele><time>2026-04-18T07:31:03Z</time></trkpt><trkpt lat="43.54507906338602" lon="10.721542232468096"><ele>120.0</ele><time>2026-04-18T07:31:04Z</time></trkpt><trkpt lat="43.54519373128711" lon="10.721495589627311"><ele>120.0</ele><time>2026-04-18T07:31:05Z</time></trkpt><trkpt lat="43.54531124319225" lon="10.72144050439268"><ele>120.0</ele><time>2026-04-18T07:31:06Z</time></trkpt><trkpt lat="43.54542671817688" lon="10.721375428067413"><ele>120.0</ele><time>2026-04-18T07:31:07Z</time></trkpt><trkpt lat="43.545530028710466" lon="10.721312861232198"><ele>120.0</ele><time>2026-04-18T07:31:08Z</time></trkpt><trkpt lat="43.54562553190418" lon="10.721268486533672"><ele>119.4</ele><time>2026-04-18T07:31:09Z</time></trkpt><trkpt lat="43.54570397081595" lon="10.721230263035743"><ele>118.8</ele><time>2026-04-18T07:31:10Z</time></trkpt><trkpt lat="43.54576788433835" lon="10.721189482848226"><ele>118.19999999999999</ele><time>2026-04-18T07:31:11Z</time></trkpt><trkpt lat="43.54581448679012" lon="10.721082501932312"><ele>117.6</ele><time>2026-04-18T07:31:14Z</time></trkpt><trkpt lat="43.54568535115643" lon="10.720971624492856"><ele>117.0</ele><time>2026-04-18T07:31:15Z</time></trkpt><trkpt lat="43.54560414118181" lon="10.720891047605605"><ele>117.8</ele><time>2026-04-18T07:31:16Z</time></trkpt><trkpt lat="43.545506114339155" lon="10.720809887357538"><ele>118.6</ele><time>2026-04-18T07:31:17Z</time></trkpt><trkpt lat="43.54540632604015" lon="10.720756869163612"><ele>119.39999999999999</ele><time>2026-04-18T07:31:18Z</time></trkpt><trkpt lat="43.54530853925055" lon="10.720737907512044"><ele>120.19999999999999</ele><time>2026-04-18T07:31:19Z</time></trkpt><trkpt lat="43.545225548911674" lon="10.72072346109724"><ele>121.0</ele><time>2026-04-18T07:31:20Z</time></trkpt><trkpt lat="43.545158264799376" lon="10.720670445791642"><ele>121.00000000000001</ele><time>2026-04-18T07:31:21Z</time></trkpt><trkpt lat="43.54508820580998" lon="10.720637038598571"><ele>121.0</ele><time>2026-04-18T07:31:22Z</time></trkpt><trkpt lat="43.54502990164416" lon="10.720596409785623"><ele>121.0</ele><time>2026-04-18T07:31:23Z</time></trkpt><trkpt lat="43.545001086646124" lon="10.720502901285046"><ele>121.0</ele><time>2026-04-18T07:31:24Z</time></trkpt><trkpt lat="43.54502537020258" lon="10.720404309336736"><ele>121.00000000000001</ele><time>2026-04-18T07:31:25Z</time></trkpt><trkpt lat="43.545067708479706" lon="10.720292040731026"><ele>121.0</ele><time>2026-04-18T07:31:26Z</time></trkpt><trkpt lat="43.5451288652929" lon="10.720180180370345"><ele>120.66666666666667</ele><time>2026-04-18T07:31:27Z</time></trkpt><trkpt lat="43.54520124811858" lon="10.720089632503651"><ele>120.33333333333334</ele><time>2026-04-18T07:31:28Z</time></trkpt><trkpt lat="43.54526969600845" lon="10.720012501344327"><ele>120.0</ele><time>2026-04-18T07:31:29Z</time></trkpt><trkpt lat="43.545328164805476" lon="10.719939875002318"><ele>119.66666666666666</ele><time>2026-04-18T07:31:30Z</time></trkpt><trkpt lat="43.54539488943729" lon="10.719865540208952"><ele>119.33333333333333</ele><time>2026-04-18T07:31:31Z</time></trkpt><trkpt lat="43.54547525717199" lon="10.719797867821816"><ele>119.0</ele><time>2026-04-18T07:31:32Z</time></trkpt><trkpt lat="43.54559367608246" lon="10.719749370433735"><ele>119.0</ele><time>2026-04-18T07:31:33Z</time></trkpt><trkpt lat="43.54572318630893" lon="10.719669628454973"><ele>119.0</ele><time>2026-04-18T07:31:34Z</time></trkpt><trkpt lat="43.54586096312312" lon="10.719607848380592"><ele>119.0</ele><time>2026-04-18T07:31:35Z</time></trkpt><trkpt lat="43.54600642429112" lon="10.719552330696025"><ele>119.0</ele><time>2026-04-18T07:31:36Z</time></trkpt><trkpt lat="43.546141712887035" lon="10.719495496396322"><ele>119.80000000000001</ele><time>2026-04-18T07:31:37Z</time></trkpt><trkpt lat="43.54626178223974" lon="10.71944951201765"><ele>120.60000000000001</ele><time>2026-04-18T07:31:38Z</time></trkpt><trkpt lat="43.54637592931872" lon="10.71940484642068"><ele>121.4</ele><time>2026-04-18T07:31:39Z</time></trkpt><trkpt lat="43.54648094107517" lon="10.719375087926695"><ele>122.2</ele><time>2026-04-18T07:31:40Z</time></trkpt><trkpt lat="43.54657329930833" lon="10.71936274949931"><ele>123.0</ele><time>2026-04-18T07:31:41Z</time></trkpt><trkpt lat="43.546679460733856" lon="10.719362269581252"><ele>119.75</ele><time>2026-04-18T07:31:42Z</time></trkpt><trkpt lat="43.54679882835151" lon="10.719363827634282"><ele>116.5</ele><time>2026-04-18T07:31:43Z</time></trkpt><trkpt lat="43.54692823098255" lon="10.719374107229362"><ele>113.25</ele><time>2026-04-18T07:31:44Z</time></trkpt><trkpt lat="43.54706369075525" lon="10.719369377133045"><ele>110.0</ele><time>2026-04-18T07:31:45Z</time></trkpt><trkpt lat="43.547205568149415" lon="10.71935536557864"><ele>109.5</ele><time>2026-04-18T07:31:46Z</time></trkpt><trkpt lat="43.54735578929546" lon="10.71933860429734"><ele>109.0</ele><time>2026-04-18T07:31:47Z</time></trkpt><trkpt lat="43.54749568004623" lon="10.719334199223518"><ele>108.5</ele><time>2026-04-18T07:31:48Z</time></trkpt><trkpt lat="43.5476349444222" lon="10.7193283357447"><ele>108.0</ele><time>2026-04-18T07:31:49Z</time></trkpt><trkpt lat="43.547772072276864" lon="10.71932443711042"><ele>109.5</ele><time>2026-04-18T07:31:50Z</time></trkpt><trkpt lat="43.54790362108023" lon="10.719313246243248"><ele>111.0</ele><time>2026-04-18T07:31:51Z</time></trkpt><trkpt lat="43.548038208561714" lon="10.719302959797535"><ele>112.5</ele><time>2026-04-18T07:31:52Z</time></trkpt><trkpt lat="43.548161635781945" lon="10.719300560792908"><ele>114.0</ele><time>2026-04-18T07:31:53Z</time></trkpt><trkpt lat="43.548300746373165" lon="10.719299106233965"><ele>114.0</ele><time>2026-04-18T07:31:54Z</time></trkpt><trkpt lat="43.548436600484436" lon="10.719291968911241"><ele>114.0</ele><time>2026-04-18T07:31:55Z</time></trkpt><trkpt lat="43.54857540774479" lon="10.719286302252952"><ele>114.0</ele><time>2026-04-18T07:31:56Z</time></trkpt><trkpt lat="43.548719640091136" lon="10.719286563293117"><ele>114.0</ele><time>2026-04-18T07:31:57Z</time></trkpt><trkpt lat="43.54886495331868" lon="10.719341185571924"><ele>114.5</ele><time>2026-04-18T07:31:58Z</time></trkpt><trkpt lat="43.54900822997775" lon="10.719391718248758"><ele>115.0</ele><time>2026-04-18T07:31:59Z</time></trkpt><trkpt lat="43.54913515679726" lon="10.719446054950117"><ele>115.5</ele><time>2026-04-18T07:32:00Z</time></trkpt><trkpt lat="43.54924554797539" lon="10.719521626992666"><ele>116.0</ele><time>2026-04-18T07:32:01Z</time></trkpt><trkpt lat="43.549329495352765" lon="10.719622227158835"><ele>117.75</ele><time>2026-04-18T07:32:02Z</time></trkpt><trkpt lat="43.54940677044394" lon="10.719748759137362"><ele>119.5</ele><time>2026-04-18T07:32:03Z</time></trkpt><trkpt lat="43.54948742778943" lon="10.719886393250507"><ele>121.25</ele><time>2026-04-18T07:32:04Z</time></trkpt><trkpt lat="43.5495590640862" lon="10.720014472539416"><ele>123.0</ele><time>2026-04-18T07:32:05Z</time></trkpt><trkpt lat="43.549642106087255" lon="10.720134445707268"><ele>124.25</ele><time>2026-04-18T07:32:06Z</time></trkpt><trkpt lat="43.54968948959533" lon="10.720277027405098"><ele>125.5</ele><time>2026-04-18T07:32:07Z</time></trkpt><trkpt lat="43.54968029704465" lon="10.720445657615198"><ele>126.75</ele><time>2026-04-18T07:32:08Z</time></trkpt><trkpt lat="43.54966850266542" lon="10.720611133532636"><ele>128.0</ele><time>2026-04-18T07:32:09Z</time></trkpt><trkpt lat="43.54966441073296" lon="10.720776533343537"><ele>128.0</ele><time>2026-04-18T07:32:10Z</time></trkpt><trkpt lat="43.54965996389391" lon="10.720929283070507"><ele>128.0</ele><time>2026-04-18T07:32:11Z</time></trkpt><trkpt lat="43.54965523000242" lon="10.721062683678973"><ele>128.0</ele><time>2026-04-18T07:32:12Z</time></trkpt><trkpt lat="43.54965158286067" lon="10.721166838741366"><ele>128.0</ele><time>2026-04-18T07:32:13Z</time></trkpt><trkpt lat="43.54960999135189" lon="10.721298436096472"><ele>128.0</ele><time>2026-04-18T07:32:15Z</time></trkpt><trkpt lat="43.54956645738598" lon="10.721388398365916"><ele>129.0</ele><time>2026-04-18T07:32:17Z</time></trkpt><trkpt lat="43.54956162753209" lon="10.721479016595309"><ele>130.0</ele><time>2026-04-18T07:32:18Z</time></trkpt><trkpt lat="43.549580422157746" lon="10.72158966350709"><ele>131.0</ele><time>2026-04-18T07:32:19Z</time></trkpt><trkpt lat="43.549622471887055" lon="10.721708444324443"><ele>132.0</ele><time>2026-04-18T07:32:20Z</time></trkpt><trkpt lat="43.54965579240964" lon="10.721837365053654"><ele>133.0</ele><time>2026-04-18T07:32:21Z</time></trkpt><trkpt lat="43.54969913514909" lon="10.721969049699661"><ele>134.0</ele><time>2026-04-18T07:32:22Z</time></trkpt><trkpt lat="43.5497397438456" lon="10.722092427697488"><ele>133.8</ele><time>2026-04-18T07:32:23Z</time></trkpt><trkpt lat="43.549794579551985" lon="10.722203560011682"><ele>133.60000000000002</ele><time>2026-04-18T07:32:24Z</time></trkpt><trkpt lat="43.54981236026377" lon="10.722341368927145"><ele>133.4</ele><time>2026-04-18T07:32:25Z</time></trkpt><trkpt lat="43.54985612559531" lon="10.722467935110313"><ele>133.20000000000002</ele><time>2026-04-18T07:32:26Z</time></trkpt><trkpt lat="43.54986447582492" lon="10.722614543801601"><ele>133.0</ele><time>2026-04-18T07:32:27Z</time></trkpt><trkpt lat="43.54985225247646" lon="10.722756872980206"><ele>133.0</ele><time>2026-04-18T07:32:28Z</time></trkpt><trkpt lat="43.54984656577439" lon="10.722887795917535"><ele>133.0</ele><time>2026-04-18T07:32:29Z</time></trkpt><trkpt lat="43.54987234439395" lon="10.723020161280605"><ele>133.0</ele><time>2026-04-18T07:32:30Z</time></trkpt><trkpt lat="43.54993481022367" lon="10.72317126661847"><ele>133.0</ele><time>2026-04-18T07:32:31Z</time></trkpt><trkpt lat="43.549975080796735" lon="10.723337363518965"><ele>133.0</ele><time>2026-04-18T07:32:32Z</time></trkpt><trkpt lat="43.54999941353508" lon="10.723512237260513"><ele>130.25</ele><time>2026-04-18T07:32:33Z</time></trkpt><trkpt lat="43.550013593524106" lon="10.72367097396117"><ele>127.5</ele><time>2026-04-18T07:32:34Z</time></trkpt><trkpt lat="43.55006768290566" lon="10.723814574901633"><ele>124.75</ele><time>2026-04-18T07:32:35Z</time></trkpt><trkpt lat="43.55012350050748" lon="10.723956356993279"><ele>122.0</ele><time>2026-04-18T07:32:36Z</time></trkpt><trkpt lat="43.550191677806055" lon="10.724079385538786"><ele>122.0</ele><time>2026-04-18T07:32:37Z</time></trkpt><trkpt lat="43.55027151479447" lon="10.724177471968348"><ele>121.99999999999999</ele><time>2026-04-18T07:32:38Z</time></trkpt><trkpt lat="43.550358293538736" lon="10.72424865978944"><ele>121.99999999999999</ele><time>2026-04-18T07:32:39Z</time></trkpt><trkpt lat="43.550460257944664" lon="10.724277825519906"><ele>122.0</ele><time>2026-04-18T07:32:40Z</time></trkpt><trkpt lat="43.55056954980755" lon="10.724305456991399"><ele>122.0</ele><time>2026-04-18T07:32:41Z</time></trkpt><trkpt lat="43.550703117335814" lon="10.724313943191886"><ele>123.0</ele><time>2026-04-18T07:32:42Z</time></trkpt><trkpt lat="43.55082989395765" lon="10.724323801926602"><ele>124.0</ele><time>2026-04-18T07:32:43Z</time></trkpt><trkpt lat="43.550966828703665" lon="10.724349103298001"><ele>125.0</ele><time>2026-04-18T07:32:44Z</time></trkpt><trkpt lat="43.5511213121218" lon="10.724400955749958"><ele>126.0</ele><time>2026-04-18T07:32:45Z</time></trkpt><trkpt lat="43.55127375223727" lon="10.72444430280198"><ele>119.75</ele><time>2026-04-18T07:32:46Z</time></trkpt><trkpt lat="43.551410965324834" lon="10.724493457855631"><ele>113.5</ele><time>2026-04-18T07:32:47Z</time></trkpt><trkpt lat="43.5515356643753" lon="10.724550508221737"><ele>107.25</ele><time>2026-04-18T07:32:48Z</time></trkpt><trkpt lat="43.55166080598718" lon="10.72459917030614"><ele>101.0</ele><time>2026-04-18T07:32:49Z</time></trkpt><trkpt lat="43.55178676061545" lon="10.724632791664552"><ele>101.0</ele><time>2026-04-18T07:32:50Z</time></trkpt><trkpt lat="43.55191163194188" lon="10.724637150190437"><ele>101.0</ele><time>2026-04-18T07:32:51Z</time></trkpt><trkpt lat="43.55204366644982" lon="10.72462233020611"><ele>101.0</ele><time>2026-04-18T07:32:52Z</time></trkpt><trkpt lat="43.552171310301134" lon="10.724596737360109"><ele>101.0</ele><time>2026-04-18T07:32:53Z</time></trkpt><trkpt lat="43.552299008933744" lon="10.724573340897358"><ele>99.5</ele><time>2026-04-18T07:32:54Z</time></trkpt><trkpt lat="43.55243123648013" lon="10.724561679454101"><ele>98.0</ele><time>2026-04-18T07:32:55Z</time></trkpt><trkpt lat="43.55257414310102" lon="10.724571356126232"><ele>96.5</ele><time>2026-04-18T07:32:56Z</time></trkpt><trkpt lat="43.552721084145524" lon="10.724602102943484"><ele>95.0</ele><time>2026-04-18T07:32:57Z</time></trkpt><trkpt lat="43.55287196593293" lon="10.724640967422399"><ele>92.0</ele><time>2026-04-18T07:32:58Z</time></trkpt><trkpt lat="43.55303638422728" lon="10.724676487928713"><ele>89.0</ele><time>2026-04-18T07:32:59Z</time></trkpt><trkpt lat="43.55320159813734" lon="10.724709243656491"><ele>86.0</ele><time>2026-04-18T07:33:00Z</time></trkpt><trkpt lat="43.553369447504785" lon="10.72474646994667"><ele>86.0</ele><time>2026-04-18T07:33:01Z</time></trkpt><trkpt lat="43.553527018045514" lon="10.724789415863661"><ele>86.0</ele><time>2026-04-18T07:33:02Z</time></trkpt><trkpt lat="43.55368660292043" lon="10.724831082366078"><ele>86.0</ele><time>2026-04-18T07:33:03Z</time></trkpt><trkpt lat="43.55383960092621" lon="10.724858061810625"><ele>84.33333333333334</ele><time>2026-04-18T07:33:04Z</time></trkpt><trkpt lat="43.55399799750721" lon="10.72488801972567"><ele>82.66666666666667</ele><time>2026-04-18T07:33:05Z</time></trkpt><trkpt lat="43.554152371230074" lon="10.724911666666383"><ele>81.0</ele><time>2026-04-18T07:33:06Z</time></trkpt><trkpt lat="43.55429645389687" lon="10.72492530999843"><ele>81.0</ele><time>2026-04-18T07:33:07Z</time></trkpt><trkpt lat="43.55444305606537" lon="10.724933709230383"><ele>81.0</ele><time>2026-04-18T07:33:08Z</time></trkpt><trkpt lat="43.554591106648395" lon="10.724927191643143"><ele>81.0</ele><time>2026-04-18T07:33:09Z</time></trkpt><trkpt lat="43.554743533001066" lon="10.724913589004773"><ele>81.0</ele><time>2026-04-18T07:33:10Z</time></trkpt><trkpt lat="43.55490451439114" lon="10.724898394087642"><ele>78.0</ele><time>2026-04-18T07:33:11Z</time></trkpt><trkpt lat="43.55505731570003" lon="10.724891412990058"><ele>75.0</ele><time>2026-04-18T07:33:12Z</time></trkpt><trkpt lat="43.555214862559254" lon="10.724890506691256"><ele>72.0</ele><time>2026-04-18T07:33:13Z</time></trkpt><trkpt lat="43.55537764880221" lon="10.724893154649546"><ele>70.33333333333333</ele><time>2026-04-18T07:33:14Z</time></trkpt><trkpt lat="43.55552522505365" lon="10.724898265853327"><ele>68.66666666666666</ele><time>2026-04-18T07:33:15Z</time></trkpt><trkpt lat="43.555692275064494" lon="10.7249043808188"><ele>67.0</ele><time>2026-04-18T07:33:16Z</time></trkpt><trkpt lat="43.55584384747544" lon="10.724922352565933"><ele>67.0</ele><time>2026-04-18T07:33:17Z</time></trkpt><trkpt lat="43.55600250099615" lon="10.724954728839409"><ele>67.0</ele><time>2026-04-18T07:33:18Z</time></trkpt><trkpt lat="43.55616203654617" lon="10.725001030570764"><ele>67.0</ele><time>2026-04-18T07:33:19Z</time></trkpt><trkpt lat="43.556320874358605" lon="10.72505768096021"><ele>66.5</ele><time>2026-04-18T07:33:20Z</time></trkpt><trkpt lat="43.55646384420213" lon="10.725116173280306"><ele>66.0</ele><time>2026-04-18T07:33:21Z</time></trkpt><trkpt lat="43.55660698007158" lon="10.725170509160206"><ele>65.5</ele><time>2026-04-18T07:33:22Z</time></trkpt><trkpt lat="43.55674431274344" lon="10.725218891003324"><ele>65.0</ele><time>2026-04-18T07:33:23Z</time></trkpt><trkpt lat="43.556871189529765" lon="10.725264530414558"><ele>61.75</ele><time>2026-04-18T07:33:24Z</time></trkpt><trkpt lat="43.55698834646582" lon="10.725314721994403"><ele>58.5</ele><time>2026-04-18T07:33:25Z</time></trkpt><trkpt lat="43.55710727941286" lon="10.725374737598566"><ele>55.25</ele><time>2026-04-18T07:33:26Z</time></trkpt><trkpt lat="43.557226810383504" lon="10.725465372579526"><ele>52.0</ele><time>2026-04-18T07:33:27Z</time></trkpt><trkpt lat="43.55735354462719" lon="10.725593506021749"><ele>51.33333333333333</ele><time>2026-04-18T07:33:28Z</time></trkpt><trkpt lat="43.55746766493274" lon="10.725742911293038"><ele>50.66666666666667</ele><time>2026-04-18T07:33:29Z</time></trkpt><trkpt lat="43.55757108310494" lon="10.725900435124922"><ele>50.0</ele><time>2026-04-18T07:33:30Z</time></trkpt><trkpt lat="43.557668771976886" lon="10.726058108053135"><ele>49.333333333333336</ele><time>2026-04-18T07:33:31Z</time></trkpt><trkpt lat="43.55777294310682" lon="10.726228254764338"><ele>48.66666666666667</ele><time>2026-04-18T07:33:32Z</time></trkpt><trkpt lat="43.55787594957894" lon="10.726401007011315"><ele>48.0</ele><time>2026-04-18T07:33:33Z</time></trkpt><trkpt lat="43.55797531135234" lon="10.726568011920937"><ele>47.666666666666664</ele><time>2026-04-18T07:33:34Z</time></trkpt><trkpt lat="43.558079569579505" lon="10.72673192560524"><ele>47.33333333333333</ele><time>2026-04-18T07:33:35Z</time></trkpt><trkpt lat="43.55819626444096" lon="10.72691350149983"><ele>47.0</ele><time>2026-04-18T07:33:36Z</time></trkpt><trkpt lat="43.55830792918675" lon="10.727084557968768"><ele>47.0</ele><time>2026-04-18T07:33:37Z</time></trkpt><trkpt lat="43.55841823079111" lon="10.727252608593425"><ele>47.0</ele><time>2026-04-18T07:33:38Z</time></trkpt><trkpt lat="43.558517980218966" lon="10.727410370155393"><ele>47.0</ele><time>2026-04-18T07:33:39Z</time></trkpt><trkpt lat="43.558611893327374" lon="10.727566452833237"><ele>47.0</ele><time>2026-04-18T07:33:40Z</time></trkpt><trkpt lat="43.55870663829066" lon="10.727722667472626"><ele>47.0</ele><time>2026-04-18T07:33:41Z</time></trkpt><trkpt lat="43.558808417490184" lon="10.727884710073011"><ele>47.0</ele><time>2026-04-18T07:33:42Z</time></trkpt><trkpt lat="43.55891183762347" lon="10.728049045179107"><ele>47.0</ele><time>2026-04-18T07:33:43Z</time></trkpt><trkpt lat="43.55900681503908" lon="10.728203007646036"><ele>47.0</ele><time>2026-04-18T07:33:44Z</time></trkpt><trkpt lat="43.559104972142414" lon="10.728356074464791"><ele>47.0</ele><time>2026-04-18T07:33:45Z</time></trkpt><trkpt lat="43.55920398525331" lon="10.728511395583032"><ele>47.0</ele><time>2026-04-18T07:33:46Z</time></trkpt><trkpt lat="43.559309247477486" lon="10.728678340913254"><ele>47.5</ele><time>2026-04-18T07:33:47Z</time></trkpt><trkpt lat="43.55941103065639" lon="10.728838648427415"><ele>48.0</ele><time>2026-04-18T07:33:48Z</time></trkpt><trkpt lat="43.55950366642801" lon="10.728986139950667"><ele>48.5</ele><time>2026-04-18T07:33:49Z</time></trkpt><trkpt lat="43.5595922073897" lon="10.729130122592398"><ele>49.0</ele><time>2026-04-18T07:33:50Z</time></trkpt><trkpt lat="43.55968665967583" lon="10.729282187074677"><ele>48.0</ele><time>2026-04-18T07:33:51Z</time></trkpt><trkpt lat="43.5597841170719" lon="10.729435692561204"><ele>47.0</ele><time>2026-04-18T07:33:52Z</time></trkpt><trkpt lat="43.55988281923655" lon="10.7295914070892"><ele>46.0</ele><time>2026-04-18T07:33:53Z</time></trkpt><trkpt lat="43.559972726044414" lon="10.729738906062076"><ele>45.0</ele><time>2026-04-18T07:33:54Z</time></trkpt><trkpt lat="43.5600654054965" lon="10.72988658987249"><ele>45.0</ele><time>2026-04-18T07:33:55Z</time></trkpt><trkpt lat="43.56015925839431" lon="10.730033931562055"><ele>45.0</ele><time>2026-04-18T07:33:56Z</time></trkpt><trkpt lat="43.56025455934367" lon="10.730182739537469"><ele>45.0</ele><time>2026-04-18T07:33:57Z</time></trkpt><trkpt lat="43.56035105112171" lon="10.730334343304932"><ele>45.0</ele><time>2026-04-18T07:33:58Z</time></trkpt><trkpt lat="43.560446704687095" lon="10.73048868746196"><ele>45.0</ele><time>2026-04-18T07:33:59Z</time></trkpt><trkpt lat="43.56054727003593" lon="10.73064865291939"><ele>45.0</ele><time>2026-04-18T07:34:00Z</time></trkpt><trkpt lat="43.560646892576" lon="10.730807464190333"><ele>45.0</ele><time>2026-04-18T07:34:01Z</time></trkpt><trkpt lat="43.560746741181916" lon="10.730966636969619"><ele>45.666666666666664</ele><time>2026-04-18T07:34:02Z</time></trkpt><trkpt lat="43.560854579209504" lon="10.731140483680287"><ele>46.33333333333333</ele><time>2026-04-18T07:34:03Z</time></trkpt><trkpt lat="43.56095760066179" lon="10.731300673808152"><ele>47.0</ele><time>2026-04-18T07:34:04Z</time></trkpt><trkpt lat="43.561069271462856" lon="10.731473187163427"><ele>47.0</ele><time>2026-04-18T07:34:05Z</time></trkpt><trkpt lat="43.56117687696685" lon="10.731642346022026"><ele>47.0</ele><time>2026-04-18T07:34:06Z</time></trkpt><trkpt lat="43.56127771855516" lon="10.731802885996839"><ele>47.0</ele><time>2026-04-18T07:34:07Z</time></trkpt><trkpt lat="43.5613863761995" lon="10.731976007650541"><ele>46.5</ele><time>2026-04-18T07:34:08Z</time></trkpt><trkpt lat="43.561479207723906" lon="10.732126280380832"><ele>46.0</ele><time>2026-04-18T07:34:09Z</time></trkpt><trkpt lat="43.56157966302639" lon="10.732290913608"><ele>45.5</ele><time>2026-04-18T07:34:10Z</time></trkpt><trkpt lat="43.56167568694733" lon="10.732444354484251"><ele>45.0</ele><time>2026-04-18T07:34:11Z</time></trkpt><trkpt lat="43.561774862913595" lon="10.732598649827302"><ele>45.25</ele><time>2026-04-18T07:34:12Z</time></trkpt><trkpt lat="43.561874975489836" lon="10.732752277416093"><ele>45.5</ele><time>2026-04-18T07:34:13Z</time></trkpt><trkpt lat="43.561972092970166" lon="10.73290399208188"><ele>45.75</ele><time>2026-04-18T07:34:14Z</time></trkpt><trkpt lat="43.562064337406134" lon="10.733053932083358"><ele>46.0</ele><time>2026-04-18T07:34:15Z</time></trkpt><trkpt lat="43.56215498899968" lon="10.733207656315287"><ele>46.333333333333336</ele><time>2026-04-18T07:34:16Z</time></trkpt><trkpt lat="43.56224895596587" lon="10.733363911274001"><ele>46.666666666666664</ele><time>2026-04-18T07:34:17Z</time></trkpt><trkpt lat="43.562348757792904" lon="10.733521585155401"><ele>47.0</ele><time>2026-04-18T07:34:18Z</time></trkpt><trkpt lat="43.56245693187646" lon="10.733687130226905"><ele>47.0</ele><time>2026-04-18T07:34:19Z</time></trkpt><trkpt lat="43.56256807528385" lon="10.733857369978097"><ele>47.0</ele><time>2026-04-18T07:34:20Z</time></trkpt><trkpt lat="43.56267659204845" lon="10.734031881659073"><ele>47.0</ele><time>2026-04-18T07:34:21Z</time></trkpt><trkpt lat="43.56279063117723" lon="10.734214116143807"><ele>47.33333333333333</ele><time>2026-04-18T07:34:22Z</time></trkpt><trkpt lat="43.56289751045925" lon="10.734397458932147"><ele>47.666666666666664</ele><time>2026-04-18T07:34:23Z</time></trkpt><trkpt lat="43.56300099983029" lon="10.734583257004033"><ele>48.0</ele><time>2026-04-18T07:34:24Z</time></trkpt><trkpt lat="43.56309312346531" lon="10.734757873748842"><ele>48.0</ele><time>2026-04-18T07:34:25Z</time></trkpt><trkpt lat="43.56316548325832" lon="10.734953398620664"><ele>48.0</ele><time>2026-04-18T07:34:26Z</time></trkpt><trkpt lat="43.56325638601531" lon="10.735127585102694"><ele>48.0</ele><time>2026-04-18T07:34:27Z</time></trkpt><trkpt lat="43.56332610336957" lon="10.735303889839866"><ele>47.666666666666664</ele><time>2026-04-18T07:34:28Z</time></trkpt><trkpt lat="43.56340320671476" lon="10.735489578391839"><ele>47.33333333333333</ele><time>2026-04-18T07:34:29Z</time></trkpt><trkpt lat="43.56348487887703" lon="10.735683004711492"><ele>47.0</ele><time>2026-04-18T07:34:30Z</time></trkpt><trkpt lat="43.563560036609346" lon="10.73586361444755"><ele>47.25</ele><time>2026-04-18T07:34:31Z</time></trkpt><trkpt lat="43.56364616161722" lon="10.736061229732819"><ele>47.5</ele><time>2026-04-18T07:34:32Z</time></trkpt><trkpt lat="43.563714444011744" lon="10.736231560516773"><ele>47.75</ele><time>2026-04-18T07:34:33Z</time></trkpt><trkpt lat="43.56377911032601" lon="10.736390190053152"><ele>48.0</ele><time>2026-04-18T07:34:34Z</time></trkpt><trkpt lat="43.56383969671491" lon="10.736528257639105"><ele>48.0</ele><time>2026-04-18T07:34:35Z</time></trkpt><trkpt lat="43.56390765295899" lon="10.736681985366362"><ele>48.0</ele><time>2026-04-18T07:34:36Z</time></trkpt><trkpt lat="43.56397641303592" lon="10.73684600042586"><ele>48.0</ele><time>2026-04-18T07:34:37Z</time></trkpt><trkpt lat="43.56404917688078" lon="10.737024362230995"><ele>48.0</ele><time>2026-04-18T07:34:38Z</time></trkpt><trkpt lat="43.56412537136403" lon="10.737202589190932"><ele>48.0</ele><time>2026-04-18T07:34:39Z</time></trkpt><trkpt lat="43.56420873621545" lon="10.737392569716462"><ele>48.0</ele><time>2026-04-18T07:34:40Z</time></trkpt><trkpt lat="43.56429397692412" lon="10.737601133926596"><ele>48.0</ele><time>2026-04-18T07:34:41Z</time></trkpt><trkpt lat="43.56438085236227" lon="10.737810456519316"><ele>48.0</ele><time>2026-04-18T07:34:42Z</time></trkpt><trkpt lat="43.56446339638328" lon="10.738005507832078"><ele>48.0</ele><time>2026-04-18T07:34:43Z</time></trkpt><trkpt lat="43.564551476286596" lon="10.738206193538606"><ele>48.0</ele><time>2026-04-18T07:34:44Z</time></trkpt><trkpt lat="43.56463164781585" lon="10.738394059449634"><ele>48.75</ele><time>2026-04-18T07:34:45Z</time></trkpt><trkpt lat="43.56471366394661" lon="10.738570676856915"><ele>49.5</ele><time>2026-04-18T07:34:46Z</time></trkpt><trkpt lat="43.56479872950626" lon="10.73872710164723"><ele>50.25</ele><time>2026-04-18T07:34:47Z</time></trkpt><trkpt lat="43.5648792934869" lon="10.738854752099936"><ele>51.0</ele><time>2026-04-18T07:34:48Z</time></trkpt><trkpt lat="43.56495648135846" lon="10.738966076637753"><ele>51.0</ele><time>2026-04-18T07:34:49Z</time></trkpt><trkpt lat="43.56502124246639" lon="10.739074672247723"><ele>51.0</ele><time>2026-04-18T07:34:50Z</time></trkpt><trkpt lat="43.5650655440326" lon="10.73918598434771"><ele>51.0</ele><time>2026-04-18T07:34:51Z</time></trkpt><trkpt lat="43.56507695210135" lon="10.739304061846086"><ele>51.0</ele><time>2026-04-18T07:34:52Z</time></trkpt><trkpt lat="43.56505686582278" lon="10.73943386753203"><ele>51.0</ele><time>2026-04-18T07:34:53Z</time></trkpt><trkpt lat="43.56500443712023" lon="10.739570853159575"><ele>51.5</ele><time>2026-04-18T07:34:54Z</time></trkpt><trkpt lat="43.56493102961537" lon="10.73969137109409"><ele>52.0</ele><time>2026-04-18T07:34:55Z</time></trkpt><trkpt lat="43.56484559998898" lon="10.739823249691073"><ele>52.5</ele><time>2026-04-18T07:34:56Z</time></trkpt><trkpt lat="43.564757504345245" lon="10.739964372298212"><ele>53.0</ele><time>2026-04-18T07:34:57Z</time></trkpt><trkpt lat="43.56466901297129" lon="10.740120381895082"><ele>53.0</ele><time>2026-04-18T07:34:58Z</time></trkpt><trkpt lat="43.56457672342179" lon="10.740290275778163"><ele>53.0</ele><time>2026-04-18T07:34:59Z</time></trkpt><trkpt lat="43.56448296469854" lon="10.740463318516126"><ele>53.0</ele><time>2026-04-18T07:35:00Z</time></trkpt><trkpt lat="43.56437263863058" lon="10.740649494565107"><ele>52.333333333333336</ele><time>2026-04-18T07:35:01Z</time></trkpt><trkpt lat="43.56425977032497" lon="10.740843753255955"><ele>51.66666666666667</ele><time>2026-04-18T07:35:02Z</time></trkpt><trkpt lat="43.56413710805918" lon="10.741058533677393"><ele>51.0</ele><time>2026-04-18T07:35:03Z</time></trkpt><trkpt lat="43.564015859295814" lon="10.741277895187848"><ele>52.33333333333333</ele><time>2026-04-18T07:35:04Z</time></trkpt><trkpt lat="43.5638982638791" lon="10.741494951268312"><ele>53.666666666666664</ele><time>2026-04-18T07:35:05Z</time></trkpt><trkpt lat="43.56377255077391" lon="10.741720213346388"><ele>55.0</ele><time>2026-04-18T07:35:06Z</time></trkpt><trkpt lat="43.563646475745195" lon="10.74194134400038"><ele>55.0</ele><time>2026-04-18T07:35:07Z</time></trkpt><trkpt lat="43.56352088765157" lon="10.74215841987795"><ele>55.0</ele><time>2026-04-18T07:35:08Z</time></trkpt><trkpt lat="43.56340177329474" lon="10.74236642210953"><ele>55.0</ele><time>2026-04-18T07:35:09Z</time></trkpt><trkpt lat="43.56329820224714" lon="10.742552173553111"><ele>56.0</ele><time>2026-04-18T07:35:10Z</time></trkpt><trkpt lat="43.56320302995096" lon="10.742726548913184"><ele>57.0</ele><time>2026-04-18T07:35:11Z</time></trkpt><trkpt lat="43.56309461660097" lon="10.742920007342121"><ele>58.0</ele><time>2026-04-18T07:35:12Z</time></trkpt><trkpt lat="43.56298947207245" lon="10.743106977813772"><ele>58.0</ele><time>2026-04-18T07:35:13Z</time></trkpt><trkpt lat="43.56288375121841" lon="10.743289189110275"><ele>58.0</ele><time>2026-04-18T07:35:14Z</time></trkpt><trkpt lat="43.562779629138674" lon="10.743465673523621"><ele>58.0</ele><time>2026-04-18T07:35:15Z</time></trkpt><trkpt lat="43.56268713759468" lon="10.743630675082235"><ele>57.25</ele><time>2026-04-18T07:35:16Z</time></trkpt><trkpt lat="43.56259952394007" lon="10.743795553902984"><ele>56.5</ele><time>2026-04-18T07:35:17Z</time></trkpt><trkpt lat="43.56251713821493" lon="10.743951207374016"><ele>55.75</ele><time>2026-04-18T07:35:18Z</time></trkpt><trkpt lat="43.562439503608495" lon="10.744112558395987"><ele>55.0</ele><time>2026-04-18T07:35:19Z</time></trkpt><trkpt lat="43.562378253798116" lon="10.744293446649156"><ele>56.0</ele><time>2026-04-18T07:35:20Z</time></trkpt><trkpt lat="43.56230989856999" lon="10.744511060408852"><ele>57.0</ele><time>2026-04-18T07:35:21Z</time></trkpt><trkpt lat="43.56224658664582" lon="10.744748583307084"><ele>58.0</ele><time>2026-04-18T07:35:22Z</time></trkpt><trkpt lat="43.56219427038613" lon="10.744986363616396"><ele>58.0</ele><time>2026-04-18T07:35:23Z</time></trkpt><trkpt lat="43.56215552190497" lon="10.745247475955459"><ele>58.0</ele><time>2026-04-18T07:35:24Z</time></trkpt><trkpt lat="43.56213416036971" lon="10.745504069276013"><ele>58.0</ele><time>2026-04-18T07:35:25Z</time></trkpt><trkpt lat="43.562125000024515" lon="10.74576326276022"><ele>58.0</ele><time>2026-04-18T07:35:26Z</time></trkpt><trkpt lat="43.56212246558246" lon="10.746032556225494"><ele>58.0</ele><time>2026-04-18T07:35:27Z</time></trkpt><trkpt lat="43.562127424493966" lon="10.74628469029914"><ele>58.0</ele><time>2026-04-18T07:35:28Z</time></trkpt><trkpt lat="43.56214190299271" lon="10.746538512694165"><ele>56.666666666666664</ele><time>2026-04-18T07:35:29Z</time></trkpt><trkpt lat="43.5621740773774" lon="10.746790599578903"><ele>55.33333333333333</ele><time>2026-04-18T07:35:30Z</time></trkpt><trkpt lat="43.56222383595491" lon="10.747024617587622"><ele>54.0</ele><time>2026-04-18T07:35:31Z</time></trkpt><trkpt lat="43.56228245995361" lon="10.74722837448233"><ele>53.75</ele><time>2026-04-18T07:35:32Z</time></trkpt><trkpt lat="43.56234949699677" lon="10.747406233762005"><ele>53.5</ele><time>2026-04-18T07:35:33Z</time></trkpt><trkpt lat="43.56240896113067" lon="10.747574430015831"><ele>53.25</ele><time>2026-04-18T07:35:34Z</time></trkpt><trkpt lat="43.56247017974603" lon="10.747762341269754"><ele>53.0</ele><time>2026-04-18T07:35:35Z</time></trkpt><trkpt lat="43.56252676471154" lon="10.747947341242359"><ele>53.0</ele><time>2026-04-18T07:35:36Z</time></trkpt><trkpt lat="43.56258020910957" lon="10.748109379283976"><ele>53.0</ele><time>2026-04-18T07:35:37Z</time></trkpt><trkpt lat="43.562630085042635" lon="10.748253133102729"><ele>53.0</ele><time>2026-04-18T07:35:38Z</time></trkpt><trkpt lat="43.562683148423034" lon="10.748402423831992"><ele>53.0</ele><time>2026-04-18T07:35:39Z</time></trkpt><trkpt lat="43.56274248027262" lon="10.748572743046122"><ele>52.66666666666667</ele><time>2026-04-18T07:35:40Z</time></trkpt><trkpt lat="43.56280401116762" lon="10.748754914154821"><ele>52.33333333333333</ele><time>2026-04-18T07:35:41Z</time></trkpt><trkpt lat="43.56286572889285" lon="10.748939934190044"><ele>52.0</ele><time>2026-04-18T07:35:42Z</time></trkpt><trkpt lat="43.56293060158932" lon="10.749137541720957"><ele>53.33333333333333</ele><time>2026-04-18T07:35:43Z</time></trkpt><trkpt lat="43.5630079164284" lon="10.749362104462882"><ele>54.66666666666667</ele><time>2026-04-18T07:35:44Z</time></trkpt><trkpt lat="43.56308456377256" lon="10.749574064764316"><ele>56.0</ele><time>2026-04-18T07:35:45Z</time></trkpt><trkpt lat="43.56316539408232" lon="10.749812193809301"><ele>56.333333333333336</ele><time>2026-04-18T07:35:46Z</time></trkpt><trkpt lat="43.56324204329415" lon="10.7500470623411"><ele>56.66666666666667</ele><time>2026-04-18T07:35:47Z</time></trkpt><trkpt lat="43.56332229866983" lon="10.750288001245387"><ele>57.0</ele><time>2026-04-18T07:35:48Z</time></trkpt><trkpt lat="43.56340210401666" lon="10.75052815019729"><ele>55.66666666666667</ele><time>2026-04-18T07:35:49Z</time></trkpt><trkpt lat="43.563481299631" lon="10.75076394782303"><ele>54.333333333333336</ele><time>2026-04-18T07:35:50Z</time></trkpt><trkpt lat="43.563557002002284" lon="10.750991990824861"><ele>53.0</ele><time>2026-04-18T07:35:51Z</time></trkpt><trkpt lat="43.563631522559746" lon="10.75121041119097"><ele>57.66666666666667</ele><time>2026-04-18T07:35:52Z</time></trkpt><trkpt lat="43.563701630478334" lon="10.75141656981232"><ele>62.33333333333333</ele><time>2026-04-18T07:35:53Z</time></trkpt><trkpt lat="43.56377102086663" lon="10.75162490888466"><ele>67.0</ele><time>2026-04-18T07:35:54Z</time></trkpt><trkpt lat="43.563839206849465" lon="10.751830908525497"><ele>64.66666666666666</ele><time>2026-04-18T07:35:55Z</time></trkpt><trkpt lat="43.56390579189643" lon="10.75202560921894"><ele>62.33333333333333</ele><time>2026-04-18T07:35:56Z</time></trkpt><trkpt lat="43.56396953752057" lon="10.75221247160592"><ele>60.0</ele><time>2026-04-18T07:35:57Z</time></trkpt><trkpt lat="43.56402969271999" lon="10.752393277400554"><ele>60.0</ele><time>2026-04-18T07:35:58Z</time></trkpt><trkpt lat="43.56409179333658" lon="10.752571988260321"><ele>60.0</ele><time>2026-04-18T07:35:59Z</time></trkpt><trkpt lat="43.56416293326525" lon="10.752748382677055"><ele>60.0</ele><time>2026-04-18T07:36:00Z</time></trkpt><trkpt lat="43.564249647397666" lon="10.75293704163361"><ele>58.0</ele><time>2026-04-18T07:36:01Z</time></trkpt><trkpt lat="43.564347888180585" lon="10.753119654910567"><ele>56.0</ele><time>2026-04-18T07:36:02Z</time></trkpt><trkpt lat="43.56445874131381" lon="10.753301228760249"><ele>54.0</ele><time>2026-04-18T07:36:03Z</time></trkpt><trkpt lat="43.564567818394" lon="10.753456060173951"><ele>55.0</ele><time>2026-04-18T07:36:04Z</time></trkpt><trkpt lat="43.564694844466864" lon="10.753613585516785"><ele>56.0</ele><time>2026-04-18T07:36:05Z</time></trkpt><trkpt lat="43.56482093953805" lon="10.753748845059002"><ele>57.0</ele><time>2026-04-18T07:36:06Z</time></trkpt><trkpt lat="43.564947119692896" lon="10.753866508545139"><ele>57.0</ele><time>2026-04-18T07:36:07Z</time></trkpt><trkpt lat="43.56507840249985" lon="10.753976233469636"><ele>57.0</ele><time>2026-04-18T07:36:08Z</time></trkpt><trkpt lat="43.56521494895406" lon="10.754088060166048"><ele>57.0</ele><time>2026-04-18T07:36:09Z</time></trkpt><trkpt lat="43.56534782948487" lon="10.754194909008937"><ele>56.66666666666667</ele><time>2026-04-18T07:36:10Z</time></trkpt><trkpt lat="43.56547830225204" lon="10.754310375155407"><ele>56.333333333333336</ele><time>2026-04-18T07:36:11Z</time></trkpt><trkpt lat="43.56561137753848" lon="10.754428822193638"><ele>56.0</ele><time>2026-04-18T07:36:12Z</time></trkpt><trkpt lat="43.565740941213086" lon="10.75453377126842"><ele>56.0</ele><time>2026-04-18T07:36:13Z</time></trkpt><trkpt lat="43.56588203898288" lon="10.75464683137282"><ele>56.0</ele><time>2026-04-18T07:36:14Z</time></trkpt><trkpt lat="43.56601030023271" lon="10.754757005396378"><ele>56.0</ele><time>2026-04-18T07:36:15Z</time></trkpt><trkpt lat="43.56613235984726" lon="10.754863024443953"><ele>56.5</ele><time>2026-04-18T07:36:16Z</time></trkpt><trkpt lat="43.56625527168255" lon="10.754968576000286"><ele>57.0</ele><time>2026-04-18T07:36:17Z</time></trkpt><trkpt lat="43.56637776239035" lon="10.755068432001485"><ele>57.5</ele><time>2026-04-18T07:36:18Z</time></trkpt><trkpt lat="43.56650046534742" lon="10.75517135699503"><ele>58.0</ele><time>2026-04-18T07:36:19Z</time></trkpt><trkpt lat="43.56662051431943" lon="10.755274290701424"><ele>56.666666666666664</ele><time>2026-04-18T07:36:20Z</time></trkpt><trkpt lat="43.5667525084206" lon="10.755387119793502"><ele>55.33333333333333</ele><time>2026-04-18T07:36:21Z</time></trkpt><trkpt lat="43.56688468148978" lon="10.755499591479602"><ele>54.0</ele><time>2026-04-18T07:36:22Z</time></trkpt><trkpt lat="43.56702116467744" lon="10.755611208764053"><ele>55.33333333333333</ele><time>2026-04-18T07:36:23Z</time></trkpt><trkpt lat="43.56715423852247" lon="10.75571803797771"><ele>56.666666666666664</ele><time>2026-04-18T07:36:24Z</time></trkpt><trkpt lat="43.56727888731261" lon="10.755823813403396"><ele>58.0</ele><time>2026-04-18T07:36:25Z</time></trkpt><trkpt lat="43.56741575874446" lon="10.75593843500275"><ele>57.33333333333333</ele><time>2026-04-18T07:36:26Z</time></trkpt><trkpt lat="43.56755051923673" lon="10.756052501322387"><ele>56.66666666666667</ele><time>2026-04-18T07:36:27Z</time></trkpt><trkpt lat="43.56767609643281" lon="10.756167765969108"><ele>56.0</ele><time>2026-04-18T07:36:28Z</time></trkpt><trkpt lat="43.56782314612057" lon="10.756287459300514"><ele>57.0</ele><time>2026-04-18T07:36:29Z</time></trkpt><trkpt lat="43.567951998968" lon="10.756398808277122"><ele>58.0</ele><time>2026-04-18T07:36:30Z</time></trkpt><trkpt lat="43.568095204689314" lon="10.75651349081976"><ele>59.0</ele><time>2026-04-18T07:36:31Z</time></trkpt><trkpt lat="43.56823116283192" lon="10.756624789784015"><ele>59.0</ele><time>2026-04-18T07:36:32Z</time></trkpt><trkpt lat="43.56837150123389" lon="10.756734272541996"><ele>59.0</ele><time>2026-04-18T07:36:33Z</time></trkpt><trkpt lat="43.56847688751339" lon="10.756841233374315"><ele>59.0</ele><time>2026-04-18T07:36:34Z</time></trkpt><trkpt lat="43.56856047624459" lon="10.756940250163009"><ele>59.0</ele><time>2026-04-18T07:36:35Z</time></trkpt><trkpt lat="43.568668585726066" lon="10.756996129102442"><ele>58.66666666666667</ele><time>2026-04-18T07:36:36Z</time></trkpt><trkpt lat="43.56875162058948" lon="10.757065143046473"><ele>58.333333333333336</ele><time>2026-04-18T07:36:37Z</time></trkpt><trkpt lat="43.56882686042657" lon="10.757130664136177"><ele>58.0</ele><time>2026-04-18T07:36:38Z</time></trkpt><trkpt lat="43.568901214348045" lon="10.757192242480858"><ele>57.66666666666667</ele><time>2026-04-18T07:36:39Z</time></trkpt><trkpt lat="43.568972257097435" lon="10.75725190715872"><ele>57.333333333333336</ele><time>2026-04-18T07:36:40Z</time></trkpt><trkpt lat="43.5690472017914" lon="10.757312045267147"><ele>57.0</ele><time>2026-04-18T07:36:41Z</time></trkpt><trkpt lat="43.56910287595853" lon="10.757356068196898"><ele>57.0</ele><time>2026-04-18T07:36:42Z</time></trkpt><trkpt lat="43.56919365420532" lon="10.75743326297973"><ele>57.0</ele><time>2026-04-18T07:36:44Z</time></trkpt><trkpt lat="43.56926867510441" lon="10.757490464573022"><ele>57.0</ele><time>2026-04-18T07:36:46Z</time></trkpt><trkpt lat="43.569239451276914" lon="10.757625480597767"><ele>57.0</ele><time>2026-04-18T07:36:50Z</time></trkpt><trkpt lat="43.56917623875959" lon="10.757675601125364"><ele>57.0</ele><time>2026-04-18T07:36:51Z</time></trkpt><trkpt lat="43.56911649343721" lon="10.75775732873696"><ele>56.8</ele><time>2026-04-18T07:36:52Z</time></trkpt><trkpt lat="43.56908020805423" lon="10.757871314776953"><ele>56.6</ele><time>2026-04-18T07:36:53Z</time></trkpt><trkpt lat="43.56903180290165" lon="10.757997937147026"><ele>56.39999999999999</ele><time>2026-04-18T07:36:54Z</time></trkpt><trkpt lat="43.56897529511635" lon="10.758135137299611"><ele>56.199999999999996</ele><time>2026-04-18T07:36:55Z</time></trkpt><trkpt lat="43.56891411397188" lon="10.758264536526767"><ele>56.0</ele><time>2026-04-18T07:36:56Z</time></trkpt><trkpt lat="43.56884619254736" lon="10.758412103629066"><ele>56.25</ele><time>2026-04-18T07:36:57Z</time></trkpt><trkpt lat="43.56876682847562" lon="10.758584542362163"><ele>56.5</ele><time>2026-04-18T07:36:58Z</time></trkpt><trkpt lat="43.56868969822886" lon="10.758735942225927"><ele>56.75</ele><time>2026-04-18T07:36:59Z</time></trkpt><trkpt lat="43.568609450643905" lon="10.758855634539604"><ele>57.0</ele><time>2026-04-18T07:37:00Z</time></trkpt><trkpt lat="43.56852841064134" lon="10.758955726792585"><ele>56.2</ele><time>2026-04-18T07:37:01Z</time></trkpt><trkpt lat="43.56844825713292" lon="10.759050889647906"><ele>55.400000000000006</ele><time>2026-04-18T07:37:02Z</time></trkpt><trkpt lat="43.568367526476436" lon="10.759151409886142"><ele>54.599999999999994</ele><time>2026-04-18T07:37:03Z</time></trkpt><trkpt lat="43.56828675071095" lon="10.759262791510462"><ele>53.8</ele><time>2026-04-18T07:37:04Z</time></trkpt><trkpt lat="43.56823378440144" lon="10.759373262033852"><ele>53.0</ele><time>2026-04-18T07:37:05Z</time></trkpt><trkpt lat="43.56819799555869" lon="10.759464560668151"><ele>53.00000000000001</ele><time>2026-04-18T07:37:06Z</time></trkpt><trkpt lat="43.56812573938425" lon="10.759511586834847"><ele>53.0</ele><time>2026-04-18T07:37:08Z</time></trkpt><trkpt lat="43.56803189717997" lon="10.759495086862962"><ele>53.0</ele><time>2026-04-18T07:37:10Z</time></trkpt><trkpt lat="43.567966537518245" lon="10.75949172348276"><ele>53.0</ele><time>2026-04-18T07:37:11Z</time></trkpt><trkpt lat="43.567884421509575" lon="10.759495624910828"><ele>53.00000000000001</ele><time>2026-04-18T07:37:12Z</time></trkpt><trkpt lat="43.56779124462922" lon="10.759529852843908"><ele>53.0</ele><time>2026-04-18T07:37:14Z</time></trkpt><trkpt lat="43.56771993820572" lon="10.759547165466204"><ele>54.4</ele><time>2026-04-18T07:37:15Z</time></trkpt><trkpt lat="43.56764112435791" lon="10.759572979916483"><ele>55.8</ele><time>2026-04-18T07:37:18Z</time></trkpt><trkpt lat="43.56754698821411" lon="10.759589851974418"><ele>57.2</ele><time>2026-04-18T07:37:23Z</time></trkpt><trkpt lat="43.567474925812405" lon="10.759616613108838"><ele>58.6</ele><time>2026-04-18T07:37:24Z</time></trkpt><trkpt lat="43.567408148134874" lon="10.759686389026864"><ele>60.0</ele><time>2026-04-18T07:37:26Z</time></trkpt><trkpt lat="43.567325773747726" lon="10.7598058699201"><ele>60.0</ele><time>2026-04-18T07:37:34Z</time></trkpt><trkpt lat="43.567264444952926" lon="10.759871248155106"><ele>60.0</ele><time>2026-04-18T07:37:35Z</time></trkpt><trkpt lat="43.56717523807281" lon="10.759939973981291"><ele>60.0</ele><time>2026-04-18T07:37:36Z</time></trkpt><trkpt lat="43.56707288119499" lon="10.759991139800393"><ele>60.0</ele><time>2026-04-18T07:37:37Z</time></trkpt><trkpt lat="43.566980774524446" lon="10.76005448032536"><ele>60.0</ele><time>2026-04-18T07:37:38Z</time></trkpt><trkpt lat="43.56688741074282" lon="10.760131793892999"><ele>62.2</ele><time>2026-04-18T07:37:39Z</time></trkpt><trkpt lat="43.566798063173444" lon="10.760201614234195"><ele>64.4</ele><time>2026-04-18T07:37:40Z</time></trkpt><trkpt lat="43.56671587691857" lon="10.760284563148899"><ele>66.6</ele><time>2026-04-18T07:37:41Z</time></trkpt><trkpt lat="43.566628453267064" lon="10.760373417544061"><ele>68.8</ele><time>2026-04-18T07:37:42Z</time></trkpt><trkpt lat="43.566568188969974" lon="10.760454330258769"><ele>71.0</ele><time>2026-04-18T07:37:43Z</time></trkpt><trkpt lat="43.56651046764525" lon="10.760547108093801"><ele>71.0</ele><time>2026-04-18T07:37:44Z</time></trkpt><trkpt lat="43.56642878090554" lon="10.760618691181975"><ele>71.0</ele><time>2026-04-18T07:37:45Z</time></trkpt><trkpt lat="43.56638307591244" lon="10.760699027065073"><ele>71.0</ele><time>2026-04-18T07:37:46Z</time></trkpt><trkpt lat="43.56633446310742" lon="10.760778815619929"><ele>71.0</ele><time>2026-04-18T07:37:47Z</time></trkpt><trkpt lat="43.566294382351174" lon="10.760854321641265"><ele>71.0</ele><time>2026-04-18T07:37:48Z</time></trkpt><trkpt lat="43.566259238817885" lon="10.76092809883837"><ele>71.0</ele><time>2026-04-18T07:37:49Z</time></trkpt><trkpt lat="43.56621754432926" lon="10.761019295379914"><ele>71.8</ele><time>2026-04-18T07:37:50Z</time></trkpt><trkpt lat="43.566183522102534" lon="10.761129376456136"><ele>72.6</ele><time>2026-04-18T07:37:51Z</time></trkpt><trkpt lat="43.566192847213586" lon="10.761223402980137"><ele>73.4</ele><time>2026-04-18T07:37:52Z</time></trkpt><trkpt lat="43.56621179602679" lon="10.761350478105173"><ele>74.2</ele><time>2026-04-18T07:37:53Z</time></trkpt><trkpt lat="43.56623704413641" lon="10.761496243891589"><ele>75.0</ele><time>2026-04-18T07:37:54Z</time></trkpt><trkpt lat="43.56624609184237" lon="10.761628873984318"><ele>75.0</ele><time>2026-04-18T07:37:55Z</time></trkpt><trkpt lat="43.56623577458523" lon="10.761764812880232"><ele>75.0</ele><time>2026-04-18T07:37:56Z</time></trkpt><trkpt lat="43.56620410188181" lon="10.761916286574943"><ele>75.0</ele><time>2026-04-18T07:37:57Z</time></trkpt><trkpt lat="43.566172838441545" lon="10.762071981398112"><ele>75.0</ele><time>2026-04-18T07:37:58Z</time></trkpt><trkpt lat="43.56613377124004" lon="10.762223914268423"><ele>75.0</ele><time>2026-04-18T07:37:59Z</time></trkpt><trkpt lat="43.56609150968586" lon="10.76236138325996"><ele>70.5</ele><time>2026-04-18T07:38:00Z</time></trkpt><trkpt lat="43.56605730838945" lon="10.762476969842266"><ele>66.0</ele><time>2026-04-18T07:38:01Z</time></trkpt><trkpt lat="43.56603334913529" lon="10.762624192314458"><ele>61.5</ele><time>2026-04-18T07:38:02Z</time></trkpt><trkpt lat="43.56601832800357" lon="10.762791279916662"><ele>57.0</ele><time>2026-04-18T07:38:03Z</time></trkpt><trkpt lat="43.56601462794012" lon="10.762973449277073"><ele>57.0</ele><time>2026-04-18T07:38:04Z</time></trkpt><trkpt lat="43.56602421428401" lon="10.763176104987208"><ele>57.0</ele><time>2026-04-18T07:38:05Z</time></trkpt><trkpt lat="43.566034816374625" lon="10.763369417119074"><ele>57.0</ele><time>2026-04-18T07:38:06Z</time></trkpt><trkpt lat="43.56604935296981" lon="10.763563811441854"><ele>57.0</ele><time>2026-04-18T07:38:07Z</time></trkpt><trkpt lat="43.56606144359841" lon="10.763785627539"><ele>57.25</ele><time>2026-04-18T07:38:08Z</time></trkpt><trkpt lat="43.56607177793454" lon="10.76400226120321"><ele>57.5</ele><time>2026-04-18T07:38:09Z</time></trkpt><trkpt lat="43.56608167204054" lon="10.764205294009757"><ele>57.75</ele><time>2026-04-18T07:38:10Z</time></trkpt><trkpt lat="43.566098337402934" lon="10.764381996426433"><ele>58.0</ele><time>2026-04-18T07:38:11Z</time></trkpt><trkpt lat="43.56613010112235" lon="10.764543753114337"><ele>58.25</ele><time>2026-04-18T07:38:12Z</time></trkpt><trkpt lat="43.566170578120385" lon="10.76471785522407"><ele>58.5</ele><time>2026-04-18T07:38:13Z</time></trkpt><trkpt lat="43.566200829137166" lon="10.764886515947595"><ele>58.75</ele><time>2026-04-18T07:38:14Z</time></trkpt><trkpt lat="43.566236783321884" lon="10.765060480695315"><ele>59.0</ele><time>2026-04-18T07:38:15Z</time></trkpt><trkpt lat="43.56628680333168" lon="10.765231992593561"><ele>62.75</ele><time>2026-04-18T07:38:16Z</time></trkpt><trkpt lat="43.56633209928494" lon="10.76541480818055"><ele>66.5</ele><time>2026-04-18T07:38:17Z</time></trkpt><trkpt lat="43.566364850941596" lon="10.76561550844951"><ele>70.25</ele><time>2026-04-18T07:38:18Z</time></trkpt><trkpt lat="43.56638176326202" lon="10.76582782254418"><ele>74.0</ele><time>2026-04-18T07:38:19Z</time></trkpt><trkpt lat="43.56637874292345" lon="10.766016455473833"><ele>73.33333333333334</ele><time>2026-04-18T07:38:20Z</time></trkpt><trkpt lat="43.56637540668897" lon="10.766228782988863"><ele>72.66666666666667</ele><time>2026-04-18T07:38:21Z</time></trkpt><trkpt lat="43.566380206532436" lon="10.766438484633753"><ele>72.0</ele><time>2026-04-18T07:38:22Z</time></trkpt><trkpt lat="43.56638392322465" lon="10.766641043206507"><ele>72.0</ele><time>2026-04-18T07:38:23Z</time></trkpt><trkpt lat="43.56638244061123" lon="10.76684657449795"><ele>72.0</ele><time>2026-04-18T07:38:24Z</time></trkpt><trkpt lat="43.5663785565033" lon="10.7670567341381"><ele>72.0</ele><time>2026-04-18T07:38:25Z</time></trkpt><trkpt lat="43.56637359997336" lon="10.767261504136371"><ele>72.25</ele><time>2026-04-18T07:38:25.999Z</time></trkpt><trkpt lat="43.56637328425682" lon="10.767426251799431"><ele>72.5</ele><time>2026-04-18T07:38:26.999Z</time></trkpt><trkpt lat="43.56637380752109" lon="10.767599421072466"><ele>72.75</ele><time>2026-04-18T07:38:27.999Z</time></trkpt><trkpt lat="43.566366083881746" lon="10.767781898375304"><ele>73.0</ele><time>2026-04-18T07:38:28.999Z</time></trkpt><trkpt lat="43.5663710058122" lon="10.767927787700717"><ele>72.8</ele><time>2026-04-18T07:38:29.999Z</time></trkpt><trkpt lat="43.56638237470223" lon="10.768060293493308"><ele>72.6</ele><time>2026-04-18T07:38:30.999Z</time></trkpt><trkpt lat="43.566411762156314" lon="10.768208224814753"><ele>72.4</ele><time>2026-04-18T07:38:31.999Z</time></trkpt><trkpt lat="43.56645939217784" lon="10.76834688179541"><ele>72.2</ele><time>2026-04-18T07:38:32.999Z</time></trkpt><trkpt lat="43.56650664980266" lon="10.76846547689764"><ele>72.0</ele><time>2026-04-18T07:38:33.999Z</time></trkpt><trkpt lat="43.56653658750706" lon="10.76858315677391"><ele>72.0</ele><time>2026-04-18T07:38:34.999Z</time></trkpt><trkpt lat="43.56655036497844" lon="10.768726166495833"><ele>72.0</ele><time>2026-04-18T07:38:35.999Z</time></trkpt><trkpt lat="43.566550415309436" lon="10.768885214296366"><ele>72.0</ele><time>2026-04-18T07:38:36.999Z</time></trkpt><trkpt lat="43.56655172095223" lon="10.769042368054864"><ele>72.0</ele><time>2026-04-18T07:38:37.999Z</time></trkpt><trkpt lat="43.56656615742177" lon="10.769162494018971"><ele>72.0</ele><time>2026-04-18T07:38:38.999Z</time></trkpt><trkpt lat="43.56657232380115" lon="10.769252088701446"><ele>71.8</ele><time>2026-04-18T07:38:39.999Z</time></trkpt><trkpt lat="43.566583172234004" lon="10.76941888987256"><ele>71.6</ele><time>2026-04-18T07:38:41.999Z</time></trkpt><trkpt lat="43.56659133538098" lon="10.769542569746536"><ele>71.39999999999999</ele><time>2026-04-18T07:38:43.999Z</time></trkpt><trkpt lat="43.56659266128914" lon="10.769680518209446"><ele>71.2</ele><time>2026-04-18T07:38:45.999Z</time></trkpt><trkpt lat="43.56659212351456" lon="10.769813245261599"><ele>71.0</ele><time>2026-04-18T07:38:48.999Z</time></trkpt><trkpt lat="43.5665829893458" lon="10.769916240440347"><ele>71.0</ele><time>2026-04-18T07:38:50.999Z</time></trkpt><trkpt lat="43.56661462187176" lon="10.769813623837676"><ele>71.0</ele><time>2026-04-18T07:39:15Z</time></trkpt><trkpt lat="43.56659024900794" lon="10.7696465693085"><ele>71.0</ele><time>2026-04-18T07:39:17Z</time></trkpt><trkpt lat="43.566583040790974" lon="10.769530585950505"><ele>71.0</ele><time>2026-04-18T07:39:18Z</time></trkpt><trkpt lat="43.566582934925954" lon="10.769421896687376"><ele>71.0</ele><time>2026-04-18T07:39:19Z</time></trkpt><trkpt lat="43.566587988552534" lon="10.769330577978621"><ele>71.0</ele><time>2026-04-18T07:39:20Z</time></trkpt><trkpt lat="43.56657337526357" lon="10.769083140979852"><ele>71.2</ele><time>2026-04-18T07:39:23Z</time></trkpt><trkpt lat="43.56655907479985" lon="10.768923343941461"><ele>71.39999999999999</ele><time>2026-04-18T07:39:25Z</time></trkpt><trkpt lat="43.56655039796415" lon="10.7688156638843"><ele>71.6</ele><time>2026-04-18T07:39:26Z</time></trkpt><trkpt lat="43.566541292800316" lon="10.768675867107413"><ele>71.8</ele><time>2026-04-18T07:39:27Z</time></trkpt><trkpt lat="43.56651993169667" lon="10.768513936188924"><ele>72.0</ele><time>2026-04-18T07:39:28Z</time></trkpt><trkpt lat="43.56651206605065" lon="10.768420389261387"><ele>72.66666666666667</ele><time>2026-04-18T07:39:29Z</time></trkpt><trkpt lat="43.56647899499762" lon="10.768304667582196"><ele>73.33333333333333</ele><time>2026-04-18T07:39:30Z</time></trkpt><trkpt lat="43.566443042212555" lon="10.76822225087675"><ele>74.0</ele><time>2026-04-18T07:39:31Z</time></trkpt><trkpt lat="43.56640027010961" lon="10.76808311829187"><ele>74.66666666666666</ele><time>2026-04-18T07:39:33Z</time></trkpt><trkpt lat="43.566387191722974" lon="10.767982945157184"><ele>75.33333333333333</ele><time>2026-04-18T07:39:38Z</time></trkpt><trkpt lat="43.56644671949628" lon="10.767939895651105"><ele>76.0</ele><time>2026-04-18T07:39:46Z</time></trkpt><trkpt lat="43.56648544515704" lon="10.76809425622058"><ele>76.0</ele><time>2026-04-18T07:39:48Z</time></trkpt><trkpt lat="43.56649014029062" lon="10.768204926939722"><ele>76.0</ele><time>2026-04-18T07:39:49Z</time></trkpt><trkpt lat="43.56652260389042" lon="10.768292272615216"><ele>76.0</ele><time>2026-04-18T07:39:50Z</time></trkpt><trkpt lat="43.56656809956465" lon="10.768378593804266"><ele>76.0</ele><time>2026-04-18T07:39:51Z</time></trkpt><trkpt lat="43.56662629469555" lon="10.76848246938662"><ele>76.0</ele><time>2026-04-18T07:39:52Z</time></trkpt><trkpt lat="43.56670155164672" lon="10.76858177168217"><ele>76.0</ele><time>2026-04-18T07:39:53Z</time></trkpt><trkpt lat="43.5667651607576" lon="10.768670120053223"><ele>75.42857142857143</ele><time>2026-04-18T07:39:54Z</time></trkpt><trkpt lat="43.56680907399097" lon="10.76874503613232"><ele>74.85714285714286</ele><time>2026-04-18T07:39:55Z</time></trkpt><trkpt lat="43.566839611077945" lon="10.768828419911733"><ele>74.28571428571429</ele><time>2026-04-18T07:39:56Z</time></trkpt><trkpt lat="43.566850631573324" lon="10.768942065401937"><ele>73.71428571428572</ele><time>2026-04-18T07:39:57Z</time></trkpt><trkpt lat="43.56688331928287" lon="10.769041603767258"><ele>73.14285714285714</ele><time>2026-04-18T07:39:58Z</time></trkpt><trkpt lat="43.56692875371682" lon="10.769105598312034"><ele>72.57142857142858</ele><time>2026-04-18T07:39:59Z</time></trkpt><trkpt lat="43.567001459034934" lon="10.769126381562911"><ele>72.0</ele><time>2026-04-18T07:40:00Z</time></trkpt><trkpt lat="43.56706546093148" lon="10.769167177132402"><ele>75.83333333333333</ele><time>2026-04-18T07:40:01Z</time></trkpt><trkpt lat="43.567112718062006" lon="10.769253407589666"><ele>79.66666666666667</ele><time>2026-04-18T07:40:03Z</time></trkpt><trkpt lat="43.567164144488245" lon="10.769367581240344"><ele>83.5</ele><time>2026-04-18T07:40:06.001Z</time></trkpt><trkpt lat="43.56723080558009" lon="10.769422162160001"><ele>87.33333333333334</ele><time>2026-04-18T07:40:09.001Z</time></trkpt><trkpt lat="43.56736113760649" lon="10.769428660781273"><ele>91.16666666666667</ele><time>2026-04-18T07:40:11.001Z</time></trkpt><trkpt lat="43.56742632098321" lon="10.769439583155975"><ele>95.0</ele><time>2026-04-18T07:40:12.001Z</time></trkpt><trkpt lat="43.567497552988826" lon="10.7694397030105"><ele>95.0</ele><time>2026-04-18T07:40:13.001Z</time></trkpt><trkpt lat="43.56756482612694" lon="10.769440664304879"><ele>95.0</ele><time>2026-04-18T07:40:14.001Z</time></trkpt><trkpt lat="43.567653473084654" lon="10.769427468618922"><ele>95.0</ele><time>2026-04-18T07:40:15.001Z</time></trkpt><trkpt lat="43.567719619559874" lon="10.769460373967219"><ele>95.0</ele><time>2026-04-18T07:40:16.001Z</time></trkpt><trkpt lat="43.56781129707442" lon="10.769482650040649"><ele>95.0</ele><time>2026-04-18T07:40:17.001Z</time></trkpt><trkpt lat="43.567876263139965" lon="10.769503215815527"><ele>95.0</ele><time>2026-04-18T07:40:18.001Z</time></trkpt><trkpt lat="43.567975177550736" lon="10.769552486108243"><ele>98.0</ele><time>2026-04-18T07:40:20.001Z</time></trkpt><trkpt lat="43.568055587215085" lon="10.769589453507884"><ele>101.0</ele><time>2026-04-18T07:40:21.001Z</time></trkpt><trkpt lat="43.56812819076978" lon="10.769657385899299"><ele>104.0</ele><time>2026-04-18T07:40:22.001Z</time></trkpt><trkpt lat="43.56820198491983" lon="10.769713525014298"><ele>107.0</ele><time>2026-04-18T07:40:23.001Z</time></trkpt><trkpt lat="43.56827575618598" lon="10.769802181432228"><ele>109.99999999999999</ele><time>2026-04-18T07:40:25.001Z</time></trkpt><trkpt lat="43.56832261057702" lon="10.769885640664528"><ele>113.0</ele><time>2026-04-18T07:40:27.001Z</time></trkpt><trkpt lat="43.5683454154528" lon="10.769984830148262"><ele>112.99999999999999</ele><time>2026-04-18T07:40:30.001Z</time></trkpt><trkpt lat="43.56830065647752" lon="10.770063031532072"><ele>113.0</ele><time>2026-04-18T07:40:31.001Z</time></trkpt><trkpt lat="43.56826424234871" lon="10.770140843574453"><ele>113.0</ele><time>2026-04-18T07:40:32.001Z</time></trkpt><trkpt lat="43.568190787414686" lon="10.770260403489939"><ele>113.0</ele><time>2026-04-18T07:40:34.001Z</time></trkpt><trkpt lat="43.56816353143777" lon="10.770352500953088"><ele>112.99999999999999</ele><time>2026-04-18T07:40:35.001Z</time></trkpt><trkpt lat="43.5681351392868" lon="10.77044272481166"><ele>113.0</ele><time>2026-04-18T07:40:36.001Z</time></trkpt><trkpt lat="43.56809151961779" lon="10.770539132055442"><ele>113.14285714285714</ele><time>2026-04-18T07:40:37.001Z</time></trkpt><trkpt lat="43.568049778173716" lon="10.770639811057956"><ele>113.28571428571428</ele><time>2026-04-18T07:40:38.001Z</time></trkpt><trkpt lat="43.56800564980457" lon="10.770715936761226"><ele>113.42857142857142</ele><time>2026-04-18T07:40:39.001Z</time></trkpt><trkpt lat="43.56796632637118" lon="10.770785553438671"><ele>113.57142857142857</ele><time>2026-04-18T07:40:40.001Z</time></trkpt><trkpt lat="43.56792437473506" lon="10.770876211842678"><ele>113.7142857142857</ele><time>2026-04-18T07:40:41.001Z</time></trkpt><trkpt lat="43.56789217114631" lon="10.770957666480577"><ele>113.85714285714285</ele><time>2026-04-18T07:40:42.001Z</time></trkpt><trkpt lat="43.56786276713504" lon="10.771055448826521"><ele>114.0</ele><time>2026-04-18T07:40:43.001Z</time></trkpt><trkpt lat="43.567823145308225" lon="10.771162100647254"><ele>114.0</ele><time>2026-04-18T07:40:44.001Z</time></trkpt><trkpt lat="43.56778759348353" lon="10.77127900754494"><ele>114.0</ele><time>2026-04-18T07:40:45.001Z</time></trkpt><trkpt lat="43.56775707468575" lon="10.77139932723625"><ele>114.0</ele><time>2026-04-18T07:40:46.001Z</time></trkpt><trkpt lat="43.567741244790845" lon="10.771530905075622"><ele>114.0</ele><time>2026-04-18T07:40:47.001Z</time></trkpt><trkpt lat="43.56773580792453" lon="10.771659676781077"><ele>114.0</ele><time>2026-04-18T07:40:48.001Z</time></trkpt><trkpt lat="43.567710972964214" lon="10.771753032421918"><ele>114.0</ele><time>2026-04-18T07:40:49.001Z</time></trkpt><trkpt lat="43.567701376791895" lon="10.77188662846615"><ele>113.6</ele><time>2026-04-18T07:40:51.001Z</time></trkpt><trkpt lat="43.567778462243716" lon="10.772054953710697"><ele>113.2</ele><time>2026-04-18T07:40:53.001Z</time></trkpt><trkpt lat="43.56783198170904" lon="10.772182915623532"><ele>112.79999999999998</ele><time>2026-04-18T07:40:54.001Z</time></trkpt><trkpt lat="43.56788316924787" lon="10.772307492835665"><ele>112.39999999999999</ele><time>2026-04-18T07:40:55.001Z</time></trkpt><trkpt lat="43.56793186004288" lon="10.77241847612825"><ele>112.0</ele><time>2026-04-18T07:40:56.001Z</time></trkpt><trkpt lat="43.56796287692472" lon="10.77249802760406"><ele>113.8</ele><time>2026-04-18T07:40:57.001Z</time></trkpt><trkpt lat="43.5679646333817" lon="10.772647985461733"><ele>115.6</ele><time>2026-04-18T07:40:59.001Z</time></trkpt><trkpt lat="43.567983531919175" lon="10.772791176070491"><ele>117.39999999999999</ele><time>2026-04-18T07:41:01.001Z</time></trkpt><trkpt lat="43.56804067421903" lon="10.772920509619212"><ele>119.19999999999999</ele><time>2026-04-18T07:41:03.001Z</time></trkpt><trkpt lat="43.568087681588544" lon="10.773076234033073"><ele>121.0</ele><time>2026-04-18T07:41:05.001Z</time></trkpt><trkpt lat="43.56810127323201" lon="10.773177927028815"><ele>121.16666666666667</ele><time>2026-04-18T07:41:06.001Z</time></trkpt><trkpt lat="43.5681026706771" lon="10.77329542450788"><ele>121.33333333333334</ele><time>2026-04-18T07:41:07.001Z</time></trkpt><trkpt lat="43.56808308047138" lon="10.773378207157014"><ele>121.5</ele><time>2026-04-18T07:41:08.001Z</time></trkpt><trkpt lat="43.56806139216137" lon="10.773485262334527"><ele>121.66666666666666</ele><time>2026-04-18T07:41:09.001Z</time></trkpt><trkpt lat="43.56807783735173" lon="10.773593121623643"><ele>121.83333333333333</ele><time>2026-04-18T07:41:10.001Z</time></trkpt><trkpt lat="43.56812287368979" lon="10.773697409119066"><ele>122.0</ele><time>2026-04-18T07:41:11.001Z</time></trkpt><trkpt lat="43.56816743419416" lon="10.773796839889716"><ele>122.39999999999999</ele><time>2026-04-18T07:41:12.001Z</time></trkpt><trkpt lat="43.56820737759304" lon="10.773896412316395"><ele>122.79999999999998</ele><time>2026-04-18T07:41:13.001Z</time></trkpt><trkpt lat="43.56823867859469" lon="10.77399410410378"><ele>123.2</ele><time>2026-04-18T07:41:14.001Z</time></trkpt><trkpt lat="43.568280247380095" lon="10.774125004785745"><ele>123.6</ele><time>2026-04-18T07:41:15.001Z</time></trkpt><trkpt lat="43.568329851509674" lon="10.774266236363781"><ele>124.0</ele><time>2026-04-18T07:41:16.001Z</time></trkpt><trkpt lat="43.56837340432473" lon="10.77440393525483"><ele>124.0</ele><time>2026-04-18T07:41:17.001Z</time></trkpt><trkpt lat="43.56840974527537" lon="10.774561879317712"><ele>124.0</ele><time>2026-04-18T07:41:18.001Z</time></trkpt><trkpt lat="43.56844364204701" lon="10.77473523598354"><ele>124.0</ele><time>2026-04-18T07:41:19.001Z</time></trkpt><trkpt lat="43.56848045773462" lon="10.774924050437724"><ele>124.0</ele><time>2026-04-18T07:41:20.001Z</time></trkpt><trkpt lat="43.56849588145425" lon="10.77509387434597"><ele>121.5</ele><time>2026-04-18T07:41:21.001Z</time></trkpt><trkpt lat="43.568514974040475" lon="10.775236844527306"><ele>119.0</ele><time>2026-04-18T07:41:22.001Z</time></trkpt><trkpt lat="43.56853099038019" lon="10.775421442480337"><ele>116.5</ele><time>2026-04-18T07:41:23.001Z</time></trkpt><trkpt lat="43.568560133839355" lon="10.775576788536886"><ele>114.0</ele><time>2026-04-18T07:41:24.001Z</time></trkpt><trkpt lat="43.56858164797073" lon="10.775714964964848"><ele>114.0</ele><time>2026-04-18T07:41:25.001Z</time></trkpt><trkpt lat="43.56861111433688" lon="10.77587469733106"><ele>114.0</ele><time>2026-04-18T07:41:26.001Z</time></trkpt><trkpt lat="43.568632440730674" lon="10.776039035651047"><ele>114.0</ele><time>2026-04-18T07:41:27.001Z</time></trkpt><trkpt lat="43.56865496210893" lon="10.776214185652572"><ele>114.0</ele><time>2026-04-18T07:41:28.001Z</time></trkpt><trkpt lat="43.56867698000358" lon="10.776378079442708"><ele>114.5</ele><time>2026-04-18T07:41:29.001Z</time></trkpt><trkpt lat="43.56869702478204" lon="10.776532964581172"><ele>115.0</ele><time>2026-04-18T07:41:30.001Z</time></trkpt><trkpt lat="43.56871709132145" lon="10.776699799783142"><ele>115.5</ele><time>2026-04-18T07:41:31.001Z</time></trkpt><trkpt lat="43.56873550556854" lon="10.776869647184645"><ele>116.0</ele><time>2026-04-18T07:41:32.001Z</time></trkpt><trkpt lat="43.56875752084277" lon="10.777037173285969"><ele>116.19999999999999</ele><time>2026-04-18T07:41:33.001Z</time></trkpt><trkpt lat="43.568787419693734" lon="10.77719955800328"><ele>116.39999999999999</ele><time>2026-04-18T07:41:34.001Z</time></trkpt><trkpt lat="43.568821604788646" lon="10.77733758250636"><ele>116.6</ele><time>2026-04-18T07:41:35.001Z</time></trkpt><trkpt lat="43.56884281990023" lon="10.777452023956862"><ele>116.8</ele><time>2026-04-18T07:41:36.001Z</time></trkpt><trkpt lat="43.56886317842665" lon="10.777570326471425"><ele>117.0</ele><time>2026-04-18T07:41:37.001Z</time></trkpt><trkpt lat="43.56887543461964" lon="10.777718316555868"><ele>116.6</ele><time>2026-04-18T07:41:38.001Z</time></trkpt><trkpt lat="43.568867598074426" lon="10.777877622699663"><ele>116.19999999999999</ele><time>2026-04-18T07:41:39.001Z</time></trkpt><trkpt lat="43.568837048372146" lon="10.778024142012846"><ele>115.8</ele><time>2026-04-18T07:41:40.001Z</time></trkpt><trkpt lat="43.568803989465415" lon="10.778167548062562"><ele>115.4</ele><time>2026-04-18T07:41:41.001Z</time></trkpt><trkpt lat="43.568759504506296" lon="10.778284507962264"><ele>115.0</ele><time>2026-04-18T07:41:42.001Z</time></trkpt><trkpt lat="43.568709895088084" lon="10.778379326681295"><ele>115.0</ele><time>2026-04-18T07:41:43.001Z</time></trkpt><trkpt lat="43.56864537005142" lon="10.778494407388454"><ele>115.0</ele><time>2026-04-18T07:41:44.001Z</time></trkpt><trkpt lat="43.56855705404556" lon="10.7786056022319"><ele>115.0</ele><time>2026-04-18T07:41:45.001Z</time></trkpt><trkpt lat="43.568459259405216" lon="10.778716944789497"><ele>115.0</ele><time>2026-04-18T07:41:46.001Z</time></trkpt><trkpt lat="43.56835923440592" lon="10.778831574553271"><ele>116.25</ele><time>2026-04-18T07:41:47.001Z</time></trkpt><trkpt lat="43.56825578469314" lon="10.778933915025814"><ele>117.5</ele><time>2026-04-18T07:41:48.001Z</time></trkpt><trkpt lat="43.568152715362686" lon="10.779022279209997"><ele>118.75</ele><time>2026-04-18T07:41:49.001Z</time></trkpt><trkpt lat="43.56806229933051" lon="10.779129315214162"><ele>120.0</ele><time>2026-04-18T07:41:50.001Z</time></trkpt><trkpt lat="43.5680065957076" lon="10.77925282014564"><ele>119.33333333333333</ele><time>2026-04-18T07:41:51.001Z</time></trkpt><trkpt lat="43.56797668879792" lon="10.779383088328656"><ele>118.66666666666666</ele><time>2026-04-18T07:41:52.001Z</time></trkpt><trkpt lat="43.56795890155971" lon="10.77950263143086"><ele>118.0</ele><time>2026-04-18T07:41:53.001Z</time></trkpt><trkpt lat="43.56793311972265" lon="10.779621202616406"><ele>117.33333333333333</ele><time>2026-04-18T07:41:54.001Z</time></trkpt><trkpt lat="43.56789343210863" lon="10.779734133260314"><ele>116.66666666666666</ele><time>2026-04-18T07:41:55.001Z</time></trkpt><trkpt lat="43.56784619115353" lon="10.779824168213166"><ele>116.0</ele><time>2026-04-18T07:41:56.001Z</time></trkpt><trkpt lat="43.56781109554023" lon="10.779907558772956"><ele>116.0</ele><time>2026-04-18T07:41:57.001Z</time></trkpt><trkpt lat="43.56778654140409" lon="10.780013195936622"><ele>116.0</ele><time>2026-04-18T07:41:58.001Z</time></trkpt><trkpt lat="43.56778441517418" lon="10.780164061767113"><ele>116.0</ele><time>2026-04-18T07:42:00.001Z</time></trkpt><trkpt lat="43.56776017276896" lon="10.780268816226338"><ele>116.0</ele><time>2026-04-18T07:42:01.001Z</time></trkpt><trkpt lat="43.56773585986736" lon="10.780427511145312"><ele>116.0</ele><time>2026-04-18T07:42:02.001Z</time></trkpt><trkpt lat="43.56770957182933" lon="10.780568799273972"><ele>116.6</ele><time>2026-04-18T07:42:03.001Z</time></trkpt><trkpt lat="43.567687139562004" lon="10.78069900296823"><ele>117.19999999999999</ele><time>2026-04-18T07:42:04.001Z</time></trkpt><trkpt lat="43.567664595038245" lon="10.78081893374565"><ele>117.80000000000001</ele><time>2026-04-18T07:42:05.001Z</time></trkpt><trkpt lat="43.567629947228376" lon="10.780972426463395"><ele>118.4</ele><time>2026-04-18T07:42:06.001Z</time></trkpt><trkpt lat="43.56761146174972" lon="10.781132379512966"><ele>119.0</ele><time>2026-04-18T07:42:07.001Z</time></trkpt><trkpt lat="43.56760883133965" lon="10.78127877509706"><ele>119.6</ele><time>2026-04-18T07:42:08.001Z</time></trkpt><trkpt lat="43.567620906800975" lon="10.781408175122122"><ele>120.2</ele><time>2026-04-18T07:42:09.001Z</time></trkpt><trkpt lat="43.56761085002529" lon="10.7814969019454"><ele>120.79999999999998</ele><time>2026-04-18T07:42:10.001Z</time></trkpt><trkpt lat="43.567537602564656" lon="10.781626287684508"><ele>121.39999999999999</ele><time>2026-04-18T07:42:12.001Z</time></trkpt><trkpt lat="43.56748690928464" lon="10.781692705903353"><ele>122.0</ele><time>2026-04-18T07:42:13.001Z</time></trkpt><trkpt lat="43.56740733497004" lon="10.78178670144795"><ele>121.39999999999999</ele><time>2026-04-18T07:42:14.001Z</time></trkpt><trkpt lat="43.56733270686073" lon="10.781862358287604"><ele>120.79999999999998</ele><time>2026-04-18T07:42:15.001Z</time></trkpt><trkpt lat="43.567251876226706" lon="10.781973099651408"><ele>120.2</ele><time>2026-04-18T07:42:16.001Z</time></trkpt><trkpt lat="43.56718938128276" lon="10.782089002939012"><ele>119.6</ele><time>2026-04-18T07:42:17.001Z</time></trkpt><trkpt lat="43.567136676928584" lon="10.782220816470986"><ele>119.0</ele><time>2026-04-18T07:42:18.001Z</time></trkpt><trkpt lat="43.56709509852164" lon="10.782359404632897"><ele>119.0</ele><time>2026-04-18T07:42:19.001Z</time></trkpt><trkpt lat="43.567045856693966" lon="10.782499120894274"><ele>119.0</ele><time>2026-04-18T07:42:20.001Z</time></trkpt><trkpt lat="43.56700029909293" lon="10.782655248823142"><ele>119.0</ele><time>2026-04-18T07:42:21.001Z</time></trkpt><trkpt lat="43.56695158322064" lon="10.782812301820373"><ele>119.0</ele><time>2026-04-18T07:42:22.001Z</time></trkpt><trkpt lat="43.56690457944218" lon="10.782982799557795"><ele>121.0</ele><time>2026-04-18T07:42:23.001Z</time></trkpt><trkpt lat="43.566854308801176" lon="10.78314226655338"><ele>123.0</ele><time>2026-04-18T07:42:24.001Z</time></trkpt><trkpt lat="43.566807641911765" lon="10.783307564211997"><ele>125.0</ele><time>2026-04-18T07:42:25.001Z</time></trkpt><trkpt lat="43.56675536005229" lon="10.78346918515333"><ele>127.0</ele><time>2026-04-18T07:42:26.001Z</time></trkpt><trkpt lat="43.566724126247024" lon="10.783584810042456"><ele>127.39999999999999</ele><time>2026-04-18T07:42:27.001Z</time></trkpt><trkpt lat="43.566706977690565" lon="10.783690062723192"><ele>127.79999999999998</ele><time>2026-04-18T07:42:28.001Z</time></trkpt><trkpt lat="43.56665783347655" lon="10.783812336696487"><ele>128.2</ele><time>2026-04-18T07:42:29.001Z</time></trkpt><trkpt lat="43.56659528611506" lon="10.783932037505354"><ele>128.6</ele><time>2026-04-18T07:42:30.001Z</time></trkpt><trkpt lat="43.5665262259587" lon="10.78406682637532"><ele>129.0</ele><time>2026-04-18T07:42:31.001Z</time></trkpt><trkpt lat="43.566461847556646" lon="10.784203722149858"><ele>129.0</ele><time>2026-04-18T07:42:32.001Z</time></trkpt><trkpt lat="43.56639051691819" lon="10.78434134808274"><ele>129.0</ele><time>2026-04-18T07:42:33.001Z</time></trkpt><trkpt lat="43.56632429534495" lon="10.784464317455834"><ele>129.0</ele><time>2026-04-18T07:42:34.001Z</time></trkpt><trkpt lat="43.56625590519758" lon="10.784578027413938"><ele>129.0</ele><time>2026-04-18T07:42:35.001Z</time></trkpt><trkpt lat="43.56617682844749" lon="10.784669258198402"><ele>129.0</ele><time>2026-04-18T07:42:36.001Z</time></trkpt><trkpt lat="43.56609146647148" lon="10.7847500090368"><ele>130.0</ele><time>2026-04-18T07:42:37.001Z</time></trkpt><trkpt lat="43.56601975414595" lon="10.784811962493295"><ele>131.0</ele><time>2026-04-18T07:42:38.001Z</time></trkpt><trkpt lat="43.56596043732674" lon="10.784849117734407"><ele>132.0</ele><time>2026-04-18T07:42:39.001Z</time></trkpt><trkpt lat="43.56587580558886" lon="10.784927885727388"><ele>133.0</ele><time>2026-04-18T07:42:41.001Z</time></trkpt><trkpt lat="43.56583938946243" lon="10.785082782607194"><ele>134.0</ele><time>2026-04-18T07:42:43.001Z</time></trkpt><trkpt lat="43.565812120564914" lon="10.785182533160658"><ele>135.0</ele><time>2026-04-18T07:42:44.001Z</time></trkpt><trkpt lat="43.565780870430984" lon="10.785295366273221"><ele>135.0</ele><time>2026-04-18T07:42:45.001Z</time></trkpt><trkpt lat="43.565744297122116" lon="10.785435464667408"><ele>135.0</ele><time>2026-04-18T07:42:46.001Z</time></trkpt><trkpt lat="43.565710308779984" lon="10.785570621494957"><ele>135.0</ele><time>2026-04-18T07:42:47.001Z</time></trkpt><trkpt lat="43.56566887179078" lon="10.785642253106246"><ele>135.0</ele><time>2026-04-18T07:42:48.001Z</time></trkpt><trkpt lat="43.56561736682412" lon="10.785748094687305"><ele>135.0</ele><time>2026-04-18T07:42:49.001Z</time></trkpt><trkpt lat="43.565571203041884" lon="10.785858819993214"><ele>135.0</ele><time>2026-04-18T07:42:50.001Z</time></trkpt><trkpt lat="43.56554142039864" lon="10.785950770959664"><ele>135.0</ele><time>2026-04-18T07:42:51.001Z</time></trkpt><trkpt lat="43.56549605058436" lon="10.786047840419924"><ele>135.0</ele><time>2026-04-18T07:42:52.001Z</time></trkpt><trkpt lat="43.56546609458243" lon="10.786225339367483"><ele>135.0</ele><time>2026-04-18T07:42:54Z</time></trkpt><trkpt lat="43.565449472396885" lon="10.78635240705658"><ele>135.0</ele><time>2026-04-18T07:42:55Z</time></trkpt><trkpt lat="43.565436464549116" lon="10.786466006870981"><ele>135.0</ele><time>2026-04-18T07:42:56Z</time></trkpt><trkpt lat="43.56543255435654" lon="10.786567683342899"><ele>135.0</ele><time>2026-04-18T07:42:57Z</time></trkpt><trkpt lat="43.56530503689269" lon="10.786631297199333"><ele>135.0</ele><time>2026-04-18T07:42:58Z</time></trkpt><trkpt lat="43.56527255190849" lon="10.786716391705166"><ele>135.0</ele><time>2026-04-18T07:42:59Z</time></trkpt><trkpt lat="43.56522537373922" lon="10.78681271855496"><ele>135.0</ele><time>2026-04-18T07:43:00Z</time></trkpt><trkpt lat="43.56516700782925" lon="10.786883519673825"><ele>135.0</ele><time>2026-04-18T07:43:01Z</time></trkpt><trkpt lat="43.56509459844498" lon="10.78692987536238"><ele>135.0</ele><time>2026-04-18T07:43:02Z</time></trkpt><trkpt lat="43.564965986793595" lon="10.787031153240294"><ele>135.0</ele><time>2026-04-18T07:43:03Z</time></trkpt><trkpt lat="43.56488981169841" lon="10.787204040829279"><ele>135.0</ele><time>2026-04-18T07:43:04Z</time></trkpt><trkpt lat="43.56484323976693" lon="10.787314478532576"><ele>135.0</ele><time>2026-04-18T07:43:05Z</time></trkpt><trkpt lat="43.56485726217579" lon="10.787442876039702"><ele>135.0</ele><time>2026-04-18T07:43:06Z</time></trkpt><trkpt lat="43.564849142736804" lon="10.787633558364675"><ele>135.0</ele><time>2026-04-18T07:43:08Z</time></trkpt><trkpt lat="43.564838144703195" lon="10.787780420084365"><ele>135.0</ele><time>2026-04-18T07:43:09Z</time></trkpt><trkpt lat="43.56480920256043" lon="10.787913873754064"><ele>135.0</ele><time>2026-04-18T07:43:10Z</time></trkpt><trkpt lat="43.56476434845843" lon="10.788048902300282"><ele>135.16666666666666</ele><time>2026-04-18T07:43:11Z</time></trkpt><trkpt lat="43.564697724166464" lon="10.78815836555175"><ele>135.33333333333334</ele><time>2026-04-18T07:43:12Z</time></trkpt><trkpt lat="43.564666273393286" lon="10.78827476189253"><ele>135.5</ele><time>2026-04-18T07:43:13Z</time></trkpt><trkpt lat="43.56461569346681" lon="10.788381145105348"><ele>135.66666666666669</ele><time>2026-04-18T07:43:14Z</time></trkpt><trkpt lat="43.56458624930161" lon="10.788462154545387"><ele>135.83333333333334</ele><time>2026-04-18T07:43:15Z</time></trkpt><trkpt lat="43.56457098221272" lon="10.7885490808538"><ele>136.0</ele><time>2026-04-18T07:43:16Z</time></trkpt><trkpt lat="43.56456840832989" lon="10.788666734220877"><ele>136.0</ele><time>2026-04-18T07:43:17Z</time></trkpt><trkpt lat="43.56456652564625" lon="10.788805042113644"><ele>136.0</ele><time>2026-04-18T07:43:18Z</time></trkpt><trkpt lat="43.564585172361795" lon="10.788943931136993"><ele>136.0</ele><time>2026-04-18T07:43:19Z</time></trkpt><trkpt lat="43.564563688031306" lon="10.789070155619182"><ele>136.0</ele><time>2026-04-18T07:43:20Z</time></trkpt><trkpt lat="43.5645240764662" lon="10.789202239292077"><ele>136.0</ele><time>2026-04-18T07:43:21Z</time></trkpt><trkpt lat="43.56448617664247" lon="10.789333119688676"><ele>135.4</ele><time>2026-04-18T07:43:22Z</time></trkpt><trkpt lat="43.56444815848852" lon="10.789458211105716"><ele>134.8</ele><time>2026-04-18T07:43:23Z</time></trkpt><trkpt lat="43.564407154653395" lon="10.789603452534813"><ele>134.20000000000002</ele><time>2026-04-18T07:43:24Z</time></trkpt><trkpt lat="43.56437437622518" lon="10.789759751638927"><ele>133.6</ele><time>2026-04-18T07:43:25Z</time></trkpt><trkpt lat="43.56436507512741" lon="10.789888396563127"><ele>133.0</ele><time>2026-04-18T07:43:26Z</time></trkpt><trkpt lat="43.56437714028682" lon="10.789995359409716"><ele>133.0</ele><time>2026-04-18T07:43:27Z</time></trkpt><trkpt lat="43.56436321398369" lon="10.790126269500622"><ele>133.0</ele><time>2026-04-18T07:43:28Z</time></trkpt><trkpt lat="43.56432143997141" lon="10.7902619139042"><ele>133.0</ele><time>2026-04-18T07:43:29Z</time></trkpt><trkpt lat="43.564277564640115" lon="10.790418415448082"><ele>133.0</ele><time>2026-04-18T07:43:30Z</time></trkpt><trkpt lat="43.56423149791566" lon="10.790569912914604"><ele>133.0</ele><time>2026-04-18T07:43:31Z</time></trkpt><trkpt lat="43.56420157660333" lon="10.790723979557603"><ele>133.6</ele><time>2026-04-18T07:43:32Z</time></trkpt><trkpt lat="43.56416248152721" lon="10.79085301476224"><ele>134.20000000000002</ele><time>2026-04-18T07:43:33Z</time></trkpt><trkpt lat="43.5641422026761" lon="10.79096971941232"><ele>134.8</ele><time>2026-04-18T07:43:34Z</time></trkpt><trkpt lat="43.56412957022291" lon="10.791103719233035"><ele>135.4</ele><time>2026-04-18T07:43:35Z</time></trkpt><trkpt lat="43.56412727748089" lon="10.791223527245359"><ele>136.0</ele><time>2026-04-18T07:43:36Z</time></trkpt><trkpt lat="43.564132269746906" lon="10.791374934259732"><ele>136.0</ele><time>2026-04-18T07:43:37Z</time></trkpt><trkpt lat="43.564104361026835" lon="10.791516407607672"><ele>136.0</ele><time>2026-04-18T07:43:38Z</time></trkpt><trkpt lat="43.56407255968137" lon="10.791666152037621"><ele>136.0</ele><time>2026-04-18T07:43:39Z</time></trkpt><trkpt lat="43.56406825653769" lon="10.79181682835088"><ele>136.0</ele><time>2026-04-18T07:43:40Z</time></trkpt><trkpt lat="43.564049576247626" lon="10.791936639916578"><ele>136.0</ele><time>2026-04-18T07:43:41Z</time></trkpt><trkpt lat="43.56405107868446" lon="10.792044544219035"><ele>137.75</ele><time>2026-04-18T07:43:42Z</time></trkpt><trkpt lat="43.56407355433232" lon="10.792168626278045"><ele>139.5</ele><time>2026-04-18T07:43:43Z</time></trkpt><trkpt lat="43.56410185069386" lon="10.792330031553076"><ele>141.25</ele><time>2026-04-18T07:43:44Z</time></trkpt><trkpt lat="43.56410904333826" lon="10.792624711234827"><ele>143.0</ele><time>2026-04-18T07:43:46Z</time></trkpt><trkpt lat="43.56413185125335" lon="10.792716139480126"><ele>144.20000000000002</ele><time>2026-04-18T07:43:47Z</time></trkpt><trkpt lat="43.564160168340244" lon="10.792897815632402"><ele>145.4</ele><time>2026-04-18T07:43:49Z</time></trkpt><trkpt lat="43.564192758270764" lon="10.792996090481202"><ele>146.60000000000002</ele><time>2026-04-18T07:43:50Z</time></trkpt><trkpt lat="43.56422274550996" lon="10.793096948253824"><ele>147.8</ele><time>2026-04-18T07:43:51Z</time></trkpt><trkpt lat="43.564262620258944" lon="10.793210774023303"><ele>149.0</ele><time>2026-04-18T07:43:52Z</time></trkpt><trkpt lat="43.5643084378321" lon="10.793326228413404"><ele>149.0</ele><time>2026-04-18T07:43:53Z</time></trkpt><trkpt lat="43.564319914409" lon="10.79346100021704"><ele>149.0</ele><time>2026-04-18T07:43:54Z</time></trkpt><trkpt lat="43.564335554694715" lon="10.7936048586036"><ele>149.0</ele><time>2026-04-18T07:43:55Z</time></trkpt><trkpt lat="43.56433228040836" lon="10.793742977545723"><ele>149.0</ele><time>2026-04-18T07:43:56Z</time></trkpt><trkpt lat="43.56433784966664" lon="10.793860264455157"><ele>149.0</ele><time>2026-04-18T07:43:57Z</time></trkpt><trkpt lat="43.564337349291804" lon="10.793961103173633"><ele>149.0</ele><time>2026-04-18T07:43:58Z</time></trkpt><trkpt lat="43.56432674737726" lon="10.79409643496047"><ele>149.0</ele><time>2026-04-18T07:43:59Z</time></trkpt><trkpt lat="43.56431122007535" lon="10.794259095499571"><ele>149.0</ele><time>2026-04-18T07:44:00Z</time></trkpt><trkpt lat="43.56429480929012" lon="10.794414038490661"><ele>149.0</ele><time>2026-04-18T07:44:01Z</time></trkpt><trkpt lat="43.56427317410354" lon="10.794565883919127"><ele>149.0</ele><time>2026-04-18T07:44:02Z</time></trkpt><trkpt lat="43.56426526007441" lon="10.79472798691148"><ele>149.0</ele><time>2026-04-18T07:44:03Z</time></trkpt><trkpt lat="43.5642455978216" lon="10.79488793501248"><ele>149.0</ele><time>2026-04-18T07:44:04Z</time></trkpt><trkpt lat="43.56423323387041" lon="10.79503804619323"><ele>149.0</ele><time>2026-04-18T07:44:05Z</time></trkpt><trkpt lat="43.564224241481675" lon="10.795162039566627"><ele>149.0</ele><time>2026-04-18T07:44:06Z</time></trkpt><trkpt lat="43.56420380098694" lon="10.795249079827975"><ele>149.0</ele><time>2026-04-18T07:44:07Z</time></trkpt><trkpt lat="43.5641969942481" lon="10.795370266699253"><ele>149.75</ele><time>2026-04-18T07:44:08Z</time></trkpt><trkpt lat="43.56415419132164" lon="10.79551975052078"><ele>150.5</ele><time>2026-04-18T07:44:09Z</time></trkpt><trkpt lat="43.56409432900471" lon="10.79569341875613"><ele>151.25</ele><time>2026-04-18T07:44:10Z</time></trkpt><trkpt lat="43.56401906740994" lon="10.795849661057394"><ele>152.0</ele><time>2026-04-18T07:44:11.001Z</time></trkpt><trkpt lat="43.563935654256035" lon="10.795992938461271"><ele>152.79999999999998</ele><time>2026-04-18T07:44:12.001Z</time></trkpt><trkpt lat="43.56386289580358" lon="10.796114543283789"><ele>153.6</ele><time>2026-04-18T07:44:13.001Z</time></trkpt><trkpt lat="43.56380326840398" lon="10.796226618004676"><ele>154.39999999999998</ele><time>2026-04-18T07:44:14Z</time></trkpt><trkpt lat="43.56375239591191" lon="10.796322535477742"><ele>155.2</ele><time>2026-04-18T07:44:15Z</time></trkpt><trkpt lat="43.56372822592391" lon="10.796453413905597"><ele>156.0</ele><time>2026-04-18T07:44:18Z</time></trkpt><trkpt lat="43.56371784422051" lon="10.796609849549679"><ele>156.0</ele><time>2026-04-18T07:44:20Z</time></trkpt><trkpt lat="43.563720954380045" lon="10.796748803257007"><ele>156.0</ele><time>2026-04-18T07:44:21Z</time></trkpt><trkpt lat="43.56372921148957" lon="10.79686336048997"><ele>156.0</ele><time>2026-04-18T07:44:22Z</time></trkpt><trkpt lat="43.5637559641946" lon="10.797007730697327"><ele>156.0</ele><time>2026-04-18T07:44:23Z</time></trkpt><trkpt lat="43.563803255705906" lon="10.79716841752767"><ele>156.0</ele><time>2026-04-18T07:44:24Z</time></trkpt><trkpt lat="43.56385447283636" lon="10.797268664738658"><ele>159.0</ele><time>2026-04-18T07:44:25Z</time></trkpt><trkpt lat="43.5639167884639" lon="10.797379061247268"><ele>162.0</ele><time>2026-04-18T07:44:26Z</time></trkpt><trkpt lat="43.56403774741441" lon="10.797595025959824"><ele>165.0</ele><time>2026-04-18T07:44:27Z</time></trkpt><trkpt lat="43.564087770147246" lon="10.798012167584845"><ele>166.8</ele><time>2026-04-18T07:44:28Z</time></trkpt><trkpt lat="43.564067957292735" lon="10.798192820482276"><ele>168.6</ele><time>2026-04-18T07:44:29Z</time></trkpt><trkpt lat="43.5640451521728" lon="10.79833504824172"><ele>170.39999999999998</ele><time>2026-04-18T07:44:30Z</time></trkpt><trkpt lat="43.564024142801166" lon="10.798441525752597"><ele>172.2</ele><time>2026-04-18T07:44:31Z</time></trkpt><trkpt lat="43.56400312654559" lon="10.798531406849062"><ele>174.0</ele><time>2026-04-18T07:44:32Z</time></trkpt><trkpt lat="43.56397012124503" lon="10.798655209366535"><ele>175.0</ele><time>2026-04-18T07:44:34Z</time></trkpt><trkpt lat="43.56393272583888" lon="10.798742083417556"><ele>176.0</ele><time>2026-04-18T07:44:55Z</time></trkpt><trkpt lat="43.5639112190817" lon="10.798863767272973"><ele>177.0</ele><time>2026-04-18T07:44:59Z</time></trkpt><trkpt lat="43.56386419403519" lon="10.7989869177834"><ele>178.0</ele><time>2026-04-18T07:45:01Z</time></trkpt><trkpt lat="43.563836935844094" lon="10.799083596608702"><ele>179.0</ele><time>2026-04-18T07:45:02Z</time></trkpt><trkpt lat="43.56381604972117" lon="10.799191644826307"><ele>180.0</ele><time>2026-04-18T07:45:03Z</time></trkpt><trkpt lat="43.563814786405196" lon="10.799309201680972"><ele>180.83333333333334</ele><time>2026-04-18T07:45:04Z</time></trkpt><trkpt lat="43.56384628327118" lon="10.799393802272162"><ele>181.66666666666666</ele><time>2026-04-18T07:45:05Z</time></trkpt><trkpt lat="43.56389127079139" lon="10.799496983208648"><ele>182.5</ele><time>2026-04-18T07:45:06Z</time></trkpt><trkpt lat="43.56390245104907" lon="10.799587196921111"><ele>183.33333333333331</ele><time>2026-04-18T07:45:07Z</time></trkpt><trkpt lat="43.56394289336674" lon="10.799732273311985"><ele>184.16666666666666</ele><time>2026-04-18T07:45:09Z</time></trkpt><trkpt lat="43.563961346255205" lon="10.799850747387222"><ele>185.0</ele><time>2026-04-18T07:45:11Z</time></trkpt><trkpt lat="43.56406741049786" lon="10.7999381136523"><ele>185.0</ele><time>2026-04-18T07:45:15Z</time></trkpt><trkpt lat="43.56418088409424" lon="10.800026544738044"><ele>185.0</ele><time>2026-04-18T07:45:17Z</time></trkpt><trkpt lat="43.564264025106134" lon="10.800083321871499"><ele>185.0</ele><time>2026-04-18T07:45:18Z</time></trkpt><trkpt lat="43.5643570269638" lon="10.800138499697962"><ele>185.0</ele><time>2026-04-18T07:45:19Z</time></trkpt><trkpt lat="43.56445843490302" lon="10.800191337465021"><ele>185.0</ele><time>2026-04-18T07:45:20Z</time></trkpt><trkpt lat="43.56455155539853" lon="10.800234753707235"><ele>184.0</ele><time>2026-04-18T07:45:21Z</time></trkpt><trkpt lat="43.564622359980376" lon="10.800267597003653"><ele>183.0</ele><time>2026-04-18T07:45:22Z</time></trkpt><trkpt lat="43.56468964426814" lon="10.800283491434945"><ele>182.0</ele><time>2026-04-18T07:45:23Z</time></trkpt><trkpt lat="43.56480248527156" lon="10.800340138708162"><ele>181.0</ele><time>2026-04-18T07:45:25Z</time></trkpt><trkpt lat="43.564931461160356" lon="10.800398642174784"><ele>180.0</ele><time>2026-04-18T07:45:27Z</time></trkpt><trkpt lat="43.564998504376476" lon="10.800444248870079"><ele>180.0</ele><time>2026-04-18T07:45:28Z</time></trkpt><trkpt lat="43.56509164755187" lon="10.800459126192226"><ele>180.0</ele><time>2026-04-18T07:45:29Z</time></trkpt><trkpt lat="43.56520946772572" lon="10.800450087132152"><ele>180.0</ele><time>2026-04-18T07:45:30Z</time></trkpt><trkpt lat="43.56533642237407" lon="10.80042360876345"><ele>180.0</ele><time>2026-04-18T07:45:31Z</time></trkpt><trkpt lat="43.56544826979091" lon="10.800437259065676"><ele>180.5</ele><time>2026-04-18T07:45:32Z</time></trkpt><trkpt lat="43.56555455585638" lon="10.800508110160875"><ele>181.0</ele><time>2026-04-18T07:45:33Z</time></trkpt><trkpt lat="43.56564099458584" lon="10.800606890304827"><ele>181.5</ele><time>2026-04-18T07:45:34Z</time></trkpt><trkpt lat="43.56571693931663" lon="10.80073431770539"><ele>182.0</ele><time>2026-04-18T07:45:35Z</time></trkpt><trkpt lat="43.565823351387294" lon="10.800873972527551"><ele>182.0</ele><time>2026-04-18T07:45:36Z</time></trkpt><trkpt lat="43.56593671858743" lon="10.800975123876938"><ele>182.0</ele><time>2026-04-18T07:45:37Z</time></trkpt><trkpt lat="43.56608862820278" lon="10.801056483050532"><ele>182.0</ele><time>2026-04-18T07:45:38Z</time></trkpt><trkpt lat="43.5662388651615" lon="10.801172211715226"><ele>182.33333333333331</ele><time>2026-04-18T07:45:39Z</time></trkpt><trkpt lat="43.56640625704225" lon="10.801283498341213"><ele>182.66666666666666</ele><time>2026-04-18T07:45:40Z</time></trkpt><trkpt lat="43.5665869598321" lon="10.80139820156139"><ele>183.0</ele><time>2026-04-18T07:45:41Z</time></trkpt><trkpt lat="43.5667802547071" lon="10.801516637141756"><ele>183.0</ele><time>2026-04-18T07:45:42Z</time></trkpt><trkpt lat="43.56696449075514" lon="10.801631845311302"><ele>183.0</ele><time>2026-04-18T07:45:43Z</time></trkpt><trkpt lat="43.56714995811742" lon="10.80173627626192"><ele>183.0</ele><time>2026-04-18T07:45:44Z</time></trkpt><trkpt lat="43.56734832898286" lon="10.801806846769313"><ele>183.0</ele><time>2026-04-18T07:45:45Z</time></trkpt><trkpt lat="43.567532971491545" lon="10.801857689428234"><ele>183.0</ele><time>2026-04-18T07:45:46Z</time></trkpt><trkpt lat="43.5677218797105" lon="10.801905632426307"><ele>183.0</ele><time>2026-04-18T07:45:47Z</time></trkpt><trkpt lat="43.56791492229648" lon="10.80191646531159"><ele>182.33333333333334</ele><time>2026-04-18T07:45:48Z</time></trkpt><trkpt lat="43.56810769540169" lon="10.801923901971822"><ele>181.66666666666669</ele><time>2026-04-18T07:45:49Z</time></trkpt><trkpt lat="43.56830055043325" lon="10.801931639501651"><ele>181.0</ele><time>2026-04-18T07:45:50Z</time></trkpt><trkpt lat="43.56849599576886" lon="10.80192349181783"><ele>181.0</ele><time>2026-04-18T07:45:51Z</time></trkpt><trkpt lat="43.5686848132049" lon="10.801938682225563"><ele>181.0</ele><time>2026-04-18T07:45:52Z</time></trkpt><trkpt lat="43.56886842969417" lon="10.801934001633406"><ele>181.0</ele><time>2026-04-18T07:45:53Z</time></trkpt><trkpt lat="43.56903323422614" lon="10.801910165018302"><ele>184.25</ele><time>2026-04-18T07:45:54Z</time></trkpt><trkpt lat="43.569175744505344" lon="10.801849454268174"><ele>187.5</ele><time>2026-04-18T07:45:55Z</time></trkpt><trkpt lat="43.56931105731266" lon="10.801821037430747"><ele>190.75</ele><time>2026-04-18T07:45:56Z</time></trkpt><trkpt lat="43.56942100993951" lon="10.801829292715059"><ele>194.0</ele><time>2026-04-18T07:45:57Z</time></trkpt><trkpt lat="43.56950827012775" lon="10.801872193964934"><ele>200.25</ele><time>2026-04-18T07:45:58Z</time></trkpt><trkpt lat="43.5695507178816" lon="10.802015985518137"><ele>206.5</ele><time>2026-04-18T07:45:59Z</time></trkpt><trkpt lat="43.56961932798801" lon="10.802141754092718"><ele>212.75</ele><time>2026-04-18T07:46:00Z</time></trkpt><trkpt lat="43.56969960493626" lon="10.80228106435279"><ele>219.0</ele><time>2026-04-18T07:46:01Z</time></trkpt><trkpt lat="43.56976769250521" lon="10.802458074751044"><ele>219.0</ele><time>2026-04-18T07:46:02Z</time></trkpt><trkpt lat="43.569848116567236" lon="10.802657944060236"><ele>219.0</ele><time>2026-04-18T07:46:03Z</time></trkpt><trkpt lat="43.56993545567203" lon="10.802862079303269"><ele>219.0</ele><time>2026-04-18T07:46:04Z</time></trkpt><trkpt lat="43.57002745185504" lon="10.803056441167556"><ele>216.5</ele><time>2026-04-18T07:46:05Z</time></trkpt><trkpt lat="43.57011866213401" lon="10.80321826622715"><ele>214.0</ele><time>2026-04-18T07:46:06Z</time></trkpt><trkpt lat="43.570225802201044" lon="10.803338036228794"><ele>211.5</ele><time>2026-04-18T07:46:07Z</time></trkpt><trkpt lat="43.57036892755197" lon="10.803426674440512"><ele>209.0</ele><time>2026-04-18T07:46:08Z</time></trkpt><trkpt lat="43.570525100450766" lon="10.80349693145432"><ele>207.25</ele><time>2026-04-18T07:46:09Z</time></trkpt><trkpt lat="43.57065642820704" lon="10.803568538993092"><ele>205.5</ele><time>2026-04-18T07:46:10Z</time></trkpt><trkpt lat="43.57079969390351" lon="10.803652058462891"><ele>203.75</ele><time>2026-04-18T07:46:11Z</time></trkpt><trkpt lat="43.57091527672116" lon="10.803770251409041"><ele>202.0</ele><time>2026-04-18T07:46:12Z</time></trkpt><trkpt lat="43.57099569993507" lon="10.803921969857305"><ele>202.0</ele><time>2026-04-18T07:46:13Z</time></trkpt><trkpt lat="43.571047478576624" lon="10.804106704903404"><ele>202.0</ele><time>2026-04-18T07:46:14Z</time></trkpt><trkpt lat="43.57107235193591" lon="10.804310401969383"><ele>202.0</ele><time>2026-04-18T07:46:15Z</time></trkpt><trkpt lat="43.57108027572407" lon="10.804552828318325"><ele>198.66666666666666</ele><time>2026-04-18T07:46:16Z</time></trkpt><trkpt lat="43.57106216302745" lon="10.804817749930463"><ele>195.33333333333331</ele><time>2026-04-18T07:46:17Z</time></trkpt><trkpt lat="43.57102911170397" lon="10.805091207595302"><ele>192.0</ele><time>2026-04-18T07:46:18Z</time></trkpt><trkpt lat="43.5709930482509" lon="10.805361074146504"><ele>188.33333333333334</ele><time>2026-04-18T07:46:19Z</time></trkpt><trkpt lat="43.57096551641284" lon="10.805616258463333"><ele>184.66666666666669</ele><time>2026-04-18T07:46:20Z</time></trkpt><trkpt lat="43.57095612096939" lon="10.805852986370292"><ele>181.0</ele><time>2026-04-18T07:46:21Z</time></trkpt><trkpt lat="43.57097689664431" lon="10.806094200828223"><ele>180.66666666666669</ele><time>2026-04-18T07:46:22Z</time></trkpt><trkpt lat="43.571017721470106" lon="10.80634780985685"><ele>180.33333333333334</ele><time>2026-04-18T07:46:23Z</time></trkpt><trkpt lat="43.57107060856483" lon="10.806596533400576"><ele>180.0</ele><time>2026-04-18T07:46:24Z</time></trkpt><trkpt lat="43.571113974503945" lon="10.806837003386955"><ele>180.0</ele><time>2026-04-18T07:46:25Z</time></trkpt><trkpt lat="43.57114803006906" lon="10.807063625686283"><ele>180.0</ele><time>2026-04-18T07:46:26Z</time></trkpt><trkpt lat="43.571170849288464" lon="10.807272986346549"><ele>180.0</ele><time>2026-04-18T07:46:27Z</time></trkpt><trkpt lat="43.5711608152745" lon="10.807465456565657"><ele>180.0</ele><time>2026-04-18T07:46:28Z</time></trkpt><trkpt lat="43.571114620227576" lon="10.807652410635733"><ele>180.0</ele><time>2026-04-18T07:46:29Z</time></trkpt><trkpt lat="43.571016809364245" lon="10.807823879236171"><ele>180.0</ele><time>2026-04-18T07:46:30Z</time></trkpt><trkpt lat="43.57092608996053" lon="10.808010401667008"><ele>178.66666666666666</ele><time>2026-04-18T07:46:31Z</time></trkpt><trkpt lat="43.5708096491972" lon="10.808180467377186"><ele>177.33333333333331</ele><time>2026-04-18T07:46:32Z</time></trkpt><trkpt lat="43.570691691839244" lon="10.808364337213476"><ele>176.0</ele><time>2026-04-18T07:46:33Z</time></trkpt><trkpt lat="43.570579573258655" lon="10.808550232045839"><ele>174.0</ele><time>2026-04-18T07:46:34Z</time></trkpt><trkpt lat="43.570461423276484" lon="10.808725555849795"><ele>172.0</ele><time>2026-04-18T07:46:35Z</time></trkpt><trkpt lat="43.570326988093264" lon="10.80881435404869"><ele>170.0</ele><time>2026-04-18T07:46:36Z</time></trkpt><trkpt lat="43.57019108179039" lon="10.808852488619637"><ele>170.0</ele><time>2026-04-18T07:46:37Z</time></trkpt><trkpt lat="43.570059426278625" lon="10.808848058179667"><ele>170.0</ele><time>2026-04-18T07:46:38Z</time></trkpt><trkpt lat="43.56993865567662" lon="10.808786065083384"><ele>170.0</ele><time>2026-04-18T07:46:39Z</time></trkpt><trkpt lat="43.56980361918137" lon="10.808722714558924"><ele>170.0</ele><time>2026-04-18T07:46:40Z</time></trkpt><trkpt lat="43.5696730373279" lon="10.808641643633102"><ele>170.0</ele><time>2026-04-18T07:46:41Z</time></trkpt><trkpt lat="43.56953717316048" lon="10.808607482498415"><ele>170.0</ele><time>2026-04-18T07:46:42Z</time></trkpt><trkpt lat="43.5694126931603" lon="10.808645920082395"><ele>170.0</ele><time>2026-04-18T07:46:43Z</time></trkpt><trkpt lat="43.56927515983704" lon="10.808741007331886"><ele>170.0</ele><time>2026-04-18T07:46:44Z</time></trkpt><trkpt lat="43.56913704876528" lon="10.808887359982842"><ele>169.33333333333331</ele><time>2026-04-18T07:46:45Z</time></trkpt><trkpt lat="43.56901183787001" lon="10.809061049530277"><ele>168.66666666666666</ele><time>2026-04-18T07:46:46Z</time></trkpt><trkpt lat="43.56889601601397" lon="10.809255221962314"><ele>168.0</ele><time>2026-04-18T07:46:47Z</time></trkpt><trkpt lat="43.56879837589791" lon="10.809444331836467"><ele>168.25</ele><time>2026-04-18T07:46:48Z</time></trkpt><trkpt lat="43.56868911030374" lon="10.80962845095192"><ele>168.5</ele><time>2026-04-18T07:46:49Z</time></trkpt><trkpt lat="43.56858883899815" lon="10.809758072891258"><ele>168.75</ele><time>2026-04-18T07:46:50Z</time></trkpt><trkpt lat="43.56848206550141" lon="10.809857834427262"><ele>169.0</ele><time>2026-04-18T07:46:51Z</time></trkpt><trkpt lat="43.56838075047978" lon="10.8099042899946"><ele>169.0</ele><time>2026-04-18T07:46:52Z</time></trkpt><trkpt lat="43.568267744980666" lon="10.8099146349339"><ele>169.0</ele><time>2026-04-18T07:46:53Z</time></trkpt><trkpt lat="43.56814360419129" lon="10.809937691772245"><ele>169.0</ele><time>2026-04-18T07:46:54.001Z</time></trkpt><trkpt lat="43.568013268899826" lon="10.810026809676515"><ele>169.0</ele><time>2026-04-18T07:46:55Z</time></trkpt><trkpt lat="43.56792246537027" lon="10.810168292399922"><ele>170.25</ele><time>2026-04-18T07:46:56Z</time></trkpt><trkpt lat="43.56784659131963" lon="10.810342697310402"><ele>171.5</ele><time>2026-04-18T07:46:57Z</time></trkpt><trkpt lat="43.567777379958784" lon="10.810520174943989"><ele>172.75</ele><time>2026-04-18T07:46:58Z</time></trkpt><trkpt lat="43.567725189492585" lon="10.810681049076077"><ele>174.0</ele><time>2026-04-18T07:46:59Z</time></trkpt><trkpt lat="43.56771530843537" lon="10.81084375950348"><ele>172.25</ele><time>2026-04-18T07:47:00Z</time></trkpt><trkpt lat="43.56775501776777" lon="10.81099728605169"><ele>170.5</ele><time>2026-04-18T07:47:01Z</time></trkpt><trkpt lat="43.567815723323385" lon="10.811175972939257"><ele>168.75</ele><time>2026-04-18T07:47:02Z</time></trkpt><trkpt lat="43.567875088531984" lon="10.811352822503661"><ele>167.0</ele><time>2026-04-18T07:47:03Z</time></trkpt><trkpt lat="43.56792953233075" lon="10.811548663405311"><ele>167.0</ele><time>2026-04-18T07:47:04Z</time></trkpt><trkpt lat="43.56797948208776" lon="10.811742396509514"><ele>167.0</ele><time>2026-04-18T07:47:05Z</time></trkpt><trkpt lat="43.56802839141153" lon="10.811935458272165"><ele>167.0</ele><time>2026-04-18T07:47:06Z</time></trkpt><trkpt lat="43.568076783263535" lon="10.812128707962039"><ele>167.0</ele><time>2026-04-18T07:47:07Z</time></trkpt><trkpt lat="43.56812600511251" lon="10.812310097490123"><ele>168.25</ele><time>2026-04-18T07:47:08Z</time></trkpt><trkpt lat="43.568178325077014" lon="10.812491081283941"><ele>169.5</ele><time>2026-04-18T07:47:09Z</time></trkpt><trkpt lat="43.56822096454662" lon="10.812680115587476"><ele>170.75</ele><time>2026-04-18T07:47:10Z</time></trkpt><trkpt lat="43.56823256581598" lon="10.812842588830943"><ele>172.0</ele><time>2026-04-18T07:47:11Z</time></trkpt><trkpt lat="43.568198908403616" lon="10.812979859013643"><ele>172.0</ele><time>2026-04-18T07:47:12Z</time></trkpt><trkpt lat="43.56814023976597" lon="10.813130104276969"><ele>172.0</ele><time>2026-04-18T07:47:13Z</time></trkpt><trkpt lat="43.568068477869616" lon="10.813287417612367"><ele>172.0</ele><time>2026-04-18T07:47:14Z</time></trkpt><trkpt lat="43.56800135178581" lon="10.813470738438193"><ele>172.0</ele><time>2026-04-18T07:47:15Z</time></trkpt><trkpt lat="43.56797605987103" lon="10.813660934685368"><ele>172.33333333333334</ele><time>2026-04-18T07:47:16Z</time></trkpt><trkpt lat="43.56798934837899" lon="10.813861151715152"><ele>172.66666666666666</ele><time>2026-04-18T07:47:17Z</time></trkpt><trkpt lat="43.56801954143079" lon="10.814087733018454"><ele>173.0</ele><time>2026-04-18T07:47:18Z</time></trkpt><trkpt lat="43.56804624181821" lon="10.814275146685898"><ele>174.66666666666666</ele><time>2026-04-18T07:47:19Z</time></trkpt><trkpt lat="43.568071283725175" lon="10.814473613474728"><ele>176.33333333333334</ele><time>2026-04-18T07:47:20Z</time></trkpt><trkpt lat="43.56809407180652" lon="10.814695044791323"><ele>178.0</ele><time>2026-04-18T07:47:21Z</time></trkpt><trkpt lat="43.568111420008535" lon="10.814912623130004"><ele>178.0</ele><time>2026-04-18T07:47:22Z</time></trkpt><trkpt lat="43.56812989916387" lon="10.815137541634172"><ele>178.0</ele><time>2026-04-18T07:47:23Z</time></trkpt><trkpt lat="43.56815836908083" lon="10.81537409508702"><ele>178.0</ele><time>2026-04-18T07:47:24Z</time></trkpt><trkpt lat="43.56820937150425" lon="10.815600225134652"><ele>178.0</ele><time>2026-04-18T07:47:25Z</time></trkpt><trkpt lat="43.568284197403464" lon="10.81581192032806"><ele>178.0</ele><time>2026-04-18T07:47:26Z</time></trkpt><trkpt lat="43.568370554717134" lon="10.815996443495546"><ele>178.0</ele><time>2026-04-18T07:47:27Z</time></trkpt><trkpt lat="43.568459518996654" lon="10.816185213504745"><ele>178.0</ele><time>2026-04-18T07:47:28Z</time></trkpt><trkpt lat="43.568534498172184" lon="10.816351160984837"><ele>178.0</ele><time>2026-04-18T07:47:29Z</time></trkpt><trkpt lat="43.568617097975874" lon="10.816532529545734"><ele>178.0</ele><time>2026-04-18T07:47:30Z</time></trkpt><trkpt lat="43.5687133679024" lon="10.816732940084174"><ele>179.33333333333334</ele><time>2026-04-18T07:47:31Z</time></trkpt><trkpt lat="43.56881632894895" lon="10.816934063034186"><ele>180.66666666666666</ele><time>2026-04-18T07:47:32Z</time></trkpt><trkpt lat="43.568924370620714" lon="10.817135915055271"><ele>182.0</ele><time>2026-04-18T07:47:33Z</time></trkpt><trkpt lat="43.56902231923658" lon="10.817340749344382"><ele>182.0</ele><time>2026-04-18T07:47:34Z</time></trkpt><trkpt lat="43.56909428429989" lon="10.817527170444013"><ele>182.0</ele><time>2026-04-18T07:47:35Z</time></trkpt><trkpt lat="43.569165381318186" lon="10.817717508524625"><ele>182.0</ele><time>2026-04-18T07:47:36Z</time></trkpt><trkpt lat="43.569233408584516" lon="10.817885422524839"><ele>182.0</ele><time>2026-04-18T07:47:37Z</time></trkpt><trkpt lat="43.569298435893614" lon="10.818038534163918"><ele>179.5</ele><time>2026-04-18T07:47:38Z</time></trkpt><trkpt lat="43.5693630717351" lon="10.818203946133043"><ele>177.0</ele><time>2026-04-18T07:47:39Z</time></trkpt><trkpt lat="43.56942018168856" lon="10.818356379027502"><ele>174.5</ele><time>2026-04-18T07:47:40Z</time></trkpt><trkpt lat="43.56946472324858" lon="10.818514993896938"><ele>172.0</ele><time>2026-04-18T07:47:41Z</time></trkpt><trkpt lat="43.56949384521614" lon="10.818695548030345"><ele>171.5</ele><time>2026-04-18T07:47:42Z</time></trkpt><trkpt lat="43.56949693872201" lon="10.818886358218975"><ele>171.0</ele><time>2026-04-18T07:47:43Z</time></trkpt><trkpt lat="43.56946173100665" lon="10.819065571272693"><ele>170.5</ele><time>2026-04-18T07:47:44Z</time></trkpt><trkpt lat="43.569414552310576" lon="10.819220585977728"><ele>170.0</ele><time>2026-04-18T07:47:45Z</time></trkpt><trkpt lat="43.56933929306496" lon="10.819356637507017"><ele>169.75</ele><time>2026-04-18T07:47:46Z</time></trkpt><trkpt lat="43.5692659964105" lon="10.819517550609813"><ele>169.5</ele><time>2026-04-18T07:47:47Z</time></trkpt><trkpt lat="43.569182543422905" lon="10.819669113721524"><ele>169.25</ele><time>2026-04-18T07:47:48Z</time></trkpt><trkpt lat="43.569105855308514" lon="10.8198430900214"><ele>169.0</ele><time>2026-04-18T07:47:49Z</time></trkpt><trkpt lat="43.56904001188179" lon="10.820003738745116"><ele>167.25</ele><time>2026-04-18T07:47:50Z</time></trkpt><trkpt lat="43.568977601806225" lon="10.820158571394403"><ele>165.5</ele><time>2026-04-18T07:47:51Z</time></trkpt><trkpt lat="43.56892483481455" lon="10.82030420043192"><ele>163.75</ele><time>2026-04-18T07:47:52Z</time></trkpt><trkpt lat="43.5688820611196" lon="10.820446747746269"><ele>162.0</ele><time>2026-04-18T07:47:53Z</time></trkpt><trkpt lat="43.56887065101604" lon="10.820596043183636"><ele>162.0</ele><time>2026-04-18T07:47:54Z</time></trkpt><trkpt lat="43.56888641914601" lon="10.820774708543857"><ele>162.0</ele><time>2026-04-18T07:47:55Z</time></trkpt><trkpt lat="43.568923870922255" lon="10.82095732736266"><ele>162.0</ele><time>2026-04-18T07:47:56Z</time></trkpt><trkpt lat="43.568944124411786" lon="10.821155056678514"><ele>162.0</ele><time>2026-04-18T07:47:57Z</time></trkpt><trkpt lat="43.568976302474546" lon="10.821352866292093"><ele>159.75</ele><time>2026-04-18T07:47:58Z</time></trkpt><trkpt lat="43.569006823644536" lon="10.821540354744865"><ele>157.5</ele><time>2026-04-18T07:47:59Z</time></trkpt><trkpt lat="43.56904114269146" lon="10.821738674644612"><ele>155.25</ele><time>2026-04-18T07:48:00Z</time></trkpt><trkpt lat="43.56907110064306" lon="10.821956795379053"><ele>153.0</ele><time>2026-04-18T07:48:01Z</time></trkpt><trkpt lat="43.56908017426793" lon="10.822177825363246"><ele>151.33333333333334</ele><time>2026-04-18T07:48:02Z</time></trkpt><trkpt lat="43.56907004509126" lon="10.822404030381202"><ele>149.66666666666669</ele><time>2026-04-18T07:48:03Z</time></trkpt><trkpt lat="43.56905557642647" lon="10.822635747973779"><ele>148.0</ele><time>2026-04-18T07:48:04Z</time></trkpt><trkpt lat="43.569047777670896" lon="10.822871151227451"><ele>147.5</ele><time>2026-04-18T07:48:05Z</time></trkpt><trkpt lat="43.569028254414604" lon="10.823085885303897"><ele>147.0</ele><time>2026-04-18T07:48:06Z</time></trkpt><trkpt lat="43.56900750818079" lon="10.823278256197652"><ele>146.5</ele><time>2026-04-18T07:48:07Z</time></trkpt><trkpt lat="43.568989361087546" lon="10.823451988237897"><ele>146.0</ele><time>2026-04-18T07:48:08Z</time></trkpt><trkpt lat="43.56896880735995" lon="10.823615829552223"><ele>145.0</ele><time>2026-04-18T07:48:09Z</time></trkpt><trkpt lat="43.56894438508947" lon="10.823768984742708"><ele>144.0</ele><time>2026-04-18T07:48:10Z</time></trkpt><trkpt lat="43.56891679561814" lon="10.823909407051337"><ele>143.0</ele><time>2026-04-18T07:48:11Z</time></trkpt><trkpt lat="43.568891049632036" lon="10.824038751603055"><ele>142.0</ele><time>2026-04-18T07:48:12Z</time></trkpt><trkpt lat="43.568869642367844" lon="10.824164785309877"><ele>141.0</ele><time>2026-04-18T07:48:13Z</time></trkpt><trkpt lat="43.56885353511942" lon="10.824281795656965"><ele>140.2</ele><time>2026-04-18T07:48:14Z</time></trkpt><trkpt lat="43.56883162004139" lon="10.824397365718765"><ele>139.39999999999998</ele><time>2026-04-18T07:48:15Z</time></trkpt><trkpt lat="43.56880553258101" lon="10.824520824805552"><ele>138.6</ele><time>2026-04-18T07:48:16Z</time></trkpt><trkpt lat="43.56878162754494" lon="10.824666646211025"><ele>137.79999999999998</ele><time>2026-04-18T07:48:17Z</time></trkpt><trkpt lat="43.568764184586826" lon="10.824791264160396"><ele>137.0</ele><time>2026-04-18T07:48:18Z</time></trkpt><trkpt lat="43.5687523775905" lon="10.824892012312738"><ele>137.0</ele><time>2026-04-18T07:48:19Z</time></trkpt><trkpt lat="43.56869653487272" lon="10.825013147549045"><ele>137.0</ele><time>2026-04-18T07:48:21Z</time></trkpt><trkpt lat="43.568571081286414" lon="10.824847839840162"><ele>137.0</ele><time>2026-04-18T07:48:24Z</time></trkpt><trkpt lat="43.56855699264977" lon="10.824706952140705"><ele>137.0</ele><time>2026-04-18T07:48:25Z</time></trkpt><trkpt lat="43.568526925729294" lon="10.824544246609724"><ele>136.75</ele><time>2026-04-18T07:48:26Z</time></trkpt><trkpt lat="43.56851492771397" lon="10.824356108810916"><ele>136.5</ele><time>2026-04-18T07:48:27Z</time></trkpt><trkpt lat="43.56849045966465" lon="10.824159108670257"><ele>136.25</ele><time>2026-04-18T07:48:28Z</time></trkpt><trkpt lat="43.568458324026295" lon="10.823960305925448"><ele>136.0</ele><time>2026-04-18T07:48:29Z</time></trkpt><trkpt lat="43.56843339215861" lon="10.823745722235342"><ele>134.33333333333334</ele><time>2026-04-18T07:48:30Z</time></trkpt><trkpt lat="43.56841731139552" lon="10.823518970947658"><ele>132.66666666666666</ele><time>2026-04-18T07:48:31Z</time></trkpt><trkpt lat="43.56840557576868" lon="10.82330296115633"><ele>131.0</ele><time>2026-04-18T07:48:32Z</time></trkpt><trkpt lat="43.56839469847466" lon="10.823090212260853"><ele>130.66666666666666</ele><time>2026-04-18T07:48:33Z</time></trkpt><trkpt lat="43.568380961848284" lon="10.822861608824388"><ele>130.33333333333334</ele><time>2026-04-18T07:48:34Z</time></trkpt><trkpt lat="43.56836644472961" lon="10.822660489494153"><ele>130.0</ele><time>2026-04-18T07:48:35Z</time></trkpt><trkpt lat="43.56835238076964" lon="10.822454866932038"><ele>130.0</ele><time>2026-04-18T07:48:36Z</time></trkpt><trkpt lat="43.56833102796156" lon="10.822259426328783"><ele>130.0</ele><time>2026-04-18T07:48:37Z</time></trkpt><trkpt lat="43.568280148652036" lon="10.822089274600643"><ele>130.0</ele><time>2026-04-18T07:48:38Z</time></trkpt><trkpt lat="43.56819681082968" lon="10.821957773214837"><ele>130.0</ele><time>2026-04-18T07:48:39Z</time></trkpt><trkpt lat="43.56808863898896" lon="10.82187347576561"><ele>130.0</ele><time>2026-04-18T07:48:40Z</time></trkpt><trkpt lat="43.56796520462835" lon="10.821828190433736"><ele>130.0</ele><time>2026-04-18T07:48:41Z</time></trkpt><trkpt lat="43.56781742418195" lon="10.821800045378835"><ele>130.0</ele><time>2026-04-18T07:48:42Z</time></trkpt><trkpt lat="43.56765147081695" lon="10.82176820453816"><ele>130.0</ele><time>2026-04-18T07:48:43Z</time></trkpt><trkpt lat="43.5674891770658" lon="10.821724654758038"><ele>128.66666666666669</ele><time>2026-04-18T07:48:44Z</time></trkpt><trkpt lat="43.56732618791693" lon="10.821679788871377"><ele>127.33333333333334</ele><time>2026-04-18T07:48:45Z</time></trkpt><trkpt lat="43.5671685052503" lon="10.821635136728975"><ele>126.0</ele><time>2026-04-18T07:48:46Z</time></trkpt><trkpt lat="43.567030527139664" lon="10.821596355647193"><ele>122.8</ele><time>2026-04-18T07:48:47Z</time></trkpt><trkpt lat="43.5669092351061" lon="10.821560938353269"><ele>119.6</ele><time>2026-04-18T07:48:48Z</time></trkpt><trkpt lat="43.56679728716617" lon="10.821525570801272"><ele>116.4</ele><time>2026-04-18T07:48:49Z</time></trkpt><trkpt lat="43.56670171186839" lon="10.821495401522043"><ele>113.2</ele><time>2026-04-18T07:48:50Z</time></trkpt><trkpt lat="43.56660929937534" lon="10.82146337599442"><ele>110.0</ele><time>2026-04-18T07:48:51Z</time></trkpt><trkpt lat="43.56650654089338" lon="10.821427065323842"><ele>110.0</ele><time>2026-04-18T07:48:52Z</time></trkpt><trkpt lat="43.56640001580377" lon="10.821389349164473"><ele>110.0</ele><time>2026-04-18T07:48:53Z</time></trkpt><trkpt lat="43.56627802439969" lon="10.821350172496569"><ele>110.0</ele><time>2026-04-18T07:48:54Z</time></trkpt><trkpt lat="43.56616906420373" lon="10.82132323450724"><ele>110.0</ele><time>2026-04-18T07:48:55Z</time></trkpt><trkpt lat="43.56606870385125" lon="10.82130699184471"><ele>110.0</ele><time>2026-04-18T07:48:56Z</time></trkpt><trkpt lat="43.56594929473054" lon="10.821283987943318"><ele>107.25</ele><time>2026-04-18T07:48:57Z</time></trkpt><trkpt lat="43.5658122453141" lon="10.821251133765823"><ele>104.5</ele><time>2026-04-18T07:48:58Z</time></trkpt><trkpt lat="43.565679892863976" lon="10.821203429688133"><ele>101.75</ele><time>2026-04-18T07:48:59Z</time></trkpt><trkpt lat="43.56555821876131" lon="10.82113252811994"><ele>99.0</ele><time>2026-04-18T07:49:00Z</time></trkpt><trkpt lat="43.565432357384864" lon="10.821025183752962"><ele>99.0</ele><time>2026-04-18T07:49:01Z</time></trkpt><trkpt lat="43.565317988709126" lon="10.820899085730117"><ele>99.0</ele><time>2026-04-18T07:49:02Z</time></trkpt><trkpt lat="43.56519721054816" lon="10.820758327309289"><ele>99.0</ele><time>2026-04-18T07:49:03Z</time></trkpt><trkpt lat="43.56507785329569" lon="10.820623894693316"><ele>99.0</ele><time>2026-04-18T07:49:04Z</time></trkpt><trkpt lat="43.564937158916464" lon="10.820471650775234"><ele>99.0</ele><time>2026-04-18T07:49:05Z</time></trkpt><trkpt lat="43.56480420404464" lon="10.820329675380833"><ele>99.0</ele><time>2026-04-18T07:49:06Z</time></trkpt><trkpt lat="43.564667845513895" lon="10.82018253818016"><ele>99.66666666666666</ele><time>2026-04-18T07:49:07Z</time></trkpt><trkpt lat="43.56454324632474" lon="10.820034165738193"><ele>100.33333333333333</ele><time>2026-04-18T07:49:08Z</time></trkpt><trkpt lat="43.56443937500782" lon="10.819879764663623"><ele>101.0</ele><time>2026-04-18T07:49:09Z</time></trkpt><trkpt lat="43.564349562138695" lon="10.819713879145953"><ele>97.5</ele><time>2026-04-18T07:49:10Z</time></trkpt><trkpt lat="43.564272658870145" lon="10.81955666478643"><ele>94.0</ele><time>2026-04-18T07:49:11Z</time></trkpt><trkpt lat="43.56420273502725" lon="10.819393648192413"><ele>90.5</ele><time>2026-04-18T07:49:12Z</time></trkpt><trkpt lat="43.56412745481309" lon="10.819216447532023"><ele>87.0</ele><time>2026-04-18T07:49:13Z</time></trkpt><trkpt lat="43.56405495023103" lon="10.819045154631924"><ele>87.0</ele><time>2026-04-18T07:49:14Z</time></trkpt><trkpt lat="43.56398680578951" lon="10.818897458645452"><ele>87.0</ele><time>2026-04-18T07:49:15Z</time></trkpt><trkpt lat="43.563921195627564" lon="10.818763647875535"><ele>87.0</ele><time>2026-04-18T07:49:16Z</time></trkpt><trkpt lat="43.56384835875808" lon="10.818659182497731"><ele>87.0</ele><time>2026-04-18T07:49:17Z</time></trkpt><trkpt lat="43.56376944000621" lon="10.818564781330819"><ele>85.39999999999999</ele><time>2026-04-18T07:49:18Z</time></trkpt><trkpt lat="43.563664483352" lon="10.818550322503228"><ele>83.8</ele><time>2026-04-18T07:49:19Z</time></trkpt><trkpt lat="43.56357355461089" lon="10.818514518592808"><ele>82.2</ele><time>2026-04-18T07:49:20Z</time></trkpt><trkpt lat="43.563465384899104" lon="10.818538750201931"><ele>80.6</ele><time>2026-04-18T07:49:21Z</time></trkpt><trkpt lat="43.563359548566794" lon="10.818614014491338"><ele>79.0</ele><time>2026-04-18T07:49:22Z</time></trkpt><trkpt lat="43.563235950973926" lon="10.818690486788446"><ele>79.0</ele><time>2026-04-18T07:49:23Z</time></trkpt><trkpt lat="43.5631083239017" lon="10.818775241287788"><ele>79.0</ele><time>2026-04-18T07:49:24Z</time></trkpt><trkpt lat="43.56297734933364" lon="10.818881108069727"><ele>79.0</ele><time>2026-04-18T07:49:25Z</time></trkpt><trkpt lat="43.56283858509686" lon="10.818955634999424"><ele>79.0</ele><time>2026-04-18T07:49:26Z</time></trkpt><trkpt lat="43.56271476577801" lon="10.819038914646553"><ele>80.0</ele><time>2026-04-18T07:49:27Z</time></trkpt><trkpt lat="43.56260085761073" lon="10.819112400310635"><ele>81.0</ele><time>2026-04-18T07:49:28Z</time></trkpt><trkpt lat="43.56249770658008" lon="10.819191603672063"><ele>82.0</ele><time>2026-04-18T07:49:29Z</time></trkpt><trkpt lat="43.56240250808245" lon="10.819223657226823"><ele>83.0</ele><time>2026-04-18T07:49:30Z</time></trkpt><trkpt lat="43.56231626801189" lon="10.819233655806052"><ele>84.0</ele><time>2026-04-18T07:49:31Z</time></trkpt><trkpt lat="43.562246647258675" lon="10.819212055668531"><ele>84.0</ele><time>2026-04-18T07:49:32Z</time></trkpt><trkpt lat="43.56216547725876" lon="10.819171055017545"><ele>84.0</ele><time>2026-04-18T07:49:33Z</time></trkpt><trkpt lat="43.56208820080117" lon="10.819084739645644"><ele>84.0</ele><time>2026-04-18T07:49:34Z</time></trkpt><trkpt lat="43.56202231267887" lon="10.818997808930165"><ele>84.0</ele><time>2026-04-18T07:49:35Z</time></trkpt><trkpt lat="43.56195116748106" lon="10.818869438865947"><ele>84.0</ele><time>2026-04-18T07:49:36Z</time></trkpt><trkpt lat="43.56187020917546" lon="10.818734416706182"><ele>83.5</ele><time>2026-04-18T07:49:37Z</time></trkpt><trkpt lat="43.56178547209875" lon="10.818590302604429"><ele>83.0</ele><time>2026-04-18T07:49:38Z</time></trkpt><trkpt lat="43.56169368554152" lon="10.818434199219269"><ele>82.5</ele><time>2026-04-18T07:49:39Z</time></trkpt><trkpt lat="43.56159685905081" lon="10.818269524411779"><ele>82.0</ele><time>2026-04-18T07:49:40Z</time></trkpt><trkpt lat="43.56148971642214" lon="10.8181200159373"><ele>82.0</ele><time>2026-04-18T07:49:41Z</time></trkpt><trkpt lat="43.56140753623406" lon="10.817964374229367"><ele>82.0</ele><time>2026-04-18T07:49:42Z</time></trkpt><trkpt lat="43.56132164982187" lon="10.817814705416978"><ele>82.0</ele><time>2026-04-18T07:49:43Z</time></trkpt><trkpt lat="43.56123617110696" lon="10.817670909377146"><ele>82.0</ele><time>2026-04-18T07:49:44Z</time></trkpt><trkpt lat="43.56113953218962" lon="10.817517002067104"><ele>82.75</ele><time>2026-04-18T07:49:45Z</time></trkpt><trkpt lat="43.561064666251205" lon="10.817346336084897"><ele>83.5</ele><time>2026-04-18T07:49:46Z</time></trkpt><trkpt lat="43.560976513767436" lon="10.817187491890623"><ele>84.25</ele><time>2026-04-18T07:49:47Z</time></trkpt><trkpt lat="43.560879518234984" lon="10.817035428593217"><ele>85.0</ele><time>2026-04-18T07:49:48Z</time></trkpt><trkpt lat="43.56076454535622" lon="10.816918991536276"><ele>83.33333333333333</ele><time>2026-04-18T07:49:49Z</time></trkpt><trkpt lat="43.560645155942716" lon="10.816789266223871"><ele>81.66666666666667</ele><time>2026-04-18T07:49:50Z</time></trkpt><trkpt lat="43.56052069262626" lon="10.816666245599537"><ele>80.0</ele><time>2026-04-18T07:49:51Z</time></trkpt><trkpt lat="43.56040137023544" lon="10.81654931677193"><ele>82.66666666666667</ele><time>2026-04-18T07:49:52Z</time></trkpt><trkpt lat="43.560272651678794" lon="10.816422316629358"><ele>85.33333333333333</ele><time>2026-04-18T07:49:53Z</time></trkpt><trkpt lat="43.56014325829912" lon="10.816294787295764"><ele>88.0</ele><time>2026-04-18T07:49:54Z</time></trkpt><trkpt lat="43.56001869009543" lon="10.816173303260443"><ele>88.0</ele><time>2026-04-18T07:49:55Z</time></trkpt><trkpt lat="43.55989525520106" lon="10.81604508190241"><ele>88.0</ele><time>2026-04-18T07:49:56Z</time></trkpt><trkpt lat="43.559773746474114" lon="10.81593218661742"><ele>88.0</ele><time>2026-04-18T07:49:57Z</time></trkpt><trkpt lat="43.55965492657504" lon="10.815834290719916"><ele>88.0</ele><time>2026-04-18T07:49:58Z</time></trkpt><trkpt lat="43.55953841795103" lon="10.8157612019076"><ele>86.25</ele><time>2026-04-18T07:49:59Z</time></trkpt><trkpt lat="43.559412450792244" lon="10.815713466734023"><ele>84.5</ele><time>2026-04-18T07:50:00Z</time></trkpt><trkpt lat="43.55926302612143" lon="10.815673988529666"><ele>82.75</ele><time>2026-04-18T07:50:01Z</time></trkpt><trkpt lat="43.55910792884816" lon="10.81561352184548"><ele>81.0</ele><time>2026-04-18T07:50:02Z</time></trkpt><trkpt lat="43.558950260714276" lon="10.815578121701332"><ele>81.0</ele><time>2026-04-18T07:50:03Z</time></trkpt><trkpt lat="43.5587870970953" lon="10.815564635101964"><ele>81.0</ele><time>2026-04-18T07:50:04Z</time></trkpt><trkpt lat="43.55862045809212" lon="10.815526589295992"><ele>81.0</ele><time>2026-04-18T07:50:05Z</time></trkpt><trkpt lat="43.55845634631063" lon="10.81548709839404"><ele>80.66666666666667</ele><time>2026-04-18T07:50:06Z</time></trkpt><trkpt lat="43.55828768847637" lon="10.815448702989505"><ele>80.33333333333334</ele><time>2026-04-18T07:50:07Z</time></trkpt><trkpt lat="43.558107704527856" lon="10.815408531346662"><ele>80.0</ele><time>2026-04-18T07:50:08Z</time></trkpt><trkpt lat="43.55792017696538" lon="10.815365956641845"><ele>79.0</ele><time>2026-04-18T07:50:09Z</time></trkpt><trkpt lat="43.557727274944995" lon="10.815315336785881"><ele>78.0</ele><time>2026-04-18T07:50:10Z</time></trkpt><trkpt lat="43.55755019407028" lon="10.81526756513469"><ele>77.0</ele><time>2026-04-18T07:50:11Z</time></trkpt><trkpt lat="43.55738414708929" lon="10.815220728162924"><ele>77.0</ele><time>2026-04-18T07:50:12Z</time></trkpt><trkpt lat="43.55723386060587" lon="10.815179962117902"><ele>77.0</ele><time>2026-04-18T07:50:13Z</time></trkpt><trkpt lat="43.557086634634395" lon="10.815153630049512"><ele>77.0</ele><time>2026-04-18T07:50:14Z</time></trkpt><trkpt lat="43.556923973609884" lon="10.81514218553696"><ele>78.33333333333334</ele><time>2026-04-18T07:50:15Z</time></trkpt><trkpt lat="43.556765143133525" lon="10.815174002659004"><ele>79.66666666666667</ele><time>2026-04-18T07:50:16Z</time></trkpt><trkpt lat="43.5566121965935" lon="10.815227177171373"><ele>81.0</ele><time>2026-04-18T07:50:17Z</time></trkpt><trkpt lat="43.5564786328383" lon="10.815283759743776"><ele>81.0</ele><time>2026-04-18T07:50:18Z</time></trkpt><trkpt lat="43.55635543226477" lon="10.815337380922442"><ele>81.0</ele><time>2026-04-18T07:50:19Z</time></trkpt><trkpt lat="43.55621010467561" lon="10.815393614400262"><ele>81.0</ele><time>2026-04-18T07:50:20Z</time></trkpt><trkpt lat="43.556060161836605" lon="10.815447212059546"><ele>81.0</ele><time>2026-04-18T07:50:21Z</time></trkpt><trkpt lat="43.55591694421364" lon="10.815488244897356"><ele>83.0</ele><time>2026-04-18T07:50:22Z</time></trkpt><trkpt lat="43.555758477054134" lon="10.815544988980056"><ele>85.0</ele><time>2026-04-18T07:50:23Z</time></trkpt><trkpt lat="43.55562728061697" lon="10.815604059125782"><ele>87.0</ele><time>2026-04-18T07:50:24Z</time></trkpt><trkpt lat="43.555528773557064" lon="10.81568097211879"><ele>89.0</ele><time>2026-04-18T07:50:25Z</time></trkpt><trkpt lat="43.55541875294087" lon="10.815797006371696"><ele>89.5</ele><time>2026-04-18T07:50:26Z</time></trkpt><trkpt lat="43.555297619620134" lon="10.815962418492589"><ele>90.0</ele><time>2026-04-18T07:50:27Z</time></trkpt><trkpt lat="43.55524621467476" lon="10.816071712352889"><ele>90.5</ele><time>2026-04-18T07:50:28Z</time></trkpt><trkpt lat="43.55519619974577" lon="10.816194049394479"><ele>91.0</ele><time>2026-04-18T07:50:29Z</time></trkpt><trkpt lat="43.555136357794936" lon="10.816327670848345"><ele>93.0</ele><time>2026-04-18T07:50:30Z</time></trkpt><trkpt lat="43.5550839235916" lon="10.816440754124972"><ele>95.0</ele><time>2026-04-18T07:50:31Z</time></trkpt><trkpt lat="43.55486161234148" lon="10.816756143344948"><ele>97.0</ele><time>2026-04-18T07:50:32Z</time></trkpt><trkpt lat="43.554751870628714" lon="10.816939932571291"><ele>98.33333333333334</ele><time>2026-04-18T07:50:33Z</time></trkpt><trkpt lat="43.55465191403897" lon="10.817132795225731"><ele>99.66666666666666</ele><time>2026-04-18T07:50:34Z</time></trkpt><trkpt lat="43.55454828699187" lon="10.817315675642837"><ele>101.0</ele><time>2026-04-18T07:50:35Z</time></trkpt><trkpt lat="43.5544460045984" lon="10.817500480935992"><ele>103.66666666666666</ele><time>2026-04-18T07:50:36Z</time></trkpt><trkpt lat="43.55434370689347" lon="10.817679304234469"><ele>106.33333333333334</ele><time>2026-04-18T07:50:37Z</time></trkpt><trkpt lat="43.55424043215999" lon="10.817865100218713"><ele>109.0</ele><time>2026-04-18T07:50:38Z</time></trkpt><trkpt lat="43.554138350325175" lon="10.818053559242058"><ele>109.0</ele><time>2026-04-18T07:50:39Z</time></trkpt><trkpt lat="43.554035760801945" lon="10.818243986800981"><ele>109.0</ele><time>2026-04-18T07:50:40Z</time></trkpt><trkpt lat="43.55393456977994" lon="10.818435704827772"><ele>109.0</ele><time>2026-04-18T07:50:41Z</time></trkpt><trkpt lat="43.5538283466371" lon="10.818625090007414"><ele>110.33333333333334</ele><time>2026-04-18T07:50:42Z</time></trkpt><trkpt lat="43.55372442911819" lon="10.818814221627699"><ele>111.66666666666666</ele><time>2026-04-18T07:50:43Z</time></trkpt><trkpt lat="43.55362429617928" lon="10.81900129271184"><ele>113.0</ele><time>2026-04-18T07:50:44Z</time></trkpt><trkpt lat="43.55352572575203" lon="10.819179610616553"><ele>116.0</ele><time>2026-04-18T07:50:45Z</time></trkpt><trkpt lat="43.553425412323286" lon="10.819360697649648"><ele>119.0</ele><time>2026-04-18T07:50:46Z</time></trkpt><trkpt lat="43.55332499087689" lon="10.819537862665943"><ele>122.0</ele><time>2026-04-18T07:50:47Z</time></trkpt><trkpt lat="43.55322354530063" lon="10.819719058419176"><ele>122.0</ele><time>2026-04-18T07:50:48Z</time></trkpt><trkpt lat="43.553117683655394" lon="10.819903057554152"><ele>122.0</ele><time>2026-04-18T07:50:49Z</time></trkpt><trkpt lat="43.55301643714232" lon="10.820088967594602"><ele>122.0</ele><time>2026-04-18T07:50:50Z</time></trkpt><trkpt lat="43.552910762689336" lon="10.820282920832536"><ele>123.33333333333333</ele><time>2026-04-18T07:50:51Z</time></trkpt><trkpt lat="43.55280028645551" lon="10.820483024946062"><ele>124.66666666666666</ele><time>2026-04-18T07:50:52Z</time></trkpt><trkpt lat="43.552695344204785" lon="10.820669628264154"><ele>126.0</ele><time>2026-04-18T07:50:53Z</time></trkpt><trkpt lat="43.55259238175187" lon="10.820852179566677"><ele>127.66666666666666</ele><time>2026-04-18T07:50:54Z</time></trkpt><trkpt lat="43.55249638111377" lon="10.821035109264262"><ele>129.33333333333331</ele><time>2026-04-18T07:50:55Z</time></trkpt><trkpt lat="43.552394262546855" lon="10.82122118151813"><ele>131.0</ele><time>2026-04-18T07:50:56Z</time></trkpt><trkpt lat="43.552294375312556" lon="10.821407678717117"><ele>131.0</ele><time>2026-04-18T07:50:57Z</time></trkpt><trkpt lat="43.55219917556572" lon="10.821587572358068"><ele>131.0</ele><time>2026-04-18T07:50:58Z</time></trkpt><trkpt lat="43.55210094823992" lon="10.821781115523159"><ele>131.0</ele><time>2026-04-18T07:50:59Z</time></trkpt><trkpt lat="43.551999464911795" lon="10.82197793651023"><ele>133.0</ele><time>2026-04-18T07:51:00Z</time></trkpt><trkpt lat="43.551893907759954" lon="10.822171513328708"><ele>135.0</ele><time>2026-04-18T07:51:01Z</time></trkpt><trkpt lat="43.55178730678284" lon="10.822357985376312"><ele>137.0</ele><time>2026-04-18T07:51:02Z</time></trkpt><trkpt lat="43.551688868729954" lon="10.822526742129606"><ele>139.5</ele><time>2026-04-18T07:51:03Z</time></trkpt><trkpt lat="43.55159754396676" lon="10.822689277138561"><ele>142.0</ele><time>2026-04-18T07:51:04Z</time></trkpt><trkpt lat="43.551512113834924" lon="10.822825094859903"><ele>144.5</ele><time>2026-04-18T07:51:05Z</time></trkpt><trkpt lat="43.55140758835778" lon="10.822906848442448"><ele>147.0</ele><time>2026-04-18T07:51:06Z</time></trkpt><trkpt lat="43.55130224851423" lon="10.822921854341574"><ele>147.0</ele><time>2026-04-18T07:51:07Z</time></trkpt><trkpt lat="43.55119155820369" lon="10.82293100916782"><ele>147.0</ele><time>2026-04-18T07:51:08Z</time></trkpt><trkpt lat="43.551079186137464" lon="10.822919776405291"><ele>147.0</ele><time>2026-04-18T07:51:09Z</time></trkpt><trkpt lat="43.550953622984295" lon="10.822931311438097"><ele>147.0</ele><time>2026-04-18T07:51:10Z</time></trkpt><trkpt lat="43.550803368178364" lon="10.822918369500107"><ele>147.0</ele><time>2026-04-18T07:51:11Z</time></trkpt><trkpt lat="43.550647522255595" lon="10.82286144833544"><ele>147.0</ele><time>2026-04-18T07:51:12Z</time></trkpt><trkpt lat="43.55047567610984" lon="10.822807948169034"><ele>147.0</ele><time>2026-04-18T07:51:13Z</time></trkpt><trkpt lat="43.55029536768374" lon="10.822758361092383"><ele>148.0</ele><time>2026-04-18T07:51:14Z</time></trkpt><trkpt lat="43.55010739970711" lon="10.822707310325685"><ele>149.0</ele><time>2026-04-18T07:51:15Z</time></trkpt><trkpt lat="43.54992118143002" lon="10.822660474481228"><ele>150.0</ele><time>2026-04-18T07:51:16Z</time></trkpt><trkpt lat="43.549741419376204" lon="10.822620437709386"><ele>148.33333333333334</ele><time>2026-04-18T07:51:17Z</time></trkpt><trkpt lat="43.54956717510179" lon="10.822582347991215"><ele>146.66666666666669</ele><time>2026-04-18T07:51:18Z</time></trkpt><trkpt lat="43.54939281526029" lon="10.822543029005"><ele>145.0</ele><time>2026-04-18T07:51:19Z</time></trkpt><trkpt lat="43.54921727862966" lon="10.822517056622635"><ele>145.0</ele><time>2026-04-18T07:51:20Z</time></trkpt><trkpt lat="43.54904481407834" lon="10.822475291668827"><ele>145.0</ele><time>2026-04-18T07:51:21Z</time></trkpt><trkpt lat="43.548885974828494" lon="10.82240641953417"><ele>145.0</ele><time>2026-04-18T07:51:22Z</time></trkpt><trkpt lat="43.54872991393184" lon="10.822341301968873"><ele>147.25</ele><time>2026-04-18T07:51:23Z</time></trkpt><trkpt lat="43.54860036778466" lon="10.822261390891116"><ele>149.5</ele><time>2026-04-18T07:51:24Z</time></trkpt><trkpt lat="43.548489255285276" lon="10.822173736392632"><ele>151.75</ele><time>2026-04-18T07:51:25Z</time></trkpt><trkpt lat="43.548390641420625" lon="10.822070768092471"><ele>154.0</ele><time>2026-04-18T07:51:26Z</time></trkpt><trkpt lat="43.548289074881176" lon="10.821943527976227"><ele>151.66666666666669</ele><time>2026-04-18T07:51:27Z</time></trkpt><trkpt lat="43.548183890397105" lon="10.821800406589038"><ele>149.33333333333334</ele><time>2026-04-18T07:51:28Z</time></trkpt><trkpt lat="43.548082266866565" lon="10.82165165210987"><ele>147.0</ele><time>2026-04-18T07:51:29Z</time></trkpt><trkpt lat="43.54797594674821" lon="10.821496580197536"><ele>146.0</ele><time>2026-04-18T07:51:30Z</time></trkpt><trkpt lat="43.54785369453277" lon="10.821367320436359"><ele>145.0</ele><time>2026-04-18T07:51:31Z</time></trkpt><trkpt lat="43.54775250746206" lon="10.821233096442006"><ele>144.0</ele><time>2026-04-18T07:51:32Z</time></trkpt><trkpt lat="43.547655947086625" lon="10.82110143909073"><ele>143.0</ele><time>2026-04-18T07:51:33Z</time></trkpt><trkpt lat="43.547568273427764" lon="10.82098261346632"><ele>143.25</ele><time>2026-04-18T07:51:34Z</time></trkpt><trkpt lat="43.54748149178989" lon="10.820827514798133"><ele>143.5</ele><time>2026-04-18T07:51:35Z</time></trkpt><trkpt lat="43.547380756566824" lon="10.820715473786077"><ele>143.75</ele><time>2026-04-18T07:51:36Z</time></trkpt><trkpt lat="43.54730195746429" lon="10.820596783751995"><ele>144.0</ele><time>2026-04-18T07:51:37Z</time></trkpt><trkpt lat="43.54723169786075" lon="10.820484102477486"><ele>144.0</ele><time>2026-04-18T07:51:38Z</time></trkpt><trkpt lat="43.547163227776295" lon="10.820391755013361"><ele>144.0</ele><time>2026-04-18T07:51:39Z</time></trkpt><trkpt lat="43.54709254244666" lon="10.820327926922602"><ele>144.0</ele><time>2026-04-18T07:51:40Z</time></trkpt><trkpt lat="43.547022822622644" lon="10.820303252761663"><ele>144.0</ele><time>2026-04-18T07:51:41Z</time></trkpt><trkpt lat="43.54695377973058" lon="10.820325653942945"><ele>144.0</ele><time>2026-04-18T07:51:42Z</time></trkpt><trkpt lat="43.54688838318663" lon="10.820399399739404"><ele>144.0</ele><time>2026-04-18T07:51:43Z</time></trkpt><trkpt lat="43.546830392428845" lon="10.820509064903256"><ele>140.25</ele><time>2026-04-18T07:51:44Z</time></trkpt><trkpt lat="43.54679560116563" lon="10.820649989001376"><ele>136.5</ele><time>2026-04-18T07:51:45Z</time></trkpt><trkpt lat="43.54677034755075" lon="10.820818599850348"><ele>132.75</ele><time>2026-04-18T07:51:46Z</time></trkpt><trkpt lat="43.546732477893755" lon="10.82102369751298"><ele>129.0</ele><time>2026-04-18T07:51:47Z</time></trkpt><trkpt lat="43.54668999116938" lon="10.821234016859723"><ele>128.33333333333334</ele><time>2026-04-18T07:51:48Z</time></trkpt><trkpt lat="43.54664684458096" lon="10.82143407053012"><ele>127.66666666666667</ele><time>2026-04-18T07:51:49Z</time></trkpt><trkpt lat="43.54660451154796" lon="10.82164478379712"><ele>127.0</ele><time>2026-04-18T07:51:50Z</time></trkpt><trkpt lat="43.54656003280935" lon="10.821847020306368"><ele>126.25</ele><time>2026-04-18T07:51:51Z</time></trkpt><trkpt lat="43.54651860316809" lon="10.822023188725636"><ele>125.5</ele><time>2026-04-18T07:51:52Z</time></trkpt><trkpt lat="43.546472566015986" lon="10.82217946497417"><ele>124.75</ele><time>2026-04-18T07:51:53Z</time></trkpt><trkpt lat="43.546437022150016" lon="10.822337780599302"><ele>124.0</ele><time>2026-04-18T07:51:54Z</time></trkpt><trkpt lat="43.54640635179941" lon="10.822474071472481"><ele>124.00000000000001</ele><time>2026-04-18T07:51:55Z</time></trkpt><trkpt lat="43.54637788381417" lon="10.822595749181122"><ele>124.0</ele><time>2026-04-18T07:51:56Z</time></trkpt><trkpt lat="43.54634950401612" lon="10.82271251208872"><ele>124.0</ele><time>2026-04-18T07:51:57Z</time></trkpt><trkpt lat="43.546317489190265" lon="10.82281564596717"><ele>124.0</ele><time>2026-04-18T07:51:58Z</time></trkpt><trkpt lat="43.54624735940677" lon="10.822886333373821"><ele>124.00000000000001</ele><time>2026-04-18T07:51:59Z</time></trkpt><trkpt lat="43.54616605863368" lon="10.822909905737918"><ele>124.0</ele><time>2026-04-18T07:52:00Z</time></trkpt><trkpt lat="43.54608355316225" lon="10.822851156820226"><ele>121.2</ele><time>2026-04-18T07:52:01Z</time></trkpt><trkpt lat="43.546014405258205" lon="10.822807144426585"><ele>118.4</ele><time>2026-04-18T07:52:02Z</time></trkpt><trkpt lat="43.54598432951742" lon="10.822680378808728"><ele>115.6</ele><time>2026-04-18T07:52:03Z</time></trkpt><trkpt lat="43.54592376948286" lon="10.822557678071917"><ele>112.8</ele><time>2026-04-18T07:52:04Z</time></trkpt><trkpt lat="43.545836836771024" lon="10.822406375725174"><ele>110.0</ele><time>2026-04-18T07:52:05Z</time></trkpt><trkpt lat="43.54577770024287" lon="10.822225302936946"><ele>110.0</ele><time>2026-04-18T07:52:06Z</time></trkpt><trkpt lat="43.54571698853405" lon="10.822045608814099"><ele>110.0</ele><time>2026-04-18T07:52:07Z</time></trkpt><trkpt lat="43.54566493868202" lon="10.82185581801172"><ele>110.0</ele><time>2026-04-18T07:52:08Z</time></trkpt><trkpt lat="43.54562434331596" lon="10.821662219208227"><ele>110.0</ele><time>2026-04-18T07:52:09Z</time></trkpt><trkpt lat="43.54558610977433" lon="10.82146239705129"><ele>110.0</ele><time>2026-04-18T07:52:10Z</time></trkpt><trkpt lat="43.54554807421313" lon="10.821256332969913"><ele>110.0</ele><time>2026-04-18T07:52:11Z</time></trkpt><trkpt lat="43.54549310195216" lon="10.821047073586653"><ele>110.0</ele><time>2026-04-18T07:52:12Z</time></trkpt><trkpt lat="43.54545730920915" lon="10.820841756387074"><ele>109.75</ele><time>2026-04-18T07:52:13Z</time></trkpt><trkpt lat="43.54542026204721" lon="10.820648274726377"><ele>109.5</ele><time>2026-04-18T07:52:14Z</time></trkpt><trkpt lat="43.54538326766024" lon="10.820481293837924"><ele>109.25</ele><time>2026-04-18T07:52:15Z</time></trkpt><trkpt lat="43.545322737332405" lon="10.820335171011669"><ele>109.0</ele><time>2026-04-18T07:52:16Z</time></trkpt><trkpt lat="43.54524593779974" lon="10.820213788106578"><ele>106.0</ele><time>2026-04-18T07:52:17Z</time></trkpt><trkpt lat="43.54515521682411" lon="10.82011809326759"><ele>103.0</ele><time>2026-04-18T07:52:18Z</time></trkpt><trkpt lat="43.54504391127259" lon="10.820019031204271"><ele>100.0</ele><time>2026-04-18T07:52:19Z</time></trkpt><trkpt lat="43.54493282993393" lon="10.819902071007407"><ele>97.0</ele><time>2026-04-18T07:52:20Z</time></trkpt><trkpt lat="43.54484774314328" lon="10.819776820813477"><ele>97.0</ele><time>2026-04-18T07:52:21Z</time></trkpt><trkpt lat="43.544770423005374" lon="10.81962661759846"><ele>97.0</ele><time>2026-04-18T07:52:22Z</time></trkpt><trkpt lat="43.54471997838387" lon="10.819481597340909"><ele>97.0</ele><time>2026-04-18T07:52:23Z</time></trkpt><trkpt lat="43.54468896404822" lon="10.819335898497242"><ele>97.0</ele><time>2026-04-18T07:52:24Z</time></trkpt><trkpt lat="43.54466801389995" lon="10.819175776338122"><ele>96.75</ele><time>2026-04-18T07:52:25Z</time></trkpt><trkpt lat="43.544646425915076" lon="10.81898978703676"><ele>96.5</ele><time>2026-04-18T07:52:26Z</time></trkpt><trkpt lat="43.54462024776161" lon="10.818797246816041"><ele>96.25</ele><time>2026-04-18T07:52:27Z</time></trkpt><trkpt lat="43.544590350203805" lon="10.818586563420547"><ele>96.0</ele><time>2026-04-18T07:52:28Z</time></trkpt><trkpt lat="43.544565773870005" lon="10.818378508938622"><ele>91.66666666666667</ele><time>2026-04-18T07:52:29Z</time></trkpt><trkpt lat="43.544532895446835" lon="10.81817264599046"><ele>87.33333333333334</ele><time>2026-04-18T07:52:30Z</time></trkpt><trkpt lat="43.54450381473561" lon="10.817940162822364"><ele>83.0</ele><time>2026-04-18T07:52:31Z</time></trkpt><trkpt lat="43.54448104405608" lon="10.817720925935282"><ele>83.0</ele><time>2026-04-18T07:52:32Z</time></trkpt><trkpt lat="43.54445435100392" lon="10.817519395391875"><ele>83.0</ele><time>2026-04-18T07:52:33Z</time></trkpt><trkpt lat="43.54442656275048" lon="10.817333478283043"><ele>83.0</ele><time>2026-04-18T07:52:34Z</time></trkpt><trkpt lat="43.54439845313189" lon="10.81716275589721"><ele>83.0</ele><time>2026-04-18T07:52:35Z</time></trkpt><trkpt lat="43.54435724617413" lon="10.817007220812128"><ele>83.0</ele><time>2026-04-18T07:52:36Z</time></trkpt><trkpt lat="43.54429891541044" lon="10.816885360945829"><ele>83.0</ele><time>2026-04-18T07:52:37Z</time></trkpt><trkpt lat="43.544225729602026" lon="10.816807299163441"><ele>83.0</ele><time>2026-04-18T07:52:38Z</time></trkpt><trkpt lat="43.54413656318588" lon="10.816759348712328"><ele>83.0</ele><time>2026-04-18T07:52:39Z</time></trkpt><trkpt lat="43.544041330736924" lon="10.816743386611538"><ele>83.0</ele><time>2026-04-18T07:52:40Z</time></trkpt><trkpt lat="43.5439366750961" lon="10.816755759741488"><ele>83.5</ele><time>2026-04-18T07:52:41Z</time></trkpt><trkpt lat="43.54382711594538" lon="10.816795126741544"><ele>84.0</ele><time>2026-04-18T07:52:42Z</time></trkpt><trkpt lat="43.54370950244777" lon="10.816852607503833"><ele>84.5</ele><time>2026-04-18T07:52:43Z</time></trkpt><trkpt lat="43.54356008113488" lon="10.816924403349775"><ele>85.0</ele><time>2026-04-18T07:52:44Z</time></trkpt><trkpt lat="43.54340153065981" lon="10.816992755328089"><ele>85.25</ele><time>2026-04-18T07:52:45Z</time></trkpt><trkpt lat="43.54323700930232" lon="10.817065845782983"><ele>85.5</ele><time>2026-04-18T07:52:46Z</time></trkpt><trkpt lat="43.5430586707373" lon="10.817148456391806"><ele>85.75</ele><time>2026-04-18T07:52:47Z</time></trkpt><trkpt lat="43.542985876156976" lon="10.817186209717306"><ele>86.0</ele><time>2026-04-18T07:52:48Z</time></trkpt><trkpt lat="43.54287933289638" lon="10.817260366574088"><ele>86.0</ele><time>2026-04-18T07:52:49Z</time></trkpt><trkpt lat="43.542772741904564" lon="10.817360924693949"><ele>86.0</ele><time>2026-04-18T07:52:50Z</time></trkpt><trkpt lat="43.54269849474286" lon="10.817491226234198"><ele>86.0</ele><time>2026-04-18T07:52:51Z</time></trkpt><trkpt lat="43.54265158833186" lon="10.817635443720249"><ele>86.0</ele><time>2026-04-18T07:52:52Z</time></trkpt><trkpt lat="43.542627446130716" lon="10.817804124045471"><ele>87.5</ele><time>2026-04-18T07:52:53Z</time></trkpt><trkpt lat="43.54261957256537" lon="10.817991575419354"><ele>89.0</ele><time>2026-04-18T07:52:54Z</time></trkpt><trkpt lat="43.54261662208124" lon="10.818196405154096"><ele>90.5</ele><time>2026-04-18T07:52:55Z</time></trkpt><trkpt lat="43.54260908842917" lon="10.81841105984939"><ele>92.0</ele><time>2026-04-18T07:52:56Z</time></trkpt><trkpt lat="43.54260179097351" lon="10.818628900842336"><ele>93.66666666666667</ele><time>2026-04-18T07:52:57Z</time></trkpt><trkpt lat="43.54258840251824" lon="10.818870580027642"><ele>95.33333333333334</ele><time>2026-04-18T07:52:58Z</time></trkpt><trkpt lat="43.54258006818594" lon="10.819123247089491"><ele>97.0</ele><time>2026-04-18T07:52:59Z</time></trkpt><trkpt lat="43.54256849642443" lon="10.819384365485648"><ele>98.33333333333334</ele><time>2026-04-18T07:53:00Z</time></trkpt><trkpt lat="43.54254875170022" lon="10.819654030267182"><ele>99.66666666666666</ele><time>2026-04-18T07:53:01Z</time></trkpt><trkpt lat="43.54251494368685" lon="10.81991342234097"><ele>101.0</ele><time>2026-04-18T07:53:02Z</time></trkpt><trkpt lat="43.54247032010452" lon="10.820139673370292"><ele>102.0</ele><time>2026-04-18T07:53:03Z</time></trkpt><trkpt lat="43.54241330173227" lon="10.820367772605852"><ele>103.0</ele><time>2026-04-18T07:53:04Z</time></trkpt><trkpt lat="43.542354391224784" lon="10.820595143901903"><ele>104.0</ele><time>2026-04-18T07:53:05Z</time></trkpt><trkpt lat="43.542293681117854" lon="10.820817319924648"><ele>104.0</ele><time>2026-04-18T07:53:06Z</time></trkpt><trkpt lat="43.54222544992474" lon="10.821036393855502"><ele>104.0</ele><time>2026-04-18T07:53:07Z</time></trkpt><trkpt lat="43.54213999630601" lon="10.821226253565543"><ele>104.0</ele><time>2026-04-18T07:53:08Z</time></trkpt><trkpt lat="43.54204024916347" lon="10.82138841928256"><ele>109.33333333333333</ele><time>2026-04-18T07:53:09Z</time></trkpt><trkpt lat="43.54194052462745" lon="10.821553004249036"><ele>114.66666666666666</ele><time>2026-04-18T07:53:10Z</time></trkpt><trkpt lat="43.541848958565105" lon="10.821705281337024"><ele>120.0</ele><time>2026-04-18T07:53:11Z</time></trkpt><trkpt lat="43.54180022377736" lon="10.821911351992524"><ele>120.66666666666666</ele><time>2026-04-18T07:53:12Z</time></trkpt><trkpt lat="43.541760748695744" lon="10.822110207099847"><ele>121.33333333333333</ele><time>2026-04-18T07:53:13Z</time></trkpt><trkpt lat="43.54175122811495" lon="10.82231725592754"><ele>122.0</ele><time>2026-04-18T07:53:14Z</time></trkpt><trkpt lat="43.54175616825004" lon="10.822531653502942"><ele>122.75</ele><time>2026-04-18T07:53:15Z</time></trkpt><trkpt lat="43.54175769231775" lon="10.822741887397159"><ele>123.5</ele><time>2026-04-18T07:53:16Z</time></trkpt><trkpt lat="43.541723083601724" lon="10.82294013879046"><ele>124.25</ele><time>2026-04-18T07:53:17Z</time></trkpt><trkpt lat="43.541675767939246" lon="10.823113626933516"><ele>125.0</ele><time>2026-04-18T07:53:18Z</time></trkpt><trkpt lat="43.54163829974984" lon="10.823307558855557"><ele>125.0</ele><time>2026-04-18T07:53:19Z</time></trkpt><trkpt lat="43.541579591371644" lon="10.82350107546182"><ele>125.0</ele><time>2026-04-18T07:53:20Z</time></trkpt><trkpt lat="43.54150894074181" lon="10.823681438363387"><ele>125.0</ele><time>2026-04-18T07:53:21Z</time></trkpt><trkpt lat="43.541445166118066" lon="10.823883638141579"><ele>125.0</ele><time>2026-04-18T07:53:22Z</time></trkpt><trkpt lat="43.54139454012706" lon="10.824100051913021"><ele>125.0</ele><time>2026-04-18T07:53:23Z</time></trkpt><trkpt lat="43.541320455265485" lon="10.824312753714223"><ele>125.0</ele><time>2026-04-18T07:53:24Z</time></trkpt><trkpt lat="43.54124505974992" lon="10.824524528655378"><ele>130.33333333333331</ele><time>2026-04-18T07:53:25Z</time></trkpt><trkpt lat="43.54117488095495" lon="10.824741073468418"><ele>135.66666666666666</ele><time>2026-04-18T07:53:26Z</time></trkpt><trkpt lat="43.541114531540735" lon="10.824966611881093"><ele>141.0</ele><time>2026-04-18T07:53:27Z</time></trkpt><trkpt lat="43.541041419967044" lon="10.825191472507937"><ele>141.0</ele><time>2026-04-18T07:53:28Z</time></trkpt><trkpt lat="43.54099285276255" lon="10.82542420730582"><ele>141.0</ele><time>2026-04-18T07:53:29Z</time></trkpt><trkpt lat="43.54092876578424" lon="10.82565935809802"><ele>141.0</ele><time>2026-04-18T07:53:30Z</time></trkpt><trkpt lat="43.54086535395023" lon="10.825900403160388"><ele>141.66666666666666</ele><time>2026-04-18T07:53:31Z</time></trkpt><trkpt lat="43.5408048090953" lon="10.826134403824216"><ele>142.33333333333331</ele><time>2026-04-18T07:53:32Z</time></trkpt><trkpt lat="43.540744340708635" lon="10.826374569526473"><ele>143.0</ele><time>2026-04-18T07:53:33Z</time></trkpt><trkpt lat="43.540681999343725" lon="10.826607449646964"><ele>142.33333333333331</ele><time>2026-04-18T07:53:34Z</time></trkpt><trkpt lat="43.540617186375854" lon="10.82684432730887"><ele>141.66666666666666</ele><time>2026-04-18T07:53:35Z</time></trkpt><trkpt lat="43.54055481784533" lon="10.827061986561612"><ele>141.0</ele><time>2026-04-18T07:53:36Z</time></trkpt><trkpt lat="43.54048421507466" lon="10.8272855045386"><ele>141.0</ele><time>2026-04-18T07:53:37Z</time></trkpt><trkpt lat="43.54040221514973" lon="10.82747150211984"><ele>141.0</ele><time>2026-04-18T07:53:38Z</time></trkpt><trkpt lat="43.54031510170801" lon="10.827632966805645"><ele>141.0</ele><time>2026-04-18T07:53:39Z</time></trkpt><trkpt lat="43.54021403454218" lon="10.827824963004398"><ele>143.5</ele><time>2026-04-18T07:53:40Z</time></trkpt><trkpt lat="43.54011993001722" lon="10.82798438807257"><ele>146.0</ele><time>2026-04-18T07:53:41Z</time></trkpt><trkpt lat="43.54004659744953" lon="10.828092159634593"><ele>148.5</ele><time>2026-04-18T07:53:42Z</time></trkpt><trkpt lat="43.53998771751473" lon="10.828167363923997"><ele>151.0</ele><time>2026-04-18T07:53:43Z</time></trkpt><trkpt lat="43.54000595311383" lon="10.828373312413849"><ele>151.25</ele><time>2026-04-18T07:53:44Z</time></trkpt><trkpt lat="43.5400448836297" lon="10.828528438717509"><ele>151.5</ele><time>2026-04-18T07:53:45Z</time></trkpt><trkpt lat="43.540068678255246" lon="10.82870174761808"><ele>151.75</ele><time>2026-04-18T07:53:46Z</time></trkpt><trkpt lat="43.5400941697028" lon="10.828915047005331"><ele>152.0</ele><time>2026-04-18T07:53:47Z</time></trkpt><trkpt lat="43.540121567403645" lon="10.829140684740965"><ele>152.33333333333331</ele><time>2026-04-18T07:53:48Z</time></trkpt><trkpt lat="43.54015025000923" lon="10.82932454734228"><ele>152.66666666666666</ele><time>2026-04-18T07:53:49Z</time></trkpt><trkpt lat="43.54018338734273" lon="10.829520824727222"><ele>153.0</ele><time>2026-04-18T07:53:50Z</time></trkpt><trkpt lat="43.54020507855436" lon="10.82979656149047"><ele>153.0</ele><time>2026-04-18T07:53:51Z</time></trkpt><trkpt lat="43.54023795955098" lon="10.830044580305715"><ele>153.0</ele><time>2026-04-18T07:53:52Z</time></trkpt><trkpt lat="43.54026511485594" lon="10.830282987233582"><ele>153.0</ele><time>2026-04-18T07:53:53Z</time></trkpt><trkpt lat="43.54025759458525" lon="10.830496599911685"><ele>154.0</ele><time>2026-04-18T07:53:54Z</time></trkpt><trkpt lat="43.5402684389593" lon="10.830682539387764"><ele>155.0</ele><time>2026-04-18T07:53:55Z</time></trkpt><trkpt lat="43.54025732706275" lon="10.830878560201876"><ele>156.0</ele><time>2026-04-18T07:53:56Z</time></trkpt><trkpt lat="43.5402449376346" lon="10.831081210967715"><ele>157.0</ele><time>2026-04-18T07:53:57Z</time></trkpt><trkpt lat="43.54023221642785" lon="10.831286042814648"><ele>158.25</ele><time>2026-04-18T07:53:58Z</time></trkpt><trkpt lat="43.540218450688194" lon="10.831480013682452"><ele>159.5</ele><time>2026-04-18T07:53:59Z</time></trkpt><trkpt lat="43.54020615452675" lon="10.83168569743121"><ele>160.75</ele><time>2026-04-18T07:54:00Z</time></trkpt><trkpt lat="43.540193845870036" lon="10.831896058471319"><ele>162.0</ele><time>2026-04-18T07:54:01Z</time></trkpt><trkpt lat="43.54019245536008" lon="10.832107295655202"><ele>162.25</ele><time>2026-04-18T07:54:02Z</time></trkpt><trkpt lat="43.54020673869119" lon="10.832290738218486"><ele>162.5</ele><time>2026-04-18T07:54:03Z</time></trkpt><trkpt lat="43.54023465344531" lon="10.832476658936121"><ele>162.75</ele><time>2026-04-18T07:54:04Z</time></trkpt><trkpt lat="43.54027096227569" lon="10.832664067334285"><ele>163.0</ele><time>2026-04-18T07:54:05Z</time></trkpt><trkpt lat="43.540311140202355" lon="10.832852510578746"><ele>163.0</ele><time>2026-04-18T07:54:06Z</time></trkpt><trkpt lat="43.54033903907189" lon="10.833013916679413"><ele>163.0</ele><time>2026-04-18T07:54:07Z</time></trkpt><trkpt lat="43.540355113507" lon="10.833180808036976"><ele>163.0</ele><time>2026-04-18T07:54:08Z</time></trkpt><trkpt lat="43.54036093921222" lon="10.83336968046766"><ele>163.0</ele><time>2026-04-18T07:54:09Z</time></trkpt><trkpt lat="43.54036231637171" lon="10.833569715901648"><ele>162.0</ele><time>2026-04-18T07:54:10Z</time></trkpt><trkpt lat="43.54033867255125" lon="10.83379463686903"><ele>161.0</ele><time>2026-04-18T07:54:11Z</time></trkpt><trkpt lat="43.540328913418" lon="10.834025397427846"><ele>160.0</ele><time>2026-04-18T07:54:12Z</time></trkpt><trkpt lat="43.54031846360594" lon="10.834261652674416"><ele>160.33333333333334</ele><time>2026-04-18T07:54:13Z</time></trkpt><trkpt lat="43.54030737427339" lon="10.834512366503263"><ele>160.66666666666666</ele><time>2026-04-18T07:54:14Z</time></trkpt><trkpt lat="43.54029635908134" lon="10.834759028315435"><ele>161.0</ele><time>2026-04-18T07:54:15Z</time></trkpt><trkpt lat="43.54030125764696" lon="10.835006532111645"><ele>160.66666666666666</ele><time>2026-04-18T07:54:16Z</time></trkpt><trkpt lat="43.54028466095651" lon="10.835259783467864"><ele>160.33333333333334</ele><time>2026-04-18T07:54:17Z</time></trkpt><trkpt lat="43.540273071370315" lon="10.835505383823085"><ele>160.0</ele><time>2026-04-18T07:54:18Z</time></trkpt><trkpt lat="43.540262960332115" lon="10.835733092809498"><ele>160.0</ele><time>2026-04-18T07:54:19Z</time></trkpt><trkpt lat="43.5402527201433" lon="10.835946299718872"><ele>160.0</ele><time>2026-04-18T07:54:20Z</time></trkpt><trkpt lat="43.540241300586544" lon="10.836144778550208"><ele>160.0</ele><time>2026-04-18T07:54:21Z</time></trkpt><trkpt lat="43.54023479239862" lon="10.836345457702622"><ele>160.0</ele><time>2026-04-18T07:54:22Z</time></trkpt><trkpt lat="43.54023109973329" lon="10.836519006471157"><ele>159.25</ele><time>2026-04-18T07:54:23Z</time></trkpt><trkpt lat="43.54023014271428" lon="10.836692007499034"><ele>158.5</ele><time>2026-04-18T07:54:24Z</time></trkpt><trkpt lat="43.540230681762104" lon="10.836879981797924"><ele>157.75</ele><time>2026-04-18T07:54:25Z</time></trkpt><trkpt lat="43.54023836329568" lon="10.837080938222233"><ele>157.0</ele><time>2026-04-18T07:54:26Z</time></trkpt><trkpt lat="43.54025500482682" lon="10.837295098315641"><ele>157.0</ele><time>2026-04-18T07:54:27Z</time></trkpt><trkpt lat="43.54028711474514" lon="10.837522724433084"><ele>157.0</ele><time>2026-04-18T07:54:28Z</time></trkpt><trkpt lat="43.540326279897904" lon="10.837767860033344"><ele>157.0</ele><time>2026-04-18T07:54:29Z</time></trkpt><trkpt lat="43.54037106287337" lon="10.838015230448217"><ele>157.66666666666669</ele><time>2026-04-18T07:54:30Z</time></trkpt><trkpt lat="43.54041251602642" lon="10.838241386575389"><ele>158.33333333333334</ele><time>2026-04-18T07:54:31Z</time></trkpt><trkpt lat="43.54045200954832" lon="10.838458376667054"><ele>159.0</ele><time>2026-04-18T07:54:32Z</time></trkpt><trkpt lat="43.54048846668577" lon="10.838640665813521"><ele>161.25</ele><time>2026-04-18T07:54:33Z</time></trkpt><trkpt lat="43.54052174950833" lon="10.838804413934842"><ele>163.5</ele><time>2026-04-18T07:54:34Z</time></trkpt><trkpt lat="43.5405391459315" lon="10.838984764482488"><ele>165.75</ele><time>2026-04-18T07:54:35Z</time></trkpt><trkpt lat="43.540573038391926" lon="10.839180016154069"><ele>168.0</ele><time>2026-04-18T07:54:36Z</time></trkpt><trkpt lat="43.54060921616003" lon="10.839370433786337"><ele>169.16666666666666</ele><time>2026-04-18T07:54:37Z</time></trkpt><trkpt lat="43.54063759092308" lon="10.839516634118274"><ele>170.33333333333334</ele><time>2026-04-18T07:54:38Z</time></trkpt><trkpt lat="43.540657422386175" lon="10.839627437033762"><ele>171.5</ele><time>2026-04-18T07:54:39Z</time></trkpt><trkpt lat="43.54065803878767" lon="10.839727973970225"><ele>172.66666666666669</ele><time>2026-04-18T07:54:41Z</time></trkpt><trkpt lat="43.54058620885798" lon="10.839662531336177"><ele>173.83333333333334</ele><time>2026-04-18T07:54:42Z</time></trkpt><trkpt lat="43.54053617147381" lon="10.839599585492193"><ele>175.0</ele><time>2026-04-18T07:54:43Z</time></trkpt><trkpt lat="43.540459026756636" lon="10.839556930394263"><ele>175.2</ele><time>2026-04-18T07:54:44Z</time></trkpt><trkpt lat="43.54036251421523" lon="10.839554549266913"><ele>175.4</ele><time>2026-04-18T07:54:45Z</time></trkpt><trkpt lat="43.54028296034021" lon="10.8395410777921"><ele>175.60000000000002</ele><time>2026-04-18T07:54:46Z</time></trkpt><trkpt lat="43.54016903101444" lon="10.83951141256872"><ele>175.8</ele><time>2026-04-18T07:54:48Z</time></trkpt><trkpt lat="43.54011675079296" lon="10.839448532493307"><ele>176.0</ele><time>2026-04-18T07:54:49Z</time></trkpt><trkpt lat="43.54001328472686" lon="10.839364575567558"><ele>174.5</ele><time>2026-04-18T07:54:50Z</time></trkpt><trkpt lat="43.53991335695567" lon="10.839278249233102"><ele>173.0</ele><time>2026-04-18T07:54:51Z</time></trkpt><trkpt lat="43.53980093190295" lon="10.839180961132719"><ele>171.5</ele><time>2026-04-18T07:54:52Z</time></trkpt><trkpt lat="43.53968106555671" lon="10.839101438009973"><ele>170.0</ele><time>2026-04-18T07:54:53Z</time></trkpt><trkpt lat="43.53958059557899" lon="10.839019829685196"><ele>169.8</ele><time>2026-04-18T07:54:54Z</time></trkpt><trkpt lat="43.539484503021995" lon="10.838944233551857"><ele>169.6</ele><time>2026-04-18T07:54:55Z</time></trkpt><trkpt lat="43.53940247783507" lon="10.83885811808766"><ele>169.39999999999998</ele><time>2026-04-18T07:54:56Z</time></trkpt><trkpt lat="43.53932508749201" lon="10.838793849620393"><ele>169.2</ele><time>2026-04-18T07:54:57Z</time></trkpt><trkpt lat="43.539249432525295" lon="10.838726713083181"><ele>169.0</ele><time>2026-04-18T07:54:58Z</time></trkpt><trkpt lat="43.53914877232327" lon="10.83866203391115"><ele>169.0</ele><time>2026-04-18T07:54:59Z</time></trkpt><trkpt lat="43.5390611232495" lon="10.838579160402231"><ele>169.0</ele><time>2026-04-18T07:55:00Z</time></trkpt><trkpt lat="43.53895720945382" lon="10.8384825622924"><ele>169.0</ele><time>2026-04-18T07:55:01Z</time></trkpt><trkpt lat="43.538844844445116" lon="10.838395901571092"><ele>169.0</ele><time>2026-04-18T07:55:02Z</time></trkpt><trkpt lat="43.53873508853439" lon="10.838320558613967"><ele>168.0</ele><time>2026-04-18T07:55:03Z</time></trkpt><trkpt lat="43.53863034398084" lon="10.838218448598306"><ele>167.0</ele><time>2026-04-18T07:55:04Z</time></trkpt><trkpt lat="43.53850301604785" lon="10.838133899086223"><ele>166.0</ele><time>2026-04-18T07:55:05Z</time></trkpt><trkpt lat="43.5383991489228" lon="10.838044615099973"><ele>165.0</ele><time>2026-04-18T07:55:06Z</time></trkpt><trkpt lat="43.53832658588106" lon="10.837957219088846"><ele>165.0</ele><time>2026-04-18T07:55:07Z</time></trkpt><trkpt lat="43.53825668766001" lon="10.837896742842023"><ele>165.0</ele><time>2026-04-18T07:55:08Z</time></trkpt><trkpt lat="43.538193936035846" lon="10.837842450268262"><ele>165.0</ele><time>2026-04-18T07:55:09Z</time></trkpt><trkpt lat="43.53810943664941" lon="10.837769341036156"><ele>165.0</ele><time>2026-04-18T07:55:10Z</time></trkpt><trkpt lat="43.53802118188363" lon="10.83769298272355"><ele>165.0</ele><time>2026-04-18T07:55:11Z</time></trkpt><trkpt lat="43.53793650304917" lon="10.83761971868074"><ele>163.83333333333334</ele><time>2026-04-18T07:55:12Z</time></trkpt><trkpt lat="43.53786341289444" lon="10.837556479971562"><ele>162.66666666666666</ele><time>2026-04-18T07:55:13Z</time></trkpt><trkpt lat="43.537799871933366" lon="10.837505372252908"><ele>161.5</ele><time>2026-04-18T07:55:14Z</time></trkpt><trkpt lat="43.537733471837555" lon="10.837575178450997"><ele>160.33333333333331</ele><time>2026-04-18T07:55:15Z</time></trkpt><trkpt lat="43.537665039519894" lon="10.837539859795616"><ele>159.16666666666666</ele><time>2026-04-18T07:55:19Z</time></trkpt><trkpt lat="43.53760096035433" lon="10.837492599601926"><ele>158.0</ele><time>2026-04-18T07:55:22Z</time></trkpt><trkpt lat="43.537510680744965" lon="10.837449795118433"><ele>158.0</ele><time>2026-04-18T07:55:25Z</time></trkpt><trkpt lat="43.53744468105278" lon="10.837433641831813"><ele>158.0</ele><time>2026-04-18T07:55:26Z</time></trkpt><trkpt lat="43.53738108228825" lon="10.83741042755264"><ele>158.0</ele><time>2026-04-18T07:55:27Z</time></trkpt><trkpt lat="43.53745138260847" lon="10.837500228188455"><ele>158.0</ele><time>2026-04-18T07:55:33Z</time></trkpt><trkpt lat="43.53753726073147" lon="10.83749538325556"><ele>158.0</ele><time>2026-04-18T07:55:34Z</time></trkpt><trkpt lat="43.53762965758318" lon="10.837518690454829"><ele>158.0</ele><time>2026-04-18T07:55:35Z</time></trkpt><trkpt lat="43.53770452481753" lon="10.837570943662971"><ele>158.0</ele><time>2026-04-18T07:55:36Z</time></trkpt><trkpt lat="43.53777788286205" lon="10.837626859893035"><ele>158.0</ele><time>2026-04-18T07:55:38Z</time></trkpt><trkpt lat="43.5377717511991" lon="10.837501991832866"><ele>158.0</ele><time>2026-04-18T07:55:42Z</time></trkpt><trkpt lat="43.537635982577285" lon="10.837377220353902"><ele>158.0</ele><time>2026-04-18T07:55:44Z</time></trkpt><trkpt lat="43.53753048636424" lon="10.837313946906287"><ele>158.0</ele><time>2026-04-18T07:55:45Z</time></trkpt><trkpt lat="43.5374020560873" lon="10.837292700645225"><ele>158.0</ele><time>2026-04-18T07:55:46Z</time></trkpt><trkpt lat="43.53727563543165" lon="10.837235737139634"><ele>158.0</ele><time>2026-04-18T07:55:47Z</time></trkpt><trkpt lat="43.53714190692659" lon="10.837225725497998"><ele>158.0</ele><time>2026-04-18T07:55:48Z</time></trkpt><trkpt lat="43.53703416411855" lon="10.837186293951005"><ele>158.8</ele><time>2026-04-18T07:55:49Z</time></trkpt><trkpt lat="43.53696035357619" lon="10.837075800095473"><ele>159.60000000000002</ele><time>2026-04-18T07:55:50Z</time></trkpt><trkpt lat="43.53686017551813" lon="10.836976711951863"><ele>160.39999999999998</ele><time>2026-04-18T07:55:51Z</time></trkpt><trkpt lat="43.53677705832854" lon="10.83692617160392"><ele>161.2</ele><time>2026-04-18T07:55:53Z</time></trkpt><trkpt lat="43.53670178167444" lon="10.83686450239819"><ele>162.0</ele><time>2026-04-18T07:55:54Z</time></trkpt><trkpt lat="43.53661554244303" lon="10.836812761333615"><ele>160.75</ele><time>2026-04-18T07:55:55Z</time></trkpt><trkpt lat="43.536525352824896" lon="10.836752686299747"><ele>159.5</ele><time>2026-04-18T07:55:56Z</time></trkpt><trkpt lat="43.53644524093672" lon="10.836682905919236"><ele>158.25</ele><time>2026-04-18T07:55:57Z</time></trkpt><trkpt lat="43.536348240630936" lon="10.836561231137324"><ele>157.0</ele><time>2026-04-18T07:55:58Z</time></trkpt><trkpt lat="43.53623908261872" lon="10.836438639905744"><ele>159.6</ele><time>2026-04-18T07:55:59Z</time></trkpt><trkpt lat="43.53613746906217" lon="10.836327844480794"><ele>162.2</ele><time>2026-04-18T07:56:00Z</time></trkpt><trkpt lat="43.5360388263293" lon="10.83631769306049"><ele>164.8</ele><time>2026-04-18T07:56:01Z</time></trkpt><trkpt lat="43.53595920515333" lon="10.83626126146397"><ele>167.4</ele><time>2026-04-18T07:56:02Z</time></trkpt><trkpt lat="43.53586579331645" lon="10.836171179598137"><ele>170.0</ele><time>2026-04-18T07:56:03Z</time></trkpt><trkpt lat="43.53579682059111" lon="10.836060684185451"><ele>168.0</ele><time>2026-04-18T07:56:04Z</time></trkpt><trkpt lat="43.53571852911844" lon="10.835946912008552"><ele>166.0</ele><time>2026-04-18T07:56:05Z</time></trkpt><trkpt lat="43.53562748432223" lon="10.83583386389804"><ele>164.0</ele><time>2026-04-18T07:56:06Z</time></trkpt><trkpt lat="43.535533126659615" lon="10.835697746371952"><ele>162.0</ele><time>2026-04-18T07:56:07Z</time></trkpt><trkpt lat="43.53542789797071" lon="10.835554433590273"><ele>166.25</ele><time>2026-04-18T07:56:08Z</time></trkpt><trkpt lat="43.535319941406534" lon="10.835414515164695"><ele>170.5</ele><time>2026-04-18T07:56:09Z</time></trkpt><trkpt lat="43.53520993790717" lon="10.83531320406486"><ele>174.75</ele><time>2026-04-18T07:56:10Z</time></trkpt><trkpt lat="43.535111669960834" lon="10.835261377733207"><ele>179.0</ele><time>2026-04-18T07:56:11Z</time></trkpt><trkpt lat="43.53499671876624" lon="10.835245933836395"><ele>179.0</ele><time>2026-04-18T07:56:12Z</time></trkpt><trkpt lat="43.53492375545938" lon="10.835148891876637"><ele>179.0</ele><time>2026-04-18T07:56:13Z</time></trkpt><trkpt lat="43.53494244840751" lon="10.83501955035515"><ele>179.0</ele><time>2026-04-18T07:56:14Z</time></trkpt><trkpt lat="43.53491281509527" lon="10.83493301741266"><ele>179.0</ele><time>2026-04-18T07:56:15Z</time></trkpt><trkpt lat="43.534870893176425" lon="10.834814814973658"><ele>179.0</ele><time>2026-04-18T07:56:16Z</time></trkpt><trkpt lat="43.534808307527676" lon="10.834672119447141"><ele>177.25</ele><time>2026-04-18T07:56:17Z</time></trkpt><trkpt lat="43.534735309233156" lon="10.83453338917649"><ele>175.5</ele><time>2026-04-18T07:56:18Z</time></trkpt><trkpt lat="43.53465810971796" lon="10.834414351534106"><ele>173.75</ele><time>2026-04-18T07:56:19Z</time></trkpt><trkpt lat="43.534562473444886" lon="10.834293562385342"><ele>172.0</ele><time>2026-04-18T07:56:20Z</time></trkpt><trkpt lat="43.5344571278928" lon="10.83419227695242"><ele>172.0</ele><time>2026-04-18T07:56:21Z</time></trkpt><trkpt lat="43.53437795662072" lon="10.83407410151167"><ele>172.0</ele><time>2026-04-18T07:56:22Z</time></trkpt><trkpt lat="43.53429294714207" lon="10.833982432353269"><ele>172.0</ele><time>2026-04-18T07:56:23Z</time></trkpt><trkpt lat="43.53423171835409" lon="10.833923950438367"><ele>172.0</ele><time>2026-04-18T07:56:24Z</time></trkpt><trkpt lat="43.534172026343896" lon="10.833874698456917"><ele>172.0</ele><time>2026-04-18T07:56:25Z</time></trkpt><trkpt lat="43.534075573694416" lon="10.83381668751429"><ele>172.0</ele><time>2026-04-18T07:56:26Z</time></trkpt><trkpt lat="43.533959086616" lon="10.833745994661188"><ele>172.0</ele><time>2026-04-18T07:56:27Z</time></trkpt><trkpt lat="43.533898629158045" lon="10.833639766518314"><ele>172.0</ele><time>2026-04-18T07:56:28Z</time></trkpt><trkpt lat="43.533818344302695" lon="10.833526263364792"><ele>172.0</ele><time>2026-04-18T07:56:29Z</time></trkpt><trkpt lat="43.53374377454478" lon="10.833401560412284"><ele>171.25</ele><time>2026-04-18T07:56:30Z</time></trkpt><trkpt lat="43.53367163041498" lon="10.833256309349105"><ele>170.5</ele><time>2026-04-18T07:56:31Z</time></trkpt><trkpt lat="43.53358447514819" lon="10.833147711430566"><ele>169.75</ele><time>2026-04-18T07:56:32Z</time></trkpt><trkpt lat="43.53352580968109" lon="10.833009490968768"><ele>169.0</ele><time>2026-04-18T07:56:33Z</time></trkpt><trkpt lat="43.5334772873778" lon="10.832900038466633"><ele>169.0</ele><time>2026-04-18T07:56:34Z</time></trkpt><trkpt lat="43.53341897104162" lon="10.832755193750025"><ele>169.0</ele><time>2026-04-18T07:56:35Z</time></trkpt><trkpt lat="43.53335968996837" lon="10.832595967468704"><ele>169.0</ele><time>2026-04-18T07:56:36Z</time></trkpt><trkpt lat="43.53328321749124" lon="10.832458950462524"><ele>169.0</ele><time>2026-04-18T07:56:37Z</time></trkpt><trkpt lat="43.533219026410144" lon="10.832339266891504"><ele>169.25</ele><time>2026-04-18T07:56:38Z</time></trkpt><trkpt lat="43.53313479568742" lon="10.832224943836673"><ele>169.5</ele><time>2026-04-18T07:56:39Z</time></trkpt><trkpt lat="43.53304569648211" lon="10.832114427249293"><ele>169.75</ele><time>2026-04-18T07:56:40Z</time></trkpt><trkpt lat="43.53296285347763" lon="10.831974973603534"><ele>170.0</ele><time>2026-04-18T07:56:41Z</time></trkpt><trkpt lat="43.532873289382145" lon="10.831814568627133"><ele>170.0</ele><time>2026-04-18T07:56:42Z</time></trkpt><trkpt lat="43.53280630990932" lon="10.831622529714855"><ele>170.0</ele><time>2026-04-18T07:56:43Z</time></trkpt><trkpt lat="43.53272672737314" lon="10.831476041545482"><ele>170.0</ele><time>2026-04-18T07:56:44Z</time></trkpt><trkpt lat="43.53267163972944" lon="10.831355934652445"><ele>170.0</ele><time>2026-04-18T07:56:45Z</time></trkpt><trkpt lat="43.53261573152608" lon="10.831258536732916"><ele>170.0</ele><time>2026-04-18T07:56:46Z</time></trkpt><trkpt lat="43.532560033783334" lon="10.831186459571741"><ele>170.0</ele><time>2026-04-18T07:56:47Z</time></trkpt><trkpt lat="43.53248811572877" lon="10.831115271927636"><ele>170.0</ele><time>2026-04-18T07:56:48Z</time></trkpt><trkpt lat="43.53239937817938" lon="10.831030571496814"><ele>170.0</ele><time>2026-04-18T07:56:49Z</time></trkpt><trkpt lat="43.5322895021962" lon="10.8309494625773"><ele>170.0</ele><time>2026-04-18T07:56:50Z</time></trkpt><trkpt lat="43.532175673194736" lon="10.83088013310503"><ele>172.75</ele><time>2026-04-18T07:56:51Z</time></trkpt><trkpt lat="43.5320528961645" lon="10.830823319765955"><ele>175.5</ele><time>2026-04-18T07:56:52Z</time></trkpt><trkpt lat="43.53193851498444" lon="10.830771694000614"><ele>178.25</ele><time>2026-04-18T07:56:53Z</time></trkpt><trkpt lat="43.531812071462895" lon="10.830737445888989"><ele>181.0</ele><time>2026-04-18T07:56:54Z</time></trkpt><trkpt lat="43.53169547622969" lon="10.830651500485942"><ele>181.0</ele><time>2026-04-18T07:56:55Z</time></trkpt><trkpt lat="43.5315747782303" lon="10.830583340459413"><ele>181.0</ele><time>2026-04-18T07:56:56Z</time></trkpt><trkpt lat="43.53145691265455" lon="10.830536369838539"><ele>181.0</ele><time>2026-04-18T07:56:57Z</time></trkpt><trkpt lat="43.53133444211935" lon="10.830472346295274"><ele>181.0</ele><time>2026-04-18T07:56:58Z</time></trkpt><trkpt lat="43.53122960680984" lon="10.83041332150455"><ele>180.5</ele><time>2026-04-18T07:56:59Z</time></trkpt><trkpt lat="43.531149615930836" lon="10.830348854010655"><ele>180.0</ele><time>2026-04-18T07:57:00Z</time></trkpt><trkpt lat="43.53108866038085" lon="10.83027223293266"><ele>179.5</ele><time>2026-04-18T07:57:01Z</time></trkpt><trkpt lat="43.53105952102177" lon="10.830152787361799"><ele>179.0</ele><time>2026-04-18T07:57:02Z</time></trkpt><trkpt lat="43.53103112985333" lon="10.830046833411796"><ele>178.5</ele><time>2026-04-18T07:57:03Z</time></trkpt><trkpt lat="43.53101130028262" lon="10.829949146612122"><ele>178.0</ele><time>2026-04-18T07:57:04Z</time></trkpt><trkpt lat="43.530994234201806" lon="10.829813752130914"><ele>178.0</ele><time>2026-04-18T07:57:05Z</time></trkpt><trkpt lat="43.530978697505205" lon="10.829667940536197"><ele>178.0</ele><time>2026-04-18T07:57:06Z</time></trkpt><trkpt lat="43.53096540814797" lon="10.829520570906219"><ele>178.0</ele><time>2026-04-18T07:57:07Z</time></trkpt><trkpt lat="43.53095239739834" lon="10.829388108158648"><ele>178.0</ele><time>2026-04-18T07:57:08Z</time></trkpt><trkpt lat="43.530929798008565" lon="10.829246740362475"><ele>178.0</ele><time>2026-04-18T07:57:09Z</time></trkpt><trkpt lat="43.530887294557964" lon="10.829117770385743"><ele>177.60000000000002</ele><time>2026-04-18T07:57:10Z</time></trkpt><trkpt lat="43.53085435753675" lon="10.829010104055293"><ele>177.20000000000002</ele><time>2026-04-18T07:57:11Z</time></trkpt><trkpt lat="43.53080358438848" lon="10.828880117850568"><ele>176.8</ele><time>2026-04-18T07:57:12Z</time></trkpt><trkpt lat="43.53073236307115" lon="10.828753989405996"><ele>176.4</ele><time>2026-04-18T07:57:13Z</time></trkpt><trkpt lat="43.53064764196163" lon="10.82861653457527"><ele>176.0</ele><time>2026-04-18T07:57:14Z</time></trkpt><trkpt lat="43.530562730651404" lon="10.828481299374651"><ele>175.0</ele><time>2026-04-18T07:57:15Z</time></trkpt><trkpt lat="43.53046633906848" lon="10.828354997875381"><ele>174.0</ele><time>2026-04-18T07:57:16Z</time></trkpt><trkpt lat="43.53038289909081" lon="10.828231697096255"><ele>173.0</ele><time>2026-04-18T07:57:17Z</time></trkpt><trkpt lat="43.530313314095714" lon="10.828150837629508"><ele>172.0</ele><time>2026-04-18T07:57:18Z</time></trkpt><trkpt lat="43.53022490794952" lon="10.828033678088572"><ele>171.2</ele><time>2026-04-18T07:57:19Z</time></trkpt><trkpt lat="43.530138050564965" lon="10.827945712726603"><ele>170.39999999999998</ele><time>2026-04-18T07:57:20Z</time></trkpt><trkpt lat="43.5300977462354" lon="10.827853489439272"><ele>169.60000000000002</ele><time>2026-04-18T07:57:21Z</time></trkpt><trkpt lat="43.53000685171037" lon="10.827737302509956"><ele>168.8</ele><time>2026-04-18T07:57:23Z</time></trkpt><trkpt lat="43.52996142744365" lon="10.827650339717643"><ele>168.0</ele><time>2026-04-18T07:57:24Z</time></trkpt><trkpt lat="43.52989427171493" lon="10.827536615400756"><ele>168.0</ele><time>2026-04-18T07:57:26Z</time></trkpt><trkpt lat="43.5298457421372" lon="10.827436047406728"><ele>168.0</ele><time>2026-04-18T07:57:28Z</time></trkpt><trkpt lat="43.529781693388756" lon="10.827303283765733"><ele>168.0</ele><time>2026-04-18T07:57:30Z</time></trkpt><trkpt lat="43.52974529041131" lon="10.827230821146175"><ele>168.0</ele><time>2026-04-18T07:57:31Z</time></trkpt><trkpt lat="43.52967055488327" lon="10.827086631008033"><ele>168.0</ele><time>2026-04-18T07:57:33Z</time></trkpt><trkpt lat="43.52961640785363" lon="10.826983599523917"><ele>168.0</ele><time>2026-04-18T07:57:34Z</time></trkpt><trkpt lat="43.52956881414507" lon="10.826908188642813"><ele>168.0</ele><time>2026-04-18T07:57:35Z</time></trkpt><trkpt lat="43.52951115656869" lon="10.82681388383152"><ele>168.0</ele><time>2026-04-18T07:57:37Z</time></trkpt><trkpt lat="43.52943774004547" lon="10.82667812458266"><ele>168.0</ele><time>2026-04-18T07:57:39Z</time></trkpt><trkpt lat="43.52938253197641" lon="10.82657050205104"><ele>168.0</ele><time>2026-04-18T07:57:40Z</time></trkpt><trkpt lat="43.52933171098953" lon="10.826471821324313"><ele>165.4</ele><time>2026-04-18T07:57:41Z</time></trkpt><trkpt lat="43.52928322672707" lon="10.82637697088261"><ele>162.8</ele><time>2026-04-18T07:57:42Z</time></trkpt><trkpt lat="43.529213074974024" lon="10.826267920466544"><ele>160.2</ele><time>2026-04-18T07:57:43Z</time></trkpt><trkpt lat="43.52915224189987" lon="10.82616352456356"><ele>157.6</ele><time>2026-04-18T07:57:44Z</time></trkpt><trkpt lat="43.52909601499864" lon="10.826057046635821"><ele>155.0</ele><time>2026-04-18T07:57:45Z</time></trkpt><trkpt lat="43.52904555525287" lon="10.825918542881062"><ele>152.6</ele><time>2026-04-18T07:57:46Z</time></trkpt><trkpt lat="43.5289969928078" lon="10.825798485625416"><ele>150.2</ele><time>2026-04-18T07:57:47Z</time></trkpt><trkpt lat="43.528958267612374" lon="10.825688165325179"><ele>147.8</ele><time>2026-04-18T07:57:48Z</time></trkpt><trkpt lat="43.5289184857494" lon="10.825561887557186"><ele>145.4</ele><time>2026-04-18T07:57:49Z</time></trkpt><trkpt lat="43.52888120934726" lon="10.825431317071505"><ele>143.0</ele><time>2026-04-18T07:57:50Z</time></trkpt><trkpt lat="43.528847865057315" lon="10.825288306461417"><ele>143.0</ele><time>2026-04-18T07:57:51Z</time></trkpt><trkpt lat="43.528818220427574" lon="10.8251518583483"><ele>143.0</ele><time>2026-04-18T07:57:52Z</time></trkpt><trkpt lat="43.52879105493668" lon="10.825024949249894"><ele>143.0</ele><time>2026-04-18T07:57:53Z</time></trkpt><trkpt lat="43.528755021125015" lon="10.82492880426377"><ele>143.0</ele><time>2026-04-18T07:57:54Z</time></trkpt><trkpt lat="43.5287407329779" lon="10.82484208337281"><ele>143.0</ele><time>2026-04-18T07:57:55Z</time></trkpt><trkpt lat="43.528724068136384" lon="10.82469003598707"><ele>141.8</ele><time>2026-04-18T07:57:57Z</time></trkpt><trkpt lat="43.52867967512408" lon="10.824561916731508"><ele>140.60000000000002</ele><time>2026-04-18T07:57:59Z</time></trkpt><trkpt lat="43.528675737543445" lon="10.824470910431552"><ele>139.39999999999998</ele><time>2026-04-18T07:58:00Z</time></trkpt><trkpt lat="43.52862698746222" lon="10.824341758707625"><ele>138.2</ele><time>2026-04-18T07:58:02Z</time></trkpt><trkpt lat="43.52858513140545" lon="10.824195664303565"><ele>137.0</ele><time>2026-04-18T07:58:04Z</time></trkpt><trkpt lat="43.52854555164229" lon="10.824020820768666"><ele>136.83333333333331</ele><time>2026-04-18T07:58:06Z</time></trkpt><trkpt lat="43.528481253843786" lon="10.823885269368105"><ele>136.66666666666666</ele><time>2026-04-18T07:58:08Z</time></trkpt><trkpt lat="43.52846343710685" lon="10.823788414238916"><ele>136.5</ele><time>2026-04-18T07:58:09Z</time></trkpt><trkpt lat="43.528417258567416" lon="10.823699738149005"><ele>136.33333333333334</ele><time>2026-04-18T07:58:10Z</time></trkpt><trkpt lat="43.52838553047806" lon="10.82361334820582"><ele>136.16666666666669</ele><time>2026-04-18T07:58:11Z</time></trkpt><trkpt lat="43.52834600104012" lon="10.823531985685674"><ele>136.0</ele><time>2026-04-18T07:58:12Z</time></trkpt><trkpt lat="43.528306771601486" lon="10.823442875808649"><ele>134.6</ele><time>2026-04-18T07:58:13Z</time></trkpt><trkpt lat="43.528252220360834" lon="10.823319875039335"><ele>133.2</ele><time>2026-04-18T07:58:14Z</time></trkpt><trkpt lat="43.52819851882105" lon="10.823193421561372"><ele>131.8</ele><time>2026-04-18T07:58:15Z</time></trkpt><trkpt lat="43.528147361565495" lon="10.823072588459384"><ele>130.4</ele><time>2026-04-18T07:58:16Z</time></trkpt><trkpt lat="43.52809702342557" lon="10.822959043122905"><ele>129.0</ele><time>2026-04-18T07:58:17Z</time></trkpt><trkpt lat="43.5280458848438" lon="10.822846562632645"><ele>129.0</ele><time>2026-04-18T07:58:18Z</time></trkpt><trkpt lat="43.527991590269124" lon="10.822734328478434"><ele>129.0</ele><time>2026-04-18T07:58:19Z</time></trkpt><trkpt lat="43.52794751133962" lon="10.82262447777581"><ele>129.0</ele><time>2026-04-18T07:58:20Z</time></trkpt><trkpt lat="43.52788905096966" lon="10.822529348843995"><ele>129.0</ele><time>2026-04-18T07:58:21Z</time></trkpt><trkpt lat="43.52787650940412" lon="10.822435627351986"><ele>129.0</ele><time>2026-04-18T07:58:22Z</time></trkpt><trkpt lat="43.52785478826173" lon="10.822275396780414"><ele>126.75</ele><time>2026-04-18T07:58:24Z</time></trkpt><trkpt lat="43.52795027859275" lon="10.822141547751485"><ele>124.5</ele><time>2026-04-18T07:58:26Z</time></trkpt><trkpt lat="43.52800077277592" lon="10.822011189536688"><ele>122.25</ele><time>2026-04-18T07:58:27Z</time></trkpt><trkpt lat="43.528015718720795" lon="10.821845847510053"><ele>120.0</ele><time>2026-04-18T07:58:28Z</time></trkpt><trkpt lat="43.528028979269635" lon="10.821668399827287"><ele>117.33333333333334</ele><time>2026-04-18T07:58:29Z</time></trkpt><trkpt lat="43.5280099346699" lon="10.821469588619049"><ele>114.66666666666667</ele><time>2026-04-18T07:58:30Z</time></trkpt><trkpt lat="43.52798211570823" lon="10.821261797115376"><ele>112.0</ele><time>2026-04-18T07:58:31Z</time></trkpt><trkpt lat="43.52794578619573" lon="10.821057671595415"><ele>111.6</ele><time>2026-04-18T07:58:32Z</time></trkpt><trkpt lat="43.52791913421904" lon="10.820874038418978"><ele>111.19999999999999</ele><time>2026-04-18T07:58:33Z</time></trkpt><trkpt lat="43.52789457164" lon="10.820712314595708"><ele>110.8</ele><time>2026-04-18T07:58:34Z</time></trkpt><trkpt lat="43.527860883231" lon="10.820582559828804"><ele>110.4</ele><time>2026-04-18T07:58:35Z</time></trkpt><trkpt lat="43.52780074488227" lon="10.820490411077445"><ele>110.0</ele><time>2026-04-18T07:58:36Z</time></trkpt><trkpt lat="43.52771535132977" lon="10.820433282171747"><ele>110.0</ele><time>2026-04-18T07:58:37Z</time></trkpt><trkpt lat="43.527612587136346" lon="10.820404520842343"><ele>110.0</ele><time>2026-04-18T07:58:38Z</time></trkpt><trkpt lat="43.52749140761809" lon="10.82038994049812"><ele>110.0</ele><time>2026-04-18T07:58:39Z</time></trkpt><trkpt lat="43.52735727459688" lon="10.820342274382915"><ele>110.0</ele><time>2026-04-18T07:58:40Z</time></trkpt><trkpt lat="43.527235351918996" lon="10.820304664124178"><ele>110.0</ele><time>2026-04-18T07:58:41Z</time></trkpt><trkpt lat="43.527124609783314" lon="10.820251544292436"><ele>110.0</ele><time>2026-04-18T07:58:42Z</time></trkpt><trkpt lat="43.52703067163611" lon="10.820194024973159"><ele>110.0</ele><time>2026-04-18T07:58:43Z</time></trkpt><trkpt lat="43.52698291036213" lon="10.82007810421572"><ele>110.0</ele><time>2026-04-18T07:58:44Z</time></trkpt><trkpt lat="43.527012093970576" lon="10.819943881528259"><ele>110.0</ele><time>2026-04-18T07:58:45Z</time></trkpt><trkpt lat="43.52703490316824" lon="10.819799079692336"><ele>105.75</ele><time>2026-04-18T07:58:46Z</time></trkpt><trkpt lat="43.527043351408864" lon="10.8196370515363"><ele>101.5</ele><time>2026-04-18T07:58:47Z</time></trkpt><trkpt lat="43.52704159305547" lon="10.819441648089118"><ele>97.25</ele><time>2026-04-18T07:58:48Z</time></trkpt><trkpt lat="43.527050462115895" lon="10.819263796427641"><ele>93.0</ele><time>2026-04-18T07:58:49Z</time></trkpt><trkpt lat="43.52704180554353" lon="10.819103729819656"><ele>92.2</ele><time>2026-04-18T07:58:50Z</time></trkpt><trkpt lat="43.527025462358175" lon="10.818957800274953"><ele>91.4</ele><time>2026-04-18T07:58:51Z</time></trkpt><trkpt lat="43.52695513033802" lon="10.818845752964904"><ele>90.60000000000001</ele><time>2026-04-18T07:58:52Z</time></trkpt><trkpt lat="43.52689318689346" lon="10.818744876600762"><ele>89.80000000000001</ele><time>2026-04-18T07:58:53Z</time></trkpt><trkpt lat="43.526832659506574" lon="10.81865936150208"><ele>89.0</ele><time>2026-04-18T07:58:54Z</time></trkpt><trkpt lat="43.526800946085125" lon="10.818583742295582"><ele>89.0</ele><time>2026-04-18T07:58:55Z</time></trkpt><trkpt lat="43.52680060857798" lon="10.818469073526376"><ele>89.0</ele><time>2026-04-18T07:58:57Z</time></trkpt><trkpt lat="43.52686915514811" lon="10.818404537038957"><ele>89.0</ele><time>2026-04-18T07:58:58Z</time></trkpt><trkpt lat="43.52693409842189" lon="10.818311358177894"><ele>89.0</ele><time>2026-04-18T07:58:59Z</time></trkpt><trkpt lat="43.52700479382455" lon="10.818193901917057"><ele>89.0</ele><time>2026-04-18T07:59:00Z</time></trkpt><trkpt lat="43.52705089047826" lon="10.818078320829054"><ele>88.0</ele><time>2026-04-18T07:59:01Z</time></trkpt><trkpt lat="43.52709036730466" lon="10.818006313831793"><ele>87.0</ele><time>2026-04-18T07:59:02Z</time></trkpt><trkpt lat="43.52714275207399" lon="10.817907567055357"><ele>86.0</ele><time>2026-04-18T07:59:04Z</time></trkpt><trkpt lat="43.52719453342914" lon="10.81784289260487"><ele>85.0</ele><time>2026-04-18T07:59:05Z</time></trkpt><trkpt lat="43.527251711095786" lon="10.81772618669862"><ele>84.0</ele><time>2026-04-18T07:59:06Z</time></trkpt><trkpt lat="43.52732873861108" lon="10.81758426030692"><ele>84.0</ele><time>2026-04-18T07:59:07Z</time></trkpt><trkpt lat="43.52741869965379" lon="10.817467959853387"><ele>84.0</ele><time>2026-04-18T07:59:08Z</time></trkpt><trkpt lat="43.527501183908434" lon="10.817390561159801"><ele>84.0</ele><time>2026-04-18T07:59:09Z</time></trkpt><trkpt lat="43.52759572609852" lon="10.817323049853304"><ele>84.0</ele><time>2026-04-18T07:59:10Z</time></trkpt><trkpt lat="43.52770146376957" lon="10.817229457000435"><ele>84.0</ele><time>2026-04-18T07:59:11Z</time></trkpt><trkpt lat="43.52778015412395" lon="10.817114662349024"><ele>84.0</ele><time>2026-04-18T07:59:12Z</time></trkpt><trkpt lat="43.52780264745235" lon="10.816988892718053"><ele>84.0</ele><time>2026-04-18T07:59:13Z</time></trkpt><trkpt lat="43.52783805748757" lon="10.81685326115093"><ele>84.0</ele><time>2026-04-18T07:59:14Z</time></trkpt><trkpt lat="43.527873523271495" lon="10.816715501038114"><ele>84.0</ele><time>2026-04-18T07:59:15Z</time></trkpt><trkpt lat="43.52792307891563" lon="10.816591436808869"><ele>85.0</ele><time>2026-04-18T07:59:16Z</time></trkpt><trkpt lat="43.52794934303858" lon="10.816466102651582"><ele>86.0</ele><time>2026-04-18T07:59:17Z</time></trkpt><trkpt lat="43.52798291786668" lon="10.816369634198454"><ele>87.0</ele><time>2026-04-18T07:59:18Z</time></trkpt><trkpt lat="43.52801732532694" lon="10.81627383546366"><ele>88.0</ele><time>2026-04-18T07:59:19Z</time></trkpt><trkpt lat="43.528064631057646" lon="10.81620371393052"><ele>89.0</ele><time>2026-04-18T07:59:21Z</time></trkpt><trkpt lat="43.528127776981336" lon="10.816091448401906"><ele>90.0</ele><time>2026-04-18T07:59:31Z</time></trkpt><trkpt lat="43.528211750644175" lon="10.816016609424898"><ele>90.0</ele><time>2026-04-18T07:59:33Z</time></trkpt><trkpt lat="43.52832097579918" lon="10.816011326361565"><ele>90.0</ele><time>2026-04-18T07:59:35Z</time></trkpt><trkpt lat="43.528389293840654" lon="10.816024309138182"><ele>90.0</ele><time>2026-04-18T07:59:36Z</time></trkpt><trkpt lat="43.528472531889484" lon="10.816052262517633"><ele>90.0</ele><time>2026-04-18T07:59:37Z</time></trkpt><trkpt lat="43.528552704961115" lon="10.816052923201363"><ele>90.0</ele><time>2026-04-18T07:59:38Z</time></trkpt><trkpt lat="43.52862540033292" lon="10.816091323049104"><ele>90.0</ele><time>2026-04-18T07:59:39Z</time></trkpt><trkpt lat="43.52871693228261" lon="10.81611573840262"><ele>91.8</ele><time>2026-04-18T07:59:40Z</time></trkpt><trkpt lat="43.528811611771786" lon="10.816133941329046"><ele>93.6</ele><time>2026-04-18T07:59:41Z</time></trkpt><trkpt lat="43.528915552054656" lon="10.816111854553574"><ele>95.4</ele><time>2026-04-18T07:59:42Z</time></trkpt><trkpt lat="43.529024133255575" lon="10.816096544733568"><ele>97.2</ele><time>2026-04-18T07:59:43Z</time></trkpt><trkpt lat="43.529122921172906" lon="10.81604880719448"><ele>99.0</ele><time>2026-04-18T07:59:44Z</time></trkpt><trkpt lat="43.52922140099126" lon="10.815990878742529"><ele>103.75</ele><time>2026-04-18T07:59:45Z</time></trkpt><trkpt lat="43.52932687758744" lon="10.815939908399585"><ele>108.5</ele><time>2026-04-18T07:59:46Z</time></trkpt><trkpt lat="43.52944490180431" lon="10.815861293065755"><ele>113.25</ele><time>2026-04-18T07:59:47Z</time></trkpt><trkpt lat="43.52959105184258" lon="10.815826513085673"><ele>118.0</ele><time>2026-04-18T07:59:48Z</time></trkpt><trkpt lat="43.529733045711744" lon="10.815788733587404"><ele>119.5</ele><time>2026-04-18T07:59:49Z</time></trkpt><trkpt lat="43.52983218355991" lon="10.815765895009296"><ele>121.0</ele><time>2026-04-18T07:59:51Z</time></trkpt><trkpt lat="43.529954301115225" lon="10.815740705752745"><ele>122.5</ele><time>2026-04-18T07:59:52Z</time></trkpt><trkpt lat="43.53007145498658" lon="10.815699196170442"><ele>124.0</ele><time>2026-04-18T07:59:53Z</time></trkpt><trkpt lat="43.53019459429097" lon="10.815685404340448"><ele>124.0</ele><time>2026-04-18T07:59:54Z</time></trkpt><trkpt lat="43.53032187395709" lon="10.81566873456875"><ele>124.0</ele><time>2026-04-18T07:59:55Z</time></trkpt><trkpt lat="43.53045271172782" lon="10.815644521136052"><ele>124.0</ele><time>2026-04-18T07:59:56Z</time></trkpt><trkpt lat="43.53058226890832" lon="10.815609723640051"><ele>124.0</ele><time>2026-04-18T07:59:57Z</time></trkpt><trkpt lat="43.53068133541057" lon="10.815584145457965"><ele>124.6</ele><time>2026-04-18T07:59:58Z</time></trkpt><trkpt lat="43.53078279098192" lon="10.815606342662816"><ele>125.2</ele><time>2026-04-18T07:59:59Z</time></trkpt><trkpt lat="43.530885809511126" lon="10.815633271828448"><ele>125.79999999999998</ele><time>2026-04-18T08:00:00Z</time></trkpt><trkpt lat="43.53098931731407" lon="10.81567993516947"><ele>126.39999999999999</ele><time>2026-04-18T08:00:01Z</time></trkpt><trkpt lat="43.53111282072296" lon="10.815708635007793"><ele>127.0</ele><time>2026-04-18T08:00:02Z</time></trkpt><trkpt lat="43.53124424609514" lon="10.815764538227942"><ele>128.25</ele><time>2026-04-18T08:00:03Z</time></trkpt><trkpt lat="43.53138002273638" lon="10.815820130797718"><ele>129.5</ele><time>2026-04-18T08:00:04Z</time></trkpt><trkpt lat="43.53149954087614" lon="10.81585511416939"><ele>130.75</ele><time>2026-04-18T08:00:05Z</time></trkpt><trkpt lat="43.5316317701934" lon="10.81586606800153"><ele>132.0</ele><time>2026-04-18T08:00:06Z</time></trkpt><trkpt lat="43.53176794873201" lon="10.815856837097993"><ele>132.0</ele><time>2026-04-18T08:00:07Z</time></trkpt><trkpt lat="43.53190031110849" lon="10.815893365485438"><ele>132.0</ele><time>2026-04-18T08:00:08Z</time></trkpt><trkpt lat="43.532009447233186" lon="10.815945572432044"><ele>132.0</ele><time>2026-04-18T08:00:09Z</time></trkpt><trkpt lat="43.532105682872825" lon="10.81601472385627"><ele>132.0</ele><time>2026-04-18T08:00:10Z</time></trkpt><trkpt lat="43.53220536619842" lon="10.816097523345706"><ele>133.5</ele><time>2026-04-18T08:00:11Z</time></trkpt><trkpt lat="43.53231316693117" lon="10.816192981326912"><ele>135.0</ele><time>2026-04-18T08:00:12Z</time></trkpt><trkpt lat="43.532437115685845" lon="10.816287980753717"><ele>136.5</ele><time>2026-04-18T08:00:13Z</time></trkpt><trkpt lat="43.532571557483585" lon="10.816355499353895"><ele>138.0</ele><time>2026-04-18T08:00:14Z</time></trkpt><trkpt lat="43.532703412691184" lon="10.816425059118096"><ele>138.0</ele><time>2026-04-18T08:00:15Z</time></trkpt><trkpt lat="43.53283573008601" lon="10.81646399485063"><ele>138.0</ele><time>2026-04-18T08:00:16Z</time></trkpt><trkpt lat="43.532970090037594" lon="10.816525203049627"><ele>138.0</ele><time>2026-04-18T08:00:17Z</time></trkpt><trkpt lat="43.533093251911126" lon="10.816576239715586"><ele>138.0</ele><time>2026-04-18T08:00:18Z</time></trkpt><trkpt lat="43.53321152731691" lon="10.816604858245437"><ele>137.75</ele><time>2026-04-18T08:00:19Z</time></trkpt><trkpt lat="43.533333755171704" lon="10.816661818831035"><ele>137.5</ele><time>2026-04-18T08:00:20Z</time></trkpt><trkpt lat="43.53344183171525" lon="10.81674571119292"><ele>137.25</ele><time>2026-04-18T08:00:21Z</time></trkpt><trkpt lat="43.533537950670855" lon="10.816793706808026"><ele>137.0</ele><time>2026-04-18T08:00:22Z</time></trkpt><trkpt lat="43.53363979269905" lon="10.816791943318448"><ele>138.5</ele><time>2026-04-18T08:00:23Z</time></trkpt><trkpt lat="43.53374375813987" lon="10.816756262924391"><ele>140.0</ele><time>2026-04-18T08:00:24Z</time></trkpt><trkpt lat="43.53385639794207" lon="10.816705809882867"><ele>141.5</ele><time>2026-04-18T08:00:25Z</time></trkpt><trkpt lat="43.533968606479824" lon="10.816672863121685"><ele>143.0</ele><time>2026-04-18T08:00:26Z</time></trkpt><trkpt lat="43.534097082357405" lon="10.816666584908775"><ele>143.0</ele><time>2026-04-18T08:00:27Z</time></trkpt><trkpt lat="43.53423020836622" lon="10.816669054216593"><ele>143.0</ele><time>2026-04-18T08:00:28Z</time></trkpt><trkpt lat="43.53436069630834" lon="10.81667630067369"><ele>143.0</ele><time>2026-04-18T08:00:29Z</time></trkpt><trkpt lat="43.53449747231139" lon="10.816687858346333"><ele>143.0</ele><time>2026-04-18T08:00:30Z</time></trkpt><trkpt lat="43.534633358958274" lon="10.816705772589186"><ele>145.25</ele><time>2026-04-18T08:00:31Z</time></trkpt><trkpt lat="43.534775921837735" lon="10.81672599759444"><ele>147.5</ele><time>2026-04-18T08:00:32Z</time></trkpt><trkpt lat="43.53490202972043" lon="10.816742849991952"><ele>149.75</ele><time>2026-04-18T08:00:33Z</time></trkpt><trkpt lat="43.53501134004844" lon="10.816737601375765"><ele>152.0</ele><time>2026-04-18T08:00:34Z</time></trkpt><trkpt lat="43.53511285844117" lon="10.816666501005992"><ele>152.0</ele><time>2026-04-18T08:00:35Z</time></trkpt><trkpt lat="43.53520803503405" lon="10.816582944782697"><ele>152.0</ele><time>2026-04-18T08:00:36Z</time></trkpt><trkpt lat="43.535315839400944" lon="10.816487699341042"><ele>152.0</ele><time>2026-04-18T08:00:37Z</time></trkpt><trkpt lat="43.53542945645358" lon="10.816385831661872"><ele>152.0</ele><time>2026-04-18T08:00:38Z</time></trkpt><trkpt lat="43.535545115091836" lon="10.816277338709046"><ele>155.0</ele><time>2026-04-18T08:00:39Z</time></trkpt><trkpt lat="43.53565397676564" lon="10.816165753580528"><ele>158.0</ele><time>2026-04-18T08:00:40Z</time></trkpt><trkpt lat="43.53575742516496" lon="10.816061965666911"><ele>161.0</ele><time>2026-04-18T08:00:41Z</time></trkpt><trkpt lat="43.53587212030149" lon="10.815953811667274"><ele>164.0</ele><time>2026-04-18T08:00:42Z</time></trkpt><trkpt lat="43.53599706285129" lon="10.81588107122403"><ele>164.0</ele><time>2026-04-18T08:00:43Z</time></trkpt><trkpt lat="43.53610779653659" lon="10.81578329281216"><ele>164.0</ele><time>2026-04-18T08:00:44Z</time></trkpt><trkpt lat="43.53624205449691" lon="10.815739643024186"><ele>164.0</ele><time>2026-04-18T08:00:45Z</time></trkpt><trkpt lat="43.53636546257568" lon="10.81569609476613"><ele>164.0</ele><time>2026-04-18T08:00:46Z</time></trkpt><trkpt lat="43.53648799204244" lon="10.81563446834206"><ele>165.6</ele><time>2026-04-18T08:00:47Z</time></trkpt><trkpt lat="43.536598428754644" lon="10.815645952492023"><ele>167.2</ele><time>2026-04-18T08:00:48Z</time></trkpt><trkpt lat="43.53671170472803" lon="10.815649772575831"><ele>168.79999999999998</ele><time>2026-04-18T08:00:49Z</time></trkpt><trkpt lat="43.53682153642488" lon="10.815633766194859"><ele>170.39999999999998</ele><time>2026-04-18T08:00:50Z</time></trkpt><trkpt lat="43.53691897726653" lon="10.815633542930136"><ele>172.0</ele><time>2026-04-18T08:00:51Z</time></trkpt><trkpt lat="43.53700123937687" lon="10.815589971598813"><ele>170.0</ele><time>2026-04-18T08:00:52Z</time></trkpt><trkpt lat="43.53706188554145" lon="10.81549225456746"><ele>168.0</ele><time>2026-04-18T08:00:53Z</time></trkpt><trkpt lat="43.537120657337994" lon="10.815345881928181"><ele>166.0</ele><time>2026-04-18T08:00:54Z</time></trkpt><trkpt lat="43.53717025293019" lon="10.81520758506419"><ele>164.0</ele><time>2026-04-18T08:00:55Z</time></trkpt><trkpt lat="43.537227838797776" lon="10.815109000381183"><ele>162.0</ele><time>2026-04-18T08:00:56Z</time></trkpt><trkpt lat="43.537269965821345" lon="10.81500596391124"><ele>161.6</ele><time>2026-04-18T08:00:58Z</time></trkpt><trkpt lat="43.53731239989884" lon="10.814902171520659"><ele>161.2</ele><time>2026-04-18T08:01:00Z</time></trkpt><trkpt lat="43.537233316136934" lon="10.814784404181918"><ele>160.8</ele><time>2026-04-18T08:01:01Z</time></trkpt><trkpt lat="43.537194329454" lon="10.81469144691719"><ele>160.4</ele><time>2026-04-18T08:01:02Z</time></trkpt><trkpt lat="43.53716252503685" lon="10.814567591990423"><ele>160.0</ele><time>2026-04-18T08:01:03Z</time></trkpt><trkpt lat="43.537150060025404" lon="10.814402442185916"><ele>161.75</ele><time>2026-04-18T08:01:04Z</time></trkpt><trkpt lat="43.537155627580134" lon="10.814217507761741"><ele>163.5</ele><time>2026-04-18T08:01:05Z</time></trkpt><trkpt lat="43.53721317109869" lon="10.814068239136164"><ele>165.25</ele><time>2026-04-18T08:01:06Z</time></trkpt><trkpt lat="43.537278812626745" lon="10.813913966771864"><ele>167.0</ele><time>2026-04-18T08:01:07Z</time></trkpt><trkpt lat="43.53736316683937" lon="10.813753218681873"><ele>167.0</ele><time>2026-04-18T08:01:08Z</time></trkpt><trkpt lat="43.5374531118577" lon="10.813580465451949"><ele>167.0</ele><time>2026-04-18T08:01:09Z</time></trkpt><trkpt lat="43.53752714225016" lon="10.813383262557176"><ele>167.0</ele><time>2026-04-18T08:01:10Z</time></trkpt><trkpt lat="43.5375780911311" lon="10.813223638937806"><ele>167.0</ele><time>2026-04-18T08:01:11Z</time></trkpt><trkpt lat="43.53757615711505" lon="10.8130778933791"><ele>168.75</ele><time>2026-04-18T08:01:12Z</time></trkpt><trkpt lat="43.53753534773579" lon="10.812959171505833"><ele>170.5</ele><time>2026-04-18T08:01:13Z</time></trkpt><trkpt lat="43.53746031092457" lon="10.812827615587414"><ele>172.25</ele><time>2026-04-18T08:01:14Z</time></trkpt><trkpt lat="43.537349883726186" lon="10.812715335931012"><ele>174.0</ele><time>2026-04-18T08:01:15Z</time></trkpt><trkpt lat="43.53721733665106" lon="10.81261485554723"><ele>174.0</ele><time>2026-04-18T08:01:16Z</time></trkpt><trkpt lat="43.53707809664089" lon="10.81249691656254"><ele>174.0</ele><time>2026-04-18T08:01:17Z</time></trkpt><trkpt lat="43.53695860014562" lon="10.812350000357322"><ele>174.0</ele><time>2026-04-18T08:01:18Z</time></trkpt><trkpt lat="43.536839210398604" lon="10.81216601476833"><ele>174.33333333333334</ele><time>2026-04-18T08:01:19Z</time></trkpt><trkpt lat="43.536721108162" lon="10.811961862332478"><ele>174.66666666666669</ele><time>2026-04-18T08:01:20Z</time></trkpt><trkpt lat="43.536610528226284" lon="10.811768266481145"><ele>175.0</ele><time>2026-04-18T08:01:21Z</time></trkpt><trkpt lat="43.53652438852384" lon="10.81158139556511"><ele>173.0</ele><time>2026-04-18T08:01:22Z</time></trkpt><trkpt lat="43.536469710864424" lon="10.811389255945999"><ele>171.0</ele><time>2026-04-18T08:01:23Z</time></trkpt><trkpt lat="43.53644132989119" lon="10.811183037078777"><ele>169.0</ele><time>2026-04-18T08:01:24Z</time></trkpt><trkpt lat="43.536435682848236" lon="10.810951137418103"><ele>168.33333333333334</ele><time>2026-04-18T08:01:25Z</time></trkpt><trkpt lat="43.53644414811189" lon="10.810727485538216"><ele>167.66666666666666</ele><time>2026-04-18T08:01:26Z</time></trkpt><trkpt lat="43.536449969573276" lon="10.810504513376909"><ele>167.0</ele><time>2026-04-18T08:01:27Z</time></trkpt><trkpt lat="43.536445869131654" lon="10.810302614034931"><ele>166.5</ele><time>2026-04-18T08:01:28Z</time></trkpt><trkpt lat="43.536411675683944" lon="10.810117583839961"><ele>166.0</ele><time>2026-04-18T08:01:29Z</time></trkpt><trkpt lat="43.5363333568881" lon="10.809957671689373"><ele>165.5</ele><time>2026-04-18T08:01:30Z</time></trkpt><trkpt lat="43.53622739930782" lon="10.809811128078698"><ele>165.0</ele><time>2026-04-18T08:01:31Z</time></trkpt><trkpt lat="43.53611891610869" lon="10.809647716455732"><ele>164.66666666666666</ele><time>2026-04-18T08:01:32Z</time></trkpt><trkpt lat="43.53606448860522" lon="10.80943845902563"><ele>164.33333333333331</ele><time>2026-04-18T08:01:33Z</time></trkpt><trkpt lat="43.536016954889284" lon="10.809241810555143"><ele>164.0</ele><time>2026-04-18T08:01:34Z</time></trkpt><trkpt lat="43.53598943704105" lon="10.809027936551951"><ele>164.0</ele><time>2026-04-18T08:01:35Z</time></trkpt><trkpt lat="43.53597929049477" lon="10.808845385903185"><ele>164.0</ele><time>2026-04-18T08:01:36Z</time></trkpt><trkpt lat="43.536011746749985" lon="10.808661293595314"><ele>164.0</ele><time>2026-04-18T08:01:37Z</time></trkpt><trkpt lat="43.5360393405582" lon="10.808466862253697"><ele>164.0</ele><time>2026-04-18T08:01:38Z</time></trkpt><trkpt lat="43.53608066825797" lon="10.808257616842049"><ele>163.66666666666666</ele><time>2026-04-18T08:01:39Z</time></trkpt><trkpt lat="43.53611126013885" lon="10.808044031244522"><ele>163.33333333333334</ele><time>2026-04-18T08:01:40Z</time></trkpt><trkpt lat="43.53613272108954" lon="10.807831399061216"><ele>163.0</ele><time>2026-04-18T08:01:41Z</time></trkpt><trkpt lat="43.53613194105714" lon="10.807612152360207"><ele>163.0</ele><time>2026-04-18T08:01:42Z</time></trkpt><trkpt lat="43.536120020549895" lon="10.807381487524845"><ele>163.0</ele><time>2026-04-18T08:01:43Z</time></trkpt><trkpt lat="43.536101258266264" lon="10.807142691351629"><ele>163.0</ele><time>2026-04-18T08:01:44Z</time></trkpt><trkpt lat="43.53608121664054" lon="10.806910856084478"><ele>163.66666666666669</ele><time>2026-04-18T08:01:45Z</time></trkpt><trkpt lat="43.536048161816474" lon="10.80668919454565"><ele>164.33333333333334</ele><time>2026-04-18T08:01:46Z</time></trkpt><trkpt lat="43.53601031787532" lon="10.806492054215141"><ele>165.0</ele><time>2026-04-18T08:01:47Z</time></trkpt><trkpt lat="43.53598288963086" lon="10.806290266742943"><ele>165.0</ele><time>2026-04-18T08:01:48Z</time></trkpt><trkpt lat="43.5360150026784" lon="10.806107532385168"><ele>165.0</ele><time>2026-04-18T08:01:49Z</time></trkpt><trkpt lat="43.536024307446844" lon="10.805916605857028"><ele>165.0</ele><time>2026-04-18T08:01:50Z</time></trkpt><trkpt lat="43.53606189645975" lon="10.805712884342677"><ele>165.0</ele><time>2026-04-18T08:01:51Z</time></trkpt><trkpt lat="43.536108144587445" lon="10.805510217585221"><ele>164.66666666666666</ele><time>2026-04-18T08:01:52Z</time></trkpt><trkpt lat="43.53620094664273" lon="10.80532509927022"><ele>164.33333333333331</ele><time>2026-04-18T08:01:53Z</time></trkpt><trkpt lat="43.53628038278961" lon="10.805124183361936"><ele>164.0</ele><time>2026-04-18T08:01:54Z</time></trkpt><trkpt lat="43.53634295213835" lon="10.804914689017819"><ele>164.0</ele><time>2026-04-18T08:01:55Z</time></trkpt><trkpt lat="43.53641918235524" lon="10.804705539684335"><ele>164.0</ele><time>2026-04-18T08:01:56Z</time></trkpt><trkpt lat="43.536483787882254" lon="10.804502559057521"><ele>164.0</ele><time>2026-04-18T08:01:57Z</time></trkpt><trkpt lat="43.53655475353301" lon="10.804264946438355"><ele>162.0</ele><time>2026-04-18T08:01:58Z</time></trkpt><trkpt lat="43.53660530903611" lon="10.804037004235491"><ele>160.0</ele><time>2026-04-18T08:01:59Z</time></trkpt><trkpt lat="43.536648916081845" lon="10.803787330421404"><ele>158.0</ele><time>2026-04-18T08:02:00Z</time></trkpt><trkpt lat="43.5366811249809" lon="10.803531779260485"><ele>157.33333333333331</ele><time>2026-04-18T08:02:01Z</time></trkpt><trkpt lat="43.53670501472324" lon="10.80328566824229"><ele>156.66666666666666</ele><time>2026-04-18T08:02:02Z</time></trkpt><trkpt lat="43.53671342153485" lon="10.80305159381327"><ele>156.0</ele><time>2026-04-18T08:02:03Z</time></trkpt><trkpt lat="43.53671825849253" lon="10.802800844575426"><ele>157.0</ele><time>2026-04-18T08:02:04Z</time></trkpt><trkpt lat="43.53672291629994" lon="10.802586396083303"><ele>158.0</ele><time>2026-04-18T08:02:05Z</time></trkpt><trkpt lat="43.53673063910801" lon="10.802398514668475"><ele>159.0</ele><time>2026-04-18T08:02:06Z</time></trkpt><trkpt lat="43.53674686523153" lon="10.802204380847272"><ele>160.0</ele><time>2026-04-18T08:02:07Z</time></trkpt><trkpt lat="43.53680253858131" lon="10.802014058570974"><ele>160.0</ele><time>2026-04-18T08:02:08Z</time></trkpt><trkpt lat="43.53686031369199" lon="10.801832654087134"><ele>160.0</ele><time>2026-04-18T08:02:09Z</time></trkpt><trkpt lat="43.536934764612596" lon="10.801667326149614"><ele>160.0</ele><time>2026-04-18T08:02:10Z</time></trkpt><trkpt lat="43.53701440850188" lon="10.801519356394065"><ele>160.0</ele><time>2026-04-18T08:02:11Z</time></trkpt><trkpt lat="43.53711024548358" lon="10.801399689684217"><ele>161.0</ele><time>2026-04-18T08:02:12Z</time></trkpt><trkpt lat="43.537213684713926" lon="10.801298544312866"><ele>162.0</ele><time>2026-04-18T08:02:13Z</time></trkpt><trkpt lat="43.537335251043544" lon="10.801200039141342"><ele>163.0</ele><time>2026-04-18T08:02:14Z</time></trkpt><trkpt lat="43.53744532403619" lon="10.80108121910179"><ele>164.0</ele><time>2026-04-18T08:02:15Z</time></trkpt><trkpt lat="43.53756522026163" lon="10.800990901689262"><ele>163.0</ele><time>2026-04-18T08:02:16Z</time></trkpt><trkpt lat="43.53766462529699" lon="10.800868850707447"><ele>162.0</ele><time>2026-04-18T08:02:17Z</time></trkpt><trkpt lat="43.537757523059156" lon="10.800758234149779"><ele>161.0</ele><time>2026-04-18T08:02:18Z</time></trkpt><trkpt lat="43.53783922835353" lon="10.800647345597557"><ele>160.0</ele><time>2026-04-18T08:02:19Z</time></trkpt><trkpt lat="43.537916363101616" lon="10.800543315871133"><ele>160.0</ele><time>2026-04-18T08:02:20Z</time></trkpt><trkpt lat="43.537984779610596" lon="10.800437708936634"><ele>160.0</ele><time>2026-04-18T08:02:21Z</time></trkpt><trkpt lat="43.538047113001525" lon="10.80033206278689"><ele>160.0</ele><time>2026-04-18T08:02:22Z</time></trkpt><trkpt lat="43.53810136165855" lon="10.800214339479211"><ele>160.0</ele><time>2026-04-18T08:02:23Z</time></trkpt><trkpt lat="43.53815266784444" lon="10.800065396931366"><ele>160.0</ele><time>2026-04-18T08:02:24Z</time></trkpt><trkpt lat="43.53820816310078" lon="10.799906771372001"><ele>160.5</ele><time>2026-04-18T08:02:25Z</time></trkpt><trkpt lat="43.53827098299553" lon="10.799744339306136"><ele>161.0</ele><time>2026-04-18T08:02:26Z</time></trkpt><trkpt lat="43.53833240117911" lon="10.799576705179527"><ele>161.5</ele><time>2026-04-18T08:02:27Z</time></trkpt><trkpt lat="43.538402173978966" lon="10.799425971802838"><ele>162.0</ele><time>2026-04-18T08:02:28Z</time></trkpt><trkpt lat="43.538437789696445" lon="10.799270695070948"><ele>162.0</ele><time>2026-04-18T08:02:29Z</time></trkpt><trkpt lat="43.53849578848764" lon="10.799120466125897"><ele>162.0</ele><time>2026-04-18T08:02:30Z</time></trkpt><trkpt lat="43.5385461980034" lon="10.79895321213924"><ele>162.0</ele><time>2026-04-18T08:02:31Z</time></trkpt><trkpt lat="43.53855646821957" lon="10.79876429296447"><ele>162.0</ele><time>2026-04-18T08:02:32Z</time></trkpt><trkpt lat="43.538551218085516" lon="10.798577877698001"><ele>160.75</ele><time>2026-04-18T08:02:33Z</time></trkpt><trkpt lat="43.53853304140174" lon="10.798404999748557"><ele>159.5</ele><time>2026-04-18T08:02:34Z</time></trkpt><trkpt lat="43.5385091503099" lon="10.798253248625294"><ele>158.25</ele><time>2026-04-18T08:02:35Z</time></trkpt><trkpt lat="43.538481851651895" lon="10.798083277425205"><ele>157.0</ele><time>2026-04-18T08:02:36Z</time></trkpt><trkpt lat="43.5384521177963" lon="10.797885667529622"><ele>157.0</ele><time>2026-04-18T08:02:37Z</time></trkpt><trkpt lat="43.53842742812315" lon="10.797676117133921"><ele>157.0</ele><time>2026-04-18T08:02:38Z</time></trkpt><trkpt lat="43.53840055079496" lon="10.7974650936653"><ele>157.0</ele><time>2026-04-18T08:02:39Z</time></trkpt><trkpt lat="43.53837048533797" lon="10.797251222473696"><ele>157.75</ele><time>2026-04-18T08:02:40Z</time></trkpt><trkpt lat="43.538332564456404" lon="10.797058265717425"><ele>158.5</ele><time>2026-04-18T08:02:41Z</time></trkpt><trkpt lat="43.538278814331726" lon="10.796874490910449"><ele>159.25</ele><time>2026-04-18T08:02:42Z</time></trkpt><trkpt lat="43.53821155780439" lon="10.796703075451035"><ele>160.0</ele><time>2026-04-18T08:02:43Z</time></trkpt><trkpt lat="43.53815843107313" lon="10.7965417015864"><ele>161.6</ele><time>2026-04-18T08:02:44Z</time></trkpt><trkpt lat="43.53812653865979" lon="10.796392563364687"><ele>163.2</ele><time>2026-04-18T08:02:45Z</time></trkpt><trkpt lat="43.538110787498674" lon="10.796264270715197"><ele>164.8</ele><time>2026-04-18T08:02:46Z</time></trkpt><trkpt lat="43.538104567553745" lon="10.796129206828773"><ele>166.4</ele><time>2026-04-18T08:02:47Z</time></trkpt><trkpt lat="43.53815937748266" lon="10.795997403373512"><ele>168.0</ele><time>2026-04-18T08:02:48Z</time></trkpt><trkpt lat="43.53821048235324" lon="10.795839992172054"><ele>169.75</ele><time>2026-04-18T08:02:49Z</time></trkpt><trkpt lat="43.53826792516611" lon="10.795683427931998"><ele>171.5</ele><time>2026-04-18T08:02:50Z</time></trkpt><trkpt lat="43.5383297422214" lon="10.795551753756918"><ele>173.25</ele><time>2026-04-18T08:02:51Z</time></trkpt><trkpt lat="43.53841848266549" lon="10.795460397853445"><ele>175.0</ele><time>2026-04-18T08:02:52Z</time></trkpt><trkpt lat="43.5385464038191" lon="10.795426444930552"><ele>175.0</ele><time>2026-04-18T08:02:53Z</time></trkpt><trkpt lat="43.538661826153884" lon="10.795347281756547"><ele>175.0</ele><time>2026-04-18T08:02:54Z</time></trkpt><trkpt lat="43.53878230876607" lon="10.795265207812777"><ele>175.0</ele><time>2026-04-18T08:02:55Z</time></trkpt><trkpt lat="43.53886908997058" lon="10.795147384381563"><ele>175.0</ele><time>2026-04-18T08:02:56Z</time></trkpt><trkpt lat="43.53893069632688" lon="10.79499689246768"><ele>176.0</ele><time>2026-04-18T08:02:57Z</time></trkpt><trkpt lat="43.53896501230748" lon="10.794832944706046"><ele>177.0</ele><time>2026-04-18T08:02:58Z</time></trkpt><trkpt lat="43.53898343683375" lon="10.794661164745698"><ele>178.0</ele><time>2026-04-18T08:02:59Z</time></trkpt><trkpt lat="43.53899308514219" lon="10.794511919350013"><ele>179.0</ele><time>2026-04-18T08:03:00Z</time></trkpt><trkpt lat="43.53900569710436" lon="10.794377788575991"><ele>179.2</ele><time>2026-04-18T08:03:01Z</time></trkpt><trkpt lat="43.53902677841082" lon="10.794249762710383"><ele>179.39999999999998</ele><time>2026-04-18T08:03:02Z</time></trkpt><trkpt lat="43.539067780827494" lon="10.794133149618462"><ele>179.6</ele><time>2026-04-18T08:03:03Z</time></trkpt><trkpt lat="43.53914472169456" lon="10.794057405281574"><ele>179.8</ele><time>2026-04-18T08:03:04Z</time></trkpt><trkpt lat="43.539214213551794" lon="10.793982118150861"><ele>180.0</ele><time>2026-04-18T08:03:05Z</time></trkpt><trkpt lat="43.53928232328657" lon="10.793890443380098"><ele>180.0</ele><time>2026-04-18T08:03:06Z</time></trkpt><trkpt lat="43.539342126666625" lon="10.793819050222828"><ele>180.0</ele><time>2026-04-18T08:03:07Z</time></trkpt><trkpt lat="43.53940135630221" lon="10.793759733477"><ele>180.0</ele><time>2026-04-18T08:03:08Z</time></trkpt><trkpt lat="43.539457417730354" lon="10.793708468712408"><ele>180.0</ele><time>2026-04-18T08:03:09Z</time></trkpt><trkpt lat="43.5395078477653" lon="10.793652733278611"><ele>180.0</ele><time>2026-04-18T08:03:10Z</time></trkpt><trkpt lat="43.53957214265882" lon="10.793524298448652"><ele>180.0</ele><time>2026-04-18T08:03:12Z</time></trkpt><trkpt lat="43.539587138986185" lon="10.793387453827519"><ele>180.2</ele><time>2026-04-18T08:03:14Z</time></trkpt><trkpt lat="43.539596627806645" lon="10.793224591106195"><ele>180.4</ele><time>2026-04-18T08:03:16Z</time></trkpt><trkpt lat="43.53959541074294" lon="10.793055763076303"><ele>180.60000000000002</ele><time>2026-04-18T08:03:18Z</time></trkpt><trkpt lat="43.53955517878209" lon="10.792889442344842"><ele>180.8</ele><time>2026-04-18T08:03:20Z</time></trkpt><trkpt lat="43.53952154729424" lon="10.792801453859013"><ele>181.0</ele><time>2026-04-18T08:03:21Z</time></trkpt><trkpt lat="43.539476715772935" lon="10.792726675184705"><ele>181.0</ele><time>2026-04-18T08:03:22Z</time></trkpt><trkpt lat="43.53945580737871" lon="10.792641052482338"><ele>181.0</ele><time>2026-04-18T08:03:23Z</time></trkpt><trkpt lat="43.53939742714481" lon="10.792502690671292"><ele>181.0</ele><time>2026-04-18T08:03:25Z</time></trkpt><trkpt lat="43.53934851686664" lon="10.792426769344786"><ele>181.0</ele><time>2026-04-18T08:03:26Z</time></trkpt><trkpt lat="43.5393166162141" lon="10.792337356015087"><ele>181.0</ele><time>2026-04-18T08:03:27Z</time></trkpt><trkpt lat="43.53926973949435" lon="10.792242286441958"><ele>181.0</ele><time>2026-04-18T08:03:28Z</time></trkpt><trkpt lat="43.53923689768727" lon="10.792141249412984"><ele>181.0</ele><time>2026-04-18T08:03:29Z</time></trkpt><trkpt lat="43.53919728161891" lon="10.792054168897526"><ele>181.0</ele><time>2026-04-18T08:03:30Z</time></trkpt><trkpt lat="43.539162101127474" lon="10.79195852672465"><ele>181.0</ele><time>2026-04-18T08:03:31Z</time></trkpt><trkpt lat="43.539124391252805" lon="10.791857364280277"><ele>181.0</ele><time>2026-04-18T08:03:32Z</time></trkpt><trkpt lat="43.53908275149353" lon="10.791758239850836"><ele>181.0</ele><time>2026-04-18T08:03:33Z</time></trkpt><trkpt lat="43.53904485213251" lon="10.791684465634587"><ele>181.0</ele><time>2026-04-18T08:03:34Z</time></trkpt><trkpt lat="43.53899759655098" lon="10.79160679181848"><ele>182.4</ele><time>2026-04-18T08:03:35Z</time></trkpt><trkpt lat="43.538935687592115" lon="10.791499933202017"><ele>183.8</ele><time>2026-04-18T08:03:36Z</time></trkpt><trkpt lat="43.53886546406102" lon="10.791381927010894"><ele>185.20000000000002</ele><time>2026-04-18T08:03:37Z</time></trkpt><trkpt lat="43.53878806156822" lon="10.791273013611605"><ele>186.60000000000002</ele><time>2026-04-18T08:03:38Z</time></trkpt><trkpt lat="43.53871940796171" lon="10.79117666636197"><ele>188.0</ele><time>2026-04-18T08:03:39Z</time></trkpt><trkpt lat="43.53865730454332" lon="10.791086400368954"><ele>186.5</ele><time>2026-04-18T08:03:40Z</time></trkpt><trkpt lat="43.538602628701604" lon="10.791005156018159"><ele>185.0</ele><time>2026-04-18T08:03:41Z</time></trkpt><trkpt lat="43.538557858460585" lon="10.790941934814473"><ele>183.5</ele><time>2026-04-18T08:03:42Z</time></trkpt><trkpt lat="43.5384945640606" lon="10.7908564720459"><ele>182.0</ele><time>2026-04-18T08:03:44Z</time></trkpt><trkpt lat="43.53846406311855" lon="10.790770038544906"><ele>180.5</ele><time>2026-04-18T08:03:46Z</time></trkpt><trkpt lat="43.53834404502372" lon="10.790783599635652"><ele>179.0</ele><time>2026-04-18T08:03:47Z</time></trkpt><trkpt lat="43.5382562366409" lon="10.79072058227438"><ele>179.0</ele><time>2026-04-18T08:03:48Z</time></trkpt><trkpt lat="43.53815890147148" lon="10.790664348719616"><ele>179.0</ele><time>2026-04-18T08:03:49Z</time></trkpt><trkpt lat="43.53807002593392" lon="10.790629010182817"><ele>179.0</ele><time>2026-04-18T08:03:50Z</time></trkpt><trkpt lat="43.53797594781393" lon="10.79060859653146"><ele>179.0</ele><time>2026-04-18T08:03:51Z</time></trkpt><trkpt lat="43.53787895216" lon="10.790592716030599"><ele>179.0</ele><time>2026-04-18T08:03:52Z</time></trkpt><trkpt lat="43.53778634916836" lon="10.79058316542256"><ele>178.6</ele><time>2026-04-18T08:03:53Z</time></trkpt><trkpt lat="43.53770128126109" lon="10.790583514618708"><ele>178.2</ele><time>2026-04-18T08:03:54Z</time></trkpt><trkpt lat="43.537620067418764" lon="10.790599295353868"><ele>177.79999999999998</ele><time>2026-04-18T08:03:55Z</time></trkpt><trkpt lat="43.53752858687561" lon="10.790632970951172"><ele>177.39999999999998</ele><time>2026-04-18T08:03:56Z</time></trkpt><trkpt lat="43.53742634662855" lon="10.790676717498842"><ele>177.0</ele><time>2026-04-18T08:03:57Z</time></trkpt><trkpt lat="43.537320975700965" lon="10.79072064050477"><ele>177.0</ele><time>2026-04-18T08:03:58Z</time></trkpt><trkpt lat="43.53721704945435" lon="10.790761839343192"><ele>177.0</ele><time>2026-04-18T08:03:59Z</time></trkpt><trkpt lat="43.53710808702828" lon="10.790800046529414"><ele>177.0</ele><time>2026-04-18T08:04:00Z</time></trkpt><trkpt lat="43.536998058875376" lon="10.79081968679744"><ele>177.0</ele><time>2026-04-18T08:04:01Z</time></trkpt><trkpt lat="43.53688445305985" lon="10.790816760447072"><ele>177.0</ele><time>2026-04-18T08:04:02Z</time></trkpt><trkpt lat="43.53676628939748" lon="10.790790266399455"><ele>177.5</ele><time>2026-04-18T08:04:03Z</time></trkpt><trkpt lat="43.53665178943734" lon="10.79076908485315"><ele>178.0</ele><time>2026-04-18T08:04:04Z</time></trkpt><trkpt lat="43.53653763587662" lon="10.790771021716216"><ele>178.5</ele><time>2026-04-18T08:04:05Z</time></trkpt><trkpt lat="43.536421123825015" lon="10.790785634547136"><ele>179.0</ele><time>2026-04-18T08:04:06Z</time></trkpt><trkpt lat="43.53631369059347" lon="10.790812244714115"><ele>178.83333333333331</ele><time>2026-04-18T08:04:07Z</time></trkpt><trkpt lat="43.536219811284255" lon="10.790840842248299"><ele>178.66666666666666</ele><time>2026-04-18T08:04:08Z</time></trkpt><trkpt lat="43.536130442522115" lon="10.79084895328822"><ele>178.5</ele><time>2026-04-18T08:04:09Z</time></trkpt><trkpt lat="43.53604075662726" lon="10.790835092304407"><ele>178.33333333333334</ele><time>2026-04-18T08:04:10Z</time></trkpt><trkpt lat="43.535962532982275" lon="10.790795337684527"><ele>178.16666666666669</ele><time>2026-04-18T08:04:11Z</time></trkpt><trkpt lat="43.53589014637628" lon="10.790741921865742"><ele>178.0</ele><time>2026-04-18T08:04:12Z</time></trkpt><trkpt lat="43.53581276571175" lon="10.79067638477341"><ele>178.0</ele><time>2026-04-18T08:04:13Z</time></trkpt><trkpt lat="43.53573701096562" lon="10.790607080205175"><ele>178.0</ele><time>2026-04-18T08:04:14Z</time></trkpt><trkpt lat="43.53565906001891" lon="10.790540404284648"><ele>178.0</ele><time>2026-04-18T08:04:15Z</time></trkpt><trkpt lat="43.53556537460798" lon="10.790459213181826"><ele>178.0</ele><time>2026-04-18T08:04:16Z</time></trkpt><trkpt lat="43.535461319914916" lon="10.790376629403392"><ele>178.0</ele><time>2026-04-18T08:04:17Z</time></trkpt><trkpt lat="43.5353553241697" lon="10.790288963031498"><ele>176.25</ele><time>2026-04-18T08:04:18Z</time></trkpt><trkpt lat="43.5352444637135" lon="10.790197106667382"><ele>174.5</ele><time>2026-04-18T08:04:19Z</time></trkpt><trkpt lat="43.535130477868485" lon="10.790102042048861"><ele>172.75</ele><time>2026-04-18T08:04:20Z</time></trkpt><trkpt lat="43.53501017679643" lon="10.790007135307262"><ele>171.0</ele><time>2026-04-18T08:04:21Z</time></trkpt><trkpt lat="43.534887666938424" lon="10.789916657506764"><ele>171.0</ele><time>2026-04-18T08:04:22Z</time></trkpt><trkpt lat="43.534764439136765" lon="10.789829183456977"><ele>171.0</ele><time>2026-04-18T08:04:23Z</time></trkpt><trkpt lat="43.534637068423685" lon="10.789735699219802"><ele>171.0</ele><time>2026-04-18T08:04:24Z</time></trkpt><trkpt lat="43.53451267693869" lon="10.789653442704426"><ele>171.0</ele><time>2026-04-18T08:04:25Z</time></trkpt><trkpt lat="43.53439243425075" lon="10.789574045262023"><ele>170.75</ele><time>2026-04-18T08:04:26Z</time></trkpt><trkpt lat="43.53426060648253" lon="10.789496739716142"><ele>170.5</ele><time>2026-04-18T08:04:27Z</time></trkpt><trkpt lat="43.53412637485381" lon="10.789420566630943"><ele>170.25</ele><time>2026-04-18T08:04:28Z</time></trkpt><trkpt lat="43.53398884173786" lon="10.789338524995033"><ele>170.0</ele><time>2026-04-18T08:04:29Z</time></trkpt><trkpt lat="43.533858578005955" lon="10.78925881217031"><ele>170.0</ele><time>2026-04-18T08:04:30Z</time></trkpt><trkpt lat="43.53372998931474" lon="10.7891572213316"><ele>170.0</ele><time>2026-04-18T08:04:31Z</time></trkpt><trkpt lat="43.53360975064705" lon="10.789112048364366"><ele>170.0</ele><time>2026-04-18T08:04:32Z</time></trkpt><trkpt lat="43.53349082805976" lon="10.789047376966673"><ele>170.0</ele><time>2026-04-18T08:04:33Z</time></trkpt><trkpt lat="43.53335502005484" lon="10.788975739027574"><ele>168.4</ele><time>2026-04-18T08:04:34Z</time></trkpt><trkpt lat="43.53323868331119" lon="10.788910627486537"><ele>166.8</ele><time>2026-04-18T08:04:35Z</time></trkpt><trkpt lat="43.53314228370223" lon="10.788851299619482"><ele>165.2</ele><time>2026-04-18T08:04:36Z</time></trkpt><trkpt lat="43.53305599349172" lon="10.788801089295324"><ele>163.6</ele><time>2026-04-18T08:04:37Z</time></trkpt><trkpt lat="43.532970801998154" lon="10.788749147602518"><ele>162.0</ele><time>2026-04-18T08:04:38Z</time></trkpt><trkpt lat="43.53287620332094" lon="10.788692996287025"><ele>160.75</ele><time>2026-04-18T08:04:39Z</time></trkpt><trkpt lat="43.5327707913168" lon="10.788631578550497"><ele>159.5</ele><time>2026-04-18T08:04:40Z</time></trkpt><trkpt lat="43.532665242421885" lon="10.788571265152612"><ele>158.25</ele><time>2026-04-18T08:04:41Z</time></trkpt><trkpt lat="43.53256259838109" lon="10.788515103785576"><ele>157.0</ele><time>2026-04-18T08:04:42Z</time></trkpt><trkpt lat="43.532457224839725" lon="10.78846073108121"><ele>157.0</ele><time>2026-04-18T08:04:43Z</time></trkpt><trkpt lat="43.532348737557115" lon="10.788400148859841"><ele>157.0</ele><time>2026-04-18T08:04:44Z</time></trkpt><trkpt lat="43.532240493021305" lon="10.788340549471835"><ele>157.0</ele><time>2026-04-18T08:04:45Z</time></trkpt><trkpt lat="43.53214767683313" lon="10.788286780033813"><ele>157.0</ele><time>2026-04-18T08:04:46Z</time></trkpt><trkpt lat="43.532064784930135" lon="10.788238095613494"><ele>157.0</ele><time>2026-04-18T08:04:47Z</time></trkpt><trkpt lat="43.5319774476339" lon="10.788179730034102"><ele>155.16666666666669</ele><time>2026-04-18T08:04:48Z</time></trkpt><trkpt lat="43.53188845983155" lon="10.788112274649432"><ele>153.33333333333334</ele><time>2026-04-18T08:04:49Z</time></trkpt><trkpt lat="43.53181560692453" lon="10.788031658687977"><ele>151.5</ele><time>2026-04-18T08:04:50Z</time></trkpt><trkpt lat="43.53176406479025" lon="10.787949537650876"><ele>149.66666666666666</ele><time>2026-04-18T08:04:51Z</time></trkpt><trkpt lat="43.53171495152974" lon="10.78785499322048"><ele>147.83333333333331</ele><time>2026-04-18T08:04:52Z</time></trkpt><trkpt lat="43.53167093425935" lon="10.787775997109543"><ele>146.0</ele><time>2026-04-18T08:04:53Z</time></trkpt><trkpt lat="43.53162570384902" lon="10.787697637107147"><ele>147.16666666666666</ele><time>2026-04-18T08:04:54Z</time></trkpt><trkpt lat="43.5315754475631" lon="10.78761074989249"><ele>148.33333333333331</ele><time>2026-04-18T08:04:55Z</time></trkpt><trkpt lat="43.53152741522389" lon="10.787528967118538"><ele>149.5</ele><time>2026-04-18T08:04:56Z</time></trkpt><trkpt lat="43.53148428184984" lon="10.787458191793277"><ele>150.66666666666666</ele><time>2026-04-18T08:04:57Z</time></trkpt><trkpt lat="43.53143709181536" lon="10.787376020066787"><ele>151.83333333333334</ele><time>2026-04-18T08:04:58Z</time></trkpt><trkpt lat="43.531399141980245" lon="10.787305071746154"><ele>153.0</ele><time>2026-04-18T08:04:59Z</time></trkpt><trkpt lat="43.531344898778144" lon="10.7872095909969"><ele>153.0</ele><time>2026-04-18T08:05:00Z</time></trkpt><trkpt lat="43.531292612574646" lon="10.787107152932013"><ele>153.0</ele><time>2026-04-18T08:05:01Z</time></trkpt><trkpt lat="43.53123211223963" lon="10.787006676685882"><ele>153.0</ele><time>2026-04-18T08:05:02Z</time></trkpt><trkpt lat="43.53116767924779" lon="10.786901550197337"><ele>153.0</ele><time>2026-04-18T08:05:03Z</time></trkpt><trkpt lat="43.531100711501374" lon="10.786797630087396"><ele>153.0</ele><time>2026-04-18T08:05:04Z</time></trkpt><trkpt lat="43.531026658961146" lon="10.78668693807255"><ele>151.0</ele><time>2026-04-18T08:05:05Z</time></trkpt><trkpt lat="43.530971228559906" lon="10.78660652217209"><ele>149.0</ele><time>2026-04-18T08:05:06Z</time></trkpt><trkpt lat="43.53090943937672" lon="10.786526594685121"><ele>147.0</ele><time>2026-04-18T08:05:07Z</time></trkpt><trkpt lat="43.53084671797702" lon="10.78644139084389"><ele>145.0</ele><time>2026-04-18T08:05:08Z</time></trkpt><trkpt lat="43.53079123821742" lon="10.786369820413011"><ele>143.0</ele><time>2026-04-18T08:05:08.999Z</time></trkpt><trkpt lat="43.530734068942785" lon="10.78629303826163"><ele>141.0</ele><time>2026-04-18T08:05:09.999Z</time></trkpt><trkpt lat="43.5306907940438" lon="10.786213568411808"><ele>141.0</ele><time>2026-04-18T08:05:10.999Z</time></trkpt><trkpt lat="43.530659508068155" lon="10.786132206992486"><ele>141.0</ele><time>2026-04-18T08:05:11.999Z</time></trkpt><trkpt lat="43.53064745283819" lon="10.78604480402358"><ele>141.0</ele><time>2026-04-18T08:05:12.999Z</time></trkpt><trkpt lat="43.53062076461064" lon="10.785954447634447"><ele>141.0</ele><time>2026-04-18T08:05:13.999Z</time></trkpt><trkpt lat="43.53070069234302" lon="10.785852768918604"><ele>141.0</ele><time>2026-04-18T08:05:14.999Z</time></trkpt><trkpt lat="43.530735796983" lon="10.785729021753262"><ele>141.0</ele><time>2026-04-18T08:05:15.999Z</time></trkpt><trkpt lat="43.53079314097896" lon="10.785614537352304"><ele>140.6</ele><time>2026-04-18T08:05:16.999Z</time></trkpt><trkpt lat="43.530843142958396" lon="10.785494311355938"><ele>140.2</ele><time>2026-04-18T08:05:17.999Z</time></trkpt><trkpt lat="43.53087839183717" lon="10.78537962269992"><ele>139.8</ele><time>2026-04-18T08:05:18.999Z</time></trkpt><trkpt lat="43.53090334377012" lon="10.785259787283284"><ele>139.4</ele><time>2026-04-18T08:05:19.999Z</time></trkpt><trkpt lat="43.53090780818622" lon="10.785135094928055"><ele>139.0</ele><time>2026-04-18T08:05:20.999Z</time></trkpt><trkpt lat="43.530889905418036" lon="10.785014861443349"><ele>139.0</ele><time>2026-04-18T08:05:21.999Z</time></trkpt><trkpt lat="43.53085847078602" lon="10.784886969614051"><ele>139.0</ele><time>2026-04-18T08:05:22.999Z</time></trkpt><trkpt lat="43.53081781702999" lon="10.784759645169546"><ele>139.0</ele><time>2026-04-18T08:05:23.999Z</time></trkpt><trkpt lat="43.53078130621644" lon="10.784616224459123"><ele>139.0</ele><time>2026-04-18T08:05:24.999Z</time></trkpt><trkpt lat="43.530744977565355" lon="10.784477788426132"><ele>139.0</ele><time>2026-04-18T08:05:25.999Z</time></trkpt><trkpt lat="43.53070238171314" lon="10.78435344902811"><ele>137.5</ele><time>2026-04-18T08:05:26.999Z</time></trkpt><trkpt lat="43.5306723426121" lon="10.784237668415896"><ele>136.0</ele><time>2026-04-18T08:05:27.999Z</time></trkpt><trkpt lat="43.53064171847752" lon="10.784156411444432"><ele>134.5</ele><time>2026-04-18T08:05:28.999Z</time></trkpt><trkpt lat="43.530595943053484" lon="10.784085501615685"><ele>133.0</ele><time>2026-04-18T08:05:30.999Z</time></trkpt><trkpt lat="43.53048732644254" lon="10.784081625745255"><ele>131.5</ele><time>2026-04-18T08:05:50Z</time></trkpt><trkpt lat="43.53042379863802" lon="10.784161302885344"><ele>130.0</ele><time>2026-04-18T08:05:51Z</time></trkpt><trkpt lat="43.530360715111755" lon="10.784214281791618"><ele>131.0</ele><time>2026-04-18T08:05:52Z</time></trkpt><trkpt lat="43.530287759158306" lon="10.784296534514446"><ele>132.0</ele><time>2026-04-18T08:05:53Z</time></trkpt><trkpt lat="43.530210171819306" lon="10.784389582726188"><ele>133.0</ele><time>2026-04-18T08:05:54Z</time></trkpt><trkpt lat="43.53012576212246" lon="10.784500361611826"><ele>134.0</ele><time>2026-04-18T08:05:55Z</time></trkpt><trkpt lat="43.53004761854754" lon="10.784594504562683"><ele>135.0</ele><time>2026-04-18T08:05:56Z</time></trkpt><trkpt lat="43.52998330845098" lon="10.784647907807017"><ele>135.0</ele><time>2026-04-18T08:05:57Z</time></trkpt><trkpt lat="43.52990497335302" lon="10.784683449108824"><ele>135.0</ele><time>2026-04-18T08:05:58Z</time></trkpt><trkpt lat="43.52980235911113" lon="10.784709802913405"><ele>135.0</ele><time>2026-04-18T08:05:59Z</time></trkpt><trkpt lat="43.52968995606224" lon="10.784717496266557"><ele>135.0</ele><time>2026-04-18T08:06:00Z</time></trkpt><trkpt lat="43.52956890973625" lon="10.78471825652895"><ele>135.0</ele><time>2026-04-18T08:06:01Z</time></trkpt><trkpt lat="43.529433145768216" lon="10.784713705003778"><ele>129.5</ele><time>2026-04-18T08:06:02Z</time></trkpt><trkpt lat="43.52929039908807" lon="10.784695373219016"><ele>124.0</ele><time>2026-04-18T08:06:03Z</time></trkpt><trkpt lat="43.529146008300415" lon="10.784676279756724"><ele>118.5</ele><time>2026-04-18T08:06:04Z</time></trkpt><trkpt lat="43.52901631576601" lon="10.784651543813931"><ele>113.0</ele><time>2026-04-18T08:06:05Z</time></trkpt><trkpt lat="43.52888689154023" lon="10.784625329445117"><ele>113.0</ele><time>2026-04-18T08:06:06Z</time></trkpt><trkpt lat="43.52876801632288" lon="10.784601004663473"><ele>113.0</ele><time>2026-04-18T08:06:07Z</time></trkpt><trkpt lat="43.52865834781291" lon="10.784591886756777"><ele>113.0</ele><time>2026-04-18T08:06:08Z</time></trkpt><trkpt lat="43.52854584777364" lon="10.78460026460048"><ele>113.0</ele><time>2026-04-18T08:06:09Z</time></trkpt><trkpt lat="43.528439619754906" lon="10.784628081399713"><ele>110.0</ele><time>2026-04-18T08:06:10Z</time></trkpt><trkpt lat="43.528314614953594" lon="10.784663046807967"><ele>107.0</ele><time>2026-04-18T08:06:11Z</time></trkpt><trkpt lat="43.52814476395382" lon="10.784686201666299"><ele>104.0</ele><time>2026-04-18T08:06:12Z</time></trkpt><trkpt lat="43.528072028637595" lon="10.784694150313408"><ele>101.0</ele><time>2026-04-18T08:06:13Z</time></trkpt><trkpt lat="43.52795577722125" lon="10.784685686334461"><ele>98.0</ele><time>2026-04-18T08:06:14Z</time></trkpt><trkpt lat="43.52783967069752" lon="10.784666982026332"><ele>95.0</ele><time>2026-04-18T08:06:15Z</time></trkpt><trkpt lat="43.52772567979931" lon="10.784646200674468"><ele>92.0</ele><time>2026-04-18T08:06:16Z</time></trkpt><trkpt lat="43.52761763884979" lon="10.78462477673921"><ele>89.0</ele><time>2026-04-18T08:06:17Z</time></trkpt><trkpt lat="43.52751112356636" lon="10.784588948073505"><ele>89.0</ele><time>2026-04-18T08:06:18Z</time></trkpt><trkpt lat="43.5274264160272" lon="10.78453353377768"><ele>89.0</ele><time>2026-04-18T08:06:19Z</time></trkpt><trkpt lat="43.527339542856545" lon="10.784453327814882"><ele>89.0</ele><time>2026-04-18T08:06:20Z</time></trkpt><trkpt lat="43.527252086313034" lon="10.784338514001853"><ele>89.0</ele><time>2026-04-18T08:06:21Z</time></trkpt><trkpt lat="43.52720690809211" lon="10.784211392019307"><ele>89.0</ele><time>2026-04-18T08:06:22Z</time></trkpt><trkpt lat="43.52712995281404" lon="10.784093073369025"><ele>89.5</ele><time>2026-04-18T08:06:23Z</time></trkpt><trkpt lat="43.52706124928553" lon="10.783943318887683"><ele>90.0</ele><time>2026-04-18T08:06:24Z</time></trkpt><trkpt lat="43.52697859687952" lon="10.783793462102837"><ele>90.5</ele><time>2026-04-18T08:06:25Z</time></trkpt><trkpt lat="43.52688956295136" lon="10.783646327147526"><ele>91.0</ele><time>2026-04-18T08:06:26Z</time></trkpt><trkpt lat="43.5268033265279" lon="10.783508715659464"><ele>90.0</ele><time>2026-04-18T08:06:27Z</time></trkpt><trkpt lat="43.52672136485872" lon="10.783371278349977"><ele>89.0</ele><time>2026-04-18T08:06:28Z</time></trkpt><trkpt lat="43.52664800942087" lon="10.78324367107444"><ele>88.0</ele><time>2026-04-18T08:06:29Z</time></trkpt><trkpt lat="43.52658300031716" lon="10.783098651193043"><ele>87.0</ele><time>2026-04-18T08:06:30Z</time></trkpt><trkpt lat="43.52654278326998" lon="10.78296604230302"><ele>87.0</ele><time>2026-04-18T08:06:31Z</time></trkpt><trkpt lat="43.52650264370733" lon="10.78284098885543"><ele>87.0</ele><time>2026-04-18T08:06:32Z</time></trkpt><trkpt lat="43.52645565715218" lon="10.782681734552005"><ele>87.0</ele><time>2026-04-18T08:06:33Z</time></trkpt><trkpt lat="43.52638615534442" lon="10.782462424854463"><ele>87.0</ele><time>2026-04-18T08:06:34Z</time></trkpt><trkpt lat="43.52632409290106" lon="10.782255664621996"><ele>84.75</ele><time>2026-04-18T08:06:35Z</time></trkpt><trkpt lat="43.52626162568492" lon="10.7820558508542"><ele>82.5</ele><time>2026-04-18T08:06:36Z</time></trkpt><trkpt lat="43.52620858711471" lon="10.781874023588378"><ele>80.25</ele><time>2026-04-18T08:06:37Z</time></trkpt><trkpt lat="43.52615989741431" lon="10.781690426262806"><ele>78.0</ele><time>2026-04-18T08:06:38Z</time></trkpt><trkpt lat="43.52611918886145" lon="10.781525637643323"><ele>76.2</ele><time>2026-04-18T08:06:39Z</time></trkpt><trkpt lat="43.526080057209995" lon="10.781402380059083"><ele>74.4</ele><time>2026-04-18T08:06:40Z</time></trkpt><trkpt lat="43.526049381836785" lon="10.781295151628962"><ele>72.60000000000001</ele><time>2026-04-18T08:06:41Z</time></trkpt><trkpt lat="43.526024094013586" lon="10.781215052454764"><ele>70.8</ele><time>2026-04-18T08:06:43Z</time></trkpt><trkpt lat="43.525886630786765" lon="10.781237338898556"><ele>69.0</ele><time>2026-04-18T08:06:55Z</time></trkpt><trkpt lat="43.52581449556571" lon="10.78131008728813"><ele>69.0</ele><time>2026-04-18T08:06:56Z</time></trkpt><trkpt lat="43.525738149515846" lon="10.781389054999256"><ele>69.0</ele><time>2026-04-18T08:06:57Z</time></trkpt><trkpt lat="43.52566014965287" lon="10.781472215982745"><ele>69.0</ele><time>2026-04-18T08:06:58Z</time></trkpt><trkpt lat="43.525557692991654" lon="10.78157370699245"><ele>69.0</ele><time>2026-04-18T08:06:59Z</time></trkpt><trkpt lat="43.5254455591221" lon="10.781679157787885"><ele>69.66666666666667</ele><time>2026-04-18T08:07:00Z</time></trkpt><trkpt lat="43.52532391391033" lon="10.781799242357303"><ele>70.33333333333334</ele><time>2026-04-18T08:07:01Z</time></trkpt><trkpt lat="43.52520141412976" lon="10.781918413816763"><ele>71.0</ele><time>2026-04-18T08:07:02Z</time></trkpt><trkpt lat="43.52507758358346" lon="10.782043225599514"><ele>71.0</ele><time>2026-04-18T08:07:03Z</time></trkpt><trkpt lat="43.524955389460516" lon="10.78216500064472"><ele>71.0</ele><time>2026-04-18T08:07:04Z</time></trkpt><trkpt lat="43.52483172831863" lon="10.78229836514482"><ele>71.0</ele><time>2026-04-18T08:07:05Z</time></trkpt><trkpt lat="43.52471969488288" lon="10.782446908388243"><ele>71.0</ele><time>2026-04-18T08:07:06Z</time></trkpt><trkpt lat="43.52462136887425" lon="10.782613406218575"><ele>71.0</ele><time>2026-04-18T08:07:07Z</time></trkpt><trkpt lat="43.524524562086185" lon="10.782818415863494"><ele>71.0</ele><time>2026-04-18T08:07:08Z</time></trkpt><trkpt lat="43.52442943775189" lon="10.783050705221136"><ele>69.0</ele><time>2026-04-18T08:07:09Z</time></trkpt><trkpt lat="43.52433194168535" lon="10.78328286841067"><ele>67.0</ele><time>2026-04-18T08:07:10Z</time></trkpt><trkpt lat="43.5242326329497" lon="10.78349514219848"><ele>65.0</ele><time>2026-04-18T08:07:11Z</time></trkpt><trkpt lat="43.52413029158742" lon="10.783712138134016"><ele>65.0</ele><time>2026-04-18T08:07:12Z</time></trkpt><trkpt lat="43.52403273202438" lon="10.783918157346289"><ele>65.0</ele><time>2026-04-18T08:07:13Z</time></trkpt><trkpt lat="43.52394253278241" lon="10.784112968319217"><ele>65.0</ele><time>2026-04-18T08:07:14Z</time></trkpt><trkpt lat="43.52384925426309" lon="10.784271578582862"><ele>66.0</ele><time>2026-04-18T08:07:15Z</time></trkpt><trkpt lat="43.52373542846826" lon="10.784399894799028"><ele>67.0</ele><time>2026-04-18T08:07:16Z</time></trkpt><trkpt lat="43.523578144928884" lon="10.784498757546075"><ele>68.0</ele><time>2026-04-18T08:07:17Z</time></trkpt><trkpt lat="43.523430593796476" lon="10.784611520624912"><ele>68.33333333333334</ele><time>2026-04-18T08:07:18Z</time></trkpt><trkpt lat="43.52325748559211" lon="10.78469460642673"><ele>68.66666666666667</ele><time>2026-04-18T08:07:19Z</time></trkpt><trkpt lat="43.523092403265736" lon="10.784789497164025"><ele>69.0</ele><time>2026-04-18T08:07:20Z</time></trkpt><trkpt lat="43.522936812436896" lon="10.784888211004358"><ele>68.5</ele><time>2026-04-18T08:07:21Z</time></trkpt><trkpt lat="43.52279166089158" lon="10.784976870703725"><ele>68.0</ele><time>2026-04-18T08:07:22Z</time></trkpt><trkpt lat="43.52265430296313" lon="10.785063152770388"><ele>67.5</ele><time>2026-04-18T08:07:23Z</time></trkpt><trkpt lat="43.52255476999366" lon="10.78511362484197"><ele>67.0</ele><time>2026-04-18T08:07:24Z</time></trkpt><trkpt lat="43.52245721758279" lon="10.785173442611905"><ele>67.5</ele><time>2026-04-18T08:07:25Z</time></trkpt><trkpt lat="43.522386287048235" lon="10.785220565505913"><ele>68.0</ele><time>2026-04-18T08:07:26Z</time></trkpt><trkpt lat="43.5224317471874" lon="10.78546417679098"><ele>68.5</ele><time>2026-04-18T08:07:30Z</time></trkpt><trkpt lat="43.522495279832675" lon="10.785563639168846"><ele>69.0</ele><time>2026-04-18T08:07:31Z</time></trkpt><trkpt lat="43.52254039331291" lon="10.78568841719188"><ele>69.0</ele><time>2026-04-18T08:07:32Z</time></trkpt><trkpt lat="43.52254786359139" lon="10.785837910549311"><ele>69.0</ele><time>2026-04-18T08:07:33Z</time></trkpt><trkpt lat="43.522552202884484" lon="10.785992515024427"><ele>69.0</ele><time>2026-04-18T08:07:34Z</time></trkpt><trkpt lat="43.52255532563348" lon="10.78615896550832"><ele>69.0</ele><time>2026-04-18T08:07:35Z</time></trkpt><trkpt lat="43.52256048743413" lon="10.786346660612757"><ele>69.25</ele><time>2026-04-18T08:07:36Z</time></trkpt><trkpt lat="43.522569371508546" lon="10.786528732676985"><ele>69.5</ele><time>2026-04-18T08:07:37Z</time></trkpt><trkpt lat="43.5225859909198" lon="10.786707877701497"><ele>69.75</ele><time>2026-04-18T08:07:38Z</time></trkpt><trkpt lat="43.52261607321868" lon="10.786876631244741"><ele>70.0</ele><time>2026-04-18T08:07:39Z</time></trkpt><trkpt lat="43.52263844832573" lon="10.787040400927257"><ele>70.66666666666666</ele><time>2026-04-18T08:07:40Z</time></trkpt><trkpt lat="43.522671637762016" lon="10.78725767809162"><ele>71.33333333333333</ele><time>2026-04-18T08:07:41Z</time></trkpt><trkpt lat="43.52270709264127" lon="10.787445627026138"><ele>72.0</ele><time>2026-04-18T08:07:42Z</time></trkpt><trkpt lat="43.52273931311703" lon="10.787650056143987"><ele>72.5</ele><time>2026-04-18T08:07:43Z</time></trkpt><trkpt lat="43.52275306220233" lon="10.787865911535846"><ele>73.0</ele><time>2026-04-18T08:07:44Z</time></trkpt><trkpt lat="43.5227876924028" lon="10.788060168651429"><ele>73.5</ele><time>2026-04-18T08:07:45Z</time></trkpt><trkpt lat="43.52282266983724" lon="10.788253710391864"><ele>74.0</ele><time>2026-04-18T08:07:46Z</time></trkpt><trkpt lat="43.522850525159924" lon="10.788444475843445"><ele>75.5</ele><time>2026-04-18T08:07:47Z</time></trkpt><trkpt lat="43.52286097607945" lon="10.788632951026589"><ele>77.0</ele><time>2026-04-18T08:07:48Z</time></trkpt><trkpt lat="43.522900902764434" lon="10.788809501733192"><ele>78.5</ele><time>2026-04-18T08:07:49Z</time></trkpt><trkpt lat="43.52292722254474" lon="10.78899531888528"><ele>80.0</ele><time>2026-04-18T08:07:50Z</time></trkpt><trkpt lat="43.522950883507804" lon="10.789179985994325"><ele>82.5</ele><time>2026-04-18T08:07:51Z</time></trkpt><trkpt lat="43.522974087071645" lon="10.78935615364748"><ele>85.0</ele><time>2026-04-18T08:07:52Z</time></trkpt><trkpt lat="43.52300053529181" lon="10.789532925259913"><ele>87.5</ele><time>2026-04-18T08:07:53Z</time></trkpt><trkpt lat="43.52302057573408" lon="10.789705751814816"><ele>90.0</ele><time>2026-04-18T08:07:54Z</time></trkpt><trkpt lat="43.52306087807612" lon="10.789855576000846"><ele>90.0</ele><time>2026-04-18T08:07:55Z</time></trkpt><trkpt lat="43.523096261710094" lon="10.789992232753152"><ele>90.0</ele><time>2026-04-18T08:07:56Z</time></trkpt><trkpt lat="43.523121675210646" lon="10.79010000107031"><ele>90.0</ele><time>2026-04-18T08:07:57Z</time></trkpt><trkpt lat="43.52312323311839" lon="10.790221581875198"><ele>90.0</ele><time>2026-04-18T08:07:58Z</time></trkpt><trkpt lat="43.52313874367786" lon="10.790376289984845"><ele>90.0</ele><time>2026-04-18T08:07:59Z</time></trkpt><trkpt lat="43.52317242477002" lon="10.790544481738946"><ele>90.75</ele><time>2026-04-18T08:08:00Z</time></trkpt><trkpt lat="43.5231920751344" lon="10.790716694696073"><ele>91.5</ele><time>2026-04-18T08:08:01Z</time></trkpt><trkpt lat="43.52321633074094" lon="10.790874687290772"><ele>92.25</ele><time>2026-04-18T08:08:02Z</time></trkpt><trkpt lat="43.52324941548125" lon="10.791006001665576"><ele>93.0</ele><time>2026-04-18T08:08:03Z</time></trkpt><trkpt lat="43.52328954554133" lon="10.791144863278017"><ele>93.0</ele><time>2026-04-18T08:08:04Z</time></trkpt><trkpt lat="43.52337324477354" lon="10.79123684185119"><ele>93.0</ele><time>2026-04-18T08:08:05Z</time></trkpt><trkpt lat="43.523463304110464" lon="10.791347078522959"><ele>93.0</ele><time>2026-04-18T08:08:06Z</time></trkpt><trkpt lat="43.523531497692645" lon="10.791495511391377"><ele>93.0</ele><time>2026-04-18T08:08:07Z</time></trkpt><trkpt lat="43.52360873538444" lon="10.791635979621661"><ele>93.0</ele><time>2026-04-18T08:08:08Z</time></trkpt><trkpt lat="43.52367515274292" lon="10.791778718394712"><ele>93.0</ele><time>2026-04-18T08:08:09Z</time></trkpt><trkpt lat="43.52371318742305" lon="10.791904697179143"><ele>93.0</ele><time>2026-04-18T08:08:10Z</time></trkpt><trkpt lat="43.523685282183855" lon="10.792053400205887"><ele>93.0</ele><time>2026-04-18T08:08:11Z</time></trkpt><trkpt lat="43.52366568404571" lon="10.792206285685394"><ele>93.0</ele><time>2026-04-18T08:08:12Z</time></trkpt><trkpt lat="43.5236361736807" lon="10.79237906410754"><ele>93.0</ele><time>2026-04-18T08:08:13Z</time></trkpt><trkpt lat="43.52358556129264" lon="10.792560439114563"><ele>93.0</ele><time>2026-04-18T08:08:14Z</time></trkpt><trkpt lat="43.523530098060164" lon="10.792737467820789"><ele>93.0</ele><time>2026-04-18T08:08:15Z</time></trkpt><trkpt lat="43.52350203701715" lon="10.792936738729285"><ele>93.0</ele><time>2026-04-18T08:08:16Z</time></trkpt><trkpt lat="43.52350249769451" lon="10.79314480645186"><ele>94.0</ele><time>2026-04-18T08:08:17Z</time></trkpt><trkpt lat="43.523484539858586" lon="10.79334726298023"><ele>95.0</ele><time>2026-04-18T08:08:18Z</time></trkpt><trkpt lat="43.52350986002359" lon="10.793557157805374"><ele>96.0</ele><time>2026-04-18T08:08:19Z</time></trkpt><trkpt lat="43.523516389994434" lon="10.79377936963065"><ele>96.0</ele><time>2026-04-18T08:08:20Z</time></trkpt><trkpt lat="43.52351063190771" lon="10.793994537121153"><ele>96.0</ele><time>2026-04-18T08:08:21Z</time></trkpt><trkpt lat="43.523498488940746" lon="10.794207710198316"><ele>96.0</ele><time>2026-04-18T08:08:22Z</time></trkpt><trkpt lat="43.52348169829841" lon="10.794419328750218"><ele>96.0</ele><time>2026-04-18T08:08:23Z</time></trkpt><trkpt lat="43.523467450600855" lon="10.794607623855313"><ele>96.0</ele><time>2026-04-18T08:08:24Z</time></trkpt><trkpt lat="43.52345932417868" lon="10.7947905584441"><ele>96.0</ele><time>2026-04-18T08:08:25Z</time></trkpt><trkpt lat="43.52344722335118" lon="10.794995505425684"><ele>96.0</ele><time>2026-04-18T08:08:26Z</time></trkpt><trkpt lat="43.52346034187653" lon="10.795181764746095"><ele>95.0</ele><time>2026-04-18T08:08:27Z</time></trkpt><trkpt lat="43.52349833748935" lon="10.795353510859911"><ele>94.0</ele><time>2026-04-18T08:08:28Z</time></trkpt><trkpt lat="43.52354479446085" lon="10.79553424497718"><ele>93.0</ele><time>2026-04-18T08:08:29Z</time></trkpt><trkpt lat="43.52359649022151" lon="10.795735600554565"><ele>92.0</ele><time>2026-04-18T08:08:30Z</time></trkpt><trkpt lat="43.52366043858151" lon="10.795935629474918"><ele>92.75</ele><time>2026-04-18T08:08:31Z</time></trkpt><trkpt lat="43.52372874269047" lon="10.796114375901182"><ele>93.5</ele><time>2026-04-18T08:08:32Z</time></trkpt><trkpt lat="43.52378360788276" lon="10.796261206157396"><ele>94.25</ele><time>2026-04-18T08:08:33Z</time></trkpt><trkpt lat="43.52382362245393" lon="10.79639552944312"><ele>95.0</ele><time>2026-04-18T08:08:34Z</time></trkpt><trkpt lat="43.5239094094451" lon="10.796692663041526"><ele>94.75</ele><time>2026-04-18T08:08:35Z</time></trkpt><trkpt lat="43.523951850832375" lon="10.796883441530067"><ele>94.5</ele><time>2026-04-18T08:08:36Z</time></trkpt><trkpt lat="43.5239827663471" lon="10.797082558811146"><ele>94.25</ele><time>2026-04-18T08:08:37Z</time></trkpt><trkpt lat="43.52398292756573" lon="10.797289205833655"><ele>94.0</ele><time>2026-04-18T08:08:38Z</time></trkpt><trkpt lat="43.52399565481366" lon="10.797499196508735"><ele>95.33333333333333</ele><time>2026-04-18T08:08:39Z</time></trkpt><trkpt lat="43.52402372304753" lon="10.797717410478587"><ele>96.66666666666666</ele><time>2026-04-18T08:08:40Z</time></trkpt><trkpt lat="43.52403287940092" lon="10.797929228011094"><ele>98.0</ele><time>2026-04-18T08:08:41Z</time></trkpt><trkpt lat="43.52404465472992" lon="10.798128215491797"><ele>98.0</ele><time>2026-04-18T08:08:42Z</time></trkpt><trkpt lat="43.52405961842259" lon="10.798320003829462"><ele>98.0</ele><time>2026-04-18T08:08:43Z</time></trkpt><trkpt lat="43.5240871602426" lon="10.798504145731211"><ele>98.0</ele><time>2026-04-18T08:08:44Z</time></trkpt><trkpt lat="43.52412808903492" lon="10.79869561931205"><ele>98.0</ele><time>2026-04-18T08:08:45Z</time></trkpt><trkpt lat="43.52416760199254" lon="10.79889387045795"><ele>99.0</ele><time>2026-04-18T08:08:46Z</time></trkpt><trkpt lat="43.524202418835294" lon="10.799100042026847"><ele>100.0</ele><time>2026-04-18T08:08:47Z</time></trkpt><trkpt lat="43.5242159798156" lon="10.799309566112221"><ele>101.0</ele><time>2026-04-18T08:08:48Z</time></trkpt><trkpt lat="43.52423029443429" lon="10.79951682935529"><ele>100.75</ele><time>2026-04-18T08:08:49Z</time></trkpt><trkpt lat="43.524223561427206" lon="10.799710271650415"><ele>100.5</ele><time>2026-04-18T08:08:50Z</time></trkpt><trkpt lat="43.52420504478973" lon="10.799905817157486"><ele>100.25</ele><time>2026-04-18T08:08:51Z</time></trkpt><trkpt lat="43.524181471416696" lon="10.800098042281197"><ele>100.0</ele><time>2026-04-18T08:08:52Z</time></trkpt><trkpt lat="43.524172571376326" lon="10.800283984318956"><ele>100.0</ele><time>2026-04-18T08:08:53Z</time></trkpt><trkpt lat="43.52415762356354" lon="10.80047145706004"><ele>100.0</ele><time>2026-04-18T08:08:54Z</time></trkpt><trkpt lat="43.524155401616795" lon="10.800666312806479"><ele>100.0</ele><time>2026-04-18T08:08:55Z</time></trkpt><trkpt lat="43.52414867068398" lon="10.800838626004516"><ele>100.0</ele><time>2026-04-18T08:08:56Z</time></trkpt><trkpt lat="43.524124179001944" lon="10.800996394820576"><ele>98.5</ele><time>2026-04-18T08:08:57Z</time></trkpt><trkpt lat="43.52408250244633" lon="10.80115987034192"><ele>97.0</ele><time>2026-04-18T08:08:58Z</time></trkpt><trkpt lat="43.52402531347266" lon="10.801314492176198"><ele>95.5</ele><time>2026-04-18T08:08:59Z</time></trkpt><trkpt lat="43.52396454083653" lon="10.80147379539163"><ele>94.0</ele><time>2026-04-18T08:09:00Z</time></trkpt><trkpt lat="43.52388896694818" lon="10.801633290034294"><ele>94.0</ele><time>2026-04-18T08:09:01Z</time></trkpt><trkpt lat="43.52381832320587" lon="10.801791939838301"><ele>94.0</ele><time>2026-04-18T08:09:02Z</time></trkpt><trkpt lat="43.52373153087429" lon="10.801932932346707"><ele>94.0</ele><time>2026-04-18T08:09:03Z</time></trkpt><trkpt lat="43.52362428171296" lon="10.802011770881068"><ele>94.0</ele><time>2026-04-18T08:09:04Z</time></trkpt><trkpt lat="43.52350570590628" lon="10.802087917579964"><ele>96.25</ele><time>2026-04-18T08:09:05Z</time></trkpt><trkpt lat="43.52339397715202" lon="10.802162499130683"><ele>98.5</ele><time>2026-04-18T08:09:06Z</time></trkpt><trkpt lat="43.523278593489685" lon="10.802224270557812"><ele>100.75</ele><time>2026-04-18T08:09:07Z</time></trkpt><trkpt lat="43.52317755077335" lon="10.802308251796159"><ele>103.0</ele><time>2026-04-18T08:09:08Z</time></trkpt><trkpt lat="43.52309885122063" lon="10.802396761095155"><ele>103.0</ele><time>2026-04-18T08:09:09Z</time></trkpt><trkpt lat="43.523042346798505" lon="10.802501532736102"><ele>103.0</ele><time>2026-04-18T08:09:10Z</time></trkpt><trkpt lat="43.52299512407663" lon="10.80262439041756"><ele>103.0</ele><time>2026-04-18T08:09:11Z</time></trkpt><trkpt lat="43.5229688498564" lon="10.80276932849763"><ele>103.0</ele><time>2026-04-18T08:09:12Z</time></trkpt><trkpt lat="43.52295291127722" lon="10.802929308361897"><ele>103.0</ele><time>2026-04-18T08:09:13Z</time></trkpt><trkpt lat="43.52294138886987" lon="10.8030811926922"><ele>103.60000000000001</ele><time>2026-04-18T08:09:14Z</time></trkpt><trkpt lat="43.52292177077143" lon="10.803243082175038"><ele>104.2</ele><time>2026-04-18T08:09:15Z</time></trkpt><trkpt lat="43.522915313722685" lon="10.803402460812206"><ele>104.8</ele><time>2026-04-18T08:09:16Z</time></trkpt><trkpt lat="43.52292475112919" lon="10.80353634262942"><ele>105.4</ele><time>2026-04-18T08:09:17Z</time></trkpt><trkpt lat="43.52293159341074" lon="10.803675963230736"><ele>106.0</ele><time>2026-04-18T08:09:18Z</time></trkpt><trkpt lat="43.522980245625284" lon="10.803803918363377"><ele>106.0</ele><time>2026-04-18T08:09:19Z</time></trkpt><trkpt lat="43.52303783118152" lon="10.803935227874785"><ele>106.0</ele><time>2026-04-18T08:09:20Z</time></trkpt><trkpt lat="43.523108312261044" lon="10.804076363327258"><ele>106.0</ele><time>2026-04-18T08:09:21Z</time></trkpt><trkpt lat="43.52318857277686" lon="10.804219259680915"><ele>106.0</ele><time>2026-04-18T08:09:22Z</time></trkpt><trkpt lat="43.523244656364206" lon="10.804375584644529"><ele>104.5</ele><time>2026-04-18T08:09:23Z</time></trkpt><trkpt lat="43.52332404044013" lon="10.804525679332775"><ele>103.0</ele><time>2026-04-18T08:09:24Z</time></trkpt><trkpt lat="43.5233856444619" lon="10.804698205544886"><ele>101.5</ele><time>2026-04-18T08:09:25Z</time></trkpt><trkpt lat="43.5234506221578" lon="10.804868128893224"><ele>100.0</ele><time>2026-04-18T08:09:26Z</time></trkpt><trkpt lat="43.52352894553717" lon="10.805017653134426"><ele>99.66666666666667</ele><time>2026-04-18T08:09:27Z</time></trkpt><trkpt lat="43.52358388528884" lon="10.805197215415904"><ele>99.33333333333334</ele><time>2026-04-18T08:09:28Z</time></trkpt><trkpt lat="43.52363545481746" lon="10.80541748936104"><ele>99.0</ele><time>2026-04-18T08:09:29Z</time></trkpt><trkpt lat="43.52368953470816" lon="10.805614443136601"><ele>99.0</ele><time>2026-04-18T08:09:30Z</time></trkpt><trkpt lat="43.523712751976" lon="10.805786679629222"><ele>99.0</ele><time>2026-04-18T08:09:31Z</time></trkpt><trkpt lat="43.523743025048695" lon="10.805935382015361"><ele>99.0</ele><time>2026-04-18T08:09:32Z</time></trkpt><trkpt lat="43.52378781697055" lon="10.806075541416932"><ele>99.0</ele><time>2026-04-18T08:09:33Z</time></trkpt><trkpt lat="43.52381579797221" lon="10.806216138262297"><ele>98.25</ele><time>2026-04-18T08:09:34Z</time></trkpt><trkpt lat="43.523814416666276" lon="10.806351713828104"><ele>97.5</ele><time>2026-04-18T08:09:35Z</time></trkpt><trkpt lat="43.523800217429134" lon="10.806507967039176"><ele>96.75</ele><time>2026-04-18T08:09:36Z</time></trkpt><trkpt lat="43.523767867120895" lon="10.806666296159745"><ele>96.0</ele><time>2026-04-18T08:09:37Z</time></trkpt><trkpt lat="43.52373314215616" lon="10.80684377855527"><ele>96.0</ele><time>2026-04-18T08:09:38Z</time></trkpt><trkpt lat="43.523709354066945" lon="10.806998713776032"><ele>96.0</ele><time>2026-04-18T08:09:39Z</time></trkpt><trkpt lat="43.523709271336486" lon="10.807178091584095"><ele>96.0</ele><time>2026-04-18T08:09:40Z</time></trkpt><trkpt lat="43.523735129397004" lon="10.807352552220989"><ele>96.0</ele><time>2026-04-18T08:09:41Z</time></trkpt><trkpt lat="43.523780666296624" lon="10.807535380069835"><ele>96.0</ele><time>2026-04-18T08:09:42Z</time></trkpt><trkpt lat="43.52384244949441" lon="10.807719651647007"><ele>96.0</ele><time>2026-04-18T08:09:43Z</time></trkpt><trkpt lat="43.52390688261411" lon="10.80787933137821"><ele>96.0</ele><time>2026-04-18T08:09:44Z</time></trkpt><trkpt lat="43.52398036717726" lon="10.808034724938109"><ele>96.0</ele><time>2026-04-18T08:09:45Z</time></trkpt><trkpt lat="43.52403007414727" lon="10.808194157883891"><ele>96.0</ele><time>2026-04-18T08:09:46Z</time></trkpt><trkpt lat="43.52408863445175" lon="10.808335225882539"><ele>96.0</ele><time>2026-04-18T08:09:47Z</time></trkpt><trkpt lat="43.52410609637451" lon="10.808478511121804"><ele>96.0</ele><time>2026-04-18T08:09:48Z</time></trkpt><trkpt lat="43.52408205028933" lon="10.808625804772099"><ele>96.0</ele><time>2026-04-18T08:09:49Z</time></trkpt><trkpt lat="43.52406170511591" lon="10.80876543421882"><ele>96.0</ele><time>2026-04-18T08:09:50Z</time></trkpt><trkpt lat="43.52405974970998" lon="10.80894546644479"><ele>97.0</ele><time>2026-04-18T08:09:51Z</time></trkpt><trkpt lat="43.52404752954539" lon="10.80913046311685"><ele>98.0</ele><time>2026-04-18T08:09:52Z</time></trkpt><trkpt lat="43.52404755694363" lon="10.80933266629263"><ele>99.0</ele><time>2026-04-18T08:09:53Z</time></trkpt><trkpt lat="43.524065650999646" lon="10.809525732465982"><ele>100.0</ele><time>2026-04-18T08:09:54Z</time></trkpt><trkpt lat="43.52409433581355" lon="10.809737495384246"><ele>100.75</ele><time>2026-04-18T08:09:55Z</time></trkpt><trkpt lat="43.5241061605021" lon="10.809927346684985"><ele>101.5</ele><time>2026-04-18T08:09:56Z</time></trkpt><trkpt lat="43.524110427144976" lon="10.810123449286081"><ele>102.25</ele><time>2026-04-18T08:09:57Z</time></trkpt><trkpt lat="43.52409376445646" lon="10.810306820904842"><ele>103.0</ele><time>2026-04-18T08:09:58Z</time></trkpt><trkpt lat="43.52406361621177" lon="10.810483489835324"><ele>103.25</ele><time>2026-04-18T08:09:59Z</time></trkpt><trkpt lat="43.524018254614184" lon="10.81066382701576"><ele>103.5</ele><time>2026-04-18T08:10:00Z</time></trkpt><trkpt lat="43.52400027711441" lon="10.810839543046958"><ele>103.75</ele><time>2026-04-18T08:10:01Z</time></trkpt><trkpt lat="43.52398075291785" lon="10.811010659540147"><ele>104.0</ele><time>2026-04-18T08:10:02Z</time></trkpt><trkpt lat="43.52394155499168" lon="10.811193428591551"><ele>103.5</ele><time>2026-04-18T08:10:03Z</time></trkpt><trkpt lat="43.52391173635601" lon="10.811335926953749"><ele>103.0</ele><time>2026-04-18T08:10:04Z</time></trkpt><trkpt lat="43.5238618855181" lon="10.811476891833381"><ele>102.5</ele><time>2026-04-18T08:10:05Z</time></trkpt><trkpt lat="43.5237921430689" lon="10.811605574913541"><ele>102.0</ele><time>2026-04-18T08:10:06Z</time></trkpt><trkpt lat="43.52369729873703" lon="10.811726505627368"><ele>105.5</ele><time>2026-04-18T08:10:07Z</time></trkpt><trkpt lat="43.523597054548176" lon="10.81184332360536"><ele>109.0</ele><time>2026-04-18T08:10:08Z</time></trkpt><trkpt lat="43.523498128976705" lon="10.81195030827919"><ele>112.5</ele><time>2026-04-18T08:10:09Z</time></trkpt><trkpt lat="43.52339093057935" lon="10.81201889731095"><ele>116.0</ele><time>2026-04-18T08:10:10Z</time></trkpt><trkpt lat="43.523284688726775" lon="10.812063515613707"><ele>116.0</ele><time>2026-04-18T08:10:11Z</time></trkpt><trkpt lat="43.523175248847075" lon="10.81213287231073"><ele>116.0</ele><time>2026-04-18T08:10:12Z</time></trkpt><trkpt lat="43.52307385253556" lon="10.812201703988029"><ele>116.0</ele><time>2026-04-18T08:10:13Z</time></trkpt><trkpt lat="43.522990578162315" lon="10.81229577641203"><ele>116.0</ele><time>2026-04-18T08:10:14Z</time></trkpt><trkpt lat="43.522943398535176" lon="10.81240410547057"><ele>116.0</ele><time>2026-04-18T08:10:15Z</time></trkpt><trkpt lat="43.52290112458658" lon="10.812512107267564"><ele>117.5</ele><time>2026-04-18T08:10:16Z</time></trkpt><trkpt lat="43.5228759856769" lon="10.812634955453502"><ele>119.0</ele><time>2026-04-18T08:10:17Z</time></trkpt><trkpt lat="43.52282017825693" lon="10.812782657433381"><ele>120.5</ele><time>2026-04-18T08:10:18Z</time></trkpt><trkpt lat="43.52276965752422" lon="10.812955715703643"><ele>122.0</ele><time>2026-04-18T08:10:19Z</time></trkpt><trkpt lat="43.52268664675559" lon="10.813081390525834"><ele>122.0</ele><time>2026-04-18T08:10:20Z</time></trkpt><trkpt lat="43.52259845712611" lon="10.81318335368684"><ele>122.0</ele><time>2026-04-18T08:10:21Z</time></trkpt><trkpt lat="43.52251006619185" lon="10.813261355113513"><ele>122.0</ele><time>2026-04-18T08:10:22Z</time></trkpt><trkpt lat="43.52241236861625" lon="10.813375147798016"><ele>122.0</ele><time>2026-04-18T08:10:23Z</time></trkpt><trkpt lat="43.52229001413558" lon="10.81347015155046"><ele>122.75</ele><time>2026-04-18T08:10:24Z</time></trkpt><trkpt lat="43.52217147683216" lon="10.813576974313275"><ele>123.5</ele><time>2026-04-18T08:10:25Z</time></trkpt><trkpt lat="43.52207156815044" lon="10.813683564279689"><ele>124.25</ele><time>2026-04-18T08:10:26Z</time></trkpt><trkpt lat="43.521994095456364" lon="10.813789833015248"><ele>125.0</ele><time>2026-04-18T08:10:27Z</time></trkpt><trkpt lat="43.521994941713785" lon="10.813981828803772"><ele>125.75</ele><time>2026-04-18T08:10:28Z</time></trkpt><trkpt lat="43.521946601391825" lon="10.8141484450186"><ele>126.5</ele><time>2026-04-18T08:10:29Z</time></trkpt><trkpt lat="43.52190340261407" lon="10.814340875905396"><ele>127.25</ele><time>2026-04-18T08:10:30Z</time></trkpt><trkpt lat="43.52183962947724" lon="10.814526556092675"><ele>128.0</ele><time>2026-04-18T08:10:31Z</time></trkpt><trkpt lat="43.521766990974584" lon="10.814686452228768"><ele>128.0</ele><time>2026-04-18T08:10:32Z</time></trkpt><trkpt lat="43.52172364304348" lon="10.814801669518916"><ele>128.0</ele><time>2026-04-18T08:10:33Z</time></trkpt><trkpt lat="43.521693540127806" lon="10.814889359376016"><ele>128.0</ele><time>2026-04-18T08:10:34Z</time></trkpt><trkpt lat="43.5216903641479" lon="10.815011735013154"><ele>128.0</ele><time>2026-04-18T08:10:35Z</time></trkpt><trkpt lat="43.52169410996351" lon="10.815179140748166"><ele>128.0</ele><time>2026-04-18T08:10:36Z</time></trkpt><trkpt lat="43.52168755380729" lon="10.81536402209752"><ele>127.75</ele><time>2026-04-18T08:10:37Z</time></trkpt><trkpt lat="43.52166830032469" lon="10.815550836927192"><ele>127.5</ele><time>2026-04-18T08:10:38Z</time></trkpt><trkpt lat="43.52167123136821" lon="10.815728592281406"><ele>127.25</ele><time>2026-04-18T08:10:39Z</time></trkpt><trkpt lat="43.521718464724735" lon="10.815886248953687"><ele>127.0</ele><time>2026-04-18T08:10:40Z</time></trkpt><trkpt lat="43.52178691821827" lon="10.816019202078655"><ele>125.25</ele><time>2026-04-18T08:10:41Z</time></trkpt><trkpt lat="43.521845544637" lon="10.816156671838462"><ele>123.5</ele><time>2026-04-18T08:10:42Z</time></trkpt><trkpt lat="43.52192438636063" lon="10.81628971633807"><ele>121.75</ele><time>2026-04-18T08:10:43Z</time></trkpt><trkpt lat="43.52199554505141" lon="10.816430421449057"><ele>120.0</ele><time>2026-04-18T08:10:44Z</time></trkpt><trkpt lat="43.52205685850963" lon="10.81658825604554"><ele>120.5</ele><time>2026-04-18T08:10:45Z</time></trkpt><trkpt lat="43.52208552975108" lon="10.816743421838176"><ele>121.0</ele><time>2026-04-18T08:10:46Z</time></trkpt><trkpt lat="43.5220894159085" lon="10.81691229326054"><ele>121.5</ele><time>2026-04-18T08:10:47Z</time></trkpt><trkpt lat="43.52206117577196" lon="10.817065567625711"><ele>122.0</ele><time>2026-04-18T08:10:48Z</time></trkpt><trkpt lat="43.52201027691838" lon="10.817225481809507"><ele>122.25</ele><time>2026-04-18T08:10:49Z</time></trkpt><trkpt lat="43.52195377248477" lon="10.817395970770098"><ele>122.5</ele><time>2026-04-18T08:10:50Z</time></trkpt><trkpt lat="43.52189918442264" lon="10.817576586379811"><ele>122.75</ele><time>2026-04-18T08:10:51Z</time></trkpt><trkpt lat="43.52184743969642" lon="10.817731162041282"><ele>123.0</ele><time>2026-04-18T08:10:52Z</time></trkpt><trkpt lat="43.52179662247187" lon="10.817848324108041"><ele>124.33333333333333</ele><time>2026-04-18T08:10:53Z</time></trkpt><trkpt lat="43.52174745685898" lon="10.817936711193115"><ele>125.66666666666666</ele><time>2026-04-18T08:10:54Z</time></trkpt><trkpt lat="43.521697371493445" lon="10.818034532004008"><ele>127.0</ele><time>2026-04-18T08:10:55Z</time></trkpt><trkpt lat="43.52160150308654" lon="10.8181393052476"><ele>128.33333333333331</ele><time>2026-04-18T08:10:56Z</time></trkpt><trkpt lat="43.52152265545623" lon="10.818184988086168"><ele>129.66666666666666</ele><time>2026-04-18T08:10:57Z</time></trkpt><trkpt lat="43.52146644527198" lon="10.818235623091878"><ele>131.0</ele><time>2026-04-18T08:10:58Z</time></trkpt><trkpt lat="43.52140385920764" lon="10.818327988745914"><ele>131.0</ele><time>2026-04-18T08:11:00Z</time></trkpt><trkpt lat="43.521377813106" lon="10.818425110453967"><ele>131.0</ele><time>2026-04-18T08:11:02Z</time></trkpt><trkpt lat="43.521297500922294" lon="10.818544745901168"><ele>131.0</ele><time>2026-04-18T08:11:04Z</time></trkpt><trkpt lat="43.52127002437662" lon="10.818635025069586"><ele>131.0</ele><time>2026-04-18T08:11:05Z</time></trkpt><trkpt lat="43.5212635015321" lon="10.818737951618903"><ele>131.0</ele><time>2026-04-18T08:11:28Z</time></trkpt><trkpt lat="43.52125080097146" lon="10.818915331332613"><ele>131.66666666666666</ele><time>2026-04-18T08:11:30Z</time></trkpt><trkpt lat="43.52123842009188" lon="10.819081357178604"><ele>132.33333333333334</ele><time>2026-04-18T08:11:32Z</time></trkpt><trkpt lat="43.52092464628228" lon="10.819124624729689"><ele>133.0</ele><time>2026-04-18T08:11:34Z</time></trkpt><trkpt lat="43.52079520744234" lon="10.81920781783185"><ele>133.0</ele><time>2026-04-18T08:11:36Z</time></trkpt><trkpt lat="43.520726416728344" lon="10.819281245496759"><ele>133.0</ele><time>2026-04-18T08:11:37Z</time></trkpt><trkpt lat="43.52068581587044" lon="10.819349669262635"><ele>133.0</ele><time>2026-04-18T08:11:38Z</time></trkpt><trkpt lat="43.5206600052801" lon="10.81942954231738"><ele>133.0</ele><time>2026-04-18T08:11:39Z</time></trkpt><trkpt lat="43.52061753856802" lon="10.819507640272674"><ele>133.0</ele><time>2026-04-18T08:11:40Z</time></trkpt><trkpt lat="43.52052551544951" lon="10.819605101902898"><ele>133.0</ele><time>2026-04-18T08:11:42Z</time></trkpt><trkpt lat="43.520446685050665" lon="10.819656889785515"><ele>133.0</ele><time>2026-04-18T08:11:44Z</time></trkpt><trkpt lat="43.52040886784058" lon="10.8197518753331"><ele>133.0</ele><time>2026-04-18T08:11:46Z</time></trkpt><trkpt lat="43.52034295000038" lon="10.819829203000976"><ele>133.0</ele><time>2026-04-18T08:11:48Z</time></trkpt><trkpt lat="43.520291170331596" lon="10.819925912279027"><ele>133.0</ele><time>2026-04-18T08:11:50Z</time></trkpt><trkpt lat="43.52023984879224" lon="10.820008882239255"><ele>133.0</ele><time>2026-04-18T08:11:51Z</time></trkpt><trkpt lat="43.52017393066" lon="10.820137073476774"><ele>133.0</ele><time>2026-04-18T08:11:52Z</time></trkpt><trkpt lat="43.52011093777479" lon="10.820278128867825"><ele>133.16666666666669</ele><time>2026-04-18T08:11:53Z</time></trkpt><trkpt lat="43.52004664886291" lon="10.820395892989223"><ele>133.33333333333334</ele><time>2026-04-18T08:11:54Z</time></trkpt><trkpt lat="43.51997804963737" lon="10.820480515132967"><ele>133.5</ele><time>2026-04-18T08:11:55Z</time></trkpt><trkpt lat="43.519908413613905" lon="10.82053334898095"><ele>133.66666666666666</ele><time>2026-04-18T08:11:56Z</time></trkpt><trkpt lat="43.519854498925234" lon="10.820578998746074"><ele>133.83333333333331</ele><time>2026-04-18T08:11:57Z</time></trkpt><trkpt lat="43.519758218052544" lon="10.820629380231436"><ele>134.0</ele><time>2026-04-18T08:11:59Z</time></trkpt><trkpt lat="43.51967491743111" lon="10.820642998960373"><ele>135.4</ele><time>2026-04-18T08:12:01Z</time></trkpt><trkpt lat="43.51952818998673" lon="10.820676049789899"><ele>136.8</ele><time>2026-04-18T08:12:03Z</time></trkpt><trkpt lat="43.519459441851964" lon="10.820703930703699"><ele>138.2</ele><time>2026-04-18T08:12:04Z</time></trkpt><trkpt lat="43.51936693648684" lon="10.820709981335668"><ele>139.6</ele><time>2026-04-18T08:12:05Z</time></trkpt><trkpt lat="43.51925755364816" lon="10.820749075519597"><ele>141.0</ele><time>2026-04-18T08:12:07Z</time></trkpt><trkpt lat="43.51924019642554" lon="10.820913384510375"><ele>141.6</ele><time>2026-04-18T08:12:09Z</time></trkpt><trkpt lat="43.519264478974236" lon="10.821037121571575"><ele>142.2</ele><time>2026-04-18T08:12:10Z</time></trkpt><trkpt lat="43.51927388214086" lon="10.821134372508531"><ele>142.8</ele><time>2026-04-18T08:12:11Z</time></trkpt><trkpt lat="43.51923716364434" lon="10.821298957042146"><ele>143.4</ele><time>2026-04-18T08:12:13Z</time></trkpt><trkpt lat="43.519202805993075" lon="10.821415144650658"><ele>144.0</ele><time>2026-04-18T08:12:14Z</time></trkpt><trkpt lat="43.519141562903656" lon="10.821504206691152"><ele>144.0</ele><time>2026-04-18T08:12:15Z</time></trkpt><trkpt lat="43.51908141218713" lon="10.821619369875602"><ele>144.0</ele><time>2026-04-18T08:12:17Z</time></trkpt><trkpt lat="43.51901687407827" lon="10.821733705091898"><ele>144.0</ele><time>2026-04-18T08:12:19Z</time></trkpt><trkpt lat="43.51896973127887" lon="10.821839655110857"><ele>144.0</ele><time>2026-04-18T08:12:21Z</time></trkpt><trkpt lat="43.51892153426468" lon="10.821965615159062"><ele>144.0</ele><time>2026-04-18T08:12:23Z</time></trkpt><trkpt lat="43.51886561031096" lon="10.822077825153032"><ele>143.83333333333334</ele><time>2026-04-18T08:12:25Z</time></trkpt><trkpt lat="43.51882580096224" lon="10.822192525152545"><ele>143.66666666666666</ele><time>2026-04-18T08:12:27Z</time></trkpt><trkpt lat="43.51880773742555" lon="10.82231053707901"><ele>143.5</ele><time>2026-04-18T08:12:29Z</time></trkpt><trkpt lat="43.51876595034391" lon="10.822389424205346"><ele>143.33333333333331</ele><time>2026-04-18T08:12:42Z</time></trkpt><trkpt lat="43.51873444008622" lon="10.822478190101043"><ele>143.16666666666666</ele><time>2026-04-18T08:12:44Z</time></trkpt><trkpt lat="43.518699608438034" lon="10.822569749488457"><ele>143.0</ele><time>2026-04-18T08:12:45Z</time></trkpt><trkpt lat="43.51864676357602" lon="10.822658020756277"><ele>146.60000000000002</ele><time>2026-04-18T08:12:46Z</time></trkpt><trkpt lat="43.51860046369536" lon="10.822743519488869"><ele>150.20000000000002</ele><time>2026-04-18T08:12:47Z</time></trkpt><trkpt lat="43.518546761235065" lon="10.822819580678637"><ele>153.8</ele><time>2026-04-18T08:12:48Z</time></trkpt><trkpt lat="43.51847736396406" lon="10.822933995017607"><ele>157.4</ele><time>2026-04-18T08:12:50Z</time></trkpt><trkpt lat="43.518396767738935" lon="10.82309932621758"><ele>161.0</ele><time>2026-04-18T08:12:52Z</time></trkpt><trkpt lat="43.5183334800963" lon="10.823212348957203"><ele>161.0</ele><time>2026-04-18T08:12:54Z</time></trkpt><trkpt lat="43.518276093889654" lon="10.823339240441193"><ele>161.0</ele><time>2026-04-18T08:12:56Z</time></trkpt><trkpt lat="43.518244608785025" lon="10.823460641537896"><ele>161.0</ele><time>2026-04-18T08:12:58Z</time></trkpt><trkpt lat="43.51818294722951" lon="10.823621804673374"><ele>161.0</ele><time>2026-04-18T08:13:00Z</time></trkpt><trkpt lat="43.5181523866254" lon="10.823741885483223"><ele>161.0</ele><time>2026-04-18T08:13:02Z</time></trkpt><trkpt lat="43.51806462140543" lon="10.823872557996655"><ele>160.85714285714286</ele><time>2026-04-18T08:13:04Z</time></trkpt><trkpt lat="43.51801466247443" lon="10.823959381935628"><ele>160.71428571428572</ele><time>2026-04-18T08:13:05Z</time></trkpt><trkpt lat="43.51798051584466" lon="10.824053612807043"><ele>160.57142857142856</ele><time>2026-04-18T08:13:06Z</time></trkpt><trkpt lat="43.51794192197419" lon="10.824136567385922"><ele>160.42857142857144</ele><time>2026-04-18T08:13:07Z</time></trkpt><trkpt lat="43.51790425406048" lon="10.824206541402395"><ele>160.28571428571428</ele><time>2026-04-18T08:13:08Z</time></trkpt><trkpt lat="43.51785477180538" lon="10.824277507528105"><ele>160.14285714285714</ele><time>2026-04-18T08:13:09Z</time></trkpt><trkpt lat="43.51781444961512" lon="10.824349231845563"><ele>160.0</ele><time>2026-04-18T08:13:10Z</time></trkpt><trkpt lat="43.51778021037963" lon="10.824431116489327"><ele>160.0</ele><time>2026-04-18T08:13:15Z</time></trkpt><trkpt lat="43.51780004300396" lon="10.824517818674693"><ele>160.0</ele><time>2026-04-18T08:16:39Z</time></trkpt><trkpt lat="43.517839681194076" lon="10.82468230108681"><ele>160.0</ele><time>2026-04-18T08:16:41Z</time></trkpt><trkpt lat="43.517874477527535" lon="10.824767649768946"><ele>160.0</ele><time>2026-04-18T08:16:42Z</time></trkpt><trkpt lat="43.51791153128553" lon="10.82485255856194"><ele>160.0</ele><time>2026-04-18T08:16:43Z</time></trkpt><trkpt lat="43.51792111750703" lon="10.824960706664879"><ele>160.0</ele><time>2026-04-18T08:16:45Z</time></trkpt><trkpt lat="43.51792845238632" lon="10.825105468668907"><ele>160.4</ele><time>2026-04-18T08:16:48Z</time></trkpt><trkpt lat="43.51794104249429" lon="10.82520829789584"><ele>160.8</ele><time>2026-04-18T08:16:49Z</time></trkpt><trkpt lat="43.51792781451298" lon="10.825299248710605"><ele>161.2</ele><time>2026-04-18T08:16:50Z</time></trkpt><trkpt lat="43.517910224589066" lon="10.8254568466644"><ele>161.6</ele><time>2026-04-18T08:16:52Z</time></trkpt><trkpt lat="43.51790920871961" lon="10.825626816742094"><ele>162.0</ele><time>2026-04-18T08:16:54Z</time></trkpt><trkpt lat="43.51792283312247" lon="10.825755223102421"><ele>162.0</ele><time>2026-04-18T08:16:55Z</time></trkpt><trkpt lat="43.51793477850922" lon="10.825861220607068"><ele>162.0</ele><time>2026-04-18T08:16:56Z</time></trkpt><trkpt lat="43.51794477388672" lon="10.825957439003162"><ele>162.0</ele><time>2026-04-18T08:16:57Z</time></trkpt><trkpt lat="43.517935221080194" lon="10.826056490354139"><ele>162.0</ele><time>2026-04-18T08:16:58Z</time></trkpt><trkpt lat="43.51786320027247" lon="10.826146630824224"><ele>162.0</ele><time>2026-04-18T08:17:00Z</time></trkpt><trkpt lat="43.51783670878915" lon="10.826226146749702"><ele>162.0</ele><time>2026-04-18T08:17:01Z</time></trkpt><trkpt lat="43.5177929166251" lon="10.826302592074919"><ele>162.8</ele><time>2026-04-18T08:17:02Z</time></trkpt><trkpt lat="43.51769302856823" lon="10.826366790480765"><ele>163.6</ele><time>2026-04-18T08:17:04Z</time></trkpt><trkpt lat="43.51763539275513" lon="10.826445709073083"><ele>164.4</ele><time>2026-04-18T08:17:05Z</time></trkpt><trkpt lat="43.5175813536316" lon="10.826521259141197"><ele>165.20000000000002</ele><time>2026-04-18T08:17:06Z</time></trkpt><trkpt lat="43.517509787346796" lon="10.826583528078844"><ele>166.0</ele><time>2026-04-18T08:17:07Z</time></trkpt><trkpt lat="43.51743327272668" lon="10.8266654423158"><ele>166.0</ele><time>2026-04-18T08:17:08Z</time></trkpt><trkpt lat="43.51734356940245" lon="10.826763795716209"><ele>166.0</ele><time>2026-04-18T08:17:09Z</time></trkpt><trkpt lat="43.51726071922791" lon="10.826849072241625"><ele>166.0</ele><time>2026-04-18T08:17:10Z</time></trkpt><trkpt lat="43.51720304516655" lon="10.826910849314844"><ele>166.0</ele><time>2026-04-18T08:17:11Z</time></trkpt><trkpt lat="43.51712613863463" lon="10.826981371593225"><ele>166.0</ele><time>2026-04-18T08:17:12Z</time></trkpt><trkpt lat="43.51704261480285" lon="10.827046368166112"><ele>166.4</ele><time>2026-04-18T08:17:13Z</time></trkpt><trkpt lat="43.516938834858124" lon="10.827108849024755"><ele>166.8</ele><time>2026-04-18T08:17:14Z</time></trkpt><trkpt lat="43.516843508583065" lon="10.827173532166592"><ele>167.20000000000002</ele><time>2026-04-18T08:17:15Z</time></trkpt><trkpt lat="43.516773585434734" lon="10.827233662773004"><ele>167.60000000000002</ele><time>2026-04-18T08:17:16Z</time></trkpt><trkpt lat="43.51669066053848" lon="10.827308338745675"><ele>168.0</ele><time>2026-04-18T08:17:18Z</time></trkpt><trkpt lat="43.51656003812849" lon="10.827414782708873"><ele>168.0</ele><time>2026-04-18T08:17:20Z</time></trkpt><trkpt lat="43.51649217358649" lon="10.827495460585423"><ele>168.0</ele><time>2026-04-18T08:17:21Z</time></trkpt><trkpt lat="43.516422771881686" lon="10.827574577108951"><ele>168.0</ele><time>2026-04-18T08:17:22Z</time></trkpt><trkpt lat="43.51634052189289" lon="10.827644654882585"><ele>168.0</ele><time>2026-04-18T08:17:23Z</time></trkpt><trkpt lat="43.51625381507733" lon="10.827710584729147"><ele>168.0</ele><time>2026-04-18T08:17:24Z</time></trkpt><trkpt lat="43.516181698713034" lon="10.827757564338416"><ele>169.33333333333334</ele><time>2026-04-18T08:17:25Z</time></trkpt><trkpt lat="43.51610125857902" lon="10.827793122060957"><ele>170.66666666666666</ele><time>2026-04-18T08:17:27Z</time></trkpt><trkpt lat="43.51604075896003" lon="10.82787399502885"><ele>172.0</ele><time>2026-04-18T08:17:29Z</time></trkpt><trkpt lat="43.51598709131877" lon="10.827951355731479"><ele>173.33333333333331</ele><time>2026-04-18T08:17:30Z</time></trkpt><trkpt lat="43.51593055160975" lon="10.82803625543203"><ele>174.66666666666666</ele><time>2026-04-18T08:17:31Z</time></trkpt><trkpt lat="43.51587653803942" lon="10.828122080373028"><ele>176.0</ele><time>2026-04-18T08:17:32Z</time></trkpt><trkpt lat="43.51582954288563" lon="10.828195789170561"><ele>176.0</ele><time>2026-04-18T08:17:33Z</time></trkpt><trkpt lat="43.515786961377685" lon="10.828262688171582"><ele>176.0</ele><time>2026-04-18T08:17:34Z</time></trkpt><trkpt lat="43.515726674030844" lon="10.828331124754495"><ele>176.0</ele><time>2026-04-18T08:17:35Z</time></trkpt><trkpt lat="43.515651729202844" lon="10.828406995850742"><ele>176.0</ele><time>2026-04-18T08:17:36Z</time></trkpt><trkpt lat="43.51556813780741" lon="10.828476608468826"><ele>176.0</ele><time>2026-04-18T08:17:37Z</time></trkpt><trkpt lat="43.51549113620669" lon="10.82855001057088"><ele>176.0</ele><time>2026-04-18T08:17:38Z</time></trkpt><trkpt lat="43.51543014372993" lon="10.828622098898414"><ele>178.0</ele><time>2026-04-18T08:17:39Z</time></trkpt><trkpt lat="43.515356810718615" lon="10.828726135414051"><ele>180.0</ele><time>2026-04-18T08:17:41Z</time></trkpt><trkpt lat="43.51528251219657" lon="10.828802594143834"><ele>182.0</ele><time>2026-04-18T08:17:43Z</time></trkpt><trkpt lat="43.515223338556076" lon="10.828843906346364"><ele>184.0</ele><time>2026-04-18T08:17:44.001Z</time></trkpt><trkpt lat="43.51514849283742" lon="10.828903836565992"><ele>186.0</ele><time>2026-04-18T08:17:45.001Z</time></trkpt><trkpt lat="43.51506003352102" lon="10.828980562878881"><ele>186.0</ele><time>2026-04-18T08:17:46.001Z</time></trkpt><trkpt lat="43.51497788156309" lon="10.829053888914634"><ele>186.0</ele><time>2026-04-18T08:17:47.001Z</time></trkpt><trkpt lat="43.51490167836557" lon="10.829111226447239"><ele>186.0</ele><time>2026-04-18T08:17:49.001Z</time></trkpt><trkpt lat="43.51482601045504" lon="10.829127478412463"><ele>186.0</ele><time>2026-04-18T08:17:51.001Z</time></trkpt><trkpt lat="43.5147341180976" lon="10.829051707505277"><ele>186.0</ele><time>2026-04-18T08:17:53.001Z</time></trkpt><trkpt lat="43.51466850273781" lon="10.828981460922444"><ele>186.0</ele><time>2026-04-18T08:17:54.001Z</time></trkpt><trkpt lat="43.5146004120025" lon="10.828945582136228"><ele>186.0</ele><time>2026-04-18T08:17:55.001Z</time></trkpt><trkpt lat="43.514527536592766" lon="10.828971713643186"><ele>186.0</ele><time>2026-04-18T08:17:56.001Z</time></trkpt><trkpt lat="43.514471927768895" lon="10.829059399969346"><ele>186.0</ele><time>2026-04-18T08:17:57.001Z</time></trkpt><trkpt lat="43.514394932619616" lon="10.829136749174335"><ele>186.0</ele><time>2026-04-18T08:17:59.001Z</time></trkpt><trkpt lat="43.514291045276" lon="10.829162263054368"><ele>186.0</ele><time>2026-04-18T08:18:01Z</time></trkpt><trkpt lat="43.51418820569612" lon="10.829113327074596"><ele>188.16666666666666</ele><time>2026-04-18T08:18:03Z</time></trkpt><trkpt lat="43.51416825971564" lon="10.829236730369903"><ele>190.33333333333331</ele><time>2026-04-18T08:18:07Z</time></trkpt><trkpt lat="43.51419716923361" lon="10.829340042722354"><ele>192.5</ele><time>2026-04-18T08:18:08Z</time></trkpt><trkpt lat="43.51421330304015" lon="10.829424121467802"><ele>194.66666666666666</ele><time>2026-04-18T08:18:09Z</time></trkpt><trkpt lat="43.514190320663644" lon="10.829555025987"><ele>196.83333333333331</ele><time>2026-04-18T08:18:15Z</time></trkpt><trkpt lat="43.51419369223746" lon="10.82967180363308"><ele>199.0</ele><time>2026-04-18T08:18:16Z</time></trkpt><trkpt lat="43.51419754495312" lon="10.829785839846824"><ele>199.16666666666666</ele><time>2026-04-18T08:18:17Z</time></trkpt><trkpt lat="43.51419559539099" lon="10.829918306283595"><ele>199.33333333333331</ele><time>2026-04-18T08:18:19Z</time></trkpt><trkpt lat="43.51422660986087" lon="10.830018329175779"><ele>199.5</ele><time>2026-04-18T08:18:22Z</time></trkpt><trkpt lat="43.51426922302553" lon="10.830099905069922"><ele>199.66666666666669</ele><time>2026-04-18T08:18:24Z</time></trkpt><trkpt lat="43.51429911009657" lon="10.830177163252442"><ele>199.83333333333334</ele><time>2026-04-18T08:18:27Z</time></trkpt><trkpt lat="43.51435966344401" lon="10.830272312041702"><ele>200.0</ele><time>2026-04-18T08:18:30Z</time></trkpt><trkpt lat="43.514407822013816" lon="10.830332917449303"><ele>200.00000000000003</ele><time>2026-04-18T08:18:32Z</time></trkpt><trkpt lat="43.514457187030516" lon="10.830395491043213"><ele>200.0</ele><time>2026-04-18T08:18:34Z</time></trkpt><trkpt lat="43.514508523728786" lon="10.830486168896115"><ele>200.0</ele><time>2026-04-18T08:18:36Z</time></trkpt><trkpt lat="43.514557150976685" lon="10.830557465426386"><ele>200.0</ele><time>2026-04-18T08:18:37Z</time></trkpt><trkpt lat="43.51463413137019" lon="10.830702913436431"><ele>200.00000000000003</ele><time>2026-04-18T08:18:39Z</time></trkpt><trkpt lat="43.514684323132826" lon="10.830799318781585"><ele>200.0</ele><time>2026-04-18T08:18:40Z</time></trkpt><trkpt lat="43.514712115188054" lon="10.830881388197355"><ele>200.00000000000003</ele><time>2026-04-18T08:18:42Z</time></trkpt><trkpt lat="43.514644813462674" lon="10.830915574658881"><ele>200.0</ele><time>2026-04-18T08:18:57Z</time></trkpt><trkpt lat="43.51456942385339" lon="10.830941895340594"><ele>200.0</ele><time>2026-04-18T08:19:03Z</time></trkpt><trkpt lat="43.51448891077106" lon="10.83095432035138"><ele>200.0</ele><time>2026-04-18T08:19:04Z</time></trkpt><trkpt lat="43.51442071078692" lon="10.830962193278921"><ele>200.00000000000003</ele><time>2026-04-18T08:19:05Z</time></trkpt><trkpt lat="43.51433192127833" lon="10.830981868153527"><ele>200.0</ele><time>2026-04-18T08:19:06Z</time></trkpt><trkpt lat="43.51422938590201" lon="10.831006241983015"><ele>197.25</ele><time>2026-04-18T08:19:07Z</time></trkpt><trkpt lat="43.51410348491344" lon="10.831024836905055"><ele>194.5</ele><time>2026-04-18T08:19:08Z</time></trkpt><trkpt lat="43.513978733522755" lon="10.83103206484741"><ele>191.75</ele><time>2026-04-18T08:19:09Z</time></trkpt><trkpt lat="43.513862289627575" lon="10.83103515216938"><ele>189.0</ele><time>2026-04-18T08:19:10Z</time></trkpt><trkpt lat="43.513746628916245" lon="10.831040940217552"><ele>192.75</ele><time>2026-04-18T08:19:11Z</time></trkpt><trkpt lat="43.51363788276326" lon="10.831074306795223"><ele>196.5</ele><time>2026-04-18T08:19:12Z</time></trkpt><trkpt lat="43.513534915574944" lon="10.831153498790767"><ele>200.25</ele><time>2026-04-18T08:19:13Z</time></trkpt><trkpt lat="43.513415688778366" lon="10.831229844899653"><ele>204.0</ele><time>2026-04-18T08:19:14Z</time></trkpt><trkpt lat="43.51327707479737" lon="10.83123921915126"><ele>204.0</ele><time>2026-04-18T08:19:15Z</time></trkpt><trkpt lat="43.51317883785919" lon="10.831333180999183"><ele>204.0</ele><time>2026-04-18T08:19:16Z</time></trkpt><trkpt lat="43.51309074028047" lon="10.831436531952418"><ele>204.0</ele><time>2026-04-18T08:19:17Z</time></trkpt><trkpt lat="43.51299987573919" lon="10.831583988259807"><ele>204.0</ele><time>2026-04-18T08:19:18Z</time></trkpt><trkpt lat="43.512922230514924" lon="10.831715383864832"><ele>206.0</ele><time>2026-04-18T08:19:19Z</time></trkpt><trkpt lat="43.512829997784245" lon="10.83185555282761"><ele>208.0</ele><time>2026-04-18T08:19:20Z</time></trkpt><trkpt lat="43.5127240186831" lon="10.831932029174842"><ele>210.0</ele><time>2026-04-18T08:19:21Z</time></trkpt><trkpt lat="43.51261326915895" lon="10.832002242744615"><ele>212.0</ele><time>2026-04-18T08:19:22Z</time></trkpt><trkpt lat="43.512497284888894" lon="10.832068812314407"><ele>212.0</ele><time>2026-04-18T08:19:23Z</time></trkpt><trkpt lat="43.51236768893093" lon="10.832145094910533"><ele>212.0</ele><time>2026-04-18T08:19:24Z</time></trkpt><trkpt lat="43.51224483394023" lon="10.832191870271544"><ele>212.0</ele><time>2026-04-18T08:19:25Z</time></trkpt><trkpt lat="43.512175254328696" lon="10.83225313537972"><ele>212.0</ele><time>2026-04-18T08:19:26Z</time></trkpt><trkpt lat="43.512125554617405" lon="10.832339887063108"><ele>212.0</ele><time>2026-04-18T08:19:27Z</time></trkpt><trkpt lat="43.51205529198286" lon="10.832470881247188"><ele>209.75</ele><time>2026-04-18T08:19:28Z</time></trkpt><trkpt lat="43.51198575548838" lon="10.832634163816737"><ele>207.5</ele><time>2026-04-18T08:19:29Z</time></trkpt><trkpt lat="43.51192916207927" lon="10.832810900236545"><ele>205.25</ele><time>2026-04-18T08:19:30Z</time></trkpt><trkpt lat="43.511867253124564" lon="10.83300641502902"><ele>203.0</ele><time>2026-04-18T08:19:31Z</time></trkpt><trkpt lat="43.51179148367118" lon="10.833189109220026"><ele>202.0</ele><time>2026-04-18T08:19:32Z</time></trkpt><trkpt lat="43.511688135439954" lon="10.833324282094248"><ele>201.0</ele><time>2026-04-18T08:19:33Z</time></trkpt><trkpt lat="43.51159511850039" lon="10.833433737040535"><ele>200.0</ele><time>2026-04-18T08:19:34Z</time></trkpt><trkpt lat="43.51150598064469" lon="10.833534358861177"><ele>199.0</ele><time>2026-04-18T08:19:35Z</time></trkpt><trkpt lat="43.51138665492909" lon="10.833630068637294"><ele>199.39999999999998</ele><time>2026-04-18T08:19:36Z</time></trkpt><trkpt lat="43.5112682811113" lon="10.833714040457163"><ele>199.8</ele><time>2026-04-18T08:19:37Z</time></trkpt><trkpt lat="43.51116163951358" lon="10.833789939484596"><ele>200.2</ele><time>2026-04-18T08:19:38Z</time></trkpt><trkpt lat="43.51107676852185" lon="10.83386360184785"><ele>200.60000000000002</ele><time>2026-04-18T08:19:39Z</time></trkpt><trkpt lat="43.511039286754766" lon="10.833939892016062"><ele>201.0</ele><time>2026-04-18T08:19:40Z</time></trkpt><trkpt lat="43.51104297053248" lon="10.834082491923645"><ele>201.0</ele><time>2026-04-18T08:19:42Z</time></trkpt><trkpt lat="43.5110770450346" lon="10.834192909795561"><ele>201.0</ele><time>2026-04-18T08:19:43Z</time></trkpt><trkpt lat="43.511079520026996" lon="10.83435631268717"><ele>201.0</ele><time>2026-04-18T08:19:44Z</time></trkpt><trkpt lat="43.51109401438166" lon="10.834500136867153"><ele>201.0</ele><time>2026-04-18T08:19:45Z</time></trkpt><trkpt lat="43.511092606587226" lon="10.834639459382586"><ele>201.0</ele><time>2026-04-18T08:19:46Z</time></trkpt><trkpt lat="43.51106549247918" lon="10.83477466213158"><ele>200.5</ele><time>2026-04-18T08:19:47Z</time></trkpt><trkpt lat="43.5110296664907" lon="10.834915504624524"><ele>200.0</ele><time>2026-04-18T08:19:48Z</time></trkpt><trkpt lat="43.51097739936314" lon="10.835057604017353"><ele>199.5</ele><time>2026-04-18T08:19:49Z</time></trkpt><trkpt lat="43.510921140002594" lon="10.835218167239198"><ele>199.0</ele><time>2026-04-18T08:19:50Z</time></trkpt><trkpt lat="43.51088321893277" lon="10.835394927197669"><ele>197.0</ele><time>2026-04-18T08:19:51Z</time></trkpt><trkpt lat="43.5108492098055" lon="10.835579841261302"><ele>195.0</ele><time>2026-04-18T08:19:52Z</time></trkpt><trkpt lat="43.51082256870931" lon="10.835734736549258"><ele>193.0</ele><time>2026-04-18T08:19:53Z</time></trkpt><trkpt lat="43.51080698052949" lon="10.835913877874379"><ele>191.0</ele><time>2026-04-18T08:19:54Z</time></trkpt><trkpt lat="43.51081490963625" lon="10.836092803129588"><ele>190.75</ele><time>2026-04-18T08:19:55Z</time></trkpt><trkpt lat="43.51081858116268" lon="10.836278450605445"><ele>190.5</ele><time>2026-04-18T08:19:56Z</time></trkpt><trkpt lat="43.5108221985455" lon="10.83647006663567"><ele>190.25</ele><time>2026-04-18T08:19:57Z</time></trkpt><trkpt lat="43.510822207391485" lon="10.836660697629219"><ele>190.0</ele><time>2026-04-18T08:19:58Z</time></trkpt><trkpt lat="43.51082053746303" lon="10.836853776096678"><ele>190.0</ele><time>2026-04-18T08:19:59Z</time></trkpt><trkpt lat="43.51081671068369" lon="10.83704505482967"><ele>190.0</ele><time>2026-04-18T08:20:00Z</time></trkpt><trkpt lat="43.51080144940381" lon="10.837218439113617"><ele>190.0</ele><time>2026-04-18T08:20:01Z</time></trkpt><trkpt lat="43.510769879981304" lon="10.837355060823942"><ele>190.0</ele><time>2026-04-18T08:20:02Z</time></trkpt><trkpt lat="43.51074666822944" lon="10.837492769320733"><ele>190.25</ele><time>2026-04-18T08:20:03Z</time></trkpt><trkpt lat="43.51069957664454" lon="10.83765280691964"><ele>190.5</ele><time>2026-04-18T08:20:04Z</time></trkpt><trkpt lat="43.5106682248553" lon="10.837816655710679"><ele>190.75</ele><time>2026-04-18T08:20:05Z</time></trkpt><trkpt lat="43.51064805173148" lon="10.837973272611901"><ele>191.0</ele><time>2026-04-18T08:20:06Z</time></trkpt><trkpt lat="43.51064534765139" lon="10.838121321795802"><ele>191.0</ele><time>2026-04-18T08:20:07Z</time></trkpt><trkpt lat="43.51066935114915" lon="10.838271662920022"><ele>191.0</ele><time>2026-04-18T08:20:08Z</time></trkpt><trkpt lat="43.51070326764107" lon="10.838427017000289"><ele>191.0</ele><time>2026-04-18T08:20:09Z</time></trkpt><trkpt lat="43.51074517132562" lon="10.838579106618106"><ele>191.0</ele><time>2026-04-18T08:20:10Z</time></trkpt><trkpt lat="43.510768605388904" lon="10.838719361303774"><ele>190.0</ele><time>2026-04-18T08:20:11Z</time></trkpt><trkpt lat="43.510798151144265" lon="10.838826750054459"><ele>189.0</ele><time>2026-04-18T08:20:12Z</time></trkpt><trkpt lat="43.51078685618985" lon="10.838944954825573"><ele>188.0</ele><time>2026-04-18T08:20:13Z</time></trkpt><trkpt lat="43.51072440928516" lon="10.83923570616761"><ele>187.0</ele><time>2026-04-18T08:20:15Z</time></trkpt><trkpt lat="43.510673070727606" lon="10.839353386826636"><ele>186.39999999999998</ele><time>2026-04-18T08:20:16Z</time></trkpt><trkpt lat="43.51063414906199" lon="10.839490129065155"><ele>185.79999999999998</ele><time>2026-04-18T08:20:17Z</time></trkpt><trkpt lat="43.510635482257854" lon="10.839640128813155"><ele>185.2</ele><time>2026-04-18T08:20:18Z</time></trkpt><trkpt lat="43.510606112792736" lon="10.839757244513732"><ele>184.6</ele><time>2026-04-18T08:20:19Z</time></trkpt><trkpt lat="43.51062760290701" lon="10.839937870044032"><ele>184.0</ele><time>2026-04-18T08:20:20Z</time></trkpt><trkpt lat="43.510664301236886" lon="10.840098597693473"><ele>183.25</ele><time>2026-04-18T08:20:21Z</time></trkpt><trkpt lat="43.51069811980482" lon="10.840284333784398"><ele>182.5</ele><time>2026-04-18T08:20:22Z</time></trkpt><trkpt lat="43.51071820946735" lon="10.840489475694966"><ele>181.75</ele><time>2026-04-18T08:20:23Z</time></trkpt><trkpt lat="43.51074550609435" lon="10.840687176268492"><ele>181.0</ele><time>2026-04-18T08:20:24Z</time></trkpt><trkpt lat="43.51076770314659" lon="10.840893008985844"><ele>181.5</ele><time>2026-04-18T08:20:25Z</time></trkpt><trkpt lat="43.51078484070763" lon="10.841100018944815"><ele>182.0</ele><time>2026-04-18T08:20:26Z</time></trkpt><trkpt lat="43.51079950285275" lon="10.841284289728858"><ele>182.5</ele><time>2026-04-18T08:20:27Z</time></trkpt><trkpt lat="43.510815012436396" lon="10.841479210301593"><ele>183.0</ele><time>2026-04-18T08:20:28Z</time></trkpt><trkpt lat="43.51083276311718" lon="10.841668432665818"><ele>183.5</ele><time>2026-04-18T08:20:29Z</time></trkpt><trkpt lat="43.510859423298" lon="10.841835523225724"><ele>184.0</ele><time>2026-04-18T08:20:30Z</time></trkpt><trkpt lat="43.51091956051781" lon="10.841977561787923"><ele>184.5</ele><time>2026-04-18T08:20:31Z</time></trkpt><trkpt lat="43.51096442518239" lon="10.842133911382472"><ele>185.0</ele><time>2026-04-18T08:20:32Z</time></trkpt><trkpt lat="43.511033327308645" lon="10.842263960626575"><ele>185.0</ele><time>2026-04-18T08:20:33Z</time></trkpt><trkpt lat="43.5110755014254" lon="10.842419667776701"><ele>185.0</ele><time>2026-04-18T08:20:34Z</time></trkpt><trkpt lat="43.511080002050385" lon="10.842590694495486"><ele>185.0</ele><time>2026-04-18T08:20:35Z</time></trkpt><trkpt lat="43.51108708585975" lon="10.842753959988617"><ele>185.0</ele><time>2026-04-18T08:20:36Z</time></trkpt><trkpt lat="43.511099848575434" lon="10.842925646972505"><ele>184.5</ele><time>2026-04-18T08:20:37Z</time></trkpt><trkpt lat="43.51109246991806" lon="10.843100191023773"><ele>184.0</ele><time>2026-04-18T08:20:38Z</time></trkpt><trkpt lat="43.51105385876141" lon="10.84327889689697"><ele>183.5</ele><time>2026-04-18T08:20:39Z</time></trkpt><trkpt lat="43.51104351109989" lon="10.843459072096671"><ele>183.0</ele><time>2026-04-18T08:20:40Z</time></trkpt><trkpt lat="43.51100967750526" lon="10.8436310448439"><ele>182.2</ele><time>2026-04-18T08:20:41Z</time></trkpt><trkpt lat="43.51098413634946" lon="10.843777277358834"><ele>181.4</ele><time>2026-04-18T08:20:42Z</time></trkpt><trkpt lat="43.510973757718645" lon="10.843911431582837"><ele>180.6</ele><time>2026-04-18T08:20:43Z</time></trkpt><trkpt lat="43.51098202247137" lon="10.844035936475537"><ele>179.79999999999998</ele><time>2026-04-18T08:20:44Z</time></trkpt><trkpt lat="43.51099628975912" lon="10.844170524856413"><ele>179.0</ele><time>2026-04-18T08:20:45Z</time></trkpt><trkpt lat="43.511016119977526" lon="10.844317224000223"><ele>178.0</ele><time>2026-04-18T08:20:46Z</time></trkpt><trkpt lat="43.511035655843976" lon="10.8444618443938"><ele>177.0</ele><time>2026-04-18T08:20:47Z</time></trkpt><trkpt lat="43.51105283590643" lon="10.844594742482347"><ele>176.0</ele><time>2026-04-18T08:20:48Z</time></trkpt><trkpt lat="43.51107522192399" lon="10.84470845199076"><ele>175.0</ele><time>2026-04-18T08:20:49Z</time></trkpt><trkpt lat="43.51111339092817" lon="10.844811954907986"><ele>174.0</ele><time>2026-04-18T08:20:50Z</time></trkpt><trkpt lat="43.51116795977085" lon="10.844922816687223"><ele>174.0</ele><time>2026-04-18T08:20:51Z</time></trkpt><trkpt lat="43.511238792712575" lon="10.845047143520759"><ele>174.0</ele><time>2026-04-18T08:20:52Z</time></trkpt><trkpt lat="43.51129953472871" lon="10.845156260401389"><ele>174.0</ele><time>2026-04-18T08:20:53Z</time></trkpt><trkpt lat="43.51135438732308" lon="10.845308678376355"><ele>174.0</ele><time>2026-04-18T08:20:54Z</time></trkpt><trkpt lat="43.51142610751159" lon="10.845444202553466"><ele>174.75</ele><time>2026-04-18T08:20:55Z</time></trkpt><trkpt lat="43.5115325117805" lon="10.845583429039324"><ele>175.5</ele><time>2026-04-18T08:20:56Z</time></trkpt><trkpt lat="43.51158808834058" lon="10.845723919369364"><ele>176.25</ele><time>2026-04-18T08:20:57Z</time></trkpt><trkpt lat="43.51164677098997" lon="10.845857919724493"><ele>177.0</ele><time>2026-04-18T08:20:58Z</time></trkpt><trkpt lat="43.511678978439484" lon="10.845951880325003"><ele>177.33333333333334</ele><time>2026-04-18T08:20:59Z</time></trkpt><trkpt lat="43.51170082268324" lon="10.84605000012422"><ele>177.66666666666666</ele><time>2026-04-18T08:21:00Z</time></trkpt><trkpt lat="43.51171386288873" lon="10.84615235240967"><ele>178.0</ele><time>2026-04-18T08:21:01Z</time></trkpt><trkpt lat="43.51171845300224" lon="10.846288498254927"><ele>178.33333333333331</ele><time>2026-04-18T08:21:03Z</time></trkpt><trkpt lat="43.51170890084181" lon="10.84643079643327"><ele>178.66666666666666</ele><time>2026-04-18T08:21:05Z</time></trkpt><trkpt lat="43.51169764116232" lon="10.846522540760906"><ele>179.0</ele><time>2026-04-18T08:21:06Z</time></trkpt><trkpt lat="43.511684361967504" lon="10.846627462088872"><ele>179.0</ele><time>2026-04-18T08:21:07Z</time></trkpt><trkpt lat="43.51167007053291" lon="10.846729426738285"><ele>179.0</ele><time>2026-04-18T08:21:08Z</time></trkpt><trkpt lat="43.511654963958875" lon="10.846821110161253"><ele>179.0</ele><time>2026-04-18T08:21:09Z</time></trkpt><trkpt lat="43.51163211843211" lon="10.8469427008106"><ele>179.0</ele><time>2026-04-18T08:21:10Z</time></trkpt><trkpt lat="43.51161040305546" lon="10.847054551095686"><ele>179.0</ele><time>2026-04-18T08:21:11Z</time></trkpt><trkpt lat="43.51159744553258" lon="10.847168447931574"><ele>179.0</ele><time>2026-04-18T08:21:12Z</time></trkpt><trkpt lat="43.511595596276585" lon="10.847259113002332"><ele>179.0</ele><time>2026-04-18T08:21:13Z</time></trkpt><trkpt lat="43.511618164783265" lon="10.84742416169165"><ele>179.0</ele><time>2026-04-18T08:21:15Z</time></trkpt><trkpt lat="43.51164620977948" lon="10.847601738353765"><ele>179.0</ele><time>2026-04-18T08:21:17Z</time></trkpt><trkpt lat="43.511660249917384" lon="10.847705957828895"><ele>179.0</ele><time>2026-04-18T08:21:18Z</time></trkpt><trkpt lat="43.511674946311004" lon="10.847817900319804"><ele>179.0</ele><time>2026-04-18T08:21:19Z</time></trkpt><trkpt lat="43.511691125147685" lon="10.847963926010026"><ele>179.0</ele><time>2026-04-18T08:21:20Z</time></trkpt><trkpt lat="43.511724895303615" lon="10.848116883433859"><ele>179.0</ele><time>2026-04-18T08:21:21Z</time></trkpt><trkpt lat="43.51175329198706" lon="10.848283483052231"><ele>179.0</ele><time>2026-04-18T08:21:23Z</time></trkpt><trkpt lat="43.51177951121713" lon="10.848387612366913"><ele>179.0</ele><time>2026-04-18T08:21:24Z</time></trkpt><trkpt lat="43.51182260876625" lon="10.848511919115298"><ele>179.0</ele><time>2026-04-18T08:21:25Z</time></trkpt><trkpt lat="43.51185826854414" lon="10.848636735922607"><ele>177.25</ele><time>2026-04-18T08:21:26Z</time></trkpt><trkpt lat="43.511887610456576" lon="10.84878902726308"><ele>175.5</ele><time>2026-04-18T08:21:27Z</time></trkpt><trkpt lat="43.51193129613457" lon="10.84894460747015"><ele>173.75</ele><time>2026-04-18T08:21:28Z</time></trkpt><trkpt lat="43.51198860199082" lon="10.849095679216344"><ele>172.0</ele><time>2026-04-18T08:21:29Z</time></trkpt><trkpt lat="43.51206493304919" lon="10.849225798001319"><ele>172.25</ele><time>2026-04-18T08:21:30Z</time></trkpt><trkpt lat="43.51215245470533" lon="10.849355878900925"><ele>172.5</ele><time>2026-04-18T08:21:31Z</time></trkpt><trkpt lat="43.51224865942919" lon="10.849483467373037"><ele>172.75</ele><time>2026-04-18T08:21:32Z</time></trkpt><trkpt lat="43.51234396406153" lon="10.849620686139877"><ele>173.0</ele><time>2026-04-18T08:21:33Z</time></trkpt><trkpt lat="43.51243249479788" lon="10.849764298280437"><ele>173.0</ele><time>2026-04-18T08:21:34Z</time></trkpt><trkpt lat="43.51252538772094" lon="10.849891872481034"><ele>173.0</ele><time>2026-04-18T08:21:35Z</time></trkpt><trkpt lat="43.51261660048803" lon="10.850021489400934"><ele>173.0</ele><time>2026-04-18T08:21:36Z</time></trkpt><trkpt lat="43.51271046256982" lon="10.850138238772306"><ele>173.0</ele><time>2026-04-18T08:21:37Z</time></trkpt><trkpt lat="43.51280953623279" lon="10.850241725734636"><ele>172.4</ele><time>2026-04-18T08:21:38Z</time></trkpt><trkpt lat="43.51289974926751" lon="10.85034104795686"><ele>171.8</ele><time>2026-04-18T08:21:39Z</time></trkpt><trkpt lat="43.512979034741036" lon="10.850430475129647"><ele>171.2</ele><time>2026-04-18T08:21:40Z</time></trkpt><trkpt lat="43.51303885293578" lon="10.850531156894387"><ele>170.6</ele><time>2026-04-18T08:21:41Z</time></trkpt><trkpt lat="43.513093959649424" lon="10.85061190418848"><ele>170.0</ele><time>2026-04-18T08:21:42Z</time></trkpt><trkpt lat="43.51314115186424" lon="10.850690551695317"><ele>170.0</ele><time>2026-04-18T08:21:43Z</time></trkpt><trkpt lat="43.51318315433539" lon="10.850834685672222"><ele>170.0</ele><time>2026-04-18T08:21:45Z</time></trkpt><trkpt lat="43.513184983023734" lon="10.850931622855478"><ele>170.0</ele><time>2026-04-18T08:21:46Z</time></trkpt><trkpt lat="43.51315574655839" lon="10.851049520482448"><ele>170.0</ele><time>2026-04-18T08:21:47Z</time></trkpt><trkpt lat="43.51310687947505" lon="10.85115026603115"><ele>170.0</ele><time>2026-04-18T08:21:48Z</time></trkpt><trkpt lat="43.513048082348405" lon="10.851247327397942"><ele>170.4</ele><time>2026-04-18T08:21:49Z</time></trkpt><trkpt lat="43.513009037220755" lon="10.851359099740835"><ele>170.8</ele><time>2026-04-18T08:21:50Z</time></trkpt><trkpt lat="43.51298349862861" lon="10.85150571695736"><ele>171.2</ele><time>2026-04-18T08:21:51Z</time></trkpt><trkpt lat="43.51297130036902" lon="10.851676559758259"><ele>171.6</ele><time>2026-04-18T08:21:52Z</time></trkpt><trkpt lat="43.51296531311648" lon="10.851837099530345"><ele>172.0</ele><time>2026-04-18T08:21:53Z</time></trkpt><trkpt lat="43.51293889139525" lon="10.852004299779562"><ele>172.5</ele><time>2026-04-18T08:21:54Z</time></trkpt><trkpt lat="43.51289255576659" lon="10.852176732305605"><ele>173.0</ele><time>2026-04-18T08:21:55Z</time></trkpt><trkpt lat="43.512832149776514" lon="10.852357364495115"><ele>173.5</ele><time>2026-04-18T08:21:56Z</time></trkpt><trkpt lat="43.51275609920089" lon="10.852496845833137"><ele>174.0</ele><time>2026-04-18T08:21:57Z</time></trkpt><trkpt lat="43.51268975382405" lon="10.85261596659165"><ele>174.16666666666666</ele><time>2026-04-18T08:21:58Z</time></trkpt><trkpt lat="43.51262392416862" lon="10.852696638156408"><ele>174.33333333333334</ele><time>2026-04-18T08:21:59Z</time></trkpt><trkpt lat="43.5125501829223" lon="10.852726246568695"><ele>174.5</ele><time>2026-04-18T08:22:00Z</time></trkpt><trkpt lat="43.51246895755776" lon="10.852778613849308"><ele>174.66666666666669</ele><time>2026-04-18T08:22:01Z</time></trkpt><trkpt lat="43.512389915319716" lon="10.852851954340595"><ele>174.83333333333334</ele><time>2026-04-18T08:22:02Z</time></trkpt><trkpt lat="43.512358819845396" lon="10.852960569074375"><ele>175.0</ele><time>2026-04-18T08:22:03Z</time></trkpt><trkpt lat="43.512335763964195" lon="10.853047717670353"><ele>175.0</ele><time>2026-04-18T08:22:04Z</time></trkpt><trkpt lat="43.51231778076481" lon="10.853154761395185"><ele>175.0</ele><time>2026-04-18T08:22:05Z</time></trkpt><trkpt lat="43.51230721879361" lon="10.85328153968227"><ele>175.0</ele><time>2026-04-18T08:22:06Z</time></trkpt><trkpt lat="43.51230825196106" lon="10.853418434354493"><ele>175.0</ele><time>2026-04-18T08:22:07Z</time></trkpt><trkpt lat="43.51231504612311" lon="10.853551081409858"><ele>175.0</ele><time>2026-04-18T08:22:08Z</time></trkpt><trkpt lat="43.51229925680585" lon="10.85369374980186"><ele>175.0</ele><time>2026-04-18T08:22:09Z</time></trkpt><trkpt lat="43.512291878867245" lon="10.853827672008869"><ele>175.0</ele><time>2026-04-18T08:22:10Z</time></trkpt><trkpt lat="43.51229647005208" lon="10.853926079554377"><ele>175.0</ele><time>2026-04-18T08:22:11Z</time></trkpt><trkpt lat="43.512274337250496" lon="10.854084159628698"><ele>175.0</ele><time>2026-04-18T08:22:13Z</time></trkpt><trkpt lat="43.51226505047972" lon="10.854215130848647"><ele>175.0</ele><time>2026-04-18T08:22:14Z</time></trkpt><trkpt lat="43.51225664987332" lon="10.854341923916579"><ele>175.2</ele><time>2026-04-18T08:22:15Z</time></trkpt><trkpt lat="43.51224830036039" lon="10.854473114674391"><ele>175.4</ele><time>2026-04-18T08:22:16Z</time></trkpt><trkpt lat="43.51224008308321" lon="10.854613144481117"><ele>175.60000000000002</ele><time>2026-04-18T08:22:17Z</time></trkpt><trkpt lat="43.5122335337305" lon="10.854768262211547"><ele>175.8</ele><time>2026-04-18T08:22:18Z</time></trkpt><trkpt lat="43.512244416463986" lon="10.854911840001105"><ele>176.0</ele><time>2026-04-18T08:22:19Z</time></trkpt><trkpt lat="43.51223210304182" lon="10.855059351081733"><ele>176.25</ele><time>2026-04-18T08:22:20Z</time></trkpt><trkpt lat="43.51220756233082" lon="10.855213269271742"><ele>176.5</ele><time>2026-04-18T08:22:21Z</time></trkpt><trkpt lat="43.51219003813969" lon="10.85538377414774"><ele>176.75</ele><time>2026-04-18T08:22:22Z</time></trkpt><trkpt lat="43.51218694007875" lon="10.855571454196864"><ele>177.0</ele><time>2026-04-18T08:22:23Z</time></trkpt><trkpt lat="43.51216711915391" lon="10.855768774387572"><ele>178.0</ele><time>2026-04-18T08:22:24Z</time></trkpt><trkpt lat="43.51215591107167" lon="10.85596572803989"><ele>179.0</ele><time>2026-04-18T08:22:25Z</time></trkpt><trkpt lat="43.5121355621392" lon="10.856159374953366"><ele>180.0</ele><time>2026-04-18T08:22:25.999Z</time></trkpt><trkpt lat="43.51211536389612" lon="10.856365042844617"><ele>181.0</ele><time>2026-04-18T08:22:26.999Z</time></trkpt><trkpt lat="43.51208787955256" lon="10.856540802435108"><ele>181.0</ele><time>2026-04-18T08:22:27.999Z</time></trkpt><trkpt lat="43.5120472714373" lon="10.856701591805141"><ele>181.0</ele><time>2026-04-18T08:22:28.999Z</time></trkpt><trkpt lat="43.512024280717206" lon="10.85686293021855"><ele>181.0</ele><time>2026-04-18T08:22:29.999Z</time></trkpt><trkpt lat="43.512031756559175" lon="10.857000552435721"><ele>181.0</ele><time>2026-04-18T08:22:30.999Z</time></trkpt><trkpt lat="43.512015842352994" lon="10.857102373782693"><ele>181.0</ele><time>2026-04-18T08:22:31.999Z</time></trkpt><trkpt lat="43.51202130948396" lon="10.85724699993651"><ele>181.0</ele><time>2026-04-18T08:22:32.999Z</time></trkpt><trkpt lat="43.51206421082189" lon="10.857402253130541"><ele>181.0</ele><time>2026-04-18T08:22:33.999Z</time></trkpt><trkpt lat="43.51209992355965" lon="10.857563985584164"><ele>181.0</ele><time>2026-04-18T08:22:34.999Z</time></trkpt><trkpt lat="43.51214233468869" lon="10.857734281224895"><ele>181.0</ele><time>2026-04-18T08:22:35.999Z</time></trkpt><trkpt lat="43.51219142607752" lon="10.85791400842887"><ele>180.75</ele><time>2026-04-18T08:22:36.999Z</time></trkpt><trkpt lat="43.51224167713713" lon="10.858091737825308"><ele>180.5</ele><time>2026-04-18T08:22:37.999Z</time></trkpt><trkpt lat="43.51226851198854" lon="10.858228381041783"><ele>180.25</ele><time>2026-04-18T08:22:38.999Z</time></trkpt><trkpt lat="43.51231149606296" lon="10.858358909320193"><ele>180.0</ele><time>2026-04-18T08:22:39.999Z</time></trkpt><trkpt lat="43.51236540383648" lon="10.858520489579183"><ele>180.0</ele><time>2026-04-18T08:22:40.999Z</time></trkpt><trkpt lat="43.51242269120528" lon="10.85867149374992"><ele>180.0</ele><time>2026-04-18T08:22:41.999Z</time></trkpt><trkpt lat="43.51248357791955" lon="10.858794033486468"><ele>180.0</ele><time>2026-04-18T08:22:42.999Z</time></trkpt><trkpt lat="43.512575568930636" lon="10.858910394462104"><ele>180.0</ele><time>2026-04-18T08:22:43.999Z</time></trkpt><trkpt lat="43.512664875460764" lon="10.859026462297454"><ele>180.0</ele><time>2026-04-18T08:22:44.999Z</time></trkpt><trkpt lat="43.512743904944294" lon="10.859187719518284"><ele>180.0</ele><time>2026-04-18T08:22:45.999Z</time></trkpt><trkpt lat="43.512823129559045" lon="10.859319523763373"><ele>180.0</ele><time>2026-04-18T08:22:46.999Z</time></trkpt><trkpt lat="43.51289376602333" lon="10.859430020575246"><ele>180.0</ele><time>2026-04-18T08:22:47.999Z</time></trkpt><trkpt lat="43.51299657521988" lon="10.859552284657832"><ele>181.25</ele><time>2026-04-18T08:22:48.999Z</time></trkpt><trkpt lat="43.51311476800368" lon="10.85963448927607"><ele>182.5</ele><time>2026-04-18T08:22:49.999Z</time></trkpt><trkpt lat="43.51320507213489" lon="10.859765854910421"><ele>183.75</ele><time>2026-04-18T08:22:50.999Z</time></trkpt><trkpt lat="43.513309267726534" lon="10.859910213610746"><ele>185.0</ele><time>2026-04-18T08:22:51.999Z</time></trkpt><trkpt lat="43.513420150753305" lon="10.86007809635242"><ele>184.6</ele><time>2026-04-18T08:22:53.999Z</time></trkpt><trkpt lat="43.51350259508351" lon="10.860202086864861"><ele>184.2</ele><time>2026-04-18T08:22:54.999Z</time></trkpt><trkpt lat="43.51358530543107" lon="10.860321828629324"><ele>183.8</ele><time>2026-04-18T08:22:55.999Z</time></trkpt><trkpt lat="43.51366424928198" lon="10.860403584965264"><ele>183.4</ele><time>2026-04-18T08:22:56.999Z</time></trkpt><trkpt lat="43.51374544716302" lon="10.860485369860285"><ele>183.0</ele><time>2026-04-18T08:22:57.999Z</time></trkpt><trkpt lat="43.513824725510275" lon="10.86054979646699"><ele>185.2</ele><time>2026-04-18T08:22:58.999Z</time></trkpt><trkpt lat="43.51390475419794" lon="10.860590711038858"><ele>187.4</ele><time>2026-04-18T08:22:59.999Z</time></trkpt><trkpt lat="43.51398505169305" lon="10.860616939587304"><ele>189.6</ele><time>2026-04-18T08:23:00.999Z</time></trkpt><trkpt lat="43.51408967079005" lon="10.86066841782358"><ele>191.79999999999998</ele><time>2026-04-18T08:23:02.999Z</time></trkpt><trkpt lat="43.51416475952977" lon="10.860696221949793"><ele>194.0</ele><time>2026-04-18T08:23:03.999Z</time></trkpt><trkpt lat="43.514217860927545" lon="10.86080436648623"><ele>194.0</ele><time>2026-04-18T08:23:04.999Z</time></trkpt><trkpt lat="43.51427034046571" lon="10.860924744373419"><ele>194.0</ele><time>2026-04-18T08:23:05.999Z</time></trkpt><trkpt lat="43.51431366356843" lon="10.861056132676232"><ele>194.0</ele><time>2026-04-18T08:23:06.999Z</time></trkpt><trkpt lat="43.514347806492374" lon="10.861202835804605"><ele>194.0</ele><time>2026-04-18T08:23:07.999Z</time></trkpt><trkpt lat="43.514385095624036" lon="10.861377314686472"><ele>195.6</ele><time>2026-04-18T08:23:08.999Z</time></trkpt><trkpt lat="43.514407037534085" lon="10.861516105367098"><ele>197.2</ele><time>2026-04-18T08:23:09.999Z</time></trkpt><trkpt lat="43.5144011396306" lon="10.861613851856436"><ele>198.79999999999998</ele><time>2026-04-18T08:23:10.999Z</time></trkpt><trkpt lat="43.51435236727969" lon="10.861795669070283"><ele>200.39999999999998</ele><time>2026-04-18T08:23:12.999Z</time></trkpt><trkpt lat="43.514260271135925" lon="10.861811733381826"><ele>202.0</ele><time>2026-04-18T08:23:13.999Z</time></trkpt><trkpt lat="43.51420035652213" lon="10.861857877370419"><ele>202.6</ele><time>2026-04-18T08:23:14.999Z</time></trkpt><trkpt lat="43.51411920121391" lon="10.861901929402539"><ele>203.2</ele><time>2026-04-18T08:23:15.999Z</time></trkpt><trkpt lat="43.514038343845264" lon="10.862001650271917"><ele>203.8</ele><time>2026-04-18T08:23:16.999Z</time></trkpt><trkpt lat="43.5139633009519" lon="10.862100576924135"><ele>204.4</ele><time>2026-04-18T08:23:17.999Z</time></trkpt><trkpt lat="43.51390763425784" lon="10.862213416337552"><ele>205.0</ele><time>2026-04-18T08:23:18.999Z</time></trkpt><trkpt lat="43.513871967409465" lon="10.862344480013725"><ele>205.0</ele><time>2026-04-18T08:23:19.999Z</time></trkpt><trkpt lat="43.51384874511577" lon="10.862489255690795"><ele>205.0</ele><time>2026-04-18T08:23:20.999Z</time></trkpt><trkpt lat="43.51384698070882" lon="10.862610106775321"><ele>205.0</ele><time>2026-04-18T08:23:21.999Z</time></trkpt><trkpt lat="43.51385925175965" lon="10.86275144731325"><ele>205.0</ele><time>2026-04-18T08:23:22.999Z</time></trkpt><trkpt lat="43.51387371964857" lon="10.86289183485945"><ele>205.0</ele><time>2026-04-18T08:23:23.999Z</time></trkpt><trkpt lat="43.51389685407802" lon="10.863024547935861"><ele>206.0</ele><time>2026-04-18T08:23:24.999Z</time></trkpt><trkpt lat="43.51394132847744" lon="10.863151049935542"><ele>207.0</ele><time>2026-04-18T08:23:25.999Z</time></trkpt><trkpt lat="43.51400394667489" lon="10.86326936648889"><ele>208.0</ele><time>2026-04-18T08:23:26.999Z</time></trkpt><trkpt lat="43.51407925723799" lon="10.86338048262584"><ele>209.0</ele><time>2026-04-18T08:23:27.999Z</time></trkpt><trkpt lat="43.51415678277723" lon="10.863503265447475"><ele>210.0</ele><time>2026-04-18T08:23:28.999Z</time></trkpt><trkpt lat="43.51420113702299" lon="10.863651023684993"><ele>211.5</ele><time>2026-04-18T08:23:29.999Z</time></trkpt><trkpt lat="43.514237432484926" lon="10.863794717005312"><ele>213.0</ele><time>2026-04-18T08:23:30.999Z</time></trkpt><trkpt lat="43.51422588061698" lon="10.863940842257994"><ele>214.5</ele><time>2026-04-18T08:23:31.999Z</time></trkpt><trkpt lat="43.51424318900229" lon="10.864092142129188"><ele>216.0</ele><time>2026-04-18T08:23:32.999Z</time></trkpt><trkpt lat="43.514262459716456" lon="10.86426681697354"><ele>218.25</ele><time>2026-04-18T08:23:33.999Z</time></trkpt><trkpt lat="43.51427633888671" lon="10.864450744811741"><ele>220.5</ele><time>2026-04-18T08:23:34.999Z</time></trkpt><trkpt lat="43.514287878784096" lon="10.864620731899318"><ele>222.75</ele><time>2026-04-18T08:23:35.999Z</time></trkpt><trkpt lat="43.514316464787484" lon="10.864803314036896"><ele>225.0</ele><time>2026-04-18T08:23:36.999Z</time></trkpt><trkpt lat="43.514317135212465" lon="10.864984870522553"><ele>227.5</ele><time>2026-04-18T08:23:37.999Z</time></trkpt><trkpt lat="43.51433976253096" lon="10.865169710188889"><ele>230.0</ele><time>2026-04-18T08:23:38.999Z</time></trkpt><trkpt lat="43.51436727151375" lon="10.865359124215116"><ele>232.5</ele><time>2026-04-18T08:23:39.999Z</time></trkpt><trkpt lat="43.514388088009675" lon="10.865543264441085"><ele>235.0</ele><time>2026-04-18T08:23:40.999Z</time></trkpt><trkpt lat="43.51440506251997" lon="10.865719051020097"><ele>235.0</ele><time>2026-04-18T08:23:41.999Z</time></trkpt><trkpt lat="43.51442180045844" lon="10.865887498715104"><ele>235.0</ele><time>2026-04-18T08:23:42.999Z</time></trkpt><trkpt lat="43.51444553267679" lon="10.866061247425675"><ele>235.0</ele><time>2026-04-18T08:23:43.999Z</time></trkpt><trkpt lat="43.514479535915974" lon="10.866241359477572"><ele>235.0</ele><time>2026-04-18T08:23:44.999Z</time></trkpt><trkpt lat="43.514520505443784" lon="10.866413633391"><ele>234.75</ele><time>2026-04-18T08:23:45.999Z</time></trkpt><trkpt lat="43.514550532634715" lon="10.86659377575543"><ele>234.5</ele><time>2026-04-18T08:23:46.999Z</time></trkpt><trkpt lat="43.514568656545386" lon="10.86675932868493"><ele>234.25</ele><time>2026-04-18T08:23:47.999Z</time></trkpt><trkpt lat="43.514572385880435" lon="10.86693722898295"><ele>234.0</ele><time>2026-04-18T08:23:48.999Z</time></trkpt><trkpt lat="43.514564495619844" lon="10.867086947837935"><ele>234.0</ele><time>2026-04-18T08:23:49.999Z</time></trkpt><trkpt lat="43.51457069892642" lon="10.867254405400697"><ele>234.0</ele><time>2026-04-18T08:23:50.999Z</time></trkpt><trkpt lat="43.51461924131507" lon="10.867446597759653"><ele>234.0</ele><time>2026-04-18T08:23:51.999Z</time></trkpt><trkpt lat="43.514694163430555" lon="10.86761970170622"><ele>234.0</ele><time>2026-04-18T08:23:52.999Z</time></trkpt><trkpt lat="43.51478141572445" lon="10.867781517780527"><ele>235.75</ele><time>2026-04-18T08:23:53.999Z</time></trkpt><trkpt lat="43.514854061341616" lon="10.867960828700824"><ele>237.5</ele><time>2026-04-18T08:23:54.999Z</time></trkpt><trkpt lat="43.514933846764876" lon="10.868115084849956"><ele>239.25</ele><time>2026-04-18T08:23:55.999Z</time></trkpt><trkpt lat="43.51501743219963" lon="10.868247822076828"><ele>241.0</ele><time>2026-04-18T08:23:56.999Z</time></trkpt><trkpt lat="43.51508625695279" lon="10.868357390086452"><ele>240.0</ele><time>2026-04-18T08:23:57.999Z</time></trkpt><trkpt lat="43.515160133851445" lon="10.868489085216858"><ele>239.0</ele><time>2026-04-18T08:23:58.999Z</time></trkpt><trkpt lat="43.51525293500344" lon="10.868653429277371"><ele>238.0</ele><time>2026-04-18T08:23:59.999Z</time></trkpt><trkpt lat="43.51536338735289" lon="10.868829633341948"><ele>237.0</ele><time>2026-04-18T08:24:00.999Z</time></trkpt><trkpt lat="43.515484194744865" lon="10.868992432273098"><ele>240.33333333333331</ele><time>2026-04-18T08:24:01.999Z</time></trkpt><trkpt lat="43.515605073741405" lon="10.86918782784299"><ele>243.66666666666666</ele><time>2026-04-18T08:24:02.999Z</time></trkpt><trkpt lat="43.51574474875591" lon="10.869377034387837"><ele>247.0</ele><time>2026-04-18T08:24:03.999Z</time></trkpt><trkpt lat="43.5158776706443" lon="10.86955070115667"><ele>249.33333333333331</ele><time>2026-04-18T08:24:04.999Z</time></trkpt><trkpt lat="43.51602833228269" lon="10.869714802692043"><ele>251.66666666666669</ele><time>2026-04-18T08:24:05.999Z</time></trkpt><trkpt lat="43.5161314544784" lon="10.869870133704511"><ele>254.0</ele><time>2026-04-18T08:24:06.999Z</time></trkpt><trkpt lat="43.516205327117355" lon="10.869985025277332"><ele>256.83333333333337</ele><time>2026-04-18T08:24:07.999Z</time></trkpt><trkpt lat="43.51625674379427" lon="10.870073655168413"><ele>259.6666666666667</ele><time>2026-04-18T08:24:08.999Z</time></trkpt><trkpt lat="43.516293623191594" lon="10.8701745699907"><ele>262.5</ele><time>2026-04-18T08:24:09.999Z</time></trkpt><trkpt lat="43.516304332610034" lon="10.870271659150974"><ele>265.3333333333333</ele><time>2026-04-18T08:24:10.999Z</time></trkpt><trkpt lat="43.51629757790549" lon="10.870386053604276"><ele>268.16666666666663</ele><time>2026-04-18T08:24:11.999Z</time></trkpt><trkpt lat="43.51628003370381" lon="10.870504344049905"><ele>271.0</ele><time>2026-04-18T08:24:12.999Z</time></trkpt><trkpt lat="43.516264227580706" lon="10.870642403741048"><ele>270.66666666666663</ele><time>2026-04-18T08:24:13.999Z</time></trkpt><trkpt lat="43.51625910505729" lon="10.870789890333565"><ele>270.3333333333333</ele><time>2026-04-18T08:24:14.999Z</time></trkpt><trkpt lat="43.516221211756076" lon="10.870919085764932"><ele>270.0</ele><time>2026-04-18T08:24:15.999Z</time></trkpt><trkpt lat="43.51613018282584" lon="10.870957205248718"><ele>269.6666666666667</ele><time>2026-04-18T08:24:17.999Z</time></trkpt><trkpt lat="43.51606394575063" lon="10.870949749526972"><ele>269.33333333333337</ele><time>2026-04-18T08:24:18.999Z</time></trkpt><trkpt lat="43.51598772023075" lon="10.870936610153775"><ele>269.0</ele><time>2026-04-18T08:24:19.999Z</time></trkpt><trkpt lat="43.51592093175383" lon="10.870938777050101"><ele>272.4</ele><time>2026-04-18T08:24:20.999Z</time></trkpt><trkpt lat="43.515853991544475" lon="10.870961574544557"><ele>275.79999999999995</ele><time>2026-04-18T08:24:21.999Z</time></trkpt><trkpt lat="43.51579189988809" lon="10.871011456174305"><ele>279.20000000000005</ele><time>2026-04-18T08:24:22.999Z</time></trkpt><trkpt lat="43.51570392735479" lon="10.871130954202572"><ele>282.6</ele><time>2026-04-18T08:24:24.999Z</time></trkpt><trkpt lat="43.51563659521023" lon="10.871271542296938"><ele>286.0</ele><time>2026-04-18T08:24:26.999Z</time></trkpt><trkpt lat="43.515598786260306" lon="10.871408341935114"><ele>286.0</ele><time>2026-04-18T08:25:21.999Z</time></trkpt><trkpt lat="43.51557308139125" lon="10.871588082687042"><ele>286.0</ele><time>2026-04-18T08:25:23.999Z</time></trkpt><trkpt lat="43.515574256557166" lon="10.871707115093427"><ele>286.0</ele><time>2026-04-18T08:25:24.999Z</time></trkpt><trkpt lat="43.51554674262476" lon="10.871892597010381"><ele>286.0</ele><time>2026-04-18T08:25:26.999Z</time></trkpt><trkpt lat="43.51553094949853" lon="10.871989700730008"><ele>286.0</ele><time>2026-04-18T08:25:27.999Z</time></trkpt><trkpt lat="43.51553978262416" lon="10.872081604730047"><ele>288.0</ele><time>2026-04-18T08:25:28.999Z</time></trkpt><trkpt lat="43.51559419088696" lon="10.872148203250116"><ele>290.0</ele><time>2026-04-18T08:25:30.999Z</time></trkpt><trkpt lat="43.515717751831225" lon="10.872119973961466"><ele>292.0</ele><time>2026-04-18T08:25:31.999Z</time></trkpt><trkpt lat="43.515820759388895" lon="10.872140607971447"><ele>294.0</ele><time>2026-04-18T08:25:32.999Z</time></trkpt><trkpt lat="43.51592352536225" lon="10.872153316549053"><ele>296.0</ele><time>2026-04-18T08:25:33.999Z</time></trkpt><trkpt lat="43.5160237417599" lon="10.87216682125758"><ele>296.0</ele><time>2026-04-18T08:25:34.999Z</time></trkpt><trkpt lat="43.516100326146116" lon="10.872228707792402"><ele>296.0</ele><time>2026-04-18T08:25:35.999Z</time></trkpt><trkpt lat="43.51614719811275" lon="10.872303086740391"><ele>296.0</ele><time>2026-04-18T08:25:36.999Z</time></trkpt><trkpt lat="43.51614033299999" lon="10.872472392493178"><ele>296.0</ele><time>2026-04-18T08:25:38.999Z</time></trkpt><trkpt lat="43.51614916173579" lon="10.872601969173216"><ele>296.0</ele><time>2026-04-18T08:25:39.999Z</time></trkpt><trkpt lat="43.516190419696635" lon="10.872730203798925"><ele>299.33333333333337</ele><time>2026-04-18T08:25:40.999Z</time></trkpt><trkpt lat="43.51625343423043" lon="10.872821458649097"><ele>302.6666666666667</ele><time>2026-04-18T08:25:41.999Z</time></trkpt><trkpt lat="43.51633660206817" lon="10.872880897164748"><ele>306.0</ele><time>2026-04-18T08:25:42.999Z</time></trkpt><trkpt lat="43.51638690459389" lon="10.872958139690441"><ele>309.3333333333333</ele><time>2026-04-18T08:25:43.999Z</time></trkpt><trkpt lat="43.5163868940244" lon="10.873060272250209"><ele>312.66666666666663</ele><time>2026-04-18T08:25:45.999Z</time></trkpt><trkpt lat="43.516369942195006" lon="10.873148550946663"><ele>316.0</ele><time>2026-04-18T08:25:46.999Z</time></trkpt><trkpt lat="43.51633350049715" lon="10.873283901476412"><ele>316.0</ele><time>2026-04-18T08:25:47.999Z</time></trkpt><trkpt lat="43.51631584611307" lon="10.873433300491502"><ele>316.0</ele><time>2026-04-18T08:25:48.999Z</time></trkpt><trkpt lat="43.516314770029474" lon="10.873593052659842"><ele>316.0</ele><time>2026-04-18T08:25:49.999Z</time></trkpt><trkpt lat="43.51630370386429" lon="10.873734097152381"><ele>316.0</ele><time>2026-04-18T08:25:50.999Z</time></trkpt><trkpt lat="43.516284826134" lon="10.873874618936991"><ele>316.0</ele><time>2026-04-18T08:25:51.999Z</time></trkpt><trkpt lat="43.51626058952142" lon="10.874015932292792"><ele>315.8</ele><time>2026-04-18T08:25:52.999Z</time></trkpt><trkpt lat="43.51622354427754" lon="10.874148895917035"><ele>315.6</ele><time>2026-04-18T08:25:53.999Z</time></trkpt><trkpt lat="43.51617562828343" lon="10.874251610801192"><ele>315.4</ele><time>2026-04-18T08:25:54.999Z</time></trkpt><trkpt lat="43.516110543465395" lon="10.874358117674316"><ele>315.2</ele><time>2026-04-18T08:25:55.999Z</time></trkpt><trkpt lat="43.516046585249285" lon="10.87445407861877"><ele>315.0</ele><time>2026-04-18T08:25:57Z</time></trkpt><trkpt lat="43.51596157500288" lon="10.874546419652683"><ele>315.0</ele><time>2026-04-18T08:25:59Z</time></trkpt><trkpt lat="43.515822183760264" lon="10.874587911778775"><ele>315.0</ele><time>2026-04-18T08:26:01Z</time></trkpt><trkpt lat="43.51574307259288" lon="10.874601036797225"><ele>315.0</ele><time>2026-04-18T08:26:02Z</time></trkpt><trkpt lat="43.51570531267104" lon="10.87467116788994"><ele>315.0</ele><time>2026-04-18T08:26:03Z</time></trkpt><trkpt lat="43.51562896067355" lon="10.874720103405913"><ele>315.0</ele><time>2026-04-18T08:26:04Z</time></trkpt><trkpt lat="43.515566453955266" lon="10.874776541082113"><ele>315.0</ele><time>2026-04-18T08:26:05Z</time></trkpt><trkpt lat="43.51548511100407" lon="10.87483919131064"><ele>315.0</ele><time>2026-04-18T08:26:06Z</time></trkpt><trkpt lat="43.51537777525735" lon="10.874926259911907"><ele>315.0</ele><time>2026-04-18T08:26:07Z</time></trkpt><trkpt lat="43.51530415573271" lon="10.875004138245895"><ele>315.0</ele><time>2026-04-18T08:26:08Z</time></trkpt><trkpt lat="43.51525969380606" lon="10.87509538325522"><ele>315.0</ele><time>2026-04-18T08:26:09Z</time></trkpt><trkpt lat="43.51521055161975" lon="10.87515515894474"><ele>315.0</ele><time>2026-04-18T08:26:10Z</time></trkpt><trkpt lat="43.515174799416485" lon="10.875227780325861"><ele>315.0</ele><time>2026-04-18T08:26:11Z</time></trkpt><trkpt lat="43.51514126167467" lon="10.875337610326776"><ele>315.0</ele><time>2026-04-18T08:26:12Z</time></trkpt><trkpt lat="43.5151437747452" lon="10.875458686170596"><ele>315.0</ele><time>2026-04-18T08:26:13Z</time></trkpt><trkpt lat="43.51514069795797" lon="10.875574067588905"><ele>315.0</ele><time>2026-04-18T08:26:14Z</time></trkpt><trkpt lat="43.51511632301577" lon="10.875678787456676"><ele>315.0</ele><time>2026-04-18T08:26:15Z</time></trkpt><trkpt lat="43.51509901602797" lon="10.875776661421284"><ele>315.0</ele><time>2026-04-18T08:26:16Z</time></trkpt><trkpt lat="43.51509398806347" lon="10.875923271529434"><ele>315.0</ele><time>2026-04-18T08:26:18Z</time></trkpt><trkpt lat="43.51524850808329" lon="10.875994210344064"><ele>316.6666666666667</ele><time>2026-04-18T08:26:22Z</time></trkpt><trkpt lat="43.51532404072465" lon="10.876027036865768"><ele>318.3333333333333</ele><time>2026-04-18T08:26:23Z</time></trkpt><trkpt lat="43.51540300504238" lon="10.876037490626933"><ele>320.0</ele><time>2026-04-18T08:26:24Z</time></trkpt><trkpt lat="43.5154734953405" lon="10.87606562793018"><ele>321.66666666666663</ele><time>2026-04-18T08:26:25Z</time></trkpt><trkpt lat="43.51554004463947" lon="10.876115244674661"><ele>323.3333333333333</ele><time>2026-04-18T08:26:26Z</time></trkpt><trkpt lat="43.515607539347336" lon="10.876175866678876"><ele>325.0</ele><time>2026-04-18T08:26:27Z</time></trkpt><trkpt lat="43.515666706684414" lon="10.876247129765929"><ele>326.4</ele><time>2026-04-18T08:26:28Z</time></trkpt><trkpt lat="43.51573259984559" lon="10.876311363386053"><ele>327.8</ele><time>2026-04-18T08:26:29Z</time></trkpt><trkpt lat="43.51580867871415" lon="10.876367201600301"><ele>329.20000000000005</ele><time>2026-04-18T08:26:30Z</time></trkpt><trkpt lat="43.515905278751255" lon="10.876370327119254"><ele>330.6</ele><time>2026-04-18T08:26:31Z</time></trkpt><trkpt lat="43.515994843500536" lon="10.876327727701176"><ele>332.0</ele><time>2026-04-18T08:26:32Z</time></trkpt><trkpt lat="43.51608836093661" lon="10.876288229146324"><ele>332.0</ele><time>2026-04-18T08:26:33Z</time></trkpt><trkpt lat="43.5161615071649" lon="10.876246645343837"><ele>332.0</ele><time>2026-04-18T08:26:34Z</time></trkpt><trkpt lat="43.516243167191114" lon="10.876200303108522"><ele>332.0</ele><time>2026-04-18T08:26:35Z</time></trkpt><trkpt lat="43.51633139445408" lon="10.876144653344767"><ele>332.0</ele><time>2026-04-18T08:26:36Z</time></trkpt><trkpt lat="43.51641144340335" lon="10.876096143674568"><ele>332.0</ele><time>2026-04-18T08:26:37Z</time></trkpt><trkpt lat="43.51649809108155" lon="10.876043542966512"><ele>332.0</ele><time>2026-04-18T08:26:38Z</time></trkpt><trkpt lat="43.51659160334435" lon="10.875985940275708"><ele>332.6</ele><time>2026-04-18T08:26:39Z</time></trkpt><trkpt lat="43.51669132800027" lon="10.87592462476879"><ele>333.20000000000005</ele><time>2026-04-18T08:26:40Z</time></trkpt><trkpt lat="43.51678850350472" lon="10.875863656105112"><ele>333.8</ele><time>2026-04-18T08:26:41Z</time></trkpt><trkpt lat="43.51687598744365" lon="10.875792115669219"><ele>334.4</ele><time>2026-04-18T08:26:42Z</time></trkpt><trkpt lat="43.516940879674124" lon="10.875692205085036"><ele>335.0</ele><time>2026-04-18T08:26:43Z</time></trkpt><trkpt lat="43.516982168480396" lon="10.87555913134547"><ele>335.0</ele><time>2026-04-18T08:26:44Z</time></trkpt><trkpt lat="43.51700714615704" lon="10.875411276436246"><ele>335.0</ele><time>2026-04-18T08:26:45Z</time></trkpt><trkpt lat="43.51703503402021" lon="10.875266909598064"><ele>335.0</ele><time>2026-04-18T08:26:46Z</time></trkpt><trkpt lat="43.517075093387355" lon="10.875140325471559"><ele>335.0</ele><time>2026-04-18T08:26:47Z</time></trkpt><trkpt lat="43.51714626634438" lon="10.875027709052393"><ele>335.0</ele><time>2026-04-18T08:26:48Z</time></trkpt><trkpt lat="43.517246556988546" lon="10.874942187637192"><ele>337.25</ele><time>2026-04-18T08:26:49Z</time></trkpt><trkpt lat="43.51735822506795" lon="10.874876667246546"><ele>339.5</ele><time>2026-04-18T08:26:50Z</time></trkpt><trkpt lat="43.51747213582473" lon="10.874839500907905"><ele>341.75</ele><time>2026-04-18T08:26:51Z</time></trkpt><trkpt lat="43.51758880157534" lon="10.874815613363022"><ele>344.0</ele><time>2026-04-18T08:26:52Z</time></trkpt><trkpt lat="43.51769988994044" lon="10.874795761879207"><ele>344.0</ele><time>2026-04-18T08:26:53Z</time></trkpt><trkpt lat="43.51781075501969" lon="10.874784725155584"><ele>344.0</ele><time>2026-04-18T08:26:54Z</time></trkpt><trkpt lat="43.51791809826122" lon="10.874781678736658"><ele>344.0</ele><time>2026-04-18T08:26:55Z</time></trkpt><trkpt lat="43.51802980724271" lon="10.87478858501796"><ele>344.0</ele><time>2026-04-18T08:26:56Z</time></trkpt><trkpt lat="43.51814172686509" lon="10.874795337714232"><ele>344.0</ele><time>2026-04-18T08:26:57Z</time></trkpt><trkpt lat="43.51825493537471" lon="10.874791659780245"><ele>344.2</ele><time>2026-04-18T08:26:58Z</time></trkpt><trkpt lat="43.518369208270734" lon="10.874834890604248"><ele>344.4</ele><time>2026-04-18T08:26:59Z</time></trkpt><trkpt lat="43.518474314348566" lon="10.874860335552826"><ele>344.6</ele><time>2026-04-18T08:27:00Z</time></trkpt><trkpt lat="43.51856752368202" lon="10.874875823753841"><ele>344.8</ele><time>2026-04-18T08:27:01Z</time></trkpt><trkpt lat="43.518650172095505" lon="10.87488671158627"><ele>345.0</ele><time>2026-04-18T08:27:02Z</time></trkpt><trkpt lat="43.518752037135556" lon="10.874898154492422"><ele>345.0</ele><time>2026-04-18T08:27:03Z</time></trkpt><trkpt lat="43.51886211535616" lon="10.874910520016225"><ele>345.0</ele><time>2026-04-18T08:27:04Z</time></trkpt><trkpt lat="43.518953776376755" lon="10.874924623245027"><ele>345.0</ele><time>2026-04-18T08:27:05Z</time></trkpt><trkpt lat="43.5190397677005" lon="10.874925583864888"><ele>345.0</ele><time>2026-04-18T08:27:06Z</time></trkpt><trkpt lat="43.519104749431726" lon="10.874998776833898"><ele>345.0</ele><time>2026-04-18T08:27:07Z</time></trkpt><trkpt lat="43.51917167163396" lon="10.875079443755595"><ele>346.6</ele><time>2026-04-18T08:27:08Z</time></trkpt><trkpt lat="43.519216395842236" lon="10.875187665281619"><ele>348.2</ele><time>2026-04-18T08:27:09Z</time></trkpt><trkpt lat="43.51924251261998" lon="10.875314372916925"><ele>349.79999999999995</ele><time>2026-04-18T08:27:10Z</time></trkpt><trkpt lat="43.51927428219545" lon="10.875453440886826"><ele>351.4</ele><time>2026-04-18T08:27:11Z</time></trkpt><trkpt lat="43.51930406513905" lon="10.875583472362086"><ele>353.0</ele><time>2026-04-18T08:27:12Z</time></trkpt><trkpt lat="43.51933655736621" lon="10.875698464456335"><ele>353.0</ele><time>2026-04-18T08:27:13Z</time></trkpt><trkpt lat="43.51937347474917" lon="10.875806549181691"><ele>353.0</ele><time>2026-04-18T08:27:14Z</time></trkpt><trkpt lat="43.51943319742891" lon="10.875919491839563"><ele>353.0</ele><time>2026-04-18T08:27:15Z</time></trkpt><trkpt lat="43.51951558470076" lon="10.87602029279459"><ele>353.0</ele><time>2026-04-18T08:27:16Z</time></trkpt><trkpt lat="43.519602795279276" lon="10.876090352034364"><ele>353.0</ele><time>2026-04-18T08:27:17Z</time></trkpt><trkpt lat="43.51967809785755" lon="10.876135621029457"><ele>349.0</ele><time>2026-04-18T08:27:18Z</time></trkpt><trkpt lat="43.51974526862669" lon="10.876190052028845"><ele>345.0</ele><time>2026-04-18T08:27:19Z</time></trkpt><trkpt lat="43.519819681327135" lon="10.876252457337223"><ele>341.0</ele><time>2026-04-18T08:27:20Z</time></trkpt><trkpt lat="43.51984503683483" lon="10.8763910197185"><ele>337.0</ele><time>2026-04-18T08:27:21Z</time></trkpt><trkpt lat="43.51985864006479" lon="10.87652021098443"><ele>333.0</ele><time>2026-04-18T08:27:22Z</time></trkpt><trkpt lat="43.51987160163391" lon="10.876657729200847"><ele>335.25</ele><time>2026-04-18T08:27:23Z</time></trkpt><trkpt lat="43.51990124120226" lon="10.876806680138023"><ele>337.5</ele><time>2026-04-18T08:27:24Z</time></trkpt><trkpt lat="43.51991356806173" lon="10.876970962427901"><ele>339.75</ele><time>2026-04-18T08:27:25Z</time></trkpt><trkpt lat="43.51993341650412" lon="10.877147157722161"><ele>342.0</ele><time>2026-04-18T08:27:26Z</time></trkpt><trkpt lat="43.51995858843549" lon="10.877321298404173"><ele>342.0</ele><time>2026-04-18T08:27:27Z</time></trkpt><trkpt lat="43.51997595110751" lon="10.877471508706243"><ele>342.0</ele><time>2026-04-18T08:27:28Z</time></trkpt><trkpt lat="43.520000738808896" lon="10.877609597052475"><ele>342.0</ele><time>2026-04-18T08:27:29Z</time></trkpt><trkpt lat="43.520034144528765" lon="10.87773902708358"><ele>342.0</ele><time>2026-04-18T08:27:30Z</time></trkpt><trkpt lat="43.52007258801093" lon="10.877875447818736"><ele>342.0</ele><time>2026-04-18T08:27:31Z</time></trkpt><trkpt lat="43.52010851872601" lon="10.87801460870871"><ele>343.0</ele><time>2026-04-18T08:27:32Z</time></trkpt><trkpt lat="43.52014947409674" lon="10.878138831250777"><ele>344.0</ele><time>2026-04-18T08:27:33Z</time></trkpt><trkpt lat="43.520186152521084" lon="10.878266980004408"><ele>345.0</ele><time>2026-04-18T08:27:34Z</time></trkpt><trkpt lat="43.520218291704474" lon="10.878391043596977"><ele>346.0</ele><time>2026-04-18T08:27:35Z</time></trkpt><trkpt lat="43.52024205547781" lon="10.878516084159672"><ele>347.0</ele><time>2026-04-18T08:27:36Z</time></trkpt><trkpt lat="43.520255339505944" lon="10.8786347353227"><ele>344.8</ele><time>2026-04-18T08:27:37Z</time></trkpt><trkpt lat="43.52024735006089" lon="10.878755075363314"><ele>342.6</ele><time>2026-04-18T08:27:38Z</time></trkpt><trkpt lat="43.520200785183754" lon="10.878862564047123"><ele>340.40000000000003</ele><time>2026-04-18T08:27:39Z</time></trkpt><trkpt lat="43.52015541929216" lon="10.87895186861532"><ele>338.20000000000005</ele><time>2026-04-18T08:27:40Z</time></trkpt><trkpt lat="43.520103339238084" lon="10.879060453311011"><ele>336.0</ele><time>2026-04-18T08:27:41Z</time></trkpt><trkpt lat="43.520019203921905" lon="10.879149155697784"><ele>336.0</ele><time>2026-04-18T08:27:42Z</time></trkpt><trkpt lat="43.51993251369352" lon="10.87920844502732"><ele>336.0</ele><time>2026-04-18T08:27:43Z</time></trkpt><trkpt lat="43.51984869268113" lon="10.879231281836411"><ele>336.0</ele><time>2026-04-18T08:27:44Z</time></trkpt><trkpt lat="43.5197618171652" lon="10.879217654047189"><ele>336.0</ele><time>2026-04-18T08:27:45Z</time></trkpt><trkpt lat="43.51967511838569" lon="10.879181266123473"><ele>336.0</ele><time>2026-04-18T08:27:46Z</time></trkpt><trkpt lat="43.51957944013544" lon="10.879142691769259"><ele>337.1666666666667</ele><time>2026-04-18T08:27:47Z</time></trkpt><trkpt lat="43.51947617158597" lon="10.879114460998224"><ele>338.3333333333333</ele><time>2026-04-18T08:27:48Z</time></trkpt><trkpt lat="43.519374201921316" lon="10.879093302308075"><ele>339.5</ele><time>2026-04-18T08:27:49Z</time></trkpt><trkpt lat="43.51929290361584" lon="10.8790939799294"><ele>340.66666666666663</ele><time>2026-04-18T08:27:50Z</time></trkpt><trkpt lat="43.519212540425805" lon="10.879097457092092"><ele>341.8333333333333</ele><time>2026-04-18T08:27:51Z</time></trkpt><trkpt lat="43.51913574975403" lon="10.879109695235515"><ele>343.0</ele><time>2026-04-18T08:27:52Z</time></trkpt><trkpt lat="43.51903602823773" lon="10.87916806009717"><ele>343.0</ele><time>2026-04-18T08:27:53Z</time></trkpt><trkpt lat="43.51898524721171" lon="10.87922767032925"><ele>343.0</ele><time>2026-04-18T08:27:54Z</time></trkpt><trkpt lat="43.51893671695804" lon="10.87932547340692"><ele>343.0</ele><time>2026-04-18T08:27:55Z</time></trkpt><trkpt lat="43.51893737214643" lon="10.879450894469574"><ele>343.0</ele><time>2026-04-18T08:27:56Z</time></trkpt><trkpt lat="43.51898132450349" lon="10.87959295034825"><ele>343.0</ele><time>2026-04-18T08:27:57Z</time></trkpt><trkpt lat="43.519053887971815" lon="10.879680941585717"><ele>342.59999999999997</ele><time>2026-04-18T08:27:58Z</time></trkpt><trkpt lat="43.51913933475994" lon="10.879710202471761"><ele>342.2</ele><time>2026-04-18T08:27:59Z</time></trkpt><trkpt lat="43.51923008998608" lon="10.879724359741417"><ele>341.8</ele><time>2026-04-18T08:28:00Z</time></trkpt><trkpt lat="43.51932274164019" lon="10.879749836706834"><ele>341.4</ele><time>2026-04-18T08:28:01Z</time></trkpt><trkpt lat="43.51941925978752" lon="10.879789072555399"><ele>341.0</ele><time>2026-04-18T08:28:02Z</time></trkpt><trkpt lat="43.51951143825131" lon="10.87987276288046"><ele>339.0</ele><time>2026-04-18T08:28:03Z</time></trkpt><trkpt lat="43.51957987243289" lon="10.879971265068882"><ele>337.0</ele><time>2026-04-18T08:28:04Z</time></trkpt><trkpt lat="43.51961699070785" lon="10.88005317065895"><ele>335.0</ele><time>2026-04-18T08:28:05Z</time></trkpt><trkpt lat="43.51962674964168" lon="10.880243611526346"><ele>333.0</ele><time>2026-04-18T08:28:07Z</time></trkpt><trkpt lat="43.51959201747094" lon="10.880359421815093"><ele>331.0</ele><time>2026-04-18T08:28:08Z</time></trkpt><trkpt lat="43.51956798001443" lon="10.880487436702232"><ele>333.25</ele><time>2026-04-18T08:28:09Z</time></trkpt><trkpt lat="43.51954968615401" lon="10.88064558086531"><ele>335.5</ele><time>2026-04-18T08:28:10Z</time></trkpt><trkpt lat="43.51955118557878" lon="10.880824640755296"><ele>337.75</ele><time>2026-04-18T08:28:11Z</time></trkpt><trkpt lat="43.51957878064462" lon="10.881009365595801"><ele>340.0</ele><time>2026-04-18T08:28:12Z</time></trkpt><trkpt lat="43.519588895562926" lon="10.881238794478143"><ele>347.0</ele><time>2026-04-18T08:28:13Z</time></trkpt><trkpt lat="43.519546282968584" lon="10.881459339676264"><ele>354.0</ele><time>2026-04-18T08:28:14Z</time></trkpt><trkpt lat="43.519501950709035" lon="10.881669722368668"><ele>361.0</ele><time>2026-04-18T08:28:15Z</time></trkpt><trkpt lat="43.519493778464444" lon="10.881886103263781"><ele>362.3333333333333</ele><time>2026-04-18T08:28:16Z</time></trkpt><trkpt lat="43.51950561718609" lon="10.882096915632763"><ele>363.6666666666667</ele><time>2026-04-18T08:28:17Z</time></trkpt><trkpt lat="43.51956322726256" lon="10.882284350087078"><ele>365.0</ele><time>2026-04-18T08:28:18Z</time></trkpt><trkpt lat="43.51963775258074" lon="10.882479557389678"><ele>363.6666666666667</ele><time>2026-04-18T08:28:19Z</time></trkpt><trkpt lat="43.519727396617505" lon="10.882671979352205"><ele>362.3333333333333</ele><time>2026-04-18T08:28:20Z</time></trkpt><trkpt lat="43.519850026825814" lon="10.882804441227"><ele>361.0</ele><time>2026-04-18T08:28:21Z</time></trkpt><trkpt lat="43.519983736975576" lon="10.882910747227056"><ele>361.0</ele><time>2026-04-18T08:28:22Z</time></trkpt><trkpt lat="43.52011647441236" lon="10.883023840730282"><ele>361.0</ele><time>2026-04-18T08:28:23Z</time></trkpt><trkpt lat="43.52026676111127" lon="10.883127171666894"><ele>361.0</ele><time>2026-04-18T08:28:24Z</time></trkpt><trkpt lat="43.52040271965284" lon="10.883184352817695"><ele>359.75</ele><time>2026-04-18T08:28:25Z</time></trkpt><trkpt lat="43.52053428689802" lon="10.883154785356123"><ele>358.5</ele><time>2026-04-18T08:28:26Z</time></trkpt><trkpt lat="43.52065460030623" lon="10.88309005944819"><ele>357.25</ele><time>2026-04-18T08:28:27Z</time></trkpt><trkpt lat="43.52078315874807" lon="10.883045920824781"><ele>356.0</ele><time>2026-04-18T08:28:28Z</time></trkpt><trkpt lat="43.520888776480454" lon="10.883081295409346"><ele>356.0</ele><time>2026-04-18T08:28:29Z</time></trkpt><trkpt lat="43.52099906138845" lon="10.883158251230533"><ele>356.0</ele><time>2026-04-18T08:28:30Z</time></trkpt><trkpt lat="43.52112604716411" lon="10.88324675032426"><ele>356.0</ele><time>2026-04-18T08:28:31Z</time></trkpt><trkpt lat="43.52122409724" lon="10.883355862536451"><ele>356.0</ele><time>2026-04-18T08:28:32Z</time></trkpt><trkpt lat="43.52128704682434" lon="10.883487128121594"><ele>357.0</ele><time>2026-04-18T08:28:33Z</time></trkpt><trkpt lat="43.52132862547535" lon="10.883635431005622"><ele>358.0</ele><time>2026-04-18T08:28:34Z</time></trkpt><trkpt lat="43.52136293405576" lon="10.883806108090559"><ele>359.0</ele><time>2026-04-18T08:28:35Z</time></trkpt><trkpt lat="43.521302526958216" lon="10.883961518618385"><ele>360.0</ele><time>2026-04-18T08:28:36Z</time></trkpt><trkpt lat="43.52124968350635" lon="10.884040430429598"><ele>361.0</ele><time>2026-04-18T08:28:37Z</time></trkpt><trkpt lat="43.5211801024701" lon="10.884163960716204"><ele>362.5</ele><time>2026-04-18T08:28:38Z</time></trkpt><trkpt lat="43.521113145455416" lon="10.884308979618446"><ele>364.0</ele><time>2026-04-18T08:28:39Z</time></trkpt><trkpt lat="43.52107775472684" lon="10.884519319508135"><ele>365.5</ele><time>2026-04-18T08:28:40Z</time></trkpt><trkpt lat="43.52110708249079" lon="10.884712284175789"><ele>367.0</ele><time>2026-04-18T08:28:41Z</time></trkpt><trkpt lat="43.52116502473085" lon="10.884900623235422"><ele>367.0</ele><time>2026-04-18T08:28:42Z</time></trkpt><trkpt lat="43.52122198826887" lon="10.88508573944547"><ele>367.0</ele><time>2026-04-18T08:28:43Z</time></trkpt><trkpt lat="43.521299110469926" lon="10.88530194022478"><ele>367.0</ele><time>2026-04-18T08:28:44Z</time></trkpt><trkpt lat="43.52139892998263" lon="10.885506443464468"><ele>368.0</ele><time>2026-04-18T08:28:45Z</time></trkpt><trkpt lat="43.521508698828285" lon="10.885699218058047"><ele>369.0</ele><time>2026-04-18T08:28:46Z</time></trkpt><trkpt lat="43.52162803994701" lon="10.885890300041032"><ele>370.0</ele><time>2026-04-18T08:28:47Z</time></trkpt><trkpt lat="43.521733176816696" lon="10.886097294670984"><ele>370.0</ele><time>2026-04-18T08:28:48Z</time></trkpt><trkpt lat="43.52182501211711" lon="10.886318313911701"><ele>370.0</ele><time>2026-04-18T08:28:49Z</time></trkpt><trkpt lat="43.52191006917029" lon="10.886547137059152"><ele>370.0</ele><time>2026-04-18T08:28:50Z</time></trkpt><trkpt lat="43.52199453384873" lon="10.8867778498425"><ele>368.0</ele><time>2026-04-18T08:28:51Z</time></trkpt><trkpt lat="43.52207848267237" lon="10.887007709738185"><ele>366.0</ele><time>2026-04-18T08:28:52Z</time></trkpt><trkpt lat="43.52216229292107" lon="10.887231051720374"><ele>364.0</ele><time>2026-04-18T08:28:53Z</time></trkpt><trkpt lat="43.522250476856506" lon="10.887463800458594"><ele>366.0</ele><time>2026-04-18T08:28:54Z</time></trkpt><trkpt lat="43.52232739463562" lon="10.887673291040587"><ele>368.0</ele><time>2026-04-18T08:28:55Z</time></trkpt><trkpt lat="43.52239001843619" lon="10.887846753551624"><ele>370.0</ele><time>2026-04-18T08:28:56Z</time></trkpt><trkpt lat="43.52241004975313" lon="10.888013529086091"><ele>372.0</ele><time>2026-04-18T08:28:57Z</time></trkpt><trkpt lat="43.52240823248529" lon="10.888231256127767"><ele>374.6666666666667</ele><time>2026-04-18T08:28:58Z</time></trkpt><trkpt lat="43.52238817822177" lon="10.888441718952674"><ele>377.33333333333337</ele><time>2026-04-18T08:28:59Z</time></trkpt><trkpt lat="43.52235741165788" lon="10.888683732158015"><ele>380.0</ele><time>2026-04-18T08:29:00Z</time></trkpt><trkpt lat="43.52233780188548" lon="10.888933994513426"><ele>380.0</ele><time>2026-04-18T08:29:01Z</time></trkpt><trkpt lat="43.52230912040781" lon="10.889184990191547"><ele>380.0</ele><time>2026-04-18T08:29:02Z</time></trkpt><trkpt lat="43.522283112757094" lon="10.889431251235692"><ele>380.0</ele><time>2026-04-18T08:29:03Z</time></trkpt><trkpt lat="43.52225975590848" lon="10.889672402010266"><ele>382.0</ele><time>2026-04-18T08:29:04Z</time></trkpt><trkpt lat="43.52223504910967" lon="10.889888205331943"><ele>384.0</ele><time>2026-04-18T08:29:05Z</time></trkpt><trkpt lat="43.522220939182056" lon="10.890082504189"><ele>386.0</ele><time>2026-04-18T08:29:06Z</time></trkpt><trkpt lat="43.52221718861159" lon="10.890279751903973"><ele>388.0</ele><time>2026-04-18T08:29:07Z</time></trkpt><trkpt lat="43.52223954448686" lon="10.890491010297898"><ele>389.33333333333337</ele><time>2026-04-18T08:29:08Z</time></trkpt><trkpt lat="43.522290962104" lon="10.890712037291825"><ele>390.66666666666663</ele><time>2026-04-18T08:29:09Z</time></trkpt><trkpt lat="43.522362015057446" lon="10.890933858657819"><ele>392.0</ele><time>2026-04-18T08:29:10Z</time></trkpt><trkpt lat="43.52243598544663" lon="10.891159419776523"><ele>393.3333333333333</ele><time>2026-04-18T08:29:11Z</time></trkpt><trkpt lat="43.52250672093706" lon="10.89140744816569"><ele>394.66666666666663</ele><time>2026-04-18T08:29:12Z</time></trkpt><trkpt lat="43.52258511362811" lon="10.891641049133884"><ele>396.0</ele><time>2026-04-18T08:29:13Z</time></trkpt><trkpt lat="43.52265014061937" lon="10.891841130496406"><ele>398.0</ele><time>2026-04-18T08:29:14Z</time></trkpt><trkpt lat="43.522723959821704" lon="10.892055667550487"><ele>400.0</ele><time>2026-04-18T08:29:15Z</time></trkpt><trkpt lat="43.522796318954406" lon="10.892275744291087"><ele>402.0</ele><time>2026-04-18T08:29:16Z</time></trkpt><trkpt lat="43.52286763596095" lon="10.892482303625533"><ele>401.33333333333337</ele><time>2026-04-18T08:29:17Z</time></trkpt><trkpt lat="43.5229336275775" lon="10.892686693358794"><ele>400.6666666666667</ele><time>2026-04-18T08:29:18Z</time></trkpt><trkpt lat="43.52300304637627" lon="10.892903235192636"><ele>400.0</ele><time>2026-04-18T08:29:19Z</time></trkpt><trkpt lat="43.523066921074985" lon="10.893114476774727"><ele>400.0</ele><time>2026-04-18T08:29:20Z</time></trkpt><trkpt lat="43.523124528653256" lon="10.893308327520785"><ele>400.0</ele><time>2026-04-18T08:29:21Z</time></trkpt><trkpt lat="43.52317953979626" lon="10.893504481867119"><ele>400.0</ele><time>2026-04-18T08:29:22Z</time></trkpt><trkpt lat="43.523231754748466" lon="10.893690302306553"><ele>400.0</ele><time>2026-04-18T08:29:23Z</time></trkpt><trkpt lat="43.52328673123891" lon="10.893852346504278"><ele>400.5</ele><time>2026-04-18T08:29:24Z</time></trkpt><trkpt lat="43.523341661736175" lon="10.894031475500004"><ele>401.0</ele><time>2026-04-18T08:29:25Z</time></trkpt><trkpt lat="43.523396263785486" lon="10.894206962052616"><ele>401.5</ele><time>2026-04-18T08:29:26Z</time></trkpt><trkpt lat="43.52345895744109" lon="10.894378224572048"><ele>402.0</ele><time>2026-04-18T08:29:27Z</time></trkpt><trkpt lat="43.52353002681045" lon="10.894544059294304"><ele>402.0</ele><time>2026-04-18T08:29:28Z</time></trkpt><trkpt lat="43.523601556451794" lon="10.894700643116728"><ele>402.0</ele><time>2026-04-18T08:29:29Z</time></trkpt><trkpt lat="43.523668111148226" lon="10.894857153335833"><ele>402.0</ele><time>2026-04-18T08:29:30Z</time></trkpt><trkpt lat="43.52372958876583" lon="10.89501078013016"><ele>402.0</ele><time>2026-04-18T08:29:31Z</time></trkpt><trkpt lat="43.523782789522905" lon="10.89516872709163"><ele>403.25</ele><time>2026-04-18T08:29:32Z</time></trkpt><trkpt lat="43.52382192362288" lon="10.895339626047829"><ele>404.5</ele><time>2026-04-18T08:29:33Z</time></trkpt><trkpt lat="43.523866605946225" lon="10.895515082381067"><ele>405.75</ele><time>2026-04-18T08:29:34Z</time></trkpt><trkpt lat="43.5239143011864" lon="10.89570253173998"><ele>407.0</ele><time>2026-04-18T08:29:35Z</time></trkpt><trkpt lat="43.52396272620954" lon="10.895896938987107"><ele>408.25</ele><time>2026-04-18T08:29:36Z</time></trkpt><trkpt lat="43.524009947795534" lon="10.896092503291147"><ele>409.5</ele><time>2026-04-18T08:29:37Z</time></trkpt><trkpt lat="43.52405446801954" lon="10.896287759307882"><ele>410.75</ele><time>2026-04-18T08:29:38Z</time></trkpt><trkpt lat="43.52409848498173" lon="10.896486732679103"><ele>412.0</ele><time>2026-04-18T08:29:39Z</time></trkpt><trkpt lat="43.524146405888814" lon="10.896691678092301"><ele>412.25</ele><time>2026-04-18T08:29:40Z</time></trkpt><trkpt lat="43.524193591511775" lon="10.896892711959168"><ele>412.5</ele><time>2026-04-18T08:29:41Z</time></trkpt><trkpt lat="43.524231577648195" lon="10.897088048327763"><ele>412.75</ele><time>2026-04-18T08:29:42Z</time></trkpt><trkpt lat="43.52426759315052" lon="10.89728675562743"><ele>413.0</ele><time>2026-04-18T08:29:43Z</time></trkpt><trkpt lat="43.52431610685978" lon="10.89748434626241"><ele>414.0</ele><time>2026-04-18T08:29:44Z</time></trkpt><trkpt lat="43.52436624414939" lon="10.897648446151077"><ele>415.0</ele><time>2026-04-18T08:29:45Z</time></trkpt><trkpt lat="43.5243898185542" lon="10.897793341561094"><ele>416.0</ele><time>2026-04-18T08:29:46Z</time></trkpt><trkpt lat="43.524410490231126" lon="10.897919715198435"><ele>417.0</ele><time>2026-04-18T08:29:47Z</time></trkpt><trkpt lat="43.52441545723186" lon="10.898017096218748"><ele>418.0</ele><time>2026-04-18T08:29:48Z</time></trkpt><trkpt lat="43.524395987916854" lon="10.898129765478778"><ele>418.0</ele><time>2026-04-18T08:29:50Z</time></trkpt><trkpt lat="43.52429498453215" lon="10.898276388240761"><ele>418.0</ele><time>2026-04-18T08:29:52Z</time></trkpt><trkpt lat="43.52420778178033" lon="10.898384688738263"><ele>418.0</ele><time>2026-04-18T08:29:53Z</time></trkpt><trkpt lat="43.524098472285786" lon="10.898506948271715"><ele>418.0</ele><time>2026-04-18T08:29:54Z</time></trkpt><trkpt lat="43.52398662722066" lon="10.898640759529929"><ele>421.33333333333337</ele><time>2026-04-18T08:29:55Z</time></trkpt><trkpt lat="43.52388186739384" lon="10.898757328607207"><ele>424.66666666666663</ele><time>2026-04-18T08:29:56Z</time></trkpt><trkpt lat="43.523762241608644" lon="10.898892720636578"><ele>428.0</ele><time>2026-04-18T08:29:57Z</time></trkpt><trkpt lat="43.52362816623412" lon="10.899042765622337"><ele>427.3333333333333</ele><time>2026-04-18T08:29:58Z</time></trkpt><trkpt lat="43.52348447522034" lon="10.899192263094918"><ele>426.66666666666663</ele><time>2026-04-18T08:29:59Z</time></trkpt><trkpt lat="43.52332638401892" lon="10.89933633707244"><ele>426.0</ele><time>2026-04-18T08:30:00Z</time></trkpt><trkpt lat="43.523166634889456" lon="10.89945924064773"><ele>426.0</ele><time>2026-04-18T08:30:01Z</time></trkpt><trkpt lat="43.52299544763865" lon="10.899563442248253"><ele>426.0</ele><time>2026-04-18T08:30:02Z</time></trkpt><trkpt lat="43.52280978801471" lon="10.899657737421075"><ele>426.0</ele><time>2026-04-18T08:30:03Z</time></trkpt><trkpt lat="43.52262332138518" lon="10.899737170170729"><ele>426.66666666666663</ele><time>2026-04-18T08:30:04Z</time></trkpt><trkpt lat="43.52242211419429" lon="10.899810347147266"><ele>427.3333333333333</ele><time>2026-04-18T08:30:05Z</time></trkpt><trkpt lat="43.52222734287615" lon="10.89989602089549"><ele>428.0</ele><time>2026-04-18T08:30:06Z</time></trkpt><trkpt lat="43.522019399823456" lon="10.899992464527438"><ele>429.66666666666663</ele><time>2026-04-18T08:30:07Z</time></trkpt><trkpt lat="43.52182793040291" lon="10.900105633964005"><ele>431.33333333333337</ele><time>2026-04-18T08:30:08Z</time></trkpt><trkpt lat="43.5216500456042" lon="10.90026757055152"><ele>433.0</ele><time>2026-04-18T08:30:09Z</time></trkpt><trkpt lat="43.52148221466841" lon="10.90045593306527"><ele>433.0</ele><time>2026-04-18T08:30:10Z</time></trkpt><trkpt lat="43.52130072795546" lon="10.900662910128741"><ele>433.0</ele><time>2026-04-18T08:30:11Z</time></trkpt><trkpt lat="43.52111827647526" lon="10.900866549846473"><ele>436.0</ele><time>2026-04-18T08:30:12Z</time></trkpt><trkpt lat="43.52093778795943" lon="10.901062314971236"><ele>439.0</ele><time>2026-04-18T08:30:13Z</time></trkpt><trkpt lat="43.52075177060971" lon="10.90126325117949"><ele>439.0</ele><time>2026-04-18T08:30:14Z</time></trkpt><trkpt lat="43.52056878058493" lon="10.901466268784903"><ele>439.0</ele><time>2026-04-18T08:30:15Z</time></trkpt><trkpt lat="43.52038761577966" lon="10.901673514558818"><ele>437.5</ele><time>2026-04-18T08:30:16Z</time></trkpt><trkpt lat="43.52020182933617" lon="10.901878821403034"><ele>436.0</ele><time>2026-04-18T08:30:17Z</time></trkpt><trkpt lat="43.52001951497247" lon="10.902081969268323"><ele>436.0</ele><time>2026-04-18T08:30:18Z</time></trkpt><trkpt lat="43.519824662865226" lon="10.902272631281239"><ele>436.0</ele><time>2026-04-18T08:30:19Z</time></trkpt><trkpt lat="43.51962336755104" lon="10.90243212617471"><ele>438.5</ele><time>2026-04-18T08:30:20Z</time></trkpt><trkpt lat="43.5194071237171" lon="10.902561511206383"><ele>441.0</ele><time>2026-04-18T08:30:21Z</time></trkpt><trkpt lat="43.51917783007769" lon="10.902646337557625"><ele>441.0</ele><time>2026-04-18T08:30:22Z</time></trkpt><trkpt lat="43.51894684242884" lon="10.90268695880338"><ele>441.0</ele><time>2026-04-18T08:30:23Z</time></trkpt><trkpt lat="43.518706984232274" lon="10.902693347073138"><ele>441.0</ele><time>2026-04-18T08:30:24Z</time></trkpt><trkpt lat="43.51846765786333" lon="10.902687293103615"><ele>441.0</ele><time>2026-04-18T08:30:25Z</time></trkpt><trkpt lat="43.518237693148" lon="10.902687808175365"><ele>441.0</ele><time>2026-04-18T08:30:26Z</time></trkpt><trkpt lat="43.518006975093975" lon="10.90269702133168"><ele>441.0</ele><time>2026-04-18T08:30:27Z</time></trkpt><trkpt lat="43.51779213987422" lon="10.902704308273199"><ele>441.0</ele><time>2026-04-18T08:30:28Z</time></trkpt><trkpt lat="43.51760549260754" lon="10.902699783157317"><ele>443.66666666666663</ele><time>2026-04-18T08:30:29Z</time></trkpt><trkpt lat="43.517426930905565" lon="10.902665870349956"><ele>446.3333333333333</ele><time>2026-04-18T08:30:30Z</time></trkpt><trkpt lat="43.51726139680485" lon="10.902585698402993"><ele>449.0</ele><time>2026-04-18T08:30:31Z</time></trkpt><trkpt lat="43.5170990530678" lon="10.90245496398178"><ele>453.0</ele><time>2026-04-18T08:30:32Z</time></trkpt><trkpt lat="43.51694182252616" lon="10.902291779728348"><ele>457.0</ele><time>2026-04-18T08:30:33Z</time></trkpt><trkpt lat="43.51679215416077" lon="10.90209267124664"><ele>461.0</ele><time>2026-04-18T08:30:34Z</time></trkpt><trkpt lat="43.51663958993648" lon="10.901882221430368"><ele>460.66666666666663</ele><time>2026-04-18T08:30:35Z</time></trkpt><trkpt lat="43.51648052929347" lon="10.901684071732157"><ele>460.33333333333337</ele><time>2026-04-18T08:30:36Z</time></trkpt><trkpt lat="43.516312616106504" lon="10.901491843312298"><ele>460.0</ele><time>2026-04-18T08:30:37Z</time></trkpt><trkpt lat="43.5161146424135" lon="10.901321168465415"><ele>462.0</ele><time>2026-04-18T08:30:38Z</time></trkpt><trkpt lat="43.51591790031735" lon="10.901169405849046"><ele>464.0</ele><time>2026-04-18T08:30:39Z</time></trkpt><trkpt lat="43.515707803055335" lon="10.901034682520375"><ele>468.5</ele><time>2026-04-18T08:30:40Z</time></trkpt><trkpt lat="43.51549322683024" lon="10.900893661905068"><ele>473.0</ele><time>2026-04-18T08:30:41Z</time></trkpt><trkpt lat="43.5152761725507" lon="10.90075871679304"><ele>473.0</ele><time>2026-04-18T08:30:42Z</time></trkpt><trkpt lat="43.5150627476388" lon="10.900621959645255"><ele>473.0</ele><time>2026-04-18T08:30:43Z</time></trkpt><trkpt lat="43.514857711858035" lon="10.9004910948386"><ele>473.0</ele><time>2026-04-18T08:30:44Z</time></trkpt><trkpt lat="43.51465561628243" lon="10.900364301499927"><ele>473.0</ele><time>2026-04-18T08:30:45Z</time></trkpt><trkpt lat="43.51445643445763" lon="10.900226516744535"><ele>473.0</ele><time>2026-04-18T08:30:46Z</time></trkpt><trkpt lat="43.51427068211993" lon="10.9000723565392"><ele>475.5</ele><time>2026-04-18T08:30:47Z</time></trkpt><trkpt lat="43.514082114631215" lon="10.899899434653591"><ele>478.0</ele><time>2026-04-18T08:30:48Z</time></trkpt><trkpt lat="43.51390503398043" lon="10.89970831359759"><ele>477.0</ele><time>2026-04-18T08:30:49Z</time></trkpt><trkpt lat="43.513727611073655" lon="10.8995033169087"><ele>476.0</ele><time>2026-04-18T08:30:50Z</time></trkpt><trkpt lat="43.51355103844972" lon="10.899314878898037"><ele>478.3333333333333</ele><time>2026-04-18T08:30:51Z</time></trkpt><trkpt lat="43.51338470014229" lon="10.899155089629996"><ele>480.66666666666663</ele><time>2026-04-18T08:30:52Z</time></trkpt><trkpt lat="43.51321602541083" lon="10.899029723650886"><ele>483.0</ele><time>2026-04-18T08:30:53Z</time></trkpt><trkpt lat="43.51302554968717" lon="10.898938602111453"><ele>481.33333333333337</ele><time>2026-04-18T08:30:54Z</time></trkpt><trkpt lat="43.51283719084934" lon="10.898894409568396"><ele>479.6666666666667</ele><time>2026-04-18T08:30:55Z</time></trkpt><trkpt lat="43.51266605768464" lon="10.898900353732781"><ele>478.0</ele><time>2026-04-18T08:30:56Z</time></trkpt><trkpt lat="43.51249899045146" lon="10.89894070701698"><ele>478.0</ele><time>2026-04-18T08:30:57Z</time></trkpt><trkpt lat="43.51231921214306" lon="10.899019953241176"><ele>478.0</ele><time>2026-04-18T08:30:58Z</time></trkpt><trkpt lat="43.51215332397555" lon="10.899143206692687"><ele>478.0</ele><time>2026-04-18T08:30:59Z</time></trkpt><trkpt lat="43.51200679586192" lon="10.899304600493295"><ele>480.33333333333337</ele><time>2026-04-18T08:31:00Z</time></trkpt><trkpt lat="43.51189122041166" lon="10.899492414073519"><ele>482.66666666666663</ele><time>2026-04-18T08:31:01Z</time></trkpt><trkpt lat="43.51180936864565" lon="10.899706644287047"><ele>485.0</ele><time>2026-04-18T08:31:02Z</time></trkpt><trkpt lat="43.511756868831235" lon="10.899946926459284"><ele>484.66666666666663</ele><time>2026-04-18T08:31:03Z</time></trkpt><trkpt lat="43.51174244562523" lon="10.900204496856764"><ele>484.33333333333337</ele><time>2026-04-18T08:31:04Z</time></trkpt><trkpt lat="43.511748577795146" lon="10.900485007370309"><ele>484.0</ele><time>2026-04-18T08:31:05Z</time></trkpt><trkpt lat="43.51176808462264" lon="10.900767581626836"><ele>484.0</ele><time>2026-04-18T08:31:06Z</time></trkpt><trkpt lat="43.51181547679956" lon="10.901050992972156"><ele>484.0</ele><time>2026-04-18T08:31:07Z</time></trkpt><trkpt lat="43.51188502358764" lon="10.90132709979366"><ele>484.0</ele><time>2026-04-18T08:31:08Z</time></trkpt><trkpt lat="43.51198000436906" lon="10.901591763879797"><ele>483.6666666666667</ele><time>2026-04-18T08:31:09Z</time></trkpt><trkpt lat="43.512084735953" lon="10.901862703603038"><ele>483.33333333333337</ele><time>2026-04-18T08:31:10Z</time></trkpt><trkpt lat="43.512149002069776" lon="10.902151706602849"><ele>483.0</ele><time>2026-04-18T08:31:11Z</time></trkpt><trkpt lat="43.51219270157667" lon="10.902431162649844"><ele>483.33333333333337</ele><time>2026-04-18T08:31:12Z</time></trkpt><trkpt lat="43.5122078298749" lon="10.902721039665254"><ele>483.6666666666667</ele><time>2026-04-18T08:31:13Z</time></trkpt><trkpt lat="43.512190122245755" lon="10.90300696154128"><ele>484.0</ele><time>2026-04-18T08:31:14Z</time></trkpt><trkpt lat="43.51216865175834" lon="10.903302338815008"><ele>484.33333333333337</ele><time>2026-04-18T08:31:15Z</time></trkpt><trkpt lat="43.51214621346177" lon="10.903599870707176"><ele>484.66666666666663</ele><time>2026-04-18T08:31:16Z</time></trkpt><trkpt lat="43.51212195584727" lon="10.903887464975117"><ele>485.0</ele><time>2026-04-18T08:31:17Z</time></trkpt><trkpt lat="43.512077687244634" lon="10.90414283619306"><ele>486.66666666666663</ele><time>2026-04-18T08:31:18Z</time></trkpt><trkpt lat="43.51199157924047" lon="10.904359654687148"><ele>488.33333333333337</ele><time>2026-04-18T08:31:19Z</time></trkpt><trkpt lat="43.51188717247684" lon="10.904543041042395"><ele>490.0</ele><time>2026-04-18T08:31:20Z</time></trkpt><trkpt lat="43.51176411623613" lon="10.904660443945305"><ele>490.0</ele><time>2026-04-18T08:31:21Z</time></trkpt><trkpt lat="43.51160914129602" lon="10.904755632263466"><ele>490.0</ele><time>2026-04-18T08:31:22Z</time></trkpt><trkpt lat="43.511423722532655" lon="10.90482614912385"><ele>490.0</ele><time>2026-04-18T08:31:23Z</time></trkpt><trkpt lat="43.5112299251257" lon="10.904910731001555"><ele>489.33333333333337</ele><time>2026-04-18T08:31:24Z</time></trkpt><trkpt lat="43.51101725644217" lon="10.904974450441186"><ele>488.66666666666663</ele><time>2026-04-18T08:31:25Z</time></trkpt><trkpt lat="43.510813819901486" lon="10.905044789699954"><ele>488.0</ele><time>2026-04-18T08:31:26Z</time></trkpt><trkpt lat="43.51061002908394" lon="10.905126810322038"><ele>487.0</ele><time>2026-04-18T08:31:27Z</time></trkpt><trkpt lat="43.51041159817146" lon="10.905208134542711"><ele>486.0</ele><time>2026-04-18T08:31:28Z</time></trkpt><trkpt lat="43.51021401593321" lon="10.905281319326578"><ele>485.0</ele><time>2026-04-18T08:31:29Z</time></trkpt><trkpt lat="43.51000592709686" lon="10.905352556051769"><ele>487.0</ele><time>2026-04-18T08:31:30Z</time></trkpt><trkpt lat="43.509798299469644" lon="10.905416728050854"><ele>489.0</ele><time>2026-04-18T08:31:31Z</time></trkpt><trkpt lat="43.50959362762718" lon="10.9054852670821"><ele>491.0</ele><time>2026-04-18T08:31:32Z</time></trkpt><trkpt lat="43.509392142496985" lon="10.90555978869512"><ele>493.66666666666663</ele><time>2026-04-18T08:31:33Z</time></trkpt><trkpt lat="43.50919137517428" lon="10.905635046854291"><ele>496.33333333333337</ele><time>2026-04-18T08:31:34Z</time></trkpt><trkpt lat="43.508989995985495" lon="10.905706492647484"><ele>499.0</ele><time>2026-04-18T08:31:35Z</time></trkpt><trkpt lat="43.50878803220967" lon="10.905770959852944"><ele>501.0</ele><time>2026-04-18T08:31:36Z</time></trkpt><trkpt lat="43.50858615557098" lon="10.905836597857393"><ele>503.0</ele><time>2026-04-18T08:31:37Z</time></trkpt><trkpt lat="43.50838548674452" lon="10.905907412540452"><ele>505.0</ele><time>2026-04-18T08:31:38Z</time></trkpt><trkpt lat="43.50818510449286" lon="10.905980340644359"><ele>505.6666666666667</ele><time>2026-04-18T08:31:39Z</time></trkpt><trkpt lat="43.50798559433824" lon="10.90604791739924"><ele>506.33333333333337</ele><time>2026-04-18T08:31:40Z</time></trkpt><trkpt lat="43.507787970186406" lon="10.906124405177453"><ele>507.0</ele><time>2026-04-18T08:31:41Z</time></trkpt><trkpt lat="43.50760529702418" lon="10.906218390509576"><ele>508.0</ele><time>2026-04-18T08:31:42Z</time></trkpt><trkpt lat="43.50743142557965" lon="10.906353463092351"><ele>509.0</ele><time>2026-04-18T08:31:43Z</time></trkpt><trkpt lat="43.50726928018843" lon="10.906532882469477"><ele>510.0</ele><time>2026-04-18T08:31:44Z</time></trkpt><trkpt lat="43.50710933237704" lon="10.906725442059457"><ele>513.3333333333334</ele><time>2026-04-18T08:31:45Z</time></trkpt><trkpt lat="43.506948810534105" lon="10.90692430977192"><ele>516.6666666666667</ele><time>2026-04-18T08:31:46Z</time></trkpt><trkpt lat="43.506783824225515" lon="10.907115751030751"><ele>520.0</ele><time>2026-04-18T08:31:47Z</time></trkpt><trkpt lat="43.506619651581715" lon="10.907302455774122"><ele>520.0</ele><time>2026-04-18T08:31:48Z</time></trkpt><trkpt lat="43.50644933516661" lon="10.907489807357985"><ele>520.0</ele><time>2026-04-18T08:31:49Z</time></trkpt><trkpt lat="43.50628032512079" lon="10.907678787951195"><ele>520.0</ele><time>2026-04-18T08:31:50Z</time></trkpt><trkpt lat="43.50611391324517" lon="10.907864357347977"><ele>521.3333333333334</ele><time>2026-04-18T08:31:51Z</time></trkpt><trkpt lat="43.5059359276789" lon="10.908025925805042"><ele>522.6666666666666</ele><time>2026-04-18T08:31:52Z</time></trkpt><trkpt lat="43.50574938693082" lon="10.908148612973493"><ele>524.0</ele><time>2026-04-18T08:31:53Z</time></trkpt><trkpt lat="43.50554168980564" lon="10.908202347407688"><ele>525.3333333333333</ele><time>2026-04-18T08:31:54Z</time></trkpt><trkpt lat="43.505323324890696" lon="10.908208262627056"><ele>526.6666666666666</ele><time>2026-04-18T08:31:55Z</time></trkpt><trkpt lat="43.50510769306297" lon="10.908171986053713"><ele>528.0</ele><time>2026-04-18T08:31:56Z</time></trkpt><trkpt lat="43.504888491256864" lon="10.908119538981799"><ele>528.0</ele><time>2026-04-18T08:31:57Z</time></trkpt><trkpt lat="43.50467057630735" lon="10.908071954682587"><ele>528.0</ele><time>2026-04-18T08:31:58Z</time></trkpt><trkpt lat="43.504452538722575" lon="10.90803628367452"><ele>528.0</ele><time>2026-04-18T08:31:59Z</time></trkpt><trkpt lat="43.50423158950185" lon="10.908003094967484"><ele>530.0</ele><time>2026-04-18T08:32:00Z</time></trkpt><trkpt lat="43.50400703154194" lon="10.907970557822333"><ele>532.0</ele><time>2026-04-18T08:32:01Z</time></trkpt><trkpt lat="43.50378996081762" lon="10.907933196784642"><ele>534.0</ele><time>2026-04-18T08:32:02Z</time></trkpt><trkpt lat="43.50359418213731" lon="10.907900184172641"><ele>534.6666666666666</ele><time>2026-04-18T08:32:03Z</time></trkpt><trkpt lat="43.50341448301864" lon="10.90787685686708"><ele>535.3333333333333</ele><time>2026-04-18T08:32:04Z</time></trkpt><trkpt lat="43.50323521741638" lon="10.907855752955166"><ele>536.0</ele><time>2026-04-18T08:32:05Z</time></trkpt><trkpt lat="43.503035517540425" lon="10.907830095951258"><ele>535.3333333333333</ele><time>2026-04-18T08:32:06Z</time></trkpt><trkpt lat="43.502834828867414" lon="10.907789327319433"><ele>534.6666666666666</ele><time>2026-04-18T08:32:07Z</time></trkpt><trkpt lat="43.50263307735152" lon="10.90775012852509"><ele>534.0</ele><time>2026-04-18T08:32:08Z</time></trkpt><trkpt lat="43.502432722289484" lon="10.907715852563511"><ele>534.0</ele><time>2026-04-18T08:32:09Z</time></trkpt><trkpt lat="43.50224001290023" lon="10.907689960999733"><ele>534.0</ele><time>2026-04-18T08:32:10Z</time></trkpt><trkpt lat="43.50206321851572" lon="10.90766819841415"><ele>534.0</ele><time>2026-04-18T08:32:11Z</time></trkpt><trkpt lat="43.501896877761254" lon="10.907653133950939"><ele>535.0</ele><time>2026-04-18T08:32:12Z</time></trkpt><trkpt lat="43.501747475804734" lon="10.907671513074243"><ele>536.0</ele><time>2026-04-18T08:32:13Z</time></trkpt><trkpt lat="43.5015823298574" lon="10.90773340355256"><ele>537.0</ele><time>2026-04-18T08:32:14Z</time></trkpt><trkpt lat="43.50143392659294" lon="10.90784313181016"><ele>537.0</ele><time>2026-04-18T08:32:15Z</time></trkpt><trkpt lat="43.50129622986939" lon="10.90799628929624"><ele>537.0</ele><time>2026-04-18T08:32:16Z</time></trkpt><trkpt lat="43.50117145994713" lon="10.908202285385293"><ele>537.0</ele><time>2026-04-18T08:32:17Z</time></trkpt><trkpt lat="43.501067680484404" lon="10.908416493254888"><ele>538.6666666666666</ele><time>2026-04-18T08:32:18Z</time></trkpt><trkpt lat="43.50097070433735" lon="10.908635095940278"><ele>540.3333333333333</ele><time>2026-04-18T08:32:19Z</time></trkpt><trkpt lat="43.5008836922953" lon="10.908863997747302"><ele>542.0</ele><time>2026-04-18T08:32:20Z</time></trkpt><trkpt lat="43.50080856140051" lon="10.90909723411204"><ele>542.0</ele><time>2026-04-18T08:32:21Z</time></trkpt><trkpt lat="43.500740401213896" lon="10.909341490545623"><ele>542.0</ele><time>2026-04-18T08:32:22Z</time></trkpt><trkpt lat="43.500677963710636" lon="10.909584549214912"><ele>542.0</ele><time>2026-04-18T08:32:23Z</time></trkpt><trkpt lat="43.50062492948336" lon="10.90981287027752"><ele>542.0</ele><time>2026-04-18T08:32:24Z</time></trkpt><trkpt lat="43.50058525357091" lon="10.910001162887678"><ele>542.0</ele><time>2026-04-18T08:32:25Z</time></trkpt><trkpt lat="43.5005635098427" lon="10.910184395943887"><ele>542.0</ele><time>2026-04-18T08:32:26Z</time></trkpt><trkpt lat="43.50056226125341" lon="10.91036768914933"><ele>542.0</ele><time>2026-04-18T08:32:27Z</time></trkpt><trkpt lat="43.500592638165216" lon="10.91056490197936"><ele>543.3333333333333</ele><time>2026-04-18T08:32:28Z</time></trkpt><trkpt lat="43.500644919695524" lon="10.910776664538522"><ele>544.6666666666666</ele><time>2026-04-18T08:32:29Z</time></trkpt><trkpt lat="43.50069582112336" lon="10.911006796595982"><ele>546.0</ele><time>2026-04-18T08:32:30Z</time></trkpt><trkpt lat="43.50074115425376" lon="10.911231025333203"><ele>546.0</ele><time>2026-04-18T08:32:31Z</time></trkpt><trkpt lat="43.500776331588" lon="10.911460291246891"><ele>546.0</ele><time>2026-04-18T08:32:32Z</time></trkpt><trkpt lat="43.50080091943063" lon="10.911684947504313"><ele>546.0</ele><time>2026-04-18T08:32:33Z</time></trkpt><trkpt lat="43.5008065157383" lon="10.91190103540891"><ele>544.3333333333334</ele><time>2026-04-18T08:32:34Z</time></trkpt><trkpt lat="43.50077571693303" lon="10.912098224697095"><ele>542.6666666666667</ele><time>2026-04-18T08:32:35Z</time></trkpt><trkpt lat="43.50071605444677" lon="10.912314305395306"><ele>541.0</ele><time>2026-04-18T08:32:36Z</time></trkpt><trkpt lat="43.50063181199313" lon="10.912552346696753"><ele>539.6666666666667</ele><time>2026-04-18T08:32:37Z</time></trkpt><trkpt lat="43.50054463414066" lon="10.912801192175808"><ele>538.3333333333334</ele><time>2026-04-18T08:32:38Z</time></trkpt><trkpt lat="43.500452463542544" lon="10.91303688144579"><ele>537.0</ele><time>2026-04-18T08:32:39Z</time></trkpt><trkpt lat="43.50034723805427" lon="10.91328159904565"><ele>537.3333333333334</ele><time>2026-04-18T08:32:40Z</time></trkpt><trkpt lat="43.50023265985796" lon="10.913495906593365"><ele>537.6666666666667</ele><time>2026-04-18T08:32:41Z</time></trkpt><trkpt lat="43.500124941176985" lon="10.913725103212718"><ele>538.0</ele><time>2026-04-18T08:32:42Z</time></trkpt><trkpt lat="43.50002612577425" lon="10.913943397977045"><ele>538.0</ele><time>2026-04-18T08:32:43Z</time></trkpt><trkpt lat="43.499933475620416" lon="10.914153261791123"><ele>538.0</ele><time>2026-04-18T08:32:44Z</time></trkpt><trkpt lat="43.49986668900276" lon="10.914345480553084"><ele>538.0</ele><time>2026-04-18T08:32:45Z</time></trkpt><trkpt lat="43.49983254349172" lon="10.91454454992457"><ele>538.0</ele><time>2026-04-18T08:32:46Z</time></trkpt><trkpt lat="43.49984084721835" lon="10.914752250920792"><ele>538.0</ele><time>2026-04-18T08:32:47Z</time></trkpt><trkpt lat="43.499868357926864" lon="10.914994389068813"><ele>538.0</ele><time>2026-04-18T08:32:48Z</time></trkpt><trkpt lat="43.49991342328418" lon="10.915237972082554"><ele>537.6666666666667</ele><time>2026-04-18T08:32:49Z</time></trkpt><trkpt lat="43.49995121486148" lon="10.915492541060255"><ele>537.3333333333334</ele><time>2026-04-18T08:32:50Z</time></trkpt><trkpt lat="43.49998504923849" lon="10.915733300824629"><ele>537.0</ele><time>2026-04-18T08:32:51Z</time></trkpt><trkpt lat="43.500005897230146" lon="10.915977697873291"><ele>536.3333333333334</ele><time>2026-04-18T08:32:52Z</time></trkpt><trkpt lat="43.50001138490945" lon="10.916227366717557"><ele>535.6666666666667</ele><time>2026-04-18T08:32:53Z</time></trkpt><trkpt lat="43.49997834949334" lon="10.91645149712745"><ele>535.0</ele><time>2026-04-18T08:32:54Z</time></trkpt><trkpt lat="43.49990254119219" lon="10.916647760025338"><ele>536.3333333333334</ele><time>2026-04-18T08:32:55Z</time></trkpt><trkpt lat="43.49979097943515" lon="10.91679341794341"><ele>537.6666666666666</ele><time>2026-04-18T08:32:56Z</time></trkpt><trkpt lat="43.49964798965573" lon="10.916912851606776"><ele>539.0</ele><time>2026-04-18T08:32:57Z</time></trkpt><trkpt lat="43.49948368343784" lon="10.917023613536248"><ele>540.3333333333333</ele><time>2026-04-18T08:32:58Z</time></trkpt><trkpt lat="43.49930794491796" lon="10.917132369207547"><ele>541.6666666666666</ele><time>2026-04-18T08:32:59Z</time></trkpt><trkpt lat="43.49913591997843" lon="10.917255575903825"><ele>543.0</ele><time>2026-04-18T08:33:00Z</time></trkpt><trkpt lat="43.498989324611216" lon="10.917374729432792"><ele>543.0</ele><time>2026-04-18T08:33:01Z</time></trkpt><trkpt lat="43.49885328684087" lon="10.917479120726535"><ele>543.0</ele><time>2026-04-18T08:33:02Z</time></trkpt><trkpt lat="43.498725844825024" lon="10.917579580584736"><ele>543.0</ele><time>2026-04-18T08:33:03Z</time></trkpt><trkpt lat="43.49858025725167" lon="10.91766210938789"><ele>541.3333333333334</ele><time>2026-04-18T08:33:04Z</time></trkpt><trkpt lat="43.49841143200222" lon="10.917707627041832"><ele>539.6666666666667</ele><time>2026-04-18T08:33:05Z</time></trkpt><trkpt lat="43.49825917704713" lon="10.917721309363294"><ele>538.0</ele><time>2026-04-18T08:33:06Z</time></trkpt><trkpt lat="43.49812635936275" lon="10.917760657155188"><ele>538.0</ele><time>2026-04-18T08:33:07Z</time></trkpt><trkpt lat="43.498016652330946" lon="10.917847493376126"><ele>538.0</ele><time>2026-04-18T08:33:08Z</time></trkpt><trkpt lat="43.49794117624359" lon="10.917988549099965"><ele>538.0</ele><time>2026-04-18T08:33:09Z</time></trkpt><trkpt lat="43.497889834633426" lon="10.918181977264362"><ele>538.0</ele><time>2026-04-18T08:33:10Z</time></trkpt><trkpt lat="43.49784654291701" lon="10.918405545370014"><ele>538.0</ele><time>2026-04-18T08:33:11Z</time></trkpt><trkpt lat="43.49779746143305" lon="10.918628217057414"><ele>538.0</ele><time>2026-04-18T08:33:12Z</time></trkpt><trkpt lat="43.49773419223476" lon="10.918861596174946"><ele>538.0</ele><time>2026-04-18T08:33:13Z</time></trkpt><trkpt lat="43.49765668520969" lon="10.919097655737122"><ele>536.0</ele><time>2026-04-18T08:33:14Z</time></trkpt><trkpt lat="43.497577321064796" lon="10.91931770379194"><ele>534.0</ele><time>2026-04-18T08:33:15Z</time></trkpt><trkpt lat="43.49748688788234" lon="10.91952279382324"><ele>532.0</ele><time>2026-04-18T08:33:16Z</time></trkpt><trkpt lat="43.4974114618216" lon="10.919718100305253"><ele>532.0</ele><time>2026-04-18T08:33:17Z</time></trkpt><trkpt lat="43.497366693480465" lon="10.919915035734117"><ele>532.0</ele><time>2026-04-18T08:33:18Z</time></trkpt><trkpt lat="43.49737704289366" lon="10.920117973807491"><ele>532.0</ele><time>2026-04-18T08:33:19Z</time></trkpt><trkpt lat="43.49740099271683" lon="10.920321386443309"><ele>532.0</ele><time>2026-04-18T08:33:20Z</time></trkpt><trkpt lat="43.49741713135237" lon="10.920529331366993"><ele>530.75</ele><time>2026-04-18T08:33:21Z</time></trkpt><trkpt lat="43.497406775825986" lon="10.920727219269887"><ele>529.5</ele><time>2026-04-18T08:33:22Z</time></trkpt><trkpt lat="43.49737904028304" lon="10.920871571258882"><ele>528.25</ele><time>2026-04-18T08:33:23Z</time></trkpt><trkpt lat="43.49730094432682" lon="10.920962500444809"><ele>527.0</ele><time>2026-04-18T08:33:24Z</time></trkpt><trkpt lat="43.49718683218904" lon="10.921008869040888"><ele>524.0</ele><time>2026-04-18T08:33:25Z</time></trkpt><trkpt lat="43.497038391259274" lon="10.92106239642563"><ele>521.0</ele><time>2026-04-18T08:33:26Z</time></trkpt><trkpt lat="43.496876519051014" lon="10.921120742307602"><ele>518.0</ele><time>2026-04-18T08:33:27Z</time></trkpt><trkpt lat="43.49671155702168" lon="10.92119425466207"><ele>518.0</ele><time>2026-04-18T08:33:28Z</time></trkpt><trkpt lat="43.49654091473883" lon="10.921297595097581"><ele>518.0</ele><time>2026-04-18T08:33:29Z</time></trkpt><trkpt lat="43.496391606213926" lon="10.921399083071067"><ele>518.0</ele><time>2026-04-18T08:33:30Z</time></trkpt><trkpt lat="43.49626951639167" lon="10.921546934059423"><ele>517.6666666666666</ele><time>2026-04-18T08:33:31Z</time></trkpt><trkpt lat="43.496198792086346" lon="10.921772092534251"><ele>517.3333333333334</ele><time>2026-04-18T08:33:32Z</time></trkpt><trkpt lat="43.49610130798023" lon="10.921991052590172"><ele>517.0</ele><time>2026-04-18T08:33:33Z</time></trkpt><trkpt lat="43.496004262813685" lon="10.922235351645663"><ele>517.0</ele><time>2026-04-18T08:33:34Z</time></trkpt><trkpt lat="43.49590291208754" lon="10.922468152254233"><ele>517.0</ele><time>2026-04-18T08:33:35Z</time></trkpt><trkpt lat="43.4957871364288" lon="10.922695593779338"><ele>517.0</ele><time>2026-04-18T08:33:36Z</time></trkpt><trkpt lat="43.495651933892034" lon="10.922904768399764"><ele>517.6666666666667</ele><time>2026-04-18T08:33:37Z</time></trkpt><trkpt lat="43.495498787271586" lon="10.923109094473443"><ele>518.3333333333334</ele><time>2026-04-18T08:33:38Z</time></trkpt><trkpt lat="43.49533356723457" lon="10.92329179036808"><ele>519.0</ele><time>2026-04-18T08:33:39Z</time></trkpt><trkpt lat="43.49516646458108" lon="10.92347392100926"><ele>517.6666666666666</ele><time>2026-04-18T08:33:40Z</time></trkpt><trkpt lat="43.495011227632524" lon="10.923654824376408"><ele>516.3333333333333</ele><time>2026-04-18T08:33:41Z</time></trkpt><trkpt lat="43.494853308078035" lon="10.923850169617547"><ele>515.0</ele><time>2026-04-18T08:33:42Z</time></trkpt><trkpt lat="43.494692958339044" lon="10.924060038516048"><ele>512.3333333333333</ele><time>2026-04-18T08:33:43Z</time></trkpt><trkpt lat="43.494534348535495" lon="10.924275896017829"><ele>509.66666666666663</ele><time>2026-04-18T08:33:44Z</time></trkpt><trkpt lat="43.494377998189044" lon="10.924484200277426"><ele>507.0</ele><time>2026-04-18T08:33:45Z</time></trkpt><trkpt lat="43.494234859614636" lon="10.924666128288349"><ele>507.0</ele><time>2026-04-18T08:33:46Z</time></trkpt><trkpt lat="43.494107074542065" lon="10.924835129810699"><ele>507.0</ele><time>2026-04-18T08:33:47Z</time></trkpt><trkpt lat="43.494003499254866" lon="10.924996957862641"><ele>507.0</ele><time>2026-04-18T08:33:48Z</time></trkpt><trkpt lat="43.49393081344134" lon="10.925178254958489"><ele>505.66666666666663</ele><time>2026-04-18T08:33:49Z</time></trkpt><trkpt lat="43.493907296624556" lon="10.92537969681795"><ele>504.3333333333333</ele><time>2026-04-18T08:33:50Z</time></trkpt><trkpt lat="43.493905968885926" lon="10.925590411940698"><ele>503.0</ele><time>2026-04-18T08:33:51Z</time></trkpt><trkpt lat="43.49391202134053" lon="10.92579965531977"><ele>501.75</ele><time>2026-04-18T08:33:52Z</time></trkpt><trkpt lat="43.493894284530974" lon="10.925985893931866"><ele>500.5</ele><time>2026-04-18T08:33:53Z</time></trkpt><trkpt lat="43.49388848710738" lon="10.92615736393947"><ele>499.25</ele><time>2026-04-18T08:33:54Z</time></trkpt><trkpt lat="43.49389973329704" lon="10.926311012865176"><ele>498.0</ele><time>2026-04-18T08:33:55Z</time></trkpt><trkpt lat="43.49389019266736" lon="10.926445935227937"><ele>498.0</ele><time>2026-04-18T08:33:56Z</time></trkpt><trkpt lat="43.49388885918309" lon="10.926556241762537"><ele>497.99999999999994</ele><time>2026-04-18T08:33:57Z</time></trkpt><trkpt lat="43.493869375585554" lon="10.926654435025618"><ele>497.99999999999994</ele><time>2026-04-18T08:33:58Z</time></trkpt><trkpt lat="43.49387747398406" lon="10.926761923754551"><ele>498.0</ele><time>2026-04-18T08:34:00Z</time></trkpt><trkpt lat="43.49370896598326" lon="10.926881796389617"><ele>498.0</ele><time>2026-04-18T08:34:01Z</time></trkpt><trkpt lat="43.49361047562957" lon="10.926982462699227"><ele>498.0</ele><time>2026-04-18T08:34:02Z</time></trkpt><trkpt lat="43.49350143445994" lon="10.927118267957852"><ele>498.0</ele><time>2026-04-18T08:34:03Z</time></trkpt><trkpt lat="43.49339030765364" lon="10.927283025314342"><ele>498.0</ele><time>2026-04-18T08:34:04Z</time></trkpt><trkpt lat="43.49327426307956" lon="10.927469864143628"><ele>496.66666666666663</ele><time>2026-04-18T08:34:05Z</time></trkpt><trkpt lat="43.493165169559546" lon="10.927652977342337"><ele>495.3333333333333</ele><time>2026-04-18T08:34:06Z</time></trkpt><trkpt lat="43.49304461853003" lon="10.927835242899631"><ele>494.0</ele><time>2026-04-18T08:34:07Z</time></trkpt><trkpt lat="43.49292210112232" lon="10.928022593646034"><ele>491.0</ele><time>2026-04-18T08:34:08Z</time></trkpt><trkpt lat="43.492799893698" lon="10.928205504330476"><ele>488.0</ele><time>2026-04-18T08:34:09Z</time></trkpt><trkpt lat="43.49267178219861" lon="10.928388887072206"><ele>485.0</ele><time>2026-04-18T08:34:10Z</time></trkpt><trkpt lat="43.49254715055022" lon="10.928553028595916"><ele>484.66666666666663</ele><time>2026-04-18T08:34:11Z</time></trkpt><trkpt lat="43.492414214612005" lon="10.92868823307053"><ele>484.33333333333337</ele><time>2026-04-18T08:34:12Z</time></trkpt><trkpt lat="43.492276628625504" lon="10.928770784161152"><ele>484.0</ele><time>2026-04-18T08:34:13Z</time></trkpt><trkpt lat="43.492130431429324" lon="10.928808121142758"><ele>484.6666666666667</ele><time>2026-04-18T08:34:14Z</time></trkpt><trkpt lat="43.49198212919398" lon="10.928794369508063"><ele>485.33333333333337</ele><time>2026-04-18T08:34:15Z</time></trkpt><trkpt lat="43.49182439431653" lon="10.928729177136598"><ele>486.0</ele><time>2026-04-18T08:34:16Z</time></trkpt><trkpt lat="43.49168747989711" lon="10.928629891382478"><ele>486.0</ele><time>2026-04-18T08:34:17Z</time></trkpt><trkpt lat="43.49156413622004" lon="10.928525504012244"><ele>486.0</ele><time>2026-04-18T08:34:18Z</time></trkpt><trkpt lat="43.491451015732785" lon="10.928469241479617"><ele>486.0</ele><time>2026-04-18T08:34:19Z</time></trkpt><trkpt lat="43.49132809087557" lon="10.92845965028717"><ele>486.0</ele><time>2026-04-18T08:34:20Z</time></trkpt><trkpt lat="43.49121104272551" lon="10.928501858308447"><ele>483.25</ele><time>2026-04-18T08:34:21Z</time></trkpt><trkpt lat="43.49110134107266" lon="10.928598790920683"><ele>480.5</ele><time>2026-04-18T08:34:22Z</time></trkpt><trkpt lat="43.49100642495687" lon="10.928727510754"><ele>477.75</ele><time>2026-04-18T08:34:23Z</time></trkpt><trkpt lat="43.4909235222287" lon="10.928907325925124"><ele>475.0</ele><time>2026-04-18T08:34:24Z</time></trkpt><trkpt lat="43.49084262892424" lon="10.929120112425197"><ele>476.6666666666667</ele><time>2026-04-18T08:34:25Z</time></trkpt><trkpt lat="43.490762010890904" lon="10.929330533275499"><ele>478.33333333333337</ele><time>2026-04-18T08:34:26Z</time></trkpt><trkpt lat="43.49067159285102" lon="10.929550733411482"><ele>480.0</ele><time>2026-04-18T08:34:27Z</time></trkpt><trkpt lat="43.49057341748067" lon="10.929768080789529"><ele>480.0</ele><time>2026-04-18T08:34:28Z</time></trkpt><trkpt lat="43.49047481261885" lon="10.929999600008216"><ele>480.0</ele><time>2026-04-18T08:34:29Z</time></trkpt><trkpt lat="43.49039001635449" lon="10.930209422788659"><ele>480.0</ele><time>2026-04-18T08:34:30Z</time></trkpt><trkpt lat="43.49029532849667" lon="10.93040886745298"><ele>474.0</ele><time>2026-04-18T08:34:31Z</time></trkpt><trkpt lat="43.49021282917725" lon="10.930623241059147"><ele>468.0</ele><time>2026-04-18T08:34:32Z</time></trkpt><trkpt lat="43.490146329689004" lon="10.930826816453294"><ele>462.0</ele><time>2026-04-18T08:34:33Z</time></trkpt><trkpt lat="43.49010434424527" lon="10.931026070512099"><ele>461.75</ele><time>2026-04-18T08:34:34Z</time></trkpt><trkpt lat="43.49009394671713" lon="10.931211645859493"><ele>461.5</ele><time>2026-04-18T08:34:35Z</time></trkpt><trkpt lat="43.490068476365146" lon="10.931406149676445"><ele>461.25</ele><time>2026-04-18T08:34:36Z</time></trkpt><trkpt lat="43.49006587782118" lon="10.93159341963809"><ele>461.0</ele><time>2026-04-18T08:34:37Z</time></trkpt><trkpt lat="43.49006681246677" lon="10.931787173153387"><ele>460.4</ele><time>2026-04-18T08:34:38Z</time></trkpt><trkpt lat="43.49006644811393" lon="10.931947892812333"><ele>459.8</ele><time>2026-04-18T08:34:39Z</time></trkpt><trkpt lat="43.4900660888284" lon="10.93210637727169"><ele>459.19999999999993</ele><time>2026-04-18T08:34:40Z</time></trkpt><trkpt lat="43.49006386163722" lon="10.932259785425451"><ele>458.59999999999997</ele><time>2026-04-18T08:34:41Z</time></trkpt><trkpt lat="43.49005407283579" lon="10.932393349771457"><ele>458.0</ele><time>2026-04-18T08:34:42Z</time></trkpt><trkpt lat="43.49001678395017" lon="10.932487746893802"><ele>458.0</ele><time>2026-04-18T08:34:43Z</time></trkpt><trkpt lat="43.48992775210599" lon="10.93252105008894"><ele>457.99999999999994</ele><time>2026-04-18T08:34:44Z</time></trkpt><trkpt lat="43.48984171172864" lon="10.932474011187065"><ele>457.99999999999994</ele><time>2026-04-18T08:34:45Z</time></trkpt><trkpt lat="43.48978692404124" lon="10.932370225193925"><ele>458.0</ele><time>2026-04-18T08:34:46Z</time></trkpt><trkpt lat="43.489762139582524" lon="10.932248792393144"><ele>458.0</ele><time>2026-04-18T08:34:47Z</time></trkpt><trkpt lat="43.48975097338688" lon="10.932099780704435"><ele>458.0</ele><time>2026-04-18T08:34:48Z</time></trkpt><trkpt lat="43.489748413030625" lon="10.931929883423084"><ele>458.0</ele><time>2026-04-18T08:34:49Z</time></trkpt><trkpt lat="43.48974258625022" lon="10.931739116703383"><ele>458.0</ele><time>2026-04-18T08:34:50Z</time></trkpt><trkpt lat="43.48972588189724" lon="10.931532597144315"><ele>458.0</ele><time>2026-04-18T08:34:51Z</time></trkpt><trkpt lat="43.48970241274312" lon="10.931317154610916"><ele>459.0</ele><time>2026-04-18T08:34:52Z</time></trkpt><trkpt lat="43.4896847902094" lon="10.931103478697649"><ele>460.0</ele><time>2026-04-18T08:34:53Z</time></trkpt><trkpt lat="43.48966801363095" lon="10.930873629719283"><ele>461.0</ele><time>2026-04-18T08:34:54Z</time></trkpt><trkpt lat="43.48964850350089" lon="10.930638540019494"><ele>461.3333333333333</ele><time>2026-04-18T08:34:55Z</time></trkpt><trkpt lat="43.48962262328115" lon="10.93039339207946"><ele>461.66666666666663</ele><time>2026-04-18T08:34:56Z</time></trkpt><trkpt lat="43.4895818967838" lon="10.930162215653091"><ele>462.0</ele><time>2026-04-18T08:34:57Z</time></trkpt><trkpt lat="43.48952347747413" lon="10.929934153999769"><ele>453.66666666666663</ele><time>2026-04-18T08:34:58Z</time></trkpt><trkpt lat="43.48945817680317" lon="10.929724543737208"><ele>445.3333333333333</ele><time>2026-04-18T08:34:59Z</time></trkpt><trkpt lat="43.489388242901434" lon="10.92951011801887"><ele>437.0</ele><time>2026-04-18T08:35:00Z</time></trkpt><trkpt lat="43.48932121694384" lon="10.929297924774989"><ele>436.66666666666663</ele><time>2026-04-18T08:35:01Z</time></trkpt><trkpt lat="43.48926578513528" lon="10.929069389595396"><ele>436.33333333333337</ele><time>2026-04-18T08:35:02Z</time></trkpt><trkpt lat="43.48923828159161" lon="10.9288362055587"><ele>436.0</ele><time>2026-04-18T08:35:03Z</time></trkpt><trkpt lat="43.48924563449592" lon="10.928595126937022"><ele>435.33333333333337</ele><time>2026-04-18T08:35:04Z</time></trkpt><trkpt lat="43.48927185998292" lon="10.928337408914935"><ele>434.66666666666663</ele><time>2026-04-18T08:35:05Z</time></trkpt><trkpt lat="43.489297568304785" lon="10.928073460229747"><ele>434.0</ele><time>2026-04-18T08:35:06Z</time></trkpt><trkpt lat="43.48931492645783" lon="10.927801639029369"><ele>433.3333333333333</ele><time>2026-04-18T08:35:07Z</time></trkpt><trkpt lat="43.48933490145639" lon="10.92751746457148"><ele>432.66666666666663</ele><time>2026-04-18T08:35:08Z</time></trkpt><trkpt lat="43.489359706174106" lon="10.927234840093265"><ele>432.0</ele><time>2026-04-18T08:35:09Z</time></trkpt><trkpt lat="43.489391805842054" lon="10.926934108482314"><ele>429.66666666666663</ele><time>2026-04-18T08:35:10Z</time></trkpt><trkpt lat="43.48943213151312" lon="10.926637384899152"><ele>427.3333333333333</ele><time>2026-04-18T08:35:11Z</time></trkpt><trkpt lat="43.48947495165925" lon="10.926340467659156"><ele>425.0</ele><time>2026-04-18T08:35:12Z</time></trkpt><trkpt lat="43.48952284616003" lon="10.926035928313185"><ele>427.0</ele><time>2026-04-18T08:35:13Z</time></trkpt><trkpt lat="43.48956857127604" lon="10.92573597760431"><ele>429.0</ele><time>2026-04-18T08:35:14Z</time></trkpt><trkpt lat="43.489610536677915" lon="10.9254448965159"><ele>431.0</ele><time>2026-04-18T08:35:15Z</time></trkpt><trkpt lat="43.489650957722574" lon="10.92513876437687"><ele>429.0</ele><time>2026-04-18T08:35:16Z</time></trkpt><trkpt lat="43.48969099985611" lon="10.924843454876259"><ele>427.0</ele><time>2026-04-18T08:35:17Z</time></trkpt><trkpt lat="43.489735174808274" lon="10.924553860728384"><ele>425.0</ele><time>2026-04-18T08:35:18Z</time></trkpt><trkpt lat="43.48978027639779" lon="10.924293153227824"><ele>425.0</ele><time>2026-04-18T08:35:19Z</time></trkpt><trkpt lat="43.48981674171065" lon="10.924087872407352"><ele>425.0</ele><time>2026-04-18T08:35:20Z</time></trkpt><trkpt lat="43.489848355618626" lon="10.923913482302797"><ele>425.0</ele><time>2026-04-18T08:35:21Z</time></trkpt><trkpt lat="43.48986409805144" lon="10.923760443460871"><ele>425.0</ele><time>2026-04-18T08:35:22Z</time></trkpt><trkpt lat="43.48987505392762" lon="10.923631508659327"><ele>425.0</ele><time>2026-04-18T08:35:23Z</time></trkpt><trkpt lat="43.48989535129497" lon="10.923513344829576"><ele>425.0</ele><time>2026-04-18T08:35:24Z</time></trkpt><trkpt lat="43.489928554278485" lon="10.923390874951142"><ele>425.0</ele><time>2026-04-18T08:35:26Z</time></trkpt><trkpt lat="43.48998173624641" lon="10.923280505973636"><ele>425.0</ele><time>2026-04-18T08:35:30Z</time></trkpt><trkpt lat="43.48983649300321" lon="10.923510178201205"><ele>425.0</ele><time>2026-04-18T08:35:31Z</time></trkpt><trkpt lat="43.489838786852914" lon="10.923638719613535"><ele>425.0</ele><time>2026-04-18T08:35:32Z</time></trkpt><trkpt lat="43.48983225673867" lon="10.923781219390102"><ele>425.0</ele><time>2026-04-18T08:35:33Z</time></trkpt><trkpt lat="43.489809996058234" lon="10.92394328367433"><ele>425.0</ele><time>2026-04-18T08:35:34Z</time></trkpt><trkpt lat="43.48978395323575" lon="10.924120581271337"><ele>425.0</ele><time>2026-04-18T08:35:35Z</time></trkpt><trkpt lat="43.48975956915386" lon="10.924302653198183"><ele>424.99999999999994</ele><time>2026-04-18T08:35:36Z</time></trkpt><trkpt lat="43.489734311930206" lon="10.924458805787067"><ele>425.0</ele><time>2026-04-18T08:35:37Z</time></trkpt><trkpt lat="43.48970898118828" lon="10.924596512035988"><ele>425.0</ele><time>2026-04-18T08:35:38Z</time></trkpt><trkpt lat="43.489690416799576" lon="10.924708643628529"><ele>425.0</ele><time>2026-04-18T08:35:39Z</time></trkpt><trkpt lat="43.48967032845279" lon="10.924798512983333"><ele>424.99999999999994</ele><time>2026-04-18T08:35:40Z</time></trkpt><trkpt lat="43.48961066980642" lon="10.924863083829653"><ele>425.0</ele><time>2026-04-18T08:35:42Z</time></trkpt><trkpt lat="43.48952100221262" lon="10.92485370271092"><ele>423.4</ele><time>2026-04-18T08:35:44Z</time></trkpt><trkpt lat="43.48939207249107" lon="10.924896207754742"><ele>421.8</ele><time>2026-04-18T08:35:46Z</time></trkpt><trkpt lat="43.48931579362834" lon="10.924950254136899"><ele>420.20000000000005</ele><time>2026-04-18T08:35:47Z</time></trkpt><trkpt lat="43.48924562002953" lon="10.925023165841596"><ele>418.6</ele><time>2026-04-18T08:35:48Z</time></trkpt><trkpt lat="43.489196951091316" lon="10.925106168609137"><ele>417.0</ele><time>2026-04-18T08:35:49Z</time></trkpt><trkpt lat="43.48916464638511" lon="10.925204220306243"><ele>417.0</ele><time>2026-04-18T08:35:50Z</time></trkpt><trkpt lat="43.48913867200654" lon="10.925327317451677"><ele>417.0</ele><time>2026-04-18T08:35:51Z</time></trkpt><trkpt lat="43.48913136340014" lon="10.925476199600368"><ele>417.0</ele><time>2026-04-18T08:35:52Z</time></trkpt><trkpt lat="43.489138701825134" lon="10.925641185005752"><ele>417.0</ele><time>2026-04-18T08:35:53Z</time></trkpt><trkpt lat="43.489140623982784" lon="10.925790319217022"><ele>417.0</ele><time>2026-04-18T08:35:54Z</time></trkpt><trkpt lat="43.48908523168251" lon="10.925907421873449"><ele>418.6</ele><time>2026-04-18T08:35:55Z</time></trkpt><trkpt lat="43.48905792800623" lon="10.92601387712666"><ele>420.20000000000005</ele><time>2026-04-18T08:35:56Z</time></trkpt><trkpt lat="43.48901667892194" lon="10.926153135686436"><ele>421.8</ele><time>2026-04-18T08:35:57Z</time></trkpt><trkpt lat="43.48893440380118" lon="10.926258872925983"><ele>423.4</ele><time>2026-04-18T08:35:58Z</time></trkpt><trkpt lat="43.48884683610949" lon="10.926321532949462"><ele>425.0</ele><time>2026-04-18T08:35:59Z</time></trkpt><trkpt lat="43.4887530394974" lon="10.926366188346465"><ele>420.5</ele><time>2026-04-18T08:36:00Z</time></trkpt><trkpt lat="43.48864789706487" lon="10.926402940880543"><ele>416.0</ele><time>2026-04-18T08:36:01Z</time></trkpt><trkpt lat="43.48853373778522" lon="10.926440079006209"><ele>411.5</ele><time>2026-04-18T08:36:02Z</time></trkpt><trkpt lat="43.488416509670415" lon="10.92648270806725"><ele>407.0</ele><time>2026-04-18T08:36:03Z</time></trkpt><trkpt lat="43.488307778941774" lon="10.926522233564901"><ele>407.0</ele><time>2026-04-18T08:36:04Z</time></trkpt><trkpt lat="43.488214023007465" lon="10.926568946875241"><ele>407.0</ele><time>2026-04-18T08:36:05Z</time></trkpt><trkpt lat="43.48813198848643" lon="10.926630385291642"><ele>407.0</ele><time>2026-04-18T08:36:06Z</time></trkpt><trkpt lat="43.48805473417671" lon="10.926712102972532"><ele>407.0</ele><time>2026-04-18T08:36:07Z</time></trkpt><trkpt lat="43.48798026730306" lon="10.926789167908314"><ele>407.0</ele><time>2026-04-18T08:36:08Z</time></trkpt><trkpt lat="43.48793843768095" lon="10.926925508383869"><ele>404.8</ele><time>2026-04-18T08:36:09Z</time></trkpt><trkpt lat="43.48788215726907" lon="10.927045987480053"><ele>402.6</ele><time>2026-04-18T08:36:10Z</time></trkpt><trkpt lat="43.48781583298424" lon="10.92713559799431"><ele>400.40000000000003</ele><time>2026-04-18T08:36:11Z</time></trkpt><trkpt lat="43.48773826075992" lon="10.927194456973027"><ele>398.20000000000005</ele><time>2026-04-18T08:36:12Z</time></trkpt><trkpt lat="43.48766151939968" lon="10.927186350838497"><ele>396.0</ele><time>2026-04-18T08:36:13Z</time></trkpt><trkpt lat="43.48758216924007" lon="10.927135828036823"><ele>396.0</ele><time>2026-04-18T08:36:14Z</time></trkpt><trkpt lat="43.48754202894613" lon="10.927054471943059"><ele>396.0</ele><time>2026-04-18T08:36:15Z</time></trkpt><trkpt lat="43.48752427403652" lon="10.92696207242132"><ele>396.0</ele><time>2026-04-18T08:36:16Z</time></trkpt><trkpt lat="43.48753285577972" lon="10.926831424252267"><ele>396.0</ele><time>2026-04-18T08:36:17Z</time></trkpt><trkpt lat="43.487554826950486" lon="10.926729205190465"><ele>396.0</ele><time>2026-04-18T08:36:18Z</time></trkpt><trkpt lat="43.48756456623009" lon="10.926621690400825"><ele>396.0</ele><time>2026-04-18T08:36:19Z</time></trkpt><trkpt lat="43.48754375951264" lon="10.926511365247194"><ele>395.20000000000005</ele><time>2026-04-18T08:36:20Z</time></trkpt><trkpt lat="43.48749652298368" lon="10.926432824731336"><ele>394.40000000000003</ele><time>2026-04-18T08:36:21Z</time></trkpt><trkpt lat="43.48742260366623" lon="10.926372364587586"><ele>393.6</ele><time>2026-04-18T08:36:22Z</time></trkpt><trkpt lat="43.48732991487018" lon="10.926343461974191"><ele>392.8</ele><time>2026-04-18T08:36:23Z</time></trkpt><trkpt lat="43.4872248236406" lon="10.926334976582543"><ele>392.0</ele><time>2026-04-18T08:36:24Z</time></trkpt><trkpt lat="43.48710899192904" lon="10.926324376719679"><ele>388.5</ele><time>2026-04-18T08:36:25Z</time></trkpt><trkpt lat="43.48697760321292" lon="10.926307825894071"><ele>385.0</ele><time>2026-04-18T08:36:26Z</time></trkpt><trkpt lat="43.486846312329874" lon="10.926291494023616"><ele>381.5</ele><time>2026-04-18T08:36:27Z</time></trkpt><trkpt lat="43.48670362587487" lon="10.926273317384124"><ele>378.0</ele><time>2026-04-18T08:36:28Z</time></trkpt><trkpt lat="43.486585762803166" lon="10.926252090688282"><ele>378.0</ele><time>2026-04-18T08:36:29Z</time></trkpt><trkpt lat="43.48646745651245" lon="10.926228986739455"><ele>378.0</ele><time>2026-04-18T08:36:30Z</time></trkpt><trkpt lat="43.486336946410916" lon="10.926211123805308"><ele>378.0</ele><time>2026-04-18T08:36:31Z</time></trkpt><trkpt lat="43.486201624218424" lon="10.926200737384296"><ele>378.0</ele><time>2026-04-18T08:36:32Z</time></trkpt><trkpt lat="43.4860712083106" lon="10.926204177624513"><ele>377.5</ele><time>2026-04-18T08:36:33Z</time></trkpt><trkpt lat="43.48593309392139" lon="10.926219871735077"><ele>377.0</ele><time>2026-04-18T08:36:34Z</time></trkpt><trkpt lat="43.48579122723737" lon="10.926242503949371"><ele>376.5</ele><time>2026-04-18T08:36:35Z</time></trkpt><trkpt lat="43.48564293354647" lon="10.926260816959486"><ele>376.0</ele><time>2026-04-18T08:36:36Z</time></trkpt><trkpt lat="43.485508400570524" lon="10.926270274032483"><ele>374.4</ele><time>2026-04-18T08:36:37Z</time></trkpt><trkpt lat="43.485388824753834" lon="10.926272368308325"><ele>372.8</ele><time>2026-04-18T08:36:38Z</time></trkpt><trkpt lat="43.48528014840305" lon="10.92626731009537"><ele>371.2</ele><time>2026-04-18T08:36:39Z</time></trkpt><trkpt lat="43.48517851448119" lon="10.926241998873381"><ele>369.59999999999997</ele><time>2026-04-18T08:36:40Z</time></trkpt><trkpt lat="43.48507025632004" lon="10.926183428970075"><ele>368.0</ele><time>2026-04-18T08:36:41Z</time></trkpt><trkpt lat="43.484975951566845" lon="10.926094990341243"><ele>368.0</ele><time>2026-04-18T08:36:42Z</time></trkpt><trkpt lat="43.48490098144884" lon="10.925990642662248"><ele>368.0</ele><time>2026-04-18T08:36:43Z</time></trkpt><trkpt lat="43.48481419998008" lon="10.925859743449646"><ele>368.0</ele><time>2026-04-18T08:36:44Z</time></trkpt><trkpt lat="43.48472783465085" lon="10.925737589799487"><ele>368.0</ele><time>2026-04-18T08:36:45Z</time></trkpt><trkpt lat="43.484645457977045" lon="10.925638748709979"><ele>367.0</ele><time>2026-04-18T08:36:46Z</time></trkpt><trkpt lat="43.48456139332873" lon="10.925556429292973"><ele>366.0</ele><time>2026-04-18T08:36:47Z</time></trkpt><trkpt lat="43.48446489951804" lon="10.925497860856234"><ele>365.0</ele><time>2026-04-18T08:36:48Z</time></trkpt><trkpt lat="43.48437775546828" lon="10.925482030699408"><ele>364.0</ele><time>2026-04-18T08:36:49Z</time></trkpt><trkpt lat="43.48426723107722" lon="10.92548668798932"><ele>363.0</ele><time>2026-04-18T08:36:50Z</time></trkpt><trkpt lat="43.48415283668202" lon="10.925511492076385"><ele>363.0</ele><time>2026-04-18T08:36:51Z</time></trkpt><trkpt lat="43.48405336881578" lon="10.925555923867293"><ele>363.0</ele><time>2026-04-18T08:36:52Z</time></trkpt><trkpt lat="43.48395252906429" lon="10.925608453864033"><ele>363.0</ele><time>2026-04-18T08:36:53Z</time></trkpt><trkpt lat="43.48384638544004" lon="10.92568858482081"><ele>363.0</ele><time>2026-04-18T08:36:54Z</time></trkpt><trkpt lat="43.48374206267526" lon="10.925799757315216"><ele>360.5</ele><time>2026-04-18T08:36:55Z</time></trkpt><trkpt lat="43.48363596845493" lon="10.925929167980907"><ele>358.0</ele><time>2026-04-18T08:36:56Z</time></trkpt><trkpt lat="43.483551050013894" lon="10.926028681702622"><ele>355.5</ele><time>2026-04-18T08:36:57Z</time></trkpt><trkpt lat="43.4834636187084" lon="10.926129541803078"><ele>353.0</ele><time>2026-04-18T08:36:58Z</time></trkpt><trkpt lat="43.483364464694645" lon="10.926218884392572"><ele>353.0</ele><time>2026-04-18T08:36:59Z</time></trkpt><trkpt lat="43.48324651123269" lon="10.926294944342668"><ele>353.0</ele><time>2026-04-18T08:37:00Z</time></trkpt><trkpt lat="43.4831197108753" lon="10.926356647381578"><ele>353.0</ele><time>2026-04-18T08:37:01Z</time></trkpt><trkpt lat="43.48299281111256" lon="10.926405119868326"><ele>353.0</ele><time>2026-04-18T08:37:02Z</time></trkpt><trkpt lat="43.4828665058544" lon="10.926442553248489"><ele>352.75</ele><time>2026-04-18T08:37:03Z</time></trkpt><trkpt lat="43.482728917264986" lon="10.926487377511288"><ele>352.5</ele><time>2026-04-18T08:37:04Z</time></trkpt><trkpt lat="43.4825879632779" lon="10.926545053105093"><ele>352.25</ele><time>2026-04-18T08:37:05Z</time></trkpt><trkpt lat="43.48247605937158" lon="10.92659685767492"><ele>352.0</ele><time>2026-04-18T08:37:06Z</time></trkpt><trkpt lat="43.482377792218884" lon="10.926665679018287"><ele>351.75</ele><time>2026-04-18T08:37:07Z</time></trkpt><trkpt lat="43.482293730245374" lon="10.92674321813828"><ele>351.5</ele><time>2026-04-18T08:37:08Z</time></trkpt><trkpt lat="43.482206631006854" lon="10.926840806485641"><ele>351.25</ele><time>2026-04-18T08:37:09Z</time></trkpt><trkpt lat="43.48210898973692" lon="10.926971198216386"><ele>351.0</ele><time>2026-04-18T08:37:10Z</time></trkpt><trkpt lat="43.48201712743089" lon="10.92710844847665"><ele>350.20000000000005</ele><time>2026-04-18T08:37:11Z</time></trkpt><trkpt lat="43.48192495070678" lon="10.927227677855706"><ele>349.40000000000003</ele><time>2026-04-18T08:37:12Z</time></trkpt><trkpt lat="43.48183461965662" lon="10.927310117953699"><ele>348.6</ele><time>2026-04-18T08:37:13Z</time></trkpt><trkpt lat="43.48173820475139" lon="10.927353994807453"><ele>347.8</ele><time>2026-04-18T08:37:14Z</time></trkpt><trkpt lat="43.481642752983696" lon="10.927374094260838"><ele>347.0</ele><time>2026-04-18T08:37:15Z</time></trkpt><trkpt lat="43.48154621556049" lon="10.927374494501137"><ele>347.0</ele><time>2026-04-18T08:37:16Z</time></trkpt><trkpt lat="43.481430049636316" lon="10.927360018301371"><ele>347.0</ele><time>2026-04-18T08:37:17Z</time></trkpt><trkpt lat="43.4813123589631" lon="10.927335097221274"><ele>347.0</ele><time>2026-04-18T08:37:18Z</time></trkpt><trkpt lat="43.481181180093095" lon="10.927301539783203"><ele>347.0</ele><time>2026-04-18T08:37:19Z</time></trkpt><trkpt lat="43.48105105617605" lon="10.927273102131121"><ele>346.25</ele><time>2026-04-18T08:37:20Z</time></trkpt><trkpt lat="43.48090785832857" lon="10.927245947059212"><ele>345.5</ele><time>2026-04-18T08:37:21Z</time></trkpt><trkpt lat="43.480757933543416" lon="10.92721777095831"><ele>344.75</ele><time>2026-04-18T08:37:22Z</time></trkpt><trkpt lat="43.48060940876769" lon="10.927194809960087"><ele>344.0</ele><time>2026-04-18T08:37:23Z</time></trkpt><trkpt lat="43.480443832638464" lon="10.927173797888127"><ele>343.5</ele><time>2026-04-18T08:37:24Z</time></trkpt><trkpt lat="43.480281822755614" lon="10.927156432566722"><ele>343.0</ele><time>2026-04-18T08:37:25Z</time></trkpt><trkpt lat="43.48014718172479" lon="10.927161181573794"><ele>342.5</ele><time>2026-04-18T08:37:26Z</time></trkpt><trkpt lat="43.48001604601248" lon="10.927165544411652"><ele>342.0</ele><time>2026-04-18T08:37:27Z</time></trkpt><trkpt lat="43.47989412041994" lon="10.927160734530585"><ele>342.0</ele><time>2026-04-18T08:37:28Z</time></trkpt><trkpt lat="43.47963630348419" lon="10.927158319119735"><ele>342.0</ele><time>2026-04-18T08:37:29Z</time></trkpt><trkpt lat="43.479468083190945" lon="10.927169530384848"><ele>342.0</ele><time>2026-04-18T08:37:30Z</time></trkpt><trkpt lat="43.479312280135005" lon="10.927181887483348"><ele>341.25</ele><time>2026-04-18T08:37:31Z</time></trkpt><trkpt lat="43.47916110818844" lon="10.92719155456114"><ele>340.5</ele><time>2026-04-18T08:37:32Z</time></trkpt><trkpt lat="43.47900983809426" lon="10.92720164272261"><ele>339.75</ele><time>2026-04-18T08:37:33Z</time></trkpt><trkpt lat="43.478869300414836" lon="10.927201747282993"><ele>339.0</ele><time>2026-04-18T08:37:34Z</time></trkpt><trkpt lat="43.47880400122607" lon="10.927179540446529"><ele>337.0</ele><time>2026-04-18T08:37:35Z</time></trkpt><trkpt lat="43.47864366906745" lon="10.927125992539747"><ele>335.0</ele><time>2026-04-18T08:37:36Z</time></trkpt><trkpt lat="43.47850528663601" lon="10.927059359796308"><ele>333.0</ele><time>2026-04-18T08:37:37Z</time></trkpt><trkpt lat="43.478357345850476" lon="10.926988193569947"><ele>333.0</ele><time>2026-04-18T08:37:38Z</time></trkpt><trkpt lat="43.478203358398474" lon="10.926916451589943"><ele>333.0</ele><time>2026-04-18T08:37:39Z</time></trkpt><trkpt lat="43.47804190717516" lon="10.92684217326861"><ele>333.0</ele><time>2026-04-18T08:37:40Z</time></trkpt><trkpt lat="43.47787353361744" lon="10.92676687623157"><ele>334.3333333333333</ele><time>2026-04-18T08:37:41Z</time></trkpt><trkpt lat="43.4777013874926" lon="10.92669952199773"><ele>335.66666666666663</ele><time>2026-04-18T08:37:42Z</time></trkpt><trkpt lat="43.47753652408116" lon="10.92662389209538"><ele>337.0</ele><time>2026-04-18T08:37:43Z</time></trkpt><trkpt lat="43.47739329862663" lon="10.926547353715954"><ele>337.0</ele><time>2026-04-18T08:37:44Z</time></trkpt><trkpt lat="43.47725627432145" lon="10.9264573827806"><ele>337.0</ele><time>2026-04-18T08:37:45Z</time></trkpt><trkpt lat="43.47711340911396" lon="10.926358205342785"><ele>337.0</ele><time>2026-04-18T08:37:46Z</time></trkpt><trkpt lat="43.476968107800246" lon="10.926254531436854"><ele>333.0</ele><time>2026-04-18T08:37:47Z</time></trkpt><trkpt lat="43.47682270384694" lon="10.926153449480335"><ele>329.0</ele><time>2026-04-18T08:37:48Z</time></trkpt><trkpt lat="43.47667950653742" lon="10.926057211678309"><ele>325.0</ele><time>2026-04-18T08:37:49Z</time></trkpt><trkpt lat="43.476552973203106" lon="10.925974682953216"><ele>325.0</ele><time>2026-04-18T08:37:50Z</time></trkpt><trkpt lat="43.47644212362906" lon="10.925900255708113"><ele>325.0</ele><time>2026-04-18T08:37:51Z</time></trkpt><trkpt lat="43.476326626739514" lon="10.925827366571657"><ele>325.0</ele><time>2026-04-18T08:37:52Z</time></trkpt><trkpt lat="43.4762110181246" lon="10.925759594862122"><ele>325.0</ele><time>2026-04-18T08:37:53Z</time></trkpt><trkpt lat="43.47607874264148" lon="10.92573129062737"><ele>325.0</ele><time>2026-04-18T08:37:54Z</time></trkpt><trkpt lat="43.47595762669924" lon="10.925722072399385"><ele>325.0</ele><time>2026-04-18T08:37:55Z</time></trkpt><trkpt lat="43.475853492773" lon="10.925728555935033"><ele>325.0</ele><time>2026-04-18T08:37:56Z</time></trkpt><trkpt lat="43.475727198303744" lon="10.92575430328914"><ele>325.0</ele><time>2026-04-18T08:37:57Z</time></trkpt><trkpt lat="43.47558697274756" lon="10.92579621554477"><ele>323.0</ele><time>2026-04-18T08:37:58Z</time></trkpt><trkpt lat="43.4754276808995" lon="10.92584106578005"><ele>321.0</ele><time>2026-04-18T08:37:59Z</time></trkpt><trkpt lat="43.47526308056212" lon="10.925884370928742"><ele>319.0</ele><time>2026-04-18T08:38:00Z</time></trkpt><trkpt lat="43.475107892533316" lon="10.925930578108815"><ele>314.25</ele><time>2026-04-18T08:38:01Z</time></trkpt><trkpt lat="43.47496031436198" lon="10.925974241394272"><ele>309.5</ele><time>2026-04-18T08:38:02Z</time></trkpt><trkpt lat="43.474826301206896" lon="10.926009407100942"><ele>304.75</ele><time>2026-04-18T08:38:03Z</time></trkpt><trkpt lat="43.474688837151895" lon="10.926034877711869"><ele>300.0</ele><time>2026-04-18T08:38:04Z</time></trkpt><trkpt lat="43.47456996079729" lon="10.926046295067787"><ele>301.1666666666667</ele><time>2026-04-18T08:38:05Z</time></trkpt><trkpt lat="43.47447353126271" lon="10.926019304066651"><ele>302.3333333333333</ele><time>2026-04-18T08:38:06Z</time></trkpt><trkpt lat="43.47439009429463" lon="10.926016109734563"><ele>303.5</ele><time>2026-04-18T08:38:08Z</time></trkpt><trkpt lat="43.47432809890636" lon="10.925974634053711"><ele>304.66666666666663</ele><time>2026-04-18T08:38:16Z</time></trkpt><trkpt lat="43.474266873212834" lon="10.925943037813619"><ele>305.8333333333333</ele><time>2026-04-18T08:46:15Z</time></trkpt><trkpt lat="43.47420489279701" lon="10.925860549602296"><ele>307.0</ele><time>2026-04-18T08:46:17Z</time></trkpt><trkpt lat="43.474098857655804" lon="10.925744627335439"><ele>307.0</ele><time>2026-04-18T08:46:19Z</time></trkpt><trkpt lat="43.47402807886749" lon="10.925658607547216"><ele>307.0</ele><time>2026-04-18T08:46:20Z</time></trkpt><trkpt lat="43.473953690341204" lon="10.925564259698971"><ele>307.0</ele><time>2026-04-18T08:46:21Z</time></trkpt><trkpt lat="43.4738826586263" lon="10.925467533541179"><ele>307.0</ele><time>2026-04-18T08:46:22Z</time></trkpt><trkpt lat="43.47380075642313" lon="10.925354488922183"><ele>307.0</ele><time>2026-04-18T08:46:23Z</time></trkpt><trkpt lat="43.473720958966496" lon="10.925234973147115"><ele>305.0</ele><time>2026-04-18T08:46:24Z</time></trkpt><trkpt lat="43.47364309489735" lon="10.925103493772326"><ele>303.0</ele><time>2026-04-18T08:46:25Z</time></trkpt><trkpt lat="43.473562327402426" lon="10.924940735527226"><ele>301.0</ele><time>2026-04-18T08:46:26Z</time></trkpt><trkpt lat="43.47347181918879" lon="10.924765171324637"><ele>299.0</ele><time>2026-04-18T08:46:27Z</time></trkpt><trkpt lat="43.473426981625636" lon="10.924629980880997"><ele>299.0</ele><time>2026-04-18T08:46:28Z</time></trkpt><trkpt lat="43.47338758066021" lon="10.924518477152782"><ele>299.0</ele><time>2026-04-18T08:46:29Z</time></trkpt><trkpt lat="43.47329100261691" lon="10.924395714619324"><ele>299.0</ele><time>2026-04-18T08:46:30Z</time></trkpt><trkpt lat="43.47319979796585" lon="10.924294415318144"><ele>299.0</ele><time>2026-04-18T08:46:31Z</time></trkpt><trkpt lat="43.47309510432472" lon="10.924205130408154"><ele>301.0</ele><time>2026-04-18T08:46:32Z</time></trkpt><trkpt lat="43.47297896831902" lon="10.924116830194686"><ele>303.0</ele><time>2026-04-18T08:46:33Z</time></trkpt><trkpt lat="43.47285093899809" lon="10.924021086356507"><ele>305.0</ele><time>2026-04-18T08:46:34Z</time></trkpt><trkpt lat="43.47272239606271" lon="10.923916307016245"><ele>307.0</ele><time>2026-04-18T08:46:35Z</time></trkpt><trkpt lat="43.47258430155763" lon="10.923809524448108"><ele>302.5</ele><time>2026-04-18T08:46:36Z</time></trkpt><trkpt lat="43.4724636535216" lon="10.923714581792085"><ele>298.0</ele><time>2026-04-18T08:46:37Z</time></trkpt><trkpt lat="43.472353482088074" lon="10.923625543288683"><ele>293.5</ele><time>2026-04-18T08:46:38Z</time></trkpt><trkpt lat="43.472252921906126" lon="10.92353038076336"><ele>289.0</ele><time>2026-04-18T08:46:39Z</time></trkpt><trkpt lat="43.47218641566141" lon="10.923446458195107"><ele>289.8</ele><time>2026-04-18T08:46:40Z</time></trkpt><trkpt lat="43.472165389992995" lon="10.923363199036443"><ele>290.59999999999997</ele><time>2026-04-18T08:46:41Z</time></trkpt><trkpt lat="43.47212716323812" lon="10.92324230196022"><ele>291.4</ele><time>2026-04-18T08:46:42Z</time></trkpt><trkpt lat="43.47212414295822" lon="10.923130226701774"><ele>292.2</ele><time>2026-04-18T08:46:43Z</time></trkpt><trkpt lat="43.47215123821199" lon="10.922998350277911"><ele>293.0</ele><time>2026-04-18T08:46:44Z</time></trkpt><trkpt lat="43.47220491682354" lon="10.922860485023604"><ele>293.0</ele><time>2026-04-18T08:46:45Z</time></trkpt><trkpt lat="43.47233316824073" lon="10.922708315043403"><ele>293.0</ele><time>2026-04-18T08:46:47Z</time></trkpt><trkpt lat="43.472439124948394" lon="10.922588160028228"><ele>293.0</ele><time>2026-04-18T08:46:48Z</time></trkpt><trkpt lat="43.472558787463" lon="10.92247034048468"><ele>293.5</ele><time>2026-04-18T08:46:49Z</time></trkpt><trkpt lat="43.47267218869008" lon="10.922345337050407"><ele>294.0</ele><time>2026-04-18T08:46:50Z</time></trkpt><trkpt lat="43.472783443550526" lon="10.922204262790068"><ele>294.5</ele><time>2026-04-18T08:46:51Z</time></trkpt><trkpt lat="43.47289140609705" lon="10.922073022450798"><ele>295.0</ele><time>2026-04-18T08:46:52Z</time></trkpt><trkpt lat="43.47298174433929" lon="10.921943462022135"><ele>295.0</ele><time>2026-04-18T08:46:53Z</time></trkpt><trkpt lat="43.47306974679151" lon="10.921798352486109"><ele>295.0</ele><time>2026-04-18T08:46:54Z</time></trkpt><trkpt lat="43.47313733004279" lon="10.921665553840766"><ele>295.0</ele><time>2026-04-18T08:46:55Z</time></trkpt><trkpt lat="43.473220436052124" lon="10.921546558126778"><ele>295.0</ele><time>2026-04-18T08:46:56Z</time></trkpt><trkpt lat="43.473293215723395" lon="10.921414235278732"><ele>291.25</ele><time>2026-04-18T08:46:57Z</time></trkpt><trkpt lat="43.47333554975913" lon="10.921255597887534"><ele>287.5</ele><time>2026-04-18T08:46:58Z</time></trkpt><trkpt lat="43.473374997161855" lon="10.921081470527408"><ele>283.75</ele><time>2026-04-18T08:46:59Z</time></trkpt><trkpt lat="43.47341522024862" lon="10.920903300435851"><ele>280.0</ele><time>2026-04-18T08:47:00Z</time></trkpt><trkpt lat="43.47342598114784" lon="10.920730832728303"><ele>278.0</ele><time>2026-04-18T08:47:01Z</time></trkpt><trkpt lat="43.47343400577339" lon="10.920579979000513"><ele>276.0</ele><time>2026-04-18T08:47:02Z</time></trkpt><trkpt lat="43.473440134516096" lon="10.920441944640306"><ele>274.0</ele><time>2026-04-18T08:47:03Z</time></trkpt><trkpt lat="43.47343369078276" lon="10.920300914412822"><ele>272.0</ele><time>2026-04-18T08:47:04Z</time></trkpt><trkpt lat="43.47340605682321" lon="10.920175610630798"><ele>270.0</ele><time>2026-04-18T08:47:05Z</time></trkpt><trkpt lat="43.47336843008818" lon="10.920061152706142"><ele>268.6</ele><time>2026-04-18T08:47:06Z</time></trkpt><trkpt lat="43.47331663885788" lon="10.919953652194991"><ele>267.2</ele><time>2026-04-18T08:47:06.999Z</time></trkpt><trkpt lat="43.47316750771846" lon="10.919828579017667"><ele>265.8</ele><time>2026-04-18T08:47:07.999Z</time></trkpt><trkpt lat="43.47308781133182" lon="10.919744230669368"><ele>264.4</ele><time>2026-04-18T08:47:08.999Z</time></trkpt><trkpt lat="43.47304172459447" lon="10.919675430816255"><ele>263.0</ele><time>2026-04-18T08:47:09.999Z</time></trkpt><trkpt lat="43.472978590416666" lon="10.919581291297291"><ele>262.25</ele><time>2026-04-18T08:47:10.999Z</time></trkpt><trkpt lat="43.47293918538347" lon="10.919439874847864"><ele>261.5</ele><time>2026-04-18T08:47:11.999Z</time></trkpt><trkpt lat="43.472923653302374" lon="10.919293385917653"><ele>260.75</ele><time>2026-04-18T08:47:12.999Z</time></trkpt><trkpt lat="43.472897336943525" lon="10.919135570846244"><ele>260.0</ele><time>2026-04-18T08:47:13.999Z</time></trkpt><trkpt lat="43.47289003029966" lon="10.918969242337138"><ele>258.8</ele><time>2026-04-18T08:47:14.999Z</time></trkpt><trkpt lat="43.47286975902173" lon="10.918805784722664"><ele>257.6</ele><time>2026-04-18T08:47:15.999Z</time></trkpt><trkpt lat="43.472832813131646" lon="10.918667418513259"><ele>256.4</ele><time>2026-04-18T08:47:16.999Z</time></trkpt><trkpt lat="43.472785028555734" lon="10.918548268343734"><ele>255.2</ele><time>2026-04-18T08:47:17.999Z</time></trkpt><trkpt lat="43.47272716039516" lon="10.918430033665258"><ele>254.0</ele><time>2026-04-18T08:47:18.999Z</time></trkpt><trkpt lat="43.47266396787259" lon="10.918295592086293"><ele>252.5</ele><time>2026-04-18T08:47:19.999Z</time></trkpt><trkpt lat="43.4725876174399" lon="10.91814588923672"><ele>251.0</ele><time>2026-04-18T08:47:20.999Z</time></trkpt><trkpt lat="43.47251329777283" lon="10.917997974831133"><ele>249.5</ele><time>2026-04-18T08:47:21.999Z</time></trkpt><trkpt lat="43.472449733944835" lon="10.917865550293705"><ele>248.0</ele><time>2026-04-18T08:47:22.999Z</time></trkpt><trkpt lat="43.47238590750391" lon="10.917734577154448"><ele>248.0</ele><time>2026-04-18T08:47:23.999Z</time></trkpt><trkpt lat="43.47231951531058" lon="10.917600920362961"><ele>248.0</ele><time>2026-04-18T08:47:24.999Z</time></trkpt><trkpt lat="43.47225201172148" lon="10.917484549271672"><ele>248.0</ele><time>2026-04-18T08:47:25.999Z</time></trkpt><trkpt lat="43.47218336410561" lon="10.91738197470271"><ele>248.0</ele><time>2026-04-18T08:47:26.999Z</time></trkpt><trkpt lat="43.47210977472217" lon="10.917317316359739"><ele>248.0</ele><time>2026-04-18T08:47:27.999Z</time></trkpt><trkpt lat="43.47201510833104" lon="10.917257397246217"><ele>246.4</ele><time>2026-04-18T08:47:28.999Z</time></trkpt><trkpt lat="43.4719136287473" lon="10.917205139304752"><ele>244.8</ele><time>2026-04-18T08:47:29.999Z</time></trkpt><trkpt lat="43.471818417803725" lon="10.917165549911449"><ele>243.2</ele><time>2026-04-18T08:47:30.999Z</time></trkpt><trkpt lat="43.47173381875946" lon="10.917157327145734"><ele>241.6</ele><time>2026-04-18T08:47:31.999Z</time></trkpt><trkpt lat="43.47164602741961" lon="10.917143507035274"><ele>240.0</ele><time>2026-04-18T08:47:32.999Z</time></trkpt><trkpt lat="43.47155681784574" lon="10.917172185121768"><ele>240.0</ele><time>2026-04-18T08:47:33.999Z</time></trkpt><trkpt lat="43.47144648591686" lon="10.917245744968255"><ele>240.0</ele><time>2026-04-18T08:47:34.999Z</time></trkpt><trkpt lat="43.47134668818778" lon="10.9173569241916"><ele>240.0</ele><time>2026-04-18T08:47:35.999Z</time></trkpt><trkpt lat="43.47124555983604" lon="10.917460814651896"><ele>240.0</ele><time>2026-04-18T08:47:36.999Z</time></trkpt><trkpt lat="43.47113200951071" lon="10.917587202361824"><ele>239.33333333333331</ele><time>2026-04-18T08:47:37.999Z</time></trkpt><trkpt lat="43.47100795616892" lon="10.917716343445605"><ele>238.66666666666666</ele><time>2026-04-18T08:47:38.999Z</time></trkpt><trkpt lat="43.47088689549357" lon="10.917838854759607"><ele>238.0</ele><time>2026-04-18T08:47:39.999Z</time></trkpt><trkpt lat="43.470765657146025" lon="10.917968721073105"><ele>238.0</ele><time>2026-04-18T08:47:40.999Z</time></trkpt><trkpt lat="43.470648532832605" lon="10.918085956366932"><ele>238.0</ele><time>2026-04-18T08:47:41.999Z</time></trkpt><trkpt lat="43.470523232422906" lon="10.918192795164087"><ele>238.0</ele><time>2026-04-18T08:47:42.999Z</time></trkpt><trkpt lat="43.47041124648902" lon="10.918311214181108"><ele>238.0</ele><time>2026-04-18T08:47:43.999Z</time></trkpt><trkpt lat="43.47031151832445" lon="10.918413806581539"><ele>236.99999999999997</ele><time>2026-04-18T08:47:44.999Z</time></trkpt><trkpt lat="43.470234227838574" lon="10.918505446640626"><ele>236.0</ele><time>2026-04-18T08:47:45.999Z</time></trkpt><trkpt lat="43.470154660715714" lon="10.918545059386519"><ele>235.0</ele><time>2026-04-18T08:47:46.999Z</time></trkpt><trkpt lat="43.470085881246355" lon="10.918509211100513"><ele>234.0</ele><time>2026-04-18T08:47:48Z</time></trkpt><trkpt lat="43.470000131990815" lon="10.91849492739507"><ele>232.99999999999997</ele><time>2026-04-18T08:47:49Z</time></trkpt><trkpt lat="43.46993975484168" lon="10.918420322329982"><ele>232.0</ele><time>2026-04-18T08:47:50Z</time></trkpt><trkpt lat="43.46990166683083" lon="10.918321376626777"><ele>230.8</ele><time>2026-04-18T08:47:51Z</time></trkpt><trkpt lat="43.469905021921676" lon="10.918230264758522"><ele>229.6</ele><time>2026-04-18T08:47:52Z</time></trkpt><trkpt lat="43.46990405709604" lon="10.918106613789538"><ele>228.40000000000003</ele><time>2026-04-18T08:47:53Z</time></trkpt><trkpt lat="43.4699243903953" lon="10.917976295508693"><ele>227.20000000000002</ele><time>2026-04-18T08:47:54Z</time></trkpt><trkpt lat="43.46995496513981" lon="10.917839019225475"><ele>226.0</ele><time>2026-04-18T08:47:55Z</time></trkpt><trkpt lat="43.4699826205864" lon="10.917711663568754"><ele>225.99999999999997</ele><time>2026-04-18T08:47:56Z</time></trkpt><trkpt lat="43.469990000953764" lon="10.91758969568848"><ele>226.0</ele><time>2026-04-18T08:47:57Z</time></trkpt><trkpt lat="43.469975346962386" lon="10.917471067748117"><ele>226.0</ele><time>2026-04-18T08:47:58Z</time></trkpt><trkpt lat="43.469942565389275" lon="10.917359136279133"><ele>226.0</ele><time>2026-04-18T08:47:59Z</time></trkpt><trkpt lat="43.469886421746786" lon="10.917283014505914"><ele>225.99999999999997</ele><time>2026-04-18T08:48:00Z</time></trkpt><trkpt lat="43.46980064623609" lon="10.917221681952153"><ele>226.0</ele><time>2026-04-18T08:48:02Z</time></trkpt><trkpt lat="43.469676547336086" lon="10.917202406847355"><ele>222.0</ele><time>2026-04-18T08:48:03Z</time></trkpt><trkpt lat="43.46954618349883" lon="10.917197207780383"><ele>218.0</ele><time>2026-04-18T08:48:04Z</time></trkpt><trkpt lat="43.46940429723852" lon="10.91720381873767"><ele>214.0</ele><time>2026-04-18T08:48:05Z</time></trkpt><trkpt lat="43.46927254576255" lon="10.917199065159622"><ele>210.0</ele><time>2026-04-18T08:48:06Z</time></trkpt><trkpt lat="43.46913595374422" lon="10.917201452053101"><ele>210.0</ele><time>2026-04-18T08:48:07Z</time></trkpt><trkpt lat="43.46898713004057" lon="10.917203540820495"><ele>210.0</ele><time>2026-04-18T08:48:08Z</time></trkpt><trkpt lat="43.468839850807235" lon="10.917204316962703"><ele>210.0</ele><time>2026-04-18T08:48:09Z</time></trkpt><trkpt lat="43.468701849128955" lon="10.91720371655123"><ele>210.0</ele><time>2026-04-18T08:48:10Z</time></trkpt><trkpt lat="43.46855796551578" lon="10.917219066115994"><ele>208.25</ele><time>2026-04-18T08:48:11Z</time></trkpt><trkpt lat="43.46841138004841" lon="10.91719614765995"><ele>206.5</ele><time>2026-04-18T08:48:12Z</time></trkpt><trkpt lat="43.46827850880466" lon="10.917158085316542"><ele>204.75</ele><time>2026-04-18T08:48:13Z</time></trkpt><trkpt lat="43.46815780863123" lon="10.917095236452417"><ele>203.0</ele><time>2026-04-18T08:48:14Z</time></trkpt><trkpt lat="43.46803153079727" lon="10.91701160476794"><ele>202.25</ele><time>2026-04-18T08:48:15Z</time></trkpt><trkpt lat="43.46792187480538" lon="10.916920564142806"><ele>201.5</ele><time>2026-04-18T08:48:16Z</time></trkpt><trkpt lat="43.46782582584352" lon="10.916820157615104"><ele>200.75</ele><time>2026-04-18T08:48:17Z</time></trkpt><trkpt lat="43.46775625511147" lon="10.916707366756038"><ele>200.0</ele><time>2026-04-18T08:48:18Z</time></trkpt><trkpt lat="43.46770872555048" lon="10.916584644329191"><ele>199.2</ele><time>2026-04-18T08:48:19Z</time></trkpt><trkpt lat="43.4676872079714" lon="10.916455229285118"><ele>198.4</ele><time>2026-04-18T08:48:20Z</time></trkpt><trkpt lat="43.46768761840757" lon="10.91631602958058"><ele>197.60000000000002</ele><time>2026-04-18T08:48:21Z</time></trkpt><trkpt lat="43.46770658298526" lon="10.916188343477542"><ele>196.8</ele><time>2026-04-18T08:48:22Z</time></trkpt><trkpt lat="43.46773272415164" lon="10.916038795444656"><ele>196.0</ele><time>2026-04-18T08:48:23Z</time></trkpt><trkpt lat="43.4677712172422" lon="10.915865264956679"><ele>194.5</ele><time>2026-04-18T08:48:24Z</time></trkpt><trkpt lat="43.467813460872755" lon="10.91567971047282"><ele>193.0</ele><time>2026-04-18T08:48:25Z</time></trkpt><trkpt lat="43.46784749577228" lon="10.91550331732253"><ele>191.5</ele><time>2026-04-18T08:48:26Z</time></trkpt><trkpt lat="43.46786843911265" lon="10.915345051527424"><ele>190.0</ele><time>2026-04-18T08:48:27Z</time></trkpt><trkpt lat="43.467875702632384" lon="10.915194730058033"><ele>189.25</ele><time>2026-04-18T08:48:28Z</time></trkpt><trkpt lat="43.4678686708357" lon="10.915031682967182"><ele>188.5</ele><time>2026-04-18T08:48:29Z</time></trkpt><trkpt lat="43.46785150280971" lon="10.914851301261368"><ele>187.75</ele><time>2026-04-18T08:48:30Z</time></trkpt><trkpt lat="43.46783426117783" lon="10.914653211523577"><ele>187.0</ele><time>2026-04-18T08:48:31Z</time></trkpt><trkpt lat="43.46781404870474" lon="10.914450812993998"><ele>187.0</ele><time>2026-04-18T08:48:32Z</time></trkpt><trkpt lat="43.467793401524965" lon="10.914245530252476"><ele>187.0</ele><time>2026-04-18T08:48:33Z</time></trkpt><trkpt lat="43.46776901270058" lon="10.914043131091525"><ele>187.0</ele><time>2026-04-18T08:48:34Z</time></trkpt><trkpt lat="43.46774614371389" lon="10.913837058041278"><ele>186.75</ele><time>2026-04-18T08:48:35Z</time></trkpt><trkpt lat="43.4677246534191" lon="10.913648656816106"><ele>186.5</ele><time>2026-04-18T08:48:36Z</time></trkpt><trkpt lat="43.46769840452073" lon="10.913487725882037"><ele>186.25</ele><time>2026-04-18T08:48:37Z</time></trkpt><trkpt lat="43.467667944919576" lon="10.913341949890127"><ele>186.0</ele><time>2026-04-18T08:48:38Z</time></trkpt><trkpt lat="43.46763223520282" lon="10.913215844773582"><ele>185.60000000000002</ele><time>2026-04-18T08:48:39Z</time></trkpt><trkpt lat="43.467595579895125" lon="10.913123313917914"><ele>185.2</ele><time>2026-04-18T08:48:40Z</time></trkpt><trkpt lat="43.46748969463918" lon="10.913038106110193"><ele>184.8</ele><time>2026-04-18T08:48:42Z</time></trkpt><trkpt lat="43.467413083655394" lon="10.91302257864166"><ele>184.39999999999998</ele><time>2026-04-18T08:48:43Z</time></trkpt><trkpt lat="43.467335079694756" lon="10.913028811179725"><ele>184.0</ele><time>2026-04-18T08:48:44Z</time></trkpt><trkpt lat="43.467240920676595" lon="10.91305075836308"><ele>184.0</ele><time>2026-04-18T08:48:45Z</time></trkpt><trkpt lat="43.4671521023253" lon="10.9130878798824"><ele>184.0</ele><time>2026-04-18T08:48:46Z</time></trkpt><trkpt lat="43.46705688669173" lon="10.913109811442869"><ele>184.0</ele><time>2026-04-18T08:48:47Z</time></trkpt><trkpt lat="43.46695889314226" lon="10.913146466234306"><ele>184.0</ele><time>2026-04-18T08:48:48Z</time></trkpt><trkpt lat="43.466856523209884" lon="10.913194467117314"><ele>184.0</ele><time>2026-04-18T08:48:49Z</time></trkpt><trkpt lat="43.46674873930778" lon="10.913193049927099"><ele>185.0</ele><time>2026-04-18T08:48:50Z</time></trkpt><trkpt lat="43.46663147932721" lon="10.913172422026966"><ele>186.0</ele><time>2026-04-18T08:48:51Z</time></trkpt><trkpt lat="43.466496355721816" lon="10.913144578262257"><ele>187.0</ele><time>2026-04-18T08:48:52Z</time></trkpt><trkpt lat="43.466380615030566" lon="10.913117475789452"><ele>188.0</ele><time>2026-04-18T08:48:53Z</time></trkpt><trkpt lat="43.466255432141075" lon="10.913096913465132"><ele>189.0</ele><time>2026-04-18T08:48:54Z</time></trkpt><trkpt lat="43.4661193990651" lon="10.91307037877877"><ele>190.0</ele><time>2026-04-18T08:48:55Z</time></trkpt><trkpt lat="43.46596190045815" lon="10.913040739083158"><ele>191.0</ele><time>2026-04-18T08:48:56Z</time></trkpt><trkpt lat="43.46581693698715" lon="10.91301849576839"><ele>192.0</ele><time>2026-04-18T08:48:57Z</time></trkpt><trkpt lat="43.465683157623324" lon="10.913005371572584"><ele>192.0</ele><time>2026-04-18T08:48:58Z</time></trkpt><trkpt lat="43.46556368495607" lon="10.91301446243635"><ele>192.0</ele><time>2026-04-18T08:48:59Z</time></trkpt><trkpt lat="43.465446141756416" lon="10.913050539337952"><ele>192.0</ele><time>2026-04-18T08:49:00Z</time></trkpt><trkpt lat="43.46534630105738" lon="10.913083953703026"><ele>192.0</ele><time>2026-04-18T08:49:01Z</time></trkpt><trkpt lat="43.46521372121551" lon="10.913169830656113"><ele>193.33333333333331</ele><time>2026-04-18T08:49:02Z</time></trkpt><trkpt lat="43.46508831304816" lon="10.913299511389976"><ele>194.66666666666666</ele><time>2026-04-18T08:49:03Z</time></trkpt><trkpt lat="43.46497572939237" lon="10.91344587951951"><ele>196.0</ele><time>2026-04-18T08:49:04Z</time></trkpt><trkpt lat="43.46485966109292" lon="10.913588437531619"><ele>196.0</ele><time>2026-04-18T08:49:05Z</time></trkpt><trkpt lat="43.464746247733096" lon="10.913720679560132"><ele>196.0</ele><time>2026-04-18T08:49:06Z</time></trkpt><trkpt lat="43.46463354927067" lon="10.913842962334451"><ele>196.0</ele><time>2026-04-18T08:49:07Z</time></trkpt><trkpt lat="43.464526954451806" lon="10.91393556119841"><ele>196.0</ele><time>2026-04-18T08:49:08Z</time></trkpt><trkpt lat="43.46442547404744" lon="10.913991543407246"><ele>195.0</ele><time>2026-04-18T08:49:09Z</time></trkpt><trkpt lat="43.46432353756034" lon="10.913999705224235"><ele>194.0</ele><time>2026-04-18T08:49:10Z</time></trkpt><trkpt lat="43.46422548765325" lon="10.913970221300339"><ele>193.0</ele><time>2026-04-18T08:49:11Z</time></trkpt><trkpt lat="43.46411978454895" lon="10.913914343762118"><ele>192.0</ele><time>2026-04-18T08:49:12Z</time></trkpt><trkpt lat="43.46401821794798" lon="10.913839419869594"><ele>191.0</ele><time>2026-04-18T08:49:12.998Z</time></trkpt><trkpt lat="43.4639248789907" lon="10.913784741773835"><ele>191.0</ele><time>2026-04-18T08:49:13.998Z</time></trkpt><trkpt lat="43.46385543257305" lon="10.91373958562607"><ele>191.0</ele><time>2026-04-18T08:49:14.998Z</time></trkpt><trkpt lat="43.46368309230232" lon="10.913928827734487"><ele>191.0</ele><time>2026-04-18T08:49:16.998Z</time></trkpt><trkpt lat="43.46361282529371" lon="10.914040687519357"><ele>191.0</ele><time>2026-04-18T08:49:17.998Z</time></trkpt><trkpt lat="43.46354866749835" lon="10.914163310654422"><ele>192.5</ele><time>2026-04-18T08:49:18.998Z</time></trkpt><trkpt lat="43.46348518156795" lon="10.91431166358801"><ele>194.0</ele><time>2026-04-18T08:49:19.998Z</time></trkpt><trkpt lat="43.46341329781843" lon="10.914470582688804"><ele>195.5</ele><time>2026-04-18T08:49:20.998Z</time></trkpt><trkpt lat="43.46332877646048" lon="10.91462960038451"><ele>197.0</ele><time>2026-04-18T08:49:21.998Z</time></trkpt><trkpt lat="43.46323543980539" lon="10.91479136066896"><ele>197.0</ele><time>2026-04-18T08:49:22.998Z</time></trkpt><trkpt lat="43.46313713668878" lon="10.914958099624494"><ele>197.0</ele><time>2026-04-18T08:49:23.998Z</time></trkpt><trkpt lat="43.46304448759531" lon="10.91511039966856"><ele>197.0</ele><time>2026-04-18T08:49:24.998Z</time></trkpt><trkpt lat="43.46294768128984" lon="10.915241282444175"><ele>197.0</ele><time>2026-04-18T08:49:25.998Z</time></trkpt><trkpt lat="43.46283827316282" lon="10.915333418061195"><ele>198.75</ele><time>2026-04-18T08:49:26.998Z</time></trkpt><trkpt lat="43.46272386922816" lon="10.91540644040057"><ele>200.5</ele><time>2026-04-18T08:49:27.998Z</time></trkpt><trkpt lat="43.46259101788406" lon="10.915473781948384"><ele>202.25</ele><time>2026-04-18T08:49:28.998Z</time></trkpt><trkpt lat="43.462463559693134" lon="10.915539632682647"><ele>204.0</ele><time>2026-04-18T08:49:29.998Z</time></trkpt><trkpt lat="43.46232411611673" lon="10.915604632161607"><ele>204.0</ele><time>2026-04-18T08:49:30.998Z</time></trkpt><trkpt lat="43.462177727098364" lon="10.915651160277333"><ele>204.0</ele><time>2026-04-18T08:49:31.998Z</time></trkpt><trkpt lat="43.46203190284468" lon="10.915676674196426"><ele>204.0</ele><time>2026-04-18T08:49:32.998Z</time></trkpt><trkpt lat="43.46188425236685" lon="10.91569469939015"><ele>204.0</ele><time>2026-04-18T08:49:33.998Z</time></trkpt><trkpt lat="43.461736331036676" lon="10.915721977816618"><ele>206.75</ele><time>2026-04-18T08:49:34.998Z</time></trkpt><trkpt lat="43.46159177726203" lon="10.915760937189198"><ele>209.5</ele><time>2026-04-18T08:49:35.998Z</time></trkpt><trkpt lat="43.46145436201517" lon="10.91580740344049"><ele>212.25</ele><time>2026-04-18T08:49:36.998Z</time></trkpt><trkpt lat="43.461320506629114" lon="10.915840902007304"><ele>215.0</ele><time>2026-04-18T08:49:37.998Z</time></trkpt><trkpt lat="43.46118746438171" lon="10.915846101435092"><ele>216.5</ele><time>2026-04-18T08:49:38.998Z</time></trkpt><trkpt lat="43.461062560447864" lon="10.915836795951595"><ele>218.0</ele><time>2026-04-18T08:49:39.998Z</time></trkpt><trkpt lat="43.46095402915787" lon="10.915798708495803"><ele>219.5</ele><time>2026-04-18T08:49:40.998Z</time></trkpt><trkpt lat="43.46087710187084" lon="10.915731168699187"><ele>221.0</ele><time>2026-04-18T08:49:41.998Z</time></trkpt><trkpt lat="43.46051273284467" lon="10.915598985807291"><ele>222.20000000000002</ele><time>2026-04-18T08:49:45.997Z</time></trkpt><trkpt lat="43.460437987389504" lon="10.915679400431605"><ele>223.40000000000003</ele><time>2026-04-18T08:49:46.997Z</time></trkpt><trkpt lat="43.46038545725155" lon="10.91577093610989"><ele>224.6</ele><time>2026-04-18T08:49:47.997Z</time></trkpt><trkpt lat="43.460307989944596" lon="10.915867001890888"><ele>225.8</ele><time>2026-04-18T08:49:48.997Z</time></trkpt><trkpt lat="43.46021270102656" lon="10.915928034117426"><ele>227.0</ele><time>2026-04-18T08:49:49.997Z</time></trkpt><trkpt lat="43.46009848660991" lon="10.915940545755829"><ele>227.0</ele><time>2026-04-18T08:49:50.997Z</time></trkpt><trkpt lat="43.459977666658766" lon="10.915920977271586"><ele>227.0</ele><time>2026-04-18T08:49:51.997Z</time></trkpt><trkpt lat="43.45986513212317" lon="10.915860203852993"><ele>227.0</ele><time>2026-04-18T08:49:52.997Z</time></trkpt><trkpt lat="43.45977003104939" lon="10.91575675573058"><ele>227.0</ele><time>2026-04-18T08:49:53.997Z</time></trkpt><trkpt lat="43.45969309460893" lon="10.915635376860905"><ele>227.0</ele><time>2026-04-18T08:49:54.997Z</time></trkpt><trkpt lat="43.459624374319496" lon="10.915507666081808"><ele>227.0</ele><time>2026-04-18T08:49:55.997Z</time></trkpt><trkpt lat="43.45955711959767" lon="10.915372867554364"><ele>227.0</ele><time>2026-04-18T08:49:56.997Z</time></trkpt><trkpt lat="43.45946615442467" lon="10.915250839306433"><ele>227.0</ele><time>2026-04-18T08:49:57.997Z</time></trkpt><trkpt lat="43.45936763304052" lon="10.915186285800598"><ele>227.50000000000003</ele><time>2026-04-18T08:49:58.997Z</time></trkpt><trkpt lat="43.45927365093022" lon="10.915178108838793"><ele>228.0</ele><time>2026-04-18T08:49:59.997Z</time></trkpt><trkpt lat="43.45919797893435" lon="10.915192283316927"><ele>228.5</ele><time>2026-04-18T08:50:00.997Z</time></trkpt><trkpt lat="43.459146850926075" lon="10.915243866139184"><ele>229.0</ele><time>2026-04-18T08:50:01.997Z</time></trkpt><trkpt lat="43.459077481889565" lon="10.915308384277663"><ele>229.50000000000003</ele><time>2026-04-18T08:50:02.997Z</time></trkpt><trkpt lat="43.459001101871856" lon="10.915364668844909"><ele>230.0</ele><time>2026-04-18T08:50:03.997Z</time></trkpt><trkpt lat="43.458907995248715" lon="10.915356494956535"><ele>230.0</ele><time>2026-04-18T08:50:04.997Z</time></trkpt><trkpt lat="43.45882590738924" lon="10.915308396960127"><ele>230.0</ele><time>2026-04-18T08:50:05.997Z</time></trkpt><trkpt lat="43.45874220942918" lon="10.915217531540943"><ele>230.0</ele><time>2026-04-18T08:50:06.997Z</time></trkpt><trkpt lat="43.458669804518486" lon="10.915109321007543"><ele>230.0</ele><time>2026-04-18T08:50:07.997Z</time></trkpt><trkpt lat="43.45859337616005" lon="10.914989866290588"><ele>230.0</ele><time>2026-04-18T08:50:08.997Z</time></trkpt><trkpt lat="43.45856537628929" lon="10.914862782765383"><ele>231.0</ele><time>2026-04-18T08:50:09.997Z</time></trkpt><trkpt lat="43.45854718118541" lon="10.914701707740951"><ele>232.0</ele><time>2026-04-18T08:50:10.997Z</time></trkpt><trkpt lat="43.45855042593473" lon="10.91454800934211"><ele>233.0</ele><time>2026-04-18T08:50:11.997Z</time></trkpt><trkpt lat="43.45856084709024" lon="10.914410115102"><ele>234.0</ele><time>2026-04-18T08:50:12.997Z</time></trkpt><trkpt lat="43.45855888734981" lon="10.914259321649496"><ele>235.0</ele><time>2026-04-18T08:50:13.997Z</time></trkpt><trkpt lat="43.45855585454383" lon="10.914102356020557"><ele>237.0</ele><time>2026-04-18T08:50:14.997Z</time></trkpt><trkpt lat="43.45855185100967" lon="10.91393449762221"><ele>239.0</ele><time>2026-04-18T08:50:15.997Z</time></trkpt><trkpt lat="43.45855278695407" lon="10.913752924981988"><ele>241.0</ele><time>2026-04-18T08:50:16.997Z</time></trkpt><trkpt lat="43.45855230920771" lon="10.913571344603442"><ele>243.0</ele><time>2026-04-18T08:50:17.997Z</time></trkpt><trkpt lat="43.458557249776455" lon="10.91338187731936"><ele>244.4</ele><time>2026-04-18T08:50:18.997Z</time></trkpt><trkpt lat="43.45855867561294" lon="10.91321278297191"><ele>245.8</ele><time>2026-04-18T08:50:19.997Z</time></trkpt><trkpt lat="43.45853528988509" lon="10.913076510092333"><ele>247.2</ele><time>2026-04-18T08:50:20.997Z</time></trkpt><trkpt lat="43.45847867602281" lon="10.912964457402383"><ele>248.6</ele><time>2026-04-18T08:50:21.997Z</time></trkpt><trkpt lat="43.45840457571439" lon="10.912861351726832"><ele>250.0</ele><time>2026-04-18T08:50:22.997Z</time></trkpt><trkpt lat="43.458305897506285" lon="10.912796012025389"><ele>250.0</ele><time>2026-04-18T08:50:23.997Z</time></trkpt><trkpt lat="43.45819477410632" lon="10.912724432973391"><ele>250.0</ele><time>2026-04-18T08:50:24.997Z</time></trkpt><trkpt lat="43.45806164696865" lon="10.912632711595565"><ele>250.0</ele><time>2026-04-18T08:50:25.997Z</time></trkpt><trkpt lat="43.45794120038031" lon="10.91255424633676"><ele>250.0</ele><time>2026-04-18T08:50:26.997Z</time></trkpt><trkpt lat="43.45780934521003" lon="10.912462159839846"><ele>253.0</ele><time>2026-04-18T08:50:27.997Z</time></trkpt><trkpt lat="43.457674079667974" lon="10.91236811035394"><ele>256.0</ele><time>2026-04-18T08:50:28.997Z</time></trkpt><trkpt lat="43.45753544593552" lon="10.912272947448402"><ele>259.0</ele><time>2026-04-18T08:50:29.997Z</time></trkpt><trkpt lat="43.457390018922595" lon="10.912171829395088"><ele>259.0</ele><time>2026-04-18T08:50:30.997Z</time></trkpt><trkpt lat="43.45724041699882" lon="10.912074686192723"><ele>259.0</ele><time>2026-04-18T08:50:31.997Z</time></trkpt><trkpt lat="43.45709946744909" lon="10.911976693573815"><ele>259.0</ele><time>2026-04-18T08:50:32.997Z</time></trkpt><trkpt lat="43.45696786590098" lon="10.911876948102075"><ele>260.0</ele><time>2026-04-18T08:50:33.997Z</time></trkpt><trkpt lat="43.45684384447541" lon="10.911783164733569"><ele>261.0</ele><time>2026-04-18T08:50:34.997Z</time></trkpt><trkpt lat="43.45671052929094" lon="10.911691385833949"><ele>262.0</ele><time>2026-04-18T08:50:35.997Z</time></trkpt><trkpt lat="43.45659330419724" lon="10.911615129683488"><ele>263.0</ele><time>2026-04-18T08:50:36.997Z</time></trkpt><trkpt lat="43.45649656693329" lon="10.911558324224501"><ele>263.2</ele><time>2026-04-18T08:50:37.997Z</time></trkpt><trkpt lat="43.45640358560333" lon="10.911526970605777"><ele>263.4</ele><time>2026-04-18T08:50:38.997Z</time></trkpt><trkpt lat="43.45630299094942" lon="10.911524280371333"><ele>263.59999999999997</ele><time>2026-04-18T08:50:39.997Z</time></trkpt><trkpt lat="43.4562106890209" lon="10.911566343072996"><ele>263.8</ele><time>2026-04-18T08:50:40.997Z</time></trkpt><trkpt lat="43.456119829851815" lon="10.911628788261336"><ele>264.0</ele><time>2026-04-18T08:50:41.997Z</time></trkpt><trkpt lat="43.456012838584726" lon="10.911698769462808"><ele>266.0</ele><time>2026-04-18T08:50:42.997Z</time></trkpt><trkpt lat="43.45589390696249" lon="10.911766185135171"><ele>268.0</ele><time>2026-04-18T08:50:43.997Z</time></trkpt><trkpt lat="43.45577522489277" lon="10.911824309928836"><ele>270.0</ele><time>2026-04-18T08:50:44.997Z</time></trkpt><trkpt lat="43.4556591870393" lon="10.911874942212584"><ele>272.0</ele><time>2026-04-18T08:50:45.997Z</time></trkpt><trkpt lat="43.455527296799914" lon="10.91192276246813"><ele>274.5</ele><time>2026-04-18T08:50:46.997Z</time></trkpt><trkpt lat="43.4553868479528" lon="10.911947709718358"><ele>277.0</ele><time>2026-04-18T08:50:47.997Z</time></trkpt><trkpt lat="43.455249061492935" lon="10.911967581786636"><ele>279.5</ele><time>2026-04-18T08:50:48.997Z</time></trkpt><trkpt lat="43.45511330010653" lon="10.911985263094502"><ele>282.0</ele><time>2026-04-18T08:50:49.997Z</time></trkpt><trkpt lat="43.45498950347225" lon="10.91200398343146"><ele>282.0</ele><time>2026-04-18T08:50:50.997Z</time></trkpt><trkpt lat="43.45488432644993" lon="10.912043299910133"><ele>282.0</ele><time>2026-04-18T08:50:51.997Z</time></trkpt><trkpt lat="43.45474565174106" lon="10.912135863437934"><ele>282.0</ele><time>2026-04-18T08:50:52.997Z</time></trkpt><trkpt lat="43.454620111858915" lon="10.912231643745287"><ele>282.0</ele><time>2026-04-18T08:50:53.997Z</time></trkpt><trkpt lat="43.454514959362626" lon="10.912288674341967"><ele>284.5</ele><time>2026-04-18T08:50:54.997Z</time></trkpt><trkpt lat="43.4544112170905" lon="10.91228452314196"><ele>287.0</ele><time>2026-04-18T08:50:55.997Z</time></trkpt><trkpt lat="43.454274112984294" lon="10.912275398760093"><ele>289.5</ele><time>2026-04-18T08:50:56.997Z</time></trkpt><trkpt lat="43.45415804546488" lon="10.912293839321903"><ele>292.0</ele><time>2026-04-18T08:50:57.997Z</time></trkpt><trkpt lat="43.45403494882067" lon="10.91227474793106"><ele>292.0</ele><time>2026-04-18T08:50:58.997Z</time></trkpt><trkpt lat="43.45394065895094" lon="10.912236687935614"><ele>292.0</ele><time>2026-04-18T08:50:59.998Z</time></trkpt><trkpt lat="43.45385879248693" lon="10.912193979337514"><ele>292.0</ele><time>2026-04-18T08:51:00.998Z</time></trkpt><trkpt lat="43.453760774695674" lon="10.91214758305625"><ele>292.0</ele><time>2026-04-18T08:51:01.998Z</time></trkpt><trkpt lat="43.45364150582782" lon="10.912120149739852"><ele>292.0</ele><time>2026-04-18T08:51:02.998Z</time></trkpt><trkpt lat="43.45352103714013" lon="10.91212653141097"><ele>292.0</ele><time>2026-04-18T08:51:03.998Z</time></trkpt><trkpt lat="43.453394430519786" lon="10.912151199979313"><ele>292.0</ele><time>2026-04-18T08:51:04.998Z</time></trkpt><trkpt lat="43.45325737527456" lon="10.912199088474024"><ele>292.0</ele><time>2026-04-18T08:51:05.998Z</time></trkpt><trkpt lat="43.45310035465006" lon="10.912265387071951"><ele>292.0</ele><time>2026-04-18T08:51:06.998Z</time></trkpt><trkpt lat="43.452947533590574" lon="10.91231494565701"><ele>292.0</ele><time>2026-04-18T08:51:07.998Z</time></trkpt><trkpt lat="43.45280109421401" lon="10.912336594817095"><ele>292.0</ele><time>2026-04-18T08:51:08.998Z</time></trkpt><trkpt lat="43.4526661057234" lon="10.912355173428045"><ele>292.0</ele><time>2026-04-18T08:51:09.998Z</time></trkpt><trkpt lat="43.452544645996426" lon="10.912337729408332"><ele>292.0</ele><time>2026-04-18T08:51:10.998Z</time></trkpt><trkpt lat="43.452447468734825" lon="10.912273953678463"><ele>292.0</ele><time>2026-04-18T08:51:11.998Z</time></trkpt><trkpt lat="43.452357647791054" lon="10.912192509339697"><ele>292.0</ele><time>2026-04-18T08:51:12.998Z</time></trkpt><trkpt lat="43.4522500351133" lon="10.912130146509142"><ele>292.0</ele><time>2026-04-18T08:51:13.998Z</time></trkpt><trkpt lat="43.452125584661964" lon="10.912098800306866"><ele>292.0</ele><time>2026-04-18T08:51:14.998Z</time></trkpt><trkpt lat="43.45199137891689" lon="10.91208762239593"><ele>290.75</ele><time>2026-04-18T08:51:15.998Z</time></trkpt><trkpt lat="43.45184740524974" lon="10.912087320763266"><ele>289.5</ele><time>2026-04-18T08:51:16.998Z</time></trkpt><trkpt lat="43.451704361108305" lon="10.91209126769022"><ele>288.25</ele><time>2026-04-18T08:51:17.998Z</time></trkpt><trkpt lat="43.451585041102796" lon="10.912099808987525"><ele>287.0</ele><time>2026-04-18T08:51:18.997Z</time></trkpt><trkpt lat="43.451479412938006" lon="10.912076600859288"><ele>287.0</ele><time>2026-04-18T08:51:19.997Z</time></trkpt><trkpt lat="43.45136339363978" lon="10.912026808691943"><ele>287.0</ele><time>2026-04-18T08:51:20.997Z</time></trkpt><trkpt lat="43.451262062949255" lon="10.911970322760444"><ele>287.0</ele><time>2026-04-18T08:51:21.997Z</time></trkpt><trkpt lat="43.451173774154256" lon="10.911928354291957"><ele>287.0</ele><time>2026-04-18T08:51:22.998Z</time></trkpt><trkpt lat="43.45108845979654" lon="10.911915172740185"><ele>287.0</ele><time>2026-04-18T08:51:23.998Z</time></trkpt><trkpt lat="43.45100523556635" lon="10.911923746016823"><ele>286.33333333333337</ele><time>2026-04-18T08:51:24.998Z</time></trkpt><trkpt lat="43.45093249664251" lon="10.911959376358395"><ele>285.6666666666667</ele><time>2026-04-18T08:51:25.998Z</time></trkpt><trkpt lat="43.45086106554377" lon="10.911985895730274"><ele>285.0</ele><time>2026-04-18T08:51:26.998Z</time></trkpt><trkpt lat="43.45079341435231" lon="10.911973917868481"><ele>284.3333333333333</ele><time>2026-04-18T08:51:27.998Z</time></trkpt><trkpt lat="43.45073843145674" lon="10.911920054432414"><ele>283.66666666666663</ele><time>2026-04-18T08:51:28.998Z</time></trkpt><trkpt lat="43.45069177004949" lon="10.911827627665422"><ele>283.0</ele><time>2026-04-18T08:51:29.998Z</time></trkpt><trkpt lat="43.450635029995354" lon="10.911726201182633"><ele>282.25</ele><time>2026-04-18T08:51:30.998Z</time></trkpt><trkpt lat="43.45056475956951" lon="10.911641406942266"><ele>281.5</ele><time>2026-04-18T08:51:31.998Z</time></trkpt><trkpt lat="43.45046739084288" lon="10.911559919227576"><ele>280.75</ele><time>2026-04-18T08:51:32.998Z</time></trkpt><trkpt lat="43.45035103709883" lon="10.911479043737376"><ele>280.0</ele><time>2026-04-18T08:51:33.998Z</time></trkpt><trkpt lat="43.450213890422745" lon="10.91139505562686"><ele>279.5</ele><time>2026-04-18T08:51:34.998Z</time></trkpt><trkpt lat="43.45007358552515" lon="10.911318270411172"><ele>279.0</ele><time>2026-04-18T08:51:35.998Z</time></trkpt><trkpt lat="43.44993210987932" lon="10.911229937738957"><ele>278.5</ele><time>2026-04-18T08:51:36.999Z</time></trkpt><trkpt lat="43.449800391408495" lon="10.911161294227735"><ele>278.0</ele><time>2026-04-18T08:51:37.999Z</time></trkpt><trkpt lat="43.44966602576282" lon="10.911089735856475"><ele>276.75</ele><time>2026-04-18T08:51:38.999Z</time></trkpt><trkpt lat="43.44952828835546" lon="10.911014279781"><ele>275.5</ele><time>2026-04-18T08:51:39.999Z</time></trkpt><trkpt lat="43.4493926004167" lon="10.91094754590954"><ele>274.25</ele><time>2026-04-18T08:51:40.999Z</time></trkpt><trkpt lat="43.44924783000666" lon="10.910882953244208"><ele>273.0</ele><time>2026-04-18T08:51:41.999Z</time></trkpt><trkpt lat="43.44910078384325" lon="10.910829349482125"><ele>273.0</ele><time>2026-04-18T08:51:42.999Z</time></trkpt><trkpt lat="43.44897749822571" lon="10.910787065017482"><ele>273.0</ele><time>2026-04-18T08:51:43.999Z</time></trkpt><trkpt lat="43.44885187289565" lon="10.910746494752665"><ele>273.0</ele><time>2026-04-18T08:51:44.999Z</time></trkpt><trkpt lat="43.448739607402324" lon="10.910696388626475"><ele>273.0</ele><time>2026-04-18T08:51:45.999Z</time></trkpt><trkpt lat="43.44862427463001" lon="10.910617968910312"><ele>272.75</ele><time>2026-04-18T08:51:46.999Z</time></trkpt><trkpt lat="43.44850553506527" lon="10.910515502413489"><ele>272.5</ele><time>2026-04-18T08:51:47.999Z</time></trkpt><trkpt lat="43.448381613342505" lon="10.910402799126514"><ele>272.25</ele><time>2026-04-18T08:51:48.999Z</time></trkpt><trkpt lat="43.44825554012396" lon="10.910291747812007"><ele>272.0</ele><time>2026-04-18T08:51:49.999Z</time></trkpt><trkpt lat="43.44813947600809" lon="10.910214857981561"><ele>272.0</ele><time>2026-04-18T08:51:50.999Z</time></trkpt><trkpt lat="43.44800506156463" lon="10.91013851587902"><ele>272.0</ele><time>2026-04-18T08:51:51.999Z</time></trkpt><trkpt lat="43.447867140262034" lon="10.910066858452943"><ele>272.0</ele><time>2026-04-18T08:51:52.999Z</time></trkpt><trkpt lat="43.44772922510114" lon="10.909988824635368"><ele>272.0</ele><time>2026-04-18T08:51:53.999Z</time></trkpt><trkpt lat="43.4475994555094" lon="10.90991314766676"><ele>270.75</ele><time>2026-04-18T08:51:54.999Z</time></trkpt><trkpt lat="43.4474777571017" lon="10.909834193916756"><ele>269.5</ele><time>2026-04-18T08:51:55.999Z</time></trkpt><trkpt lat="43.44736483280755" lon="10.909756372124079"><ele>268.25</ele><time>2026-04-18T08:51:56.999Z</time></trkpt><trkpt lat="43.44724895946605" lon="10.909678811561802"><ele>267.0</ele><time>2026-04-18T08:51:57.999Z</time></trkpt><trkpt lat="43.44712129174339" lon="10.909610786215563"><ele>265.5</ele><time>2026-04-18T08:51:58.999Z</time></trkpt><trkpt lat="43.44698554624717" lon="10.909555157233816"><ele>264.0</ele><time>2026-04-18T08:51:59.999Z</time></trkpt><trkpt lat="43.44685791309731" lon="10.909512751795232"><ele>262.5</ele><time>2026-04-18T08:52:00.999Z</time></trkpt><trkpt lat="43.44675104684042" lon="10.909477603398491"><ele>261.0</ele><time>2026-04-18T08:52:01.999Z</time></trkpt><trkpt lat="43.44665159435453" lon="10.909432316258181"><ele>261.0</ele><time>2026-04-18T08:52:02.999Z</time></trkpt><trkpt lat="43.44654404018774" lon="10.909370086450359"><ele>261.0</ele><time>2026-04-18T08:52:03.999Z</time></trkpt><trkpt lat="43.44645898774912" lon="10.909276743038678"><ele>261.0</ele><time>2026-04-18T08:52:04.999Z</time></trkpt><trkpt lat="43.44639004071557" lon="10.909157369389275"><ele>261.0</ele><time>2026-04-18T08:52:05.999Z</time></trkpt><trkpt lat="43.44632614399811" lon="10.909007686034613"><ele>260.0</ele><time>2026-04-18T08:52:06.999Z</time></trkpt><trkpt lat="43.44626517058765" lon="10.908839714438315"><ele>259.0</ele><time>2026-04-18T08:52:08Z</time></trkpt><trkpt lat="43.44620255570606" lon="10.908664387815561"><ele>258.0</ele><time>2026-04-18T08:52:09Z</time></trkpt><trkpt lat="43.446149743297816" lon="10.908489154888148"><ele>257.0</ele><time>2026-04-18T08:52:10Z</time></trkpt><trkpt lat="43.446104011990265" lon="10.908305132798978"><ele>257.0</ele><time>2026-04-18T08:52:11Z</time></trkpt><trkpt lat="43.44606115590511" lon="10.90813665132976"><ele>257.0</ele><time>2026-04-18T08:52:12Z</time></trkpt><trkpt lat="43.44600436580737" lon="10.907955680999523"><ele>257.0</ele><time>2026-04-18T08:52:13Z</time></trkpt><trkpt lat="43.44593646026957" lon="10.9077945959583"><ele>257.0</ele><time>2026-04-18T08:52:14Z</time></trkpt><trkpt lat="43.44585829542826" lon="10.907641137787914"><ele>256.5</ele><time>2026-04-18T08:52:15Z</time></trkpt><trkpt lat="43.445765432333076" lon="10.907487907475543"><ele>256.0</ele><time>2026-04-18T08:52:16Z</time></trkpt><trkpt lat="43.445662181503835" lon="10.907329023825794"><ele>255.5</ele><time>2026-04-18T08:52:17Z</time></trkpt><trkpt lat="43.44556201074772" lon="10.907177727767701"><ele>255.0</ele><time>2026-04-18T08:52:18Z</time></trkpt><trkpt lat="43.44548456047462" lon="10.907009393165303"><ele>254.25</ele><time>2026-04-18T08:52:19Z</time></trkpt><trkpt lat="43.44539525387403" lon="10.90688215665909"><ele>253.5</ele><time>2026-04-18T08:52:20Z</time></trkpt><trkpt lat="43.44532781346794" lon="10.906758377952801"><ele>252.75</ele><time>2026-04-18T08:52:21Z</time></trkpt><trkpt lat="43.44526457203918" lon="10.906644618991153"><ele>252.0</ele><time>2026-04-18T08:52:22Z</time></trkpt><trkpt lat="43.44519723297554" lon="10.906532539357672"><ele>252.0</ele><time>2026-04-18T08:52:23Z</time></trkpt><trkpt lat="43.44512515790374" lon="10.906438124142172"><ele>252.0</ele><time>2026-04-18T08:52:24Z</time></trkpt><trkpt lat="43.445061695086274" lon="10.906350831074073"><ele>252.0</ele><time>2026-04-18T08:52:25Z</time></trkpt><trkpt lat="43.44500288812783" lon="10.906261503412821"><ele>252.0</ele><time>2026-04-18T08:52:26Z</time></trkpt><trkpt lat="43.44493390588294" lon="10.90617898714232"><ele>252.0</ele><time>2026-04-18T08:52:27Z</time></trkpt><trkpt lat="43.44486746518237" lon="10.906087110495976"><ele>252.0</ele><time>2026-04-18T08:52:28Z</time></trkpt><trkpt lat="43.44479582509069" lon="10.905993113174016"><ele>252.0</ele><time>2026-04-18T08:52:29Z</time></trkpt><trkpt lat="43.444723544446" lon="10.905897681863744"><ele>252.0</ele><time>2026-04-18T08:52:30Z</time></trkpt><trkpt lat="43.444660702425324" lon="10.905810079518304"><ele>252.0</ele><time>2026-04-18T08:52:31Z</time></trkpt><trkpt lat="43.44459676384741" lon="10.905711479332686"><ele>252.0</ele><time>2026-04-18T08:52:32Z</time></trkpt><trkpt lat="43.44453771096656" lon="10.905595587015409"><ele>251.83333333333334</ele><time>2026-04-18T08:52:33Z</time></trkpt><trkpt lat="43.444491015845706" lon="10.905487763672426"><ele>251.66666666666669</ele><time>2026-04-18T08:52:34Z</time></trkpt><trkpt lat="43.44445123126083" lon="10.90539098868288"><ele>251.5</ele><time>2026-04-18T08:52:35Z</time></trkpt><trkpt lat="43.44440550296049" lon="10.905301120251272"><ele>251.33333333333334</ele><time>2026-04-18T08:52:36Z</time></trkpt><trkpt lat="43.44436708059343" lon="10.905221533739747"><ele>251.16666666666669</ele><time>2026-04-18T08:52:37Z</time></trkpt><trkpt lat="43.44431942036373" lon="10.905107486544408"><ele>251.0</ele><time>2026-04-18T08:52:38Z</time></trkpt><trkpt lat="43.4442405126663" lon="10.905011431027159"><ele>251.0</ele><time>2026-04-18T08:52:39Z</time></trkpt><trkpt lat="43.444157470476355" lon="10.904900850847534"><ele>251.0</ele><time>2026-04-18T08:52:40Z</time></trkpt><trkpt lat="43.44405209331012" lon="10.904792829622446"><ele>251.0</ele><time>2026-04-18T08:52:41Z</time></trkpt><trkpt lat="43.44393651354327" lon="10.904679543292225"><ele>251.0</ele><time>2026-04-18T08:52:42Z</time></trkpt><trkpt lat="43.44381587042463" lon="10.904563046205073"><ele>249.0</ele><time>2026-04-18T08:52:43Z</time></trkpt><trkpt lat="43.443691174391276" lon="10.904449039031173"><ele>247.0</ele><time>2026-04-18T08:52:44Z</time></trkpt><trkpt lat="43.44356130661169" lon="10.904334916093697"><ele>245.0</ele><time>2026-04-18T08:52:45Z</time></trkpt><trkpt lat="43.443429478358475" lon="10.90420645325921"><ele>245.0</ele><time>2026-04-18T08:52:46Z</time></trkpt><trkpt lat="43.44327467598836" lon="10.904065776820929"><ele>245.0</ele><time>2026-04-18T08:52:47Z</time></trkpt><trkpt lat="43.44311804415865" lon="10.903932723523427"><ele>245.0</ele><time>2026-04-18T08:52:48Z</time></trkpt><trkpt lat="43.44296808889597" lon="10.903803555536454"><ele>243.0</ele><time>2026-04-18T08:52:49Z</time></trkpt><trkpt lat="43.44281997120818" lon="10.90367720565394"><ele>241.0</ele><time>2026-04-18T08:52:50Z</time></trkpt><trkpt lat="43.44267534052089" lon="10.90354803522488"><ele>239.0</ele><time>2026-04-18T08:52:51Z</time></trkpt><trkpt lat="43.442532908729895" lon="10.903413907385225"><ele>241.33333333333334</ele><time>2026-04-18T08:52:52Z</time></trkpt><trkpt lat="43.442395993509685" lon="10.903283127473728"><ele>243.66666666666669</ele><time>2026-04-18T08:52:53Z</time></trkpt><trkpt lat="43.44226414712349" lon="10.903159489434083"><ele>246.0</ele><time>2026-04-18T08:52:54Z</time></trkpt><trkpt lat="43.44213269077565" lon="10.90303746529569"><ele>245.5</ele><time>2026-04-18T08:52:55Z</time></trkpt><trkpt lat="43.44200066577853" lon="10.902932612269653"><ele>245.0</ele><time>2026-04-18T08:52:56Z</time></trkpt><trkpt lat="43.44186992376156" lon="10.902837930384075"><ele>244.5</ele><time>2026-04-18T08:52:57Z</time></trkpt><trkpt lat="43.441732649622566" lon="10.902767489214954"><ele>244.0</ele><time>2026-04-18T08:52:58Z</time></trkpt><trkpt lat="43.441594929935206" lon="10.902717350470244"><ele>244.0</ele><time>2026-04-18T08:52:59Z</time></trkpt><trkpt lat="43.4414448286051" lon="10.902688023713205"><ele>244.0</ele><time>2026-04-18T08:53:00Z</time></trkpt><trkpt lat="43.441294679738846" lon="10.902678343058211"><ele>244.0</ele><time>2026-04-18T08:53:01Z</time></trkpt><trkpt lat="43.44113315391215" lon="10.902674694263311"><ele>243.33333333333331</ele><time>2026-04-18T08:53:02Z</time></trkpt><trkpt lat="43.44098820340823" lon="10.902637531342089"><ele>242.66666666666669</ele><time>2026-04-18T08:53:03Z</time></trkpt><trkpt lat="43.440834652507036" lon="10.90263190510033"><ele>242.0</ele><time>2026-04-18T08:53:04Z</time></trkpt><trkpt lat="43.44069660160614" lon="10.902556490595732"><ele>243.0</ele><time>2026-04-18T08:53:05Z</time></trkpt><trkpt lat="43.440554555148196" lon="10.902502977344476"><ele>244.0</ele><time>2026-04-18T08:53:06Z</time></trkpt><trkpt lat="43.440423977463965" lon="10.902405898411368"><ele>245.0</ele><time>2026-04-18T08:53:07Z</time></trkpt><trkpt lat="43.44030220152747" lon="10.902299143322095"><ele>246.0</ele><time>2026-04-18T08:53:08Z</time></trkpt><trkpt lat="43.44017732370399" lon="10.902166504887859"><ele>247.33333333333331</ele><time>2026-04-18T08:53:09Z</time></trkpt><trkpt lat="43.440079776384515" lon="10.901986986466229"><ele>248.66666666666666</ele><time>2026-04-18T08:53:10Z</time></trkpt><trkpt lat="43.439995322350235" lon="10.901825727871188"><ele>250.0</ele><time>2026-04-18T08:53:11Z</time></trkpt><trkpt lat="43.43989306722508" lon="10.901673848929148"><ele>250.0</ele><time>2026-04-18T08:53:12Z</time></trkpt><trkpt lat="43.43982506562027" lon="10.901537051770994"><ele>250.0</ele><time>2026-04-18T08:53:13Z</time></trkpt><trkpt lat="43.43976064055184" lon="10.901413992627859"><ele>250.0</ele><time>2026-04-18T08:53:14Z</time></trkpt><trkpt lat="43.439702179472306" lon="10.901275203961735"><ele>250.0</ele><time>2026-04-18T08:53:15Z</time></trkpt><trkpt lat="43.43966160336269" lon="10.901123209939644"><ele>250.0</ele><time>2026-04-18T08:53:16Z</time></trkpt><trkpt lat="43.439644529025145" lon="10.900964376357258"><ele>250.0</ele><time>2026-04-18T08:53:17Z</time></trkpt><trkpt lat="43.43964125629159" lon="10.900788786938946"><ele>250.0</ele><time>2026-04-18T08:53:18Z</time></trkpt><trkpt lat="43.43964935574542" lon="10.900599153912054"><ele>250.0</ele><time>2026-04-18T08:53:19Z</time></trkpt><trkpt lat="43.439670311529945" lon="10.900398340915697"><ele>249.4</ele><time>2026-04-18T08:53:20Z</time></trkpt><trkpt lat="43.439691737185285" lon="10.900225258418374"><ele>248.8</ele><time>2026-04-18T08:53:21Z</time></trkpt><trkpt lat="43.43969869505152" lon="10.900079812052832"><ele>248.2</ele><time>2026-04-18T08:53:22Z</time></trkpt><trkpt lat="43.43969028404074" lon="10.899935209221535"><ele>247.6</ele><time>2026-04-18T08:53:23Z</time></trkpt><trkpt lat="43.439669575927674" lon="10.899786915482116"><ele>247.0</ele><time>2026-04-18T08:53:24Z</time></trkpt><trkpt lat="43.43962896510338" lon="10.89965160926821"><ele>247.8</ele><time>2026-04-18T08:53:24.999Z</time></trkpt><trkpt lat="43.43957642137367" lon="10.89953674469262"><ele>248.6</ele><time>2026-04-18T08:53:25.999Z</time></trkpt><trkpt lat="43.439521911177394" lon="10.899423489266901"><ele>249.40000000000003</ele><time>2026-04-18T08:53:26.999Z</time></trkpt><trkpt lat="43.43941215529555" lon="10.899357854653623"><ele>250.20000000000002</ele><time>2026-04-18T08:53:27.999Z</time></trkpt><trkpt lat="43.439326769119205" lon="10.89924710860738"><ele>251.0</ele><time>2026-04-18T08:53:28.999Z</time></trkpt><trkpt lat="43.43922828682491" lon="10.899128203911404"><ele>251.0</ele><time>2026-04-18T08:53:29.999Z</time></trkpt><trkpt lat="43.439109658118305" lon="10.89901387502996"><ele>251.0</ele><time>2026-04-18T08:53:30.999Z</time></trkpt><trkpt lat="43.43901161809883" lon="10.898879267180742"><ele>251.0</ele><time>2026-04-18T08:53:31.999Z</time></trkpt><trkpt lat="43.43892169392089" lon="10.89877360513281"><ele>251.0</ele><time>2026-04-18T08:53:32.999Z</time></trkpt><trkpt lat="43.43884280375642" lon="10.898665210655926"><ele>250.60000000000002</ele><time>2026-04-18T08:53:33.999Z</time></trkpt><trkpt lat="43.43879804065536" lon="10.898522679654393"><ele>250.20000000000002</ele><time>2026-04-18T08:53:34.999Z</time></trkpt><trkpt lat="43.43874592486917" lon="10.898405284995654"><ele>249.79999999999998</ele><time>2026-04-18T08:53:35.999Z</time></trkpt><trkpt lat="43.43873695548461" lon="10.898251353672293"><ele>249.39999999999998</ele><time>2026-04-18T08:53:36.999Z</time></trkpt><trkpt lat="43.43869084180291" lon="10.898127277473842"><ele>249.0</ele><time>2026-04-18T08:53:37.999Z</time></trkpt><trkpt lat="43.438646812707184" lon="10.89801734225996"><ele>248.6</ele><time>2026-04-18T08:53:38.999Z</time></trkpt><trkpt lat="43.438582783917646" lon="10.897915020362698"><ele>248.2</ele><time>2026-04-18T08:53:39.999Z</time></trkpt><trkpt lat="43.43850973466258" lon="10.897803909644008"><ele>247.79999999999998</ele><time>2026-04-18T08:53:40.999Z</time></trkpt><trkpt lat="43.438446441192674" lon="10.897688694791245"><ele>247.39999999999998</ele><time>2026-04-18T08:53:41.999Z</time></trkpt><trkpt lat="43.438395431920675" lon="10.89753073924578"><ele>247.0</ele><time>2026-04-18T08:53:42.999Z</time></trkpt><trkpt lat="43.4383622568828" lon="10.897355590077415"><ele>245.0</ele><time>2026-04-18T08:53:43.999Z</time></trkpt><trkpt lat="43.43836191919694" lon="10.897177087965634"><ele>243.0</ele><time>2026-04-18T08:53:44.999Z</time></trkpt><trkpt lat="43.43834476392947" lon="10.896978916186782"><ele>241.0</ele><time>2026-04-18T08:53:45.999Z</time></trkpt><trkpt lat="43.43830447376081" lon="10.896787039634464"><ele>239.0</ele><time>2026-04-18T08:53:46.999Z</time></trkpt><trkpt lat="43.4382425019991" lon="10.89659300131679"><ele>237.6</ele><time>2026-04-18T08:53:47.999Z</time></trkpt><trkpt lat="43.43819389113303" lon="10.896426313809403"><ele>236.2</ele><time>2026-04-18T08:53:48.999Z</time></trkpt><trkpt lat="43.43817795630095" lon="10.896286564820059"><ele>234.79999999999998</ele><time>2026-04-18T08:53:49.999Z</time></trkpt><trkpt lat="43.43819107977594" lon="10.896155815438686"><ele>233.39999999999998</ele><time>2026-04-18T08:53:50.999Z</time></trkpt><trkpt lat="43.43820755968685" lon="10.896014146676029"><ele>232.0</ele><time>2026-04-18T08:53:51.999Z</time></trkpt><trkpt lat="43.43820751012556" lon="10.895852304472761"><ele>231.8</ele><time>2026-04-18T08:53:53Z</time></trkpt><trkpt lat="43.43817352315447" lon="10.895718103449807"><ele>231.6</ele><time>2026-04-18T08:53:54Z</time></trkpt><trkpt lat="43.43810156826897" lon="10.895587131934665"><ele>231.40000000000003</ele><time>2026-04-18T08:53:55Z</time></trkpt><trkpt lat="43.43798270979112" lon="10.895551239295562"><ele>231.20000000000002</ele><time>2026-04-18T08:53:57Z</time></trkpt><trkpt lat="43.43790074063896" lon="10.895460900402107"><ele>231.0</ele><time>2026-04-18T08:53:58Z</time></trkpt><trkpt lat="43.43782763112824" lon="10.895354953845123"><ele>230.5</ele><time>2026-04-18T08:53:59Z</time></trkpt><trkpt lat="43.437772213214146" lon="10.89521366858614"><ele>230.0</ele><time>2026-04-18T08:54:00Z</time></trkpt><trkpt lat="43.43771621498611" lon="10.895055063236814"><ele>229.5</ele><time>2026-04-18T08:54:01Z</time></trkpt><trkpt lat="43.43767343248218" lon="10.894880593251104"><ele>229.0</ele><time>2026-04-18T08:54:02Z</time></trkpt><trkpt lat="43.437610182879084" lon="10.894712159178786"><ele>228.33333333333331</ele><time>2026-04-18T08:54:03Z</time></trkpt><trkpt lat="43.437534699344546" lon="10.894544124855747"><ele>227.66666666666669</ele><time>2026-04-18T08:54:04Z</time></trkpt><trkpt lat="43.437428395339225" lon="10.89439257557421"><ele>227.0</ele><time>2026-04-18T08:54:05Z</time></trkpt><trkpt lat="43.43729634378699" lon="10.894274555569417"><ele>225.0</ele><time>2026-04-18T08:54:06Z</time></trkpt><trkpt lat="43.43716260276326" lon="10.894153233875276"><ele>223.0</ele><time>2026-04-18T08:54:07Z</time></trkpt><trkpt lat="43.43702878555104" lon="10.894048831732633"><ele>221.0</ele><time>2026-04-18T08:54:08Z</time></trkpt><trkpt lat="43.43689978901169" lon="10.893960810429967"><ele>220.25</ele><time>2026-04-18T08:54:09Z</time></trkpt><trkpt lat="43.43675697436767" lon="10.893902466848838"><ele>219.5</ele><time>2026-04-18T08:54:10Z</time></trkpt><trkpt lat="43.436612614745464" lon="10.893865568392378"><ele>218.75</ele><time>2026-04-18T08:54:11Z</time></trkpt><trkpt lat="43.4364648785064" lon="10.893844323515284"><ele>218.0</ele><time>2026-04-18T08:54:12Z</time></trkpt><trkpt lat="43.43634233801104" lon="10.893818294299013"><ele>216.25</ele><time>2026-04-18T08:54:13Z</time></trkpt><trkpt lat="43.436236433871564" lon="10.89375048352317"><ele>214.5</ele><time>2026-04-18T08:54:14Z</time></trkpt><trkpt lat="43.43612835128345" lon="10.893687338901355"><ele>212.75</ele><time>2026-04-18T08:54:15Z</time></trkpt><trkpt lat="43.43603129265017" lon="10.893610709939853"><ele>211.0</ele><time>2026-04-18T08:54:16Z</time></trkpt><trkpt lat="43.4359439441024" lon="10.893500783901908"><ele>212.75</ele><time>2026-04-18T08:54:17Z</time></trkpt><trkpt lat="43.43585644615138" lon="10.89336777642993"><ele>214.5</ele><time>2026-04-18T08:54:18Z</time></trkpt><trkpt lat="43.43575828358184" lon="10.89321570723872"><ele>216.25</ele><time>2026-04-18T08:54:19Z</time></trkpt><trkpt lat="43.435644860676454" lon="10.89307793784781"><ele>218.0</ele><time>2026-04-18T08:54:20Z</time></trkpt><trkpt lat="43.43554266213079" lon="10.892919809032223"><ele>216.25</ele><time>2026-04-18T08:54:21Z</time></trkpt><trkpt lat="43.43543827903233" lon="10.892762469231789"><ele>214.5</ele><time>2026-04-18T08:54:22Z</time></trkpt><trkpt lat="43.435327542644046" lon="10.892614830866144"><ele>212.75</ele><time>2026-04-18T08:54:23Z</time></trkpt><trkpt lat="43.43522451113956" lon="10.892485067684285"><ele>211.0</ele><time>2026-04-18T08:54:24Z</time></trkpt><trkpt lat="43.435128811533495" lon="10.89238113110753"><ele>211.0</ele><time>2026-04-18T08:54:25Z</time></trkpt><trkpt lat="43.43504273776544" lon="10.892286333601158"><ele>211.0</ele><time>2026-04-18T08:54:26Z</time></trkpt><trkpt lat="43.43497294707933" lon="10.892195390379625"><ele>211.0</ele><time>2026-04-18T08:54:27Z</time></trkpt><trkpt lat="43.434905015416" lon="10.892095764241095"><ele>211.0</ele><time>2026-04-18T08:54:28Z</time></trkpt><trkpt lat="43.43484242006113" lon="10.891976325352015"><ele>211.0</ele><time>2026-04-18T08:54:29Z</time></trkpt><trkpt lat="43.43482020859284" lon="10.8918209407289"><ele>211.60000000000002</ele><time>2026-04-18T08:54:30Z</time></trkpt><trkpt lat="43.43478251564956" lon="10.891675451416667"><ele>212.2</ele><time>2026-04-18T08:54:31Z</time></trkpt><trkpt lat="43.434739914620764" lon="10.891567880250227"><ele>212.79999999999998</ele><time>2026-04-18T08:54:32Z</time></trkpt><trkpt lat="43.43469430256827" lon="10.891498933000912"><ele>213.39999999999998</ele><time>2026-04-18T08:54:33Z</time></trkpt><trkpt lat="43.434595167521174" lon="10.891513794920941"><ele>214.0</ele><time>2026-04-18T08:54:35Z</time></trkpt><trkpt lat="43.434486650514614" lon="10.891632532524076"><ele>211.83333333333331</ele><time>2026-04-18T08:54:37Z</time></trkpt><trkpt lat="43.4344395559481" lon="10.891736721470494"><ele>209.66666666666666</ele><time>2026-04-18T08:54:38Z</time></trkpt><trkpt lat="43.43440887907774" lon="10.891856911692233"><ele>207.5</ele><time>2026-04-18T08:54:39Z</time></trkpt><trkpt lat="43.43438901736509" lon="10.891981455422417"><ele>205.33333333333331</ele><time>2026-04-18T08:54:40Z</time></trkpt><trkpt lat="43.43438263723952" lon="10.892095889880371"><ele>203.16666666666666</ele><time>2026-04-18T08:54:41Z</time></trkpt><trkpt lat="43.434385912369294" lon="10.892199275491175"><ele>201.0</ele><time>2026-04-18T08:54:42Z</time></trkpt><trkpt lat="43.43441514570644" lon="10.892316261816973"><ele>200.20000000000002</ele><time>2026-04-18T08:54:43Z</time></trkpt><trkpt lat="43.434462125139966" lon="10.892436233478685"><ele>199.4</ele><time>2026-04-18T08:54:44Z</time></trkpt><trkpt lat="43.43451982645001" lon="10.892551539983723"><ele>198.6</ele><time>2026-04-18T08:54:45Z</time></trkpt><trkpt lat="43.43456818175815" lon="10.892689975447643"><ele>197.8</ele><time>2026-04-18T08:54:46Z</time></trkpt><trkpt lat="43.43462123514969" lon="10.89282831309544"><ele>197.0</ele><time>2026-04-18T08:54:47Z</time></trkpt><trkpt lat="43.4346558340949" lon="10.89297412343122"><ele>196.6</ele><time>2026-04-18T08:54:48Z</time></trkpt><trkpt lat="43.434655781857444" lon="10.89310531458851"><ele>196.2</ele><time>2026-04-18T08:54:49Z</time></trkpt><trkpt lat="43.43465689487475" lon="10.893245937629816"><ele>195.8</ele><time>2026-04-18T08:54:50Z</time></trkpt><trkpt lat="43.4346579507063" lon="10.893368996783135"><ele>195.4</ele><time>2026-04-18T08:54:51Z</time></trkpt><trkpt lat="43.43466030018005" lon="10.89348693801928"><ele>195.0</ele><time>2026-04-18T08:54:52Z</time></trkpt><trkpt lat="43.43466843183244" lon="10.893603194251432"><ele>195.0</ele><time>2026-04-18T08:54:53Z</time></trkpt><trkpt lat="43.43468080339478" lon="10.893703550854193"><ele>195.0</ele><time>2026-04-18T08:54:54Z</time></trkpt><trkpt lat="43.43469150616337" lon="10.893847327191994"><ele>195.0</ele><time>2026-04-18T08:54:56Z</time></trkpt><trkpt lat="43.434617218211926" lon="10.893961904682097"><ele>195.0</ele><time>2026-04-18T08:54:58Z</time></trkpt><trkpt lat="43.43454667947304" lon="10.89395065296975"><ele>195.0</ele><time>2026-04-18T08:54:59Z</time></trkpt><trkpt lat="43.434490761936964" lon="10.893882663034637"><ele>195.0</ele><time>2026-04-18T08:55:00Z</time></trkpt><trkpt lat="43.434456956109976" lon="10.893760392788419"><ele>194.0</ele><time>2026-04-18T08:55:01Z</time></trkpt><trkpt lat="43.434399867190876" lon="10.893673958911323"><ele>193.0</ele><time>2026-04-18T08:55:02Z</time></trkpt><trkpt lat="43.43430657558628" lon="10.893583998202633"><ele>192.0</ele><time>2026-04-18T08:55:03Z</time></trkpt><trkpt lat="43.43421358074603" lon="10.893481171146878"><ele>191.0</ele><time>2026-04-18T08:55:04Z</time></trkpt><trkpt lat="43.43411550599285" lon="10.893370888818101"><ele>190.0</ele><time>2026-04-18T08:55:05Z</time></trkpt><trkpt lat="43.43399644227994" lon="10.893291842504235"><ele>190.0</ele><time>2026-04-18T08:55:06Z</time></trkpt><trkpt lat="43.43388025879063" lon="10.893223002758393"><ele>190.0</ele><time>2026-04-18T08:55:07Z</time></trkpt><trkpt lat="43.433769551973946" lon="10.893169644003333"><ele>190.0</ele><time>2026-04-18T08:55:08Z</time></trkpt><trkpt lat="43.43367923568091" lon="10.893083185114754"><ele>190.0</ele><time>2026-04-18T08:55:09Z</time></trkpt><trkpt lat="43.43358819123705" lon="10.892992784337808"><ele>187.6</ele><time>2026-04-18T08:55:10Z</time></trkpt><trkpt lat="43.43351106342986" lon="10.89291601748808"><ele>185.2</ele><time>2026-04-18T08:55:11Z</time></trkpt><trkpt lat="43.433440905820085" lon="10.892833417349456"><ele>182.8</ele><time>2026-04-18T08:55:12Z</time></trkpt><trkpt lat="43.43336806882112" lon="10.892760850173033"><ele>180.4</ele><time>2026-04-18T08:55:13Z</time></trkpt><trkpt lat="43.43329526677751" lon="10.892692555197103"><ele>178.0</ele><time>2026-04-18T08:55:14Z</time></trkpt><trkpt lat="43.43321091300875" lon="10.892642463697362"><ele>178.0</ele><time>2026-04-18T08:55:15Z</time></trkpt><trkpt lat="43.43309578955634" lon="10.892624675382288"><ele>178.0</ele><time>2026-04-18T08:55:16Z</time></trkpt><trkpt lat="43.43297742793462" lon="10.89265406423954"><ele>178.0</ele><time>2026-04-18T08:55:17.001Z</time></trkpt><trkpt lat="43.432879844202496" lon="10.89270571863145"><ele>178.0</ele><time>2026-04-18T08:55:18.001Z</time></trkpt><trkpt lat="43.43277284423135" lon="10.892734795447474"><ele>176.75</ele><time>2026-04-18T08:55:19.001Z</time></trkpt><trkpt lat="43.43264562525305" lon="10.892762528699391"><ele>175.5</ele><time>2026-04-18T08:55:20.001Z</time></trkpt><trkpt lat="43.43252606246834" lon="10.892815291057019"><ele>174.25</ele><time>2026-04-18T08:55:21.001Z</time></trkpt><trkpt lat="43.432413688195346" lon="10.892846820208717"><ele>173.0</ele><time>2026-04-18T08:55:22.001Z</time></trkpt><trkpt lat="43.432317807122715" lon="10.892862434502097"><ele>173.0</ele><time>2026-04-18T08:55:23.001Z</time></trkpt><trkpt lat="43.43221793798407" lon="10.892884519685229"><ele>173.0</ele><time>2026-04-18T08:55:24.001Z</time></trkpt><trkpt lat="43.43209663774851" lon="10.892915202322"><ele>173.0</ele><time>2026-04-18T08:55:25.001Z</time></trkpt><trkpt lat="43.43202758992868" lon="10.892933822214017"><ele>173.0</ele><time>2026-04-18T08:55:26.001Z</time></trkpt><trkpt lat="43.431918600580396" lon="10.892953761382243"><ele>173.0</ele><time>2026-04-18T08:55:28.001Z</time></trkpt><trkpt lat="43.43184848584964" lon="10.892963648707724"><ele>174.25</ele><time>2026-04-18T08:55:31.999Z</time></trkpt><trkpt lat="43.43186608196218" lon="10.893233471752396"><ele>175.5</ele><time>2026-04-18T08:55:33.999Z</time></trkpt><trkpt lat="43.43188799855791" lon="10.89338140881685"><ele>176.75</ele><time>2026-04-18T08:55:34.999Z</time></trkpt><trkpt lat="43.43190756050055" lon="10.893540291640917"><ele>178.0</ele><time>2026-04-18T08:55:35.999Z</time></trkpt><trkpt lat="43.43191080310778" lon="10.893704145719987"><ele>178.0</ele><time>2026-04-18T08:55:36.999Z</time></trkpt><trkpt lat="43.43188739013421" lon="10.893875115440391"><ele>178.0</ele><time>2026-04-18T08:55:37.999Z</time></trkpt><trkpt lat="43.431837634019544" lon="10.894061417900176"><ele>178.0</ele><time>2026-04-18T08:55:38.999Z</time></trkpt><trkpt lat="43.431779785664425" lon="10.894243944097246"><ele>178.0</ele><time>2026-04-18T08:55:39.999Z</time></trkpt><trkpt lat="43.43172704009167" lon="10.894411957209405"><ele>178.0</ele><time>2026-04-18T08:55:40.999Z</time></trkpt><trkpt lat="43.43166366416252" lon="10.89454641013947"><ele>178.0</ele><time>2026-04-18T08:55:41.999Z</time></trkpt><trkpt lat="43.431589085366724" lon="10.894664280462706"><ele>178.0</ele><time>2026-04-18T08:55:42.999Z</time></trkpt><trkpt lat="43.43149567013337" lon="10.894749093084368"><ele>178.0</ele><time>2026-04-18T08:55:43.999Z</time></trkpt><trkpt lat="43.43143519846445" lon="10.894849186706377"><ele>178.0</ele><time>2026-04-18T08:55:44.999Z</time></trkpt><trkpt lat="43.4314040394121" lon="10.894992864451124"><ele>178.60000000000002</ele><time>2026-04-18T08:55:45.999Z</time></trkpt><trkpt lat="43.43143979898516" lon="10.895138029136486"><ele>179.20000000000002</ele><time>2026-04-18T08:55:46.999Z</time></trkpt><trkpt lat="43.431475134684426" lon="10.895253743494836"><ele>179.8</ele><time>2026-04-18T08:55:47.999Z</time></trkpt><trkpt lat="43.431514273819396" lon="10.895398755917585"><ele>180.4</ele><time>2026-04-18T08:55:49Z</time></trkpt><trkpt lat="43.431552478230365" lon="10.895529182215006"><ele>181.0</ele><time>2026-04-18T08:55:50Z</time></trkpt><trkpt lat="43.431594846189036" lon="10.895702766471373"><ele>181.0</ele><time>2026-04-18T08:55:51Z</time></trkpt><trkpt lat="43.43162780512376" lon="10.895891378703435"><ele>181.0</ele><time>2026-04-18T08:55:52Z</time></trkpt><trkpt lat="43.43165282524306" lon="10.896072640539145"><ele>181.0</ele><time>2026-04-18T08:55:53Z</time></trkpt><trkpt lat="43.43165879293977" lon="10.896203430136817"><ele>181.0</ele><time>2026-04-18T08:55:54Z</time></trkpt><trkpt lat="43.4316541598237" lon="10.896291624827562"><ele>181.0</ele><time>2026-04-18T08:55:55Z</time></trkpt><trkpt lat="43.43158757394921" lon="10.896345313487021"><ele>182.0</ele><time>2026-04-18T08:55:56Z</time></trkpt><trkpt lat="43.43151499376909" lon="10.896314022741333"><ele>183.0</ele><time>2026-04-18T08:55:57Z</time></trkpt><trkpt lat="43.4314337642706" lon="10.89616025958057"><ele>184.0</ele><time>2026-04-18T08:55:59Z</time></trkpt><trkpt lat="43.431360550023456" lon="10.896063410872216"><ele>185.0</ele><time>2026-04-18T08:56:00Z</time></trkpt><trkpt lat="43.43126905145878" lon="10.896008073844119"><ele>186.0</ele><time>2026-04-18T08:56:01Z</time></trkpt><trkpt lat="43.431174487177586" lon="10.895971350401238"><ele>186.8</ele><time>2026-04-18T08:56:02Z</time></trkpt><trkpt lat="43.43106185491662" lon="10.895940227667433"><ele>187.60000000000002</ele><time>2026-04-18T08:56:03Z</time></trkpt><trkpt lat="43.43093601616908" lon="10.895878278499936"><ele>188.4</ele><time>2026-04-18T08:56:04Z</time></trkpt><trkpt lat="43.4308381866697" lon="10.895835387591598"><ele>189.2</ele><time>2026-04-18T08:56:05Z</time></trkpt><trkpt lat="43.43074406147848" lon="10.89580087179776"><ele>190.0</ele><time>2026-04-18T08:56:06Z</time></trkpt><trkpt lat="43.430667771199644" lon="10.895801852255369"><ele>192.2</ele><time>2026-04-18T08:56:07Z</time></trkpt><trkpt lat="43.43056544286931" lon="10.895932801246882"><ele>194.4</ele><time>2026-04-18T08:56:09Z</time></trkpt><trkpt lat="43.430557462533386" lon="10.89602949411331"><ele>196.60000000000002</ele><time>2026-04-18T08:56:10Z</time></trkpt><trkpt lat="43.43062487204203" lon="10.896138902878029"><ele>198.8</ele><time>2026-04-18T08:56:11Z</time></trkpt><trkpt lat="43.43067834974044" lon="10.896226672542008"><ele>201.0</ele><time>2026-04-18T08:56:12Z</time></trkpt><trkpt lat="43.430750791492216" lon="10.896318075818785"><ele>201.0</ele><time>2026-04-18T08:56:13Z</time></trkpt><trkpt lat="43.430818030975146" lon="10.89643751380893"><ele>201.0</ele><time>2026-04-18T08:56:14Z</time></trkpt><trkpt lat="43.43088991307642" lon="10.896547931386802"><ele>201.0</ele><time>2026-04-18T08:56:15Z</time></trkpt><trkpt lat="43.43096679388286" lon="10.896639917394454"><ele>201.0</ele><time>2026-04-18T08:56:16Z</time></trkpt><trkpt lat="43.43101754390845" lon="10.896759684428536"><ele>201.0</ele><time>2026-04-18T08:56:17Z</time></trkpt><trkpt lat="43.43103293248197" lon="10.896876840004087"><ele>202.60000000000002</ele><time>2026-04-18T08:56:18Z</time></trkpt><trkpt lat="43.431008049042696" lon="10.897018383649533"><ele>204.2</ele><time>2026-04-18T08:56:19Z</time></trkpt><trkpt lat="43.4309848365894" lon="10.897145300658803"><ele>205.8</ele><time>2026-04-18T08:56:20Z</time></trkpt><trkpt lat="43.4309495081858" lon="10.897269385679067"><ele>207.39999999999998</ele><time>2026-04-18T08:56:21Z</time></trkpt><trkpt lat="43.430908101670056" lon="10.897368452209559"><ele>209.0</ele><time>2026-04-18T08:56:22Z</time></trkpt><trkpt lat="43.430842509255335" lon="10.897417615431063"><ele>209.00000000000003</ele><time>2026-04-18T08:56:23Z</time></trkpt><trkpt lat="43.430749073424195" lon="10.897376382848986"><ele>209.0</ele><time>2026-04-18T08:56:25Z</time></trkpt><trkpt lat="43.43069564426241" lon="10.897274967668707"><ele>209.0</ele><time>2026-04-18T08:56:26Z</time></trkpt><trkpt lat="43.43065897905775" lon="10.89717138558871"><ele>209.0</ele><time>2026-04-18T08:56:27Z</time></trkpt><trkpt lat="43.430607211562446" lon="10.897102230999701"><ele>209.00000000000003</ele><time>2026-04-18T08:56:28Z</time></trkpt><trkpt lat="43.43052179482856" lon="10.897051609726395"><ele>209.0</ele><time>2026-04-18T08:56:29Z</time></trkpt><trkpt lat="43.430417216051225" lon="10.897133805888407"><ele>210.16666666666669</ele><time>2026-04-18T08:56:30Z</time></trkpt><trkpt lat="43.43035851980055" lon="10.897173297484807"><ele>211.33333333333334</ele><time>2026-04-18T08:56:31Z</time></trkpt><trkpt lat="43.430304422677104" lon="10.897228256681029"><ele>212.5</ele><time>2026-04-18T08:56:32Z</time></trkpt><trkpt lat="43.43024495787538" lon="10.897277642369355"><ele>213.66666666666669</ele><time>2026-04-18T08:56:33Z</time></trkpt><trkpt lat="43.43013151702865" lon="10.897342184950569"><ele>214.83333333333334</ele><time>2026-04-18T08:56:35Z</time></trkpt><trkpt lat="43.43006508406555" lon="10.897377661080196"><ele>216.0</ele><time>2026-04-18T08:56:36Z</time></trkpt><trkpt lat="43.43001246388518" lon="10.897430609996196"><ele>216.0</ele><time>2026-04-18T08:56:37Z</time></trkpt><trkpt lat="43.42996125239627" lon="10.897482148118304"><ele>216.00000000000003</ele><time>2026-04-18T08:56:38Z</time></trkpt><trkpt lat="43.42992050485259" lon="10.897580630956313"><ele>216.00000000000003</ele><time>2026-04-18T08:56:39Z</time></trkpt><trkpt lat="43.42991596567778" lon="10.897756716768669"><ele>216.0</ele><time>2026-04-18T08:56:40Z</time></trkpt><trkpt lat="43.42991297041982" lon="10.897937986500901"><ele>216.0</ele><time>2026-04-18T08:56:41Z</time></trkpt><trkpt lat="43.429913693314454" lon="10.898031354130802"><ele>217.20000000000002</ele><time>2026-04-18T08:56:42Z</time></trkpt><trkpt lat="43.42991515615028" lon="10.898157884023203"><ele>218.40000000000003</ele><time>2026-04-18T08:56:43Z</time></trkpt><trkpt lat="43.42991755011184" lon="10.898318463229446"><ele>219.6</ele><time>2026-04-18T08:56:44Z</time></trkpt><trkpt lat="43.42993142994235" lon="10.898474486445624"><ele>220.8</ele><time>2026-04-18T08:56:45Z</time></trkpt><trkpt lat="43.429946534813375" lon="10.898641723526609"><ele>222.0</ele><time>2026-04-18T08:56:46Z</time></trkpt><trkpt lat="43.42995864538805" lon="10.898803520405393"><ele>222.85714285714283</ele><time>2026-04-18T08:56:47Z</time></trkpt><trkpt lat="43.42995616961382" lon="10.898932424495959"><ele>223.71428571428572</ele><time>2026-04-18T08:56:48Z</time></trkpt><trkpt lat="43.429939558302316" lon="10.89902329415801"><ele>224.57142857142856</ele><time>2026-04-18T08:56:49Z</time></trkpt><trkpt lat="43.429909460878626" lon="10.89910402521188"><ele>225.42857142857142</ele><time>2026-04-18T08:56:50Z</time></trkpt><trkpt lat="43.429838517489664" lon="10.899116171435175"><ele>226.28571428571428</ele><time>2026-04-18T08:56:51Z</time></trkpt><trkpt lat="43.42978021532615" lon="10.89906385238304"><ele>227.14285714285714</ele><time>2026-04-18T08:56:52Z</time></trkpt><trkpt lat="43.429717400104906" lon="10.899017942556695"><ele>228.0</ele><time>2026-04-18T08:56:53Z</time></trkpt><trkpt lat="43.42961511549181" lon="10.899010394734425"><ele>230.0</ele><time>2026-04-18T08:56:54Z</time></trkpt><trkpt lat="43.42950227346453" lon="10.899013187264222"><ele>232.0</ele><time>2026-04-18T08:56:55Z</time></trkpt><trkpt lat="43.429384740936435" lon="10.899050199550468"><ele>234.0</ele><time>2026-04-18T08:56:56Z</time></trkpt><trkpt lat="43.429264139612975" lon="10.899101194746907"><ele>236.0</ele><time>2026-04-18T08:56:57Z</time></trkpt><trkpt lat="43.42915158604126" lon="10.899147105226707"><ele>236.00000000000003</ele><time>2026-04-18T08:56:58Z</time></trkpt><trkpt lat="43.429067227091785" lon="10.899159800789292"><ele>236.0</ele><time>2026-04-18T08:56:59Z</time></trkpt><trkpt lat="43.42900752565709" lon="10.89919815794418"><ele>236.0</ele><time>2026-04-18T08:57:00Z</time></trkpt><trkpt lat="43.42896607589733" lon="10.899290403303558"><ele>236.0</ele><time>2026-04-18T08:57:01Z</time></trkpt><trkpt lat="43.42897954423284" lon="10.899446340065445"><ele>236.00000000000003</ele><time>2026-04-18T08:57:03.001Z</time></trkpt><trkpt lat="43.42902935684639" lon="10.899508891274273"><ele>236.0</ele><time>2026-04-18T08:57:04.001Z</time></trkpt><trkpt lat="43.42906315572877" lon="10.899603549562524"><ele>237.33333333333334</ele><time>2026-04-18T08:57:05.001Z</time></trkpt><trkpt lat="43.42910821542904" lon="10.899717586538085"><ele>238.66666666666669</ele><time>2026-04-18T08:57:06.001Z</time></trkpt><trkpt lat="43.42916050087234" lon="10.899840506279535"><ele>240.0</ele><time>2026-04-18T08:57:07.001Z</time></trkpt><trkpt lat="43.42920776399654" lon="10.899938297876167"><ele>241.33333333333331</ele><time>2026-04-18T08:57:08.001Z</time></trkpt><trkpt lat="43.4292048716557" lon="10.900038430468987"><ele>242.66666666666666</ele><time>2026-04-18T08:57:09.001Z</time></trkpt><trkpt lat="43.42920214915288" lon="10.900158716345146"><ele>244.0</ele><time>2026-04-18T08:57:10.001Z</time></trkpt><trkpt lat="43.42916646201583" lon="10.900280458674418"><ele>244.83333333333331</ele><time>2026-04-18T08:57:11.001Z</time></trkpt><trkpt lat="43.4291139421605" lon="10.900395240372958"><ele>245.66666666666666</ele><time>2026-04-18T08:57:12.001Z</time></trkpt><trkpt lat="43.42905222177881" lon="10.90049969239082"><ele>246.5</ele><time>2026-04-18T08:57:13.001Z</time></trkpt><trkpt lat="43.42895833940684" lon="10.900550962743795"><ele>247.33333333333331</ele><time>2026-04-18T08:57:14.001Z</time></trkpt><trkpt lat="43.42888877693113" lon="10.900535018586284"><ele>248.16666666666666</ele><time>2026-04-18T08:57:15.001Z</time></trkpt><trkpt lat="43.42882815158296" lon="10.90056705519423"><ele>249.0</ele><time>2026-04-18T08:57:16.001Z</time></trkpt><trkpt lat="43.42876379011741" lon="10.900565536249607"><ele>250.33333333333334</ele><time>2026-04-18T08:57:17.001Z</time></trkpt><trkpt lat="43.4287026995454" lon="10.900601426351345"><ele>251.66666666666669</ele><time>2026-04-18T08:57:18.001Z</time></trkpt><trkpt lat="43.428651339267674" lon="10.900676963440423"><ele>253.0</ele><time>2026-04-18T08:57:19.001Z</time></trkpt><trkpt lat="43.42861739396849" lon="10.900784895497365"><ele>254.33333333333334</ele><time>2026-04-18T08:57:20.001Z</time></trkpt><trkpt lat="43.42860510692508" lon="10.900908581896381"><ele>255.66666666666669</ele><time>2026-04-18T08:57:21.001Z</time></trkpt><trkpt lat="43.42862243158152" lon="10.901031603133337"><ele>257.0</ele><time>2026-04-18T08:57:22.001Z</time></trkpt><trkpt lat="43.42865180256575" lon="10.901174670292901"><ele>256.5</ele><time>2026-04-18T08:57:23.001Z</time></trkpt><trkpt lat="43.4286973861076" lon="10.901332180244"><ele>256.0</ele><time>2026-04-18T08:57:24.001Z</time></trkpt><trkpt lat="43.42875665345695" lon="10.90148130584567"><ele>255.5</ele><time>2026-04-18T08:57:25.001Z</time></trkpt><trkpt lat="43.42884520095499" lon="10.90159576024276"><ele>255.0</ele><time>2026-04-18T08:57:26.001Z</time></trkpt><trkpt lat="43.428931568125755" lon="10.901695021327612"><ele>258.25</ele><time>2026-04-18T08:57:27.001Z</time></trkpt><trkpt lat="43.429033577226114" lon="10.901818250461595"><ele>261.5</ele><time>2026-04-18T08:57:28.001Z</time></trkpt><trkpt lat="43.42911836002418" lon="10.901980710731666"><ele>264.75</ele><time>2026-04-18T08:57:29.001Z</time></trkpt><trkpt lat="43.42922430618074" lon="10.90213218905088"><ele>268.0</ele><time>2026-04-18T08:57:30.001Z</time></trkpt><trkpt lat="43.42931942332962" lon="10.902236293976877"><ele>268.0</ele><time>2026-04-18T08:57:31.001Z</time></trkpt><trkpt lat="43.429434719844615" lon="10.902338457802177"><ele>268.0</ele><time>2026-04-18T08:57:32.001Z</time></trkpt><trkpt lat="43.429555097375854" lon="10.902451772324564"><ele>268.0</ele><time>2026-04-18T08:57:33.001Z</time></trkpt><trkpt lat="43.42964388420722" lon="10.902550531806444"><ele>268.0</ele><time>2026-04-18T08:57:34.001Z</time></trkpt><trkpt lat="43.4296976634358" lon="10.902633743510597"><ele>268.2</ele><time>2026-04-18T08:57:35.001Z</time></trkpt><trkpt lat="43.42969406988193" lon="10.902744112260393"><ele>268.4</ele><time>2026-04-18T08:57:37Z</time></trkpt><trkpt lat="43.42960778198872" lon="10.902791731499567"><ele>268.59999999999997</ele><time>2026-04-18T08:57:39Z</time></trkpt><trkpt lat="43.42954472752245" lon="10.902788693270326"><ele>268.8</ele><time>2026-04-18T08:57:40Z</time></trkpt><trkpt lat="43.42942496530664" lon="10.902805225070232"><ele>269.0</ele><time>2026-04-18T08:57:41Z</time></trkpt><trkpt lat="43.42930235796285" lon="10.902827741129176"><ele>268.75</ele><time>2026-04-18T08:57:42Z</time></trkpt><trkpt lat="43.42919841122633" lon="10.90277289283787"><ele>268.5</ele><time>2026-04-18T08:57:43Z</time></trkpt><trkpt lat="43.429141031611756" lon="10.90264351300547"><ele>268.25</ele><time>2026-04-18T08:57:44Z</time></trkpt><trkpt lat="43.4290766531616" lon="10.902504549174115"><ele>268.0</ele><time>2026-04-18T08:57:45Z</time></trkpt><trkpt lat="43.429016051055186" lon="10.902366691957006"><ele>268.0</ele><time>2026-04-18T08:57:46Z</time></trkpt><trkpt lat="43.428943437086836" lon="10.902291670884786"><ele>268.0</ele><time>2026-04-18T08:57:47Z</time></trkpt><trkpt lat="43.428860413739045" lon="10.902246354242195"><ele>268.0</ele><time>2026-04-18T08:57:48Z</time></trkpt><trkpt lat="43.42876203528974" lon="10.90221361047208"><ele>268.0</ele><time>2026-04-18T08:57:49Z</time></trkpt><trkpt lat="43.42866226476825" lon="10.902220297571725"><ele>268.0</ele><time>2026-04-18T08:57:49.999Z</time></trkpt><trkpt lat="43.42855173819739" lon="10.902248964934394"><ele>270.5</ele><time>2026-04-18T08:57:50.999Z</time></trkpt><trkpt lat="43.428440383188544" lon="10.902305785388831"><ele>273.0</ele><time>2026-04-18T08:57:51.999Z</time></trkpt><trkpt lat="43.42832438656879" lon="10.902362366582613"><ele>275.5</ele><time>2026-04-18T08:57:53Z</time></trkpt><trkpt lat="43.428201507199425" lon="10.902384392598641"><ele>278.0</ele><time>2026-04-18T08:57:54Z</time></trkpt><trkpt lat="43.428103933769435" lon="10.902298509102401"><ele>278.0</ele><time>2026-04-18T08:57:55Z</time></trkpt><trkpt lat="43.42798794139467" lon="10.902238347489758"><ele>278.0</ele><time>2026-04-18T08:57:56Z</time></trkpt><trkpt lat="43.42787100356959" lon="10.902186041741873"><ele>278.0</ele><time>2026-04-18T08:57:57Z</time></trkpt><trkpt lat="43.427786526703784" lon="10.902126093320035"><ele>278.0</ele><time>2026-04-18T08:57:58Z</time></trkpt><trkpt lat="43.42771606483171" lon="10.902115198505113"><ele>278.0</ele><time>2026-04-18T08:57:59Z</time></trkpt><trkpt lat="43.42764072976726" lon="10.902119519315315"><ele>278.6</ele><time>2026-04-18T08:58:00Z</time></trkpt><trkpt lat="43.427579695616465" lon="10.902200164557483"><ele>279.20000000000005</ele><time>2026-04-18T08:58:01Z</time></trkpt><trkpt lat="43.427541372195755" lon="10.90227947832652"><ele>279.8</ele><time>2026-04-18T08:58:02Z</time></trkpt><trkpt lat="43.42757466691299" lon="10.902410262020798"><ele>280.40000000000003</ele><time>2026-04-18T08:58:03Z</time></trkpt><trkpt lat="43.42767052236523" lon="10.902495193557916"><ele>281.0</ele><time>2026-04-18T08:58:04Z</time></trkpt><trkpt lat="43.42775442364594" lon="10.90261305050367"><ele>282.2</ele><time>2026-04-18T08:58:05Z</time></trkpt><trkpt lat="43.42781773866965" lon="10.902678798443254"><ele>283.40000000000003</ele><time>2026-04-18T08:58:06Z</time></trkpt><trkpt lat="43.42790982340108" lon="10.902769201214108"><ele>284.6</ele><time>2026-04-18T08:58:07Z</time></trkpt><trkpt lat="43.428003735192746" lon="10.902849352548225"><ele>285.8</ele><time>2026-04-18T08:58:08Z</time></trkpt><trkpt lat="43.42811886099938" lon="10.90295054163018"><ele>287.0</ele><time>2026-04-18T08:58:09Z</time></trkpt><trkpt lat="43.42823892706931" lon="10.903060251486373"><ele>287.0</ele><time>2026-04-18T08:58:10Z</time></trkpt><trkpt lat="43.42834946420515" lon="10.90315050258926"><ele>287.0</ele><time>2026-04-18T08:58:11Z</time></trkpt><trkpt lat="43.428419907330955" lon="10.903222730481993"><ele>287.0</ele><time>2026-04-18T08:58:12Z</time></trkpt><trkpt lat="43.428484018150996" lon="10.903324007205235"><ele>287.0</ele><time>2026-04-18T08:58:13Z</time></trkpt><trkpt lat="43.42853250226868" lon="10.903424365401467"><ele>287.0</ele><time>2026-04-18T08:58:14Z</time></trkpt><trkpt lat="43.428591172278544" lon="10.903526084940651"><ele>286.25</ele><time>2026-04-18T08:58:15Z</time></trkpt><trkpt lat="43.42865501129565" lon="10.903705163014063"><ele>285.5</ele><time>2026-04-18T08:58:16Z</time></trkpt><trkpt lat="43.42871262923107" lon="10.90386473577145"><ele>284.75</ele><time>2026-04-18T08:58:17Z</time></trkpt><trkpt lat="43.428769526307825" lon="10.904041702081368"><ele>284.0</ele><time>2026-04-18T08:58:18Z</time></trkpt><trkpt lat="43.42881940700357" lon="10.904203353819144"><ele>286.5</ele><time>2026-04-18T08:58:19Z</time></trkpt><trkpt lat="43.42886465517013" lon="10.90437567960307"><ele>289.0</ele><time>2026-04-18T08:58:20Z</time></trkpt><trkpt lat="43.4289002889821" lon="10.90454666957864"><ele>291.5</ele><time>2026-04-18T08:58:21Z</time></trkpt><trkpt lat="43.42892881350663" lon="10.90471629633998"><ele>294.0</ele><time>2026-04-18T08:58:22Z</time></trkpt><trkpt lat="43.42897884984829" lon="10.904845770201925"><ele>294.0</ele><time>2026-04-18T08:58:23Z</time></trkpt><trkpt lat="43.429038166025634" lon="10.904969377227884"><ele>294.0</ele><time>2026-04-18T08:58:24Z</time></trkpt><trkpt lat="43.429131195887216" lon="10.90508443294319"><ele>294.0</ele><time>2026-04-18T08:58:25Z</time></trkpt><trkpt lat="43.42925086046227" lon="10.905193001080798"><ele>294.0</ele><time>2026-04-18T08:58:26Z</time></trkpt><trkpt lat="43.42933661584295" lon="10.905329222963672"><ele>295.6666666666667</ele><time>2026-04-18T08:58:27Z</time></trkpt><trkpt lat="43.429394243559024" lon="10.90543610376995"><ele>297.3333333333333</ele><time>2026-04-18T08:58:28Z</time></trkpt><trkpt lat="43.42942811914907" lon="10.905550502007005"><ele>299.0</ele><time>2026-04-18T08:58:29Z</time></trkpt><trkpt lat="43.42941951907388" lon="10.905649594791749"><ele>300.66666666666663</ele><time>2026-04-18T08:58:30Z</time></trkpt><trkpt lat="43.42937452058902" lon="10.905752883368347"><ele>302.3333333333333</ele><time>2026-04-18T08:58:31Z</time></trkpt><trkpt lat="43.429352487214295" lon="10.905834899321963"><ele>304.0</ele><time>2026-04-18T08:58:32Z</time></trkpt><trkpt lat="43.42928390167985" lon="10.905894375640193"><ele>304.0</ele><time>2026-04-18T08:58:33Z</time></trkpt><trkpt lat="43.42919660734342" lon="10.905921762511808"><ele>304.0</ele><time>2026-04-18T08:58:34Z</time></trkpt><trkpt lat="43.42912021359095" lon="10.90589352215149"><ele>304.0</ele><time>2026-04-18T08:58:35Z</time></trkpt><trkpt lat="43.42904620427711" lon="10.905802936591796"><ele>304.0</ele><time>2026-04-18T08:58:36Z</time></trkpt><trkpt lat="43.42893696850347" lon="10.905748808761631"><ele>304.0</ele><time>2026-04-18T08:58:37Z</time></trkpt><trkpt lat="43.428843780257765" lon="10.905660677315065"><ele>307.25</ele><time>2026-04-18T08:58:38Z</time></trkpt><trkpt lat="43.42872140710525" lon="10.905577765458414"><ele>310.5</ele><time>2026-04-18T08:58:39Z</time></trkpt><trkpt lat="43.42861942745027" lon="10.90551354222548"><ele>313.75</ele><time>2026-04-18T08:58:40Z</time></trkpt><trkpt lat="43.42851281297398" lon="10.905451497766082"><ele>317.0</ele><time>2026-04-18T08:58:41Z</time></trkpt><trkpt lat="43.42837196498355" lon="10.905381660901336"><ele>317.0</ele><time>2026-04-18T08:58:42Z</time></trkpt><trkpt lat="43.4282588808611" lon="10.905309973660994"><ele>317.0</ele><time>2026-04-18T08:58:43Z</time></trkpt><trkpt lat="43.42813257136437" lon="10.905248184798573"><ele>317.0</ele><time>2026-04-18T08:58:44Z</time></trkpt><trkpt lat="43.42803044945942" lon="10.905172061745768"><ele>317.0</ele><time>2026-04-18T08:58:45Z</time></trkpt><trkpt lat="43.42791382630682" lon="10.90509412409925"><ele>317.25</ele><time>2026-04-18T08:58:46Z</time></trkpt><trkpt lat="43.427772281847666" lon="10.905013269484071"><ele>317.5</ele><time>2026-04-18T08:58:47Z</time></trkpt><trkpt lat="43.427642432751355" lon="10.904919456189713"><ele>317.75</ele><time>2026-04-18T08:58:48Z</time></trkpt><trkpt lat="43.42753456611619" lon="10.904833154747005"><ele>318.0</ele><time>2026-04-18T08:58:49Z</time></trkpt><trkpt lat="43.42743823517984" lon="10.904779143275928"><ele>318.0</ele><time>2026-04-18T08:58:50Z</time></trkpt><trkpt lat="43.4273553787427" lon="10.904753608224597"><ele>318.0</ele><time>2026-04-18T08:58:51Z</time></trkpt><trkpt lat="43.42728400008487" lon="10.904802774589733"><ele>318.0</ele><time>2026-04-18T08:58:52Z</time></trkpt><trkpt lat="43.42716605825033" lon="10.904893036359045"><ele>318.0</ele><time>2026-04-18T08:58:54Z</time></trkpt><trkpt lat="43.427134271681375" lon="10.905023209135203"><ele>318.0</ele><time>2026-04-18T08:58:55Z</time></trkpt><trkpt lat="43.42706324200157" lon="10.905203912994947"><ele>320.6</ele><time>2026-04-18T08:58:56Z</time></trkpt><trkpt lat="43.426973354668505" lon="10.90535704783733"><ele>323.20000000000005</ele><time>2026-04-18T08:58:57Z</time></trkpt><trkpt lat="43.42689818450514" lon="10.905452778237965"><ele>325.8</ele><time>2026-04-18T08:58:59Z</time></trkpt><trkpt lat="43.42678986915106" lon="10.90546837094554"><ele>328.40000000000003</ele><time>2026-04-18T08:59:00Z</time></trkpt><trkpt lat="43.42670678329822" lon="10.905507769960602"><ele>331.0</ele><time>2026-04-18T08:59:01Z</time></trkpt><trkpt lat="43.42663707394442" lon="10.905531422786252"><ele>331.0</ele><time>2026-04-18T08:59:02Z</time></trkpt><trkpt lat="43.42658026579149" lon="10.905594311356094"><ele>331.0</ele><time>2026-04-18T08:59:03Z</time></trkpt><trkpt lat="43.426565997698475" lon="10.90570388182743"><ele>331.0</ele><time>2026-04-18T08:59:04Z</time></trkpt><trkpt lat="43.426611326465824" lon="10.905783717513572"><ele>331.0</ele><time>2026-04-18T08:59:06Z</time></trkpt><trkpt lat="43.42669903469767" lon="10.90585039822723"><ele>331.0</ele><time>2026-04-18T08:59:08Z</time></trkpt><trkpt lat="43.42676021586619" lon="10.905881609083714"><ele>331.0</ele><time>2026-04-18T08:59:09Z</time></trkpt><trkpt lat="43.426826690018345" lon="10.905915054490219"><ele>333.75</ele><time>2026-04-18T08:59:10.001Z</time></trkpt><trkpt lat="43.42691122047411" lon="10.905964547969786"><ele>336.5</ele><time>2026-04-18T08:59:11.001Z</time></trkpt><trkpt lat="43.42701426146532" lon="10.906027672534618"><ele>339.25</ele><time>2026-04-18T08:59:12.001Z</time></trkpt><trkpt lat="43.427111911639194" lon="10.906130310113097"><ele>342.0</ele><time>2026-04-18T08:59:13.001Z</time></trkpt><trkpt lat="43.42720824787136" lon="10.906234533032693"><ele>342.0</ele><time>2026-04-18T08:59:14.001Z</time></trkpt><trkpt lat="43.42731131014649" lon="10.906300962467913"><ele>342.0</ele><time>2026-04-18T08:59:15.001Z</time></trkpt><trkpt lat="43.42739578943582" lon="10.90638380042745"><ele>342.0</ele><time>2026-04-18T08:59:16.001Z</time></trkpt><trkpt lat="43.427465367555094" lon="10.906485416059907"><ele>342.0</ele><time>2026-04-18T08:59:17.001Z</time></trkpt><trkpt lat="43.42752448802226" lon="10.906587772312559"><ele>342.0</ele><time>2026-04-18T08:59:18.001Z</time></trkpt><trkpt lat="43.427569197696" lon="10.906699179012225"><ele>344.0</ele><time>2026-04-18T08:59:19.001Z</time></trkpt><trkpt lat="43.42761286149249" lon="10.906820093223844"><ele>346.0</ele><time>2026-04-18T08:59:20.001Z</time></trkpt><trkpt lat="43.427658313850856" lon="10.906958059961172"><ele>348.0</ele><time>2026-04-18T08:59:21.001Z</time></trkpt><trkpt lat="43.427693945181005" lon="10.907067907804675"><ele>350.0</ele><time>2026-04-18T08:59:22.001Z</time></trkpt><trkpt lat="43.42773267038595" lon="10.907200502226937"><ele>352.0</ele><time>2026-04-18T08:59:23.001Z</time></trkpt><trkpt lat="43.42776898427553" lon="10.90734433425866"><ele>352.0</ele><time>2026-04-18T08:59:24.001Z</time></trkpt><trkpt lat="43.427783951755806" lon="10.907481944922276"><ele>352.0</ele><time>2026-04-18T08:59:25.001Z</time></trkpt><trkpt lat="43.427783849403546" lon="10.907605002171612"><ele>352.0</ele><time>2026-04-18T08:59:26.001Z</time></trkpt><trkpt lat="43.42776997770105" lon="10.907716526486777"><ele>352.0</ele><time>2026-04-18T08:59:27.001Z</time></trkpt><trkpt lat="43.42773963966589" lon="10.907825536690533"><ele>352.0</ele><time>2026-04-18T08:59:28.001Z</time></trkpt><trkpt lat="43.427698238472146" lon="10.907934925608526"><ele>352.0</ele><time>2026-04-18T08:59:29.001Z</time></trkpt><trkpt lat="43.42764577709296" lon="10.908064225648431"><ele>353.0</ele><time>2026-04-18T08:59:30.001Z</time></trkpt><trkpt lat="43.42758639854102" lon="10.908205777828194"><ele>354.0</ele><time>2026-04-18T08:59:31.001Z</time></trkpt><trkpt lat="43.427516349551105" lon="10.90836447033497"><ele>355.0</ele><time>2026-04-18T08:59:32.001Z</time></trkpt><trkpt lat="43.427450708968465" lon="10.90849356436737"><ele>356.0</ele><time>2026-04-18T08:59:33.001Z</time></trkpt><trkpt lat="43.427390479703455" lon="10.908573102567619"><ele>356.6666666666667</ele><time>2026-04-18T08:59:34.001Z</time></trkpt><trkpt lat="43.42731679210654" lon="10.908587745702985"><ele>357.33333333333337</ele><time>2026-04-18T08:59:35.001Z</time></trkpt><trkpt lat="43.42722741720403" lon="10.908633121708677"><ele>358.0</ele><time>2026-04-18T08:59:36.001Z</time></trkpt><trkpt lat="43.427162706624344" lon="10.908683760238638"><ele>358.6666666666667</ele><time>2026-04-18T08:59:37.001Z</time></trkpt><trkpt lat="43.42711391225631" lon="10.908755546796838"><ele>359.3333333333333</ele><time>2026-04-18T08:59:38.001Z</time></trkpt><trkpt lat="43.427097414752915" lon="10.908865290337353"><ele>360.0</ele><time>2026-04-18T08:59:39.001Z</time></trkpt><trkpt lat="43.427130585793286" lon="10.908984653478724"><ele>360.0</ele><time>2026-04-18T08:59:40.001Z</time></trkpt><trkpt lat="43.42719170523973" lon="10.909066320421509"><ele>360.0</ele><time>2026-04-18T08:59:41.001Z</time></trkpt><trkpt lat="43.42727149280922" lon="10.909142564773235"><ele>360.0</ele><time>2026-04-18T08:59:42Z</time></trkpt><trkpt lat="43.427375062365876" lon="10.909226414702724"><ele>360.0</ele><time>2026-04-18T08:59:43Z</time></trkpt><trkpt lat="43.42749017925543" lon="10.909311331843092"><ele>360.0</ele><time>2026-04-18T08:59:44Z</time></trkpt><trkpt lat="43.42758809520148" lon="10.909381384871432"><ele>361.5</ele><time>2026-04-18T08:59:45Z</time></trkpt><trkpt lat="43.427669789628695" lon="10.90945109207575"><ele>363.0</ele><time>2026-04-18T08:59:46Z</time></trkpt><trkpt lat="43.42774585016884" lon="10.909539389871025"><ele>364.5</ele><time>2026-04-18T08:59:47Z</time></trkpt><trkpt lat="43.42778331897793" lon="10.909670697981046"><ele>366.0</ele><time>2026-04-18T08:59:48Z</time></trkpt><trkpt lat="43.427785902201634" lon="10.909778622810272"><ele>367.5</ele><time>2026-04-18T08:59:49Z</time></trkpt><trkpt lat="43.42776552428132" lon="10.909867369258604"><ele>369.0</ele><time>2026-04-18T08:59:50Z</time></trkpt><trkpt lat="43.42774305552579" lon="10.909965952862656"><ele>370.75</ele><time>2026-04-18T08:59:51Z</time></trkpt><trkpt lat="43.427713144869315" lon="10.910102943508642"><ele>372.5</ele><time>2026-04-18T08:59:52Z</time></trkpt><trkpt lat="43.4277069494585" lon="10.910261078568938"><ele>374.25</ele><time>2026-04-18T08:59:53Z</time></trkpt><trkpt lat="43.427772661431376" lon="10.910421068640133"><ele>376.0</ele><time>2026-04-18T08:59:54Z</time></trkpt><trkpt lat="43.4278341149929" lon="10.910587701373233"><ele>376.0</ele><time>2026-04-18T08:59:55Z</time></trkpt><trkpt lat="43.4278849485028" lon="10.910711698344157"><ele>376.0</ele><time>2026-04-18T08:59:56Z</time></trkpt><trkpt lat="43.427907183712136" lon="10.910808937230168"><ele>376.0</ele><time>2026-04-18T08:59:57Z</time></trkpt><trkpt lat="43.42791468890071" lon="10.910901816879214"><ele>376.0</ele><time>2026-04-18T08:59:58Z</time></trkpt><trkpt lat="43.42792736062798" lon="10.910995552836395"><ele>376.0</ele><time>2026-04-18T08:59:59Z</time></trkpt><trkpt lat="43.42788809460302" lon="10.911282521955728"><ele>378.0</ele><time>2026-04-18T09:00:00Z</time></trkpt><trkpt lat="43.427881937169964" lon="10.91147630169642"><ele>380.0</ele><time>2026-04-18T09:00:01Z</time></trkpt><trkpt lat="43.42787262752968" lon="10.911663358692664"><ele>382.0</ele><time>2026-04-18T09:00:02Z</time></trkpt><trkpt lat="43.427860304177685" lon="10.911853790057737"><ele>384.0</ele><time>2026-04-18T09:00:03Z</time></trkpt><trkpt lat="43.42784507472531" lon="10.912048214490248"><ele>385.0</ele><time>2026-04-18T09:00:04Z</time></trkpt><trkpt lat="43.427820625048305" lon="10.912232695996103"><ele>386.0</ele><time>2026-04-18T09:00:05Z</time></trkpt><trkpt lat="43.42777374404908" lon="10.912391057736649"><ele>387.0</ele><time>2026-04-18T09:00:06Z</time></trkpt><trkpt lat="43.42772280365458" lon="10.912540734495137"><ele>388.0</ele><time>2026-04-18T09:00:07Z</time></trkpt><trkpt lat="43.427663106162136" lon="10.912690557679515"><ele>388.0</ele><time>2026-04-18T09:00:08Z</time></trkpt><trkpt lat="43.42758597156026" lon="10.912852361594686"><ele>388.0</ele><time>2026-04-18T09:00:09Z</time></trkpt><trkpt lat="43.42750097473344" lon="10.913009148347461"><ele>388.0</ele><time>2026-04-18T09:00:10Z</time></trkpt><trkpt lat="43.42736247709146" lon="10.913275214129133"><ele>387.79999999999995</ele><time>2026-04-18T09:00:12Z</time></trkpt><trkpt lat="43.4273341333674" lon="10.913440696975721"><ele>387.6</ele><time>2026-04-18T09:00:13Z</time></trkpt><trkpt lat="43.42733616990294" lon="10.913571992883819"><ele>387.4</ele><time>2026-04-18T09:00:14Z</time></trkpt><trkpt lat="43.427331033549564" lon="10.913705331549373"><ele>387.20000000000005</ele><time>2026-04-18T09:00:15Z</time></trkpt><trkpt lat="43.42734672899759" lon="10.913836656811446"><ele>387.0</ele><time>2026-04-18T09:00:16Z</time></trkpt><trkpt lat="43.4274228122365" lon="10.913941828881047"><ele>387.0</ele><time>2026-04-18T09:00:17Z</time></trkpt><trkpt lat="43.427491139145474" lon="10.914060841082676"><ele>387.0</ele><time>2026-04-18T09:00:18Z</time></trkpt><trkpt lat="43.42755889880139" lon="10.914206043489822"><ele>387.0</ele><time>2026-04-18T09:00:19Z</time></trkpt><trkpt lat="43.42764634278177" lon="10.91433826704068"><ele>387.0</ele><time>2026-04-18T09:00:20Z</time></trkpt><trkpt lat="43.427739336471596" lon="10.91448280802525"><ele>386.0</ele><time>2026-04-18T09:00:21Z</time></trkpt><trkpt lat="43.42784708774646" lon="10.914644421420054"><ele>385.0</ele><time>2026-04-18T09:00:22Z</time></trkpt><trkpt lat="43.427919704308934" lon="10.914797045679412"><ele>384.0</ele><time>2026-04-18T09:00:23Z</time></trkpt><trkpt lat="43.428020978831455" lon="10.914889164419705"><ele>383.0</ele><time>2026-04-18T09:00:24Z</time></trkpt><trkpt lat="43.42809552453412" lon="10.915033574323372"><ele>385.25</ele><time>2026-04-18T09:00:25Z</time></trkpt><trkpt lat="43.42818564352524" lon="10.915151650816496"><ele>387.5</ele><time>2026-04-18T09:00:26Z</time></trkpt><trkpt lat="43.42824558572024" lon="10.915286111833026"><ele>389.75</ele><time>2026-04-18T09:00:27Z</time></trkpt><trkpt lat="43.428306305857596" lon="10.915387731167607"><ele>392.0</ele><time>2026-04-18T09:00:28Z</time></trkpt><trkpt lat="43.42843816501456" lon="10.915412064859465"><ele>392.0</ele><time>2026-04-18T09:00:29Z</time></trkpt><trkpt lat="43.428564716541416" lon="10.915452179503168"><ele>392.0</ele><time>2026-04-18T09:00:30Z</time></trkpt><trkpt lat="43.42868166152498" lon="10.915453116947402"><ele>392.0</ele><time>2026-04-18T09:00:31Z</time></trkpt><trkpt lat="43.428777848745256" lon="10.915523434337304"><ele>392.0</ele><time>2026-04-18T09:00:32Z</time></trkpt><trkpt lat="43.42886591131322" lon="10.915607701058198"><ele>395.40000000000003</ele><time>2026-04-18T09:00:33Z</time></trkpt><trkpt lat="43.428922645600366" lon="10.915722021491847"><ele>398.8</ele><time>2026-04-18T09:00:34Z</time></trkpt><trkpt lat="43.42893540460306" lon="10.915831428864486"><ele>402.2</ele><time>2026-04-18T09:00:35Z</time></trkpt><trkpt lat="43.428934249546" lon="10.915976688085953"><ele>405.6</ele><time>2026-04-18T09:00:36Z</time></trkpt><trkpt lat="43.42892570153" lon="10.916149063816743"><ele>409.0</ele><time>2026-04-18T09:00:37Z</time></trkpt><trkpt lat="43.428929537312854" lon="10.916318295666326"><ele>410.25</ele><time>2026-04-18T09:00:38Z</time></trkpt><trkpt lat="43.42896847855155" lon="10.916496085860315"><ele>411.5</ele><time>2026-04-18T09:00:39Z</time></trkpt><trkpt lat="43.428997902722436" lon="10.916703734228903"><ele>412.75</ele><time>2026-04-18T09:00:40Z</time></trkpt><trkpt lat="43.42902041856682" lon="10.916853424850157"><ele>414.0</ele><time>2026-04-18T09:00:41Z</time></trkpt><trkpt lat="43.429053799492536" lon="10.917007524252003"><ele>414.66666666666663</ele><time>2026-04-18T09:00:42Z</time></trkpt><trkpt lat="43.429057076678916" lon="10.917147218813161"><ele>415.3333333333333</ele><time>2026-04-18T09:00:43Z</time></trkpt><trkpt lat="43.4291374455526" lon="10.917438837476784"><ele>416.0</ele><time>2026-04-18T09:00:44Z</time></trkpt><trkpt lat="43.42920013854645" lon="10.917656393079962"><ele>416.0</ele><time>2026-04-18T09:00:45Z</time></trkpt><trkpt lat="43.42923351795016" lon="10.917794203888675"><ele>416.0</ele><time>2026-04-18T09:00:46Z</time></trkpt><trkpt lat="43.42924762846525" lon="10.91797312973127"><ele>416.0</ele><time>2026-04-18T09:00:47Z</time></trkpt><trkpt lat="43.429269877434656" lon="10.918172468067796"><ele>416.0</ele><time>2026-04-18T09:00:48Z</time></trkpt><trkpt lat="43.42929631046464" lon="10.918371862937507"><ele>417.25</ele><time>2026-04-18T09:00:49Z</time></trkpt><trkpt lat="43.4292919763539" lon="10.918558085733991"><ele>418.5</ele><time>2026-04-18T09:00:50Z</time></trkpt><trkpt lat="43.429271919194626" lon="10.918747470001865"><ele>419.75</ele><time>2026-04-18T09:00:51Z</time></trkpt><trkpt lat="43.42923065584237" lon="10.918962383466084"><ele>421.0</ele><time>2026-04-18T09:00:52.001Z</time></trkpt><trkpt lat="43.429183991029745" lon="10.919158605886931"><ele>422.25</ele><time>2026-04-18T09:00:53.001Z</time></trkpt><trkpt lat="43.429123352117905" lon="10.919325543141236"><ele>423.5</ele><time>2026-04-18T09:00:54.001Z</time></trkpt><trkpt lat="43.429051922178736" lon="10.919504674583168"><ele>424.75</ele><time>2026-04-18T09:00:55.001Z</time></trkpt><trkpt lat="43.42897583510439" lon="10.919686234712072"><ele>426.0</ele><time>2026-04-18T09:00:56.001Z</time></trkpt><trkpt lat="43.42890706938403" lon="10.919857306003209"><ele>426.0</ele><time>2026-04-18T09:00:57.001Z</time></trkpt><trkpt lat="43.42887151895781" lon="10.91996641101508"><ele>426.0</ele><time>2026-04-18T09:00:58.001Z</time></trkpt><trkpt lat="43.42884959498862" lon="10.920093869033652"><ele>426.0</ele><time>2026-04-18T09:00:59.001Z</time></trkpt><trkpt lat="43.428861904175875" lon="10.920202896045199"><ele>426.0</ele><time>2026-04-18T09:01:00.001Z</time></trkpt><trkpt lat="43.42887256272311" lon="10.92030926042494"><ele>426.0</ele><time>2026-04-18T09:01:01.001Z</time></trkpt><trkpt lat="43.42889559840023" lon="10.920442839898064"><ele>426.0</ele><time>2026-04-18T09:01:02.001Z</time></trkpt><trkpt lat="43.42893682052984" lon="10.920609963175885"><ele>426.0</ele><time>2026-04-18T09:01:03.001Z</time></trkpt><trkpt lat="43.42897919662765" lon="10.920786555491672"><ele>426.0</ele><time>2026-04-18T09:01:04.001Z</time></trkpt><trkpt lat="43.429006222162904" lon="10.920937823234498"><ele>426.0</ele><time>2026-04-18T09:01:05.001Z</time></trkpt><trkpt lat="43.42901247672051" lon="10.921075814844063"><ele>426.0</ele><time>2026-04-18T09:01:06.001Z</time></trkpt><trkpt lat="43.429005879241274" lon="10.921193230096819"><ele>426.0</ele><time>2026-04-18T09:01:07.001Z</time></trkpt><trkpt lat="43.428978782797294" lon="10.921320323615648"><ele>425.20000000000005</ele><time>2026-04-18T09:01:08.001Z</time></trkpt><trkpt lat="43.4289376444304" lon="10.921436802996807"><ele>424.40000000000003</ele><time>2026-04-18T09:01:09.001Z</time></trkpt><trkpt lat="43.42884667538969" lon="10.92152192603348"><ele>423.6</ele><time>2026-04-18T09:01:10.001Z</time></trkpt><trkpt lat="43.428762135679214" lon="10.921604460705518"><ele>422.8</ele><time>2026-04-18T09:01:11.001Z</time></trkpt><trkpt lat="43.42866480066438" lon="10.92169419583652"><ele>422.0</ele><time>2026-04-18T09:01:12.001Z</time></trkpt><trkpt lat="43.42857084520177" lon="10.921803474408048"><ele>422.0</ele><time>2026-04-18T09:01:13.001Z</time></trkpt><trkpt lat="43.42847779003288" lon="10.921901472314016"><ele>422.0</ele><time>2026-04-18T09:01:14.001Z</time></trkpt><trkpt lat="43.4283650764875" lon="10.922017376881453"><ele>422.0</ele><time>2026-04-18T09:01:15.001Z</time></trkpt><trkpt lat="43.42827945986076" lon="10.922170589225907"><ele>422.0</ele><time>2026-04-18T09:01:16.001Z</time></trkpt><trkpt lat="43.42821342064116" lon="10.922349252773362"><ele>422.0</ele><time>2026-04-18T09:01:17.001Z</time></trkpt><trkpt lat="43.42816350589486" lon="10.922545798139758"><ele>422.0</ele><time>2026-04-18T09:01:18.001Z</time></trkpt><trkpt lat="43.428133835809504" lon="10.922701681382364"><ele>422.0</ele><time>2026-04-18T09:01:19.001Z</time></trkpt><trkpt lat="43.428089963275255" lon="10.922879979572668"><ele>422.0</ele><time>2026-04-18T09:01:20.001Z</time></trkpt><trkpt lat="43.428047290514044" lon="10.923061512250987"><ele>422.25</ele><time>2026-04-18T09:01:21.001Z</time></trkpt><trkpt lat="43.42800066506473" lon="10.923237794685324"><ele>422.5</ele><time>2026-04-18T09:01:22.001Z</time></trkpt><trkpt lat="43.427952487619436" lon="10.923428745993881"><ele>422.75</ele><time>2026-04-18T09:01:23.001Z</time></trkpt><trkpt lat="43.42790600665001" lon="10.923609951880676"><ele>423.0</ele><time>2026-04-18T09:01:24.001Z</time></trkpt><trkpt lat="43.42786043113881" lon="10.92378732876457"><ele>431.0</ele><time>2026-04-18T09:01:25.001Z</time></trkpt><trkpt lat="43.42783609854485" lon="10.923970414560616"><ele>439.0</ele><time>2026-04-18T09:01:26.001Z</time></trkpt><trkpt lat="43.42783057964021" lon="10.924162300041283"><ele>447.0</ele><time>2026-04-18T09:01:27.001Z</time></trkpt><trkpt lat="43.427829632826494" lon="10.92437580584285"><ele>455.0</ele><time>2026-04-18T09:01:28.001Z</time></trkpt><trkpt lat="43.427832448514216" lon="10.924570673797618"><ele>455.75</ele><time>2026-04-18T09:01:29.001Z</time></trkpt><trkpt lat="43.42783114361722" lon="10.924788450564023"><ele>456.5</ele><time>2026-04-18T09:01:30.001Z</time></trkpt><trkpt lat="43.42783824416744" lon="10.924991768694253"><ele>457.25</ele><time>2026-04-18T09:01:31.001Z</time></trkpt><trkpt lat="43.42784478997338" lon="10.925185767460928"><ele>458.0</ele><time>2026-04-18T09:01:32.001Z</time></trkpt><trkpt lat="43.42784782571226" lon="10.925385679491848"><ele>458.0</ele><time>2026-04-18T09:01:33.001Z</time></trkpt><trkpt lat="43.42785552905634" lon="10.925568177847639"><ele>457.99999999999994</ele><time>2026-04-18T09:01:34.001Z</time></trkpt><trkpt lat="43.42784234964933" lon="10.925728693834026"><ele>457.99999999999994</ele><time>2026-04-18T09:01:35.001Z</time></trkpt><trkpt lat="43.4278274397613" lon="10.925855632623469"><ele>458.0</ele><time>2026-04-18T09:01:36.001Z</time></trkpt><trkpt lat="43.42779410648759" lon="10.925972447332711"><ele>458.0</ele><time>2026-04-18T09:01:37.001Z</time></trkpt><trkpt lat="43.42775307188519" lon="10.926078959360794"><ele>457.4</ele><time>2026-04-18T09:01:38.001Z</time></trkpt><trkpt lat="43.42770541878845" lon="10.9262042751543"><ele>456.79999999999995</ele><time>2026-04-18T09:01:39.001Z</time></trkpt><trkpt lat="43.42763710260499" lon="10.926301175360067"><ele>456.2</ele><time>2026-04-18T09:01:40.001Z</time></trkpt><trkpt lat="43.42755973887456" lon="10.926349862038927"><ele>455.6</ele><time>2026-04-18T09:01:41.001Z</time></trkpt><trkpt lat="43.42748116973718" lon="10.926360948185817"><ele>455.0</ele><time>2026-04-18T09:01:42.001Z</time></trkpt><trkpt lat="43.42738333924319" lon="10.92636847281061"><ele>455.0</ele><time>2026-04-18T09:01:43.001Z</time></trkpt><trkpt lat="43.4272653841874" lon="10.926394641648274"><ele>455.0</ele><time>2026-04-18T09:01:44.001Z</time></trkpt><trkpt lat="43.42715926496037" lon="10.926425951049957"><ele>455.0</ele><time>2026-04-18T09:01:45.001Z</time></trkpt><trkpt lat="43.42705769210529" lon="10.926493158742087"><ele>455.0</ele><time>2026-04-18T09:01:46.001Z</time></trkpt><trkpt lat="43.42697791335818" lon="10.926599475054617"><ele>457.6</ele><time>2026-04-18T09:01:47.001Z</time></trkpt><trkpt lat="43.42693101976249" lon="10.92671358843954"><ele>460.2</ele><time>2026-04-18T09:01:48Z</time></trkpt><trkpt lat="43.42693648939873" lon="10.926848432099359"><ele>462.79999999999995</ele><time>2026-04-18T09:01:49Z</time></trkpt><trkpt lat="43.426979371734" lon="10.926975005418878"><ele>465.4</ele><time>2026-04-18T09:01:50Z</time></trkpt><trkpt lat="43.42705101131721" lon="10.927046255703114"><ele>468.0</ele><time>2026-04-18T09:01:51Z</time></trkpt><trkpt lat="43.42713267941977" lon="10.927096593840204"><ele>467.5</ele><time>2026-04-18T09:01:52Z</time></trkpt><trkpt lat="43.427240442241875" lon="10.927169467559187"><ele>467.0</ele><time>2026-04-18T09:01:53Z</time></trkpt><trkpt lat="43.42735402496257" lon="10.927224799168721"><ele>466.5</ele><time>2026-04-18T09:01:54Z</time></trkpt><trkpt lat="43.427468353948946" lon="10.927284220268211"><ele>466.0</ele><time>2026-04-18T09:01:55Z</time></trkpt><trkpt lat="43.427543971938704" lon="10.92739429883522"><ele>466.0</ele><time>2026-04-18T09:01:56Z</time></trkpt><trkpt lat="43.42759422830345" lon="10.927520635015792"><ele>466.0</ele><time>2026-04-18T09:01:57Z</time></trkpt><trkpt lat="43.427659029699065" lon="10.927667790886812"><ele>466.0</ele><time>2026-04-18T09:01:58Z</time></trkpt><trkpt lat="43.42772779783949" lon="10.927828437923997"><ele>466.0</ele><time>2026-04-18T09:01:59Z</time></trkpt><trkpt lat="43.42780849553698" lon="10.92796637887126"><ele>467.20000000000005</ele><time>2026-04-18T09:02:00Z</time></trkpt><trkpt lat="43.42786641769426" lon="10.928126791220555"><ele>468.40000000000003</ele><time>2026-04-18T09:02:01Z</time></trkpt><trkpt lat="43.42792219594671" lon="10.928244370301416"><ele>469.6</ele><time>2026-04-18T09:02:02Z</time></trkpt><trkpt lat="43.42796905770856" lon="10.928373918249305"><ele>470.8</ele><time>2026-04-18T09:02:03Z</time></trkpt><trkpt lat="43.42798411221812" lon="10.928485965991657"><ele>472.0</ele><time>2026-04-18T09:02:04Z</time></trkpt><trkpt lat="43.427959641834555" lon="10.928620154948051"><ele>472.0</ele><time>2026-04-18T09:02:05Z</time></trkpt><trkpt lat="43.42796782348203" lon="10.928772783788544"><ele>472.0</ele><time>2026-04-18T09:02:06Z</time></trkpt><trkpt lat="43.427992373152264" lon="10.928923748570073"><ele>472.0</ele><time>2026-04-18T09:02:07Z</time></trkpt><trkpt lat="43.42801514356917" lon="10.929079950325065"><ele>472.0</ele><time>2026-04-18T09:02:08Z</time></trkpt><trkpt lat="43.4280449080818" lon="10.929254734466612"><ele>475.25</ele><time>2026-04-18T09:02:09Z</time></trkpt><trkpt lat="43.428095428207705" lon="10.929397715573412"><ele>478.5</ele><time>2026-04-18T09:02:10Z</time></trkpt><trkpt lat="43.42814888550376" lon="10.929553308771915"><ele>481.75</ele><time>2026-04-18T09:02:11Z</time></trkpt><trkpt lat="43.42819657768357" lon="10.929712252134303"><ele>485.0</ele><time>2026-04-18T09:02:12Z</time></trkpt><trkpt lat="43.42822595948403" lon="10.92985442969402"><ele>485.0</ele><time>2026-04-18T09:02:13Z</time></trkpt><trkpt lat="43.42823527453784" lon="10.929970580170831"><ele>485.0</ele><time>2026-04-18T09:02:14Z</time></trkpt><trkpt lat="43.42822766905995" lon="10.930098330163283"><ele>485.0</ele><time>2026-04-18T09:02:15Z</time></trkpt><trkpt lat="43.42820710580174" lon="10.930223104239243"><ele>485.0</ele><time>2026-04-18T09:02:16Z</time></trkpt><trkpt lat="43.428186256594714" lon="10.930383982383194"><ele>485.0</ele><time>2026-04-18T09:02:17Z</time></trkpt><trkpt lat="43.42814613092382" lon="10.930554513329987"><ele>487.25</ele><time>2026-04-18T09:02:18Z</time></trkpt><trkpt lat="43.42809647422756" lon="10.930744487358789"><ele>489.5</ele><time>2026-04-18T09:02:19Z</time></trkpt><trkpt lat="43.42806915177765" lon="10.930915888749475"><ele>491.75</ele><time>2026-04-18T09:02:20Z</time></trkpt><trkpt lat="43.42803895831371" lon="10.931083321395539"><ele>494.0</ele><time>2026-04-18T09:02:21Z</time></trkpt><trkpt lat="43.4280213255855" lon="10.931252019209484"><ele>496.75</ele><time>2026-04-18T09:02:22Z</time></trkpt><trkpt lat="43.42802243014772" lon="10.931414607901303"><ele>499.5</ele><time>2026-04-18T09:02:23Z</time></trkpt><trkpt lat="43.42804729002762" lon="10.931575653610595"><ele>502.25</ele><time>2026-04-18T09:02:24Z</time></trkpt><trkpt lat="43.42808061665148" lon="10.931743627299458"><ele>505.0</ele><time>2026-04-18T09:02:25Z</time></trkpt><trkpt lat="43.42810723840301" lon="10.931902035560297"><ele>506.4</ele><time>2026-04-18T09:02:26Z</time></trkpt><trkpt lat="43.42810525587573" lon="10.932035544731182"><ele>507.8</ele><time>2026-04-18T09:02:27Z</time></trkpt><trkpt lat="43.42806789159663" lon="10.932163882224987"><ele>509.20000000000005</ele><time>2026-04-18T09:02:28Z</time></trkpt><trkpt lat="43.42800606870653" lon="10.93224576309368"><ele>510.6</ele><time>2026-04-18T09:02:29Z</time></trkpt><trkpt lat="43.4279335758557" lon="10.93229618488503"><ele>512.0</ele><time>2026-04-18T09:02:30Z</time></trkpt><trkpt lat="43.42783016353193" lon="10.932348043037651"><ele>512.4</ele><time>2026-04-18T09:02:31Z</time></trkpt><trkpt lat="43.42775637130761" lon="10.932436169619114"><ele>512.8000000000001</ele><time>2026-04-18T09:02:32Z</time></trkpt><trkpt lat="43.42769942701979" lon="10.932574887662113"><ele>513.2</ele><time>2026-04-18T09:02:34Z</time></trkpt><trkpt lat="43.42771568759315" lon="10.932677572722843"><ele>513.6</ele><time>2026-04-18T09:02:35Z</time></trkpt><trkpt lat="43.4277718721524" lon="10.932776946869602"><ele>514.0</ele><time>2026-04-18T09:02:36Z</time></trkpt><trkpt lat="43.42780487947004" lon="10.932896142394982"><ele>514.0</ele><time>2026-04-18T09:02:37Z</time></trkpt><trkpt lat="43.42783846247409" lon="10.93304247684552"><ele>514.0</ele><time>2026-04-18T09:02:38Z</time></trkpt><trkpt lat="43.42790653322015" lon="10.933176320873832"><ele>514.0</ele><time>2026-04-18T09:02:39Z</time></trkpt><trkpt lat="43.427960644460136" lon="10.933324727018649"><ele>514.0</ele><time>2026-04-18T09:02:40Z</time></trkpt><trkpt lat="43.42800225249264" lon="10.93347904025308"><ele>511.0</ele><time>2026-04-18T09:02:41Z</time></trkpt><trkpt lat="43.42804265564493" lon="10.933603275345916"><ele>508.0</ele><time>2026-04-18T09:02:42Z</time></trkpt><trkpt lat="43.428065971416274" lon="10.933706799636836"><ele>505.0</ele><time>2026-04-18T09:02:43Z</time></trkpt><trkpt lat="43.428109009667075" lon="10.933794111648124"><ele>502.0</ele><time>2026-04-18T09:02:44Z</time></trkpt><trkpt lat="43.42817124939289" lon="10.933877904736498"><ele>499.0</ele><time>2026-04-18T09:02:45Z</time></trkpt><trkpt lat="43.428257285489785" lon="10.933983458869378"><ele>499.0</ele><time>2026-04-18T09:02:46Z</time></trkpt><trkpt lat="43.42834599014723" lon="10.934076706745888"><ele>499.0</ele><time>2026-04-18T09:02:47Z</time></trkpt><trkpt lat="43.42844997509909" lon="10.934159121546285"><ele>499.0</ele><time>2026-04-18T09:02:48Z</time></trkpt><trkpt lat="43.42856489691904" lon="10.934246099664268"><ele>499.0</ele><time>2026-04-18T09:02:49Z</time></trkpt><trkpt lat="43.42868991984635" lon="10.934341971909184"><ele>497.0</ele><time>2026-04-18T09:02:50Z</time></trkpt><trkpt lat="43.42879200431404" lon="10.934444500637618"><ele>495.0</ele><time>2026-04-18T09:02:51Z</time></trkpt><trkpt lat="43.428876062059906" lon="10.93454325661979"><ele>493.0</ele><time>2026-04-18T09:02:52Z</time></trkpt><trkpt lat="43.428958272637026" lon="10.934629219277062"><ele>491.0</ele><time>2026-04-18T09:02:53Z</time></trkpt><trkpt lat="43.4290468855526" lon="10.934694047260074"><ele>489.0</ele><time>2026-04-18T09:02:54Z</time></trkpt><trkpt lat="43.4291477630128" lon="10.934758154794226"><ele>489.0</ele><time>2026-04-18T09:02:55Z</time></trkpt><trkpt lat="43.429267540526276" lon="10.934835419793188"><ele>489.0</ele><time>2026-04-18T09:02:56Z</time></trkpt><trkpt lat="43.42939886916023" lon="10.934915409525576"><ele>489.0</ele><time>2026-04-18T09:02:57Z</time></trkpt><trkpt lat="43.42952920295376" lon="10.93499322279621"><ele>489.0</ele><time>2026-04-18T09:02:58Z</time></trkpt><trkpt lat="43.429660882556334" lon="10.935076311751644"><ele>489.25</ele><time>2026-04-18T09:02:59Z</time></trkpt><trkpt lat="43.429784761076434" lon="10.935166960087695"><ele>489.5</ele><time>2026-04-18T09:03:00Z</time></trkpt><trkpt lat="43.42990026024042" lon="10.935263542376928"><ele>489.75</ele><time>2026-04-18T09:03:01.001Z</time></trkpt><trkpt lat="43.43001157013631" lon="10.935356059690216"><ele>490.0</ele><time>2026-04-18T09:03:02.001Z</time></trkpt><trkpt lat="43.430093308423444" lon="10.935436821775909"><ele>490.0</ele><time>2026-04-18T09:03:03.001Z</time></trkpt><trkpt lat="43.43017564401275" lon="10.935516276082929"><ele>490.0</ele><time>2026-04-18T09:03:04.001Z</time></trkpt><trkpt lat="43.43026105214166" lon="10.935633554297297"><ele>490.0</ele><time>2026-04-18T09:03:05.001Z</time></trkpt><trkpt lat="43.430349666096696" lon="10.935784382608665"><ele>490.0</ele><time>2026-04-18T09:03:06.001Z</time></trkpt><trkpt lat="43.430447421745384" lon="10.935946581114802"><ele>492.25</ele><time>2026-04-18T09:03:07.001Z</time></trkpt><trkpt lat="43.430544569292756" lon="10.936094596541881"><ele>494.5</ele><time>2026-04-18T09:03:08.001Z</time></trkpt><trkpt lat="43.43063451223136" lon="10.936258768541753"><ele>496.75</ele><time>2026-04-18T09:03:09.001Z</time></trkpt><trkpt lat="43.43072249085773" lon="10.936425530622524"><ele>499.0</ele><time>2026-04-18T09:03:10.001Z</time></trkpt><trkpt lat="43.43080154752564" lon="10.93659291000537"><ele>497.5</ele><time>2026-04-18T09:03:11.001Z</time></trkpt><trkpt lat="43.43086385002089" lon="10.936758177301217"><ele>496.0</ele><time>2026-04-18T09:03:12.001Z</time></trkpt><trkpt lat="43.43092146048222" lon="10.936956714799171"><ele>494.5</ele><time>2026-04-18T09:03:13.001Z</time></trkpt><trkpt lat="43.430958100924336" lon="10.937137169252853"><ele>493.0</ele><time>2026-04-18T09:03:14.001Z</time></trkpt><trkpt lat="43.431007207546216" lon="10.937282307920315"><ele>493.0</ele><time>2026-04-18T09:03:15.001Z</time></trkpt><trkpt lat="43.43107119721899" lon="10.93741607986761"><ele>493.0</ele><time>2026-04-18T09:03:16.001Z</time></trkpt><trkpt lat="43.431150809753404" lon="10.937545874593114"><ele>493.0</ele><time>2026-04-18T09:03:17.001Z</time></trkpt><trkpt lat="43.43124039186624" lon="10.937641055033675"><ele>493.0</ele><time>2026-04-18T09:03:18.001Z</time></trkpt><trkpt lat="43.43134208847189" lon="10.937712811128893"><ele>494.75</ele><time>2026-04-18T09:03:19.001Z</time></trkpt><trkpt lat="43.43144004696658" lon="10.937812912690472"><ele>496.5</ele><time>2026-04-18T09:03:20.001Z</time></trkpt><trkpt lat="43.431531432580336" lon="10.937927708563295"><ele>498.25</ele><time>2026-04-18T09:03:21.001Z</time></trkpt><trkpt lat="43.43162364295857" lon="10.938059820015926"><ele>500.0</ele><time>2026-04-18T09:03:22.001Z</time></trkpt><trkpt lat="43.43171181147487" lon="10.938198095731927"><ele>500.0</ele><time>2026-04-18T09:03:23.001Z</time></trkpt><trkpt lat="43.431795134579225" lon="10.93834031047145"><ele>500.0</ele><time>2026-04-18T09:03:24.001Z</time></trkpt><trkpt lat="43.43187917112672" lon="10.938505286183041"><ele>500.0</ele><time>2026-04-18T09:03:25.001Z</time></trkpt><trkpt lat="43.431957146129854" lon="10.938663650248127"><ele>500.0</ele><time>2026-04-18T09:03:26.001Z</time></trkpt><trkpt lat="43.43199317122566" lon="10.938835519112201"><ele>500.0</ele><time>2026-04-18T09:03:27.001Z</time></trkpt><trkpt lat="43.431998314685465" lon="10.938992933945217"><ele>500.0</ele><time>2026-04-18T09:03:28.001Z</time></trkpt><trkpt lat="43.43196783685497" lon="10.939143224084381"><ele>500.0</ele><time>2026-04-18T09:03:29.001Z</time></trkpt><trkpt lat="43.43195043443428" lon="10.939302282558268"><ele>500.0</ele><time>2026-04-18T09:03:30.001Z</time></trkpt><trkpt lat="43.431938340754634" lon="10.939457873590449"><ele>500.8</ele><time>2026-04-18T09:03:31.001Z</time></trkpt><trkpt lat="43.43195646520452" lon="10.939590796813123"><ele>501.6</ele><time>2026-04-18T09:03:32.001Z</time></trkpt><trkpt lat="43.43198839035305" lon="10.939713643860546"><ele>502.4</ele><time>2026-04-18T09:03:33.001Z</time></trkpt><trkpt lat="43.43204246645536" lon="10.93982438774699"><ele>503.2</ele><time>2026-04-18T09:03:34.001Z</time></trkpt><trkpt lat="43.432094039948915" lon="10.939932814116355"><ele>504.0</ele><time>2026-04-18T09:03:35.001Z</time></trkpt><trkpt lat="43.432074652771355" lon="10.940019430583977"><ele>505.2</ele><time>2026-04-18T09:03:36.001Z</time></trkpt><trkpt lat="43.43204478851019" lon="10.940126777072315"><ele>506.4</ele><time>2026-04-18T09:03:37.001Z</time></trkpt><trkpt lat="43.43202193769407" lon="10.940265487696601"><ele>507.6</ele><time>2026-04-18T09:03:38.001Z</time></trkpt><trkpt lat="43.43200131742916" lon="10.940411187239253"><ele>508.8</ele><time>2026-04-18T09:03:39.001Z</time></trkpt><trkpt lat="43.4319765010395" lon="10.940588418965215"><ele>510.0</ele><time>2026-04-18T09:03:40.001Z</time></trkpt><trkpt lat="43.43194769592067" lon="10.940780054843575"><ele>511.25</ele><time>2026-04-18T09:03:41.001Z</time></trkpt><trkpt lat="43.43191313380164" lon="10.940983853508744"><ele>512.5</ele><time>2026-04-18T09:03:42.001Z</time></trkpt><trkpt lat="43.43189594363417" lon="10.941179575198603"><ele>513.75</ele><time>2026-04-18T09:03:43.001Z</time></trkpt><trkpt lat="43.43188832089202" lon="10.941379093005548"><ele>515.0</ele><time>2026-04-18T09:03:44.001Z</time></trkpt><trkpt lat="43.43186943784156" lon="10.941589628101816"><ele>515.3333333333333</ele><time>2026-04-18T09:03:45.001Z</time></trkpt><trkpt lat="43.43186467750327" lon="10.941824765347995"><ele>515.6666666666666</ele><time>2026-04-18T09:03:46.001Z</time></trkpt><trkpt lat="43.431860103339694" lon="10.942036929778842"><ele>516.0</ele><time>2026-04-18T09:03:47.001Z</time></trkpt><trkpt lat="43.43185613101868" lon="10.942237944919873"><ele>516.0</ele><time>2026-04-18T09:03:48.001Z</time></trkpt><trkpt lat="43.431852687106414" lon="10.942441939680055"><ele>516.0</ele><time>2026-04-18T09:03:49.001Z</time></trkpt><trkpt lat="43.431873410338454" lon="10.942657336353474"><ele>516.0</ele><time>2026-04-18T09:03:50.001Z</time></trkpt><trkpt lat="43.43187718343156" lon="10.942894630355534"><ele>514.3333333333334</ele><time>2026-04-18T09:03:51.001Z</time></trkpt><trkpt lat="43.43190073979228" lon="10.943114940708288"><ele>512.6666666666667</ele><time>2026-04-18T09:03:52.001Z</time></trkpt><trkpt lat="43.43191414066301" lon="10.943327291607206"><ele>511.0</ele><time>2026-04-18T09:03:53.001Z</time></trkpt><trkpt lat="43.43190639771141" lon="10.943543406434062"><ele>510.25</ele><time>2026-04-18T09:03:54Z</time></trkpt><trkpt lat="43.431900249845036" lon="10.943775267158768"><ele>509.5</ele><time>2026-04-18T09:03:55Z</time></trkpt><trkpt lat="43.43191540945243" lon="10.943992944878524"><ele>508.75</ele><time>2026-04-18T09:03:56Z</time></trkpt><trkpt lat="43.43193486576575" lon="10.944151062861387"><ele>508.0</ele><time>2026-04-18T09:03:57Z</time></trkpt><trkpt lat="43.43197096248489" lon="10.94429117592237"><ele>507.25</ele><time>2026-04-18T09:03:58Z</time></trkpt><trkpt lat="43.43203269767433" lon="10.94443662440977"><ele>506.5</ele><time>2026-04-18T09:03:59Z</time></trkpt><trkpt lat="43.432110258411605" lon="10.944539143825558"><ele>505.75</ele><time>2026-04-18T09:04:00Z</time></trkpt><trkpt lat="43.43222904785708" lon="10.94456805160744"><ele>505.0</ele><time>2026-04-18T09:04:01Z</time></trkpt><trkpt lat="43.43234209639098" lon="10.94456093365652"><ele>506.5</ele><time>2026-04-18T09:04:02Z</time></trkpt><trkpt lat="43.43248099261737" lon="10.944578650293249"><ele>508.0</ele><time>2026-04-18T09:04:03Z</time></trkpt><trkpt lat="43.432560361223466" lon="10.944546541485947"><ele>509.5</ele><time>2026-04-18T09:04:04Z</time></trkpt><trkpt lat="43.43270058510971" lon="10.94449736076641"><ele>511.0</ele><time>2026-04-18T09:04:05Z</time></trkpt><trkpt lat="43.43285873105485" lon="10.94447566050213"><ele>513.0</ele><time>2026-04-18T09:04:06Z</time></trkpt><trkpt lat="43.43301131964747" lon="10.94442822194915"><ele>515.0</ele><time>2026-04-18T09:04:07Z</time></trkpt><trkpt lat="43.43317202403877" lon="10.944389386565668"><ele>517.0</ele><time>2026-04-18T09:04:08Z</time></trkpt><trkpt lat="43.43331476850028" lon="10.944359488811399"><ele>517.0</ele><time>2026-04-18T09:04:09Z</time></trkpt><trkpt lat="43.433437811444556" lon="10.944355957815254"><ele>517.0</ele><time>2026-04-18T09:04:10Z</time></trkpt><trkpt lat="43.43354132474301" lon="10.944441944427531"><ele>517.0</ele><time>2026-04-18T09:04:11Z</time></trkpt><trkpt lat="43.43363187311579" lon="10.944503253052325"><ele>517.0</ele><time>2026-04-18T09:04:12Z</time></trkpt><trkpt lat="43.433728386392076" lon="10.944581943697305"><ele>519.75</ele><time>2026-04-18T09:04:13Z</time></trkpt><trkpt lat="43.4338280453893" lon="10.944669338083704"><ele>522.5</ele><time>2026-04-18T09:04:14Z</time></trkpt><trkpt lat="43.43393457283922" lon="10.944732789113452"><ele>525.25</ele><time>2026-04-18T09:04:15Z</time></trkpt><trkpt lat="43.434048589789064" lon="10.944816972664096"><ele>528.0</ele><time>2026-04-18T09:04:16Z</time></trkpt><trkpt lat="43.434187867428214" lon="10.944883376656795"><ele>528.0</ele><time>2026-04-18T09:04:17Z</time></trkpt><trkpt lat="43.43433304788045" lon="10.944935589631216"><ele>528.0</ele><time>2026-04-18T09:04:18Z</time></trkpt><trkpt lat="43.43447271326837" lon="10.944969215137109"><ele>528.0</ele><time>2026-04-18T09:04:19Z</time></trkpt><trkpt lat="43.43457323570425" lon="10.944978576408259"><ele>528.0</ele><time>2026-04-18T09:04:20Z</time></trkpt><trkpt lat="43.43467614537453" lon="10.945010220715558"><ele>531.0</ele><time>2026-04-18T09:04:21Z</time></trkpt><trkpt lat="43.43479296151026" lon="10.94507532157678"><ele>534.0</ele><time>2026-04-18T09:04:22Z</time></trkpt><trkpt lat="43.434824610563034" lon="10.945201473436159"><ele>537.0</ele><time>2026-04-18T09:04:23Z</time></trkpt><trkpt lat="43.43483347149674" lon="10.945293182121759"><ele>540.0</ele><time>2026-04-18T09:04:24Z</time></trkpt><trkpt lat="43.434904510044156" lon="10.945459283407422"><ele>543.0</ele><time>2026-04-18T09:04:26Z</time></trkpt><trkpt lat="43.43493780333915" lon="10.945587733093738"><ele>543.0</ele><time>2026-04-18T09:04:27Z</time></trkpt><trkpt lat="43.435005001882736" lon="10.945704750588913"><ele>543.0</ele><time>2026-04-18T09:04:28Z</time></trkpt><trkpt lat="43.43509778155457" lon="10.945759922266555"><ele>543.0</ele><time>2026-04-18T09:04:29Z</time></trkpt><trkpt lat="43.43517070204617" lon="10.945878029703355"><ele>543.0</ele><time>2026-04-18T09:04:30Z</time></trkpt><trkpt lat="43.43525721475969" lon="10.945970377480887"><ele>543.0</ele><time>2026-04-18T09:04:31Z</time></trkpt><trkpt lat="43.4353534666481" lon="10.946043200464437"><ele>544.6</ele><time>2026-04-18T09:04:32Z</time></trkpt><trkpt lat="43.435415005108744" lon="10.946175875682188"><ele>546.1999999999999</ele><time>2026-04-18T09:04:33Z</time></trkpt><trkpt lat="43.43550428478132" lon="10.946242581101016"><ele>547.8</ele><time>2026-04-18T09:04:34Z</time></trkpt><trkpt lat="43.43559467840204" lon="10.94633091686556"><ele>549.4</ele><time>2026-04-18T09:04:35Z</time></trkpt><trkpt lat="43.43569712639911" lon="10.946398147090843"><ele>551.0</ele><time>2026-04-18T09:04:36Z</time></trkpt><trkpt lat="43.43579507536398" lon="10.946503412348475"><ele>551.0</ele><time>2026-04-18T09:04:37Z</time></trkpt><trkpt lat="43.43590140810399" lon="10.946600776042564"><ele>551.0</ele><time>2026-04-18T09:04:38Z</time></trkpt><trkpt lat="43.435977381635155" lon="10.946741611994103"><ele>551.0</ele><time>2026-04-18T09:04:39Z</time></trkpt><trkpt lat="43.4360474777711" lon="10.946894257970396"><ele>551.0</ele><time>2026-04-18T09:04:40Z</time></trkpt><trkpt lat="43.4361342725867" lon="10.947021434189509"><ele>554.0</ele><time>2026-04-18T09:04:41Z</time></trkpt><trkpt lat="43.43620375293471" lon="10.947164743273396"><ele>557.0</ele><time>2026-04-18T09:04:42Z</time></trkpt><trkpt lat="43.43625433335506" lon="10.947293273476108"><ele>560.0</ele><time>2026-04-18T09:04:43Z</time></trkpt><trkpt lat="43.43628841296853" lon="10.947395591265133"><ele>563.0</ele><time>2026-04-18T09:04:44Z</time></trkpt><trkpt lat="43.43627468946665" lon="10.94754012253969"><ele>566.0</ele><time>2026-04-18T09:04:46Z</time></trkpt><trkpt lat="43.43619004666215" lon="10.947620127692206"><ele>566.0</ele><time>2026-04-18T09:04:47Z</time></trkpt><trkpt lat="43.436160671917435" lon="10.947755705172634"><ele>566.0</ele><time>2026-04-18T09:04:48Z</time></trkpt><trkpt lat="43.436148398270824" lon="10.947922811604531"><ele>566.0</ele><time>2026-04-18T09:04:49Z</time></trkpt><trkpt lat="43.43613691831529" lon="10.948055831870429"><ele>566.0</ele><time>2026-04-18T09:04:50Z</time></trkpt><trkpt lat="43.436148019306486" lon="10.9481882537714"><ele>566.0</ele><time>2026-04-18T09:04:51Z</time></trkpt><trkpt lat="43.436152404248475" lon="10.948324741918025"><ele>564.75</ele><time>2026-04-18T09:04:52Z</time></trkpt><trkpt lat="43.436172330621496" lon="10.948449946958375"><ele>563.5</ele><time>2026-04-18T09:04:53Z</time></trkpt><trkpt lat="43.43621594630276" lon="10.948592980417578"><ele>562.25</ele><time>2026-04-18T09:04:54Z</time></trkpt><trkpt lat="43.43627529212806" lon="10.948744277181696"><ele>561.0</ele><time>2026-04-18T09:04:55Z</time></trkpt><trkpt lat="43.43634959744355" lon="10.94887665470455"><ele>561.0</ele><time>2026-04-18T09:04:56Z</time></trkpt><trkpt lat="43.43643419938496" lon="10.949032431134981"><ele>561.0</ele><time>2026-04-18T09:04:57Z</time></trkpt><trkpt lat="43.436500670665815" lon="10.949223853960207"><ele>561.0</ele><time>2026-04-18T09:04:58Z</time></trkpt><trkpt lat="43.436593298282965" lon="10.94937048005153"><ele>561.0</ele><time>2026-04-18T09:04:59Z</time></trkpt><trkpt lat="43.43668503655823" lon="10.949491280169248"><ele>560.75</ele><time>2026-04-18T09:05:00Z</time></trkpt><trkpt lat="43.43677703755223" lon="10.949577322393516"><ele>560.5</ele><time>2026-04-18T09:05:01Z</time></trkpt><trkpt lat="43.436880244678264" lon="10.9496459153236"><ele>560.25</ele><time>2026-04-18T09:05:02Z</time></trkpt><trkpt lat="43.437004890172226" lon="10.949697162459278"><ele>560.0</ele><time>2026-04-18T09:05:03Z</time></trkpt><trkpt lat="43.437137798939396" lon="10.949725389642825"><ele>561.0</ele><time>2026-04-18T09:05:04.001Z</time></trkpt><trkpt lat="43.43727237905334" lon="10.949748181714563"><ele>562.0</ele><time>2026-04-18T09:05:05.001Z</time></trkpt><trkpt lat="43.43741305648039" lon="10.94976568554695"><ele>563.0</ele><time>2026-04-18T09:05:06.001Z</time></trkpt><trkpt lat="43.43755804456089" lon="10.949810101560125"><ele>564.0</ele><time>2026-04-18T09:05:07.001Z</time></trkpt><trkpt lat="43.43768974491118" lon="10.9499005883122"><ele>564.0</ele><time>2026-04-18T09:05:08.001Z</time></trkpt><trkpt lat="43.43780135047654" lon="10.949986660187783"><ele>564.0</ele><time>2026-04-18T09:05:09.001Z</time></trkpt><trkpt lat="43.43791475155484" lon="10.950096249095564"><ele>564.0</ele><time>2026-04-18T09:05:10.001Z</time></trkpt><trkpt lat="43.43803610067932" lon="10.950200316457028"><ele>564.0</ele><time>2026-04-18T09:05:11.001Z</time></trkpt><trkpt lat="43.438152448174684" lon="10.950333736833768"><ele>564.25</ele><time>2026-04-18T09:05:12.001Z</time></trkpt><trkpt lat="43.43826416439201" lon="10.950459952123726"><ele>564.5</ele><time>2026-04-18T09:05:13.001Z</time></trkpt><trkpt lat="43.438386461085535" lon="10.950590664682316"><ele>564.75</ele><time>2026-04-18T09:05:14.001Z</time></trkpt><trkpt lat="43.43850289523262" lon="10.950713757050288"><ele>565.0</ele><time>2026-04-18T09:05:15.001Z</time></trkpt><trkpt lat="43.43861742058342" lon="10.950834340806553"><ele>564.25</ele><time>2026-04-18T09:05:16.001Z</time></trkpt><trkpt lat="43.43873162093677" lon="10.950953893430333"><ele>563.5</ele><time>2026-04-18T09:05:17.001Z</time></trkpt><trkpt lat="43.43884864307696" lon="10.951074753602333"><ele>562.75</ele><time>2026-04-18T09:05:18.001Z</time></trkpt><trkpt lat="43.43897091927894" lon="10.951201272918793"><ele>562.0</ele><time>2026-04-18T09:05:19.001Z</time></trkpt><trkpt lat="43.439093873914004" lon="10.95133263007483"><ele>564.0</ele><time>2026-04-18T09:05:20.001Z</time></trkpt><trkpt lat="43.43921813280613" lon="10.951462538386965"><ele>566.0</ele><time>2026-04-18T09:05:21.001Z</time></trkpt><trkpt lat="43.43934110883673" lon="10.951587422812766"><ele>568.0</ele><time>2026-04-18T09:05:22.001Z</time></trkpt><trkpt lat="43.43945361269263" lon="10.951708810426245"><ele>568.0</ele><time>2026-04-18T09:05:23.001Z</time></trkpt><trkpt lat="43.43958062395558" lon="10.95183482504528"><ele>568.0</ele><time>2026-04-18T09:05:24.001Z</time></trkpt><trkpt lat="43.4397094377713" lon="10.95196938125331"><ele>568.0</ele><time>2026-04-18T09:05:25.001Z</time></trkpt><trkpt lat="43.43983906076014" lon="10.952107056249067"><ele>572.3333333333334</ele><time>2026-04-18T09:05:26.001Z</time></trkpt><trkpt lat="43.43995283936583" lon="10.952230602891328"><ele>576.6666666666666</ele><time>2026-04-18T09:05:27.001Z</time></trkpt><trkpt lat="43.4400710433092" lon="10.952352761651298"><ele>581.0</ele><time>2026-04-18T09:05:28.001Z</time></trkpt><trkpt lat="43.44019794326207" lon="10.952494803397064"><ele>580.75</ele><time>2026-04-18T09:05:29.001Z</time></trkpt><trkpt lat="43.440316420203345" lon="10.952623458269274"><ele>580.5</ele><time>2026-04-18T09:05:30.001Z</time></trkpt><trkpt lat="43.44042610345169" lon="10.952745888315901"><ele>580.25</ele><time>2026-04-18T09:05:31.001Z</time></trkpt><trkpt lat="43.44053743483474" lon="10.952860249133087"><ele>580.0</ele><time>2026-04-18T09:05:32.001Z</time></trkpt><trkpt lat="43.44065420578016" lon="10.952970808211155"><ele>582.4</ele><time>2026-04-18T09:05:33.001Z</time></trkpt><trkpt lat="43.44075151893697" lon="10.953072541091004"><ele>584.8</ele><time>2026-04-18T09:05:34.001Z</time></trkpt><trkpt lat="43.440868438313096" lon="10.953125092168465"><ele>587.2</ele><time>2026-04-18T09:05:35.001Z</time></trkpt><trkpt lat="43.44095410709823" lon="10.953182489548114"><ele>589.6</ele><time>2026-04-18T09:05:36.001Z</time></trkpt><trkpt lat="43.44103222657127" lon="10.953160216428248"><ele>592.0</ele><time>2026-04-18T09:05:37.001Z</time></trkpt><trkpt lat="43.441117522634414" lon="10.95314040639018"><ele>592.0</ele><time>2026-04-18T09:05:38.001Z</time></trkpt><trkpt lat="43.4411784325562" lon="10.953059561366858"><ele>592.0</ele><time>2026-04-18T09:05:39.001Z</time></trkpt><trkpt lat="43.44121673076623" lon="10.952918970826666"><ele>592.0</ele><time>2026-04-18T09:05:40.001Z</time></trkpt><trkpt lat="43.441232002263796" lon="10.952795571271583"><ele>592.0</ele><time>2026-04-18T09:05:41.001Z</time></trkpt><trkpt lat="43.44123076534629" lon="10.952656458359634"><ele>592.0</ele><time>2026-04-18T09:05:42.001Z</time></trkpt><trkpt lat="43.441247865870295" lon="10.952534421812159"><ele>591.8000000000001</ele><time>2026-04-18T09:05:43.001Z</time></trkpt><trkpt lat="43.44129762176093" lon="10.952439830959417"><ele>591.6</ele><time>2026-04-18T09:05:44.001Z</time></trkpt><trkpt lat="43.44137076142461" lon="10.952424242803072"><ele>591.4000000000001</ele><time>2026-04-18T09:05:45.001Z</time></trkpt><trkpt lat="43.44150182933722" lon="10.952416771684664"><ele>591.2</ele><time>2026-04-18T09:05:47.001Z</time></trkpt><trkpt lat="43.44157868334612" lon="10.952437845978238"><ele>591.0</ele><time>2026-04-18T09:05:48.001Z</time></trkpt><trkpt lat="43.44165475952048" lon="10.952481494649422"><ele>594.25</ele><time>2026-04-18T09:05:49.001Z</time></trkpt><trkpt lat="43.441724597868415" lon="10.952579740918743"><ele>597.5</ele><time>2026-04-18T09:05:51.001Z</time></trkpt><trkpt lat="43.44164840445112" lon="10.952801931150056"><ele>600.75</ele><time>2026-04-18T09:05:53.001Z</time></trkpt><trkpt lat="43.44164228355876" lon="10.952956253581766"><ele>604.0</ele><time>2026-04-18T09:05:54.001Z</time></trkpt><trkpt lat="43.44166913200271" lon="10.953137307295504"><ele>604.0</ele><time>2026-04-18T09:05:55.001Z</time></trkpt><trkpt lat="43.44168516866714" lon="10.95333366006062"><ele>604.0</ele><time>2026-04-18T09:05:56.001Z</time></trkpt><trkpt lat="43.44169997856143" lon="10.95354907366156"><ele>604.0</ele><time>2026-04-18T09:05:57.001Z</time></trkpt><trkpt lat="43.44170708157802" lon="10.953791987666525"><ele>604.0</ele><time>2026-04-18T09:05:58.001Z</time></trkpt><trkpt lat="43.44172240564444" lon="10.95403256877469"><ele>604.0</ele><time>2026-04-18T09:05:59.001Z</time></trkpt><trkpt lat="43.441726061526275" lon="10.954273448025164"><ele>604.0</ele><time>2026-04-18T09:06:00Z</time></trkpt><trkpt lat="43.44170491745045" lon="10.954510892713317"><ele>603.6666666666667</ele><time>2026-04-18T09:06:01Z</time></trkpt><trkpt lat="43.44166299652563" lon="10.954761308890596"><ele>603.3333333333334</ele><time>2026-04-18T09:06:02Z</time></trkpt><trkpt lat="43.441621508555535" lon="10.95501043963521"><ele>603.0</ele><time>2026-04-18T09:06:03Z</time></trkpt><trkpt lat="43.441576222163874" lon="10.955250632209058"><ele>602.3333333333334</ele><time>2026-04-18T09:06:04Z</time></trkpt><trkpt lat="43.44152463803385" lon="10.955466851012922"><ele>601.6666666666667</ele><time>2026-04-18T09:06:05Z</time></trkpt><trkpt lat="43.44146420142003" lon="10.955682571641987"><ele>601.0</ele><time>2026-04-18T09:06:06Z</time></trkpt><trkpt lat="43.44138421456406" lon="10.9559128996215"><ele>600.3333333333334</ele><time>2026-04-18T09:06:07Z</time></trkpt><trkpt lat="43.441285312063656" lon="10.956140989243352"><ele>599.6666666666666</ele><time>2026-04-18T09:06:08Z</time></trkpt><trkpt lat="43.44115775191909" lon="10.956340017440633"><ele>599.0</ele><time>2026-04-18T09:06:09Z</time></trkpt><trkpt lat="43.44104620838945" lon="10.956546738638561"><ele>600.0</ele><time>2026-04-18T09:06:10Z</time></trkpt><trkpt lat="43.44091397652345" lon="10.956739994359564"><ele>601.0</ele><time>2026-04-18T09:06:11Z</time></trkpt><trkpt lat="43.4407778636733" lon="10.956944895665622"><ele>602.0</ele><time>2026-04-18T09:06:12Z</time></trkpt><trkpt lat="43.440647030902916" lon="10.95714901743997"><ele>602.0</ele><time>2026-04-18T09:06:13Z</time></trkpt><trkpt lat="43.44050082905613" lon="10.957376371626008"><ele>602.0</ele><time>2026-04-18T09:06:14Z</time></trkpt><trkpt lat="43.44036485680699" lon="10.957587217248777"><ele>602.0</ele><time>2026-04-18T09:06:15Z</time></trkpt><trkpt lat="43.44023344404541" lon="10.957798407770392"><ele>600.6666666666666</ele><time>2026-04-18T09:06:16Z</time></trkpt><trkpt lat="43.44011191652638" lon="10.958002797826824"><ele>599.3333333333334</ele><time>2026-04-18T09:06:17Z</time></trkpt><trkpt lat="43.439984425013634" lon="10.958219358941989"><ele>598.0</ele><time>2026-04-18T09:06:18Z</time></trkpt><trkpt lat="43.439857656836374" lon="10.95844139431323"><ele>596.0</ele><time>2026-04-18T09:06:19Z</time></trkpt><trkpt lat="43.43972805659598" lon="10.958664299589278"><ele>594.0</ele><time>2026-04-18T09:06:20Z</time></trkpt><trkpt lat="43.43959713671265" lon="10.958891316247088"><ele>592.0</ele><time>2026-04-18T09:06:21Z</time></trkpt><trkpt lat="43.43946958375072" lon="10.959110358408676"><ele>591.3333333333334</ele><time>2026-04-18T09:06:22Z</time></trkpt><trkpt lat="43.43934569330795" lon="10.959314561849173"><ele>590.6666666666666</ele><time>2026-04-18T09:06:23Z</time></trkpt><trkpt lat="43.439227934831" lon="10.95950449620961"><ele>590.0</ele><time>2026-04-18T09:06:24Z</time></trkpt><trkpt lat="43.43909560646916" lon="10.959673107543056"><ele>590.0</ele><time>2026-04-18T09:06:25Z</time></trkpt><trkpt lat="43.43895391251218" lon="10.959830654237026"><ele>590.0</ele><time>2026-04-18T09:06:26Z</time></trkpt><trkpt lat="43.43880656111256" lon="10.959967450037677"><ele>590.0</ele><time>2026-04-18T09:06:27Z</time></trkpt><trkpt lat="43.43866081115558" lon="10.96009434021705"><ele>590.5</ele><time>2026-04-18T09:06:28Z</time></trkpt><trkpt lat="43.43834041326444" lon="10.960366980840812"><ele>591.0</ele><time>2026-04-18T09:06:30Z</time></trkpt><trkpt lat="43.43818327224696" lon="10.96049500962425"><ele>591.0</ele><time>2026-04-18T09:06:31Z</time></trkpt><trkpt lat="43.43802420882361" lon="10.960641760295312"><ele>591.0</ele><time>2026-04-18T09:06:32Z</time></trkpt><trkpt lat="43.43786188364883" lon="10.960763176933673"><ele>591.0</ele><time>2026-04-18T09:06:33Z</time></trkpt><trkpt lat="43.43770528314908" lon="10.960870122329423"><ele>591.6666666666666</ele><time>2026-04-18T09:06:34Z</time></trkpt><trkpt lat="43.43754348227963" lon="10.96095966883533"><ele>592.3333333333333</ele><time>2026-04-18T09:06:35Z</time></trkpt><trkpt lat="43.43738199570614" lon="10.96105008735613"><ele>593.0</ele><time>2026-04-18T09:06:36Z</time></trkpt><trkpt lat="43.43723235340632" lon="10.961149358943821"><ele>589.6666666666666</ele><time>2026-04-18T09:06:37Z</time></trkpt><trkpt lat="43.4371023000794" lon="10.961281130152335"><ele>586.3333333333334</ele><time>2026-04-18T09:06:38Z</time></trkpt><trkpt lat="43.43699452256186" lon="10.961455872077092"><ele>583.0</ele><time>2026-04-18T09:06:39Z</time></trkpt><trkpt lat="43.43691037108807" lon="10.961662886641294"><ele>584.0</ele><time>2026-04-18T09:06:40Z</time></trkpt><trkpt lat="43.43685314731886" lon="10.961890415732498"><ele>585.0</ele><time>2026-04-18T09:06:41Z</time></trkpt><trkpt lat="43.436826186276484" lon="10.96211456122525"><ele>586.0</ele><time>2026-04-18T09:06:42Z</time></trkpt><trkpt lat="43.436783430559124" lon="10.962337383938952"><ele>586.3333333333334</ele><time>2026-04-18T09:06:43Z</time></trkpt><trkpt lat="43.43673208450467" lon="10.962556941604015"><ele>586.6666666666666</ele><time>2026-04-18T09:06:44Z</time></trkpt><trkpt lat="43.436651835503845" lon="10.962750642671677"><ele>587.0</ele><time>2026-04-18T09:06:45Z</time></trkpt><trkpt lat="43.43653904090842" lon="10.962876761480947"><ele>587.0</ele><time>2026-04-18T09:06:46Z</time></trkpt><trkpt lat="43.436403825348876" lon="10.963001018228494"><ele>587.0</ele><time>2026-04-18T09:06:47Z</time></trkpt><trkpt lat="43.43627167310026" lon="10.963115929260658"><ele>587.0</ele><time>2026-04-18T09:06:48Z</time></trkpt><trkpt lat="43.436152619808105" lon="10.963234442942806"><ele>586.6666666666666</ele><time>2026-04-18T09:06:49Z</time></trkpt><trkpt lat="43.43605236802536" lon="10.963398979121761"><ele>586.3333333333334</ele><time>2026-04-18T09:06:50Z</time></trkpt><trkpt lat="43.43594950295385" lon="10.96355830504637"><ele>586.0</ele><time>2026-04-18T09:06:51Z</time></trkpt><trkpt lat="43.43584433492633" lon="10.963744689779938"><ele>586.0</ele><time>2026-04-18T09:06:52Z</time></trkpt><trkpt lat="43.43576183739184" lon="10.963943651290391"><ele>586.0</ele><time>2026-04-18T09:06:53Z</time></trkpt><trkpt lat="43.4356984296427" lon="10.96415254632833"><ele>586.0</ele><time>2026-04-18T09:06:54Z</time></trkpt><trkpt lat="43.43564020912819" lon="10.964359816890713"><ele>584.6666666666667</ele><time>2026-04-18T09:06:55Z</time></trkpt><trkpt lat="43.435563327339764" lon="10.964553071171792"><ele>583.3333333333334</ele><time>2026-04-18T09:06:56Z</time></trkpt><trkpt lat="43.43544378312347" lon="10.964737905946034"><ele>582.0</ele><time>2026-04-18T09:06:57Z</time></trkpt><trkpt lat="43.43533205125552" lon="10.964929071408969"><ele>580.0</ele><time>2026-04-18T09:06:58.001Z</time></trkpt><trkpt lat="43.43522558022682" lon="10.96513862039055"><ele>578.0</ele><time>2026-04-18T09:06:59.001Z</time></trkpt><trkpt lat="43.435148086736376" lon="10.965354271807104"><ele>576.0</ele><time>2026-04-18T09:07:00.001Z</time></trkpt><trkpt lat="43.435053297165375" lon="10.965530934385015"><ele>576.0</ele><time>2026-04-18T09:07:01.001Z</time></trkpt><trkpt lat="43.43498823695861" lon="10.965730286726126"><ele>576.0</ele><time>2026-04-18T09:07:02.001Z</time></trkpt><trkpt lat="43.43488015584464" lon="10.96587780997088"><ele>576.0</ele><time>2026-04-18T09:07:03.001Z</time></trkpt><trkpt lat="43.43475627215739" lon="10.966009899976946"><ele>573.3333333333334</ele><time>2026-04-18T09:07:04.001Z</time></trkpt><trkpt lat="43.43461967406933" lon="10.966166492461499"><ele>570.6666666666667</ele><time>2026-04-18T09:07:05.001Z</time></trkpt><trkpt lat="43.43449270358283" lon="10.96632212413041"><ele>568.0</ele><time>2026-04-18T09:07:06.001Z</time></trkpt><trkpt lat="43.43438075402876" lon="10.966527482030523"><ele>566.3333333333334</ele><time>2026-04-18T09:07:07.001Z</time></trkpt><trkpt lat="43.43428677089429" lon="10.966750059750298"><ele>564.6666666666666</ele><time>2026-04-18T09:07:08.001Z</time></trkpt><trkpt lat="43.43416032410485" lon="10.9669369886052"><ele>563.0</ele><time>2026-04-18T09:07:09.001Z</time></trkpt><trkpt lat="43.434014819461574" lon="10.96706419194999"><ele>563.0</ele><time>2026-04-18T09:07:10.001Z</time></trkpt><trkpt lat="43.43386039808102" lon="10.967178698714783"><ele>563.0</ele><time>2026-04-18T09:07:11.001Z</time></trkpt><trkpt lat="43.43369268188022" lon="10.967291662252897"><ele>563.0</ele><time>2026-04-18T09:07:12.001Z</time></trkpt><trkpt lat="43.43353745792883" lon="10.967425608648734"><ele>561.3333333333333</ele><time>2026-04-18T09:07:13.001Z</time></trkpt><trkpt lat="43.433370506292555" lon="10.967538123161525"><ele>559.6666666666666</ele><time>2026-04-18T09:07:14.001Z</time></trkpt><trkpt lat="43.43320210307779" lon="10.967651930159892"><ele>558.0</ele><time>2026-04-18T09:07:15.001Z</time></trkpt><trkpt lat="43.43303074835437" lon="10.967736085330246"><ele>558.6666666666666</ele><time>2026-04-18T09:07:16.001Z</time></trkpt><trkpt lat="43.43287626394864" lon="10.967812519774851"><ele>559.3333333333333</ele><time>2026-04-18T09:07:17.001Z</time></trkpt><trkpt lat="43.43273048978981" lon="10.967872655629236"><ele>560.0</ele><time>2026-04-18T09:07:18.001Z</time></trkpt><trkpt lat="43.43259420692401" lon="10.967931448168404"><ele>560.0</ele><time>2026-04-18T09:07:19.001Z</time></trkpt><trkpt lat="43.43247364433431" lon="10.967989286817511"><ele>560.0</ele><time>2026-04-18T09:07:20.001Z</time></trkpt><trkpt lat="43.43236761945157" lon="10.968131403550437"><ele>560.0</ele><time>2026-04-18T09:07:21.001Z</time></trkpt><trkpt lat="43.43226589089543" lon="10.968284921422589"><ele>560.0</ele><time>2026-04-18T09:07:22.001Z</time></trkpt><trkpt lat="43.432168806786585" lon="10.968419780655655"><ele>557.5</ele><time>2026-04-18T09:07:23.001Z</time></trkpt><trkpt lat="43.432083806178916" lon="10.96853387104455"><ele>555.0</ele><time>2026-04-18T09:07:24.001Z</time></trkpt><trkpt lat="43.431949979016366" lon="10.96851465246061"><ele>552.5</ele><time>2026-04-18T09:07:25.001Z</time></trkpt><trkpt lat="43.43181900516673" lon="10.968490240387936"><ele>550.0</ele><time>2026-04-18T09:07:26.001Z</time></trkpt><trkpt lat="43.43168468284017" lon="10.968451272209755"><ele>550.0</ele><time>2026-04-18T09:07:27.001Z</time></trkpt><trkpt lat="43.431529895654236" lon="10.968397743205609"><ele>550.0</ele><time>2026-04-18T09:07:28.001Z</time></trkpt><trkpt lat="43.43136698415438" lon="10.968332752854247"><ele>550.0</ele><time>2026-04-18T09:07:29.001Z</time></trkpt><trkpt lat="43.43122086280627" lon="10.968228864356044"><ele>549.3333333333334</ele><time>2026-04-18T09:07:30.001Z</time></trkpt><trkpt lat="43.43104905967437" lon="10.968150812695272"><ele>548.6666666666666</ele><time>2026-04-18T09:07:31.001Z</time></trkpt><trkpt lat="43.430897977436864" lon="10.96811207369979"><ele>548.0</ele><time>2026-04-18T09:07:32.001Z</time></trkpt><trkpt lat="43.430747689369426" lon="10.968081033901973"><ele>548.0</ele><time>2026-04-18T09:07:33.001Z</time></trkpt><trkpt lat="43.43060472965125" lon="10.968077452422868"><ele>548.0</ele><time>2026-04-18T09:07:34.001Z</time></trkpt><trkpt lat="43.43046340446723" lon="10.968114117204395"><ele>548.0</ele><time>2026-04-18T09:07:35.001Z</time></trkpt><trkpt lat="43.430343562787066" lon="10.968210873040386"><ele>548.0</ele><time>2026-04-18T09:07:36.001Z</time></trkpt><trkpt lat="43.43024027949787" lon="10.968322868710406"><ele>544.6666666666666</ele><time>2026-04-18T09:07:37.001Z</time></trkpt><trkpt lat="43.43012479742902" lon="10.968436209597161"><ele>541.3333333333334</ele><time>2026-04-18T09:07:38.001Z</time></trkpt><trkpt lat="43.430003623685906" lon="10.968570401804008"><ele>538.0</ele><time>2026-04-18T09:07:39.001Z</time></trkpt><trkpt lat="43.429875397444015" lon="10.96871240412353"><ele>538.0</ele><time>2026-04-18T09:07:40.001Z</time></trkpt><trkpt lat="43.42974964135423" lon="10.968861483241238"><ele>538.0</ele><time>2026-04-18T09:07:41.001Z</time></trkpt><trkpt lat="43.42964244106755" lon="10.969044969003868"><ele>538.0</ele><time>2026-04-18T09:07:42.001Z</time></trkpt><trkpt lat="43.42953779432247" lon="10.969239460198681"><ele>535.6666666666667</ele><time>2026-04-18T09:07:43.001Z</time></trkpt><trkpt lat="43.42944712423479" lon="10.969443333183062"><ele>533.3333333333334</ele><time>2026-04-18T09:07:44.001Z</time></trkpt><trkpt lat="43.429351112294015" lon="10.969672886893303"><ele>531.0</ele><time>2026-04-18T09:07:45.001Z</time></trkpt><trkpt lat="43.42925743445846" lon="10.969884130319327"><ele>531.25</ele><time>2026-04-18T09:07:46.001Z</time></trkpt><trkpt lat="43.42916231422831" lon="10.970051684387633"><ele>531.5</ele><time>2026-04-18T09:07:47.001Z</time></trkpt><trkpt lat="43.4290334933991" lon="10.970161298278743"><ele>531.75</ele><time>2026-04-18T09:07:48.001Z</time></trkpt><trkpt lat="43.42890562311422" lon="10.970215657082552"><ele>532.0</ele><time>2026-04-18T09:07:49.001Z</time></trkpt><trkpt lat="43.42875562372793" lon="10.970255229291341"><ele>530.3333333333334</ele><time>2026-04-18T09:07:50.001Z</time></trkpt><trkpt lat="43.428579399821864" lon="10.970294654343304"><ele>528.6666666666666</ele><time>2026-04-18T09:07:51.001Z</time></trkpt><trkpt lat="43.42840785623981" lon="10.970346895831824"><ele>527.0</ele><time>2026-04-18T09:07:52.001Z</time></trkpt><trkpt lat="43.42825790681335" lon="10.970382187747154"><ele>527.0</ele><time>2026-04-18T09:07:53.001Z</time></trkpt><trkpt lat="43.428149248416524" lon="10.970434746869783"><ele>527.0</ele><time>2026-04-18T09:07:54.001Z</time></trkpt><trkpt lat="43.42807356530799" lon="10.970527537607468"><ele>527.0</ele><time>2026-04-18T09:07:55.001Z</time></trkpt><trkpt lat="43.428035043617896" lon="10.970659490708876"><ele>527.0</ele><time>2026-04-18T09:07:56.001Z</time></trkpt><trkpt lat="43.4280353935482" lon="10.970810320148225"><ele>527.0</ele><time>2026-04-18T09:07:57.001Z</time></trkpt><trkpt lat="43.428057447202654" lon="10.970986865202491"><ele>526.0</ele><time>2026-04-18T09:07:58.001Z</time></trkpt><trkpt lat="43.428082732764224" lon="10.97119161564063"><ele>525.0</ele><time>2026-04-18T09:07:59.001Z</time></trkpt><trkpt lat="43.4280924027523" lon="10.97141332668245"><ele>524.0</ele><time>2026-04-18T09:08:00.001Z</time></trkpt><trkpt lat="43.42807629579453" lon="10.97164085694156"><ele>523.6666666666666</ele><time>2026-04-18T09:08:01.001Z</time></trkpt><trkpt lat="43.42798937251151" lon="10.971833972801551"><ele>523.3333333333334</ele><time>2026-04-18T09:08:02.001Z</time></trkpt><trkpt lat="43.42788794381247" lon="10.972013894279174"><ele>523.0</ele><time>2026-04-18T09:08:03.001Z</time></trkpt><trkpt lat="43.42779482477894" lon="10.9722241860141"><ele>519.6666666666667</ele><time>2026-04-18T09:08:04.001Z</time></trkpt><trkpt lat="43.42766545318898" lon="10.972413125427327"><ele>516.3333333333334</ele><time>2026-04-18T09:08:05.001Z</time></trkpt><trkpt lat="43.42755763061407" lon="10.972586020283574"><ele>513.0</ele><time>2026-04-18T09:08:06.001Z</time></trkpt><trkpt lat="43.427430966092636" lon="10.972772384657848"><ele>512.6666666666666</ele><time>2026-04-18T09:08:07.001Z</time></trkpt><trkpt lat="43.42730517755971" lon="10.97295061437981"><ele>512.3333333333333</ele><time>2026-04-18T09:08:08.001Z</time></trkpt><trkpt lat="43.42717533686356" lon="10.9731232015983"><ele>512.0</ele><time>2026-04-18T09:08:09Z</time></trkpt><trkpt lat="43.42704245304316" lon="10.973290866071746"><ele>511.3333333333333</ele><time>2026-04-18T09:08:10Z</time></trkpt><trkpt lat="43.426906911126785" lon="10.973443286113504"><ele>510.66666666666663</ele><time>2026-04-18T09:08:11Z</time></trkpt><trkpt lat="43.426760978774" lon="10.973576421877457"><ele>510.0</ele><time>2026-04-18T09:08:12Z</time></trkpt><trkpt lat="43.42659811082092" lon="10.973650358434961"><ele>510.0</ele><time>2026-04-18T09:08:13Z</time></trkpt><trkpt lat="43.42644310780098" lon="10.973707704936238"><ele>510.0</ele><time>2026-04-18T09:08:14Z</time></trkpt><trkpt lat="43.42628307931731" lon="10.973758165004543"><ele>510.0</ele><time>2026-04-18T09:08:15Z</time></trkpt><trkpt lat="43.4261361364516" lon="10.973760191132396"><ele>509.5</ele><time>2026-04-18T09:08:16Z</time></trkpt><trkpt lat="43.426013402515615" lon="10.973734108842528"><ele>509.0</ele><time>2026-04-18T09:08:17Z</time></trkpt><trkpt lat="43.42591105169217" lon="10.973656424354093"><ele>508.5</ele><time>2026-04-18T09:08:18Z</time></trkpt><trkpt lat="43.425847203042814" lon="10.9735270606766"><ele>508.0</ele><time>2026-04-18T09:08:19Z</time></trkpt><trkpt lat="43.42576827636989" lon="10.97343304142116"><ele>507.59999999999997</ele><time>2026-04-18T09:08:20Z</time></trkpt><trkpt lat="43.42568628203496" lon="10.973339855698477"><ele>507.19999999999993</ele><time>2026-04-18T09:08:21Z</time></trkpt><trkpt lat="43.425584078275044" lon="10.973281080568393"><ele>506.8</ele><time>2026-04-18T09:08:22Z</time></trkpt><trkpt lat="43.42547862876616" lon="10.973258329696488"><ele>506.4</ele><time>2026-04-18T09:08:23Z</time></trkpt><trkpt lat="43.42538082439331" lon="10.97325316532855"><ele>506.0</ele><time>2026-04-18T09:08:24Z</time></trkpt><trkpt lat="43.42528870318523" lon="10.973265491039355"><ele>504.4</ele><time>2026-04-18T09:08:25Z</time></trkpt><trkpt lat="43.425207237774565" lon="10.973300737806978"><ele>502.8</ele><time>2026-04-18T09:08:26Z</time></trkpt><trkpt lat="43.42513715873643" lon="10.973378377016424"><ele>501.19999999999993</ele><time>2026-04-18T09:08:27Z</time></trkpt><trkpt lat="43.425079854928256" lon="10.9735055704299"><ele>499.59999999999997</ele><time>2026-04-18T09:08:28Z</time></trkpt><trkpt lat="43.425052822566116" lon="10.973681023376614"><ele>498.0</ele><time>2026-04-18T09:08:29Z</time></trkpt><trkpt lat="43.42502824263247" lon="10.973886780218596"><ele>498.0</ele><time>2026-04-18T09:08:30Z</time></trkpt><trkpt lat="43.42501026689008" lon="10.974096359101692"><ele>498.0</ele><time>2026-04-18T09:08:31Z</time></trkpt><trkpt lat="43.42497037085115" lon="10.97430221907323"><ele>498.0</ele><time>2026-04-18T09:08:32Z</time></trkpt><trkpt lat="43.424891780195274" lon="10.974512683127074"><ele>496.66666666666663</ele><time>2026-04-18T09:08:33Z</time></trkpt><trkpt lat="43.424821816311194" lon="10.974744748531137"><ele>495.3333333333333</ele><time>2026-04-18T09:08:34Z</time></trkpt><trkpt lat="43.42470835701397" lon="10.974956490092326"><ele>494.0</ele><time>2026-04-18T09:08:35Z</time></trkpt><trkpt lat="43.42459593405222" lon="10.975138840555335"><ele>493.66666666666663</ele><time>2026-04-18T09:08:36Z</time></trkpt><trkpt lat="43.42446743437738" lon="10.975250654704894"><ele>493.33333333333337</ele><time>2026-04-18T09:08:37Z</time></trkpt><trkpt lat="43.42430575498219" lon="10.97531885793293"><ele>493.0</ele><time>2026-04-18T09:08:38Z</time></trkpt><trkpt lat="43.42413341215498" lon="10.97539894939017"><ele>493.0</ele><time>2026-04-18T09:08:39Z</time></trkpt><trkpt lat="43.42395367928289" lon="10.975501526144148"><ele>493.0</ele><time>2026-04-18T09:08:40Z</time></trkpt><trkpt lat="43.423776446835745" lon="10.975594662676173"><ele>493.0</ele><time>2026-04-18T09:08:41Z</time></trkpt><trkpt lat="43.423605463838655" lon="10.97570587430547"><ele>493.33333333333337</ele><time>2026-04-18T09:08:42Z</time></trkpt><trkpt lat="43.423441681927194" lon="10.975836470087792"><ele>493.66666666666663</ele><time>2026-04-18T09:08:43Z</time></trkpt><trkpt lat="43.42327483478155" lon="10.975979578992181"><ele>494.0</ele><time>2026-04-18T09:08:44Z</time></trkpt><trkpt lat="43.423086195018364" lon="10.976094524536279"><ele>494.66666666666663</ele><time>2026-04-18T09:08:45Z</time></trkpt><trkpt lat="43.422915214497856" lon="10.976193718530482"><ele>495.33333333333337</ele><time>2026-04-18T09:08:46Z</time></trkpt><trkpt lat="43.42274171863715" lon="10.976259039597828"><ele>496.0</ele><time>2026-04-18T09:08:47Z</time></trkpt><trkpt lat="43.422580156767495" lon="10.976312231037026"><ele>496.0</ele><time>2026-04-18T09:08:48Z</time></trkpt><trkpt lat="43.42242732339332" lon="10.976236637689949"><ele>496.0</ele><time>2026-04-18T09:08:49Z</time></trkpt><trkpt lat="43.42228444453293" lon="10.976135332740158"><ele>496.0</ele><time>2026-04-18T09:08:50Z</time></trkpt><trkpt lat="43.42217482789739" lon="10.975984316345404"><ele>498.75</ele><time>2026-04-18T09:08:51Z</time></trkpt><trkpt lat="43.42204713785925" lon="10.975859460232353"><ele>501.5</ele><time>2026-04-18T09:08:52Z</time></trkpt><trkpt lat="43.42195291818454" lon="10.975771806342877"><ele>504.25</ele><time>2026-04-18T09:08:53Z</time></trkpt><trkpt lat="43.42183728767363" lon="10.97574982318344"><ele>507.0</ele><time>2026-04-18T09:08:54Z</time></trkpt><trkpt lat="43.421702942277925" lon="10.975779834134233"><ele>507.0</ele><time>2026-04-18T09:08:55Z</time></trkpt><trkpt lat="43.42155766939224" lon="10.975839440414186"><ele>507.0</ele><time>2026-04-18T09:08:56Z</time></trkpt><trkpt lat="43.42139836539078" lon="10.975875476811206"><ele>507.0</ele><time>2026-04-18T09:08:57Z</time></trkpt><trkpt lat="43.421228184173266" lon="10.975899146770583"><ele>508.66666666666663</ele><time>2026-04-18T09:08:58Z</time></trkpt><trkpt lat="43.42106112518728" lon="10.975872491044587"><ele>510.3333333333333</ele><time>2026-04-18T09:08:59Z</time></trkpt><trkpt lat="43.42089609185022" lon="10.975803176002033"><ele>512.0</ele><time>2026-04-18T09:09:00Z</time></trkpt><trkpt lat="43.420726444773095" lon="10.97574584516949"><ele>512.0</ele><time>2026-04-18T09:09:01Z</time></trkpt><trkpt lat="43.42055607505624" lon="10.975728254585519"><ele>512.0</ele><time>2026-04-18T09:09:02Z</time></trkpt><trkpt lat="43.42038108809544" lon="10.97572214294518"><ele>512.0</ele><time>2026-04-18T09:09:03Z</time></trkpt><trkpt lat="43.42019953486751" lon="10.975736325370091"><ele>513.6666666666666</ele><time>2026-04-18T09:09:04Z</time></trkpt><trkpt lat="43.420029707999035" lon="10.975767093497392"><ele>515.3333333333334</ele><time>2026-04-18T09:09:05Z</time></trkpt><trkpt lat="43.41985712180504" lon="10.97579927094274"><ele>517.0</ele><time>2026-04-18T09:09:06Z</time></trkpt><trkpt lat="43.41968647226864" lon="10.97588261236994"><ele>517.6666666666667</ele><time>2026-04-18T09:09:07Z</time></trkpt><trkpt lat="43.41951015483722" lon="10.97597001390109"><ele>518.3333333333334</ele><time>2026-04-18T09:09:08.001Z</time></trkpt><trkpt lat="43.41933679633549" lon="10.976056946466251"><ele>519.0</ele><time>2026-04-18T09:09:09.001Z</time></trkpt><trkpt lat="43.419180857851394" lon="10.976133216018662"><ele>519.0</ele><time>2026-04-18T09:09:10.001Z</time></trkpt><trkpt lat="43.419042790547294" lon="10.97622837376165"><ele>519.0</ele><time>2026-04-18T09:09:11.001Z</time></trkpt><trkpt lat="43.41891117229194" lon="10.976286572430187"><ele>519.0</ele><time>2026-04-18T09:09:12.001Z</time></trkpt><trkpt lat="43.41878238334078" lon="10.976318974063359"><ele>519.0</ele><time>2026-04-18T09:09:13.001Z</time></trkpt><trkpt lat="43.41867710317182" lon="10.97625208776742"><ele>520.25</ele><time>2026-04-18T09:09:14.001Z</time></trkpt><trkpt lat="43.418577174401825" lon="10.976187397342084"><ele>521.5</ele><time>2026-04-18T09:09:15.001Z</time></trkpt><trkpt lat="43.418484478238724" lon="10.976076460507798"><ele>522.75</ele><time>2026-04-18T09:09:16.001Z</time></trkpt><trkpt lat="43.41835724403939" lon="10.976010027114734"><ele>524.0</ele><time>2026-04-18T09:09:17.001Z</time></trkpt><trkpt lat="43.41821075346113" lon="10.975991083495034"><ele>524.0</ele><time>2026-04-18T09:09:18.001Z</time></trkpt><trkpt lat="43.41805268504485" lon="10.976009329935218"><ele>524.0</ele><time>2026-04-18T09:09:19.001Z</time></trkpt><trkpt lat="43.417895229878766" lon="10.976055916036964"><ele>524.0</ele><time>2026-04-18T09:09:20.001Z</time></trkpt><trkpt lat="43.41775714759631" lon="10.976081554617034"><ele>524.6</ele><time>2026-04-18T09:09:21.001Z</time></trkpt><trkpt lat="43.41762817409674" lon="10.976101148164242"><ele>525.2</ele><time>2026-04-18T09:09:22.001Z</time></trkpt><trkpt lat="43.417508161487234" lon="10.976134364588553"><ele>525.8000000000001</ele><time>2026-04-18T09:09:23.001Z</time></trkpt><trkpt lat="43.41742762680778" lon="10.976189680376264"><ele>526.4</ele><time>2026-04-18T09:09:24.001Z</time></trkpt><trkpt lat="43.41737272108226" lon="10.976253329183466"><ele>527.0</ele><time>2026-04-18T09:09:25.001Z</time></trkpt><trkpt lat="43.4173171210732" lon="10.976307935440081"><ele>527.0</ele><time>2026-04-18T09:09:26.001Z</time></trkpt><trkpt lat="43.417255187096444" lon="10.976350638200627"><ele>527.0</ele><time>2026-04-18T09:09:27.001Z</time></trkpt><trkpt lat="43.417189682557726" lon="10.976366538531106"><ele>527.0</ele><time>2026-04-18T09:09:28.001Z</time></trkpt><trkpt lat="43.41710903570928" lon="10.976354115474535"><ele>527.0</ele><time>2026-04-18T09:09:30.001Z</time></trkpt><trkpt lat="43.4171693470014" lon="10.976385030433589"><ele>527.0</ele><time>2026-04-18T09:09:41.001Z</time></trkpt><trkpt lat="43.41725960782872" lon="10.976404032195441"><ele>527.0</ele><time>2026-04-18T09:09:42.001Z</time></trkpt><trkpt lat="43.417362568665055" lon="10.976321636292843"><ele>527.0</ele><time>2026-04-18T09:09:44.001Z</time></trkpt><trkpt lat="43.4174183660094" lon="10.976257196432396"><ele>527.0</ele><time>2026-04-18T09:09:45.001Z</time></trkpt><trkpt lat="43.41747820772661" lon="10.976198358089764"><ele>527.0</ele><time>2026-04-18T09:09:46.001Z</time></trkpt><trkpt lat="43.41755008232925" lon="10.97616539957613"><ele>527.0</ele><time>2026-04-18T09:09:47.001Z</time></trkpt><trkpt lat="43.41762235791604" lon="10.976143216708236"><ele>527.0</ele><time>2026-04-18T09:09:48.001Z</time></trkpt><trkpt lat="43.41769976911127" lon="10.976128456427654"><ele>527.0</ele><time>2026-04-18T09:09:49.001Z</time></trkpt><trkpt lat="43.417785355920195" lon="10.976115732085923"><ele>527.0</ele><time>2026-04-18T09:09:50.001Z</time></trkpt><trkpt lat="43.41787032266334" lon="10.97610238970886"><ele>527.0</ele><time>2026-04-18T09:09:51.001Z</time></trkpt><trkpt lat="43.41795664467678" lon="10.976090818537944"><ele>527.0</ele><time>2026-04-18T09:09:52.001Z</time></trkpt><trkpt lat="43.418049068933804" lon="10.976067252644299"><ele>527.0</ele><time>2026-04-18T09:09:53.001Z</time></trkpt><trkpt lat="43.4181474936623" lon="10.976044720228481"><ele>527.0</ele><time>2026-04-18T09:09:54.001Z</time></trkpt><trkpt lat="43.41835020207752" lon="10.97605251949172"><ele>526.4</ele><time>2026-04-18T09:09:56.001Z</time></trkpt><trkpt lat="43.41844827958903" lon="10.976088711882202"><ele>525.8000000000001</ele><time>2026-04-18T09:09:57.001Z</time></trkpt><trkpt lat="43.41853708173298" lon="10.976151662203145"><ele>525.2</ele><time>2026-04-18T09:09:58.001Z</time></trkpt><trkpt lat="43.41861340638208" lon="10.976228613487233"><ele>524.6</ele><time>2026-04-18T09:09:59.001Z</time></trkpt><trkpt lat="43.418686001692706" lon="10.976301446485998"><ele>524.0</ele><time>2026-04-18T09:10:00.001Z</time></trkpt><trkpt lat="43.4187621138851" lon="10.976342354632324"><ele>523.0</ele><time>2026-04-18T09:10:01.001Z</time></trkpt><trkpt lat="43.41882958752774" lon="10.976342884004987"><ele>522.0</ele><time>2026-04-18T09:10:02.001Z</time></trkpt><trkpt lat="43.41893423455707" lon="10.976306439501464"><ele>521.0</ele><time>2026-04-18T09:10:04.001Z</time></trkpt><trkpt lat="43.41900510223744" lon="10.976247669514157"><ele>520.0</ele><time>2026-04-18T09:10:06.001Z</time></trkpt><trkpt lat="43.41895363129957" lon="10.97613419991332"><ele>519.0</ele><time>2026-04-18T09:10:09.001Z</time></trkpt><trkpt lat="43.41887720883486" lon="10.976034452950651"><ele>519.0</ele><time>2026-04-18T09:10:11.001Z</time></trkpt><trkpt lat="43.41881890969025" lon="10.975985869677793"><ele>519.0</ele><time>2026-04-18T09:10:12Z</time></trkpt><trkpt lat="43.41875025653931" lon="10.9759128076044"><ele>519.0</ele><time>2026-04-18T09:10:13Z</time></trkpt><trkpt lat="43.4186613385155" lon="10.975854783320443"><ele>519.0</ele><time>2026-04-18T09:10:14Z</time></trkpt><trkpt lat="43.418578057888915" lon="10.975799602035154"><ele>519.0</ele><time>2026-04-18T09:10:15Z</time></trkpt><trkpt lat="43.41848373655574" lon="10.975773911801616"><ele>519.0</ele><time>2026-04-18T09:10:16Z</time></trkpt><trkpt lat="43.41840292763603" lon="10.975713865949093"><ele>517.6</ele><time>2026-04-18T09:10:17Z</time></trkpt><trkpt lat="43.4183088770339" lon="10.975665997293493"><ele>516.2</ele><time>2026-04-18T09:10:18Z</time></trkpt><trkpt lat="43.4182177400558" lon="10.975604095110956"><ele>514.8000000000001</ele><time>2026-04-18T09:10:19Z</time></trkpt><trkpt lat="43.41812781966394" lon="10.975554873686667"><ele>513.4</ele><time>2026-04-18T09:10:20Z</time></trkpt><trkpt lat="43.418035478663754" lon="10.975494844806006"><ele>512.0</ele><time>2026-04-18T09:10:21Z</time></trkpt><trkpt lat="43.41794446301702" lon="10.97546327496493"><ele>512.0</ele><time>2026-04-18T09:10:22Z</time></trkpt><trkpt lat="43.417812522789646" lon="10.975434009596288"><ele>512.0</ele><time>2026-04-18T09:10:23Z</time></trkpt><trkpt lat="43.41769602260378" lon="10.975430258639006"><ele>512.0</ele><time>2026-04-18T09:10:24Z</time></trkpt><trkpt lat="43.417597617160716" lon="10.975461738293877"><ele>512.0</ele><time>2026-04-18T09:10:25Z</time></trkpt><trkpt lat="43.41751455879503" lon="10.975447695338579"><ele>512.0</ele><time>2026-04-18T09:10:26Z</time></trkpt><trkpt lat="43.417439730190424" lon="10.975453786720495"><ele>511.99999999999994</ele><time>2026-04-18T09:10:27Z</time></trkpt><trkpt lat="43.41737495156948" lon="10.975447504667132"><ele>512.0</ele><time>2026-04-18T09:10:28Z</time></trkpt><trkpt lat="43.417302890796975" lon="10.975412836327965"><ele>512.0</ele><time>2026-04-18T09:10:30Z</time></trkpt><trkpt lat="43.417309018357585" lon="10.975303340878613"><ele>512.0</ele><time>2026-04-18T09:10:33Z</time></trkpt><trkpt lat="43.41737297562572" lon="10.975225608717842"><ele>511.99999999999994</ele><time>2026-04-18T09:10:34Z</time></trkpt><trkpt lat="43.41745186690507" lon="10.975104414423333"><ele>512.0</ele><time>2026-04-18T09:10:35Z</time></trkpt><trkpt lat="43.4175332584774" lon="10.975012911255307"><ele>509.20000000000005</ele><time>2026-04-18T09:10:36Z</time></trkpt><trkpt lat="43.41760673386209" lon="10.974912020909493"><ele>506.40000000000003</ele><time>2026-04-18T09:10:37Z</time></trkpt><trkpt lat="43.41767500252416" lon="10.974813255882262"><ele>503.59999999999997</ele><time>2026-04-18T09:10:38Z</time></trkpt><trkpt lat="43.417739326600184" lon="10.974714848729011"><ele>500.79999999999995</ele><time>2026-04-18T09:10:39Z</time></trkpt><trkpt lat="43.4177628864989" lon="10.974597813809178"><ele>498.0</ele><time>2026-04-18T09:10:40Z</time></trkpt><trkpt lat="43.4177618807102" lon="10.974484135761102"><ele>498.0</ele><time>2026-04-18T09:10:41Z</time></trkpt><trkpt lat="43.417712266269284" lon="10.974334606427437"><ele>498.0</ele><time>2026-04-18T09:10:42Z</time></trkpt><trkpt lat="43.41764230777697" lon="10.974179754566546"><ele>498.0</ele><time>2026-04-18T09:10:43Z</time></trkpt><trkpt lat="43.417535567546636" lon="10.97402252612797"><ele>498.0</ele><time>2026-04-18T09:10:44Z</time></trkpt><trkpt lat="43.41744661316313" lon="10.973862777108447"><ele>495.0</ele><time>2026-04-18T09:10:45Z</time></trkpt><trkpt lat="43.417372557692154" lon="10.973704740826854"><ele>492.0</ele><time>2026-04-18T09:10:46Z</time></trkpt><trkpt lat="43.41728804759706" lon="10.973527919279663"><ele>489.0</ele><time>2026-04-18T09:10:47Z</time></trkpt><trkpt lat="43.41720781428508" lon="10.973355107440213"><ele>486.0</ele><time>2026-04-18T09:10:48Z</time></trkpt><trkpt lat="43.41714295836262" lon="10.973171593354607"><ele>483.5</ele><time>2026-04-18T09:10:49Z</time></trkpt><trkpt lat="43.41708355938757" lon="10.973001281781517"><ele>481.0</ele><time>2026-04-18T09:10:50Z</time></trkpt><trkpt lat="43.41702630215365" lon="10.972816965996376"><ele>478.5</ele><time>2026-04-18T09:10:51Z</time></trkpt><trkpt lat="43.41697321103599" lon="10.972624156032014"><ele>476.0</ele><time>2026-04-18T09:10:52Z</time></trkpt><trkpt lat="43.41692127158969" lon="10.972424047407971"><ele>475.66666666666663</ele><time>2026-04-18T09:10:53Z</time></trkpt><trkpt lat="43.416867178965816" lon="10.972214632651582"><ele>475.33333333333337</ele><time>2026-04-18T09:10:54Z</time></trkpt><trkpt lat="43.41681291114455" lon="10.972004539314636"><ele>475.0</ele><time>2026-04-18T09:10:55Z</time></trkpt><trkpt lat="43.41675659469089" lon="10.97179640561297"><ele>476.0</ele><time>2026-04-18T09:10:56Z</time></trkpt><trkpt lat="43.41668869879917" lon="10.971604292496385"><ele>477.0</ele><time>2026-04-18T09:10:57Z</time></trkpt><trkpt lat="43.416613786066264" lon="10.971423072949596"><ele>478.0</ele><time>2026-04-18T09:10:58Z</time></trkpt><trkpt lat="43.41653916281954" lon="10.9712519742331"><ele>478.0</ele><time>2026-04-18T09:10:59Z</time></trkpt><trkpt lat="43.416460623687584" lon="10.971080388758295"><ele>478.0</ele><time>2026-04-18T09:11:00Z</time></trkpt><trkpt lat="43.41637109269929" lon="10.970900208591383"><ele>478.0</ele><time>2026-04-18T09:11:01Z</time></trkpt><trkpt lat="43.416272015211554" lon="10.970713816804759"><ele>479.33333333333337</ele><time>2026-04-18T09:11:02Z</time></trkpt><trkpt lat="43.41617561817517" lon="10.970537400974031"><ele>480.66666666666663</ele><time>2026-04-18T09:11:03Z</time></trkpt><trkpt lat="43.416076747195135" lon="10.970359648876887"><ele>482.0</ele><time>2026-04-18T09:11:04Z</time></trkpt><trkpt lat="43.41597665111331" lon="10.970179694443871"><ele>481.3333333333333</ele><time>2026-04-18T09:11:05Z</time></trkpt><trkpt lat="43.41587500918251" lon="10.96999696070927"><ele>480.66666666666663</ele><time>2026-04-18T09:11:06Z</time></trkpt><trkpt lat="43.41578833459603" lon="10.969841135494098"><ele>480.0</ele><time>2026-04-18T09:11:07Z</time></trkpt><trkpt lat="43.415704526164966" lon="10.969686829094282"><ele>480.0</ele><time>2026-04-18T09:11:08Z</time></trkpt><trkpt lat="43.41562980483508" lon="10.96953737766609"><ele>480.0</ele><time>2026-04-18T09:11:09Z</time></trkpt><trkpt lat="43.41557570854202" lon="10.969399341857049"><ele>480.0</ele><time>2026-04-18T09:11:10Z</time></trkpt><trkpt lat="43.41553299542424" lon="10.969274261777384"><ele>480.0</ele><time>2026-04-18T09:11:11Z</time></trkpt><trkpt lat="43.415509202445705" lon="10.969154714716492"><ele>480.0</ele><time>2026-04-18T09:11:12Z</time></trkpt><trkpt lat="43.41550246603577" lon="10.96902818193089"><ele>479.2</ele><time>2026-04-18T09:11:13Z</time></trkpt><trkpt lat="43.41550541286542" lon="10.968881856380166"><ele>478.4</ele><time>2026-04-18T09:11:14Z</time></trkpt><trkpt lat="43.41550806221289" lon="10.968743297373914"><ele>477.6</ele><time>2026-04-18T09:11:15Z</time></trkpt><trkpt lat="43.41551235514763" lon="10.96860099926682"><ele>476.8</ele><time>2026-04-18T09:11:16Z</time></trkpt><trkpt lat="43.415520578930085" lon="10.968423688533832"><ele>476.0</ele><time>2026-04-18T09:11:17Z</time></trkpt><trkpt lat="43.415532438337344" lon="10.968236320715965"><ele>476.0</ele><time>2026-04-18T09:11:18Z</time></trkpt><trkpt lat="43.4155462405089" lon="10.968021120488336"><ele>476.0</ele><time>2026-04-18T09:11:19Z</time></trkpt><trkpt lat="43.41556166793096" lon="10.967782658168835"><ele>476.0</ele><time>2026-04-18T09:11:20Z</time></trkpt><trkpt lat="43.41558517084556" lon="10.967535426033663"><ele>478.66666666666663</ele><time>2026-04-18T09:11:21Z</time></trkpt><trkpt lat="43.415608699586244" lon="10.96729124423327"><ele>481.33333333333337</ele><time>2026-04-18T09:11:22Z</time></trkpt><trkpt lat="43.415639762105606" lon="10.967058862999034"><ele>484.0</ele><time>2026-04-18T09:11:23Z</time></trkpt><trkpt lat="43.41567470161332" lon="10.966846697212675"><ele>485.75</ele><time>2026-04-18T09:11:24Z</time></trkpt><trkpt lat="43.41569537316532" lon="10.966634962007987"><ele>487.5</ele><time>2026-04-18T09:11:25Z</time></trkpt><trkpt lat="43.415728471024686" lon="10.966448089599227"><ele>489.25</ele><time>2026-04-18T09:11:26Z</time></trkpt><trkpt lat="43.415729384063546" lon="10.966253050825626"><ele>491.0</ele><time>2026-04-18T09:11:27Z</time></trkpt><trkpt lat="43.41570679967483" lon="10.966051901769612"><ele>491.75</ele><time>2026-04-18T09:11:28Z</time></trkpt><trkpt lat="43.41566253327053" lon="10.96584394775505"><ele>492.5</ele><time>2026-04-18T09:11:29Z</time></trkpt><trkpt lat="43.415610641301434" lon="10.965640429784994"><ele>493.25</ele><time>2026-04-18T09:11:30Z</time></trkpt><trkpt lat="43.41559082117919" lon="10.965466106227495"><ele>494.0</ele><time>2026-04-18T09:11:31Z</time></trkpt><trkpt lat="43.415612801686706" lon="10.965307134291034"><ele>494.0</ele><time>2026-04-18T09:11:32Z</time></trkpt><trkpt lat="43.41562705665207" lon="10.965149322237913"><ele>494.0</ele><time>2026-04-18T09:11:33.001Z</time></trkpt><trkpt lat="43.41566362622897" lon="10.96498150312262"><ele>494.0</ele><time>2026-04-18T09:11:34.001Z</time></trkpt><trkpt lat="43.41570767043543" lon="10.964825587242116"><ele>494.0</ele><time>2026-04-18T09:11:35.001Z</time></trkpt><trkpt lat="43.41572004999276" lon="10.96469289108904"><ele>493.66666666666663</ele><time>2026-04-18T09:11:36.001Z</time></trkpt><trkpt lat="43.41572064314811" lon="10.96459056150712"><ele>493.3333333333333</ele><time>2026-04-18T09:11:37.001Z</time></trkpt><trkpt lat="43.415637373704094" lon="10.964444486522254"><ele>493.0</ele><time>2026-04-18T09:11:39.001Z</time></trkpt><trkpt lat="43.41559587964049" lon="10.964371400357622"><ele>492.66666666666663</ele><time>2026-04-18T09:11:40.001Z</time></trkpt><trkpt lat="43.41555666430197" lon="10.964281186354986"><ele>492.3333333333333</ele><time>2026-04-18T09:11:41.001Z</time></trkpt><trkpt lat="43.41550957356931" lon="10.964201145682516"><ele>492.0</ele><time>2026-04-18T09:11:42.001Z</time></trkpt><trkpt lat="43.415468297457785" lon="10.964133781616749"><ele>492.0</ele><time>2026-04-18T09:11:43.001Z</time></trkpt><trkpt lat="43.41537487480958" lon="10.96401761754793"><ele>492.0</ele><time>2026-04-18T09:11:45.001Z</time></trkpt><trkpt lat="43.41531100146919" lon="10.963959777557857"><ele>492.0</ele><time>2026-04-18T09:11:46.001Z</time></trkpt><trkpt lat="43.41524494361693" lon="10.963912409114137"><ele>492.0</ele><time>2026-04-18T09:11:47.001Z</time></trkpt><trkpt lat="43.41516281493018" lon="10.963882035905193"><ele>492.0</ele><time>2026-04-18T09:11:48.001Z</time></trkpt><trkpt lat="43.415084102604624" lon="10.963833037125475"><ele>492.0</ele><time>2026-04-18T09:11:49.001Z</time></trkpt><trkpt lat="43.415010038732014" lon="10.963774013728353"><ele>492.0</ele><time>2026-04-18T09:11:50.001Z</time></trkpt><trkpt lat="43.414944524622335" lon="10.963695642375734"><ele>492.00000000000006</ele><time>2026-04-18T09:11:51.001Z</time></trkpt><trkpt lat="43.41486411594918" lon="10.963625139657285"><ele>492.00000000000006</ele><time>2026-04-18T09:11:52.001Z</time></trkpt><trkpt lat="43.41477195099775" lon="10.963565685688815"><ele>492.0</ele><time>2026-04-18T09:11:53.001Z</time></trkpt><trkpt lat="43.41466183490368" lon="10.963529665128275"><ele>492.0</ele><time>2026-04-18T09:11:54.001Z</time></trkpt><trkpt lat="43.41454551584436" lon="10.963505804404024"><ele>490.0</ele><time>2026-04-18T09:11:55.001Z</time></trkpt><trkpt lat="43.414433526840476" lon="10.963484246431163"><ele>488.0</ele><time>2026-04-18T09:11:56.001Z</time></trkpt><trkpt lat="43.414335925987764" lon="10.963459065102144"><ele>486.0</ele><time>2026-04-18T09:11:57.001Z</time></trkpt><trkpt lat="43.41424637803268" lon="10.963421635973752"><ele>484.0</ele><time>2026-04-18T09:11:58.001Z</time></trkpt><trkpt lat="43.4141829489588" lon="10.963372699653819"><ele>482.0</ele><time>2026-04-18T09:11:59.001Z</time></trkpt><trkpt lat="43.4141372985844" lon="10.963309658773005"><ele>480.0</ele><time>2026-04-18T09:12:00.001Z</time></trkpt><trkpt lat="43.414076333469325" lon="10.96315518672752"><ele>480.0</ele><time>2026-04-18T09:12:02.001Z</time></trkpt><trkpt lat="43.41404011064827" lon="10.963081670049926"><ele>480.0</ele><time>2026-04-18T09:12:03.001Z</time></trkpt><trkpt lat="43.414009007085454" lon="10.962996702935248"><ele>480.0</ele><time>2026-04-18T09:12:04.001Z</time></trkpt><trkpt lat="43.41398083362167" lon="10.962915671099873"><ele>480.0</ele><time>2026-04-18T09:12:05.001Z</time></trkpt><trkpt lat="43.413894241312704" lon="10.962807978589767"><ele>480.0</ele><time>2026-04-18T09:12:07.001Z</time></trkpt><trkpt lat="43.41382535570883" lon="10.962812151583588"><ele>480.0</ele><time>2026-04-18T09:12:08.001Z</time></trkpt><trkpt lat="43.41375028982473" lon="10.962947481726294"><ele>477.6</ele><time>2026-04-18T09:12:09.001Z</time></trkpt><trkpt lat="43.41366164621613" lon="10.96300447351127"><ele>475.2</ele><time>2026-04-18T09:12:10.001Z</time></trkpt><trkpt lat="43.41357165083943" lon="10.963047671982448"><ele>472.79999999999995</ele><time>2026-04-18T09:12:11.001Z</time></trkpt><trkpt lat="43.413454234938186" lon="10.963101741225973"><ele>470.4</ele><time>2026-04-18T09:12:12.001Z</time></trkpt><trkpt lat="43.41337310093876" lon="10.963122593539373"><ele>468.0</ele><time>2026-04-18T09:12:13.001Z</time></trkpt><trkpt lat="43.41329204010408" lon="10.963123342486217"><ele>468.0</ele><time>2026-04-18T09:12:14.001Z</time></trkpt><trkpt lat="43.41317714872433" lon="10.963036168082285"><ele>467.99999999999994</ele><time>2026-04-18T09:12:16.001Z</time></trkpt><trkpt lat="43.41311390588419" lon="10.962962860491892"><ele>467.99999999999994</ele><time>2026-04-18T09:12:17.001Z</time></trkpt><trkpt lat="43.41304207244661" lon="10.962870003365952"><ele>468.0</ele><time>2026-04-18T09:12:18Z</time></trkpt><trkpt lat="43.412960109337305" lon="10.962753215719223"><ele>468.0</ele><time>2026-04-18T09:12:19Z</time></trkpt><trkpt lat="43.4128844920199" lon="10.962644865064407"><ele>465.3333333333333</ele><time>2026-04-18T09:12:20Z</time></trkpt><trkpt lat="43.41281501389733" lon="10.962556933831188"><ele>462.66666666666663</ele><time>2026-04-18T09:12:21Z</time></trkpt><trkpt lat="43.41276108219711" lon="10.96248989522399"><ele>460.0</ele><time>2026-04-18T09:12:22Z</time></trkpt><trkpt lat="43.412708794966115" lon="10.962414535121534"><ele>457.3333333333333</ele><time>2026-04-18T09:12:23Z</time></trkpt><trkpt lat="43.41266978173768" lon="10.962343676994687"><ele>454.66666666666663</ele><time>2026-04-18T09:12:24Z</time></trkpt><trkpt lat="43.412649948254554" lon="10.962231843104325"><ele>452.0</ele><time>2026-04-18T09:12:25Z</time></trkpt><trkpt lat="43.41266633740244" lon="10.962142284297274"><ele>451.6</ele><time>2026-04-18T09:12:26Z</time></trkpt><trkpt lat="43.412686390249895" lon="10.96204150996659"><ele>451.20000000000005</ele><time>2026-04-18T09:12:27Z</time></trkpt><trkpt lat="43.41271437151834" lon="10.961939124126223"><ele>450.8</ele><time>2026-04-18T09:12:28Z</time></trkpt><trkpt lat="43.41275526706632" lon="10.961779766636663"><ele>450.4</ele><time>2026-04-18T09:12:29Z</time></trkpt><trkpt lat="43.412782583991834" lon="10.9616363521032"><ele>450.0</ele><time>2026-04-18T09:12:30Z</time></trkpt><trkpt lat="43.41279155875856" lon="10.961494958551285"><ele>449.0</ele><time>2026-04-18T09:12:31Z</time></trkpt><trkpt lat="43.41282440149105" lon="10.961370036117513"><ele>448.0</ele><time>2026-04-18T09:12:32Z</time></trkpt><trkpt lat="43.41282707857931" lon="10.961227845254312"><ele>447.0</ele><time>2026-04-18T09:12:33Z</time></trkpt><trkpt lat="43.412841152983056" lon="10.961076735203994"><ele>446.0</ele><time>2026-04-18T09:12:34Z</time></trkpt><trkpt lat="43.41280872403286" lon="10.960921512832254"><ele>445.0</ele><time>2026-04-18T09:12:35Z</time></trkpt><trkpt lat="43.41276522615233" lon="10.960790110269945"><ele>442.4</ele><time>2026-04-18T09:12:36Z</time></trkpt><trkpt lat="43.41273918375985" lon="10.960630997469906"><ele>439.8</ele><time>2026-04-18T09:12:37Z</time></trkpt><trkpt lat="43.41275205040724" lon="10.960488760275185"><ele>437.20000000000005</ele><time>2026-04-18T09:12:38Z</time></trkpt><trkpt lat="43.41275954903093" lon="10.960360684809528"><ele>434.6</ele><time>2026-04-18T09:12:39Z</time></trkpt><trkpt lat="43.412756271144126" lon="10.960226791462691"><ele>432.0</ele><time>2026-04-18T09:12:40Z</time></trkpt><trkpt lat="43.41277287132598" lon="10.960078957395682"><ele>429.5</ele><time>2026-04-18T09:12:41Z</time></trkpt><trkpt lat="43.412809909098264" lon="10.959931440102533"><ele>427.0</ele><time>2026-04-18T09:12:42Z</time></trkpt><trkpt lat="43.412840738982275" lon="10.959777003176885"><ele>424.5</ele><time>2026-04-18T09:12:43Z</time></trkpt><trkpt lat="43.41288301708585" lon="10.959622385873399"><ele>422.0</ele><time>2026-04-18T09:12:44Z</time></trkpt><trkpt lat="43.41292244653308" lon="10.9594689494396"><ele>422.0</ele><time>2026-04-18T09:12:45Z</time></trkpt><trkpt lat="43.41294232574486" lon="10.959315634076596"><ele>422.0</ele><time>2026-04-18T09:12:46Z</time></trkpt><trkpt lat="43.412964236118675" lon="10.95917778663946"><ele>422.0</ele><time>2026-04-18T09:12:47Z</time></trkpt><trkpt lat="43.412972883976224" lon="10.959035785178367"><ele>422.0</ele><time>2026-04-18T09:12:48Z</time></trkpt><trkpt lat="43.41295493094685" lon="10.958900595080307"><ele>422.0</ele><time>2026-04-18T09:12:49Z</time></trkpt><trkpt lat="43.41291999179726" lon="10.958780135338888"><ele>419.5</ele><time>2026-04-18T09:12:50Z</time></trkpt><trkpt lat="43.412879062525796" lon="10.958634424777339"><ele>417.0</ele><time>2026-04-18T09:12:51Z</time></trkpt><trkpt lat="43.41283562195666" lon="10.958459736774055"><ele>414.5</ele><time>2026-04-18T09:12:52Z</time></trkpt><trkpt lat="43.41278843860961" lon="10.958270387471353"><ele>412.0</ele><time>2026-04-18T09:12:53Z</time></trkpt><trkpt lat="43.41273802834505" lon="10.958084231521577"><ele>410.0</ele><time>2026-04-18T09:12:54Z</time></trkpt><trkpt lat="43.41269155217225" lon="10.957908780305116"><ele>408.0</ele><time>2026-04-18T09:12:55Z</time></trkpt><trkpt lat="43.412642436203754" lon="10.957730106044732"><ele>406.0</ele><time>2026-04-18T09:12:56Z</time></trkpt><trkpt lat="43.412588671235056" lon="10.957533521277986"><ele>404.0</ele><time>2026-04-18T09:12:57Z</time></trkpt><trkpt lat="43.412535284253856" lon="10.957343974273819"><ele>401.5</ele><time>2026-04-18T09:12:58Z</time></trkpt><trkpt lat="43.4124880313758" lon="10.957166107264435"><ele>399.0</ele><time>2026-04-18T09:12:59Z</time></trkpt><trkpt lat="43.41244498656499" lon="10.956995306232018"><ele>396.5</ele><time>2026-04-18T09:13:00Z</time></trkpt><trkpt lat="43.41240801520166" lon="10.956854507413633"><ele>394.0</ele><time>2026-04-18T09:13:01Z</time></trkpt><trkpt lat="43.41237780295538" lon="10.956733785384436"><ele>393.1666666666667</ele><time>2026-04-18T09:13:02Z</time></trkpt><trkpt lat="43.412357319762464" lon="10.956632541843856"><ele>392.33333333333337</ele><time>2026-04-18T09:13:03Z</time></trkpt><trkpt lat="43.41234152084215" lon="10.95654264266678"><ele>391.5</ele><time>2026-04-18T09:13:04Z</time></trkpt><trkpt lat="43.41229900035497" lon="10.956372533253122"><ele>390.66666666666663</ele><time>2026-04-18T09:13:06Z</time></trkpt><trkpt lat="43.412276165740494" lon="10.956278302558015"><ele>389.8333333333333</ele><time>2026-04-18T09:13:07Z</time></trkpt><trkpt lat="43.4122457624798" lon="10.956154235031166"><ele>389.0</ele><time>2026-04-18T09:13:08Z</time></trkpt><trkpt lat="43.41222142150475" lon="10.956045685951391"><ele>388.99999999999994</ele><time>2026-04-18T09:13:09Z</time></trkpt><trkpt lat="43.41220107069283" lon="10.955944782876273"><ele>389.0</ele><time>2026-04-18T09:13:10Z</time></trkpt><trkpt lat="43.412175964078166" lon="10.955814759873078"><ele>389.0</ele><time>2026-04-18T09:13:11Z</time></trkpt><trkpt lat="43.41217385484167" lon="10.955700506080094"><ele>389.0</ele><time>2026-04-18T09:13:12Z</time></trkpt><trkpt lat="43.41213390299811" lon="10.955625636347168"><ele>388.99999999999994</ele><time>2026-04-18T09:13:13Z</time></trkpt><trkpt lat="43.41212909006118" lon="10.955482957822074"><ele>389.0</ele><time>2026-04-18T09:13:15Z</time></trkpt><trkpt lat="43.41212702915806" lon="10.955340437207388"><ele>389.0</ele><time>2026-04-18T09:13:17Z</time></trkpt><trkpt lat="43.412110501813245" lon="10.955199565566325"><ele>389.0</ele><time>2026-04-18T09:13:18Z</time></trkpt><trkpt lat="43.412121300682415" lon="10.955065294243997"><ele>389.0</ele><time>2026-04-18T09:13:19Z</time></trkpt><trkpt lat="43.412111584728585" lon="10.95493539882593"><ele>389.0</ele><time>2026-04-18T09:13:20Z</time></trkpt><trkpt lat="43.41208587923344" lon="10.954800229600291"><ele>389.0</ele><time>2026-04-18T09:13:21Z</time></trkpt><trkpt lat="43.412040266512044" lon="10.954689848890132"><ele>390.79999999999995</ele><time>2026-04-18T09:13:22Z</time></trkpt><trkpt lat="43.411995857808634" lon="10.954592190369159"><ele>392.59999999999997</ele><time>2026-04-18T09:13:23Z</time></trkpt><trkpt lat="43.411952997139565" lon="10.954441444706806"><ele>394.4</ele><time>2026-04-18T09:13:24Z</time></trkpt><trkpt lat="43.41193076849452" lon="10.954300649308365"><ele>396.2</ele><time>2026-04-18T09:13:25Z</time></trkpt><trkpt lat="43.4119147074368" lon="10.95416610742393"><ele>398.0</ele><time>2026-04-18T09:13:26Z</time></trkpt><trkpt lat="43.411898796233295" lon="10.954022577787496"><ele>398.5</ele><time>2026-04-18T09:13:27Z</time></trkpt><trkpt lat="43.41188820601473" lon="10.953862217676656"><ele>399.0</ele><time>2026-04-18T09:13:28Z</time></trkpt><trkpt lat="43.411875167198275" lon="10.953679039308406"><ele>399.5</ele><time>2026-04-18T09:13:29Z</time></trkpt><trkpt lat="43.411864295368666" lon="10.953509460960046"><ele>400.0</ele><time>2026-04-18T09:13:30Z</time></trkpt><trkpt lat="43.41185432230334" lon="10.953327365263586"><ele>401.5</ele><time>2026-04-18T09:13:31Z</time></trkpt><trkpt lat="43.41184592146423" lon="10.953160195973942"><ele>403.0</ele><time>2026-04-18T09:13:32Z</time></trkpt><trkpt lat="43.41183092215402" lon="10.952981994383464"><ele>404.5</ele><time>2026-04-18T09:13:33Z</time></trkpt><trkpt lat="43.41182115861554" lon="10.952819453158256"><ele>406.0</ele><time>2026-04-18T09:13:34Z</time></trkpt><trkpt lat="43.411814481411746" lon="10.952651467474205"><ele>407.5</ele><time>2026-04-18T09:13:35Z</time></trkpt><trkpt lat="43.41180439973716" lon="10.952488226547725"><ele>409.0</ele><time>2026-04-18T09:13:36Z</time></trkpt><trkpt lat="43.41179393370319" lon="10.952329932738753"><ele>410.5</ele><time>2026-04-18T09:13:37Z</time></trkpt><trkpt lat="43.41178461658304" lon="10.952160076532003"><ele>412.0</ele><time>2026-04-18T09:13:38Z</time></trkpt><trkpt lat="43.41177408072103" lon="10.951985547761648"><ele>412.0</ele><time>2026-04-18T09:13:39Z</time></trkpt><trkpt lat="43.411764694868765" lon="10.951810040935795"><ele>412.0</ele><time>2026-04-18T09:13:40Z</time></trkpt><trkpt lat="43.41174918894185" lon="10.95161168781724"><ele>412.0</ele><time>2026-04-18T09:13:41Z</time></trkpt><trkpt lat="43.41173282822112" lon="10.951414836892603"><ele>412.0</ele><time>2026-04-18T09:13:42Z</time></trkpt><trkpt lat="43.41171734797115" lon="10.951223866060236"><ele>413.0</ele><time>2026-04-18T09:13:43Z</time></trkpt><trkpt lat="43.41170435355457" lon="10.951037602619945"><ele>414.0</ele><time>2026-04-18T09:13:44Z</time></trkpt><trkpt lat="43.4116909965513" lon="10.950859023521263"><ele>415.0</ele><time>2026-04-18T09:13:45Z</time></trkpt><trkpt lat="43.41167757487688" lon="10.950675600042562"><ele>416.0</ele><time>2026-04-18T09:13:46Z</time></trkpt><trkpt lat="43.4116605690618" lon="10.950489337774892"><ele>417.0</ele><time>2026-04-18T09:13:47Z</time></trkpt><trkpt lat="43.41163387295949" lon="10.950309995063305"><ele>418.0</ele><time>2026-04-18T09:13:48Z</time></trkpt><trkpt lat="43.41159829856508" lon="10.95010767584787"><ele>419.0</ele><time>2026-04-18T09:13:49Z</time></trkpt><trkpt lat="43.41156478365199" lon="10.94992920790467"><ele>420.0</ele><time>2026-04-18T09:13:50Z</time></trkpt><trkpt lat="43.41153681798883" lon="10.9497781891705"><ele>420.4</ele><time>2026-04-18T09:13:51Z</time></trkpt><trkpt lat="43.41151627827525" lon="10.94963220945481"><ele>420.8</ele><time>2026-04-18T09:13:52Z</time></trkpt><trkpt lat="43.41149208285979" lon="10.949503533242595"><ele>421.20000000000005</ele><time>2026-04-18T09:13:53Z</time></trkpt><trkpt lat="43.411442894233204" lon="10.949381170480269"><ele>421.6</ele><time>2026-04-18T09:13:54Z</time></trkpt><trkpt lat="43.41138943204969" lon="10.949259007605153"><ele>422.0</ele><time>2026-04-18T09:13:55Z</time></trkpt><trkpt lat="43.41134199680921" lon="10.949153416408933"><ele>421.66666666666663</ele><time>2026-04-18T09:13:56Z</time></trkpt><trkpt lat="43.41127958753003" lon="10.949070698386205"><ele>421.3333333333333</ele><time>2026-04-18T09:13:57Z</time></trkpt><trkpt lat="43.411199770837875" lon="10.949013767881057"><ele>421.0</ele><time>2026-04-18T09:13:58Z</time></trkpt><trkpt lat="43.41112144970311" lon="10.94897407380746"><ele>420.66666666666663</ele><time>2026-04-18T09:13:59Z</time></trkpt><trkpt lat="43.4110539890924" lon="10.948905953178167"><ele>420.3333333333333</ele><time>2026-04-18T09:14:00Z</time></trkpt><trkpt lat="43.41100067757082" lon="10.94880999015978"><ele>420.0</ele><time>2026-04-18T09:14:01Z</time></trkpt><trkpt lat="43.41096213944328" lon="10.948699263428209"><ele>420.0</ele><time>2026-04-18T09:14:02Z</time></trkpt><trkpt lat="43.41094669696541" lon="10.94855429708922"><ele>420.0</ele><time>2026-04-18T09:14:03Z</time></trkpt><trkpt lat="43.41092869434159" lon="10.948395380713428"><ele>420.0</ele><time>2026-04-18T09:14:04Z</time></trkpt><trkpt lat="43.410906753904754" lon="10.948230667685538"><ele>420.0</ele><time>2026-04-18T09:14:05Z</time></trkpt><trkpt lat="43.41088553221873" lon="10.948059456812414"><ele>419.5</ele><time>2026-04-18T09:14:06Z</time></trkpt><trkpt lat="43.41087645690407" lon="10.9478757470135"><ele>419.0</ele><time>2026-04-18T09:14:07Z</time></trkpt><trkpt lat="43.410883364799176" lon="10.94769989366591"><ele>418.5</ele><time>2026-04-18T09:14:08Z</time></trkpt><trkpt lat="43.410895865746674" lon="10.947551557498747"><ele>418.0</ele><time>2026-04-18T09:14:09Z</time></trkpt><trkpt lat="43.410917027438366" lon="10.947395008875233"><ele>419.0</ele><time>2026-04-18T09:14:10Z</time></trkpt><trkpt lat="43.41095394260005" lon="10.947229683620971"><ele>420.0</ele><time>2026-04-18T09:14:11Z</time></trkpt><trkpt lat="43.41097529420944" lon="10.94706322509555"><ele>421.0</ele><time>2026-04-18T09:14:12.001Z</time></trkpt><trkpt lat="43.410982848631704" lon="10.946896309299138"><ele>422.0</ele><time>2026-04-18T09:14:13.001Z</time></trkpt><trkpt lat="43.41099417658579" lon="10.946710504326791"><ele>423.0</ele><time>2026-04-18T09:14:14.001Z</time></trkpt><trkpt lat="43.41100622454225" lon="10.946521380066772"><ele>424.0</ele><time>2026-04-18T09:14:15.001Z</time></trkpt><trkpt lat="43.41101876392041" lon="10.946329800219576"><ele>425.0</ele><time>2026-04-18T09:14:16.001Z</time></trkpt><trkpt lat="43.41103475153356" lon="10.94614021186492"><ele>426.0</ele><time>2026-04-18T09:14:17.001Z</time></trkpt><trkpt lat="43.41103289691248" lon="10.945960852219173"><ele>426.25</ele><time>2026-04-18T09:14:18.001Z</time></trkpt><trkpt lat="43.411024093004485" lon="10.945791393152376"><ele>426.5</ele><time>2026-04-18T09:14:19.001Z</time></trkpt><trkpt lat="43.41102201176033" lon="10.945633554945315"><ele>426.75</ele><time>2026-04-18T09:14:20.001Z</time></trkpt><trkpt lat="43.411007732009935" lon="10.945466990520744"><ele>427.0</ele><time>2026-04-18T09:14:21.001Z</time></trkpt><trkpt lat="43.4109581080109" lon="10.945288332541153"><ele>427.0</ele><time>2026-04-18T09:14:22.001Z</time></trkpt><trkpt lat="43.41093725348973" lon="10.94510176883895"><ele>427.0</ele><time>2026-04-18T09:14:23.001Z</time></trkpt><trkpt lat="43.410917699141685" lon="10.944905135887293"><ele>427.0</ele><time>2026-04-18T09:14:24.001Z</time></trkpt><trkpt lat="43.410909897063924" lon="10.944716025519106"><ele>427.0</ele><time>2026-04-18T09:14:25.001Z</time></trkpt><trkpt lat="43.41089804923499" lon="10.944545898222927"><ele>426.75</ele><time>2026-04-18T09:14:26.001Z</time></trkpt><trkpt lat="43.41088696804744" lon="10.944370530353385"><ele>426.5</ele><time>2026-04-18T09:14:27.001Z</time></trkpt><trkpt lat="43.41088645702364" lon="10.944189748662502"><ele>426.25</ele><time>2026-04-18T09:14:28.001Z</time></trkpt><trkpt lat="43.4108790275096" lon="10.943998235204043"><ele>426.0</ele><time>2026-04-18T09:14:29.001Z</time></trkpt><trkpt lat="43.41087222317109" lon="10.94383180823676"><ele>425.25</ele><time>2026-04-18T09:14:30.001Z</time></trkpt><trkpt lat="43.41085216599844" lon="10.943663950873228"><ele>424.5</ele><time>2026-04-18T09:14:31.001Z</time></trkpt><trkpt lat="43.41084102618321" lon="10.943495999212868"><ele>423.75</ele><time>2026-04-18T09:14:32.001Z</time></trkpt><trkpt lat="43.410834565045185" lon="10.943312328006758"><ele>423.0</ele><time>2026-04-18T09:14:33.001Z</time></trkpt><trkpt lat="43.41083617194264" lon="10.943102763226413"><ele>423.0</ele><time>2026-04-18T09:14:34.001Z</time></trkpt><trkpt lat="43.41081710442276" lon="10.942895135249668"><ele>423.0</ele><time>2026-04-18T09:14:35.001Z</time></trkpt><trkpt lat="43.410784091182784" lon="10.94270705315214"><ele>423.0</ele><time>2026-04-18T09:14:36.001Z</time></trkpt><trkpt lat="43.41074763949098" lon="10.942540230750245"><ele>423.0</ele><time>2026-04-18T09:14:37.001Z</time></trkpt><trkpt lat="43.41070294566809" lon="10.942385809424557"><ele>421.75</ele><time>2026-04-18T09:14:38.001Z</time></trkpt><trkpt lat="43.410643309271144" lon="10.942218373636326"><ele>420.5</ele><time>2026-04-18T09:14:39.001Z</time></trkpt><trkpt lat="43.410578848944674" lon="10.942052176436361"><ele>419.25</ele><time>2026-04-18T09:14:40.001Z</time></trkpt><trkpt lat="43.410515194925146" lon="10.941875660036857"><ele>418.0</ele><time>2026-04-18T09:14:41.001Z</time></trkpt><trkpt lat="43.41045745480622" lon="10.941697735660076"><ele>414.75</ele><time>2026-04-18T09:14:42.001Z</time></trkpt><trkpt lat="43.41041376916346" lon="10.941522409106058"><ele>411.5</ele><time>2026-04-18T09:14:43.001Z</time></trkpt><trkpt lat="43.41038063514344" lon="10.941357207500126"><ele>408.25</ele><time>2026-04-18T09:14:44.001Z</time></trkpt><trkpt lat="43.41034661049487" lon="10.94121376637022"><ele>405.0</ele><time>2026-04-18T09:14:45.001Z</time></trkpt><trkpt lat="43.410305988981456" lon="10.941091505228357"><ele>405.0</ele><time>2026-04-18T09:14:46.001Z</time></trkpt><trkpt lat="43.4102803642282" lon="10.940987577292553"><ele>405.0</ele><time>2026-04-18T09:14:47.001Z</time></trkpt><trkpt lat="43.41026220237704" lon="10.940882929017624"><ele>405.0</ele><time>2026-04-18T09:14:48.001Z</time></trkpt><trkpt lat="43.41026735349439" lon="10.940785833299987"><ele>405.0</ele><time>2026-04-18T09:14:49.001Z</time></trkpt><trkpt lat="43.41035482076977" lon="10.940671169129471"><ele>405.0</ele><time>2026-04-18T09:14:51.001Z</time></trkpt><trkpt lat="43.41043442362281" lon="10.940692128967735"><ele>405.0</ele><time>2026-04-18T09:14:52.001Z</time></trkpt><trkpt lat="43.41055434415672" lon="10.940620080888946"><ele>404.6</ele><time>2026-04-18T09:14:54.001Z</time></trkpt><trkpt lat="43.410616519722765" lon="10.940598077903502"><ele>404.2</ele><time>2026-04-18T09:14:55.001Z</time></trkpt><trkpt lat="43.41068709949391" lon="10.94047361634045"><ele>403.79999999999995</ele><time>2026-04-18T09:14:57.001Z</time></trkpt><trkpt lat="43.410699492250444" lon="10.940353533252168"><ele>403.4</ele><time>2026-04-18T09:14:58.001Z</time></trkpt><trkpt lat="43.410685247799414" lon="10.940224519694892"><ele>403.0</ele><time>2026-04-18T09:14:59.001Z</time></trkpt><trkpt lat="43.41065709102611" lon="10.940063716313414"><ele>401.5</ele><time>2026-04-18T09:15:00.001Z</time></trkpt><trkpt lat="43.4106576045386" lon="10.939895200255318"><ele>400.0</ele><time>2026-04-18T09:15:01.001Z</time></trkpt><trkpt lat="43.41064170128815" lon="10.93970757587701"><ele>398.5</ele><time>2026-04-18T09:15:02.001Z</time></trkpt><trkpt lat="43.41063118654501" lon="10.939537384810407"><ele>397.0</ele><time>2026-04-18T09:15:03.001Z</time></trkpt><trkpt lat="43.410630803855504" lon="10.939389243667575"><ele>397.0</ele><time>2026-04-18T09:15:04.001Z</time></trkpt><trkpt lat="43.41063877503609" lon="10.939253664237622"><ele>397.0</ele><time>2026-04-18T09:15:05.001Z</time></trkpt><trkpt lat="43.410647524651544" lon="10.93912253371248"><ele>397.0</ele><time>2026-04-18T09:15:06.001Z</time></trkpt><trkpt lat="43.410662148432" lon="10.939001197735681"><ele>397.0</ele><time>2026-04-18T09:15:07.001Z</time></trkpt><trkpt lat="43.41066209842704" lon="10.938883985642859"><ele>397.0</ele><time>2026-04-18T09:15:08.001Z</time></trkpt><trkpt lat="43.41064846969428" lon="10.938762213146696"><ele>396.0</ele><time>2026-04-18T09:15:09.001Z</time></trkpt><trkpt lat="43.410615927146935" lon="10.938612695614712"><ele>395.0</ele><time>2026-04-18T09:15:10.001Z</time></trkpt><trkpt lat="43.41054939278153" lon="10.938458542444359"><ele>394.0</ele><time>2026-04-18T09:15:11.001Z</time></trkpt><trkpt lat="43.41050074235163" lon="10.938328477525236"><ele>393.0</ele><time>2026-04-18T09:15:12.001Z</time></trkpt><trkpt lat="43.41045404006281" lon="10.938218786430957"><ele>392.0</ele><time>2026-04-18T09:15:13.001Z</time></trkpt><trkpt lat="43.41040580022809" lon="10.938127478364647"><ele>390.75</ele><time>2026-04-18T09:15:14.001Z</time></trkpt><trkpt lat="43.410272796786046" lon="10.938062841061752"><ele>389.5</ele><time>2026-04-18T09:15:16.001Z</time></trkpt><trkpt lat="43.41017536308222" lon="10.938011458943125"><ele>388.25</ele><time>2026-04-18T09:15:17.001Z</time></trkpt><trkpt lat="43.410071595885405" lon="10.93797290959048"><ele>387.0</ele><time>2026-04-18T09:15:18.001Z</time></trkpt><trkpt lat="43.40997466387199" lon="10.937937783059876"><ele>387.0</ele><time>2026-04-18T09:15:19.001Z</time></trkpt><trkpt lat="43.40988312467943" lon="10.937909784247955"><ele>387.0</ele><time>2026-04-18T09:15:20.001Z</time></trkpt><trkpt lat="43.40982694066587" lon="10.937840841096433"><ele>387.0</ele><time>2026-04-18T09:15:21.001Z</time></trkpt><trkpt lat="43.40978590837899" lon="10.937754062050347"><ele>387.0</ele><time>2026-04-18T09:15:22.001Z</time></trkpt><trkpt lat="43.409805239495036" lon="10.937652692241446"><ele>387.0</ele><time>2026-04-18T09:15:23.001Z</time></trkpt><trkpt lat="43.4098012344881" lon="10.937563700002153"><ele>387.0</ele><time>2026-04-18T09:15:24.001Z</time></trkpt><trkpt lat="43.40981554579123" lon="10.937441070097004"><ele>386.20000000000005</ele><time>2026-04-18T09:15:25.001Z</time></trkpt><trkpt lat="43.40980535148925" lon="10.937295588383668"><ele>385.4</ele><time>2026-04-18T09:15:26.001Z</time></trkpt><trkpt lat="43.40979594951335" lon="10.937147553330306"><ele>384.6</ele><time>2026-04-18T09:15:27.001Z</time></trkpt><trkpt lat="43.4098163782622" lon="10.93700996808728"><ele>383.79999999999995</ele><time>2026-04-18T09:15:28.001Z</time></trkpt><trkpt lat="43.40982373686326" lon="10.936903162439867"><ele>383.0</ele><time>2026-04-18T09:15:29.001Z</time></trkpt><trkpt lat="43.40981926904292" lon="10.936798847839913"><ele>381.59999999999997</ele><time>2026-04-18T09:15:30.001Z</time></trkpt><trkpt lat="43.40983595179824" lon="10.936694155983218"><ele>380.2</ele><time>2026-04-18T09:15:31.001Z</time></trkpt><trkpt lat="43.409842635951115" lon="10.936594848710335"><ele>378.8</ele><time>2026-04-18T09:15:32.001Z</time></trkpt><trkpt lat="43.409827277925324" lon="10.936503620257072"><ele>377.4</ele><time>2026-04-18T09:15:33.001Z</time></trkpt><trkpt lat="43.40974527550917" lon="10.93631530344382"><ele>376.0</ele><time>2026-04-18T09:15:35.001Z</time></trkpt><trkpt lat="43.40966938592123" lon="10.93620441628164"><ele>375.75</ele><time>2026-04-18T09:15:36.001Z</time></trkpt><trkpt lat="43.4095878727384" lon="10.936117989529327"><ele>375.5</ele><time>2026-04-18T09:15:37.001Z</time></trkpt><trkpt lat="43.40950731563767" lon="10.935997450459444"><ele>375.25</ele><time>2026-04-18T09:15:38.001Z</time></trkpt><trkpt lat="43.40941370448462" lon="10.935894783089058"><ele>375.0</ele><time>2026-04-18T09:15:39.001Z</time></trkpt><trkpt lat="43.409310014960376" lon="10.935779413401086"><ele>374.75</ele><time>2026-04-18T09:15:40.001Z</time></trkpt><trkpt lat="43.40918554289858" lon="10.93566981018488"><ele>374.5</ele><time>2026-04-18T09:15:41.001Z</time></trkpt><trkpt lat="43.40909463643256" lon="10.935575485999546"><ele>374.25</ele><time>2026-04-18T09:15:42.001Z</time></trkpt><trkpt lat="43.40902004913616" lon="10.935502637837379"><ele>374.0</ele><time>2026-04-18T09:15:43.001Z</time></trkpt><trkpt lat="43.40893766082456" lon="10.935418381459426"><ele>374.0</ele><time>2026-04-18T09:15:44.001Z</time></trkpt><trkpt lat="43.40887024968389" lon="10.935327215613981"><ele>374.0</ele><time>2026-04-18T09:15:45.001Z</time></trkpt><trkpt lat="43.408819091725356" lon="10.935227431460584"><ele>374.0</ele><time>2026-04-18T09:15:46.001Z</time></trkpt><trkpt lat="43.40877341006158" lon="10.93511956452562"><ele>374.0</ele><time>2026-04-18T09:15:47.001Z</time></trkpt><trkpt lat="43.40872562183379" lon="10.934998397713695"><ele>374.0</ele><time>2026-04-18T09:15:48.001Z</time></trkpt><trkpt lat="43.40869522234173" lon="10.934838600168915"><ele>372.25</ele><time>2026-04-18T09:15:49.001Z</time></trkpt><trkpt lat="43.40866869939252" lon="10.934670117764597"><ele>370.5</ele><time>2026-04-18T09:15:50.001Z</time></trkpt><trkpt lat="43.40866880050552" lon="10.934496233171835"><ele>368.75</ele><time>2026-04-18T09:15:51.001Z</time></trkpt><trkpt lat="43.40863791432903" lon="10.934333083685049"><ele>367.0</ele><time>2026-04-18T09:15:52.001Z</time></trkpt><trkpt lat="43.40862720659864" lon="10.934169697680117"><ele>367.0</ele><time>2026-04-18T09:15:53.001Z</time></trkpt><trkpt lat="43.40860584655948" lon="10.93398679645505"><ele>367.0</ele><time>2026-04-18T09:15:54.001Z</time></trkpt><trkpt lat="43.40857981920705" lon="10.933799381973655"><ele>367.0</ele><time>2026-04-18T09:15:55.001Z</time></trkpt><trkpt lat="43.408550748765904" lon="10.933610024572019"><ele>367.0</ele><time>2026-04-18T09:15:56.001Z</time></trkpt><trkpt lat="43.408524391769795" lon="10.933414131310535"><ele>367.0</ele><time>2026-04-18T09:15:57.001Z</time></trkpt><trkpt lat="43.4084955471396" lon="10.93322846087592"><ele>367.0</ele><time>2026-04-18T09:15:58.001Z</time></trkpt><trkpt lat="43.40846076286103" lon="10.933058821442252"><ele>367.0</ele><time>2026-04-18T09:15:59.001Z</time></trkpt><trkpt lat="43.408407377264965" lon="10.93289401852476"><ele>367.0</ele><time>2026-04-18T09:16:00.001Z</time></trkpt><trkpt lat="43.40834115928166" lon="10.932724640560235"><ele>367.0</ele><time>2026-04-18T09:16:01.001Z</time></trkpt><trkpt lat="43.40826451058753" lon="10.932564753986952"><ele>367.0</ele><time>2026-04-18T09:16:02.001Z</time></trkpt><trkpt lat="43.4082119747989" lon="10.932393516404115"><ele>367.0</ele><time>2026-04-18T09:16:03.001Z</time></trkpt><trkpt lat="43.40815480076194" lon="10.932240666393774"><ele>367.0</ele><time>2026-04-18T09:16:04.001Z</time></trkpt><trkpt lat="43.40809684269667" lon="10.93208572091432"><ele>366.75</ele><time>2026-04-18T09:16:05.001Z</time></trkpt><trkpt lat="43.40801885197336" lon="10.931927255172122"><ele>366.5</ele><time>2026-04-18T09:16:06.001Z</time></trkpt><trkpt lat="43.40797316276447" lon="10.931752877225806"><ele>366.25</ele><time>2026-04-18T09:16:07.001Z</time></trkpt><trkpt lat="43.40791809916279" lon="10.931585019754616"><ele>366.0</ele><time>2026-04-18T09:16:08.001Z</time></trkpt><trkpt lat="43.40784409485057" lon="10.931420799657314"><ele>366.0</ele><time>2026-04-18T09:16:09.001Z</time></trkpt><trkpt lat="43.407767471893756" lon="10.93128454362886"><ele>366.0</ele><time>2026-04-18T09:16:10.001Z</time></trkpt><trkpt lat="43.407687935480276" lon="10.931139441263761"><ele>366.0</ele><time>2026-04-18T09:16:11.001Z</time></trkpt><trkpt lat="43.40760632505749" lon="10.930994511283501"><ele>366.0</ele><time>2026-04-18T09:16:12.001Z</time></trkpt><trkpt lat="43.40753213260434" lon="10.930838273687595"><ele>367.0</ele><time>2026-04-18T09:16:13.001Z</time></trkpt><trkpt lat="43.407466352788155" lon="10.930708099140455"><ele>368.0</ele><time>2026-04-18T09:16:14.001Z</time></trkpt><trkpt lat="43.40740485750318" lon="10.930592928844318"><ele>369.0</ele><time>2026-04-18T09:16:15.001Z</time></trkpt><trkpt lat="43.40737360666549" lon="10.930470062978191"><ele>370.0</ele><time>2026-04-18T09:16:16.001Z</time></trkpt><trkpt lat="43.40735321263403" lon="10.930346475620354"><ele>371.0</ele><time>2026-04-18T09:16:17.001Z</time></trkpt><trkpt lat="43.40734643912107" lon="10.930213195684038"><ele>371.0</ele><time>2026-04-18T09:16:18.001Z</time></trkpt><trkpt lat="43.40734628867435" lon="10.930051082088509"><ele>371.0</ele><time>2026-04-18T09:16:19.001Z</time></trkpt><trkpt lat="43.40736347359223" lon="10.9298566051532"><ele>371.0</ele><time>2026-04-18T09:16:20.001Z</time></trkpt><trkpt lat="43.40735338663418" lon="10.92964054648604"><ele>371.0</ele><time>2026-04-18T09:16:21.001Z</time></trkpt><trkpt lat="43.4073426042147" lon="10.929424632353589"><ele>370.5</ele><time>2026-04-18T09:16:22.001Z</time></trkpt><trkpt lat="43.40734806636792" lon="10.929217237768299"><ele>370.0</ele><time>2026-04-18T09:16:23.001Z</time></trkpt><trkpt lat="43.407343633578535" lon="10.92900484491295"><ele>369.5</ele><time>2026-04-18T09:16:24.001Z</time></trkpt><trkpt lat="43.40733614312776" lon="10.92882877035682"><ele>369.0</ele><time>2026-04-18T09:16:25.001Z</time></trkpt><trkpt lat="43.407313978031695" lon="10.928654291621228"><ele>369.0</ele><time>2026-04-18T09:16:26.001Z</time></trkpt><trkpt lat="43.407266275661954" lon="10.928497351831398"><ele>369.0</ele><time>2026-04-18T09:16:27.001Z</time></trkpt><trkpt lat="43.40721832188719" lon="10.92838908554826"><ele>369.0</ele><time>2026-04-18T09:16:28.001Z</time></trkpt><trkpt lat="43.40716774507636" lon="10.928275942773649"><ele>369.0</ele><time>2026-04-18T09:16:29.001Z</time></trkpt><trkpt lat="43.407066307278676" lon="10.928198619817673"><ele>369.0</ele><time>2026-04-18T09:16:30.001Z</time></trkpt><trkpt lat="43.40697289764466" lon="10.928099714417275"><ele>368.25</ele><time>2026-04-18T09:16:31.001Z</time></trkpt><trkpt lat="43.40688146661482" lon="10.927984875786239"><ele>367.5</ele><time>2026-04-18T09:16:32.001Z</time></trkpt><trkpt lat="43.40678959159873" lon="10.927871526765509"><ele>366.75</ele><time>2026-04-18T09:16:33.001Z</time></trkpt><trkpt lat="43.40671101303473" lon="10.927779621018436"><ele>366.0</ele><time>2026-04-18T09:16:34.001Z</time></trkpt><trkpt lat="43.40664128849364" lon="10.927681582127583"><ele>368.5</ele><time>2026-04-18T09:16:35.001Z</time></trkpt><trkpt lat="43.40661861497989" lon="10.927551472562715"><ele>371.0</ele><time>2026-04-18T09:16:36.001Z</time></trkpt><trkpt lat="43.40658689530149" lon="10.927402665719113"><ele>373.5</ele><time>2026-04-18T09:16:37.001Z</time></trkpt><trkpt lat="43.40653281117322" lon="10.92724154625481"><ele>376.0</ele><time>2026-04-18T09:16:38.001Z</time></trkpt><trkpt lat="43.40649322565524" lon="10.927069681156254"><ele>376.0</ele><time>2026-04-18T09:16:39.001Z</time></trkpt><trkpt lat="43.40642852259677" lon="10.92690481534654"><ele>376.0</ele><time>2026-04-18T09:16:40.001Z</time></trkpt><trkpt lat="43.406352791131646" lon="10.926751373793545"><ele>376.0</ele><time>2026-04-18T09:16:41.001Z</time></trkpt><trkpt lat="43.40628337627745" lon="10.926598777070426"><ele>376.0</ele><time>2026-04-18T09:16:42.001Z</time></trkpt><trkpt lat="43.40616907277798" lon="10.926500095858795"><ele>376.5</ele><time>2026-04-18T09:16:43.001Z</time></trkpt><trkpt lat="43.406063306043166" lon="10.926376075066875"><ele>377.0</ele><time>2026-04-18T09:16:44.001Z</time></trkpt><trkpt lat="43.405965044479366" lon="10.926267934802215"><ele>377.5</ele><time>2026-04-18T09:16:45.001Z</time></trkpt><trkpt lat="43.40585770760551" lon="10.926137831421194"><ele>378.0</ele><time>2026-04-18T09:16:46.001Z</time></trkpt><trkpt lat="43.40574787934301" lon="10.925983072480543"><ele>378.6666666666667</ele><time>2026-04-18T09:16:47.001Z</time></trkpt><trkpt lat="43.40563644824707" lon="10.925836575647011"><ele>379.33333333333337</ele><time>2026-04-18T09:16:48.001Z</time></trkpt><trkpt lat="43.40553055823385" lon="10.925670526707718"><ele>380.0</ele><time>2026-04-18T09:16:49.001Z</time></trkpt><trkpt lat="43.40538739679282" lon="10.925448888136808"><ele>379.6666666666667</ele><time>2026-04-18T09:16:50.001Z</time></trkpt><trkpt lat="43.40522431430978" lon="10.925250969668761"><ele>379.3333333333333</ele><time>2026-04-18T09:16:51.001Z</time></trkpt><trkpt lat="43.40505947049027" lon="10.925118461555579"><ele>379.0</ele><time>2026-04-18T09:16:52.001Z</time></trkpt><trkpt lat="43.40490817014501" lon="10.924983229863713"><ele>379.0</ele><time>2026-04-18T09:16:53.001Z</time></trkpt><trkpt lat="43.40474464988232" lon="10.92482084235904"><ele>379.0</ele><time>2026-04-18T09:16:54.001Z</time></trkpt><trkpt lat="43.40457607249333" lon="10.924690861814458"><ele>379.0</ele><time>2026-04-18T09:16:55.001Z</time></trkpt><trkpt lat="43.404411376370255" lon="10.924532436337067"><ele>379.3333333333333</ele><time>2026-04-18T09:16:56.001Z</time></trkpt><trkpt lat="43.40425505057837" lon="10.924345177273745"><ele>379.6666666666667</ele><time>2026-04-18T09:16:57.001Z</time></trkpt><trkpt lat="43.404095870468716" lon="10.924168275645844"><ele>380.0</ele><time>2026-04-18T09:16:58.001Z</time></trkpt><trkpt lat="43.40395906764195" lon="10.924011469631697"><ele>380.0</ele><time>2026-04-18T09:16:59.001Z</time></trkpt><trkpt lat="43.403846228710485" lon="10.923871396557873"><ele>380.0</ele><time>2026-04-18T09:17:00.001Z</time></trkpt><trkpt lat="43.4037399965731" lon="10.923724190852088"><ele>380.0</ele><time>2026-04-18T09:17:01.001Z</time></trkpt><trkpt lat="43.4036376989244" lon="10.923590728497231"><ele>380.0</ele><time>2026-04-18T09:17:02.001Z</time></trkpt><trkpt lat="43.403579962413794" lon="10.923417822110535"><ele>380.25</ele><time>2026-04-18T09:17:03.001Z</time></trkpt><trkpt lat="43.403543499822746" lon="10.923242594273598"><ele>380.5</ele><time>2026-04-18T09:17:04.001Z</time></trkpt><trkpt lat="43.4034959248013" lon="10.923037430647318"><ele>380.75</ele><time>2026-04-18T09:17:05.001Z</time></trkpt><trkpt lat="43.403443500917675" lon="10.922832382472915"><ele>381.0</ele><time>2026-04-18T09:17:06.001Z</time></trkpt><trkpt lat="43.40337075379168" lon="10.922649784159681"><ele>379.75</ele><time>2026-04-18T09:17:07.001Z</time></trkpt><trkpt lat="43.40333246202358" lon="10.922467910511896"><ele>378.5</ele><time>2026-04-18T09:17:08.001Z</time></trkpt><trkpt lat="43.403281444863566" lon="10.922285115260692"><ele>377.25</ele><time>2026-04-18T09:17:09.001Z</time></trkpt><trkpt lat="43.403231969057266" lon="10.922099444782415"><ele>376.0</ele><time>2026-04-18T09:17:10.001Z</time></trkpt><trkpt lat="43.403190237893554" lon="10.921920915512015"><ele>376.0</ele><time>2026-04-18T09:17:11.001Z</time></trkpt><trkpt lat="43.40315097799283" lon="10.921746303945298"><ele>376.0</ele><time>2026-04-18T09:17:12.001Z</time></trkpt><trkpt lat="43.403102348955805" lon="10.921585665140196"><ele>376.0</ele><time>2026-04-18T09:17:13.001Z</time></trkpt><trkpt lat="43.40307286764395" lon="10.921424291077216"><ele>376.0</ele><time>2026-04-18T09:17:14.001Z</time></trkpt><trkpt lat="43.40305798166054" lon="10.921266132935505"><ele>375.0</ele><time>2026-04-18T09:17:15.001Z</time></trkpt><trkpt lat="43.40308779743611" lon="10.921113597341938"><ele>374.0</ele><time>2026-04-18T09:17:16.001Z</time></trkpt><trkpt lat="43.403101600243" lon="10.920951932518014"><ele>373.0</ele><time>2026-04-18T09:17:17.001Z</time></trkpt><trkpt lat="43.40315813167807" lon="10.920782398367347"><ele>372.0</ele><time>2026-04-18T09:17:18.001Z</time></trkpt><trkpt lat="43.4032314163192" lon="10.920608874858221"><ele>371.0</ele><time>2026-04-18T09:17:19.001Z</time></trkpt><trkpt lat="43.403300209493025" lon="10.92043991191913"><ele>370.0</ele><time>2026-04-18T09:17:20.001Z</time></trkpt><trkpt lat="43.40336196983395" lon="10.920288080806582"><ele>369.0</ele><time>2026-04-18T09:17:21.001Z</time></trkpt><trkpt lat="43.40342712941183" lon="10.920150972694264"><ele>368.0</ele><time>2026-04-18T09:17:22.001Z</time></trkpt><trkpt lat="43.40347621594519" lon="10.919987757285242"><ele>367.5</ele><time>2026-04-18T09:17:23.001Z</time></trkpt><trkpt lat="43.40353564469228" lon="10.919807425631554"><ele>367.0</ele><time>2026-04-18T09:17:24.001Z</time></trkpt><trkpt lat="43.40359497041665" lon="10.919618195249749"><ele>366.5</ele><time>2026-04-18T09:17:25.001Z</time></trkpt><trkpt lat="43.40364496599883" lon="10.919421699706398"><ele>366.0</ele><time>2026-04-18T09:17:26.001Z</time></trkpt><trkpt lat="43.40368905621676" lon="10.919223029068435"><ele>365.0</ele><time>2026-04-18T09:17:27.001Z</time></trkpt><trkpt lat="43.403727560843826" lon="10.919023997967962"><ele>364.0</ele><time>2026-04-18T09:17:28.001Z</time></trkpt><trkpt lat="43.403757974293924" lon="10.918846050611204"><ele>363.0</ele><time>2026-04-18T09:17:29.001Z</time></trkpt><trkpt lat="43.40376621827667" lon="10.918663915223732"><ele>362.0</ele><time>2026-04-18T09:17:30.001Z</time></trkpt><trkpt lat="43.40376631084484" lon="10.91850634615985"><ele>360.5</ele><time>2026-04-18T09:17:31.001Z</time></trkpt><trkpt lat="43.403758194106864" lon="10.918346406305703"><ele>359.0</ele><time>2026-04-18T09:17:32.001Z</time></trkpt><trkpt lat="43.403723559592216" lon="10.918203907624694"><ele>357.5</ele><time>2026-04-18T09:17:33.001Z</time></trkpt><trkpt lat="43.40366651166838" lon="10.918065530785533"><ele>356.0</ele><time>2026-04-18T09:17:34.001Z</time></trkpt><trkpt lat="43.40359976066705" lon="10.917935957196393"><ele>356.0</ele><time>2026-04-18T09:17:35.001Z</time></trkpt><trkpt lat="43.4035246140515" lon="10.917808548695193"><ele>356.0</ele><time>2026-04-18T09:17:36.001Z</time></trkpt><trkpt lat="43.40346502398834" lon="10.91768464903918"><ele>356.0</ele><time>2026-04-18T09:17:37.001Z</time></trkpt><trkpt lat="43.40341950648001" lon="10.917558101087035"><ele>356.0</ele><time>2026-04-18T09:17:38.001Z</time></trkpt><trkpt lat="43.403372770089604" lon="10.917439918089624"><ele>356.0</ele><time>2026-04-18T09:17:39.001Z</time></trkpt><trkpt lat="43.40335089128353" lon="10.91727888267654"><ele>354.6</ele><time>2026-04-18T09:17:40.001Z</time></trkpt><trkpt lat="43.40333592372359" lon="10.917124589634941"><ele>353.20000000000005</ele><time>2026-04-18T09:17:41.001Z</time></trkpt><trkpt lat="43.403309381743455" lon="10.916990388877178"><ele>351.79999999999995</ele><time>2026-04-18T09:17:42.001Z</time></trkpt><trkpt lat="43.40326946747353" lon="10.916865353259224"><ele>350.4</ele><time>2026-04-18T09:17:43.001Z</time></trkpt><trkpt lat="43.40321169479716" lon="10.916760709162796"><ele>349.0</ele><time>2026-04-18T09:17:44.001Z</time></trkpt><trkpt lat="43.40313378610308" lon="10.916656671054529"><ele>348.75</ele><time>2026-04-18T09:17:45.001Z</time></trkpt><trkpt lat="43.403055064662134" lon="10.916557711003335"><ele>348.5</ele><time>2026-04-18T09:17:46.001Z</time></trkpt><trkpt lat="43.40296817034575" lon="10.916452146451148"><ele>348.25</ele><time>2026-04-18T09:17:47.001Z</time></trkpt><trkpt lat="43.402869060224695" lon="10.9163292244609"><ele>348.0</ele><time>2026-04-18T09:17:48.001Z</time></trkpt><trkpt lat="43.40276264762663" lon="10.916216478136793"><ele>348.0</ele><time>2026-04-18T09:17:49.001Z</time></trkpt><trkpt lat="43.40264430898669" lon="10.916099934253957"><ele>348.0</ele><time>2026-04-18T09:17:50.001Z</time></trkpt><trkpt lat="43.402532931507004" lon="10.91599026724949"><ele>348.0</ele><time>2026-04-18T09:17:51.001Z</time></trkpt><trkpt lat="43.40243220852466" lon="10.9159009728407"><ele>348.0</ele><time>2026-04-18T09:17:52.001Z</time></trkpt><trkpt lat="43.40234500129853" lon="10.915821475809436"><ele>346.0</ele><time>2026-04-18T09:17:53.001Z</time></trkpt><trkpt lat="43.40226964376276" lon="10.91574690667046"><ele>344.0</ele><time>2026-04-18T09:17:54.001Z</time></trkpt><trkpt lat="43.402190630103995" lon="10.915626150393914"><ele>342.0</ele><time>2026-04-18T09:17:55.001Z</time></trkpt><trkpt lat="43.40228103649245" lon="10.91552232948912"><ele>340.0</ele><time>2026-04-18T09:17:58.001Z</time></trkpt><trkpt lat="43.40236997592638" lon="10.91552366647486"><ele>338.0</ele><time>2026-04-18T09:17:59.001Z</time></trkpt><trkpt lat="43.402476163484046" lon="10.915416713299606"><ele>338.0</ele><time>2026-04-18T09:18:02.001Z</time></trkpt><trkpt lat="43.40257265949582" lon="10.915367133929688"><ele>338.0</ele><time>2026-04-18T09:18:03.001Z</time></trkpt><trkpt lat="43.40264816135731" lon="10.915297636093323"><ele>338.0</ele><time>2026-04-18T09:18:04.001Z</time></trkpt><trkpt lat="43.402713985213786" lon="10.915204116551111"><ele>338.0</ele><time>2026-04-18T09:18:05.001Z</time></trkpt><trkpt lat="43.402761964584016" lon="10.915081148944926"><ele>338.0</ele><time>2026-04-18T09:18:06.001Z</time></trkpt><trkpt lat="43.402795708623685" lon="10.914927315179204"><ele>335.5</ele><time>2026-04-18T09:18:07.001Z</time></trkpt><trkpt lat="43.402821540713234" lon="10.91475289614127"><ele>333.0</ele><time>2026-04-18T09:18:08.001Z</time></trkpt><trkpt lat="43.40285806888232" lon="10.914582173193374"><ele>330.5</ele><time>2026-04-18T09:18:09.001Z</time></trkpt><trkpt lat="43.402901773551584" lon="10.914391681165426"><ele>328.0</ele><time>2026-04-18T09:18:10.001Z</time></trkpt><trkpt lat="43.402938570858545" lon="10.914182931251053"><ele>326.0</ele><time>2026-04-18T09:18:11.001Z</time></trkpt><trkpt lat="43.40296916199058" lon="10.91396302450057"><ele>324.0</ele><time>2026-04-18T09:18:12.001Z</time></trkpt><trkpt lat="43.40299547192504" lon="10.91374764229611"><ele>322.0</ele><time>2026-04-18T09:18:13.001Z</time></trkpt><trkpt lat="43.40301437014647" lon="10.913516414564352"><ele>321.3333333333333</ele><time>2026-04-18T09:18:14.001Z</time></trkpt><trkpt lat="43.40301979791224" lon="10.91328401663837"><ele>320.6666666666667</ele><time>2026-04-18T09:18:15.001Z</time></trkpt><trkpt lat="43.40301554877621" lon="10.913028591076198"><ele>320.0</ele><time>2026-04-18T09:18:16.001Z</time></trkpt><trkpt lat="43.40299272112552" lon="10.912763883369234"><ele>321.0</ele><time>2026-04-18T09:18:17.001Z</time></trkpt><trkpt lat="43.40295568316032" lon="10.912495190115663"><ele>322.0</ele><time>2026-04-18T09:18:18.001Z</time></trkpt><trkpt lat="43.4029170699963" lon="10.912227846520988"><ele>323.0</ele><time>2026-04-18T09:18:19.001Z</time></trkpt><trkpt lat="43.40288740270939" lon="10.911954374793755"><ele>325.0</ele><time>2026-04-18T09:18:20.001Z</time></trkpt><trkpt lat="43.40285668225023" lon="10.911679082950009"><ele>327.0</ele><time>2026-04-18T09:18:21.001Z</time></trkpt><trkpt lat="43.402819554317865" lon="10.911402098738257"><ele>329.0</ele><time>2026-04-18T09:18:22.001Z</time></trkpt><trkpt lat="43.402802615565946" lon="10.911127410223171"><ele>331.0</ele><time>2026-04-18T09:18:23.001Z</time></trkpt><trkpt lat="43.402765388111554" lon="10.910872839976305"><ele>333.0</ele><time>2026-04-18T09:18:24.001Z</time></trkpt><trkpt lat="43.40272167480953" lon="10.910649371786997"><ele>335.0</ele><time>2026-04-18T09:18:25.001Z</time></trkpt><trkpt lat="43.402654452536936" lon="10.910459353280713"><ele>335.0</ele><time>2026-04-18T09:18:26.001Z</time></trkpt><trkpt lat="43.40257850945661" lon="10.910278558912891"><ele>335.0</ele><time>2026-04-18T09:18:27.001Z</time></trkpt><trkpt lat="43.402494577923036" lon="10.91009430304825"><ele>335.0</ele><time>2026-04-18T09:18:28.001Z</time></trkpt><trkpt lat="43.40242090094054" lon="10.909903295990658"><ele>337.6666666666667</ele><time>2026-04-18T09:18:29.001Z</time></trkpt><trkpt lat="43.40234821867015" lon="10.909708394337486"><ele>340.3333333333333</ele><time>2026-04-18T09:18:30.001Z</time></trkpt><trkpt lat="43.4022710815421" lon="10.909502846520567"><ele>343.0</ele><time>2026-04-18T09:18:31.001Z</time></trkpt><trkpt lat="43.40219265057126" lon="10.909288169288184"><ele>343.75</ele><time>2026-04-18T09:18:32.001Z</time></trkpt><trkpt lat="43.402110977339504" lon="10.909076751878718"><ele>344.5</ele><time>2026-04-18T09:18:33.001Z</time></trkpt><trkpt lat="43.40204970962961" lon="10.908900545342062"><ele>345.25</ele><time>2026-04-18T09:18:34.001Z</time></trkpt><trkpt lat="43.40200154111654" lon="10.908748956172976"><ele>346.0</ele><time>2026-04-18T09:18:35Z</time></trkpt><trkpt lat="43.40194944261214" lon="10.908620265649521"><ele>346.0</ele><time>2026-04-18T09:18:36Z</time></trkpt><trkpt lat="43.40189117581289" lon="10.908535115330343"><ele>346.0</ele><time>2026-04-18T09:18:37Z</time></trkpt><trkpt lat="43.40183672845865" lon="10.908487073750818"><ele>346.0</ele><time>2026-04-18T09:18:38Z</time></trkpt><trkpt lat="43.40176673351107" lon="10.90846656035146"><ele>346.0</ele><time>2026-04-18T09:18:39Z</time></trkpt><trkpt lat="43.40168349293545" lon="10.908461618450245"><ele>346.0</ele><time>2026-04-18T09:18:40Z</time></trkpt><trkpt lat="43.4015991401843" lon="10.908471604204005"><ele>346.0</ele><time>2026-04-18T09:18:41Z</time></trkpt><trkpt lat="43.401491357364634" lon="10.908495530794555"><ele>346.0</ele><time>2026-04-18T09:18:42Z</time></trkpt><trkpt lat="43.40137612136176" lon="10.908522629705777"><ele>346.0</ele><time>2026-04-18T09:18:43Z</time></trkpt><trkpt lat="43.40123481456915" lon="10.908538180902697"><ele>346.0</ele><time>2026-04-18T09:18:44Z</time></trkpt><trkpt lat="43.401084459304336" lon="10.908546978441914"><ele>346.0</ele><time>2026-04-18T09:18:45Z</time></trkpt><trkpt lat="43.40093178207946" lon="10.908555831865515"><ele>346.0</ele><time>2026-04-18T09:18:46Z</time></trkpt><trkpt lat="43.400776621919" lon="10.908582394101222"><ele>346.0</ele><time>2026-04-18T09:18:47Z</time></trkpt><trkpt lat="43.40064968703049" lon="10.908592426968898"><ele>346.0</ele><time>2026-04-18T09:18:48Z</time></trkpt><trkpt lat="43.40053240582182" lon="10.90860377316543"><ele>346.0</ele><time>2026-04-18T09:18:49Z</time></trkpt><trkpt lat="43.40042836887513" lon="10.908614092433622"><ele>346.3333333333333</ele><time>2026-04-18T09:18:50Z</time></trkpt><trkpt lat="43.400328254871305" lon="10.90862552574629"><ele>346.66666666666663</ele><time>2026-04-18T09:18:51Z</time></trkpt><trkpt lat="43.400249936050876" lon="10.908622173962353"><ele>347.0</ele><time>2026-04-18T09:18:52Z</time></trkpt><trkpt lat="43.40017987674077" lon="10.908600736600247"><ele>347.3333333333333</ele><time>2026-04-18T09:18:53Z</time></trkpt><trkpt lat="43.40016663368208" lon="10.908460229636269"><ele>347.6666666666667</ele><time>2026-04-18T09:18:55Z</time></trkpt><trkpt lat="43.400144854126815" lon="10.908377377891993"><ele>348.0</ele><time>2026-04-18T09:18:56Z</time></trkpt><trkpt lat="43.40011116094408" lon="10.908271723504923"><ele>348.59999999999997</ele><time>2026-04-18T09:18:57Z</time></trkpt><trkpt lat="43.400049367273155" lon="10.908169795601015"><ele>349.2</ele><time>2026-04-18T09:18:58Z</time></trkpt><trkpt lat="43.400002241086" lon="10.90806934204763"><ele>349.8</ele><time>2026-04-18T09:18:59Z</time></trkpt><trkpt lat="43.399962869110546" lon="10.907945774287285"><ele>350.4</ele><time>2026-04-18T09:19:00Z</time></trkpt><trkpt lat="43.39995359826287" lon="10.90782831638235"><ele>351.0</ele><time>2026-04-18T09:19:01Z</time></trkpt><trkpt lat="43.39999517568527" lon="10.907712140166305"><ele>351.0</ele><time>2026-04-18T09:19:02Z</time></trkpt><trkpt lat="43.40001962116596" lon="10.907577361578209"><ele>351.0</ele><time>2026-04-18T09:19:03Z</time></trkpt><trkpt lat="43.40003634373354" lon="10.907425439012666"><ele>351.0</ele><time>2026-04-18T09:19:04Z</time></trkpt><trkpt lat="43.40006648622096" lon="10.907283333529216"><ele>351.0</ele><time>2026-04-18T09:19:05Z</time></trkpt><trkpt lat="43.400106911354825" lon="10.907137106280025"><ele>351.0</ele><time>2026-04-18T09:19:06Z</time></trkpt><trkpt lat="43.400144134330134" lon="10.906991900914582"><ele>349.6</ele><time>2026-04-18T09:19:07Z</time></trkpt><trkpt lat="43.40017702862439" lon="10.906847207632646"><ele>348.20000000000005</ele><time>2026-04-18T09:19:08Z</time></trkpt><trkpt lat="43.400209304374506" lon="10.906713855796696"><ele>346.79999999999995</ele><time>2026-04-18T09:19:09Z</time></trkpt><trkpt lat="43.40024503852729" lon="10.90660353095638"><ele>345.4</ele><time>2026-04-18T09:19:10Z</time></trkpt><trkpt lat="43.400278888187145" lon="10.906481736295461"><ele>344.0</ele><time>2026-04-18T09:19:11Z</time></trkpt><trkpt lat="43.40028601106388" lon="10.90633967011007"><ele>343.4</ele><time>2026-04-18T09:19:12Z</time></trkpt><trkpt lat="43.40027937053584" lon="10.906198350538213"><ele>342.79999999999995</ele><time>2026-04-18T09:19:13Z</time></trkpt><trkpt lat="43.400249276297345" lon="10.90605784632057"><ele>342.20000000000005</ele><time>2026-04-18T09:19:14Z</time></trkpt><trkpt lat="43.40020162568477" lon="10.905923630950486"><ele>341.6</ele><time>2026-04-18T09:19:15.001Z</time></trkpt><trkpt lat="43.40013902605517" lon="10.905785141416347"><ele>341.0</ele><time>2026-04-18T09:19:16.001Z</time></trkpt><trkpt lat="43.40006462749844" lon="10.905649850913916"><ele>341.0</ele><time>2026-04-18T09:19:17.001Z</time></trkpt><trkpt lat="43.39999405745779" lon="10.905503438376995"><ele>341.0</ele><time>2026-04-18T09:19:18.001Z</time></trkpt><trkpt lat="43.39991836629786" lon="10.905358984683042"><ele>341.0</ele><time>2026-04-18T09:19:19.001Z</time></trkpt><trkpt lat="43.399873475423355" lon="10.905192661263493"><ele>341.0</ele><time>2026-04-18T09:19:20.001Z</time></trkpt><trkpt lat="43.39983499221034" lon="10.905094002491198"><ele>342.8</ele><time>2026-04-18T09:19:21.001Z</time></trkpt><trkpt lat="43.399819978619036" lon="10.9050020558612"><ele>344.6</ele><time>2026-04-18T09:19:22.001Z</time></trkpt><trkpt lat="43.39971238305925" lon="10.904902305070566"><ele>346.4</ele><time>2026-04-18T09:19:26.001Z</time></trkpt><trkpt lat="43.39963839635426" lon="10.90504132390256"><ele>348.2</ele><time>2026-04-18T09:19:28.001Z</time></trkpt><trkpt lat="43.39962103387159" lon="10.90514387233921"><ele>350.0</ele><time>2026-04-18T09:19:29.001Z</time></trkpt><trkpt lat="43.39962849785578" lon="10.905237685986288"><ele>348.2</ele><time>2026-04-18T09:19:30.001Z</time></trkpt><trkpt lat="43.399658559151845" lon="10.905325401525024"><ele>346.4</ele><time>2026-04-18T09:19:31.001Z</time></trkpt><trkpt lat="43.399690299869484" lon="10.905418326943783"><ele>344.6</ele><time>2026-04-18T09:19:32.001Z</time></trkpt><trkpt lat="43.39971016383158" lon="10.905556497283968"><ele>342.8</ele><time>2026-04-18T09:19:34.001Z</time></trkpt><trkpt lat="43.39965942124059" lon="10.905640061675436"><ele>341.0</ele><time>2026-04-18T09:19:36.001Z</time></trkpt><trkpt lat="43.39954974481855" lon="10.905533736780756"><ele>336.83333333333337</ele><time>2026-04-18T09:19:38.001Z</time></trkpt><trkpt lat="43.39949050406902" lon="10.905478147546006"><ele>332.6666666666667</ele><time>2026-04-18T09:19:39.001Z</time></trkpt><trkpt lat="43.39942968998666" lon="10.905387354143262"><ele>328.5</ele><time>2026-04-18T09:19:40.001Z</time></trkpt><trkpt lat="43.399422192513406" lon="10.905255276306177"><ele>324.3333333333333</ele><time>2026-04-18T09:19:41.001Z</time></trkpt><trkpt lat="43.39938448736881" lon="10.905139211921705"><ele>320.16666666666663</ele><time>2026-04-18T09:19:42.001Z</time></trkpt><trkpt lat="43.39935648794104" lon="10.90503321528988"><ele>316.0</ele><time>2026-04-18T09:19:43.001Z</time></trkpt><trkpt lat="43.39931809787081" lon="10.904948804832252"><ele>316.00000000000006</ele><time>2026-04-18T09:19:44.001Z</time></trkpt><trkpt lat="43.39928432752306" lon="10.904862613691236"><ele>316.0</ele><time>2026-04-18T09:19:45.001Z</time></trkpt><trkpt lat="43.399253487324536" lon="10.904780868960552"><ele>316.0</ele><time>2026-04-18T09:19:46.001Z</time></trkpt><trkpt lat="43.39924759252559" lon="10.904685366134425"><ele>316.0</ele><time>2026-04-18T09:19:47.001Z</time></trkpt><trkpt lat="43.39926489618047" lon="10.904589356122168"><ele>316.0</ele><time>2026-04-18T09:19:48.001Z</time></trkpt><trkpt lat="43.399330445365244" lon="10.904519434453954"><ele>316.00000000000006</ele><time>2026-04-18T09:19:49.001Z</time></trkpt><trkpt lat="43.39938969080017" lon="10.904464242537733"><ele>316.0</ele><time>2026-04-18T09:19:50.001Z</time></trkpt><trkpt lat="43.39946019298066" lon="10.904378443227337"><ele>316.0</ele><time>2026-04-18T09:19:51.001Z</time></trkpt><trkpt lat="43.39951621145083" lon="10.904299956364703"><ele>316.0</ele><time>2026-04-18T09:19:52.001Z</time></trkpt><trkpt lat="43.399554584274455" lon="10.904202891712888"><ele>316.0</ele><time>2026-04-18T09:19:53.001Z</time></trkpt><trkpt lat="43.39954739717915" lon="10.904042631228046"><ele>316.0</ele><time>2026-04-18T09:19:55.001Z</time></trkpt><trkpt lat="43.39946118077105" lon="10.90397620862299"><ele>316.0</ele><time>2026-04-18T09:19:57.001Z</time></trkpt><trkpt lat="43.39933427414555" lon="10.904032547672955"><ele>316.0</ele><time>2026-04-18T09:19:59.001Z</time></trkpt><trkpt lat="43.39926146418608" lon="10.904097663915682"><ele>316.0</ele><time>2026-04-18T09:20:00.001Z</time></trkpt><trkpt lat="43.39920777075617" lon="10.904161704369542"><ele>316.0</ele><time>2026-04-18T09:20:01.001Z</time></trkpt><trkpt lat="43.39915816705604" lon="10.904222411122484"><ele>316.0</ele><time>2026-04-18T09:20:02.001Z</time></trkpt><trkpt lat="43.39909853380306" lon="10.904297128337232"><ele>316.0</ele><time>2026-04-18T09:20:03.001Z</time></trkpt><trkpt lat="43.399033219538694" lon="10.904392011842555"><ele>316.0</ele><time>2026-04-18T09:20:04.001Z</time></trkpt><trkpt lat="43.398982442376386" lon="10.904501179688891"><ele>316.0</ele><time>2026-04-18T09:20:05.001Z</time></trkpt><trkpt lat="43.39893706627746" lon="10.904626570516065"><ele>316.0</ele><time>2026-04-18T09:20:06.001Z</time></trkpt><trkpt lat="43.398895944638696" lon="10.904770400309022"><ele>316.0</ele><time>2026-04-18T09:20:07.001Z</time></trkpt><trkpt lat="43.39884710922617" lon="10.904941888975081"><ele>316.0</ele><time>2026-04-18T09:20:08.001Z</time></trkpt><trkpt lat="43.39876466594139" lon="10.905106742332235"><ele>312.2</ele><time>2026-04-18T09:20:09.001Z</time></trkpt><trkpt lat="43.39869612072899" lon="10.905257736751874"><ele>308.40000000000003</ele><time>2026-04-18T09:20:10.001Z</time></trkpt><trkpt lat="43.39863978993669" lon="10.90538869375262"><ele>304.6</ele><time>2026-04-18T09:20:11.001Z</time></trkpt><trkpt lat="43.39858892107565" lon="10.905506952913813"><ele>300.8</ele><time>2026-04-18T09:20:12.001Z</time></trkpt><trkpt lat="43.39854667892543" lon="10.905602132521036"><ele>297.0</ele><time>2026-04-18T09:20:13.001Z</time></trkpt><trkpt lat="43.39850003459682" lon="10.905679335292824"><ele>297.0</ele><time>2026-04-18T09:20:14.001Z</time></trkpt><trkpt lat="43.39837507038593" lon="10.905695230294794"><ele>297.0</ele><time>2026-04-18T09:20:16.001Z</time></trkpt><trkpt lat="43.39832526586503" lon="10.905596338531684"><ele>297.0</ele><time>2026-04-18T09:20:17.001Z</time></trkpt><trkpt lat="43.398280739566" lon="10.90550491699831"><ele>297.0</ele><time>2026-04-18T09:20:18.001Z</time></trkpt><trkpt lat="43.39826295383062" lon="10.905386239912593"><ele>297.0</ele><time>2026-04-18T09:20:19.001Z</time></trkpt><trkpt lat="43.39823443922205" lon="10.905219005624804"><ele>296.25</ele><time>2026-04-18T09:20:20.001Z</time></trkpt><trkpt lat="43.398189954033036" lon="10.905069535209796"><ele>295.5</ele><time>2026-04-18T09:20:21.001Z</time></trkpt><trkpt lat="43.3981827210739" lon="10.904931837063861"><ele>294.75</ele><time>2026-04-18T09:20:22.001Z</time></trkpt><trkpt lat="43.398171115874135" lon="10.904823696281149"><ele>294.0</ele><time>2026-04-18T09:20:23.001Z</time></trkpt><trkpt lat="43.398212354660004" lon="10.904586446483638"><ele>294.0</ele><time>2026-04-18T09:20:25.001Z</time></trkpt><trkpt lat="43.398238872432884" lon="10.904450260075379"><ele>294.0</ele><time>2026-04-18T09:20:26.001Z</time></trkpt><trkpt lat="43.39826379012895" lon="10.90435744633359"><ele>294.0</ele><time>2026-04-18T09:20:27.001Z</time></trkpt><trkpt lat="43.39828610470414" lon="10.904273283636515"><ele>294.0</ele><time>2026-04-18T09:20:28.001Z</time></trkpt><trkpt lat="43.3982911622818" lon="10.904140437189664"><ele>294.0</ele><time>2026-04-18T09:20:30.001Z</time></trkpt><trkpt lat="43.39821482820979" lon="10.904098173153503"><ele>294.0</ele><time>2026-04-18T09:20:32.001Z</time></trkpt><trkpt lat="43.398106028738816" lon="10.904056687201454"><ele>288.3333333333333</ele><time>2026-04-18T09:20:34.001Z</time></trkpt><trkpt lat="43.3979456047965" lon="10.904383300299799"><ele>282.66666666666663</ele><time>2026-04-18T09:20:36.001Z</time></trkpt><trkpt lat="43.39788535086453" lon="10.904486383483858"><ele>277.0</ele><time>2026-04-18T09:20:37.001Z</time></trkpt><trkpt lat="43.39783790755527" lon="10.904600903289843"><ele>277.0</ele><time>2026-04-18T09:20:38.001Z</time></trkpt><trkpt lat="43.39778655053308" lon="10.904748394500208"><ele>277.0</ele><time>2026-04-18T09:20:39.001Z</time></trkpt><trkpt lat="43.39773199398701" lon="10.904909908274872"><ele>277.0</ele><time>2026-04-18T09:20:40Z</time></trkpt><trkpt lat="43.39767429711614" lon="10.9050618010086"><ele>277.0</ele><time>2026-04-18T09:20:41Z</time></trkpt><trkpt lat="43.3976283578629" lon="10.90518507425164"><ele>319.0</ele><time>2026-04-18T09:20:42Z</time></trkpt><trkpt lat="43.40301979791224" lon="10.91328401663837"><ele>319.0</ele><time>2026-04-18T09:18:15.001Z</time></trkpt><trkpt lat="43.40301554877621" lon="10.913028591076198"><ele>319.0</ele><time>2026-04-18T09:18:16.001Z</time></trkpt><trkpt lat="43.40299272112552" lon="10.912763883369234"><ele>319.0</ele><time>2026-04-18T09:18:17.001Z</time></trkpt><trkpt lat="43.40295568316032" lon="10.912495190115663"><ele>320.3333333333333</ele><time>2026-04-18T09:18:18.001Z</time></trkpt><trkpt lat="43.4029170699963" lon="10.912227846520988"><ele>321.6666666666667</ele><time>2026-04-18T09:18:19.001Z</time></trkpt><trkpt lat="43.40288740270939" lon="10.911954374793755"><ele>323.0</ele><time>2026-04-18T09:18:20.001Z</time></trkpt><trkpt lat="43.40285668225023" lon="10.911679082950009"><ele>325.0</ele><time>2026-04-18T09:18:21.001Z</time></trkpt><trkpt lat="43.402819554317865" lon="10.911402098738257"><ele>327.0</ele><time>2026-04-18T09:18:22.001Z</time></trkpt><trkpt lat="43.402802615565946" lon="10.911127410223171"><ele>329.0</ele><time>2026-04-18T09:18:23.001Z</time></trkpt><trkpt lat="43.402765388111554" lon="10.910872839976305"><ele>331.0</ele><time>2026-04-18T09:18:24.001Z</time></trkpt><trkpt lat="43.40272167480953" lon="10.910649371786997"><ele>333.0</ele><time>2026-04-18T09:18:25.001Z</time></trkpt><trkpt lat="43.402654452536936" lon="10.910459353280713"><ele>335.0</ele><time>2026-04-18T09:18:26.001Z</time></trkpt><trkpt lat="43.40257850945661" lon="10.910278558912891"><ele>335.0</ele><time>2026-04-18T09:18:27.001Z</time></trkpt><trkpt lat="43.402494577923036" lon="10.91009430304825"><ele>335.0</ele><time>2026-04-18T09:18:28.001Z</time></trkpt><trkpt lat="43.40242090094054" lon="10.909903295990658"><ele>335.0</ele><time>2026-04-18T09:18:29.001Z</time></trkpt><trkpt lat="43.40234821867015" lon="10.909708394337486"><ele>337.6666666666667</ele><time>2026-04-18T09:18:30.001Z</time></trkpt><trkpt lat="43.4022710815421" lon="10.909502846520567"><ele>340.3333333333333</ele><time>2026-04-18T09:18:31.001Z</time></trkpt><trkpt lat="43.40219265057126" lon="10.909288169288184"><ele>343.0</ele><time>2026-04-18T09:18:32.001Z</time></trkpt><trkpt lat="43.402110977339504" lon="10.909076751878718"><ele>343.75</ele><time>2026-04-18T09:18:33.001Z</time></trkpt><trkpt lat="43.40204970962961" lon="10.908900545342062"><ele>344.5</ele><time>2026-04-18T09:18:34.001Z</time></trkpt><trkpt lat="43.40200154111654" lon="10.908748956172976"><ele>345.25</ele><time>2026-04-18T09:18:35Z</time></trkpt><trkpt lat="43.40194944261214" lon="10.908620265649521"><ele>346.0</ele><time>2026-04-18T09:18:36Z</time></trkpt><trkpt lat="43.40189117581289" lon="10.908535115330343"><ele>346.0</ele><time>2026-04-18T09:18:37Z</time></trkpt><trkpt lat="43.40183672845865" lon="10.908487073750818"><ele>346.0</ele><time>2026-04-18T09:18:38Z</time></trkpt><trkpt lat="43.40176673351107" lon="10.90846656035146"><ele>346.0</ele><time>2026-04-18T09:18:39Z</time></trkpt><trkpt lat="43.40168349293545" lon="10.908461618450245"><ele>346.0</ele><time>2026-04-18T09:18:40Z</time></trkpt><trkpt lat="43.4015991401843" lon="10.908471604204005"><ele>346.0</ele><time>2026-04-18T09:18:41Z</time></trkpt><trkpt lat="43.401491357364634" lon="10.908495530794555"><ele>346.0</ele><time>2026-04-18T09:18:42Z</time></trkpt><trkpt lat="43.40137612136176" lon="10.908522629705777"><ele>346.0</ele><time>2026-04-18T09:18:43Z</time></trkpt><trkpt lat="43.40123481456915" lon="10.908538180902697"><ele>346.0</ele><time>2026-04-18T09:18:44Z</time></trkpt><trkpt lat="43.401084459304336" lon="10.908546978441914"><ele>346.0</ele><time>2026-04-18T09:18:45Z</time></trkpt><trkpt lat="43.40093178207946" lon="10.908555831865515"><ele>346.0</ele><time>2026-04-18T09:18:46Z</time></trkpt><trkpt lat="43.400776621919" lon="10.908582394101222"><ele>346.0</ele><time>2026-04-18T09:18:47Z</time></trkpt><trkpt lat="43.40064968703049" lon="10.908592426968898"><ele>346.0</ele><time>2026-04-18T09:18:48Z</time></trkpt><trkpt lat="43.40053240582182" lon="10.90860377316543"><ele>346.0</ele><time>2026-04-18T09:18:49Z</time></trkpt><trkpt lat="43.40042836887513" lon="10.908614092433622"><ele>346.0</ele><time>2026-04-18T09:18:50Z</time></trkpt><trkpt lat="43.400328254871305" lon="10.90862552574629"><ele>346.0</ele><time>2026-04-18T09:18:51Z</time></trkpt><trkpt lat="43.400249936050876" lon="10.908622173962353"><ele>346.3333333333333</ele><time>2026-04-18T09:18:52Z</time></trkpt><trkpt lat="43.40017987674077" lon="10.908600736600247"><ele>346.66666666666663</ele><time>2026-04-18T09:18:53Z</time></trkpt><trkpt lat="43.40016663368208" lon="10.908460229636269"><ele>347.0</ele><time>2026-04-18T09:18:55Z</time></trkpt><trkpt lat="43.400144854126815" lon="10.908377377891993"><ele>347.3333333333333</ele><time>2026-04-18T09:18:56Z</time></trkpt><trkpt lat="43.40011116094408" lon="10.908271723504923"><ele>347.6666666666667</ele><time>2026-04-18T09:18:57Z</time></trkpt><trkpt lat="43.400049367273155" lon="10.908169795601015"><ele>348.0</ele><time>2026-04-18T09:18:58Z</time></trkpt><trkpt lat="43.400002241086" lon="10.90806934204763"><ele>348.59999999999997</ele><time>2026-04-18T09:18:59Z</time></trkpt><trkpt lat="43.399962869110546" lon="10.907945774287285"><ele>349.2</ele><time>2026-04-18T09:19:00Z</time></trkpt><trkpt lat="43.39995359826287" lon="10.90782831638235"><ele>349.8</ele><time>2026-04-18T09:19:01Z</time></trkpt><trkpt lat="43.39999517568527" lon="10.907712140166305"><ele>350.4</ele><time>2026-04-18T09:19:02Z</time></trkpt><trkpt lat="43.40001962116596" lon="10.907577361578209"><ele>351.0</ele><time>2026-04-18T09:19:03Z</time></trkpt><trkpt lat="43.40003634373354" lon="10.907425439012666"><ele>349.6</ele><time>2026-04-18T09:19:04Z</time></trkpt><trkpt lat="43.40006648622096" lon="10.907283333529216"><ele>348.20000000000005</ele><time>2026-04-18T09:19:05Z</time></trkpt><trkpt lat="43.400106911354825" lon="10.907137106280025"><ele>346.79999999999995</ele><time>2026-04-18T09:19:06Z</time></trkpt><trkpt lat="43.400144134330134" lon="10.906991900914582"><ele>345.4</ele><time>2026-04-18T09:19:07Z</time></trkpt><trkpt lat="43.40017702862439" lon="10.906847207632646"><ele>344.0</ele><time>2026-04-18T09:19:08Z</time></trkpt><trkpt lat="43.400209304374506" lon="10.906713855796696"><ele>343.0</ele><time>2026-04-18T09:19:09Z</time></trkpt><trkpt lat="43.40024503852729" lon="10.90660353095638"><ele>342.0</ele><time>2026-04-18T09:19:10Z</time></trkpt><trkpt lat="43.400278888187145" lon="10.906481736295461"><ele>341.0</ele><time>2026-04-18T09:19:11Z</time></trkpt><trkpt lat="43.40028601106388" lon="10.90633967011007"><ele>340.0</ele><time>2026-04-18T09:19:12Z</time></trkpt><trkpt lat="43.40027937053584" lon="10.906198350538213"><ele>339.0</ele><time>2026-04-18T09:19:13Z</time></trkpt><trkpt lat="43.400249276297345" lon="10.90605784632057"><ele>339.0</ele><time>2026-04-18T09:19:14Z</time></trkpt><trkpt lat="43.40020162568477" lon="10.905923630950486"><ele>339.0</ele><time>2026-04-18T09:19:15.001Z</time></trkpt><trkpt lat="43.40013902605517" lon="10.905785141416347"><ele>339.0</ele><time>2026-04-18T09:19:16.001Z</time></trkpt><trkpt lat="43.40006462749844" lon="10.905649850913916"><ele>339.0</ele><time>2026-04-18T09:19:17.001Z</time></trkpt><trkpt lat="43.39999405745779" lon="10.905503438376995"><ele>339.4</ele><time>2026-04-18T09:19:18.001Z</time></trkpt><trkpt lat="43.39991836629786" lon="10.905358984683042"><ele>339.79999999999995</ele><time>2026-04-18T09:19:19.001Z</time></trkpt><trkpt lat="43.399873475423355" lon="10.905192661263493"><ele>340.20000000000005</ele><time>2026-04-18T09:19:20.001Z</time></trkpt><trkpt lat="43.39983499221034" lon="10.905094002491198"><ele>340.6</ele><time>2026-04-18T09:19:21.001Z</time></trkpt><trkpt lat="43.399819978619036" lon="10.9050020558612"><ele>341.0</ele><time>2026-04-18T09:19:22.001Z</time></trkpt><trkpt lat="43.39971238305925" lon="10.904902305070566"><ele>341.0</ele><time>2026-04-18T09:19:26.001Z</time></trkpt><trkpt lat="43.39963839635426" lon="10.90504132390256"><ele>341.0</ele><time>2026-04-18T09:19:28.001Z</time></trkpt><trkpt lat="43.39962103387159" lon="10.90514387233921"><ele>341.0</ele><time>2026-04-18T09:19:29.001Z</time></trkpt><trkpt lat="43.39962849785578" lon="10.905237685986288"><ele>341.0</ele><time>2026-04-18T09:19:30.001Z</time></trkpt><trkpt lat="43.399658559151845" lon="10.905325401525024"><ele>341.0</ele><time>2026-04-18T09:19:31.001Z</time></trkpt><trkpt lat="43.399690299869484" lon="10.905418326943783"><ele>341.0</ele><time>2026-04-18T09:19:32.001Z</time></trkpt><trkpt lat="43.39971016383158" lon="10.905556497283968"><ele>335.6</ele><time>2026-04-18T09:19:34.001Z</time></trkpt><trkpt lat="43.39965942124059" lon="10.905640061675436"><ele>330.20000000000005</ele><time>2026-04-18T09:19:36.001Z</time></trkpt><trkpt lat="43.39954974481855" lon="10.905533736780756"><ele>324.79999999999995</ele><time>2026-04-18T09:19:38.001Z</time></trkpt><trkpt lat="43.39949050406902" lon="10.905478147546006"><ele>319.4</ele><time>2026-04-18T09:19:39.001Z</time></trkpt><trkpt lat="43.39942968998666" lon="10.905387354143262"><ele>314.0</ele><time>2026-04-18T09:19:40.001Z</time></trkpt><trkpt lat="43.399422192513406" lon="10.905255276306177"><ele>314.0</ele><time>2026-04-18T09:19:41.001Z</time></trkpt><trkpt lat="43.39938448736881" lon="10.905139211921705"><ele>314.0</ele><time>2026-04-18T09:19:42.001Z</time></trkpt><trkpt lat="43.39935648794104" lon="10.90503321528988"><ele>314.0</ele><time>2026-04-18T09:19:43.001Z</time></trkpt><trkpt lat="43.39931809787081" lon="10.904948804832252"><ele>314.0</ele><time>2026-04-18T09:19:44.001Z</time></trkpt><trkpt lat="43.39928432752306" lon="10.904862613691236"><ele>314.0</ele><time>2026-04-18T09:19:45.001Z</time></trkpt><trkpt lat="43.399253487324536" lon="10.904780868960552"><ele>314.0</ele><time>2026-04-18T09:19:46.001Z</time></trkpt><trkpt lat="43.39924759252559" lon="10.904685366134425"><ele>314.33333333333337</ele><time>2026-04-18T09:19:47.001Z</time></trkpt><trkpt lat="43.39926489618047" lon="10.904589356122168"><ele>314.6666666666667</ele><time>2026-04-18T09:19:48.001Z</time></trkpt><trkpt lat="43.399330445365244" lon="10.904519434453954"><ele>315.0</ele><time>2026-04-18T09:19:49.001Z</time></trkpt><trkpt lat="43.39938969080017" lon="10.904464242537733"><ele>315.3333333333333</ele><time>2026-04-18T09:19:50.001Z</time></trkpt><trkpt lat="43.39946019298066" lon="10.904378443227337"><ele>315.66666666666663</ele><time>2026-04-18T09:19:51.001Z</time></trkpt><trkpt lat="43.39951621145083" lon="10.904299956364703"><ele>316.0</ele><time>2026-04-18T09:19:52.001Z</time></trkpt><trkpt lat="43.399554584274455" lon="10.904202891712888"><ele>315.0</ele><time>2026-04-18T09:19:53.001Z</time></trkpt><trkpt lat="43.39954739717915" lon="10.904042631228046"><ele>314.0</ele><time>2026-04-18T09:19:55.001Z</time></trkpt><trkpt lat="43.39946118077105" lon="10.90397620862299"><ele>313.0</ele><time>2026-04-18T09:19:57.001Z</time></trkpt><trkpt lat="43.39933427414555" lon="10.904032547672955"><ele>312.0</ele><time>2026-04-18T09:19:59.001Z</time></trkpt><trkpt lat="43.39926146418608" lon="10.904097663915682"><ele>311.0</ele><time>2026-04-18T09:20:00.001Z</time></trkpt><trkpt lat="43.39920777075617" lon="10.904161704369542"><ele>311.0</ele><time>2026-04-18T09:20:01.001Z</time></trkpt><trkpt lat="43.39915816705604" lon="10.904222411122484"><ele>311.0</ele><time>2026-04-18T09:20:02.001Z</time></trkpt><trkpt lat="43.39909853380306" lon="10.904297128337232"><ele>311.0</ele><time>2026-04-18T09:20:03.001Z</time></trkpt><trkpt lat="43.399033219538694" lon="10.904392011842555"><ele>311.0</ele><time>2026-04-18T09:20:04.001Z</time></trkpt><trkpt lat="43.398982442376386" lon="10.904501179688891"><ele>311.0</ele><time>2026-04-18T09:20:05.001Z</time></trkpt><trkpt lat="43.39893706627746" lon="10.904626570516065"><ele>311.0</ele><time>2026-04-18T09:20:06.001Z</time></trkpt><trkpt lat="43.398895944638696" lon="10.904770400309022"><ele>312.25</ele><time>2026-04-18T09:20:07.001Z</time></trkpt><trkpt lat="43.39884710922617" lon="10.904941888975081"><ele>313.5</ele><time>2026-04-18T09:20:08.001Z</time></trkpt><trkpt lat="43.39876466594139" lon="10.905106742332235"><ele>314.75</ele><time>2026-04-18T09:20:09.001Z</time></trkpt><trkpt lat="43.39869612072899" lon="10.905257736751874"><ele>316.0</ele><time>2026-04-18T09:20:10.001Z</time></trkpt><trkpt lat="43.39863978993669" lon="10.90538869375262"><ele>312.2</ele><time>2026-04-18T09:20:11.001Z</time></trkpt><trkpt lat="43.39858892107565" lon="10.905506952913813"><ele>308.40000000000003</ele><time>2026-04-18T09:20:12.001Z</time></trkpt><trkpt lat="43.39854667892543" lon="10.905602132521036"><ele>304.6</ele><time>2026-04-18T09:20:13.001Z</time></trkpt><trkpt lat="43.39850003459682" lon="10.905679335292824"><ele>300.8</ele><time>2026-04-18T09:20:14.001Z</time></trkpt><trkpt lat="43.39837507038593" lon="10.905695230294794"><ele>297.0</ele><time>2026-04-18T09:20:16.001Z</time></trkpt><trkpt lat="43.39832526586503" lon="10.905596338531684"><ele>297.0</ele><time>2026-04-18T09:20:17.001Z</time></trkpt><trkpt lat="43.398280739566" lon="10.90550491699831"><ele>297.0</ele><time>2026-04-18T09:20:18.001Z</time></trkpt><trkpt lat="43.39826295383062" lon="10.905386239912593"><ele>297.0</ele><time>2026-04-18T09:20:19.001Z</time></trkpt><trkpt lat="43.39823443922205" lon="10.905219005624804"><ele>297.0</ele><time>2026-04-18T09:20:20.001Z</time></trkpt><trkpt lat="43.398189954033036" lon="10.905069535209796"><ele>297.0</ele><time>2026-04-18T09:20:21.001Z</time></trkpt><trkpt lat="43.3981827210739" lon="10.904931837063861"><ele>296.4</ele><time>2026-04-18T09:20:22.001Z</time></trkpt><trkpt lat="43.398171115874135" lon="10.904823696281149"><ele>295.79999999999995</ele><time>2026-04-18T09:20:23.001Z</time></trkpt><trkpt lat="43.398212354660004" lon="10.904586446483638"><ele>295.2</ele><time>2026-04-18T09:20:25.001Z</time></trkpt><trkpt lat="43.398238872432884" lon="10.904450260075379"><ele>294.59999999999997</ele><time>2026-04-18T09:20:26.001Z</time></trkpt><trkpt lat="43.39826379012895" lon="10.90435744633359"><ele>294.0</ele><time>2026-04-18T09:20:27.001Z</time></trkpt><trkpt lat="43.39828610470414" lon="10.904273283636515"><ele>293.0</ele><time>2026-04-18T09:20:28.001Z</time></trkpt><trkpt lat="43.3982911622818" lon="10.904140437189664"><ele>292.0</ele><time>2026-04-18T09:20:30.001Z</time></trkpt><trkpt lat="43.39821482820979" lon="10.904098173153503"><ele>291.0</ele><time>2026-04-18T09:20:32.001Z</time></trkpt><trkpt lat="43.398106028738816" lon="10.904056687201454"><ele>290.0</ele><time>2026-04-18T09:20:34.001Z</time></trkpt><trkpt lat="43.3979456047965" lon="10.904383300299799"><ele>287.4</ele><time>2026-04-18T09:20:36.001Z</time></trkpt><trkpt lat="43.39788535086453" lon="10.904486383483858"><ele>284.8</ele><time>2026-04-18T09:20:37.001Z</time></trkpt><trkpt lat="43.39783790755527" lon="10.904600903289843"><ele>282.2</ele><time>2026-04-18T09:20:38.001Z</time></trkpt><trkpt lat="43.39778655053308" lon="10.904748394500208"><ele>279.6</ele><time>2026-04-18T09:20:39.001Z</time></trkpt><trkpt lat="43.39773199398701" lon="10.904909908274872"><ele>277.0</ele><time>2026-04-18T09:20:40Z</time></trkpt><trkpt lat="43.39767429711614" lon="10.9050618010086"><ele>277.6</ele><time>2026-04-18T09:20:41Z</time></trkpt><trkpt lat="43.3976283578629" lon="10.90518507425164"><ele>278.2</ele><time>2026-04-18T09:20:42Z</time></trkpt><trkpt lat="43.3975840647819" lon="10.905300321621441"><ele>278.8</ele><time>2026-04-18T09:20:43Z</time></trkpt><trkpt lat="43.39753715705016" lon="10.905415872337805"><ele>279.4</ele><time>2026-04-18T09:20:44Z</time></trkpt><trkpt lat="43.39748877433036" lon="10.90553158839127"><ele>280.0</ele><time>2026-04-18T09:20:45Z</time></trkpt><trkpt lat="43.397454857769326" lon="10.90563723659917"><ele>280.0</ele><time>2026-04-18T09:20:46Z</time></trkpt><trkpt lat="43.39742480665851" lon="10.905750999837968"><ele>280.0</ele><time>2026-04-18T09:20:47Z</time></trkpt><trkpt lat="43.39740751763354" lon="10.905839528000874"><ele>280.0</ele><time>2026-04-18T09:20:48Z</time></trkpt><trkpt lat="43.39735114476586" lon="10.905919369296639"><ele>280.0</ele><time>2026-04-18T09:20:50Z</time></trkpt><trkpt lat="43.39727792150388" lon="10.905942812163747"><ele>280.0</ele><time>2026-04-18T09:20:51Z</time></trkpt><trkpt lat="43.397226035373336" lon="10.905890322248828"><ele>280.0</ele><time>2026-04-18T09:20:52Z</time></trkpt><trkpt lat="43.39719084452083" lon="10.905816857154708"><ele>280.0</ele><time>2026-04-18T09:20:53Z</time></trkpt><trkpt lat="43.39711613263423" lon="10.905594869755504"><ele>276.8</ele><time>2026-04-18T09:20:55Z</time></trkpt><trkpt lat="43.39707908570539" lon="10.905458217286947"><ele>273.6</ele><time>2026-04-18T09:20:56Z</time></trkpt><trkpt lat="43.3970339675839" lon="10.905344139238823"><ele>270.4</ele><time>2026-04-18T09:20:57Z</time></trkpt><trkpt lat="43.39697021624335" lon="10.90523678518372"><ele>267.2</ele><time>2026-04-18T09:20:59Z</time></trkpt><trkpt lat="43.396874086096844" lon="10.905238277234039"><ele>264.0</ele><time>2026-04-18T09:21:01Z</time></trkpt><trkpt lat="43.396797822256104" lon="10.905401753739895"><ele>264.0</ele><time>2026-04-18T09:21:03Z</time></trkpt><trkpt lat="43.396754986822124" lon="10.905539429567147"><ele>264.0</ele><time>2026-04-18T09:21:04Z</time></trkpt><trkpt lat="43.396699848250165" lon="10.905660253019288"><ele>264.0</ele><time>2026-04-18T09:21:05Z</time></trkpt><trkpt lat="43.396635784184824" lon="10.905743495733564"><ele>264.0</ele><time>2026-04-18T09:21:06Z</time></trkpt><trkpt lat="43.396555471279775" lon="10.905794208934195"><ele>264.0</ele><time>2026-04-18T09:21:07Z</time></trkpt><trkpt lat="43.39648722732421" lon="10.905778252094455"><ele>264.0</ele><time>2026-04-18T09:21:08Z</time></trkpt><trkpt lat="43.3964246220912" lon="10.905728679061271"><ele>264.0</ele><time>2026-04-18T09:21:09Z</time></trkpt><trkpt lat="43.396370188454824" lon="10.905659835543391"><ele>264.0</ele><time>2026-04-18T09:21:10Z</time></trkpt><trkpt lat="43.396357589874775" lon="10.905571092691492"><ele>264.0</ele><time>2026-04-18T09:21:11Z</time></trkpt><trkpt lat="43.39636583864092" lon="10.905457256885594"><ele>264.0</ele><time>2026-04-18T09:21:12Z</time></trkpt><trkpt lat="43.39638748518905" lon="10.905326879446717"><ele>264.0</ele><time>2026-04-18T09:21:13Z</time></trkpt><trkpt lat="43.396432521498696" lon="10.905180071061666"><ele>264.2</ele><time>2026-04-18T09:21:14Z</time></trkpt><trkpt lat="43.39647730483405" lon="10.905027623602225"><ele>264.4</ele><time>2026-04-18T09:21:15Z</time></trkpt><trkpt lat="43.39652402303036" lon="10.904887716178942"><ele>264.6</ele><time>2026-04-18T09:21:16Z</time></trkpt><trkpt lat="43.39654417603511" lon="10.904744370291091"><ele>264.8</ele><time>2026-04-18T09:21:17Z</time></trkpt><trkpt lat="43.39653094780339" lon="10.904598531674454"><ele>265.0</ele><time>2026-04-18T09:21:18Z</time></trkpt><trkpt lat="43.396503816584" lon="10.904460984377632"><ele>265.0</ele><time>2026-04-18T09:21:19Z</time></trkpt><trkpt lat="43.39646409996212" lon="10.904303999039396"><ele>265.0</ele><time>2026-04-18T09:21:20Z</time></trkpt><trkpt lat="43.39642432932931" lon="10.904144309012246"><ele>265.0</ele><time>2026-04-18T09:21:21Z</time></trkpt><trkpt lat="43.3963728498834" lon="10.903992802339916"><ele>265.0</ele><time>2026-04-18T09:21:22Z</time></trkpt><trkpt lat="43.39633189712863" lon="10.90385256359055"><ele>261.6</ele><time>2026-04-18T09:21:23Z</time></trkpt><trkpt lat="43.396307001587154" lon="10.903727949304852"><ele>258.2</ele><time>2026-04-18T09:21:24Z</time></trkpt><trkpt lat="43.39630217066082" lon="10.90360059787588"><ele>254.8</ele><time>2026-04-18T09:21:25Z</time></trkpt><trkpt lat="43.396322883733916" lon="10.903460880442008"><ele>251.4</ele><time>2026-04-18T09:21:26Z</time></trkpt><trkpt lat="43.39633304126396" lon="10.903308150501362"><ele>248.0</ele><time>2026-04-18T09:21:27Z</time></trkpt><trkpt lat="43.39633810620255" lon="10.903159064544555"><ele>248.00000000000003</ele><time>2026-04-18T09:21:28Z</time></trkpt><trkpt lat="43.396341453278815" lon="10.903044680521441"><ele>248.0</ele><time>2026-04-18T09:21:29Z</time></trkpt><trkpt lat="43.396367551493235" lon="10.902959145997768"><ele>248.0</ele><time>2026-04-18T09:21:30Z</time></trkpt><trkpt lat="43.396413747976034" lon="10.902887940274374"><ele>248.0</ele><time>2026-04-18T09:21:31Z</time></trkpt><trkpt lat="43.3964980336588" lon="10.902849066963851"><ele>248.00000000000003</ele><time>2026-04-18T09:21:32Z</time></trkpt><trkpt lat="43.396577549944666" lon="10.90283096070447"><ele>248.0</ele><time>2026-04-18T09:21:33Z</time></trkpt><trkpt lat="43.39664185784739" lon="10.902756435127246"><ele>248.00000000000003</ele><time>2026-04-18T09:21:34Z</time></trkpt><trkpt lat="43.3966650606212" lon="10.902656067393433"><ele>248.0</ele><time>2026-04-18T09:21:35Z</time></trkpt><trkpt lat="43.39664018099275" lon="10.902568482446423"><ele>248.0</ele><time>2026-04-18T09:21:36Z</time></trkpt><trkpt lat="43.39661138446415" lon="10.902481675312618"><ele>248.0</ele><time>2026-04-18T09:21:37Z</time></trkpt><trkpt lat="43.39653958786455" lon="10.902460702523301"><ele>248.00000000000003</ele><time>2026-04-18T09:21:38Z</time></trkpt><trkpt lat="43.39645977131638" lon="10.902451852793297"><ele>248.0</ele><time>2026-04-18T09:21:39Z</time></trkpt><trkpt lat="43.39636876239551" lon="10.902453587912856"><ele>245.4</ele><time>2026-04-18T09:21:40Z</time></trkpt><trkpt lat="43.39628507696407" lon="10.902484059575928"><ele>242.8</ele><time>2026-04-18T09:21:41Z</time></trkpt><trkpt lat="43.39622676215615" lon="10.902532967986213"><ele>240.2</ele><time>2026-04-18T09:21:42Z</time></trkpt><trkpt lat="43.39614901958107" lon="10.90262176207055"><ele>237.6</ele><time>2026-04-18T09:21:43Z</time></trkpt><trkpt lat="43.39607941571346" lon="10.902745994657591"><ele>235.0</ele><time>2026-04-18T09:21:44Z</time></trkpt><trkpt lat="43.39601488648569" lon="10.902872596135987"><ele>234.99999999999997</ele><time>2026-04-18T09:21:45Z</time></trkpt><trkpt lat="43.39595682000507" lon="10.90296561786326"><ele>235.0</ele><time>2026-04-18T09:21:46Z</time></trkpt><trkpt lat="43.39589570759917" lon="10.903042575523848"><ele>235.0</ele><time>2026-04-18T09:21:47Z</time></trkpt><trkpt lat="43.39584873903084" lon="10.90312287874006"><ele>235.0</ele><time>2026-04-18T09:21:48Z</time></trkpt><trkpt lat="43.39581210980583" lon="10.903206866090116"><ele>234.99999999999997</ele><time>2026-04-18T09:21:49Z</time></trkpt><trkpt lat="43.395787290252436" lon="10.903306142332042"><ele>235.0</ele><time>2026-04-18T09:21:50Z</time></trkpt><trkpt lat="43.39577802985245" lon="10.903437135865225"><ele>236.0</ele><time>2026-04-18T09:21:51Z</time></trkpt><trkpt lat="43.39578746568835" lon="10.903567820909325"><ele>237.0</ele><time>2026-04-18T09:21:52Z</time></trkpt><trkpt lat="43.395798616957556" lon="10.903665824247227"><ele>238.0</ele><time>2026-04-18T09:21:53Z</time></trkpt><trkpt lat="43.39577225402782" lon="10.903820274900621"><ele>239.0</ele><time>2026-04-18T09:21:55Z</time></trkpt><trkpt lat="43.39567377337019" lon="10.90390898800347"><ele>240.0</ele><time>2026-04-18T09:21:57Z</time></trkpt><trkpt lat="43.39561045031639" lon="10.903875012884969"><ele>240.0</ele><time>2026-04-18T09:21:58Z</time></trkpt><trkpt lat="43.395561653226835" lon="10.903710309668812"><ele>240.0</ele><time>2026-04-18T09:22:00Z</time></trkpt><trkpt lat="43.39555162399964" lon="10.903581957170317"><ele>240.0</ele><time>2026-04-18T09:22:01Z</time></trkpt><trkpt lat="43.39553957469181" lon="10.903448328172258"><ele>240.0</ele><time>2026-04-18T09:22:02Z</time></trkpt><trkpt lat="43.395520768915645" lon="10.903304967208006"><ele>240.0</ele><time>2026-04-18T09:22:03Z</time></trkpt><trkpt lat="43.395510364205464" lon="10.90315710368392"><ele>239.0</ele><time>2026-04-18T09:22:04Z</time></trkpt><trkpt lat="43.39549676028574" lon="10.90300176196903"><ele>238.0</ele><time>2026-04-18T09:22:05Z</time></trkpt><trkpt lat="43.39550580786796" lon="10.902864776393919"><ele>237.0</ele><time>2026-04-18T09:22:06Z</time></trkpt><trkpt lat="43.395519650420155" lon="10.902740499230104"><ele>236.0</ele><time>2026-04-18T09:22:07Z</time></trkpt><trkpt lat="43.39546865929146" lon="10.902593377801235"><ele>235.0</ele><time>2026-04-18T09:22:09.001Z</time></trkpt><trkpt lat="43.39541125280048" lon="10.902554786877683"><ele>234.4</ele><time>2026-04-18T09:22:10.001Z</time></trkpt><trkpt lat="43.39534251954381" lon="10.902551769886797"><ele>233.8</ele><time>2026-04-18T09:22:11.001Z</time></trkpt><trkpt lat="43.395257137473216" lon="10.902570206363642"><ele>233.2</ele><time>2026-04-18T09:22:12.001Z</time></trkpt><trkpt lat="43.39513351993391" lon="10.90258874310809"><ele>232.6</ele><time>2026-04-18T09:22:13.001Z</time></trkpt><trkpt lat="43.39501963686067" lon="10.902592977390794"><ele>232.0</ele><time>2026-04-18T09:22:14.001Z</time></trkpt><trkpt lat="43.39492397178915" lon="10.902565289037675"><ele>231.49999999999997</ele><time>2026-04-18T09:22:15.001Z</time></trkpt><trkpt lat="43.39484648742733" lon="10.902521316416514"><ele>231.0</ele><time>2026-04-18T09:22:16.001Z</time></trkpt><trkpt lat="43.39478752369135" lon="10.90246919582534"><ele>230.5</ele><time>2026-04-18T09:22:17.001Z</time></trkpt><trkpt lat="43.39477608070278" lon="10.902329918663881"><ele>230.0</ele><time>2026-04-18T09:22:19.001Z</time></trkpt><trkpt lat="43.394818912940394" lon="10.902239583576987"><ele>229.49999999999997</ele><time>2026-04-18T09:22:20.001Z</time></trkpt><trkpt lat="43.39487783195967" lon="10.902146332651903"><ele>229.0</ele><time>2026-04-18T09:22:21.001Z</time></trkpt><trkpt lat="43.3949520223409" lon="10.902029079294454"><ele>229.0</ele><time>2026-04-18T09:22:22.001Z</time></trkpt><trkpt lat="43.395022448126376" lon="10.901886662094567"><ele>229.0</ele><time>2026-04-18T09:22:23.001Z</time></trkpt><trkpt lat="43.395079633564514" lon="10.901740273032727"><ele>229.0</ele><time>2026-04-18T09:22:24.001Z</time></trkpt><trkpt lat="43.395134076731225" lon="10.901587720531595"><ele>229.0</ele><time>2026-04-18T09:22:25.001Z</time></trkpt><trkpt lat="43.39518514569955" lon="10.901450562102319"><ele>229.2</ele><time>2026-04-18T09:22:26.001Z</time></trkpt><trkpt lat="43.395215780539964" lon="10.901314224713008"><ele>229.39999999999998</ele><time>2026-04-18T09:22:27.001Z</time></trkpt><trkpt lat="43.395227364352635" lon="10.901165052187396"><ele>229.6</ele><time>2026-04-18T09:22:28.001Z</time></trkpt><trkpt lat="43.39520917704276" lon="10.901014959049785"><ele>229.8</ele><time>2026-04-18T09:22:29.001Z</time></trkpt><trkpt lat="43.39517822280382" lon="10.90090379746718"><ele>230.0</ele><time>2026-04-18T09:22:30.001Z</time></trkpt><trkpt lat="43.395183530033364" lon="10.900705807305657"><ele>231.75</ele><time>2026-04-18T09:22:31.001Z</time></trkpt><trkpt lat="43.39520301637615" lon="10.900571917065403"><ele>233.5</ele><time>2026-04-18T09:22:32.001Z</time></trkpt><trkpt lat="43.395249902244274" lon="10.900440648062679"><ele>235.25</ele><time>2026-04-18T09:22:33.001Z</time></trkpt><trkpt lat="43.395286507975534" lon="10.900282227972879"><ele>237.0</ele><time>2026-04-18T09:22:34.001Z</time></trkpt><trkpt lat="43.39531712347727" lon="10.900098455075105"><ele>239.5</ele><time>2026-04-18T09:22:35.001Z</time></trkpt><trkpt lat="43.39534149719139" lon="10.899907017592865"><ele>242.0</ele><time>2026-04-18T09:22:36.001Z</time></trkpt><trkpt lat="43.39536611577684" lon="10.899699852293901"><ele>244.5</ele><time>2026-04-18T09:22:37.001Z</time></trkpt><trkpt lat="43.39538913196343" lon="10.899540248490501"><ele>247.0</ele><time>2026-04-18T09:22:38.001Z</time></trkpt><trkpt lat="43.395431800983715" lon="10.899418450718333"><ele>247.0</ele><time>2026-04-18T09:22:39.001Z</time></trkpt><trkpt lat="43.39550326703546" lon="10.899285147448419"><ele>247.0</ele><time>2026-04-18T09:22:40.001Z</time></trkpt><trkpt lat="43.39558417100603" lon="10.899187312896595"><ele>247.0</ele><time>2026-04-18T09:22:41.001Z</time></trkpt><trkpt lat="43.395680343073536" lon="10.899065469496312"><ele>247.0</ele><time>2026-04-18T09:22:42.001Z</time></trkpt><trkpt lat="43.395760835647074" lon="10.898938509861352"><ele>245.8</ele><time>2026-04-18T09:22:43.001Z</time></trkpt><trkpt lat="43.39584052196165" lon="10.89881661917408"><ele>244.6</ele><time>2026-04-18T09:22:44.001Z</time></trkpt><trkpt lat="43.39591564472679" lon="10.898737436932395"><ele>243.40000000000003</ele><time>2026-04-18T09:22:45.001Z</time></trkpt><trkpt lat="43.395963531058" lon="10.89866040749249"><ele>242.20000000000002</ele><time>2026-04-18T09:22:45.999Z</time></trkpt><trkpt lat="43.396002921350345" lon="10.898547735096946"><ele>241.0</ele><time>2026-04-18T09:22:46.999Z</time></trkpt><trkpt lat="43.39603517818609" lon="10.898405295361396"><ele>241.20000000000002</ele><time>2026-04-18T09:22:47.999Z</time></trkpt><trkpt lat="43.39607095683067" lon="10.898263017384334"><ele>241.40000000000003</ele><time>2026-04-18T09:22:48.999Z</time></trkpt><trkpt lat="43.39612573056914" lon="10.898131850508689"><ele>241.6</ele><time>2026-04-18T09:22:49.999Z</time></trkpt><trkpt lat="43.396196115014156" lon="10.89804794521039"><ele>241.8</ele><time>2026-04-18T09:22:50.999Z</time></trkpt><trkpt lat="43.39628639224435" lon="10.897988320842297"><ele>242.0</ele><time>2026-04-18T09:22:51.999Z</time></trkpt><trkpt lat="43.39639029673191" lon="10.897926126231797"><ele>242.0</ele><time>2026-04-18T09:22:52.999Z</time></trkpt><trkpt lat="43.39649087156231" lon="10.897851251962024"><ele>242.0</ele><time>2026-04-18T09:22:53.999Z</time></trkpt><trkpt lat="43.396583682545746" lon="10.897762859748934"><ele>242.0</ele><time>2026-04-18T09:22:54.999Z</time></trkpt><trkpt lat="43.39666068978488" lon="10.897676646190662"><ele>242.0</ele><time>2026-04-18T09:22:55.999Z</time></trkpt><trkpt lat="43.39672535366083" lon="10.897593279451911"><ele>242.0</ele><time>2026-04-18T09:22:56.999Z</time></trkpt><trkpt lat="43.39677784618564" lon="10.897491767923492"><ele>244.8</ele><time>2026-04-18T09:22:57.999Z</time></trkpt><trkpt lat="43.396807568087056" lon="10.897368020925404"><ele>247.6</ele><time>2026-04-18T09:22:58.999Z</time></trkpt><trkpt lat="43.39682039761713" lon="10.897224117930804"><ele>250.40000000000003</ele><time>2026-04-18T09:22:59.999Z</time></trkpt><trkpt lat="43.396846938462" lon="10.89705639539501"><ele>253.20000000000002</ele><time>2026-04-18T09:23:00.999Z</time></trkpt><trkpt lat="43.396897110713276" lon="10.896913115347184"><ele>256.0</ele><time>2026-04-18T09:23:01.999Z</time></trkpt><trkpt lat="43.39696060972912" lon="10.896783508860109"><ele>258.75</ele><time>2026-04-18T09:23:02.999Z</time></trkpt><trkpt lat="43.397005870726254" lon="10.896634644189078"><ele>261.5</ele><time>2026-04-18T09:23:03.999Z</time></trkpt><trkpt lat="43.39704146451029" lon="10.896457999435993"><ele>264.25</ele><time>2026-04-18T09:23:04.999Z</time></trkpt><trkpt lat="43.39709041472413" lon="10.896280673213385"><ele>267.0</ele><time>2026-04-18T09:23:05.999Z</time></trkpt><trkpt lat="43.397160621874775" lon="10.896111210429401"><ele>265.5</ele><time>2026-04-18T09:23:06.999Z</time></trkpt><trkpt lat="43.39723042242934" lon="10.89594204600613"><ele>264.0</ele><time>2026-04-18T09:23:07.999Z</time></trkpt><trkpt lat="43.39726707342059" lon="10.895774808276217"><ele>262.5</ele><time>2026-04-18T09:23:08.999Z</time></trkpt><trkpt lat="43.39728668510283" lon="10.895581564864722"><ele>261.0</ele><time>2026-04-18T09:23:09.999Z</time></trkpt><trkpt lat="43.397325559485786" lon="10.895403478375409"><ele>261.0</ele><time>2026-04-18T09:23:10.999Z</time></trkpt><trkpt lat="43.397381321118985" lon="10.895260602408149"><ele>261.0</ele><time>2026-04-18T09:23:11.999Z</time></trkpt><trkpt lat="43.3974648154886" lon="10.895126526182924"><ele>261.0</ele><time>2026-04-18T09:23:12.999Z</time></trkpt><trkpt lat="43.39754274386004" lon="10.89498697420942"><ele>261.0</ele><time>2026-04-18T09:23:14Z</time></trkpt><trkpt lat="43.39763556650021" lon="10.894853121282514"><ele>260.25</ele><time>2026-04-18T09:23:15Z</time></trkpt><trkpt lat="43.39774917656938" lon="10.89475082096711"><ele>259.5</ele><time>2026-04-18T09:23:16Z</time></trkpt><trkpt lat="43.39786698302119" lon="10.894684806067161"><ele>258.75</ele><time>2026-04-18T09:23:17Z</time></trkpt><trkpt lat="43.397982035336504" lon="10.894611169746465"><ele>258.0</ele><time>2026-04-18T09:23:18Z</time></trkpt><trkpt lat="43.398079540551315" lon="10.894523988971976"><ele>258.0</ele><time>2026-04-18T09:23:19Z</time></trkpt><trkpt lat="43.39817574664007" lon="10.894415375276607"><ele>258.0</ele><time>2026-04-18T09:23:20Z</time></trkpt><trkpt lat="43.3982546456715" lon="10.894304788449148"><ele>258.0</ele><time>2026-04-18T09:23:21Z</time></trkpt><trkpt lat="43.39832527884752" lon="10.894163581792009"><ele>258.0</ele><time>2026-04-18T09:23:22Z</time></trkpt><trkpt lat="43.39839741672897" lon="10.89401557420657"><ele>262.0</ele><time>2026-04-18T09:23:23Z</time></trkpt><trkpt lat="43.39848829886138" lon="10.893884052108234"><ele>266.0</ele><time>2026-04-18T09:23:24Z</time></trkpt><trkpt lat="43.39859126372854" lon="10.89375627917177"><ele>270.0</ele><time>2026-04-18T09:23:25Z</time></trkpt><trkpt lat="43.398683398687" lon="10.89363854721373"><ele>274.0</ele><time>2026-04-18T09:23:26Z</time></trkpt><trkpt lat="43.398784939258924" lon="10.893506693180093"><ele>275.5</ele><time>2026-04-18T09:23:27Z</time></trkpt><trkpt lat="43.3988736053757" lon="10.89340358980879"><ele>277.0</ele><time>2026-04-18T09:23:28Z</time></trkpt><trkpt lat="43.39897679751765" lon="10.893319371246617"><ele>278.5</ele><time>2026-04-18T09:23:29Z</time></trkpt><trkpt lat="43.39909885484433" lon="10.893266317816687"><ele>280.0</ele><time>2026-04-18T09:23:30Z</time></trkpt><trkpt lat="43.39922286175154" lon="10.893226184897362"><ele>280.0</ele><time>2026-04-18T09:23:31Z</time></trkpt><trkpt lat="43.399342674123794" lon="10.893201202525455"><ele>280.0</ele><time>2026-04-18T09:23:32Z</time></trkpt><trkpt lat="43.399430525870734" lon="10.893211199522321"><ele>280.0</ele><time>2026-04-18T09:23:33Z</time></trkpt><trkpt lat="43.399506199697285" lon="10.89322077944797"><ele>280.0</ele><time>2026-04-18T09:23:34Z</time></trkpt><trkpt lat="43.399603110372" lon="10.893114718184284"><ele>280.0</ele><time>2026-04-18T09:23:36Z</time></trkpt><trkpt lat="43.39964930253235" lon="10.892993170957384"><ele>280.0</ele><time>2026-04-18T09:23:37Z</time></trkpt><trkpt lat="43.399684138205984" lon="10.892884317826539"><ele>280.0</ele><time>2026-04-18T09:23:38Z</time></trkpt><trkpt lat="43.39970393221233" lon="10.892762047169189"><ele>280.0</ele><time>2026-04-18T09:23:40Z</time></trkpt><trkpt lat="43.39960979340623" lon="10.892750358461686"><ele>280.0</ele><time>2026-04-18T09:23:43Z</time></trkpt><trkpt lat="43.39955403581932" lon="10.892799853562412"><ele>280.0</ele><time>2026-04-18T09:23:44Z</time></trkpt><trkpt lat="43.399493537485576" lon="10.892903526925785"><ele>280.0</ele><time>2026-04-18T09:23:45Z</time></trkpt><trkpt lat="43.39942006628899" lon="10.89297326209076"><ele>280.0</ele><time>2026-04-18T09:23:46Z</time></trkpt><trkpt lat="43.39931705231609" lon="10.892990234901854"><ele>280.0</ele><time>2026-04-18T09:23:47Z</time></trkpt><trkpt lat="43.39919798405936" lon="10.892982732111943"><ele>280.0</ele><time>2026-04-18T09:23:48Z</time></trkpt><trkpt lat="43.3990738530284" lon="10.89298565911438"><ele>280.0</ele><time>2026-04-18T09:23:49Z</time></trkpt><trkpt lat="43.398943511510346" lon="10.892993986275512"><ele>283.5</ele><time>2026-04-18T09:23:50Z</time></trkpt><trkpt lat="43.3988019800652" lon="10.893008059441422"><ele>287.0</ele><time>2026-04-18T09:23:51Z</time></trkpt><trkpt lat="43.39865513561591" lon="10.893037367234024"><ele>290.5</ele><time>2026-04-18T09:23:52Z</time></trkpt><trkpt lat="43.39850698519879" lon="10.893096004915074"><ele>294.0</ele><time>2026-04-18T09:23:53Z</time></trkpt><trkpt lat="43.398364122888765" lon="10.893167434098718"><ele>294.0</ele><time>2026-04-18T09:23:54Z</time></trkpt><trkpt lat="43.398215319152776" lon="10.893233875652031"><ele>294.0</ele><time>2026-04-18T09:23:55Z</time></trkpt><trkpt lat="43.3980626906403" lon="10.893281172452117"><ele>294.0</ele><time>2026-04-18T09:23:56Z</time></trkpt><trkpt lat="43.397903850566365" lon="10.893305574139909"><ele>297.0</ele><time>2026-04-18T09:23:57Z</time></trkpt><trkpt lat="43.39772500253738" lon="10.893321035775655"><ele>300.0</ele><time>2026-04-18T09:23:58Z</time></trkpt><trkpt lat="43.39754164078656" lon="10.893314572370432"><ele>303.0</ele><time>2026-04-18T09:23:59Z</time></trkpt><trkpt lat="43.39736040930278" lon="10.893295849592898"><ele>303.0</ele><time>2026-04-18T09:24:00Z</time></trkpt><trkpt lat="43.39718483227306" lon="10.893286480536815"><ele>303.0</ele><time>2026-04-18T09:24:01Z</time></trkpt><trkpt lat="43.39701250131917" lon="10.893309093050886"><ele>303.0</ele><time>2026-04-18T09:24:02Z</time></trkpt><trkpt lat="43.396838538176404" lon="10.893371989871628"><ele>301.0</ele><time>2026-04-18T09:24:03Z</time></trkpt><trkpt lat="43.396669867968555" lon="10.89347200170635"><ele>299.0</ele><time>2026-04-18T09:24:04Z</time></trkpt><trkpt lat="43.39650010779821" lon="10.893596486147958"><ele>297.0</ele><time>2026-04-18T09:24:05Z</time></trkpt><trkpt lat="43.396310224433925" lon="10.893711653552018"><ele>301.6666666666667</ele><time>2026-04-18T09:24:06Z</time></trkpt><trkpt lat="43.39611578966351" lon="10.893827015764227"><ele>306.33333333333337</ele><time>2026-04-18T09:24:07Z</time></trkpt><trkpt lat="43.39591922835646" lon="10.893943236713739"><ele>311.0</ele><time>2026-04-18T09:24:08Z</time></trkpt><trkpt lat="43.39571310021521" lon="10.894068378773412"><ele>311.0</ele><time>2026-04-18T09:24:09Z</time></trkpt><trkpt lat="43.395506220906654" lon="10.894196690829196"><ele>311.0</ele><time>2026-04-18T09:24:10Z</time></trkpt><trkpt lat="43.39529823136268" lon="10.894323656759463"><ele>312.6666666666667</ele><time>2026-04-18T09:24:11Z</time></trkpt><trkpt lat="43.39510634352571" lon="10.894455518883914"><ele>314.3333333333333</ele><time>2026-04-18T09:24:12Z</time></trkpt><trkpt lat="43.394920878891654" lon="10.89460432073797"><ele>316.0</ele><time>2026-04-18T09:24:13Z</time></trkpt><trkpt lat="43.39474791083412" lon="10.894782978153236"><ele>318.66666666666663</ele><time>2026-04-18T09:24:14Z</time></trkpt><trkpt lat="43.39458697769418" lon="10.894978957541417"><ele>321.3333333333333</ele><time>2026-04-18T09:24:15Z</time></trkpt><trkpt lat="43.39442495334627" lon="10.895173145632958"><ele>324.0</ele><time>2026-04-18T09:24:16Z</time></trkpt><trkpt lat="43.39424931932647" lon="10.895340564908288"><ele>324.0</ele><time>2026-04-18T09:24:17Z</time></trkpt><trkpt lat="43.39406770811884" lon="10.89547206550723"><ele>324.0</ele><time>2026-04-18T09:24:18Z</time></trkpt><trkpt lat="43.39389950654019" lon="10.895580133667725"><ele>324.0</ele><time>2026-04-18T09:24:19Z</time></trkpt><trkpt lat="43.393747112458335" lon="10.895676153506042"><ele>326.25</ele><time>2026-04-18T09:24:20Z</time></trkpt><trkpt lat="43.39360539066149" lon="10.8957532348546"><ele>328.5</ele><time>2026-04-18T09:24:21Z</time></trkpt><trkpt lat="43.393487180003426" lon="10.895797447870642"><ele>330.75</ele><time>2026-04-18T09:24:22Z</time></trkpt><trkpt lat="43.39338683806241" lon="10.895819569709115"><ele>333.0</ele><time>2026-04-18T09:24:23Z</time></trkpt><trkpt lat="43.39329073971333" lon="10.895844295183323"><ele>333.0</ele><time>2026-04-18T09:24:24Z</time></trkpt><trkpt lat="43.39319824805117" lon="10.895862775943758"><ele>333.0</ele><time>2026-04-18T09:24:25Z</time></trkpt><trkpt lat="43.39310630903181" lon="10.895871511384707"><ele>333.0</ele><time>2026-04-18T09:24:26Z</time></trkpt><trkpt lat="43.393007903709986" lon="10.895878347435596"><ele>333.0</ele><time>2026-04-18T09:24:27Z</time></trkpt><trkpt lat="43.392911734555256" lon="10.89587877376306"><ele>333.0</ele><time>2026-04-18T09:24:28Z</time></trkpt><trkpt lat="43.39282963154923" lon="10.89587576428196"><ele>333.0</ele><time>2026-04-18T09:24:29Z</time></trkpt><trkpt lat="43.39275492133656" lon="10.89587241222873"><ele>333.0</ele><time>2026-04-18T09:24:30Z</time></trkpt><trkpt lat="43.392689056386054" lon="10.895865431238496"><ele>333.0</ele><time>2026-04-18T09:24:31Z</time></trkpt><trkpt lat="43.39259426400192" lon="10.895818748289214"><ele>333.0</ele><time>2026-04-18T09:24:33Z</time></trkpt><trkpt lat="43.39252315044927" lon="10.89576114010808"><ele>333.0</ele><time>2026-04-18T09:24:36Z</time></trkpt><trkpt lat="43.392456063966044" lon="10.895741030393452"><ele>333.0</ele><time>2026-04-18T09:24:39.001Z</time></trkpt><trkpt lat="43.39236592868878" lon="10.895850763939693"><ele>332.2</ele><time>2026-04-18T09:24:42.001Z</time></trkpt><trkpt lat="43.39234126399946" lon="10.895965064966479"><ele>331.4</ele><time>2026-04-18T09:24:43.001Z</time></trkpt><trkpt lat="43.39230931602402" lon="10.896085299239443"><ele>330.59999999999997</ele><time>2026-04-18T09:24:44.001Z</time></trkpt><trkpt lat="43.392258225530085" lon="10.896231915574909"><ele>329.79999999999995</ele><time>2026-04-18T09:24:45.001Z</time></trkpt><trkpt lat="43.392198807698556" lon="10.896388622291088"><ele>329.0</ele><time>2026-04-18T09:24:46.001Z</time></trkpt><trkpt lat="43.39212646638203" lon="10.896561383395506"><ele>328.33333333333337</ele><time>2026-04-18T09:24:47.001Z</time></trkpt><trkpt lat="43.39204501771815" lon="10.896730825245132"><ele>327.6666666666667</ele><time>2026-04-18T09:24:48.001Z</time></trkpt><trkpt lat="43.39195404372644" lon="10.896898308741275"><ele>327.0</ele><time>2026-04-18T09:24:49.001Z</time></trkpt><trkpt lat="43.391852460629" lon="10.89706363810052"><ele>327.0</ele><time>2026-04-18T09:24:50.001Z</time></trkpt><trkpt lat="43.391746397183724" lon="10.8972218887676"><ele>327.0</ele><time>2026-04-18T09:24:51.001Z</time></trkpt><trkpt lat="43.391638887534626" lon="10.897369955581436"><ele>327.0</ele><time>2026-04-18T09:24:51.998Z</time></trkpt><trkpt lat="43.39153701637945" lon="10.897509307338854"><ele>327.0</ele><time>2026-04-18T09:24:52.998Z</time></trkpt><trkpt lat="43.39144015725123" lon="10.897645434995713"><ele>327.0</ele><time>2026-04-18T09:24:53.998Z</time></trkpt><trkpt lat="43.391347442235954" lon="10.897769286895006"><ele>327.0</ele><time>2026-04-18T09:24:54.998Z</time></trkpt><trkpt lat="43.39125879839062" lon="10.897880693698424"><ele>327.0</ele><time>2026-04-18T09:24:55.998Z</time></trkpt><trkpt lat="43.391177715134475" lon="10.897989749425728"><ele>327.8</ele><time>2026-04-18T09:24:56.998Z</time></trkpt><trkpt lat="43.391096502646725" lon="10.898096774765026"><ele>328.6</ele><time>2026-04-18T09:24:57.998Z</time></trkpt><trkpt lat="43.39102434681489" lon="10.898185655945603"><ele>329.40000000000003</ele><time>2026-04-18T09:24:58.998Z</time></trkpt><trkpt lat="43.39095903351395" lon="10.898265223054318"><ele>330.20000000000005</ele><time>2026-04-18T09:24:59.998Z</time></trkpt><trkpt lat="43.39089434040775" lon="10.898336003948579"><ele>331.0</ele><time>2026-04-18T09:25:00.998Z</time></trkpt><trkpt lat="43.390835805013474" lon="10.898392388548874"><ele>331.8333333333333</ele><time>2026-04-18T09:25:01.999Z</time></trkpt><trkpt lat="43.39078018888284" lon="10.898441995712231"><ele>332.66666666666663</ele><time>2026-04-18T09:25:02.999Z</time></trkpt><trkpt lat="43.390683380578835" lon="10.89853420820113"><ele>333.5</ele><time>2026-04-18T09:25:04.999Z</time></trkpt><trkpt lat="43.39063375416394" lon="10.89859153119928"><ele>334.3333333333333</ele><time>2026-04-18T09:25:05.999Z</time></trkpt><trkpt lat="43.39058080014068" lon="10.898653690314807"><ele>335.1666666666667</ele><time>2026-04-18T09:25:06.999Z</time></trkpt><trkpt lat="43.39052621509777" lon="10.898720924152371"><ele>336.0</ele><time>2026-04-18T09:25:07.999Z</time></trkpt><trkpt lat="43.3904650719373" lon="10.89880371092629"><ele>336.75</ele><time>2026-04-18T09:25:08.999Z</time></trkpt><trkpt lat="43.3903884262594" lon="10.8989106057853"><ele>337.5</ele><time>2026-04-18T09:25:09.999Z</time></trkpt><trkpt lat="43.39030104963406" lon="10.899041989078023"><ele>338.25</ele><time>2026-04-18T09:25:10.999Z</time></trkpt><trkpt lat="43.39021040274118" lon="10.899194467016509"><ele>339.0</ele><time>2026-04-18T09:25:11.999Z</time></trkpt><trkpt lat="43.3901131067485" lon="10.899363249933693"><ele>339.0</ele><time>2026-04-18T09:25:12.999Z</time></trkpt><trkpt lat="43.39000706298716" lon="10.89953819922549"><ele>339.0</ele><time>2026-04-18T09:25:13.999Z</time></trkpt><trkpt lat="43.389892928702764" lon="10.899709342180927"><ele>339.0</ele><time>2026-04-18T09:25:14.999Z</time></trkpt><trkpt lat="43.38977309990782" lon="10.899879021104624"><ele>339.3333333333333</ele><time>2026-04-18T09:25:15.999Z</time></trkpt><trkpt lat="43.389641849643645" lon="10.900055586679139"><ele>339.66666666666663</ele><time>2026-04-18T09:25:16.999Z</time></trkpt><trkpt lat="43.38951258419655" lon="10.900223543028824"><ele>340.0</ele><time>2026-04-18T09:25:17.999Z</time></trkpt><trkpt lat="43.38938546402067" lon="10.900401133761608"><ele>340.66666666666663</ele><time>2026-04-18T09:25:18.999Z</time></trkpt><trkpt lat="43.38925003990659" lon="10.9005866080476"><ele>341.3333333333333</ele><time>2026-04-18T09:25:19.999Z</time></trkpt><trkpt lat="43.38911728840211" lon="10.900778564323382"><ele>342.0</ele><time>2026-04-18T09:25:20.999Z</time></trkpt><trkpt lat="43.38898034195256" lon="10.900960859660465"><ele>342.0</ele><time>2026-04-18T09:25:21.999Z</time></trkpt><trkpt lat="43.38884691445213" lon="10.901140254133137"><ele>342.0</ele><time>2026-04-18T09:25:22.999Z</time></trkpt><trkpt lat="43.388718049229574" lon="10.901320676449794"><ele>342.0</ele><time>2026-04-18T09:25:23.999Z</time></trkpt><trkpt lat="43.388588695366195" lon="10.901516629348297"><ele>344.3333333333333</ele><time>2026-04-18T09:25:24.999Z</time></trkpt><trkpt lat="43.38845986088325" lon="10.901711645852165"><ele>346.66666666666663</ele><time>2026-04-18T09:25:25.999Z</time></trkpt><trkpt lat="43.38833253598902" lon="10.901903133444044"><ele>349.0</ele><time>2026-04-18T09:25:26.999Z</time></trkpt><trkpt lat="43.38819641958452" lon="10.902078770427455"><ele>349.0</ele><time>2026-04-18T09:25:27.999Z</time></trkpt><trkpt lat="43.388049681853595" lon="10.902231863077077"><ele>349.0</ele><time>2026-04-18T09:25:29Z</time></trkpt><trkpt lat="43.38790457362981" lon="10.90237765674869"><ele>349.0</ele><time>2026-04-18T09:25:30Z</time></trkpt><trkpt lat="43.38776781773533" lon="10.90251201492819"><ele>351.3333333333333</ele><time>2026-04-18T09:25:31Z</time></trkpt><trkpt lat="43.3876388945391" lon="10.9026420521924"><ele>353.6666666666667</ele><time>2026-04-18T09:25:32Z</time></trkpt><trkpt lat="43.38750436389064" lon="10.902758247536015"><ele>356.0</ele><time>2026-04-18T09:25:33Z</time></trkpt><trkpt lat="43.387362122273466" lon="10.902833080297135"><ele>356.0</ele><time>2026-04-18T09:25:34Z</time></trkpt><trkpt lat="43.38720472416109" lon="10.902917756204209"><ele>356.0</ele><time>2026-04-18T09:25:35Z</time></trkpt><trkpt lat="43.38704771167696" lon="10.902976949964234"><ele>356.0</ele><time>2026-04-18T09:25:36Z</time></trkpt><trkpt lat="43.38688618821138" lon="10.903029751642375"><ele>358.25</ele><time>2026-04-18T09:25:37Z</time></trkpt><trkpt lat="43.38673678001778" lon="10.903049811419601"><ele>360.5</ele><time>2026-04-18T09:25:38Z</time></trkpt><trkpt lat="43.3866123157998" lon="10.903038664693705"><ele>362.75</ele><time>2026-04-18T09:25:39Z</time></trkpt><trkpt lat="43.38651033907845" lon="10.90306393173139"><ele>365.0</ele><time>2026-04-18T09:25:40Z</time></trkpt><trkpt lat="43.3864335896878" lon="10.903146789032034"><ele>365.0</ele><time>2026-04-18T09:25:41Z</time></trkpt><trkpt lat="43.386380064952235" lon="10.903277180293351"><ele>365.0</ele><time>2026-04-18T09:25:42Z</time></trkpt><trkpt lat="43.38634928610902" lon="10.90341631048305"><ele>365.0</ele><time>2026-04-18T09:25:43Z</time></trkpt><trkpt lat="43.386401921864206" lon="10.903596190690951"><ele>365.0</ele><time>2026-04-18T09:25:44Z</time></trkpt><trkpt lat="43.38641778884525" lon="10.903796260588024"><ele>365.6666666666667</ele><time>2026-04-18T09:25:45Z</time></trkpt><trkpt lat="43.38643511706103" lon="10.904010821831742"><ele>366.3333333333333</ele><time>2026-04-18T09:25:46Z</time></trkpt><trkpt lat="43.386448090561046" lon="10.904229109131782"><ele>367.0</ele><time>2026-04-18T09:25:47Z</time></trkpt><trkpt lat="43.38644342615047" lon="10.904434522508774"><ele>368.0</ele><time>2026-04-18T09:25:48Z</time></trkpt><trkpt lat="43.386397980500035" lon="10.904619606085745"><ele>369.0</ele><time>2026-04-18T09:25:49Z</time></trkpt><trkpt lat="43.38631066794796" lon="10.904728790411351"><ele>370.0</ele><time>2026-04-18T09:25:50Z</time></trkpt><trkpt lat="43.38621398932285" lon="10.90483835520035"><ele>371.0</ele><time>2026-04-18T09:25:51Z</time></trkpt><trkpt lat="43.3861344142129" lon="10.904962434840225"><ele>374.25</ele><time>2026-04-18T09:25:52Z</time></trkpt><trkpt lat="43.38608069098678" lon="10.905109936627172"><ele>377.5</ele><time>2026-04-18T09:25:53Z</time></trkpt><trkpt lat="43.38607905135664" lon="10.905286153571405"><ele>380.75</ele><time>2026-04-18T09:25:54Z</time></trkpt><trkpt lat="43.386116561671784" lon="10.90547667063551"><ele>384.0</ele><time>2026-04-18T09:25:55Z</time></trkpt><trkpt lat="43.38615891058434" lon="10.905677336414358"><ele>384.0</ele><time>2026-04-18T09:25:56Z</time></trkpt><trkpt lat="43.38616761411885" lon="10.905881089788673"><ele>384.0</ele><time>2026-04-18T09:25:57Z</time></trkpt><trkpt lat="43.38617806513361" lon="10.906073710973578"><ele>384.0</ele><time>2026-04-18T09:25:58Z</time></trkpt><trkpt lat="43.38619239390929" lon="10.906229222772819"><ele>384.0</ele><time>2026-04-18T09:25:59Z</time></trkpt><trkpt lat="43.38616235544868" lon="10.906361819646634"><ele>385.2</ele><time>2026-04-18T09:26:00Z</time></trkpt><trkpt lat="43.38614795338546" lon="10.906467189375084"><ele>386.4</ele><time>2026-04-18T09:26:01Z</time></trkpt><trkpt lat="43.38608436138384" lon="10.906538978194686"><ele>387.6</ele><time>2026-04-18T09:26:02Z</time></trkpt><trkpt lat="43.38599139450671" lon="10.906607626310583"><ele>388.8</ele><time>2026-04-18T09:26:03Z</time></trkpt><trkpt lat="43.38588075792661" lon="10.906640173294742"><ele>390.0</ele><time>2026-04-18T09:26:04Z</time></trkpt><trkpt lat="43.38578587638611" lon="10.906682375098532"><ele>390.0</ele><time>2026-04-18T09:26:05Z</time></trkpt><trkpt lat="43.385659015719185" lon="10.906555325978953"><ele>390.0</ele><time>2026-04-18T09:26:06Z</time></trkpt><trkpt lat="43.38557281985281" lon="10.906456775357409"><ele>390.0</ele><time>2026-04-18T09:26:07Z</time></trkpt><trkpt lat="43.385508861883736" lon="10.906325289674902"><ele>390.0</ele><time>2026-04-18T09:26:08Z</time></trkpt><trkpt lat="43.385446800055014" lon="10.906169030528364"><ele>391.75</ele><time>2026-04-18T09:26:09Z</time></trkpt><trkpt lat="43.385383636350056" lon="10.906020811776747"><ele>393.5</ele><time>2026-04-18T09:26:10Z</time></trkpt><trkpt lat="43.38530834481018" lon="10.905887668159197"><ele>395.25</ele><time>2026-04-18T09:26:11Z</time></trkpt><trkpt lat="43.3852136852156" lon="10.905779538785133"><ele>397.0</ele><time>2026-04-18T09:26:12Z</time></trkpt><trkpt lat="43.38509227633906" lon="10.905684766139137"><ele>397.0</ele><time>2026-04-18T09:26:13Z</time></trkpt><trkpt lat="43.38496174061168" lon="10.905606429680816"><ele>397.0</ele><time>2026-04-18T09:26:14Z</time></trkpt><trkpt lat="43.38483296991065" lon="10.905517283333175"><ele>397.0</ele><time>2026-04-18T09:26:15Z</time></trkpt><trkpt lat="43.38474028757724" lon="10.905377386495461"><ele>397.0</ele><time>2026-04-18T09:26:16Z</time></trkpt><trkpt lat="43.38467325726289" lon="10.905251496731987"><ele>398.0</ele><time>2026-04-18T09:26:17Z</time></trkpt><trkpt lat="43.38461174657001" lon="10.905123297583387"><ele>399.0</ele><time>2026-04-18T09:26:18Z</time></trkpt><trkpt lat="43.38455270464117" lon="10.905009637142394"><ele>400.0</ele><time>2026-04-18T09:26:19Z</time></trkpt><trkpt lat="43.38448219307713" lon="10.904923199040127"><ele>401.0</ele><time>2026-04-18T09:26:20Z</time></trkpt><trkpt lat="43.38439921625479" lon="10.904873176595618"><ele>402.0</ele><time>2026-04-18T09:26:21Z</time></trkpt><trkpt lat="43.38428441194537" lon="10.90487417005566"><ele>402.0</ele><time>2026-04-18T09:26:22Z</time></trkpt><trkpt lat="43.384166163575124" lon="10.904901901081782"><ele>402.0</ele><time>2026-04-18T09:26:23Z</time></trkpt><trkpt lat="43.38405676138087" lon="10.90500087521087"><ele>402.0</ele><time>2026-04-18T09:26:24Z</time></trkpt><trkpt lat="43.38394509303552" lon="10.905083576207"><ele>402.0</ele><time>2026-04-18T09:26:25Z</time></trkpt><trkpt lat="43.383832741720504" lon="10.90517615902109"><ele>407.0</ele><time>2026-04-18T09:26:26Z</time></trkpt><trkpt lat="43.38370848182479" lon="10.905265107630063"><ele>412.0</ele><time>2026-04-18T09:26:27Z</time></trkpt><trkpt lat="43.38357295640393" lon="10.905318074589553"><ele>417.0</ele><time>2026-04-18T09:26:28Z</time></trkpt><trkpt lat="43.38343940752266" lon="10.90540519532239"><ele>422.0</ele><time>2026-04-18T09:26:29Z</time></trkpt><trkpt lat="43.383299826592015" lon="10.90546530841728"><ele>422.0</ele><time>2026-04-18T09:26:30Z</time></trkpt><trkpt lat="43.38315884281647" lon="10.905508964492922"><ele>422.0</ele><time>2026-04-18T09:26:31Z</time></trkpt><trkpt lat="43.38301171879254" lon="10.9055960895535"><ele>422.0</ele><time>2026-04-18T09:26:32Z</time></trkpt><trkpt lat="43.38286049486328" lon="10.9056293079657"><ele>421.5</ele><time>2026-04-18T09:26:33Z</time></trkpt><trkpt lat="43.382716924225235" lon="10.905665338683637"><ele>421.0</ele><time>2026-04-18T09:26:34Z</time></trkpt><trkpt lat="43.3825825004494" lon="10.905675352379141"><ele>420.5</ele><time>2026-04-18T09:26:35Z</time></trkpt><trkpt lat="43.382466725356025" lon="10.905707950906674"><ele>420.0</ele><time>2026-04-18T09:26:36.001Z</time></trkpt><trkpt lat="43.382360758720104" lon="10.905805509890811"><ele>420.0</ele><time>2026-04-18T09:26:37.001Z</time></trkpt><trkpt lat="43.38224898192081" lon="10.905908929925403"><ele>420.0</ele><time>2026-04-18T09:26:38.001Z</time></trkpt><trkpt lat="43.382172930528654" lon="10.906026209531923"><ele>420.0</ele><time>2026-04-18T09:26:39.001Z</time></trkpt><trkpt lat="43.38210417280586" lon="10.906125172988705"><ele>420.0</ele><time>2026-04-18T09:26:40.001Z</time></trkpt><trkpt lat="43.38207069388295" lon="10.90624360139816"><ele>420.0</ele><time>2026-04-18T09:26:41.001Z</time></trkpt><trkpt lat="43.38207804202815" lon="10.906414865565054"><ele>419.0</ele><time>2026-04-18T09:26:42.001Z</time></trkpt><trkpt lat="43.382078262103576" lon="10.906596841124895"><ele>418.0</ele><time>2026-04-18T09:26:43.001Z</time></trkpt><trkpt lat="43.38206288616545" lon="10.906792102059056"><ele>417.0</ele><time>2026-04-18T09:26:44.001Z</time></trkpt><trkpt lat="43.38203690688134" lon="10.90698137459405"><ele>416.0</ele><time>2026-04-18T09:26:45.001Z</time></trkpt><trkpt lat="43.382000324781195" lon="10.907136152287025"><ele>416.0</ele><time>2026-04-18T09:26:46.001Z</time></trkpt><trkpt lat="43.38195117028458" lon="10.90728464861867"><ele>416.0</ele><time>2026-04-18T09:26:47.001Z</time></trkpt><trkpt lat="43.3818846901768" lon="10.907429901344116"><ele>416.0</ele><time>2026-04-18T09:26:48.001Z</time></trkpt><trkpt lat="43.381814313011866" lon="10.907565782558038"><ele>416.0</ele><time>2026-04-18T09:26:49.001Z</time></trkpt><trkpt lat="43.381748034170016" lon="10.907684825838901"><ele>414.25</ele><time>2026-04-18T09:26:50.001Z</time></trkpt><trkpt lat="43.381660777849895" lon="10.907795826728803"><ele>412.5</ele><time>2026-04-18T09:26:51.001Z</time></trkpt><trkpt lat="43.38155484300173" lon="10.907895781297299"><ele>410.75</ele><time>2026-04-18T09:26:52.001Z</time></trkpt><trkpt lat="43.381439203242074" lon="10.907978862143962"><ele>409.0</ele><time>2026-04-18T09:26:53.001Z</time></trkpt><trkpt lat="43.381327340221134" lon="10.908015503988624"><ele>409.0</ele><time>2026-04-18T09:26:54.001Z</time></trkpt><trkpt lat="43.38122100032095" lon="10.908057734888889"><ele>409.0</ele><time>2026-04-18T09:26:55.001Z</time></trkpt><trkpt lat="43.381118707873405" lon="10.908109698990316"><ele>409.0</ele><time>2026-04-18T09:26:56.001Z</time></trkpt><trkpt lat="43.38102991955353" lon="10.908249731760511"><ele>409.0</ele><time>2026-04-18T09:26:57.001Z</time></trkpt><trkpt lat="43.38093720294772" lon="10.908356876748197"><ele>409.0</ele><time>2026-04-18T09:26:57.999Z</time></trkpt><trkpt lat="43.38088575297543" lon="10.908483642026797"><ele>409.0</ele><time>2026-04-18T09:26:58.999Z</time></trkpt><trkpt lat="43.38088417351331" lon="10.908624941706051"><ele>409.0</ele><time>2026-04-18T09:26:59.999Z</time></trkpt><trkpt lat="43.38088102218717" lon="10.908770706111008"><ele>409.0</ele><time>2026-04-18T09:27:00.999Z</time></trkpt><trkpt lat="43.38086558418052" lon="10.908942233773095"><ele>409.0</ele><time>2026-04-18T09:27:01.999Z</time></trkpt><trkpt lat="43.380840660276185" lon="10.909103933625882"><ele>409.0</ele><time>2026-04-18T09:27:02.999Z</time></trkpt><trkpt lat="43.380778702441724" lon="10.909214657706132"><ele>409.0</ele><time>2026-04-18T09:27:03.999Z</time></trkpt><trkpt lat="43.38073282917351" lon="10.909350224448072"><ele>409.0</ele><time>2026-04-18T09:27:04.999Z</time></trkpt><trkpt lat="43.380682008649046" lon="10.909464534272653"><ele>409.0</ele><time>2026-04-18T09:27:05.999Z</time></trkpt><trkpt lat="43.38064348960278" lon="10.909573441865966"><ele>409.0</ele><time>2026-04-18T09:27:06.999Z</time></trkpt><trkpt lat="43.3806393005767" lon="10.909685361741056"><ele>407.83333333333337</ele><time>2026-04-18T09:27:07.999Z</time></trkpt><trkpt lat="43.380661668072236" lon="10.909803953195093"><ele>406.6666666666667</ele><time>2026-04-18T09:27:08.999Z</time></trkpt><trkpt lat="43.38070095630822" lon="10.909904163333882"><ele>405.5</ele><time>2026-04-18T09:27:09.999Z</time></trkpt><trkpt lat="43.38074928112622" lon="10.909996407472557"><ele>404.33333333333337</ele><time>2026-04-18T09:27:10.999Z</time></trkpt><trkpt lat="43.380779211070795" lon="10.910080642331799"><ele>403.1666666666667</ele><time>2026-04-18T09:27:12Z</time></trkpt><trkpt lat="43.380785709622614" lon="10.91018050463989"><ele>402.0</ele><time>2026-04-18T09:27:13Z</time></trkpt><trkpt lat="43.380732977714956" lon="10.910275063707953"><ele>399.0</ele><time>2026-04-18T09:27:14Z</time></trkpt><trkpt lat="43.38061759870474" lon="10.910288973033385"><ele>396.0</ele><time>2026-04-18T09:27:15Z</time></trkpt><trkpt lat="43.380535603640276" lon="10.910328527150185"><ele>393.0</ele><time>2026-04-18T09:27:16Z</time></trkpt><trkpt lat="43.380466689699404" lon="10.910322939448669"><ele>390.0</ele><time>2026-04-18T09:27:17Z</time></trkpt><trkpt lat="43.38036824807104" lon="10.91022998089556"><ele>387.0</ele><time>2026-04-18T09:27:19Z</time></trkpt><trkpt lat="43.380353432023114" lon="10.910135183839452"><ele>385.8</ele><time>2026-04-18T09:27:20Z</time></trkpt><trkpt lat="43.3803515558685" lon="10.910041141215066"><ele>384.6</ele><time>2026-04-18T09:27:21Z</time></trkpt><trkpt lat="43.380244535200326" lon="10.909980756721776"><ele>383.40000000000003</ele><time>2026-04-18T09:27:23Z</time></trkpt><trkpt lat="43.38017971569105" lon="10.910038503551894"><ele>382.20000000000005</ele><time>2026-04-18T09:27:24Z</time></trkpt><trkpt lat="43.38016611669561" lon="10.910217260911104"><ele>381.0</ele><time>2026-04-18T09:27:26Z</time></trkpt><trkpt lat="43.38017083486001" lon="10.910376358201436"><ele>380.0</ele><time>2026-04-18T09:27:28Z</time></trkpt><trkpt lat="43.38017612558527" lon="10.910524541904378"><ele>379.0</ele><time>2026-04-18T09:27:30Z</time></trkpt><trkpt lat="43.380159566311" lon="10.910675769319663"><ele>378.0</ele><time>2026-04-18T09:27:32Z</time></trkpt><trkpt lat="43.38010825219876" lon="10.910736901163295"><ele>377.0</ele><time>2026-04-18T09:27:33Z</time></trkpt><trkpt lat="43.380043472577825" lon="10.910770880984037"><ele>376.0</ele><time>2026-04-18T09:27:34Z</time></trkpt><trkpt lat="43.37994813674872" lon="10.910739571725248"><ele>376.0</ele><time>2026-04-18T09:27:35Z</time></trkpt><trkpt lat="43.37985178738417" lon="10.910731987093873"><ele>376.0</ele><time>2026-04-18T09:27:36Z</time></trkpt><trkpt lat="43.37977268722776" lon="10.910643923205338"><ele>376.0</ele><time>2026-04-18T09:27:37Z</time></trkpt><trkpt lat="43.37973499328417" lon="10.91052622703843"><ele>376.0</ele><time>2026-04-18T09:27:38Z</time></trkpt><trkpt lat="43.379743932952266" lon="10.910393359770294"><ele>376.0</ele><time>2026-04-18T09:27:39Z</time></trkpt><trkpt lat="43.379757980115535" lon="10.910281048554088"><ele>376.0</ele><time>2026-04-18T09:27:40Z</time></trkpt><trkpt lat="43.37975075483904" lon="10.910167761997387"><ele>376.0</ele><time>2026-04-18T09:27:41Z</time></trkpt><trkpt lat="43.37970835947803" lon="10.910077241972193"><ele>376.0</ele><time>2026-04-18T09:27:42Z</time></trkpt><trkpt lat="43.37964254669959" lon="10.910024521009934"><ele>376.0</ele><time>2026-04-18T09:27:43Z</time></trkpt><trkpt lat="43.37956232295885" lon="10.910014822778114"><ele>376.0</ele><time>2026-04-18T09:27:44Z</time></trkpt><trkpt lat="43.37947153533856" lon="10.910042900561843"><ele>376.0</ele><time>2026-04-18T09:27:45Z</time></trkpt><trkpt lat="43.37938197365611" lon="10.910105989479066"><ele>373.0</ele><time>2026-04-18T09:27:46Z</time></trkpt><trkpt lat="43.37930222875138" lon="10.910199124776288"><ele>370.0</ele><time>2026-04-18T09:27:47Z</time></trkpt><trkpt lat="43.379256007428786" lon="10.910327757898298"><ele>367.0</ele><time>2026-04-18T09:27:48Z</time></trkpt><trkpt lat="43.379231322697315" lon="10.910476417611116"><ele>364.0</ele><time>2026-04-18T09:27:49Z</time></trkpt><trkpt lat="43.37922105053898" lon="10.91063827901555"><ele>361.0</ele><time>2026-04-18T09:27:50Z</time></trkpt><trkpt lat="43.37924507353879" lon="10.910803308961311"><ele>360.0</ele><time>2026-04-18T09:27:51Z</time></trkpt><trkpt lat="43.37927499086618" lon="10.910938839725384"><ele>359.0</ele><time>2026-04-18T09:27:52Z</time></trkpt><trkpt lat="43.37930789669948" lon="10.911069956517132"><ele>358.0</ele><time>2026-04-18T09:27:53Z</time></trkpt><trkpt lat="43.379355041358146" lon="10.91120660650572"><ele>357.0</ele><time>2026-04-18T09:27:54Z</time></trkpt><trkpt lat="43.379396455105535" lon="10.911336298028099"><ele>356.0</ele><time>2026-04-18T09:27:55Z</time></trkpt><trkpt lat="43.379421775426216" lon="10.91145478488056"><ele>356.0</ele><time>2026-04-18T09:27:56Z</time></trkpt><trkpt lat="43.37942423898996" lon="10.911575846636158"><ele>356.0</ele><time>2026-04-18T09:27:57Z</time></trkpt><trkpt lat="43.37938178168004" lon="10.911684618096734"><ele>356.0</ele><time>2026-04-18T09:27:58Z</time></trkpt><trkpt lat="43.37932819244959" lon="10.911793549775032"><ele>356.0</ele><time>2026-04-18T09:27:59Z</time></trkpt><trkpt lat="43.37921704119377" lon="10.91184400081386"><ele>356.0</ele><time>2026-04-18T09:28:00.001Z</time></trkpt><trkpt lat="43.37909234439753" lon="10.911877082069022"><ele>353.75</ele><time>2026-04-18T09:28:01.001Z</time></trkpt><trkpt lat="43.378969251402864" lon="10.911907639586587"><ele>351.5</ele><time>2026-04-18T09:28:02.001Z</time></trkpt><trkpt lat="43.378837808812214" lon="10.9119511139277"><ele>349.25</ele><time>2026-04-18T09:28:03.001Z</time></trkpt><trkpt lat="43.37872891205632" lon="10.911992179687049"><ele>347.0</ele><time>2026-04-18T09:28:04.001Z</time></trkpt><trkpt lat="43.378627728785496" lon="10.912031834390222"><ele>345.75</ele><time>2026-04-18T09:28:05.001Z</time></trkpt><trkpt lat="43.37851470024417" lon="10.912087425856534"><ele>344.5</ele><time>2026-04-18T09:28:06.001Z</time></trkpt><trkpt lat="43.37839759681073" lon="10.912190094588023"><ele>343.25</ele><time>2026-04-18T09:28:07.001Z</time></trkpt><trkpt lat="43.37827643094261" lon="10.912326938141078"><ele>342.0</ele><time>2026-04-18T09:28:08.001Z</time></trkpt><trkpt lat="43.37816829604209" lon="10.912483661272834"><ele>340.0</ele><time>2026-04-18T09:28:09.001Z</time></trkpt><trkpt lat="43.37805500970495" lon="10.912598725085044"><ele>338.0</ele><time>2026-04-18T09:28:10.001Z</time></trkpt><trkpt lat="43.37794382405619" lon="10.91271480220372"><ele>336.0</ele><time>2026-04-18T09:28:11.001Z</time></trkpt><trkpt lat="43.377825633541335" lon="10.91281026944933"><ele>334.0</ele><time>2026-04-18T09:28:12.001Z</time></trkpt><trkpt lat="43.377681321522076" lon="10.91286888840368"><ele>332.3333333333333</ele><time>2026-04-18T09:28:13.001Z</time></trkpt><trkpt lat="43.37751925157923" lon="10.912886042548793"><ele>330.6666666666667</ele><time>2026-04-18T09:28:14.001Z</time></trkpt><trkpt lat="43.37735993458708" lon="10.912879912182293"><ele>329.0</ele><time>2026-04-18T09:28:15.001Z</time></trkpt><trkpt lat="43.37721727020025" lon="10.91288064243409"><ele>329.0</ele><time>2026-04-18T09:28:16.001Z</time></trkpt><trkpt lat="43.377099495199346" lon="10.912801949442535"><ele>329.0</ele><time>2026-04-18T09:28:17.001Z</time></trkpt><trkpt lat="43.376984984787185" lon="10.912695215069446"><ele>329.0</ele><time>2026-04-18T09:28:18.001Z</time></trkpt><trkpt lat="43.37686638820154" lon="10.91255947706298"><ele>329.0</ele><time>2026-04-18T09:28:19.001Z</time></trkpt><trkpt lat="43.37675181896637" lon="10.912466944902963"><ele>329.75</ele><time>2026-04-18T09:28:20.001Z</time></trkpt><trkpt lat="43.37664415427488" lon="10.912387224318758"><ele>330.5</ele><time>2026-04-18T09:28:21.001Z</time></trkpt><trkpt lat="43.3765129721353" lon="10.91232572719231"><ele>331.25</ele><time>2026-04-18T09:28:22.001Z</time></trkpt><trkpt lat="43.37636530001369" lon="10.912260648453898"><ele>332.0</ele><time>2026-04-18T09:28:23.001Z</time></trkpt><trkpt lat="43.37624199835256" lon="10.912147036023667"><ele>333.33333333333337</ele><time>2026-04-18T09:28:24.001Z</time></trkpt><trkpt lat="43.37611991930051" lon="10.912027666984688"><ele>334.6666666666667</ele><time>2026-04-18T09:28:25.001Z</time></trkpt><trkpt lat="43.375991122567704" lon="10.911900351727926"><ele>336.0</ele><time>2026-04-18T09:28:26.001Z</time></trkpt><trkpt lat="43.37587602171975" lon="10.911766018011924"><ele>334.75</ele><time>2026-04-18T09:28:27.001Z</time></trkpt><trkpt lat="43.37575573711544" lon="10.911638553880898"><ele>333.5</ele><time>2026-04-18T09:28:28.001Z</time></trkpt><trkpt lat="43.37565086664635" lon="10.911479777862167"><ele>332.25</ele><time>2026-04-18T09:28:29.001Z</time></trkpt><trkpt lat="43.375557393569665" lon="10.911338292711795"><ele>331.0</ele><time>2026-04-18T09:28:30.001Z</time></trkpt><trkpt lat="43.3754692121736" lon="10.911210817435702"><ele>331.0</ele><time>2026-04-18T09:28:31.001Z</time></trkpt><trkpt lat="43.37539347696366" lon="10.911081603950493"><ele>331.0</ele><time>2026-04-18T09:28:32.001Z</time></trkpt><trkpt lat="43.37529513671858" lon="10.91099824650497"><ele>331.0</ele><time>2026-04-18T09:28:33.001Z</time></trkpt><trkpt lat="43.37519793640135" lon="10.910884549678284"><ele>331.0</ele><time>2026-04-18T09:28:34.001Z</time></trkpt><trkpt lat="43.375099480350556" lon="10.910779558865672"><ele>327.5</ele><time>2026-04-18T09:28:35.001Z</time></trkpt><trkpt lat="43.375010637955434" lon="10.910633040560645"><ele>324.0</ele><time>2026-04-18T09:28:36.001Z</time></trkpt><trkpt lat="43.37493587247337" lon="10.910459105652752"><ele>320.5</ele><time>2026-04-18T09:28:37.001Z</time></trkpt><trkpt lat="43.37485292411495" lon="10.91028571590725"><ele>317.0</ele><time>2026-04-18T09:28:38.001Z</time></trkpt><trkpt lat="43.374794727372056" lon="10.910099100583473"><ele>313.75</ele><time>2026-04-18T09:28:39.001Z</time></trkpt><trkpt lat="43.37473330300477" lon="10.909911141019968"><ele>310.5</ele><time>2026-04-18T09:28:40.001Z</time></trkpt><trkpt lat="43.374658221490265" lon="10.909752350763165"><ele>307.25</ele><time>2026-04-18T09:28:41.001Z</time></trkpt><trkpt lat="43.37458465844195" lon="10.909608950255098"><ele>304.0</ele><time>2026-04-18T09:28:42.001Z</time></trkpt><trkpt lat="43.374490095471444" lon="10.909468685247596"><ele>303.75</ele><time>2026-04-18T09:28:43.001Z</time></trkpt><trkpt lat="43.37438738860379" lon="10.90934439178999"><ele>303.5</ele><time>2026-04-18T09:28:44.001Z</time></trkpt><trkpt lat="43.374285088750696" lon="10.909231101090448"><ele>303.25</ele><time>2026-04-18T09:28:45.001Z</time></trkpt><trkpt lat="43.3741996824499" lon="10.90913313632462"><ele>303.0</ele><time>2026-04-18T09:28:46.001Z</time></trkpt><trkpt lat="43.374136316812475" lon="10.909028716280085"><ele>303.0</ele><time>2026-04-18T09:28:47.001Z</time></trkpt><trkpt lat="43.374067774723265" lon="10.908965439287691"><ele>303.0</ele><time>2026-04-18T09:28:48.001Z</time></trkpt><trkpt lat="43.37401918210555" lon="10.90888984457747"><ele>303.0</ele><time>2026-04-18T09:28:49.001Z</time></trkpt><trkpt lat="43.3739289619708" lon="10.908774599520106"><ele>303.0</ele><time>2026-04-18T09:28:51.001Z</time></trkpt><trkpt lat="43.37387594401042" lon="10.908725327979946"><ele>303.0</ele><time>2026-04-18T09:28:52.001Z</time></trkpt><trkpt lat="43.37381259785675" lon="10.908668764034108"><ele>303.0</ele><time>2026-04-18T09:28:53.001Z</time></trkpt><trkpt lat="43.373749800043385" lon="10.908591715645928"><ele>303.1666666666667</ele><time>2026-04-18T09:28:54.001Z</time></trkpt><trkpt lat="43.373680887821436" lon="10.908543146065435"><ele>303.3333333333333</ele><time>2026-04-18T09:28:55.001Z</time></trkpt><trkpt lat="43.373610380860015" lon="10.908499979794458"><ele>303.5</ele><time>2026-04-18T09:28:56.001Z</time></trkpt><trkpt lat="43.373539349608045" lon="10.908457396995551"><ele>303.66666666666663</ele><time>2026-04-18T09:28:57.001Z</time></trkpt><trkpt lat="43.37346514812154" lon="10.908412913639607"><ele>303.8333333333333</ele><time>2026-04-18T09:28:58.001Z</time></trkpt><trkpt lat="43.37339029965639" lon="10.908368042418555"><ele>304.0</ele><time>2026-04-18T09:28:59.001Z</time></trkpt><trkpt lat="43.37330597766724" lon="10.90833597036104"><ele>304.0</ele><time>2026-04-18T09:29:00.001Z</time></trkpt><trkpt lat="43.37322787196946" lon="10.90828170368194"><ele>304.0</ele><time>2026-04-18T09:29:01.001Z</time></trkpt><trkpt lat="43.37314489535369" lon="10.908223815000667"><ele>304.0</ele><time>2026-04-18T09:29:02.001Z</time></trkpt><trkpt lat="43.37305525321807" lon="10.908158495521613"><ele>304.0</ele><time>2026-04-18T09:29:03.001Z</time></trkpt><trkpt lat="43.37295684339223" lon="10.908090332978551"><ele>304.0</ele><time>2026-04-18T09:29:04Z</time></trkpt><trkpt lat="43.37285171154696" lon="10.908030191766406"><ele>304.0</ele><time>2026-04-18T09:29:05Z</time></trkpt><trkpt lat="43.37273926547332" lon="10.907969516062652"><ele>304.0</ele><time>2026-04-18T09:29:06Z</time></trkpt><trkpt lat="43.37262377206152" lon="10.90790726158867"><ele>304.0</ele><time>2026-04-18T09:29:07Z</time></trkpt><trkpt lat="43.37250145502746" lon="10.90784574600196"><ele>304.0</ele><time>2026-04-18T09:29:08Z</time></trkpt><trkpt lat="43.37237614515866" lon="10.907788130795254"><ele>304.0</ele><time>2026-04-18T09:29:09Z</time></trkpt><trkpt lat="43.37224049849939" lon="10.907725306319005"><ele>304.0</ele><time>2026-04-18T09:29:10Z</time></trkpt><trkpt lat="43.37210444037423" lon="10.907651524311383"><ele>304.0</ele><time>2026-04-18T09:29:11Z</time></trkpt><trkpt lat="43.37196865868359" lon="10.907583993517582"><ele>304.0</ele><time>2026-04-18T09:29:12Z</time></trkpt><trkpt lat="43.37182686500566" lon="10.907522532776538"><ele>303.75</ele><time>2026-04-18T09:29:13Z</time></trkpt><trkpt lat="43.37170278641856" lon="10.907461898323472"><ele>303.5</ele><time>2026-04-18T09:29:14Z</time></trkpt><trkpt lat="43.3715712652856" lon="10.90739824102731"><ele>303.25</ele><time>2026-04-18T09:29:15Z</time></trkpt><trkpt lat="43.37143152115637" lon="10.907328471256767"><ele>303.0</ele><time>2026-04-18T09:29:16Z</time></trkpt><trkpt lat="43.37130279352488" lon="10.907265345274354"><ele>303.0</ele><time>2026-04-18T09:29:17Z</time></trkpt><trkpt lat="43.37118240710104" lon="10.9072108364223"><ele>303.0</ele><time>2026-04-18T09:29:18Z</time></trkpt><trkpt lat="43.37107089402692" lon="10.90716750905124"><ele>303.0</ele><time>2026-04-18T09:29:19Z</time></trkpt><trkpt lat="43.370966133765855" lon="10.907127057183311"><ele>303.0</ele><time>2026-04-18T09:29:20Z</time></trkpt><trkpt lat="43.37087719968093" lon="10.907080109030282"><ele>303.0</ele><time>2026-04-18T09:29:21Z</time></trkpt><trkpt lat="43.37080346040622" lon="10.907020262928361"><ele>303.0</ele><time>2026-04-18T09:29:22Z</time></trkpt><trkpt lat="43.37070710266907" lon="10.907074988133807"><ele>303.0</ele><time>2026-04-18T09:29:23Z</time></trkpt><trkpt lat="43.37061301575852" lon="10.907118333965052"><ele>303.0</ele><time>2026-04-18T09:29:24Z</time></trkpt><trkpt lat="43.37049639320506" lon="10.907152014667725"><ele>303.0</ele><time>2026-04-18T09:29:25Z</time></trkpt><trkpt lat="43.3703754359254" lon="10.907187075787888"><ele>303.0</ele><time>2026-04-18T09:29:26Z</time></trkpt><trkpt lat="43.37023915414074" lon="10.907205309092014"><ele>301.75</ele><time>2026-04-18T09:29:27Z</time></trkpt><trkpt lat="43.37011173996441" lon="10.907195526277802"><ele>300.5</ele><time>2026-04-18T09:29:28Z</time></trkpt><trkpt lat="43.36999422806335" lon="10.90720938350462"><ele>299.25</ele><time>2026-04-18T09:29:29Z</time></trkpt><trkpt lat="43.36986914792924" lon="10.907230355169897"><ele>298.0</ele><time>2026-04-18T09:29:30Z</time></trkpt><trkpt lat="43.3697438171331" lon="10.907317574774826"><ele>298.5</ele><time>2026-04-18T09:29:31Z</time></trkpt><trkpt lat="43.36961372548467" lon="10.907375713917205"><ele>299.0</ele><time>2026-04-18T09:29:32Z</time></trkpt><trkpt lat="43.369507949101326" lon="10.907442147007298"><ele>299.5</ele><time>2026-04-18T09:29:33Z</time></trkpt><trkpt lat="43.36940148065321" lon="10.907454628880942"><ele>300.0</ele><time>2026-04-18T09:29:34Z</time></trkpt><trkpt lat="43.36930803611547" lon="10.907463026572092"><ele>300.0</ele><time>2026-04-18T09:29:35.001Z</time></trkpt><trkpt lat="43.36921596070216" lon="10.907505441186542"><ele>300.0</ele><time>2026-04-18T09:29:36.001Z</time></trkpt><trkpt lat="43.36912877208799" lon="10.907556330273943"><ele>300.0</ele><time>2026-04-18T09:29:37.001Z</time></trkpt><trkpt lat="43.36903082012213" lon="10.907588053509917"><ele>300.0</ele><time>2026-04-18T09:29:38.001Z</time></trkpt><trkpt lat="43.368937759764336" lon="10.907591726516385"><ele>300.0</ele><time>2026-04-18T09:29:39.001Z</time></trkpt><trkpt lat="43.36883851640648" lon="10.907576068533272"><ele>297.6</ele><time>2026-04-18T09:29:40.001Z</time></trkpt><trkpt lat="43.3687617681957" lon="10.907552920207808"><ele>295.2</ele><time>2026-04-18T09:29:41.001Z</time></trkpt><trkpt lat="43.368662806379945" lon="10.907484918377657"><ele>292.8</ele><time>2026-04-18T09:29:43.001Z</time></trkpt><trkpt lat="43.36858276202154" lon="10.907438348646401"><ele>290.4</ele><time>2026-04-18T09:29:45.001Z</time></trkpt><trkpt lat="43.36849149012506" lon="10.907377594231606"><ele>288.0</ele><time>2026-04-18T09:29:48.001Z</time></trkpt><trkpt lat="43.3684263632114" lon="10.907325498976695"><ele>288.0</ele><time>2026-04-18T09:29:51.001Z</time></trkpt><trkpt lat="43.36834765595074" lon="10.907288331354978"><ele>288.0</ele><time>2026-04-18T09:29:53.001Z</time></trkpt><trkpt lat="43.36829234004586" lon="10.90721570004955"><ele>288.0</ele><time>2026-04-18T09:29:54.001Z</time></trkpt><trkpt lat="43.36821292230451" lon="10.907166310661486"><ele>288.0</ele><time>2026-04-18T09:29:55.001Z</time></trkpt><trkpt lat="43.36810790537719" lon="10.907131426759532"><ele>288.0</ele><time>2026-04-18T09:29:56.001Z</time></trkpt><trkpt lat="43.36799064589021" lon="10.907091258497104"><ele>285.6</ele><time>2026-04-18T09:29:57.001Z</time></trkpt><trkpt lat="43.36788109902125" lon="10.907075855336036"><ele>283.20000000000005</ele><time>2026-04-18T09:29:58.001Z</time></trkpt><trkpt lat="43.367784037042" lon="10.907079813534128"><ele>280.8</ele><time>2026-04-18T09:29:59.001Z</time></trkpt><trkpt lat="43.36768228372689" lon="10.907088674994002"><ele>278.40000000000003</ele><time>2026-04-18T09:30:00.001Z</time></trkpt><trkpt lat="43.36757335225012" lon="10.90710411054317"><ele>276.0</ele><time>2026-04-18T09:30:01.001Z</time></trkpt><trkpt lat="43.367471887936716" lon="10.90707199008299"><ele>276.0</ele><time>2026-04-18T09:30:02.001Z</time></trkpt><trkpt lat="43.36736628626068" lon="10.907017295026309"><ele>276.0</ele><time>2026-04-18T09:30:03.001Z</time></trkpt><trkpt lat="43.36727358827366" lon="10.906923276376304"><ele>276.0</ele><time>2026-04-18T09:30:04.001Z</time></trkpt><trkpt lat="43.367158672260196" lon="10.90685019980391"><ele>276.0</ele><time>2026-04-18T09:30:05.001Z</time></trkpt><trkpt lat="43.36703693404796" lon="10.906760874948311"><ele>276.0</ele><time>2026-04-18T09:30:06.001Z</time></trkpt><trkpt lat="43.36689722828047" lon="10.906655331178742"><ele>276.0</ele><time>2026-04-18T09:30:07.001Z</time></trkpt><trkpt lat="43.36675612564236" lon="10.90654071199399"><ele>276.0</ele><time>2026-04-18T09:30:08.001Z</time></trkpt><trkpt lat="43.36663969391741" lon="10.906440232137534"><ele>276.0</ele><time>2026-04-18T09:30:09.001Z</time></trkpt><trkpt lat="43.36651160854763" lon="10.90630453984498"><ele>276.0</ele><time>2026-04-18T09:30:10.001Z</time></trkpt><trkpt lat="43.36639308616472" lon="10.906167884422105"><ele>276.0</ele><time>2026-04-18T09:30:11.001Z</time></trkpt><trkpt lat="43.366290323400094" lon="10.906045920766179"><ele>276.2</ele><time>2026-04-18T09:30:12.001Z</time></trkpt><trkpt lat="43.36619573970254" lon="10.90594895714031"><ele>276.40000000000003</ele><time>2026-04-18T09:30:13.001Z</time></trkpt><trkpt lat="43.366118541862036" lon="10.905868900077229"><ele>276.6</ele><time>2026-04-18T09:30:14.001Z</time></trkpt><trkpt lat="43.366051441532754" lon="10.905815271206565"><ele>276.8</ele><time>2026-04-18T09:30:15.001Z</time></trkpt><trkpt lat="43.36597652897371" lon="10.905780604992351"><ele>277.0</ele><time>2026-04-18T09:30:16.001Z</time></trkpt><trkpt lat="43.365890378139206" lon="10.905753117294099"><ele>277.0</ele><time>2026-04-18T09:30:17.001Z</time></trkpt><trkpt lat="43.36579379436043" lon="10.905756505661225"><ele>277.0</ele><time>2026-04-18T09:30:18.001Z</time></trkpt><trkpt lat="43.3656890431809" lon="10.905766046863627"><ele>277.0</ele><time>2026-04-18T09:30:19.001Z</time></trkpt><trkpt lat="43.36556881824823" lon="10.90577504271805"><ele>277.0</ele><time>2026-04-18T09:30:20.001Z</time></trkpt><trkpt lat="43.36544477659712" lon="10.905779916357378"><ele>277.0</ele><time>2026-04-18T09:30:21.001Z</time></trkpt><trkpt lat="43.36531325594546" lon="10.905786078772064"><ele>276.75</ele><time>2026-04-18T09:30:22.001Z</time></trkpt><trkpt lat="43.36517569987444" lon="10.905788707712182"><ele>276.5</ele><time>2026-04-18T09:30:23.001Z</time></trkpt><trkpt lat="43.36506173446015" lon="10.905785472269695"><ele>276.25</ele><time>2026-04-18T09:30:24.001Z</time></trkpt><trkpt lat="43.364947971633576" lon="10.905767917583786"><ele>276.0</ele><time>2026-04-18T09:30:25.001Z</time></trkpt><trkpt lat="43.36483583650633" lon="10.905726827480823"><ele>276.0</ele><time>2026-04-18T09:30:26.001Z</time></trkpt><trkpt lat="43.36474086816308" lon="10.905642113396196"><ele>276.0</ele><time>2026-04-18T09:30:27.001Z</time></trkpt><trkpt lat="43.364620954278266" lon="10.905568989775201"><ele>276.0</ele><time>2026-04-18T09:30:28.001Z</time></trkpt><trkpt lat="43.36449016753968" lon="10.905506141338748"><ele>276.0</ele><time>2026-04-18T09:30:29.001Z</time></trkpt><trkpt lat="43.36436146183382" lon="10.905407990821018"><ele>279.0</ele><time>2026-04-18T09:30:30.001Z</time></trkpt><trkpt lat="43.36421810369369" lon="10.905309811895098"><ele>282.0</ele><time>2026-04-18T09:30:31.001Z</time></trkpt><trkpt lat="43.36407969455279" lon="10.90522672893909"><ele>285.0</ele><time>2026-04-18T09:30:32.001Z</time></trkpt><trkpt lat="43.36394595127134" lon="10.90516509263212"><ele>285.75</ele><time>2026-04-18T09:30:33.001Z</time></trkpt><trkpt lat="43.36381599404957" lon="10.90507810497922"><ele>286.5</ele><time>2026-04-18T09:30:34.001Z</time></trkpt><trkpt lat="43.3636895586132" lon="10.904985714088232"><ele>287.25</ele><time>2026-04-18T09:30:35.001Z</time></trkpt><trkpt lat="43.36358111218346" lon="10.904891536853734"><ele>288.0</ele><time>2026-04-18T09:30:36.001Z</time></trkpt><trkpt lat="43.363471688127674" lon="10.904814422297726"><ele>288.0</ele><time>2026-04-18T09:30:37.001Z</time></trkpt><trkpt lat="43.363350782833805" lon="10.904724460232393"><ele>288.0</ele><time>2026-04-18T09:30:38.001Z</time></trkpt><trkpt lat="43.36322528915645" lon="10.904659938694856"><ele>288.0</ele><time>2026-04-18T09:30:39.001Z</time></trkpt><trkpt lat="43.36309854853522" lon="10.90462893591731"><ele>288.0</ele><time>2026-04-18T09:30:40.001Z</time></trkpt><trkpt lat="43.36295929494394" lon="10.904601854310995"><ele>288.0</ele><time>2026-04-18T09:30:41.001Z</time></trkpt><trkpt lat="43.362813886678964" lon="10.904568102205237"><ele>288.0</ele><time>2026-04-18T09:30:42.001Z</time></trkpt><trkpt lat="43.36266984465962" lon="10.904505041108688"><ele>288.0</ele><time>2026-04-18T09:30:43.001Z</time></trkpt><trkpt lat="43.36253540376845" lon="10.904492447128012"><ele>288.0</ele><time>2026-04-18T09:30:44.001Z</time></trkpt><trkpt lat="43.362394605745735" lon="10.904467239513576"><ele>288.0</ele><time>2026-04-18T09:30:45.001Z</time></trkpt><trkpt lat="43.36226405165164" lon="10.904456768050501"><ele>288.0</ele><time>2026-04-18T09:30:46.002Z</time></trkpt><trkpt lat="43.36213455992356" lon="10.904441660421131"><ele>288.0</ele><time>2026-04-18T09:30:47.002Z</time></trkpt><trkpt lat="43.362004592612465" lon="10.904417404565534"><ele>288.0</ele><time>2026-04-18T09:30:48.002Z</time></trkpt><trkpt lat="43.361876442976715" lon="10.904374542346853"><ele>286.75</ele><time>2026-04-18T09:30:49.002Z</time></trkpt><trkpt lat="43.3617416225619" lon="10.90432538482199"><ele>285.5</ele><time>2026-04-18T09:30:50.002Z</time></trkpt><trkpt lat="43.36160990502241" lon="10.90427142155207"><ele>284.25</ele><time>2026-04-18T09:30:51.002Z</time></trkpt><trkpt lat="43.3614697030622" lon="10.904213511913758"><ele>283.0</ele><time>2026-04-18T09:30:52.002Z</time></trkpt><trkpt lat="43.361333701788794" lon="10.904160715923538"><ele>282.25</ele><time>2026-04-18T09:30:53.002Z</time></trkpt><trkpt lat="43.36118219729536" lon="10.904096982110088"><ele>281.5</ele><time>2026-04-18T09:30:54.002Z</time></trkpt><trkpt lat="43.3610559984446" lon="10.904052002804402"><ele>280.75</ele><time>2026-04-18T09:30:55.002Z</time></trkpt><trkpt lat="43.360938862372734" lon="10.904011440391502"><ele>280.0</ele><time>2026-04-18T09:30:56.002Z</time></trkpt><trkpt lat="43.36081373188412" lon="10.903974271904998"><ele>280.0</ele><time>2026-04-18T09:30:57.002Z</time></trkpt><trkpt lat="43.360704294428594" lon="10.903948854933384"><ele>280.0</ele><time>2026-04-18T09:30:58.002Z</time></trkpt><trkpt lat="43.360611238979175" lon="10.903916699138742"><ele>280.0</ele><time>2026-04-18T09:30:59.002Z</time></trkpt><trkpt lat="43.36050980977507" lon="10.903904578894936"><ele>280.0</ele><time>2026-04-18T09:31:00.002Z</time></trkpt><trkpt lat="43.360407198968524" lon="10.903903039911565"><ele>280.0</ele><time>2026-04-18T09:31:01.002Z</time></trkpt><trkpt lat="43.36030429483388" lon="10.903927536190963"><ele>279.25</ele><time>2026-04-18T09:31:02.002Z</time></trkpt><trkpt lat="43.36018143246572" lon="10.903979472415305"><ele>278.5</ele><time>2026-04-18T09:31:03.002Z</time></trkpt><trkpt lat="43.36003683932378" lon="10.904035036729386"><ele>277.75</ele><time>2026-04-18T09:31:04.002Z</time></trkpt><trkpt lat="43.35989947415248" lon="10.904137943746095"><ele>277.0</ele><time>2026-04-18T09:31:05.002Z</time></trkpt><trkpt lat="43.35977062637024" lon="10.904205270914614"><ele>276.25</ele><time>2026-04-18T09:31:06.002Z</time></trkpt><trkpt lat="43.35964684548905" lon="10.90426603563772"><ele>275.5</ele><time>2026-04-18T09:31:07.002Z</time></trkpt><trkpt lat="43.35952653824785" lon="10.904317566876276"><ele>274.75</ele><time>2026-04-18T09:31:08.002Z</time></trkpt><trkpt lat="43.35942207122868" lon="10.904354328476309"><ele>274.0</ele><time>2026-04-18T09:31:09.002Z</time></trkpt><trkpt lat="43.3593355571625" lon="10.904397015383159"><ele>274.0</ele><time>2026-04-18T09:31:10.001Z</time></trkpt><trkpt lat="43.35922841491633" lon="10.904474924905111"><ele>274.0</ele><time>2026-04-18T09:31:11.001Z</time></trkpt><trkpt lat="43.35913028148738" lon="10.904590476942866"><ele>274.0</ele><time>2026-04-18T09:31:12.001Z</time></trkpt><trkpt lat="43.359041715623896" lon="10.904704243502064"><ele>274.0</ele><time>2026-04-18T09:31:13.001Z</time></trkpt><trkpt lat="43.35894906559587" lon="10.904798552421541"><ele>274.0</ele><time>2026-04-18T09:31:14.001Z</time></trkpt><trkpt lat="43.35885065599184" lon="10.904864758110358"><ele>274.0</ele><time>2026-04-18T09:31:15.001Z</time></trkpt><trkpt lat="43.35875338320643" lon="10.904895178738219"><ele>274.0</ele><time>2026-04-18T09:31:16.001Z</time></trkpt><trkpt lat="43.35865087627211" lon="10.90491399922279"><ele>274.0</ele><time>2026-04-18T09:31:17.001Z</time></trkpt><trkpt lat="43.358536931865956" lon="10.904914276568723"><ele>274.0</ele><time>2026-04-18T09:31:18.001Z</time></trkpt><trkpt lat="43.35841556383148" lon="10.904916684915971"><ele>274.0</ele><time>2026-04-18T09:31:19.001Z</time></trkpt><trkpt lat="43.35829904734025" lon="10.904868406321949"><ele>274.0</ele><time>2026-04-18T09:31:20.001Z</time></trkpt><trkpt lat="43.35817985631979" lon="10.904832653210809"><ele>274.0</ele><time>2026-04-18T09:31:21.001Z</time></trkpt><trkpt lat="43.358067020781604" lon="10.904754167615224"><ele>274.0</ele><time>2026-04-18T09:31:22.001Z</time></trkpt><trkpt lat="43.357959776689846" lon="10.904676506836804"><ele>274.0</ele><time>2026-04-18T09:31:23.001Z</time></trkpt><trkpt lat="43.35785114011561" lon="10.904582160262947"><ele>274.0</ele><time>2026-04-18T09:31:24.001Z</time></trkpt><trkpt lat="43.35775054069284" lon="10.90449159495889"><ele>274.0</ele><time>2026-04-18T09:31:25.001Z</time></trkpt><trkpt lat="43.35764951796241" lon="10.904405278057833"><ele>274.0</ele><time>2026-04-18T09:31:26.001Z</time></trkpt><trkpt lat="43.35756171151753" lon="10.904346679376877"><ele>274.0</ele><time>2026-04-18T09:31:27.001Z</time></trkpt><trkpt lat="43.35747973965159" lon="10.904322704343619"><ele>274.0</ele><time>2026-04-18T09:31:28.001Z</time></trkpt><trkpt lat="43.35739130803107" lon="10.904311544391003"><ele>274.0</ele><time>2026-04-18T09:31:29.001Z</time></trkpt><trkpt lat="43.35729360703897" lon="10.904321842906421"><ele>274.0</ele><time>2026-04-18T09:31:30.001Z</time></trkpt><trkpt lat="43.35716585646192" lon="10.904332638839485"><ele>274.0</ele><time>2026-04-18T09:31:31.001Z</time></trkpt><trkpt lat="43.357022945273634" lon="10.90431570544462"><ele>272.75</ele><time>2026-04-18T09:31:32.001Z</time></trkpt><trkpt lat="43.356876123501436" lon="10.904322071346137"><ele>271.5</ele><time>2026-04-18T09:31:33.001Z</time></trkpt><trkpt lat="43.35673314676144" lon="10.904351000449926"><ele>270.25</ele><time>2026-04-18T09:31:34.001Z</time></trkpt><trkpt lat="43.35659384435433" lon="10.90435655758732"><ele>269.0</ele><time>2026-04-18T09:31:35.001Z</time></trkpt><trkpt lat="43.356463860827716" lon="10.904369193818901"><ele>269.5</ele><time>2026-04-18T09:31:36.001Z</time></trkpt><trkpt lat="43.35633733099017" lon="10.904371876059791"><ele>270.0</ele><time>2026-04-18T09:31:37.001Z</time></trkpt><trkpt lat="43.356213441765945" lon="10.904359940701761"><ele>270.5</ele><time>2026-04-18T09:31:38.001Z</time></trkpt><trkpt lat="43.3560865697567" lon="10.90433532365956"><ele>271.0</ele><time>2026-04-18T09:31:39.001Z</time></trkpt><trkpt lat="43.35595846291876" lon="10.904292228787666"><ele>273.0</ele><time>2026-04-18T09:31:40.001Z</time></trkpt><trkpt lat="43.355821505101446" lon="10.904243384634642"><ele>275.0</ele><time>2026-04-18T09:31:41.001Z</time></trkpt><trkpt lat="43.35569864030535" lon="10.904209688714694"><ele>277.0</ele><time>2026-04-18T09:31:42.001Z</time></trkpt><trkpt lat="43.35559740350209" lon="10.904170050029755"><ele>279.0</ele><time>2026-04-18T09:31:43.001Z</time></trkpt><trkpt lat="43.35549280620989" lon="10.904114870525731"><ele>279.0</ele><time>2026-04-18T09:31:44.001Z</time></trkpt><trkpt lat="43.355397748810496" lon="10.904064177187854"><ele>279.0</ele><time>2026-04-18T09:31:45.001Z</time></trkpt><trkpt lat="43.355298739572426" lon="10.904005015612105"><ele>279.0</ele><time>2026-04-18T09:31:46.001Z</time></trkpt><trkpt lat="43.35519038066152" lon="10.90393384768979"><ele>279.0</ele><time>2026-04-18T09:31:47.001Z</time></trkpt><trkpt lat="43.355078570246725" lon="10.90384039906174"><ele>279.0</ele><time>2026-04-18T09:31:48.001Z</time></trkpt><trkpt lat="43.35498381994424" lon="10.903736789141247"><ele>279.0</ele><time>2026-04-18T09:31:49.001Z</time></trkpt><trkpt lat="43.35489351879058" lon="10.903626723293792"><ele>279.0</ele><time>2026-04-18T09:31:50.001Z</time></trkpt><trkpt lat="43.35479385909286" lon="10.903501579696625"><ele>279.0</ele><time>2026-04-18T09:31:51.001Z</time></trkpt><trkpt lat="43.35468510712556" lon="10.903387680506379"><ele>279.75</ele><time>2026-04-18T09:31:52.001Z</time></trkpt><trkpt lat="43.35456977718075" lon="10.903268372189698"><ele>280.5</ele><time>2026-04-18T09:31:53.001Z</time></trkpt><trkpt lat="43.35446055051292" lon="10.903145675469874"><ele>281.25</ele><time>2026-04-18T09:31:54.001Z</time></trkpt><trkpt lat="43.3543422168577" lon="10.903011713360877"><ele>282.0</ele><time>2026-04-18T09:31:55.001Z</time></trkpt><trkpt lat="43.35423667858136" lon="10.902889773515248"><ele>282.0</ele><time>2026-04-18T09:31:56.001Z</time></trkpt><trkpt lat="43.3541394798462" lon="10.90277814359089"><ele>282.0</ele><time>2026-04-18T09:31:57.001Z</time></trkpt><trkpt lat="43.35404924857525" lon="10.90267177814792"><ele>282.0</ele><time>2026-04-18T09:31:58.001Z</time></trkpt><trkpt lat="43.35397353827504" lon="10.902592087562176"><ele>282.0</ele><time>2026-04-18T09:31:59.001Z</time></trkpt><trkpt lat="43.35390230314203" lon="10.90252824498632"><ele>282.0</ele><time>2026-04-18T09:32:00.001Z</time></trkpt><trkpt lat="43.35382701503572" lon="10.902473943869056"><ele>280.3333333333333</ele><time>2026-04-18T09:32:01.001Z</time></trkpt><trkpt lat="43.353753602721184" lon="10.90243024626128"><ele>278.6666666666667</ele><time>2026-04-18T09:32:02.001Z</time></trkpt><trkpt lat="43.35367515133745" lon="10.90241933917239"><ele>277.0</ele><time>2026-04-18T09:32:03.001Z</time></trkpt><trkpt lat="43.3535956489437" lon="10.902426742996639"><ele>275.33333333333337</ele><time>2026-04-18T09:32:04.001Z</time></trkpt><trkpt lat="43.35350163048613" lon="10.902445478172961"><ele>273.6666666666667</ele><time>2026-04-18T09:32:05.001Z</time></trkpt><trkpt lat="43.35341092806813" lon="10.902465092694888"><ele>272.0</ele><time>2026-04-18T09:32:06.001Z</time></trkpt><trkpt lat="43.353327153075746" lon="10.902476873932688"><ele>272.0</ele><time>2026-04-18T09:32:07.001Z</time></trkpt><trkpt lat="43.35324118965059" lon="10.90250398135177"><ele>272.0</ele><time>2026-04-18T09:32:08.001Z</time></trkpt><trkpt lat="43.35316990516146" lon="10.902534391820511"><ele>272.0</ele><time>2026-04-18T09:32:09.001Z</time></trkpt><trkpt lat="43.35308697830408" lon="10.902570240771315"><ele>272.0</ele><time>2026-04-18T09:32:10.001Z</time></trkpt><trkpt lat="43.35299272983635" lon="10.902658683912918"><ele>272.0</ele><time>2026-04-18T09:32:12.001Z</time></trkpt><trkpt lat="43.3529213513119" lon="10.902694674573668"><ele>272.0</ele><time>2026-04-18T09:32:14.001Z</time></trkpt><trkpt lat="43.35284386736403" lon="10.902601303016489"><ele>268.8</ele><time>2026-04-18T09:32:16.001Z</time></trkpt><trkpt lat="43.35283209741038" lon="10.90243166536441"><ele>265.6</ele><time>2026-04-18T09:32:18.001Z</time></trkpt><trkpt lat="43.35284284235514" lon="10.90231971635292"><ele>262.40000000000003</ele><time>2026-04-18T09:32:19.001Z</time></trkpt><trkpt lat="43.35286059227899" lon="10.902183566333699"><ele>259.2</ele><time>2026-04-18T09:32:20.001Z</time></trkpt><trkpt lat="43.35288348364679" lon="10.90206746180515"><ele>256.0</ele><time>2026-04-18T09:32:21.001Z</time></trkpt><trkpt lat="43.3529085614792" lon="10.90195036448755"><ele>256.0</ele><time>2026-04-18T09:32:22.001Z</time></trkpt><trkpt lat="43.352929183730076" lon="10.90183133026117"><ele>256.0</ele><time>2026-04-18T09:32:23.001Z</time></trkpt><trkpt lat="43.35295642843274" lon="10.901610251257074"><ele>256.0</ele><time>2026-04-18T09:32:25.001Z</time></trkpt><trkpt lat="43.35297146130988" lon="10.901523232443354"><ele>256.0</ele><time>2026-04-18T09:32:26.001Z</time></trkpt><trkpt lat="43.35298332337923" lon="10.901425601958563"><ele>256.0</ele><time>2026-04-18T09:32:27.001Z</time></trkpt><trkpt lat="43.35299508633732" lon="10.901314615684575"><ele>254.8</ele><time>2026-04-18T09:32:28.001Z</time></trkpt><trkpt lat="43.35300752529497" lon="10.901181223506809"><ele>253.60000000000002</ele><time>2026-04-18T09:32:29.001Z</time></trkpt><trkpt lat="43.353015747455615" lon="10.901042164641769"><ele>252.4</ele><time>2026-04-18T09:32:30.001Z</time></trkpt><trkpt lat="43.35303097230087" lon="10.900913076657337"><ele>251.2</ele><time>2026-04-18T09:32:31.001Z</time></trkpt><trkpt lat="43.35304758517148" lon="10.90079485279272"><ele>250.0</ele><time>2026-04-18T09:32:32.001Z</time></trkpt><trkpt lat="43.353060292673746" lon="10.900658013586854"><ele>250.0</ele><time>2026-04-18T09:32:33.001Z</time></trkpt><trkpt lat="43.35307052641508" lon="10.900526311635849"><ele>250.0</ele><time>2026-04-18T09:32:34.001Z</time></trkpt><trkpt lat="43.353081882632026" lon="10.900383360043328"><ele>250.0</ele><time>2026-04-18T09:32:35.001Z</time></trkpt><trkpt lat="43.353097360986105" lon="10.900242900885425"><ele>250.0</ele><time>2026-04-18T09:32:36.001Z</time></trkpt><trkpt lat="43.35311622598769" lon="10.900121926703022"><ele>250.0</ele><time>2026-04-18T09:32:37.001Z</time></trkpt><trkpt lat="43.353139248057616" lon="10.900012256062952"><ele>248.8</ele><time>2026-04-18T09:32:38.001Z</time></trkpt><trkpt lat="43.35315608497603" lon="10.899922414024152"><ele>247.6</ele><time>2026-04-18T09:32:39.001Z</time></trkpt><trkpt lat="43.3531787975054" lon="10.89981978542043"><ele>246.39999999999998</ele><time>2026-04-18T09:32:40.001Z</time></trkpt><trkpt lat="43.35321002492218" lon="10.899704434400569"><ele>245.2</ele><time>2026-04-18T09:32:41.001Z</time></trkpt><trkpt lat="43.35325404232651" lon="10.89949445150287"><ele>244.0</ele><time>2026-04-18T09:32:42.001Z</time></trkpt><trkpt lat="43.35330053566011" lon="10.89932393196486"><ele>242.25</ele><time>2026-04-18T09:32:43.002Z</time></trkpt><trkpt lat="43.353346566128785" lon="10.899156801027786"><ele>240.5</ele><time>2026-04-18T09:32:44.002Z</time></trkpt><trkpt lat="43.353383917838" lon="10.899014969271606"><ele>238.75</ele><time>2026-04-18T09:32:45.002Z</time></trkpt><trkpt lat="43.35342005149644" lon="10.898864416728987"><ele>237.0</ele><time>2026-04-18T09:32:46.002Z</time></trkpt><trkpt lat="43.353454833855885" lon="10.898700624694829"><ele>237.0</ele><time>2026-04-18T09:32:47.002Z</time></trkpt><trkpt lat="43.35347791893214" lon="10.898539225419318"><ele>237.0</ele><time>2026-04-18T09:32:48.002Z</time></trkpt><trkpt lat="43.353483071004405" lon="10.898373644181802"><ele>237.0</ele><time>2026-04-18T09:32:49.002Z</time></trkpt><trkpt lat="43.3534769670165" lon="10.89820851671592"><ele>237.0</ele><time>2026-04-18T09:32:50.002Z</time></trkpt><trkpt lat="43.35344588714879" lon="10.898046324904882"><ele>235.75</ele><time>2026-04-18T09:32:51.002Z</time></trkpt><trkpt lat="43.353391365587484" lon="10.897913349286252"><ele>234.5</ele><time>2026-04-18T09:32:52.002Z</time></trkpt><trkpt lat="43.3533459414527" lon="10.897787235680402"><ele>233.25</ele><time>2026-04-18T09:32:53.002Z</time></trkpt><trkpt lat="43.35325686927961" lon="10.897585731191878"><ele>232.0</ele><time>2026-04-18T09:32:54.002Z</time></trkpt><trkpt lat="43.35317423355807" lon="10.897391176534295"><ele>231.0</ele><time>2026-04-18T09:32:55.002Z</time></trkpt><trkpt lat="43.35308957762072" lon="10.897178210382743"><ele>230.0</ele><time>2026-04-18T09:32:56.002Z</time></trkpt><trkpt lat="43.35302512741229" lon="10.897039421239299"><ele>229.0</ele><time>2026-04-18T09:32:57.002Z</time></trkpt><trkpt lat="43.35296345740228" lon="10.896847151712743"><ele>228.0</ele><time>2026-04-18T09:32:58.002Z</time></trkpt><trkpt lat="43.35289346727121" lon="10.896666588927147"><ele>226.33333333333331</ele><time>2026-04-18T09:32:59.002Z</time></trkpt><trkpt lat="43.35282023061419" lon="10.896484748494325"><ele>224.66666666666666</ele><time>2026-04-18T09:33:00.002Z</time></trkpt><trkpt lat="43.352729241319764" lon="10.896296686260897"><ele>223.0</ele><time>2026-04-18T09:33:01.002Z</time></trkpt><trkpt lat="43.35264104715101" lon="10.896114262384604"><ele>223.0</ele><time>2026-04-18T09:33:02.002Z</time></trkpt><trkpt lat="43.352553747777065" lon="10.895948579516329"><ele>223.0</ele><time>2026-04-18T09:33:03.002Z</time></trkpt><trkpt lat="43.35246080707202" lon="10.895774835616747"><ele>223.0</ele><time>2026-04-18T09:33:04.002Z</time></trkpt><trkpt lat="43.35238143833911" lon="10.895629729846195"><ele>223.0</ele><time>2026-04-18T09:33:05.002Z</time></trkpt><trkpt lat="43.35230608532285" lon="10.895495023145982"><ele>222.8</ele><time>2026-04-18T09:33:06.002Z</time></trkpt><trkpt lat="43.35223953784233" lon="10.895363142264067"><ele>222.60000000000002</ele><time>2026-04-18T09:33:07.002Z</time></trkpt><trkpt lat="43.35217750110158" lon="10.895243824044355"><ele>222.39999999999998</ele><time>2026-04-18T09:33:08.002Z</time></trkpt><trkpt lat="43.352111949560104" lon="10.895130618672267"><ele>222.2</ele><time>2026-04-18T09:33:09.002Z</time></trkpt><trkpt lat="43.35204018360362" lon="10.895013746885414"><ele>222.0</ele><time>2026-04-18T09:33:10.002Z</time></trkpt><trkpt lat="43.351960572449144" lon="10.89489992426808"><ele>222.0</ele><time>2026-04-18T09:33:11.002Z</time></trkpt><trkpt lat="43.35186681156923" lon="10.894788210336904"><ele>222.0</ele><time>2026-04-18T09:33:12.002Z</time></trkpt><trkpt lat="43.35177706674258" lon="10.894701904885599"><ele>222.0</ele><time>2026-04-18T09:33:13.002Z</time></trkpt><trkpt lat="43.351690188895034" lon="10.894624645528289"><ele>222.0</ele><time>2026-04-18T09:33:14.002Z</time></trkpt><trkpt lat="43.35159213085967" lon="10.894554952193078"><ele>222.0</ele><time>2026-04-18T09:33:15.002Z</time></trkpt><trkpt lat="43.351492955708174" lon="10.894471242137666"><ele>222.0</ele><time>2026-04-18T09:33:16.001Z</time></trkpt><trkpt lat="43.35138307190635" lon="10.894394268998195"><ele>222.0</ele><time>2026-04-18T09:33:17.001Z</time></trkpt><trkpt lat="43.35127363100438" lon="10.89430497060944"><ele>222.0</ele><time>2026-04-18T09:33:18.001Z</time></trkpt><trkpt lat="43.351177230093235" lon="10.894243203345267"><ele>222.0</ele><time>2026-04-18T09:33:19.001Z</time></trkpt><trkpt lat="43.3510765760014" lon="10.894201381872021"><ele>222.6</ele><time>2026-04-18T09:33:20.001Z</time></trkpt><trkpt lat="43.3509891404089" lon="10.894177329086855"><ele>223.2</ele><time>2026-04-18T09:33:21.001Z</time></trkpt><trkpt lat="43.350898202550844" lon="10.894156872156374"><ele>223.8</ele><time>2026-04-18T09:33:22.001Z</time></trkpt><trkpt lat="43.35081215663158" lon="10.894134976957146"><ele>224.4</ele><time>2026-04-18T09:33:23.001Z</time></trkpt><trkpt lat="43.35072134474615" lon="10.894119695153707"><ele>225.0</ele><time>2026-04-18T09:33:24.001Z</time></trkpt><trkpt lat="43.350620877540976" lon="10.8941182776072"><ele>224.83333333333334</ele><time>2026-04-18T09:33:25.001Z</time></trkpt><trkpt lat="43.35053055257119" lon="10.894130301774052"><ele>224.66666666666669</ele><time>2026-04-18T09:33:26.001Z</time></trkpt><trkpt lat="43.35046799519199" lon="10.894148897813718"><ele>224.5</ele><time>2026-04-18T09:33:27.001Z</time></trkpt><trkpt lat="43.35040041407184" lon="10.894169791366293"><ele>224.33333333333334</ele><time>2026-04-18T09:33:29.001Z</time></trkpt><trkpt lat="43.35033711943893" lon="10.894215827254467"><ele>224.16666666666669</ele><time>2026-04-18T09:44:14.001Z</time></trkpt><trkpt lat="43.350239900834275" lon="10.894335308452405"><ele>224.0</ele><time>2026-04-18T09:44:16.001Z</time></trkpt><trkpt lat="43.35018494209126" lon="10.894409536390226"><ele>222.0</ele><time>2026-04-18T09:44:17.001Z</time></trkpt><trkpt lat="43.35011041330209" lon="10.89451314170298"><ele>220.0</ele><time>2026-04-18T09:44:18.001Z</time></trkpt><trkpt lat="43.35000870548072" lon="10.894603348517498"><ele>218.0</ele><time>2026-04-18T09:44:19.001Z</time></trkpt><trkpt lat="43.34992742677169" lon="10.894736780336821"><ele>216.0</ele><time>2026-04-18T09:44:20.001Z</time></trkpt><trkpt lat="43.34984045012062" lon="10.894850737401953"><ele>216.0</ele><time>2026-04-18T09:44:21.001Z</time></trkpt><trkpt lat="43.34975587306418" lon="10.894952103930324"><ele>216.00000000000003</ele><time>2026-04-18T09:44:22.001Z</time></trkpt><trkpt lat="43.349659325439475" lon="10.895014309844463"><ele>216.00000000000003</ele><time>2026-04-18T09:44:23.001Z</time></trkpt><trkpt lat="43.34953949567877" lon="10.89505859163694"><ele>216.0</ele><time>2026-04-18T09:44:24.001Z</time></trkpt><trkpt lat="43.34944570109659" lon="10.895033229715555"><ele>216.0</ele><time>2026-04-18T09:44:25.001Z</time></trkpt><trkpt lat="43.3493405041462" lon="10.895024098842125"><ele>216.5</ele><time>2026-04-18T09:44:26.001Z</time></trkpt><trkpt lat="43.34922646557651" lon="10.895000275413192"><ele>217.0</ele><time>2026-04-18T09:44:27.001Z</time></trkpt><trkpt lat="43.34910467405132" lon="10.894989522536392"><ele>217.5</ele><time>2026-04-18T09:44:28.001Z</time></trkpt><trkpt lat="43.348983496755935" lon="10.894990551742342"><ele>218.0</ele><time>2026-04-18T09:44:29.001Z</time></trkpt><trkpt lat="43.348849830702804" lon="10.895004569871203"><ele>218.0</ele><time>2026-04-18T09:44:30.001Z</time></trkpt><trkpt lat="43.348710909002214" lon="10.895028575618603"><ele>218.0</ele><time>2026-04-18T09:44:31.001Z</time></trkpt><trkpt lat="43.34858094458039" lon="10.895058279354837"><ele>218.0</ele><time>2026-04-18T09:44:32.001Z</time></trkpt><trkpt lat="43.3484592839739" lon="10.895103263781179"><ele>218.0</ele><time>2026-04-18T09:44:33.001Z</time></trkpt><trkpt lat="43.34834756106983" lon="10.89515047773342"><ele>219.25</ele><time>2026-04-18T09:44:34.001Z</time></trkpt><trkpt lat="43.34823152162656" lon="10.895188262186709"><ele>220.5</ele><time>2026-04-18T09:44:35.001Z</time></trkpt><trkpt lat="43.348103377254475" lon="10.895209682285504"><ele>221.75</ele><time>2026-04-18T09:44:36.001Z</time></trkpt><trkpt lat="43.347982893770855" lon="10.895203598057764"><ele>223.0</ele><time>2026-04-18T09:44:37.001Z</time></trkpt><trkpt lat="43.34785621570071" lon="10.895176485108514"><ele>220.0</ele><time>2026-04-18T09:44:38.001Z</time></trkpt><trkpt lat="43.34771863160751" lon="10.89512683289134"><ele>217.0</ele><time>2026-04-18T09:44:39.001Z</time></trkpt><trkpt lat="43.34757620764168" lon="10.895061665928132"><ele>214.0</ele><time>2026-04-18T09:44:40.001Z</time></trkpt><trkpt lat="43.34742240874355" lon="10.894992039253346"><ele>214.0</ele><time>2026-04-18T09:44:41.001Z</time></trkpt><trkpt lat="43.34725855955524" lon="10.89491974517862"><ele>214.0</ele><time>2026-04-18T09:44:42.001Z</time></trkpt><trkpt lat="43.347128154999645" lon="10.894856833850397"><ele>214.0</ele><time>2026-04-18T09:44:43.001Z</time></trkpt><trkpt lat="43.34702085057757" lon="10.89480588950764"><ele>214.0</ele><time>2026-04-18T09:44:44.001Z</time></trkpt><trkpt lat="43.346913607250464" lon="10.894758139379334"><ele>214.0</ele><time>2026-04-18T09:44:45.001Z</time></trkpt><trkpt lat="43.346807136735116" lon="10.894708790030633"><ele>213.99999999999997</ele><time>2026-04-18T09:44:46.001Z</time></trkpt><trkpt lat="43.34668948930297" lon="10.894654254669987"><ele>213.99999999999997</ele><time>2026-04-18T09:44:47.001Z</time></trkpt><trkpt lat="43.346583470673934" lon="10.89461018465306"><ele>214.0</ele><time>2026-04-18T09:44:48.001Z</time></trkpt><trkpt lat="43.34650904341092" lon="10.894583498596347"><ele>214.0</ele><time>2026-04-18T09:44:49.001Z</time></trkpt><trkpt lat="43.3464287743836" lon="10.894544863636773"><ele>214.0</ele><time>2026-04-18T09:44:51.001Z</time></trkpt><trkpt lat="43.3464222414812" lon="10.89438908410338"><ele>213.99999999999997</ele><time>2026-04-18T09:44:52.001Z</time></trkpt><trkpt lat="43.346371333010104" lon="10.894299843940908"><ele>213.99999999999997</ele><time>2026-04-18T09:44:53.001Z</time></trkpt><trkpt lat="43.346310463949806" lon="10.894170470815329"><ele>214.0</ele><time>2026-04-18T09:44:54.001Z</time></trkpt><trkpt lat="43.3462561346759" lon="10.894045015788503"><ele>214.0</ele><time>2026-04-18T09:44:55.001Z</time></trkpt><trkpt lat="43.346202046628676" lon="10.893920117991126"><ele>217.25</ele><time>2026-04-18T09:44:56.001Z</time></trkpt><trkpt lat="43.34612580110478" lon="10.89379410929729"><ele>220.5</ele><time>2026-04-18T09:44:57.001Z</time></trkpt><trkpt lat="43.34606717797134" lon="10.893659124551563"><ele>223.75</ele><time>2026-04-18T09:44:58.001Z</time></trkpt><trkpt lat="43.34601073022561" lon="10.89351433068054"><ele>227.0</ele><time>2026-04-18T09:44:59.001Z</time></trkpt><trkpt lat="43.34593277501327" lon="10.893381988806421"><ele>227.0</ele><time>2026-04-18T09:45:00.001Z</time></trkpt><trkpt lat="43.34585389006232" lon="10.893242279516974"><ele>227.0</ele><time>2026-04-18T09:45:01.001Z</time></trkpt><trkpt lat="43.34578817467861" lon="10.893091893418895"><ele>227.0</ele><time>2026-04-18T09:45:02.001Z</time></trkpt><trkpt lat="43.34571444636654" lon="10.892933960822225"><ele>227.0</ele><time>2026-04-18T09:45:03.001Z</time></trkpt><trkpt lat="43.345625966445795" lon="10.892776259290155"><ele>229.0</ele><time>2026-04-18T09:45:04.001Z</time></trkpt><trkpt lat="43.34554401924587" lon="10.892610525891165"><ele>231.0</ele><time>2026-04-18T09:45:05.001Z</time></trkpt><trkpt lat="43.34549647250474" lon="10.89243032200946"><ele>233.0</ele><time>2026-04-18T09:45:06.001Z</time></trkpt><trkpt lat="43.34544479782017" lon="10.892286966488776"><ele>235.0</ele><time>2026-04-18T09:45:07.001Z</time></trkpt><trkpt lat="43.34538971427889" lon="10.892138759085606"><ele>235.0</ele><time>2026-04-18T09:45:08.001Z</time></trkpt><trkpt lat="43.34532729051041" lon="10.892002146413624"><ele>235.0</ele><time>2026-04-18T09:45:09.001Z</time></trkpt><trkpt lat="43.34526803062959" lon="10.891886101968554"><ele>235.0</ele><time>2026-04-18T09:45:10.001Z</time></trkpt><trkpt lat="43.34519310791341" lon="10.891770513862502"><ele>235.0</ele><time>2026-04-18T09:45:11.001Z</time></trkpt><trkpt lat="43.34510981933448" lon="10.891662330002134"><ele>235.0</ele><time>2026-04-18T09:45:12.001Z</time></trkpt><trkpt lat="43.34504194118099" lon="10.89156154558003"><ele>233.33333333333331</ele><time>2026-04-18T09:45:13.001Z</time></trkpt><trkpt lat="43.344976559752574" lon="10.89147039343421"><ele>231.66666666666666</ele><time>2026-04-18T09:45:14.001Z</time></trkpt><trkpt lat="43.34491324509276" lon="10.891404703094029"><ele>230.0</ele><time>2026-04-18T09:45:15.001Z</time></trkpt><trkpt lat="43.344865419954445" lon="10.891336502189057"><ele>228.33333333333331</ele><time>2026-04-18T09:45:16.001Z</time></trkpt><trkpt lat="43.34481840690541" lon="10.891273485044243"><ele>226.66666666666666</ele><time>2026-04-18T09:45:17.001Z</time></trkpt><trkpt lat="43.34477046705155" lon="10.891195108440018"><ele>225.0</ele><time>2026-04-18T09:45:18.001Z</time></trkpt><trkpt lat="43.34472101410991" lon="10.89105469728517"><ele>223.2</ele><time>2026-04-18T09:45:20.001Z</time></trkpt><trkpt lat="43.344752012129646" lon="10.890910676537086"><ele>221.4</ele><time>2026-04-18T09:45:22.001Z</time></trkpt><trkpt lat="43.344860987706426" lon="10.890895178508053"><ele>219.60000000000002</ele><time>2026-04-18T09:45:24.001Z</time></trkpt><trkpt lat="43.34499589791735" lon="10.890851471671729"><ele>217.8</ele><time>2026-04-18T09:45:26.001Z</time></trkpt><trkpt lat="43.34508174725543" lon="10.89080702696414"><ele>216.0</ele><time>2026-04-18T09:45:27.001Z</time></trkpt><trkpt lat="43.3451798440242" lon="10.890727122173901"><ele>216.0</ele><time>2026-04-18T09:45:28.001Z</time></trkpt><trkpt lat="43.34525563311635" lon="10.890605514702806"><ele>216.00000000000003</ele><time>2026-04-18T09:45:29.001Z</time></trkpt><trkpt lat="43.34528578453619" lon="10.890523478531058"><ele>216.00000000000003</ele><time>2026-04-18T09:45:30.001Z</time></trkpt><trkpt lat="43.34531074056752" lon="10.890363586810865"><ele>216.0</ele><time>2026-04-18T09:45:31.001Z</time></trkpt><trkpt lat="43.345328070495135" lon="10.890206742178602"><ele>216.0</ele><time>2026-04-18T09:45:32.001Z</time></trkpt><trkpt lat="43.34531461097147" lon="10.890041144191366"><ele>214.75</ele><time>2026-04-18T09:45:33.001Z</time></trkpt><trkpt lat="43.34532599478931" lon="10.88986252297941"><ele>213.5</ele><time>2026-04-18T09:45:34.001Z</time></trkpt><trkpt lat="43.34530447209738" lon="10.889668454050733"><ele>212.25</ele><time>2026-04-18T09:45:35.001Z</time></trkpt><trkpt lat="43.34531663602952" lon="10.889475662402154"><ele>211.0</ele><time>2026-04-18T09:45:36.001Z</time></trkpt><trkpt lat="43.3453167914167" lon="10.889293904429666"><ele>209.60000000000002</ele><time>2026-04-18T09:45:37.001Z</time></trkpt><trkpt lat="43.345324825522276" lon="10.8891136991047"><ele>208.2</ele><time>2026-04-18T09:45:38.001Z</time></trkpt><trkpt lat="43.3453431680163" lon="10.888951317381872"><ele>206.8</ele><time>2026-04-18T09:45:39.001Z</time></trkpt><trkpt lat="43.3453831959734" lon="10.888838674966193"><ele>205.39999999999998</ele><time>2026-04-18T09:45:40.001Z</time></trkpt><trkpt lat="43.34542135119991" lon="10.888730482234742"><ele>204.0</ele><time>2026-04-18T09:45:41.001Z</time></trkpt><trkpt lat="43.345474212731965" lon="10.888642016391398"><ele>204.0</ele><time>2026-04-18T09:45:42.001Z</time></trkpt><trkpt lat="43.34553679881522" lon="10.88852851007234"><ele>204.0</ele><time>2026-04-18T09:45:43.001Z</time></trkpt><trkpt lat="43.34560052026217" lon="10.888401497217478"><ele>204.0</ele><time>2026-04-18T09:45:44.001Z</time></trkpt><trkpt lat="43.34564526169579" lon="10.888270080936548"><ele>204.0</ele><time>2026-04-18T09:45:45.001Z</time></trkpt><trkpt lat="43.345679478068064" lon="10.88812957795977"><ele>204.0</ele><time>2026-04-18T09:45:46.001Z</time></trkpt><trkpt lat="43.34571054808993" lon="10.88798268379622"><ele>204.5</ele><time>2026-04-18T09:45:47.001Z</time></trkpt><trkpt lat="43.34572332049472" lon="10.88781289572368"><ele>205.0</ele><time>2026-04-18T09:45:48.001Z</time></trkpt><trkpt lat="43.34572621263733" lon="10.887649191687009"><ele>205.5</ele><time>2026-04-18T09:45:49.001Z</time></trkpt><trkpt lat="43.34572068922942" lon="10.887458365260535"><ele>206.0</ele><time>2026-04-18T09:45:50.001Z</time></trkpt><trkpt lat="43.34570973311536" lon="10.88724816964358"><ele>206.66666666666669</ele><time>2026-04-18T09:45:51Z</time></trkpt><trkpt lat="43.34570610968877" lon="10.88704465465736"><ele>207.33333333333331</ele><time>2026-04-18T09:45:52Z</time></trkpt><trkpt lat="43.34571506180206" lon="10.886833727878434"><ele>208.0</ele><time>2026-04-18T09:45:53Z</time></trkpt><trkpt lat="43.345734699788785" lon="10.886603832833886"><ele>208.66666666666666</ele><time>2026-04-18T09:45:54Z</time></trkpt><trkpt lat="43.345745971507895" lon="10.88636618101098"><ele>209.33333333333331</ele><time>2026-04-18T09:45:55Z</time></trkpt><trkpt lat="43.34575363652902" lon="10.886131156658672"><ele>210.0</ele><time>2026-04-18T09:45:56Z</time></trkpt><trkpt lat="43.345754671325444" lon="10.885899875995943"><ele>211.0</ele><time>2026-04-18T09:45:57Z</time></trkpt><trkpt lat="43.34573019621763" lon="10.885696291186308"><ele>212.0</ele><time>2026-04-18T09:45:58Z</time></trkpt><trkpt lat="43.345679190143315" lon="10.885487039045868"><ele>213.0</ele><time>2026-04-18T09:45:59Z</time></trkpt><trkpt lat="43.34566434654764" lon="10.885274392774239"><ele>213.0</ele><time>2026-04-18T09:46:00Z</time></trkpt><trkpt lat="43.3456510463733" lon="10.88510817477629"><ele>213.0</ele><time>2026-04-18T09:46:01Z</time></trkpt><trkpt lat="43.34565114205066" lon="10.884969955530588"><ele>213.0</ele><time>2026-04-18T09:46:02Z</time></trkpt><trkpt lat="43.34565844747188" lon="10.884837326386616"><ele>213.0</ele><time>2026-04-18T09:46:03Z</time></trkpt><trkpt lat="43.34566538119623" lon="10.884723152830924"><ele>213.0</ele><time>2026-04-18T09:46:04Z</time></trkpt><trkpt lat="43.34556622221678" lon="10.884616883415838"><ele>212.0</ele><time>2026-04-18T09:46:05Z</time></trkpt><trkpt lat="43.34551897021138" lon="10.884488977915334"><ele>211.0</ele><time>2026-04-18T09:46:06Z</time></trkpt><trkpt lat="43.34547830154042" lon="10.88434446468819"><ele>210.0</ele><time>2026-04-18T09:46:07Z</time></trkpt><trkpt lat="43.34542760817068" lon="10.884195192148901"><ele>209.0</ele><time>2026-04-18T09:46:08Z</time></trkpt><trkpt lat="43.34538592686084" lon="10.884041020442458"><ele>212.25</ele><time>2026-04-18T09:46:09Z</time></trkpt><trkpt lat="43.345347612051704" lon="10.883892608198355"><ele>215.5</ele><time>2026-04-18T09:46:10Z</time></trkpt><trkpt lat="43.34529404893004" lon="10.883749425956923"><ele>218.75</ele><time>2026-04-18T09:46:11Z</time></trkpt><trkpt lat="43.34520768825947" lon="10.88363307646351"><ele>222.0</ele><time>2026-04-18T09:46:12Z</time></trkpt><trkpt lat="43.34514795192747" lon="10.88348888435675"><ele>224.66666666666666</ele><time>2026-04-18T09:46:13Z</time></trkpt><trkpt lat="43.345089111182254" lon="10.883371726689964"><ele>227.33333333333331</ele><time>2026-04-18T09:46:14Z</time></trkpt><trkpt lat="43.345056329329736" lon="10.88328455326156"><ele>230.0</ele><time>2026-04-18T09:46:15Z</time></trkpt><trkpt lat="43.3450209637016" lon="10.883155123422137"><ele>232.66666666666666</ele><time>2026-04-18T09:46:17Z</time></trkpt><trkpt lat="43.34498982136025" lon="10.883061586272959"><ele>235.33333333333331</ele><time>2026-04-18T09:46:19Z</time></trkpt><trkpt lat="43.34494502225202" lon="10.882974140859274"><ele>238.0</ele><time>2026-04-18T09:46:22Z</time></trkpt><trkpt lat="43.34488611485843" lon="10.882886495306145"><ele>237.99999999999997</ele><time>2026-04-18T09:46:24Z</time></trkpt><trkpt lat="43.34479766500452" lon="10.88281686428694"><ele>238.0</ele><time>2026-04-18T09:46:26Z</time></trkpt><trkpt lat="43.344748609974744" lon="10.882762096508815"><ele>238.0</ele><time>2026-04-18T09:46:27Z</time></trkpt><trkpt lat="43.34469678586827" lon="10.88270554113456"><ele>238.0</ele><time>2026-04-18T09:46:28Z</time></trkpt><trkpt lat="43.3446372983545" lon="10.882644337034563"><ele>237.99999999999997</ele><time>2026-04-18T09:46:29Z</time></trkpt><trkpt lat="43.34457406905079" lon="10.882573825832802"><ele>238.0</ele><time>2026-04-18T09:46:30Z</time></trkpt><trkpt lat="43.344508832553835" lon="10.882500689264345"><ele>240.33333333333331</ele><time>2026-04-18T09:46:31Z</time></trkpt><trkpt lat="43.34444631780203" lon="10.882424526778761"><ele>242.66666666666666</ele><time>2026-04-18T09:46:32Z</time></trkpt><trkpt lat="43.344384904693555" lon="10.882342548516682"><ele>245.0</ele><time>2026-04-18T09:46:33Z</time></trkpt><trkpt lat="43.34433218668053" lon="10.88225455987019"><ele>247.33333333333331</ele><time>2026-04-18T09:46:34Z</time></trkpt><trkpt lat="43.34427389139002" lon="10.882120766109209"><ele>249.66666666666666</ele><time>2026-04-18T09:46:36Z</time></trkpt><trkpt lat="43.34431657789305" lon="10.882219371294449"><ele>252.0</ele><time>2026-04-18T09:46:49Z</time></trkpt><trkpt lat="43.34439150458278" lon="10.882318781579258"><ele>252.0</ele><time>2026-04-18T09:46:52Z</time></trkpt><trkpt lat="43.344436887979256" lon="10.882417152988788"><ele>252.0</ele><time>2026-04-18T09:46:54Z</time></trkpt><trkpt lat="43.34451481414286" lon="10.882488448921832"><ele>252.0</ele><time>2026-04-18T09:46:56Z</time></trkpt><trkpt lat="43.34460694439505" lon="10.882595515637977"><ele>252.0</ele><time>2026-04-18T09:46:58Z</time></trkpt><trkpt lat="43.34465886430888" lon="10.88265069025782"><ele>252.0</ele><time>2026-04-18T09:46:59Z</time></trkpt><trkpt lat="43.34471045085352" lon="10.882706322585454"><ele>252.0</ele><time>2026-04-18T09:47:00Z</time></trkpt><trkpt lat="43.34474442071667" lon="10.882795740236393"><ele>249.2</ele><time>2026-04-18T09:47:01Z</time></trkpt><trkpt lat="43.344793745512156" lon="10.882851350123527"><ele>246.39999999999998</ele><time>2026-04-18T09:47:02Z</time></trkpt><trkpt lat="43.34484785459963" lon="10.882914435004372"><ele>243.60000000000002</ele><time>2026-04-18T09:47:03Z</time></trkpt><trkpt lat="43.344895845768555" lon="10.882975422614184"><ele>240.8</ele><time>2026-04-18T09:47:04Z</time></trkpt><trkpt lat="43.344976490370776" lon="10.883114657822642"><ele>238.0</ele><time>2026-04-18T09:47:06Z</time></trkpt><trkpt lat="43.34503005669334" lon="10.883276189174557"><ele>238.0</ele><time>2026-04-18T09:47:08Z</time></trkpt><trkpt lat="43.34505828708947" lon="10.883360604155213"><ele>238.0</ele><time>2026-04-18T09:47:09Z</time></trkpt><trkpt lat="43.34509282205413" lon="10.88345000808372"><ele>238.0</ele><time>2026-04-18T09:47:10Z</time></trkpt><trkpt lat="43.34512774824271" lon="10.883540425081879"><ele>238.0</ele><time>2026-04-18T09:47:11Z</time></trkpt><trkpt lat="43.34517555183855" lon="10.883613385019402"><ele>238.0</ele><time>2026-04-18T09:47:12Z</time></trkpt><trkpt lat="43.34520363947257" lon="10.883701235689276"><ele>238.0</ele><time>2026-04-18T09:47:13Z</time></trkpt><trkpt lat="43.34525297536273" lon="10.883785754382068"><ele>238.0</ele><time>2026-04-18T09:47:14Z</time></trkpt><trkpt lat="43.345313059400006" lon="10.883856038580097"><ele>235.33333333333331</ele><time>2026-04-18T09:47:15Z</time></trkpt><trkpt lat="43.34534767434241" lon="10.883942478481215"><ele>232.66666666666666</ele><time>2026-04-18T09:47:16Z</time></trkpt><trkpt lat="43.345371840678666" lon="10.884032374729896"><ele>230.0</ele><time>2026-04-18T09:47:17Z</time></trkpt><trkpt lat="43.34539827830267" lon="10.884138432669227"><ele>227.33333333333331</ele><time>2026-04-18T09:47:18Z</time></trkpt><trkpt lat="43.34542169145232" lon="10.884247668738626"><ele>224.66666666666666</ele><time>2026-04-18T09:47:19Z</time></trkpt><trkpt lat="43.34544860112409" lon="10.884351905211734"><ele>222.0</ele><time>2026-04-18T09:47:20Z</time></trkpt><trkpt lat="43.3454776489916" lon="10.884441452337903"><ele>221.0</ele><time>2026-04-18T09:47:21Z</time></trkpt><trkpt lat="43.34550780310046" lon="10.884527027585472"><ele>220.0</ele><time>2026-04-18T09:47:22Z</time></trkpt><trkpt lat="43.34557206400392" lon="10.884674567283655"><ele>219.0</ele><time>2026-04-18T09:47:25Z</time></trkpt><trkpt lat="43.345603072567464" lon="10.884762353537162"><ele>218.0</ele><time>2026-04-18T09:47:29Z</time></trkpt><trkpt lat="43.34569685180266" lon="10.88466944739255"><ele>217.0</ele><time>2026-04-18T09:47:31Z</time></trkpt><trkpt lat="43.34574497865771" lon="10.884537557930734"><ele>216.99999999999997</ele><time>2026-04-18T09:47:33Z</time></trkpt><trkpt lat="43.34577815048835" lon="10.884460330359973"><ele>217.0</ele><time>2026-04-18T09:47:34Z</time></trkpt><trkpt lat="43.34582167597297" lon="10.884375567888801"><ele>217.0</ele><time>2026-04-18T09:47:35Z</time></trkpt><trkpt lat="43.34588063602422" lon="10.884313958946004"><ele>217.0</ele><time>2026-04-18T09:47:36Z</time></trkpt><trkpt lat="43.34590094638529" lon="10.884217722799475"><ele>216.99999999999997</ele><time>2026-04-18T09:47:37Z</time></trkpt><trkpt lat="43.34589577932387" lon="10.88406472297976"><ele>217.0</ele><time>2026-04-18T09:47:39Z</time></trkpt><trkpt lat="43.345867981229205" lon="10.883898511151788"><ele>218.0</ele><time>2026-04-18T09:47:41Z</time></trkpt><trkpt lat="43.34582860613322" lon="10.883789495958833"><ele>219.0</ele><time>2026-04-18T09:47:42Z</time></trkpt><trkpt lat="43.34580467568316" lon="10.88365958715811"><ele>220.0</ele><time>2026-04-18T09:47:43Z</time></trkpt><trkpt lat="43.34577308265719" lon="10.883512095871776"><ele>221.0</ele><time>2026-04-18T09:47:44Z</time></trkpt><trkpt lat="43.3457525025856" lon="10.883384021056322"><ele>222.0</ele><time>2026-04-18T09:47:45Z</time></trkpt><trkpt lat="43.34573624613552" lon="10.883251638112458"><ele>223.33333333333334</ele><time>2026-04-18T09:47:46Z</time></trkpt><trkpt lat="43.345741735255004" lon="10.88314215667839"><ele>224.66666666666669</ele><time>2026-04-18T09:47:47Z</time></trkpt><trkpt lat="43.34577196955821" lon="10.883010459298273"><ele>226.0</ele><time>2026-04-18T09:47:48Z</time></trkpt><trkpt lat="43.34581054798646" lon="10.882914810290353"><ele>227.33333333333334</ele><time>2026-04-18T09:47:49Z</time></trkpt><trkpt lat="43.34585052869699" lon="10.882808108729721"><ele>228.66666666666669</ele><time>2026-04-18T09:47:50Z</time></trkpt><trkpt lat="43.345897547426866" lon="10.882693525858162"><ele>230.0</ele><time>2026-04-18T09:47:51Z</time></trkpt><trkpt lat="43.34594795191206" lon="10.882591022935038"><ele>231.33333333333334</ele><time>2026-04-18T09:47:52Z</time></trkpt><trkpt lat="43.34601721174624" lon="10.882515673442759"><ele>232.66666666666669</ele><time>2026-04-18T09:47:53Z</time></trkpt><trkpt lat="43.34605986889006" lon="10.882431585782536"><ele>234.0</ele><time>2026-04-18T09:47:54Z</time></trkpt><trkpt lat="43.34609684372168" lon="10.88235437580041"><ele>235.33333333333331</ele><time>2026-04-18T09:47:55Z</time></trkpt><trkpt lat="43.34608824783932" lon="10.882255270105263"><ele>236.66666666666666</ele><time>2026-04-18T09:47:56Z</time></trkpt><trkpt lat="43.346088051116396" lon="10.88214561841329"><ele>238.0</ele><time>2026-04-18T09:47:56.999Z</time></trkpt><trkpt lat="43.346088051115196" lon="10.882025519872142"><ele>238.0</ele><time>2026-04-18T09:47:57.999Z</time></trkpt><trkpt lat="43.34610273699558" lon="10.881904739041891"><ele>238.0</ele><time>2026-04-18T09:47:58.999Z</time></trkpt><trkpt lat="43.34610097350447" lon="10.881781470800917"><ele>238.0</ele><time>2026-04-18T09:47:59.999Z</time></trkpt><trkpt lat="43.34610855979734" lon="10.881646348358471"><ele>238.0</ele><time>2026-04-18T09:48:00.999Z</time></trkpt><trkpt lat="43.346113057932754" lon="10.881507702838837"><ele>238.0</ele><time>2026-04-18T09:48:01.999Z</time></trkpt><trkpt lat="43.34609583304391" lon="10.881380238047862"><ele>238.99999999999997</ele><time>2026-04-18T09:48:02.999Z</time></trkpt><trkpt lat="43.346069952044544" lon="10.881267082313231"><ele>240.0</ele><time>2026-04-18T09:48:03.999Z</time></trkpt><trkpt lat="43.346047006853404" lon="10.881160732231388"><ele>241.0</ele><time>2026-04-18T09:48:04.999Z</time></trkpt><trkpt lat="43.346062881273376" lon="10.881049103432968"><ele>242.0</ele><time>2026-04-18T09:48:05.999Z</time></trkpt><trkpt lat="43.3460677736125" lon="10.880919145010923"><ele>242.99999999999997</ele><time>2026-04-18T09:48:06.999Z</time></trkpt><trkpt lat="43.34608022136602" lon="10.880784521939377"><ele>244.0</ele><time>2026-04-18T09:48:07.999Z</time></trkpt><trkpt lat="43.34609229461472" lon="10.880674024267664"><ele>244.79999999999998</ele><time>2026-04-18T09:48:08.999Z</time></trkpt><trkpt lat="43.3460287018872" lon="10.880561024776906"><ele>245.59999999999997</ele><time>2026-04-18T09:48:10.999Z</time></trkpt><trkpt lat="43.34591588642147" lon="10.88054106643219"><ele>246.4</ele><time>2026-04-18T09:48:12.999Z</time></trkpt><trkpt lat="43.34583836645095" lon="10.880501974277829"><ele>247.2</ele><time>2026-04-18T09:48:13.999Z</time></trkpt><trkpt lat="43.345754057837254" lon="10.880451286972432"><ele>248.0</ele><time>2026-04-18T09:48:14.999Z</time></trkpt><trkpt lat="43.3456646944311" lon="10.88037983761177"><ele>248.0</ele><time>2026-04-18T09:48:15.999Z</time></trkpt><trkpt lat="43.34558712262276" lon="10.880256314044528"><ele>248.0</ele><time>2026-04-18T09:48:16.999Z</time></trkpt><trkpt lat="43.34549520197176" lon="10.88015330519108"><ele>248.0</ele><time>2026-04-18T09:48:17.999Z</time></trkpt><trkpt lat="43.34539234395843" lon="10.880106321992107"><ele>248.0</ele><time>2026-04-18T09:48:18.999Z</time></trkpt><trkpt lat="43.34529206169307" lon="10.880048610945696"><ele>249.0</ele><time>2026-04-18T09:48:19.999Z</time></trkpt><trkpt lat="43.34520302741655" lon="10.879969036465285"><ele>250.0</ele><time>2026-04-18T09:48:20.999Z</time></trkpt><trkpt lat="43.345107871047176" lon="10.879911765037322"><ele>251.0</ele><time>2026-04-18T09:48:21.999Z</time></trkpt><trkpt lat="43.34501179613436" lon="10.879835634109496"><ele>252.0</ele><time>2026-04-18T09:48:22.999Z</time></trkpt><trkpt lat="43.34493444762957" lon="10.879746676568764"><ele>253.0</ele><time>2026-04-18T09:48:23.999Z</time></trkpt><trkpt lat="43.34484626937122" lon="10.879683578158538"><ele>253.0</ele><time>2026-04-18T09:48:24.999Z</time></trkpt><trkpt lat="43.344767224803725" lon="10.879616807134429"><ele>253.0</ele><time>2026-04-18T09:48:25.999Z</time></trkpt><trkpt lat="43.344672112766695" lon="10.879540080753909"><ele>253.0</ele><time>2026-04-18T09:48:26.999Z</time></trkpt><trkpt lat="43.34458392867293" lon="10.879427921340204"><ele>253.0</ele><time>2026-04-18T09:48:27.999Z</time></trkpt><trkpt lat="43.344505535785736" lon="10.879290943218423"><ele>253.60000000000002</ele><time>2026-04-18T09:48:28.999Z</time></trkpt><trkpt lat="43.34443083982461" lon="10.879183188658425"><ele>254.20000000000002</ele><time>2026-04-18T09:48:29.999Z</time></trkpt><trkpt lat="43.34437910418803" lon="10.879090745997374"><ele>254.8</ele><time>2026-04-18T09:48:30.999Z</time></trkpt><trkpt lat="43.344315569851" lon="10.87901821436203"><ele>255.4</ele><time>2026-04-18T09:48:31.999Z</time></trkpt><trkpt lat="43.344228588923286" lon="10.878978946169067"><ele>256.0</ele><time>2026-04-18T09:48:32.999Z</time></trkpt><trkpt lat="43.344126486368175" lon="10.87893107601224"><ele>256.0</ele><time>2026-04-18T09:48:33.999Z</time></trkpt><trkpt lat="43.344018938755234" lon="10.878912547692542"><ele>256.0</ele><time>2026-04-18T09:48:34.999Z</time></trkpt><trkpt lat="43.34392010383346" lon="10.878852259625663"><ele>256.0</ele><time>2026-04-18T09:48:35.999Z</time></trkpt><trkpt lat="43.343801931637536" lon="10.878804356607395"><ele>256.0</ele><time>2026-04-18T09:48:36.999Z</time></trkpt><trkpt lat="43.34367410047527" lon="10.878735009987695"><ele>255.5</ele><time>2026-04-18T09:48:37.999Z</time></trkpt><trkpt lat="43.34354352798293" lon="10.878660508254756"><ele>255.0</ele><time>2026-04-18T09:48:38.999Z</time></trkpt><trkpt lat="43.34340961123305" lon="10.878601211466789"><ele>254.5</ele><time>2026-04-18T09:48:39.999Z</time></trkpt><trkpt lat="43.34327974311608" lon="10.87850649443364"><ele>254.0</ele><time>2026-04-18T09:48:40.999Z</time></trkpt><trkpt lat="43.34316027328344" lon="10.878410314086882"><ele>256.25</ele><time>2026-04-18T09:48:41.999Z</time></trkpt><trkpt lat="43.343043938233755" lon="10.878315356013662"><ele>258.5</ele><time>2026-04-18T09:48:42.999Z</time></trkpt><trkpt lat="43.34291979115308" lon="10.878220189131827"><ele>260.75</ele><time>2026-04-18T09:48:44Z</time></trkpt><trkpt lat="43.34278120762832" lon="10.878132164645683"><ele>263.0</ele><time>2026-04-18T09:48:45Z</time></trkpt><trkpt lat="43.3426434897061" lon="10.87805903336913"><ele>263.0</ele><time>2026-04-18T09:48:46Z</time></trkpt><trkpt lat="43.34252861810485" lon="10.878003414911523"><ele>263.0</ele><time>2026-04-18T09:48:47Z</time></trkpt><trkpt lat="43.342427611687" lon="10.87797941795724"><ele>263.0</ele><time>2026-04-18T09:48:48Z</time></trkpt><trkpt lat="43.34233011170858" lon="10.877936838966082"><ele>263.0</ele><time>2026-04-18T09:48:49Z</time></trkpt><trkpt lat="43.34225308483341" lon="10.877910448748615"><ele>263.0</ele><time>2026-04-18T09:48:50Z</time></trkpt><trkpt lat="43.34216644989954" lon="10.877851267135481"><ele>261.6</ele><time>2026-04-18T09:48:52Z</time></trkpt><trkpt lat="43.342117693239715" lon="10.877745023088847"><ele>260.20000000000005</ele><time>2026-04-18T09:48:58Z</time></trkpt><trkpt lat="43.3420338479083" lon="10.877721602804419"><ele>258.8</ele><time>2026-04-18T09:48:59Z</time></trkpt><trkpt lat="43.342039273060976" lon="10.877619766024944"><ele>257.40000000000003</ele><time>2026-04-18T09:49:00Z</time></trkpt><trkpt lat="43.34213695282634" lon="10.877459023337162"><ele>256.0</ele><time>2026-04-18T09:49:02Z</time></trkpt><trkpt lat="43.34210840545575" lon="10.877367975183805"><ele>256.0</ele><time>2026-04-18T09:49:03Z</time></trkpt><trkpt lat="43.34206150524779" lon="10.877251390177111"><ele>256.0</ele><time>2026-04-18T09:49:04Z</time></trkpt><trkpt lat="43.34198783176221" lon="10.877194325290834"><ele>256.0</ele><time>2026-04-18T09:49:05Z</time></trkpt><trkpt lat="43.341923069412736" lon="10.877075818652937"><ele>256.0</ele><time>2026-04-18T09:49:07Z</time></trkpt><trkpt lat="43.341703539891135" lon="10.877290400614154"><ele>256.0</ele><time>2026-04-18T09:49:52Z</time></trkpt><trkpt lat="43.34176534760996" lon="10.877414396779368"><ele>256.0</ele><time>2026-04-18T09:49:54Z</time></trkpt><trkpt lat="43.34183701009173" lon="10.877556388153215"><ele>256.0</ele><time>2026-04-18T09:49:56Z</time></trkpt><trkpt lat="43.341903358976445" lon="10.877671936836457"><ele>256.0</ele><time>2026-04-18T09:49:58Z</time></trkpt><trkpt lat="43.34198314109011" lon="10.877752502977296"><ele>256.0</ele><time>2026-04-18T09:50:00Z</time></trkpt><trkpt lat="43.34206617780404" lon="10.87782014816535"><ele>255.0</ele><time>2026-04-18T09:50:02Z</time></trkpt><trkpt lat="43.34215424897182" lon="10.877870565547719"><ele>254.00000000000003</ele><time>2026-04-18T09:50:03.999Z</time></trkpt><trkpt lat="43.34221557032862" lon="10.877901146487895"><ele>253.00000000000003</ele><time>2026-04-18T09:50:19.999Z</time></trkpt><trkpt lat="43.34217555437264" lon="10.877821361218626"><ele>252.0</ele><time>2026-04-18T09:50:25.999Z</time></trkpt><trkpt lat="43.34206024866595" lon="10.877822785424506"><ele>251.0</ele><time>2026-04-18T09:50:32.999Z</time></trkpt><trkpt lat="43.34195605401537" lon="10.877743282264424"><ele>251.00000000000003</ele><time>2026-04-18T09:50:34.999Z</time></trkpt><trkpt lat="43.34187851854422" lon="10.877627563916727"><ele>251.0</ele><time>2026-04-18T09:50:36.999Z</time></trkpt><trkpt lat="43.34182803260071" lon="10.877541386699408"><ele>251.0</ele><time>2026-04-18T09:50:39.999Z</time></trkpt><trkpt lat="43.341783482977206" lon="10.877468476997025"><ele>251.0</ele><time>2026-04-18T09:50:41.999Z</time></trkpt><trkpt lat="43.341734763661506" lon="10.87736596180837"><ele>251.00000000000003</ele><time>2026-04-18T09:50:43.999Z</time></trkpt><trkpt lat="43.341690645565656" lon="10.877275915511333"><ele>251.0</ele><time>2026-04-18T09:50:46Z</time></trkpt><trkpt lat="43.34165246696455" lon="10.877187769344683"><ele>251.83333333333334</ele><time>2026-04-18T09:50:48Z</time></trkpt><trkpt lat="43.34162693721476" lon="10.87710436703295"><ele>252.66666666666669</ele><time>2026-04-18T09:50:51Z</time></trkpt><trkpt lat="43.341609354492455" lon="10.876983343713611"><ele>253.5</ele><time>2026-04-18T09:51:18Z</time></trkpt><trkpt lat="43.341583830456166" lon="10.876867226548066"><ele>254.33333333333331</ele><time>2026-04-18T09:51:20Z</time></trkpt><trkpt lat="43.34151122427068" lon="10.876753771801553"><ele>255.16666666666666</ele><time>2026-04-18T09:51:22Z</time></trkpt><trkpt lat="43.341465479042796" lon="10.876668054133344"><ele>256.0</ele><time>2026-04-18T09:51:23Z</time></trkpt><trkpt lat="43.34142382866694" lon="10.876573956246736"><ele>257.8</ele><time>2026-04-18T09:51:24Z</time></trkpt><trkpt lat="43.34138897131391" lon="10.876430062420367"><ele>259.6</ele><time>2026-04-18T09:51:26Z</time></trkpt><trkpt lat="43.341364257465955" lon="10.876274247912775"><ele>261.4</ele><time>2026-04-18T09:51:28Z</time></trkpt><trkpt lat="43.34133831548518" lon="10.87617006946242"><ele>263.2</ele><time>2026-04-18T09:51:30Z</time></trkpt><trkpt lat="43.341284868759665" lon="10.876047184745316"><ele>265.0</ele><time>2026-04-18T09:51:32Z</time></trkpt><trkpt lat="43.3412406817668" lon="10.875981950428583"><ele>262.6</ele><time>2026-04-18T09:51:33Z</time></trkpt><trkpt lat="43.34117901546904" lon="10.875912625455868"><ele>260.2</ele><time>2026-04-18T09:51:34Z</time></trkpt><trkpt lat="43.34106380212099" lon="10.875861957092098"><ele>257.8</ele><time>2026-04-18T09:51:36Z</time></trkpt><trkpt lat="43.34099451068395" lon="10.875832485513119"><ele>255.4</ele><time>2026-04-18T09:51:37Z</time></trkpt><trkpt lat="43.3409070012928" lon="10.875796976208814"><ele>253.0</ele><time>2026-04-18T09:51:38Z</time></trkpt><trkpt lat="43.34081503346285" lon="10.875784125109107"><ele>252.99999999999997</ele><time>2026-04-18T09:51:39Z</time></trkpt><trkpt lat="43.34072573009311" lon="10.875780956071939"><ele>253.0</ele><time>2026-04-18T09:51:40Z</time></trkpt><trkpt lat="43.34064594701722" lon="10.875749277264903"><ele>253.0</ele><time>2026-04-18T09:51:41Z</time></trkpt><trkpt lat="43.340569494299714" lon="10.875705749899048"><ele>253.0</ele><time>2026-04-18T09:51:42Z</time></trkpt><trkpt lat="43.340498861992" lon="10.875652348112203"><ele>252.99999999999997</ele><time>2026-04-18T09:51:43Z</time></trkpt><trkpt lat="43.340432878386494" lon="10.875630150850855"><ele>253.0</ele><time>2026-04-18T09:51:44Z</time></trkpt><trkpt lat="43.34034257006348" lon="10.875669626032117"><ele>251.8571428571429</ele><time>2026-04-18T09:51:46Z</time></trkpt><trkpt lat="43.34028180662555" lon="10.875701931925606"><ele>250.71428571428572</ele><time>2026-04-18T09:51:47Z</time></trkpt><trkpt lat="43.34019831282839" lon="10.875744600135192"><ele>249.57142857142858</ele><time>2026-04-18T09:51:48Z</time></trkpt><trkpt lat="43.34012926009923" lon="10.87575947061617"><ele>248.42857142857144</ele><time>2026-04-18T09:51:49Z</time></trkpt><trkpt lat="43.34006480236133" lon="10.87575948500534"><ele>247.28571428571428</ele><time>2026-04-18T09:51:50Z</time></trkpt><trkpt lat="43.3399974132131" lon="10.875735025615175"><ele>246.14285714285714</ele><time>2026-04-18T09:51:51Z</time></trkpt><trkpt lat="43.339963724043955" lon="10.875639194830592"><ele>245.0</ele><time>2026-04-18T09:51:53Z</time></trkpt><trkpt lat="43.3400077125931" lon="10.875531446540666"><ele>245.00000000000003</ele><time>2026-04-18T09:51:55Z</time></trkpt><trkpt lat="43.340053672548976" lon="10.875456779457"><ele>245.0</ele><time>2026-04-18T09:51:57Z</time></trkpt><trkpt lat="43.34012100251373" lon="10.87539477735516"><ele>245.0</ele><time>2026-04-18T09:52:03Z</time></trkpt><trkpt lat="43.34017632874145" lon="10.875335961318575"><ele>245.0</ele><time>2026-04-18T09:52:04Z</time></trkpt><trkpt lat="43.34023532474907" lon="10.875279077089106"><ele>245.00000000000003</ele><time>2026-04-18T09:52:05Z</time></trkpt><trkpt lat="43.340299164672025" lon="10.875124489925955"><ele>245.0</ele><time>2026-04-18T09:52:07Z</time></trkpt><trkpt lat="43.34031557703022" lon="10.875014647394709"><ele>243.6</ele><time>2026-04-18T09:52:08Z</time></trkpt><trkpt lat="43.34032434987589" lon="10.874898140867284"><ele>242.2</ele><time>2026-04-18T09:52:08.999Z</time></trkpt><trkpt lat="43.34033411627395" lon="10.874774893672603"><ele>240.8</ele><time>2026-04-18T09:52:09.999Z</time></trkpt><trkpt lat="43.3403383962051" lon="10.87459757669987"><ele>239.4</ele><time>2026-04-18T09:52:11.999Z</time></trkpt><trkpt lat="43.34034925732869" lon="10.874474973304107"><ele>238.0</ele><time>2026-04-18T09:52:12.999Z</time></trkpt><trkpt lat="43.340366214411304" lon="10.874347225883701"><ele>236.8</ele><time>2026-04-18T09:52:13.999Z</time></trkpt><trkpt lat="43.34033727349305" lon="10.874154383203102"><ele>235.60000000000002</ele><time>2026-04-18T09:52:15.999Z</time></trkpt><trkpt lat="43.34030388349295" lon="10.874054012721828"><ele>234.39999999999998</ele><time>2026-04-18T09:52:16.999Z</time></trkpt><trkpt lat="43.34025271443165" lon="10.873959537380918"><ele>233.2</ele><time>2026-04-18T09:52:17.999Z</time></trkpt><trkpt lat="43.340215232372266" lon="10.8738830987146"><ele>232.0</ele><time>2026-04-18T09:52:18.999Z</time></trkpt><trkpt lat="43.34023376641234" lon="10.873700505647108"><ele>232.0</ele><time>2026-04-18T09:52:20.999Z</time></trkpt><trkpt lat="43.340179816996155" lon="10.873519673263708"><ele>232.0</ele><time>2026-04-18T09:52:22.999Z</time></trkpt><trkpt lat="43.34013569874669" lon="10.873432976524445"><ele>232.0</ele><time>2026-04-18T09:52:23.999Z</time></trkpt><trkpt lat="43.34009850055517" lon="10.873339570036652"><ele>232.0</ele><time>2026-04-18T09:52:24.999Z</time></trkpt><trkpt lat="43.340034244857215" lon="10.873228071615124"><ele>232.0</ele><time>2026-04-18T09:52:25.999Z</time></trkpt><trkpt lat="43.33997916876328" lon="10.87311720182555"><ele>232.83333333333331</ele><time>2026-04-18T09:52:26.999Z</time></trkpt><trkpt lat="43.33992221637314" lon="10.873034103190994"><ele>233.66666666666666</ele><time>2026-04-18T09:52:27.999Z</time></trkpt><trkpt lat="43.33986542181488" lon="10.872943205935622"><ele>234.5</ele><time>2026-04-18T09:52:28.999Z</time></trkpt><trkpt lat="43.33982035902186" lon="10.872852729778234"><ele>235.33333333333331</ele><time>2026-04-18T09:52:29.999Z</time></trkpt><trkpt lat="43.339812840946266" lon="10.872759160032956"><ele>236.16666666666666</ele><time>2026-04-18T09:52:30.999Z</time></trkpt><trkpt lat="43.339850189224464" lon="10.8726285749529"><ele>237.0</ele><time>2026-04-18T09:52:32.999Z</time></trkpt><trkpt lat="43.3398777213147" lon="10.872514288474491"><ele>237.66666666666666</ele><time>2026-04-18T09:52:34.999Z</time></trkpt><trkpt lat="43.33990025662987" lon="10.872407349272205"><ele>238.33333333333331</ele><time>2026-04-18T09:52:36.999Z</time></trkpt><trkpt lat="43.3399098356126" lon="10.872295162043068"><ele>239.0</ele><time>2026-04-18T09:52:38.999Z</time></trkpt><trkpt lat="43.339902560412966" lon="10.872168732689586"><ele>239.66666666666666</ele><time>2026-04-18T09:53:00Z</time></trkpt><trkpt lat="43.33987600311451" lon="10.872061058594054"><ele>240.33333333333331</ele><time>2026-04-18T09:53:09Z</time></trkpt><trkpt lat="43.33984773842972" lon="10.871953919273322"><ele>241.0</ele><time>2026-04-18T09:53:26Z</time></trkpt><trkpt lat="43.33986528637679" lon="10.871858040370284"><ele>241.33333333333331</ele><time>2026-04-18T09:53:29Z</time></trkpt><trkpt lat="43.33981091840557" lon="10.871773179578359"><ele>241.66666666666666</ele><time>2026-04-18T09:53:33Z</time></trkpt><trkpt lat="43.33977734342397" lon="10.871689611421631"><ele>242.0</ele><time>2026-04-18T09:53:35Z</time></trkpt><trkpt lat="43.33975624423918" lon="10.871587670516515"><ele>242.33333333333331</ele><time>2026-04-18T09:53:37Z</time></trkpt><trkpt lat="43.33973533648223" lon="10.871433123428275"><ele>242.66666666666666</ele><time>2026-04-18T09:53:39Z</time></trkpt><trkpt lat="43.33974938737248" lon="10.871307735492241"><ele>243.0</ele><time>2026-04-18T09:53:41Z</time></trkpt><trkpt lat="43.33974322598421" lon="10.87121599229863"><ele>243.0</ele><time>2026-04-18T09:53:42Z</time></trkpt><trkpt lat="43.33973604128275" lon="10.871117477747692"><ele>243.0</ele><time>2026-04-18T09:53:43Z</time></trkpt><trkpt lat="43.33971646777746" lon="10.871026909104542"><ele>243.0</ele><time>2026-04-18T09:53:44Z</time></trkpt><trkpt lat="43.33968362101851" lon="10.870932008605294"><ele>243.0</ele><time>2026-04-18T09:53:45Z</time></trkpt><trkpt lat="43.33961461011277" lon="10.870822122538957"><ele>243.0</ele><time>2026-04-18T09:53:47Z</time></trkpt><trkpt lat="43.33957613055002" lon="10.870749293792604"><ele>243.0</ele><time>2026-04-18T09:53:55Z</time></trkpt><trkpt lat="43.339508932977324" lon="10.870650793038452"><ele>238.2</ele><time>2026-04-18T09:53:57Z</time></trkpt><trkpt lat="43.339450490739665" lon="10.870518592597183"><ele>233.4</ele><time>2026-04-18T09:53:59Z</time></trkpt><trkpt lat="43.3394054439311" lon="10.87033949763547"><ele>228.59999999999997</ele><time>2026-04-18T09:54:01Z</time></trkpt><trkpt lat="43.339384846079476" lon="10.870226367337112"><ele>223.79999999999998</ele><time>2026-04-18T09:54:02Z</time></trkpt><trkpt lat="43.339375476377604" lon="10.870124381666436"><ele>219.0</ele><time>2026-04-18T09:54:03Z</time></trkpt><trkpt lat="43.33935679773834" lon="10.870019963771817"><ele>219.0</ele><time>2026-04-18T09:54:04Z</time></trkpt><trkpt lat="43.33926624777051" lon="10.86985999070472"><ele>219.0</ele><time>2026-04-18T09:54:06.001Z</time></trkpt><trkpt lat="43.33921437093235" lon="10.86978143168246"><ele>219.0</ele><time>2026-04-18T09:54:07.001Z</time></trkpt><trkpt lat="43.33918052155729" lon="10.869704066233139"><ele>219.0</ele><time>2026-04-18T09:54:08.001Z</time></trkpt><trkpt lat="43.33915119584552" lon="10.869614770675675"><ele>219.0</ele><time>2026-04-18T09:54:09.001Z</time></trkpt><trkpt lat="43.33913233388175" lon="10.869529513807588"><ele>219.0</ele><time>2026-04-18T09:54:10.001Z</time></trkpt><trkpt lat="43.3391430670624" lon="10.869352589761917"><ele>219.2</ele><time>2026-04-18T09:54:12.001Z</time></trkpt><trkpt lat="43.339165640447504" lon="10.869252759020812"><ele>219.39999999999998</ele><time>2026-04-18T09:54:13.001Z</time></trkpt><trkpt lat="43.33919037364825" lon="10.869136240744004"><ele>219.6</ele><time>2026-04-18T09:54:14.001Z</time></trkpt><trkpt lat="43.33920997645533" lon="10.869005523419919"><ele>219.8</ele><time>2026-04-18T09:54:14.999Z</time></trkpt><trkpt lat="43.3392206035338" lon="10.868886139123044"><ele>220.0</ele><time>2026-04-18T09:54:15.999Z</time></trkpt><trkpt lat="43.33921875207496" lon="10.86871188111535"><ele>219.99999999999997</ele><time>2026-04-18T09:54:17.999Z</time></trkpt><trkpt lat="43.33920795625951" lon="10.868566616892709"><ele>220.0</ele><time>2026-04-18T09:54:19.999Z</time></trkpt><trkpt lat="43.33921804208484" lon="10.868419981430538"><ele>220.0</ele><time>2026-04-18T09:54:21.999Z</time></trkpt><trkpt lat="43.33922909502595" lon="10.86832324590182"><ele>220.0</ele><time>2026-04-18T09:54:22.999Z</time></trkpt><trkpt lat="43.3392295695454" lon="10.868235865332204"><ele>219.99999999999997</ele><time>2026-04-18T09:54:23.999Z</time></trkpt><trkpt lat="43.339223263012386" lon="10.86811674557337"><ele>220.0</ele><time>2026-04-18T09:54:25.999Z</time></trkpt><trkpt lat="43.33922033234956" lon="10.867996955913792"><ele>218.99999999999997</ele><time>2026-04-18T09:54:27.999Z</time></trkpt><trkpt lat="43.339210837819415" lon="10.867894999574249"><ele>218.0</ele><time>2026-04-18T09:54:28.999Z</time></trkpt><trkpt lat="43.339198692032426" lon="10.867751984950418"><ele>217.0</ele><time>2026-04-18T09:54:30.999Z</time></trkpt><trkpt lat="43.33920718192777" lon="10.86766547985536"><ele>216.0</ele><time>2026-04-18T09:54:32.999Z</time></trkpt><trkpt lat="43.33922065844622" lon="10.867553324119127"><ele>214.99999999999997</ele><time>2026-04-18T09:54:34.999Z</time></trkpt><trkpt lat="43.3391835362836" lon="10.867450172436348"><ele>214.0</ele><time>2026-04-18T09:54:36.999Z</time></trkpt><trkpt lat="43.33913197833399" lon="10.867323829579004"><ele>213.66666666666666</ele><time>2026-04-18T09:54:38.999Z</time></trkpt><trkpt lat="43.33909722318953" lon="10.867228767871648"><ele>213.33333333333331</ele><time>2026-04-18T09:54:40.999Z</time></trkpt><trkpt lat="43.33905029607689" lon="10.86717071961281"><ele>213.0</ele><time>2026-04-18T09:54:42.999Z</time></trkpt><trkpt lat="43.33898718883231" lon="10.867166237939687"><ele>212.66666666666669</ele><time>2026-04-18T09:54:54Z</time></trkpt><trkpt lat="43.338895448677334" lon="10.867206565826638"><ele>212.33333333333334</ele><time>2026-04-18T09:54:57Z</time></trkpt><trkpt lat="43.338820552830896" lon="10.867171537347428"><ele>212.0</ele><time>2026-04-18T09:54:59Z</time></trkpt><trkpt lat="43.338727310112105" lon="10.86716980522512"><ele>208.83333333333334</ele><time>2026-04-18T09:55:02Z</time></trkpt><trkpt lat="43.33861031024343" lon="10.867177115712714"><ele>205.66666666666669</ele><time>2026-04-18T09:55:04Z</time></trkpt><trkpt lat="43.33854305026771" lon="10.867127930736741"><ele>202.5</ele><time>2026-04-18T09:55:06Z</time></trkpt><trkpt lat="43.33847430481842" lon="10.867067585464056"><ele>199.33333333333331</ele><time>2026-04-18T09:55:08Z</time></trkpt><trkpt lat="43.33841086818712" lon="10.867057221315424"><ele>196.16666666666666</ele><time>2026-04-18T09:55:09Z</time></trkpt><trkpt lat="43.33834584179726" lon="10.867078033538514"><ele>193.0</ele><time>2026-04-18T09:55:10Z</time></trkpt><trkpt lat="43.33826117910364" lon="10.867096234843542"><ele>193.0</ele><time>2026-04-18T09:55:12Z</time></trkpt><trkpt lat="43.33814575270958" lon="10.867016162343928"><ele>193.0</ele><time>2026-04-18T09:55:14Z</time></trkpt><trkpt lat="43.33811795936826" lon="10.86692289974907"><ele>193.0</ele><time>2026-04-18T09:55:16Z</time></trkpt><trkpt lat="43.33812290114349" lon="10.866796380001535"><ele>193.0</ele><time>2026-04-18T09:55:18Z</time></trkpt><trkpt lat="43.33817281308559" lon="10.866643517392822"><ele>193.0</ele><time>2026-04-18T09:55:20Z</time></trkpt><trkpt lat="43.33817262502838" lon="10.866489761558553"><ele>191.83333333333331</ele><time>2026-04-18T09:55:22Z</time></trkpt><trkpt lat="43.33815884827659" lon="10.86640326207037"><ele>190.66666666666666</ele><time>2026-04-18T09:55:23Z</time></trkpt><trkpt lat="43.33811839418863" lon="10.866261557841428"><ele>189.5</ele><time>2026-04-18T09:55:25Z</time></trkpt><trkpt lat="43.338029657846334" lon="10.866155292466322"><ele>188.33333333333331</ele><time>2026-04-18T09:55:27Z</time></trkpt><trkpt lat="43.337986195137475" lon="10.866088082427233"><ele>187.16666666666666</ele><time>2026-04-18T09:55:28Z</time></trkpt><trkpt lat="43.3379383251705" lon="10.866029249513984"><ele>186.0</ele><time>2026-04-18T09:55:29Z</time></trkpt><trkpt lat="43.33786695972499" lon="10.86596772291116"><ele>187.4</ele><time>2026-04-18T09:55:31Z</time></trkpt><trkpt lat="43.33778620050221" lon="10.865878923317956"><ele>188.8</ele><time>2026-04-18T09:55:33Z</time></trkpt><trkpt lat="43.33768473003391" lon="10.865831307491177"><ele>190.20000000000002</ele><time>2026-04-18T09:55:35Z</time></trkpt><trkpt lat="43.337608986285886" lon="10.865788935503648"><ele>191.60000000000002</ele><time>2026-04-18T09:55:37Z</time></trkpt><trkpt lat="43.337557155977024" lon="10.865677305108806"><ele>193.0</ele><time>2026-04-18T09:55:39Z</time></trkpt><trkpt lat="43.33758920268364" lon="10.865551076918685"><ele>192.99999999999997</ele><time>2026-04-18T09:55:41Z</time></trkpt><trkpt lat="43.337665309758194" lon="10.865464483572454"><ele>193.0</ele><time>2026-04-18T09:55:43Z</time></trkpt><trkpt lat="43.337724599375136" lon="10.865421623814672"><ele>193.0</ele><time>2026-04-18T09:55:44Z</time></trkpt><trkpt lat="43.337785839842006" lon="10.865368026937881"><ele>193.0</ele><time>2026-04-18T09:55:45Z</time></trkpt><trkpt lat="43.33784260472163" lon="10.86524331536065"><ele>192.99999999999997</ele><time>2026-04-18T09:55:47Z</time></trkpt><trkpt lat="43.33787231945278" lon="10.865156321352378"><ele>193.0</ele><time>2026-04-18T09:55:49Z</time></trkpt><trkpt lat="43.33787628199704" lon="10.865066418010263"><ele>192.14285714285717</ele><time>2026-04-18T09:55:51Z</time></trkpt><trkpt lat="43.337900410068166" lon="10.86497368478875"><ele>191.28571428571428</ele><time>2026-04-18T09:55:56Z</time></trkpt><trkpt lat="43.33796025527656" lon="10.86489615002196"><ele>190.42857142857144</ele><time>2026-04-18T09:56:14.001Z</time></trkpt><trkpt lat="43.33802220345134" lon="10.864847009693827"><ele>189.57142857142858</ele><time>2026-04-18T09:56:17.001Z</time></trkpt><trkpt lat="43.33795999173073" lon="10.864874003147143"><ele>188.71428571428572</ele><time>2026-04-18T09:59:55.001Z</time></trkpt><trkpt lat="43.337999513478366" lon="10.864792305539703"><ele>187.85714285714286</ele><time>2026-04-18T10:00:39Z</time></trkpt><trkpt lat="43.33798209413798" lon="10.864703645229058"><ele>187.0</ele><time>2026-04-18T10:01:03Z</time></trkpt><trkpt lat="43.337950605742606" lon="10.864606787203002"><ele>187.0</ele><time>2026-04-18T10:01:25Z</time></trkpt><trkpt lat="43.33790249757544" lon="10.864493692464613"><ele>187.0</ele><time>2026-04-18T10:01:27Z</time></trkpt><trkpt lat="43.33786395883018" lon="10.86439875608621"><ele>187.0</ele><time>2026-04-18T10:01:29Z</time></trkpt><trkpt lat="43.337798185756434" lon="10.864305694351108"><ele>187.0</ele><time>2026-04-18T10:08:42.002Z</time></trkpt><trkpt lat="43.33777200983835" lon="10.864206192597027"><ele>187.0</ele><time>2026-04-18T10:08:43.002Z</time></trkpt><trkpt lat="43.33775216130363" lon="10.86409288094784"><ele>187.0</ele><time>2026-04-18T10:08:44.002Z</time></trkpt><trkpt lat="43.33774680223221" lon="10.863989169044704"><ele>186.16666666666669</ele><time>2026-04-18T10:08:45.002Z</time></trkpt><trkpt lat="43.33775527323616" lon="10.863891178070634"><ele>185.33333333333334</ele><time>2026-04-18T10:08:46.002Z</time></trkpt><trkpt lat="43.33776912727463" lon="10.863795644216264"><ele>184.5</ele><time>2026-04-18T10:08:47.002Z</time></trkpt><trkpt lat="43.33777883423611" lon="10.86370106966257"><ele>183.66666666666666</ele><time>2026-04-18T10:08:48.002Z</time></trkpt><trkpt lat="43.337760372567516" lon="10.863562022296072"><ele>182.83333333333331</ele><time>2026-04-18T10:08:50.002Z</time></trkpt><trkpt lat="43.33769396703843" lon="10.8634595903688"><ele>182.0</ele><time>2026-04-18T10:08:52.002Z</time></trkpt><trkpt lat="43.33769204922556" lon="10.863371157441586"><ele>181.8</ele><time>2026-04-18T10:08:54.002Z</time></trkpt><trkpt lat="43.33769546767103" lon="10.86319720472274"><ele>181.6</ele><time>2026-04-18T10:08:56.001Z</time></trkpt><trkpt lat="43.337653500891896" lon="10.863085217445644"><ele>181.4</ele><time>2026-04-18T10:09:07.001Z</time></trkpt><trkpt lat="43.33759775651594" lon="10.862950415773307"><ele>181.20000000000002</ele><time>2026-04-18T10:09:09.001Z</time></trkpt><trkpt lat="43.33753653536616" lon="10.862843587677771"><ele>181.0</ele><time>2026-04-18T10:09:12.001Z</time></trkpt><trkpt lat="43.33748902656996" lon="10.862716040726148"><ele>181.0</ele><time>2026-04-18T10:09:14.001Z</time></trkpt><trkpt lat="43.337448674073634" lon="10.862640288160836"><ele>181.0</ele><time>2026-04-18T10:09:16.001Z</time></trkpt><trkpt lat="43.33742219411972" lon="10.862557640821766"><ele>181.0</ele><time>2026-04-18T10:09:18.001Z</time></trkpt><trkpt lat="43.337384505688775" lon="10.8624266647171"><ele>181.0</ele><time>2026-04-18T10:09:22.001Z</time></trkpt><trkpt lat="43.337345531655856" lon="10.86232600905218"><ele>181.0</ele><time>2026-04-18T10:09:24.001Z</time></trkpt><trkpt lat="43.33728270137367" lon="10.862212950576394"><ele>181.0</ele><time>2026-04-18T10:09:26.001Z</time></trkpt><trkpt lat="43.33726418250137" lon="10.862074541896257"><ele>180.5</ele><time>2026-04-18T10:09:28.001Z</time></trkpt><trkpt lat="43.33725566416551" lon="10.861986246261996"><ele>180.0</ele><time>2026-04-18T10:09:29.001Z</time></trkpt><trkpt lat="43.33724213798832" lon="10.86184944997467"><ele>179.5</ele><time>2026-04-18T10:09:31.001Z</time></trkpt><trkpt lat="43.337208932293095" lon="10.861719005228993"><ele>179.0</ele><time>2026-04-18T10:09:33.001Z</time></trkpt><trkpt lat="43.33717972389183" lon="10.861635267583537"><ele>178.5</ele><time>2026-04-18T10:09:36.001Z</time></trkpt><trkpt lat="43.33716225783832" lon="10.861547107601387"><ele>178.0</ele><time>2026-04-18T10:09:38.001Z</time></trkpt><trkpt lat="43.33717956921188" lon="10.861437414549862"><ele>173.0</ele><time>2026-04-18T10:09:41.001Z</time></trkpt><trkpt lat="43.337143310034236" lon="10.861307931588003"><ele>168.0</ele><time>2026-04-18T10:09:43.001Z</time></trkpt><trkpt lat="43.33708984346022" lon="10.861176392829686"><ele>163.0</ele><time>2026-04-18T10:09:48.001Z</time></trkpt><trkpt lat="43.33706500890144" lon="10.861075270807138"><ele>158.0</ele><time>2026-04-18T10:09:50.001Z</time></trkpt><trkpt lat="43.337068836779736" lon="10.860950610169068"><ele>153.0</ele><time>2026-04-18T10:09:52.001Z</time></trkpt><trkpt lat="43.337097427088885" lon="10.860826991320257"><ele>152.66666666666666</ele><time>2026-04-18T10:09:54.001Z</time></trkpt><trkpt lat="43.33715212648345" lon="10.860761588506248"><ele>152.33333333333334</ele><time>2026-04-18T10:09:56.001Z</time></trkpt><trkpt lat="43.33718079577048" lon="10.860667284058653"><ele>152.0</ele><time>2026-04-18T10:09:57.001Z</time></trkpt><trkpt lat="43.33716615932006" lon="10.860528428960508"><ele>151.66666666666669</ele><time>2026-04-18T10:09:58.001Z</time></trkpt><trkpt lat="43.337152545637466" lon="10.860439359813155"><ele>151.33333333333334</ele><time>2026-04-18T10:09:59.001Z</time></trkpt><trkpt lat="43.337134708816116" lon="10.860301860447908"><ele>151.0</ele><time>2026-04-18T10:10:01.001Z</time></trkpt><trkpt lat="43.337138658728826" lon="10.860198079477946"><ele>150.0</ele><time>2026-04-18T10:10:03.001Z</time></trkpt><trkpt lat="43.33713516238217" lon="10.86010846232152"><ele>149.0</ele><time>2026-04-18T10:10:04.001Z</time></trkpt><trkpt lat="43.33715885579501" lon="10.859976435416604"><ele>148.0</ele><time>2026-04-18T10:10:06.001Z</time></trkpt><trkpt lat="43.33715845295044" lon="10.859859611897544"><ele>147.0</ele><time>2026-04-18T10:10:08.001Z</time></trkpt><trkpt lat="43.33710686101716" lon="10.85977841019223"><ele>146.0</ele><time>2026-04-18T10:10:10.001Z</time></trkpt><trkpt lat="43.337075177329226" lon="10.859690197517518"><ele>145.0</ele><time>2026-04-18T10:10:11.001Z</time></trkpt><trkpt lat="43.337074638025" lon="10.859587908954708"><ele>145.0</ele><time>2026-04-18T10:10:12.001Z</time></trkpt><trkpt lat="43.33707852462773" lon="10.859501270632498"><ele>145.0</ele><time>2026-04-18T10:10:13.001Z</time></trkpt><trkpt lat="43.337084550500386" lon="10.859406678785547"><ele>145.0</ele><time>2026-04-18T10:10:14.001Z</time></trkpt><trkpt lat="43.33708513132994" lon="10.85931489495906"><ele>145.0</ele><time>2026-04-18T10:10:15.001Z</time></trkpt><trkpt lat="43.33706608275434" lon="10.859186410835028"><ele>145.0</ele><time>2026-04-18T10:10:17.001Z</time></trkpt><trkpt lat="43.33704563531172" lon="10.859103950705439"><ele>145.0</ele><time>2026-04-18T10:10:18.001Z</time></trkpt><trkpt lat="43.33699618637447" lon="10.859024414464853"><ele>145.0</ele><time>2026-04-18T10:10:30.002Z</time></trkpt><trkpt lat="43.33700481459906" lon="10.858924324847894"><ele>144.71428571428572</ele><time>2026-04-18T10:12:47.001Z</time></trkpt><trkpt lat="43.33699209359265" lon="10.858836353900607"><ele>144.42857142857144</ele><time>2026-04-18T10:12:49.001Z</time></trkpt><trkpt lat="43.33696813381741" lon="10.858736711546785"><ele>144.14285714285714</ele><time>2026-04-18T10:12:56.002Z</time></trkpt><trkpt lat="43.33692761396462" lon="10.858668824100585"><ele>143.85714285714286</ele><time>2026-04-18T10:13:07Z</time></trkpt><trkpt lat="43.3369027480703" lon="10.858557023282087"><ele>143.57142857142856</ele><time>2026-04-18T10:13:10Z</time></trkpt><trkpt lat="43.33688007657604" lon="10.858454197698544"><ele>143.28571428571428</ele><time>2026-04-18T10:13:12Z</time></trkpt><trkpt lat="43.33687394518275" lon="10.858351718492333"><ele>143.0</ele><time>2026-04-18T10:13:14Z</time></trkpt><trkpt lat="43.336860526110655" lon="10.858193841546514"><ele>142.5</ele><time>2026-04-18T10:13:16Z</time></trkpt><trkpt lat="43.33685746597221" lon="10.858063784528031"><ele>142.0</ele><time>2026-04-18T10:13:18Z</time></trkpt><trkpt lat="43.336862624056394" lon="10.857960985341059"><ele>141.5</ele><time>2026-04-18T10:13:20Z</time></trkpt><trkpt lat="43.33681957169369" lon="10.857882918869095"><ele>141.0</ele><time>2026-04-18T10:13:22Z</time></trkpt><trkpt lat="43.336767919489795" lon="10.857803769478704"><ele>140.5</ele><time>2026-04-18T10:13:24Z</time></trkpt><trkpt lat="43.336733620321816" lon="10.857694874360762"><ele>140.0</ele><time>2026-04-18T10:13:27Z</time></trkpt><trkpt lat="43.33671981656463" lon="10.85759522466889"><ele>139.85714285714286</ele><time>2026-04-18T10:13:30Z</time></trkpt><trkpt lat="43.336656958472005" lon="10.857524332460859"><ele>139.71428571428572</ele><time>2026-04-18T10:13:33Z</time></trkpt><trkpt lat="43.33660620177513" lon="10.857473124718599"><ele>139.57142857142856</ele><time>2026-04-18T10:13:35Z</time></trkpt><trkpt lat="43.33656930769617" lon="10.857394177077415"><ele>139.42857142857144</ele><time>2026-04-18T10:13:37Z</time></trkpt><trkpt lat="43.33657163476088" lon="10.857305242990549"><ele>139.28571428571428</ele><time>2026-04-18T10:13:40.001Z</time></trkpt><trkpt lat="43.336604944483135" lon="10.857225138568953"><ele>139.14285714285714</ele><time>2026-04-18T10:13:44.001Z</time></trkpt><trkpt lat="43.336662731479294" lon="10.857170419836487"><ele>139.0</ele><time>2026-04-18T10:13:48.001Z</time></trkpt><trkpt lat="43.33672543276571" lon="10.857111836786705"><ele>139.0</ele><time>2026-04-18T10:14:49.001Z</time></trkpt><trkpt lat="43.33681085877295" lon="10.857013730005054"><ele>139.0</ele><time>2026-04-18T10:14:51.001Z</time></trkpt><trkpt lat="43.33686412622278" lon="10.856927958910576"><ele>139.0</ele><time>2026-04-18T10:14:52.001Z</time></trkpt><trkpt lat="43.33690533063071" lon="10.856828663326905"><ele>139.0</ele><time>2026-04-18T10:14:53.001Z</time></trkpt><trkpt lat="43.33694254833374" lon="10.85672403238817"><ele>139.0</ele><time>2026-04-18T10:14:54.001Z</time></trkpt><trkpt lat="43.33688642232949" lon="10.85676810225591"><ele>139.0</ele><time>2026-04-18T10:14:55.002Z</time></trkpt><trkpt lat="43.336922019410025" lon="10.856617759381558"><ele>137.66666666666669</ele><time>2026-04-18T10:14:57.002Z</time></trkpt><trkpt lat="43.3369380611233" lon="10.856524547283438"><ele>136.33333333333334</ele><time>2026-04-18T10:14:59.002Z</time></trkpt><trkpt lat="43.33695890334689" lon="10.8564327289275"><ele>135.0</ele><time>2026-04-18T10:15:01.002Z</time></trkpt><trkpt lat="43.33700001758579" lon="10.8563088466536"><ele>133.66666666666666</ele><time>2026-04-18T10:15:03.002Z</time></trkpt><trkpt lat="43.337017591427475" lon="10.856215279980404"><ele>132.33333333333331</ele><time>2026-04-18T10:15:05.002Z</time></trkpt><trkpt lat="43.33706036869124" lon="10.856116279233786"><ele>131.0</ele><time>2026-04-18T10:15:07.002Z</time></trkpt><trkpt lat="43.33706264286584" lon="10.856024472547567"><ele>132.83333333333331</ele><time>2026-04-18T10:15:09.002Z</time></trkpt><trkpt lat="43.337076203917356" lon="10.855908534708684"><ele>134.66666666666666</ele><time>2026-04-18T10:15:19Z</time></trkpt><trkpt lat="43.337089771377535" lon="10.855773070069256"><ele>136.5</ele><time>2026-04-18T10:15:21Z</time></trkpt><trkpt lat="43.33713971810575" lon="10.855694014921939"><ele>138.33333333333334</ele><time>2026-04-18T10:15:23Z</time></trkpt><trkpt lat="43.337159491709656" lon="10.855557603609155"><ele>140.16666666666669</ele><time>2026-04-18T10:15:25Z</time></trkpt><trkpt lat="43.33720232691619" lon="10.855486988837056"><ele>142.0</ele><time>2026-04-18T10:15:27Z</time></trkpt><trkpt lat="43.337248694086156" lon="10.855385599766105"><ele>142.0</ele><time>2026-04-18T10:15:29Z</time></trkpt><trkpt lat="43.33729425638692" lon="10.855299570870487"><ele>142.0</ele><time>2026-04-18T10:15:43Z</time></trkpt><trkpt lat="43.33733310860426" lon="10.85522510808786"><ele>142.0</ele><time>2026-04-18T10:15:46.001Z</time></trkpt><trkpt lat="43.33735670337253" lon="10.855130643844046"><ele>142.0</ele><time>2026-04-18T10:15:56.001Z</time></trkpt><trkpt lat="43.337427098466875" lon="10.85506628903929"><ele>142.0</ele><time>2026-04-18T10:15:59.001Z</time></trkpt><trkpt lat="43.33750369773539" lon="10.855017744799968"><ele>142.0</ele><time>2026-04-18T10:16:05.001Z</time></trkpt><trkpt lat="43.33755281241478" lon="10.85495589931693"><ele>138.2</ele><time>2026-04-18T10:18:18.001Z</time></trkpt><trkpt lat="43.33763992554395" lon="10.854914032853056"><ele>134.39999999999998</ele><time>2026-04-18T10:18:20.001Z</time></trkpt><trkpt lat="43.337716269530915" lon="10.854831615656762"><ele>130.60000000000002</ele><time>2026-04-18T10:18:22.001Z</time></trkpt><trkpt lat="43.33777577178233" lon="10.85475015968387"><ele>126.80000000000001</ele><time>2026-04-18T10:18:24.001Z</time></trkpt><trkpt lat="43.337829257764874" lon="10.854633243012094"><ele>123.0</ele><time>2026-04-18T10:18:27.001Z</time></trkpt><trkpt lat="43.33784718882049" lon="10.854498271705381"><ele>123.0</ele><time>2026-04-18T10:18:29.001Z</time></trkpt><trkpt lat="43.33784759102022" lon="10.854409341889728"><ele>123.0</ele><time>2026-04-18T10:18:30.001Z</time></trkpt><trkpt lat="43.33787865106672" lon="10.85426208319789"><ele>123.0</ele><time>2026-04-18T10:18:32.001Z</time></trkpt><trkpt lat="43.33790941008101" lon="10.85415930846114"><ele>123.0</ele><time>2026-04-18T10:18:34.001Z</time></trkpt><trkpt lat="43.3379615722371" lon="10.854063082013026"><ele>123.0</ele><time>2026-04-18T10:18:37.001Z</time></trkpt><trkpt lat="43.33800295421754" lon="10.853985178671225"><ele>123.0</ele><time>2026-04-18T10:18:39.001Z</time></trkpt><trkpt lat="43.338041322562866" lon="10.853908727569971"><ele>123.71428571428572</ele><time>2026-04-18T10:18:41.001Z</time></trkpt><trkpt lat="43.33808099682711" lon="10.853837649916457"><ele>124.42857142857143</ele><time>2026-04-18T10:18:43.001Z</time></trkpt><trkpt lat="43.33811192498675" lon="10.853745438340733"><ele>125.14285714285714</ele><time>2026-04-18T10:18:45.001Z</time></trkpt><trkpt lat="43.33808730603459" lon="10.853659024948247"><ele>125.85714285714286</ele><time>2026-04-18T10:18:48.001Z</time></trkpt><trkpt lat="43.33804166556989" lon="10.85358080413394"><ele>126.57142857142856</ele><time>2026-04-18T10:18:52.001Z</time></trkpt><trkpt lat="43.338050247256945" lon="10.853476963638705"><ele>127.28571428571428</ele><time>2026-04-18T10:19:07.001Z</time></trkpt><trkpt lat="43.33806218274664" lon="10.853377193381604"><ele>128.0</ele><time>2026-04-18T10:19:09.001Z</time></trkpt><trkpt lat="43.338089769207436" lon="10.853235953182647"><ele>126.33333333333333</ele><time>2026-04-18T10:19:11.001Z</time></trkpt><trkpt lat="43.338102037431355" lon="10.85313597799535"><ele>124.66666666666666</ele><time>2026-04-18T10:19:13.002Z</time></trkpt><trkpt lat="43.338122068098386" lon="10.852992725783094"><ele>123.0</ele><time>2026-04-18T10:19:15.002Z</time></trkpt><trkpt lat="43.33813761000925" lon="10.852907714032415"><ele>121.33333333333334</ele><time>2026-04-18T10:19:16.002Z</time></trkpt><trkpt lat="43.33815968992131" lon="10.852810561400483"><ele>119.66666666666667</ele><time>2026-04-18T10:19:17.002Z</time></trkpt><trkpt lat="43.33821658302026" lon="10.852709777667052"><ele>118.0</ele><time>2026-04-18T10:19:18.002Z</time></trkpt><trkpt lat="43.33824615601822" lon="10.852632449050796"><ele>116.00000000000001</ele><time>2026-04-18T10:19:19.002Z</time></trkpt><trkpt lat="43.33826883226307" lon="10.852527277213834"><ele>114.0</ele><time>2026-04-18T10:19:20.002Z</time></trkpt><trkpt lat="43.338308448160575" lon="10.852433685148789"><ele>112.0</ele><time>2026-04-18T10:19:21.002Z</time></trkpt><trkpt lat="43.33834550697615" lon="10.852334007512134"><ele>110.0</ele><time>2026-04-18T10:19:22.002Z</time></trkpt><trkpt lat="43.33836925327833" lon="10.852246295763646"><ele>108.00000000000001</ele><time>2026-04-18T10:19:23.002Z</time></trkpt><trkpt lat="43.33843321923171" lon="10.852129056257864"><ele>106.0</ele><time>2026-04-18T10:19:25Z</time></trkpt><trkpt lat="43.33854288591357" lon="10.85208052116608"><ele>106.00000000000001</ele><time>2026-04-18T10:19:27Z</time></trkpt><trkpt lat="43.338608279461376" lon="10.852032477396751"><ele>106.0</ele><time>2026-04-18T10:19:28Z</time></trkpt><trkpt lat="43.33865949387374" lon="10.85197561277557"><ele>106.0</ele><time>2026-04-18T10:19:29Z</time></trkpt><trkpt lat="43.33876366353644" lon="10.8519176237265"><ele>106.0</ele><time>2026-04-18T10:19:31Z</time></trkpt><trkpt lat="43.33882565068266" lon="10.851835316502818"><ele>106.00000000000001</ele><time>2026-04-18T10:19:33Z</time></trkpt><trkpt lat="43.33888523178241" lon="10.85178111354488"><ele>106.0</ele><time>2026-04-18T10:19:34Z</time></trkpt><trkpt lat="43.33895179023564" lon="10.851780702734649"><ele>104.16666666666667</ele><time>2026-04-18T10:19:35Z</time></trkpt><trkpt lat="43.33902214088857" lon="10.851778070702611"><ele>102.33333333333334</ele><time>2026-04-18T10:19:37Z</time></trkpt><trkpt lat="43.33910803959508" lon="10.851789514798112"><ele>100.5</ele><time>2026-04-18T10:19:39Z</time></trkpt><trkpt lat="43.33918394405395" lon="10.851741244397937"><ele>98.66666666666667</ele><time>2026-04-18T10:19:41Z</time></trkpt><trkpt lat="43.33922499767018" lon="10.851634078730331"><ele>96.83333333333334</ele><time>2026-04-18T10:19:43Z</time></trkpt><trkpt lat="43.33919557485434" lon="10.851541300643875"><ele>95.0</ele><time>2026-04-18T10:19:45Z</time></trkpt><trkpt lat="43.33902406826418" lon="10.851424722038047"><ele>95.0</ele><time>2026-04-18T10:19:47Z</time></trkpt><trkpt lat="43.33895795914537" lon="10.85141440890493"><ele>95.0</ele><time>2026-04-18T10:19:48Z</time></trkpt><trkpt lat="43.33889262592124" lon="10.851431060965911"><ele>95.0</ele><time>2026-04-18T10:19:49Z</time></trkpt><trkpt lat="43.338817142431715" lon="10.85143578550794"><ele>95.0</ele><time>2026-04-18T10:19:50Z</time></trkpt><trkpt lat="43.33875211448927" lon="10.85143174520351"><ele>95.0</ele><time>2026-04-18T10:19:51Z</time></trkpt><trkpt lat="43.3386849070077" lon="10.851414716836933"><ele>95.0</ele><time>2026-04-18T10:19:52Z</time></trkpt><trkpt lat="43.33860278247192" lon="10.85140500838054"><ele>95.0</ele><time>2026-04-18T10:19:53Z</time></trkpt><trkpt lat="43.33852121822247" lon="10.851398109829368"><ele>95.0</ele><time>2026-04-18T10:19:54Z</time></trkpt><trkpt lat="43.338453514352565" lon="10.851379024827322"><ele>95.0</ele><time>2026-04-18T10:19:55Z</time></trkpt><trkpt lat="43.33838504250122" lon="10.851354208836858"><ele>95.0</ele><time>2026-04-18T10:19:57Z</time></trkpt><trkpt lat="43.33832053241135" lon="10.851315419862406"><ele>95.0</ele><time>2026-04-18T10:20:01Z</time></trkpt><trkpt lat="43.33824239954037" lon="10.851281484525888"><ele>95.0</ele><time>2026-04-18T10:20:03Z</time></trkpt><trkpt lat="43.338132696662605" lon="10.851202318986566"><ele>95.0</ele><time>2026-04-18T10:20:05Z</time></trkpt><trkpt lat="43.33804577134001" lon="10.851210375423094"><ele>94.0</ele><time>2026-04-18T10:20:06Z</time></trkpt><trkpt lat="43.33796547968557" lon="10.851183649178022"><ele>93.0</ele><time>2026-04-18T10:20:07Z</time></trkpt><trkpt lat="43.33788296500251" lon="10.85116946088384"><ele>92.0</ele><time>2026-04-18T10:20:08Z</time></trkpt><trkpt lat="43.33776791517125" lon="10.851146476307305"><ele>91.0</ele><time>2026-04-18T10:20:09Z</time></trkpt><trkpt lat="43.33766885336506" lon="10.851124302078901"><ele>90.0</ele><time>2026-04-18T10:20:10Z</time></trkpt><trkpt lat="43.33759061337766" lon="10.85110484342094"><ele>90.0</ele><time>2026-04-18T10:20:11.001Z</time></trkpt><trkpt lat="43.337514787877524" lon="10.85110210783044"><ele>90.0</ele><time>2026-04-18T10:20:12.001Z</time></trkpt><trkpt lat="43.33742540152833" lon="10.851059562093491"><ele>90.0</ele><time>2026-04-18T10:20:14.001Z</time></trkpt><trkpt lat="43.33742718780549" lon="10.850941946938127"><ele>90.0</ele><time>2026-04-18T10:20:24.001Z</time></trkpt><trkpt lat="43.33749669707886" lon="10.85077528653543"><ele>90.0</ele><time>2026-04-18T10:20:26.001Z</time></trkpt><trkpt lat="43.337548233755946" lon="10.850656323972933"><ele>88.5</ele><time>2026-04-18T10:20:27.001Z</time></trkpt><trkpt lat="43.33760402911464" lon="10.850524608340661"><ele>87.0</ele><time>2026-04-18T10:20:28.001Z</time></trkpt><trkpt lat="43.33766810866494" lon="10.850384068147273"><ele>85.5</ele><time>2026-04-18T10:20:29.001Z</time></trkpt><trkpt lat="43.337747084980805" lon="10.850208605556674"><ele>84.0</ele><time>2026-04-18T10:20:30.001Z</time></trkpt><trkpt lat="43.33782758269401" lon="10.850011924576037"><ele>84.0</ele><time>2026-04-18T10:20:31.001Z</time></trkpt><trkpt lat="43.337901569625984" lon="10.849822259435228"><ele>84.0</ele><time>2026-04-18T10:20:32.001Z</time></trkpt><trkpt lat="43.33798622765916" lon="10.84962309024772"><ele>84.0</ele><time>2026-04-18T10:20:33.001Z</time></trkpt><trkpt lat="43.33809151918973" lon="10.84939822576997"><ele>84.33333333333333</ele><time>2026-04-18T10:20:34.001Z</time></trkpt><trkpt lat="43.338197646675155" lon="10.849162572707767"><ele>84.66666666666666</ele><time>2026-04-18T10:20:35.001Z</time></trkpt><trkpt lat="43.33831327795643" lon="10.84889047074576"><ele>85.0</ele><time>2026-04-18T10:20:36.001Z</time></trkpt><trkpt lat="43.33842573390635" lon="10.848623533631121"><ele>84.33333333333333</ele><time>2026-04-18T10:20:37.001Z</time></trkpt><trkpt lat="43.33852205110832" lon="10.848396266051347"><ele>83.66666666666667</ele><time>2026-04-18T10:20:38.001Z</time></trkpt><trkpt lat="43.338607121878965" lon="10.848201638750318"><ele>83.0</ele><time>2026-04-18T10:20:39.001Z</time></trkpt><trkpt lat="43.338696485206285" lon="10.847985881006341"><ele>83.0</ele><time>2026-04-18T10:20:40.001Z</time></trkpt><trkpt lat="43.33878611101515" lon="10.84777405595241"><ele>83.0</ele><time>2026-04-18T10:20:41.001Z</time></trkpt><trkpt lat="43.33887097714741" lon="10.847575276938546"><ele>83.0</ele><time>2026-04-18T10:20:42.001Z</time></trkpt><trkpt lat="43.33896040647975" lon="10.847376722305588"><ele>83.66666666666667</ele><time>2026-04-18T10:20:43.001Z</time></trkpt><trkpt lat="43.339059219942506" lon="10.847177296099241"><ele>84.33333333333333</ele><time>2026-04-18T10:20:44.001Z</time></trkpt><trkpt lat="43.33916378587192" lon="10.846988786950648"><ele>85.0</ele><time>2026-04-18T10:20:45.001Z</time></trkpt><trkpt lat="43.339278966493666" lon="10.84679154708818"><ele>85.0</ele><time>2026-04-18T10:20:46.001Z</time></trkpt><trkpt lat="43.33939647975039" lon="10.84661154918672"><ele>85.0</ele><time>2026-04-18T10:20:47.001Z</time></trkpt><trkpt lat="43.339516358876956" lon="10.8464213680511"><ele>85.0</ele><time>2026-04-18T10:20:48.001Z</time></trkpt><trkpt lat="43.33962956861868" lon="10.846227854076746"><ele>85.33333333333333</ele><time>2026-04-18T10:20:49.001Z</time></trkpt><trkpt lat="43.339738865801074" lon="10.846034777447228"><ele>85.66666666666667</ele><time>2026-04-18T10:20:50.001Z</time></trkpt><trkpt lat="43.33985237601458" lon="10.845853403895529"><ele>86.0</ele><time>2026-04-18T10:20:51.001Z</time></trkpt><trkpt lat="43.339970424635155" lon="10.845678841643029"><ele>86.0</ele><time>2026-04-18T10:20:52.001Z</time></trkpt><trkpt lat="43.34010055816621" lon="10.845524054394598"><ele>86.0</ele><time>2026-04-18T10:20:53.001Z</time></trkpt><trkpt lat="43.34025336462623" lon="10.845386016599958"><ele>86.0</ele><time>2026-04-18T10:20:54.001Z</time></trkpt><trkpt lat="43.340415221498404" lon="10.845271146758845"><ele>85.33333333333334</ele><time>2026-04-18T10:20:55.001Z</time></trkpt><trkpt lat="43.34058238110872" lon="10.845153805923363"><ele>84.66666666666667</ele><time>2026-04-18T10:20:56.001Z</time></trkpt><trkpt lat="43.34074422275887" lon="10.845034636639134"><ele>84.0</ele><time>2026-04-18T10:20:57.001Z</time></trkpt><trkpt lat="43.34090775745639" lon="10.844905235020798"><ele>84.0</ele><time>2026-04-18T10:20:58.001Z</time></trkpt><trkpt lat="43.3410746403659" lon="10.844779333775023"><ele>84.0</ele><time>2026-04-18T10:20:59.001Z</time></trkpt><trkpt lat="43.3412405869377" lon="10.844655884071791"><ele>84.0</ele><time>2026-04-18T10:21:00.001Z</time></trkpt><trkpt lat="43.34140692107818" lon="10.844527665533029"><ele>83.33333333333333</ele><time>2026-04-18T10:21:01.001Z</time></trkpt><trkpt lat="43.34157323919132" lon="10.844400509615243"><ele>82.66666666666666</ele><time>2026-04-18T10:21:02.001Z</time></trkpt><trkpt lat="43.3417397007573" lon="10.844274481566679"><ele>82.0</ele><time>2026-04-18T10:21:03.001Z</time></trkpt><trkpt lat="43.3419045770348" lon="10.844154590891904"><ele>82.0</ele><time>2026-04-18T10:21:04.001Z</time></trkpt><trkpt lat="43.342063133075335" lon="10.84403857173002"><ele>82.0</ele><time>2026-04-18T10:21:05.001Z</time></trkpt><trkpt lat="43.34220922159516" lon="10.843920014089486"><ele>82.0</ele><time>2026-04-18T10:21:06.001Z</time></trkpt><trkpt lat="43.34234097625442" lon="10.843782501076207"><ele>82.33333333333333</ele><time>2026-04-18T10:21:07.001Z</time></trkpt><trkpt lat="43.342455678085656" lon="10.843614791620796"><ele>82.66666666666667</ele><time>2026-04-18T10:21:08.001Z</time></trkpt><trkpt lat="43.34255748781355" lon="10.843413789195887"><ele>83.0</ele><time>2026-04-18T10:21:09.001Z</time></trkpt><trkpt lat="43.34264803486668" lon="10.843196935962466"><ele>83.0</ele><time>2026-04-18T10:21:10.001Z</time></trkpt><trkpt lat="43.34274750141988" lon="10.842974547262733"><ele>83.0</ele><time>2026-04-18T10:21:11.001Z</time></trkpt><trkpt lat="43.342864738446764" lon="10.842761621921184"><ele>83.0</ele><time>2026-04-18T10:21:12.001Z</time></trkpt><trkpt lat="43.34297227217495" lon="10.84256013490609"><ele>84.33333333333334</ele><time>2026-04-18T10:21:13.001Z</time></trkpt><trkpt lat="43.343075782656946" lon="10.842340155735046"><ele>85.66666666666667</ele><time>2026-04-18T10:21:14.001Z</time></trkpt><trkpt lat="43.34318450641471" lon="10.842108866524717"><ele>87.0</ele><time>2026-04-18T10:21:15.002Z</time></trkpt><trkpt lat="43.34329598327165" lon="10.841876151500154"><ele>85.33333333333333</ele><time>2026-04-18T10:21:16.002Z</time></trkpt><trkpt lat="43.343410501829794" lon="10.841640259781249"><ele>83.66666666666666</ele><time>2026-04-18T10:21:17.002Z</time></trkpt><trkpt lat="43.34352645246324" lon="10.841401296173837"><ele>82.0</ele><time>2026-04-18T10:21:18.002Z</time></trkpt><trkpt lat="43.3436424808032" lon="10.841159170109123"><ele>83.0</ele><time>2026-04-18T10:21:19.002Z</time></trkpt><trkpt lat="43.34375980809484" lon="10.840917047329787"><ele>84.0</ele><time>2026-04-18T10:21:20.002Z</time></trkpt><trkpt lat="43.34387563257498" lon="10.840671648373624"><ele>85.0</ele><time>2026-04-18T10:21:21.002Z</time></trkpt><trkpt lat="43.34399362531471" lon="10.84042781933894"><ele>85.0</ele><time>2026-04-18T10:21:22.002Z</time></trkpt><trkpt lat="43.34410572715415" lon="10.840191736606526"><ele>85.0</ele><time>2026-04-18T10:21:23.002Z</time></trkpt><trkpt lat="43.344217125976925" lon="10.839960363864845"><ele>85.0</ele><time>2026-04-18T10:21:24.002Z</time></trkpt><trkpt lat="43.34432705885627" lon="10.83973500973096"><ele>83.66666666666666</ele><time>2026-04-18T10:21:25.002Z</time></trkpt><trkpt lat="43.3444339583485" lon="10.839523915025117"><ele>82.33333333333333</ele><time>2026-04-18T10:21:26.002Z</time></trkpt><trkpt lat="43.344554776255606" lon="10.839315219473235"><ele>81.0</ele><time>2026-04-18T10:21:27.002Z</time></trkpt><trkpt lat="43.34469401724029" lon="10.839149814765502"><ele>81.66666666666667</ele><time>2026-04-18T10:21:28.002Z</time></trkpt><trkpt lat="43.3448555713567" lon="10.839064986452703"><ele>82.33333333333334</ele><time>2026-04-18T10:21:29.002Z</time></trkpt><trkpt lat="43.345015751434325" lon="10.838957251999592"><ele>83.0</ele><time>2026-04-18T10:21:29.999Z</time></trkpt><trkpt lat="43.34518675490587" lon="10.838873811862637"><ele>83.0</ele><time>2026-04-18T10:21:30.999Z</time></trkpt><trkpt lat="43.34534831715676" lon="10.838755316429214"><ele>83.0</ele><time>2026-04-18T10:21:31.999Z</time></trkpt><trkpt lat="43.345501648571414" lon="10.838607303779405"><ele>83.0</ele><time>2026-04-18T10:21:32.999Z</time></trkpt><trkpt lat="43.345650326326755" lon="10.8384426236303"><ele>82.33333333333334</ele><time>2026-04-18T10:21:33.999Z</time></trkpt><trkpt lat="43.345793960155596" lon="10.838274591289975"><ele>81.66666666666667</ele><time>2026-04-18T10:21:34.999Z</time></trkpt><trkpt lat="43.345934226355126" lon="10.838096354530002"><ele>81.0</ele><time>2026-04-18T10:21:35.999Z</time></trkpt><trkpt lat="43.346052210146865" lon="10.837894178362669"><ele>81.0</ele><time>2026-04-18T10:21:36.999Z</time></trkpt><trkpt lat="43.34615350378701" lon="10.837655300830122"><ele>81.0</ele><time>2026-04-18T10:21:37.999Z</time></trkpt><trkpt lat="43.34622717067923" lon="10.837399468707087"><ele>81.0</ele><time>2026-04-18T10:21:38.999Z</time></trkpt><trkpt lat="43.346287466072724" lon="10.837121636101712"><ele>79.66666666666667</ele><time>2026-04-18T10:21:39.999Z</time></trkpt><trkpt lat="43.3463477668794" lon="10.836843012849435"><ele>78.33333333333334</ele><time>2026-04-18T10:21:40.999Z</time></trkpt><trkpt lat="43.34641154073173" lon="10.836568855635452"><ele>77.0</ele><time>2026-04-18T10:21:41.999Z</time></trkpt><trkpt lat="43.34647944389557" lon="10.836295500251278"><ele>78.66666666666667</ele><time>2026-04-18T10:21:42.999Z</time></trkpt><trkpt lat="43.346547236948226" lon="10.836013033110817"><ele>80.33333333333333</ele><time>2026-04-18T10:21:43.999Z</time></trkpt><trkpt lat="43.3466266126589" lon="10.835732826571983"><ele>82.0</ele><time>2026-04-18T10:21:44.999Z</time></trkpt><trkpt lat="43.346713383751876" lon="10.835458059469437"><ele>82.0</ele><time>2026-04-18T10:21:45.999Z</time></trkpt><trkpt lat="43.346802182546554" lon="10.83518718209725"><ele>82.0</ele><time>2026-04-18T10:21:46.999Z</time></trkpt><trkpt lat="43.34688500490329" lon="10.834914520534214"><ele>82.0</ele><time>2026-04-18T10:21:47.999Z</time></trkpt><trkpt lat="43.34695817075232" lon="10.834637942722207"><ele>80.0</ele><time>2026-04-18T10:21:48.999Z</time></trkpt><trkpt lat="43.34702950707502" lon="10.834353961682167"><ele>78.0</ele><time>2026-04-18T10:21:49.999Z</time></trkpt><trkpt lat="43.347103082916256" lon="10.834068028758333"><ele>76.0</ele><time>2026-04-18T10:21:50.999Z</time></trkpt><trkpt lat="43.34718070693079" lon="10.833782921467076"><ele>77.33333333333333</ele><time>2026-04-18T10:21:51.999Z</time></trkpt><trkpt lat="43.34725823092033" lon="10.83349566712045"><ele>78.66666666666667</ele><time>2026-04-18T10:21:53Z</time></trkpt><trkpt lat="43.34733569574238" lon="10.833213345395299"><ele>80.0</ele><time>2026-04-18T10:21:54Z</time></trkpt><trkpt lat="43.34740942786742" lon="10.832938577794346"><ele>80.0</ele><time>2026-04-18T10:21:55Z</time></trkpt><trkpt lat="43.3474778862636" lon="10.832684716197539"><ele>80.0</ele><time>2026-04-18T10:21:56Z</time></trkpt><trkpt lat="43.34754592826908" lon="10.832449065236128"><ele>80.0</ele><time>2026-04-18T10:21:57Z</time></trkpt><trkpt lat="43.34763997452564" lon="10.832233791083482"><ele>80.0</ele><time>2026-04-18T10:21:58Z</time></trkpt><trkpt lat="43.34775437925833" lon="10.832026746744067"><ele>80.0</ele><time>2026-04-18T10:21:59Z</time></trkpt><trkpt lat="43.347880771525844" lon="10.831838626720984"><ele>80.0</ele><time>2026-04-18T10:22:00Z</time></trkpt><trkpt lat="43.348016552583054" lon="10.83164986740534"><ele>84.0</ele><time>2026-04-18T10:22:01Z</time></trkpt><trkpt lat="43.34815556483967" lon="10.83145278790882"><ele>88.0</ele><time>2026-04-18T10:22:02Z</time></trkpt><trkpt lat="43.34829191532771" lon="10.831247567977437"><ele>92.0</ele><time>2026-04-18T10:22:03Z</time></trkpt><trkpt lat="43.34842923510208" lon="10.831039251028495"><ele>89.66666666666667</ele><time>2026-04-18T10:22:04Z</time></trkpt><trkpt lat="43.34856622557392" lon="10.830835310021657"><ele>87.33333333333333</ele><time>2026-04-18T10:22:05Z</time></trkpt><trkpt lat="43.348706614337836" lon="10.830631034331876"><ele>85.0</ele><time>2026-04-18T10:22:06Z</time></trkpt><trkpt lat="43.34884180371796" lon="10.830432510557861"><ele>89.33333333333333</ele><time>2026-04-18T10:22:07Z</time></trkpt><trkpt lat="43.34897698136239" lon="10.83022286201313"><ele>93.66666666666666</ele><time>2026-04-18T10:22:08Z</time></trkpt><trkpt lat="43.34910794470872" lon="10.83000447149744"><ele>98.0</ele><time>2026-04-18T10:22:09Z</time></trkpt><trkpt lat="43.34922175928027" lon="10.829794692479114"><ele>98.0</ele><time>2026-04-18T10:22:10Z</time></trkpt><trkpt lat="43.349335492812656" lon="10.829556956794471"><ele>98.0</ele><time>2026-04-18T10:22:11Z</time></trkpt><trkpt lat="43.349461087994044" lon="10.829354374232821"><ele>98.0</ele><time>2026-04-18T10:22:12Z</time></trkpt><trkpt lat="43.34960945909153" lon="10.829170503785676"><ele>101.33333333333333</ele><time>2026-04-18T10:22:13Z</time></trkpt><trkpt lat="43.349778374284" lon="10.82900441513188"><ele>104.66666666666666</ele><time>2026-04-18T10:22:14Z</time></trkpt><trkpt lat="43.349948417713605" lon="10.82884314534647"><ele>108.0</ele><time>2026-04-18T10:22:15Z</time></trkpt><trkpt lat="43.350113676379365" lon="10.828675657702734"><ele>108.0</ele><time>2026-04-18T10:22:16Z</time></trkpt><trkpt lat="43.35027134035758" lon="10.828507014665867"><ele>108.0</ele><time>2026-04-18T10:22:17Z</time></trkpt><trkpt lat="43.35042331637778" lon="10.828330333974378"><ele>108.0</ele><time>2026-04-18T10:22:18Z</time></trkpt><trkpt lat="43.35055549373088" lon="10.828128759691499"><ele>110.33333333333334</ele><time>2026-04-18T10:22:19Z</time></trkpt><trkpt lat="43.350666483644034" lon="10.82790041192668"><ele>112.66666666666667</ele><time>2026-04-18T10:22:20Z</time></trkpt><trkpt lat="43.35075202598722" lon="10.827658014075116"><ele>115.0</ele><time>2026-04-18T10:22:21Z</time></trkpt><trkpt lat="43.3508312430654" lon="10.827418243840631"><ele>116.33333333333334</ele><time>2026-04-18T10:22:22Z</time></trkpt><trkpt lat="43.35092411277986" lon="10.827180395320044"><ele>117.66666666666666</ele><time>2026-04-18T10:22:23Z</time></trkpt><trkpt lat="43.35105393567922" lon="10.826992654373214"><ele>119.0</ele><time>2026-04-18T10:22:24Z</time></trkpt><trkpt lat="43.35118533707227" lon="10.82681931089433"><ele>118.33333333333333</ele><time>2026-04-18T10:22:25Z</time></trkpt><trkpt lat="43.351333799936405" lon="10.826682297529771"><ele>117.66666666666666</ele><time>2026-04-18T10:22:26Z</time></trkpt><trkpt lat="43.35146825002242" lon="10.826544063561403"><ele>117.0</ele><time>2026-04-18T10:22:27Z</time></trkpt><trkpt lat="43.35157290614131" lon="10.826407800134424"><ele>119.0</ele><time>2026-04-18T10:22:28Z</time></trkpt><trkpt lat="43.351652675687085" lon="10.826249646617205"><ele>121.0</ele><time>2026-04-18T10:22:29Z</time></trkpt><trkpt lat="43.35170382831017" lon="10.826061935803846"><ele>123.0</ele><time>2026-04-18T10:22:30Z</time></trkpt><trkpt lat="43.35174383673136" lon="10.825848023243385"><ele>125.0</ele><time>2026-04-18T10:22:31Z</time></trkpt><trkpt lat="43.351792193419186" lon="10.825628004713177"><ele>125.0</ele><time>2026-04-18T10:22:32Z</time></trkpt><trkpt lat="43.35187662341344" lon="10.825427976814305"><ele>125.0</ele><time>2026-04-18T10:22:33Z</time></trkpt><trkpt lat="43.351988885745996" lon="10.825246266845756"><ele>125.0</ele><time>2026-04-18T10:22:34Z</time></trkpt><trkpt lat="43.35212275254733" lon="10.82511818127024"><ele>127.66666666666666</ele><time>2026-04-18T10:22:35Z</time></trkpt><trkpt lat="43.35227388434199" lon="10.82505641600628"><ele>130.33333333333334</ele><time>2026-04-18T10:22:36Z</time></trkpt><trkpt lat="43.35243734997035" lon="10.825013006781703"><ele>133.0</ele><time>2026-04-18T10:22:37Z</time></trkpt><trkpt lat="43.352609301740046" lon="10.824937524482944"><ele>133.0</ele><time>2026-04-18T10:22:38Z</time></trkpt><trkpt lat="43.35277314517859" lon="10.824855163337185"><ele>133.0</ele><time>2026-04-18T10:22:39Z</time></trkpt><trkpt lat="43.35292158835041" lon="10.824723179339514"><ele>133.0</ele><time>2026-04-18T10:22:40Z</time></trkpt><trkpt lat="43.35303809996563" lon="10.824558974491834"><ele>134.0</ele><time>2026-04-18T10:22:41Z</time></trkpt><trkpt lat="43.353123274865844" lon="10.824378310523873"><ele>135.0</ele><time>2026-04-18T10:22:42.001Z</time></trkpt><trkpt lat="43.3531660580906" lon="10.824175399613647"><ele>136.0</ele><time>2026-04-18T10:22:43.001Z</time></trkpt><trkpt lat="43.353187789238596" lon="10.823940121259994"><ele>136.0</ele><time>2026-04-18T10:22:44.001Z</time></trkpt><trkpt lat="43.35317440527039" lon="10.823686640734547"><ele>136.0</ele><time>2026-04-18T10:22:45.001Z</time></trkpt><trkpt lat="43.35314469270735" lon="10.823440055290241"><ele>136.0</ele><time>2026-04-18T10:22:46.001Z</time></trkpt><trkpt lat="43.353116697409" lon="10.823198294292263"><ele>135.0</ele><time>2026-04-18T10:22:47.001Z</time></trkpt><trkpt lat="43.35312121316247" lon="10.822950851793063"><ele>134.0</ele><time>2026-04-18T10:22:48.001Z</time></trkpt><trkpt lat="43.35316148906848" lon="10.822711901086482"><ele>133.0</ele><time>2026-04-18T10:22:49.001Z</time></trkpt><trkpt lat="43.353231604833766" lon="10.822496391575353"><ele>132.33333333333334</ele><time>2026-04-18T10:22:50.001Z</time></trkpt><trkpt lat="43.35332323506711" lon="10.822278039448287"><ele>131.66666666666666</ele><time>2026-04-18T10:22:51.001Z</time></trkpt><trkpt lat="43.353421034718046" lon="10.822059727428606"><ele>131.0</ele><time>2026-04-18T10:22:52.001Z</time></trkpt><trkpt lat="43.353500763154805" lon="10.821851702454275"><ele>130.33333333333331</ele><time>2026-04-18T10:22:53.001Z</time></trkpt><trkpt lat="43.35355824856482" lon="10.821643995280361"><ele>129.66666666666666</ele><time>2026-04-18T10:22:54.001Z</time></trkpt><trkpt lat="43.35359008982626" lon="10.821435270930468"><ele>129.0</ele><time>2026-04-18T10:22:55.001Z</time></trkpt><trkpt lat="43.35359175962989" lon="10.821204189761774"><ele>128.66666666666666</ele><time>2026-04-18T10:22:56.001Z</time></trkpt><trkpt lat="43.35357035025306" lon="10.820962464265193"><ele>128.33333333333331</ele><time>2026-04-18T10:22:57.001Z</time></trkpt><trkpt lat="43.35352463407665" lon="10.820710406303194"><ele>128.0</ele><time>2026-04-18T10:22:58.001Z</time></trkpt><trkpt lat="43.35347106735262" lon="10.820464454221403"><ele>128.0</ele><time>2026-04-18T10:22:59.001Z</time></trkpt><trkpt lat="43.35342035868193" lon="10.820217857452759"><ele>128.0</ele><time>2026-04-18T10:23:00.001Z</time></trkpt><trkpt lat="43.35338641441812" lon="10.81999853695967"><ele>128.0</ele><time>2026-04-18T10:23:01.001Z</time></trkpt><trkpt lat="43.35336767806043" lon="10.819791619455401"><ele>128.25</ele><time>2026-04-18T10:23:02.001Z</time></trkpt><trkpt lat="43.35337873270989" lon="10.81960444717531"><ele>128.5</ele><time>2026-04-18T10:23:03.001Z</time></trkpt><trkpt lat="43.353412333016124" lon="10.819403342085115"><ele>128.75</ele><time>2026-04-18T10:23:04.001Z</time></trkpt><trkpt lat="43.35345868797884" lon="10.81919401208988"><ele>129.0</ele><time>2026-04-18T10:23:05.001Z</time></trkpt><trkpt lat="43.353523933241604" lon="10.818969596116425"><ele>129.0</ele><time>2026-04-18T10:23:06.001Z</time></trkpt><trkpt lat="43.35359923205205" lon="10.818760123694107"><ele>129.0</ele><time>2026-04-18T10:23:07.001Z</time></trkpt><trkpt lat="43.35368069110071" lon="10.818556331066695"><ele>129.0</ele><time>2026-04-18T10:23:08.001Z</time></trkpt><trkpt lat="43.35376025599506" lon="10.818369582835459"><ele>128.25</ele><time>2026-04-18T10:23:09.001Z</time></trkpt><trkpt lat="43.35384698204982" lon="10.818219415909379"><ele>127.5</ele><time>2026-04-18T10:23:10.001Z</time></trkpt><trkpt lat="43.353954901484514" lon="10.818105392561224"><ele>126.75</ele><time>2026-04-18T10:23:11.001Z</time></trkpt><trkpt lat="43.35408157708069" lon="10.818023640060176"><ele>126.0</ele><time>2026-04-18T10:23:12.001Z</time></trkpt><trkpt lat="43.35422527579874" lon="10.817983815948296"><ele>125.66666666666666</ele><time>2026-04-18T10:23:13.001Z</time></trkpt><trkpt lat="43.35436742775322" lon="10.81794828292894"><ele>125.33333333333333</ele><time>2026-04-18T10:23:14.001Z</time></trkpt><trkpt lat="43.354507599327626" lon="10.817878929955114"><ele>125.0</ele><time>2026-04-18T10:23:15.001Z</time></trkpt><trkpt lat="43.35464338110204" lon="10.817759993577596"><ele>124.33333333333333</ele><time>2026-04-18T10:23:16.001Z</time></trkpt><trkpt lat="43.35476523305092" lon="10.8176069197114"><ele>123.66666666666666</ele><time>2026-04-18T10:23:17.001Z</time></trkpt><trkpt lat="43.35487566780341" lon="10.817436979672223"><ele>123.0</ele><time>2026-04-18T10:23:18.001Z</time></trkpt><trkpt lat="43.35495985864522" lon="10.817247172121569"><ele>123.0</ele><time>2026-04-18T10:23:19.001Z</time></trkpt><trkpt lat="43.35502315546019" lon="10.817017959054203"><ele>123.0</ele><time>2026-04-18T10:23:20.001Z</time></trkpt><trkpt lat="43.35507541271582" lon="10.816792093076925"><ele>123.0</ele><time>2026-04-18T10:23:21.001Z</time></trkpt><trkpt lat="43.355131656287895" lon="10.816558640082704"><ele>124.33333333333334</ele><time>2026-04-18T10:23:22.001Z</time></trkpt><trkpt lat="43.35519487718944" lon="10.81632812067065"><ele>125.66666666666667</ele><time>2026-04-18T10:23:23.001Z</time></trkpt><trkpt lat="43.355256490655385" lon="10.816110919564645"><ele>127.0</ele><time>2026-04-18T10:23:24.001Z</time></trkpt><trkpt lat="43.35530878116005" lon="10.815903627404124"><ele>128.0</ele><time>2026-04-18T10:23:25.001Z</time></trkpt><trkpt lat="43.355350542131035" lon="10.815729948524302"><ele>129.0</ele><time>2026-04-18T10:23:26.001Z</time></trkpt><trkpt lat="43.35539448550313" lon="10.815543400726227"><ele>130.0</ele><time>2026-04-18T10:23:27.001Z</time></trkpt><trkpt lat="43.35544021405063" lon="10.815362204572866"><ele>131.0</ele><time>2026-04-18T10:23:28.001Z</time></trkpt><trkpt lat="43.35548578941441" lon="10.815174964681308"><ele>131.5</ele><time>2026-04-18T10:23:29.001Z</time></trkpt><trkpt lat="43.35553035728012" lon="10.81499312050616"><ele>132.0</ele><time>2026-04-18T10:23:30.001Z</time></trkpt><trkpt lat="43.355575277793335" lon="10.814829405314343"><ele>132.5</ele><time>2026-04-18T10:23:31.001Z</time></trkpt><trkpt lat="43.35562517776932" lon="10.814672952778373"><ele>133.0</ele><time>2026-04-18T10:23:32.001Z</time></trkpt><trkpt lat="43.355690675117245" lon="10.814530140785626"><ele>130.25</ele><time>2026-04-18T10:23:33.001Z</time></trkpt><trkpt lat="43.35578678305711" lon="10.814418173736366"><ele>127.5</ele><time>2026-04-18T10:23:34.001Z</time></trkpt><trkpt lat="43.35592112421871" lon="10.814354916211851"><ele>124.75</ele><time>2026-04-18T10:23:35.001Z</time></trkpt><trkpt lat="43.35606107549662" lon="10.814268930405284"><ele>122.0</ele><time>2026-04-18T10:23:35.999Z</time></trkpt><trkpt lat="43.35621266459097" lon="10.814207272260465"><ele>122.0</ele><time>2026-04-18T10:23:36.999Z</time></trkpt><trkpt lat="43.3563590534481" lon="10.814125787257296"><ele>122.0</ele><time>2026-04-18T10:23:37.999Z</time></trkpt><trkpt lat="43.3564906571464" lon="10.814035551557412"><ele>122.0</ele><time>2026-04-18T10:23:38.999Z</time></trkpt><trkpt lat="43.356609869422606" lon="10.81392011427039"><ele>119.0</ele><time>2026-04-18T10:23:39.999Z</time></trkpt><trkpt lat="43.35671695484562" lon="10.813770499968838"><ele>116.0</ele><time>2026-04-18T10:23:40.999Z</time></trkpt><trkpt lat="43.35683091496383" lon="10.813598256305244"><ele>113.0</ele><time>2026-04-18T10:23:41.999Z</time></trkpt><trkpt lat="43.35693393566798" lon="10.813423206726698"><ele>113.0</ele><time>2026-04-18T10:23:42.999Z</time></trkpt><trkpt lat="43.3570323842907" lon="10.813266149258151"><ele>113.0</ele><time>2026-04-18T10:23:43.999Z</time></trkpt><trkpt lat="43.357130454716" lon="10.813121889535942"><ele>113.0</ele><time>2026-04-18T10:23:44.999Z</time></trkpt><trkpt lat="43.35722127300103" lon="10.812988885490414"><ele>113.0</ele><time>2026-04-18T10:23:45.999Z</time></trkpt><trkpt lat="43.35730894463599" lon="10.812858570311926"><ele>111.75</ele><time>2026-04-18T10:23:46.999Z</time></trkpt><trkpt lat="43.35739555538691" lon="10.812738704093944"><ele>110.5</ele><time>2026-04-18T10:23:47.999Z</time></trkpt><trkpt lat="43.357493426895154" lon="10.812650849794887"><ele>109.25</ele><time>2026-04-18T10:23:48.999Z</time></trkpt><trkpt lat="43.35761057931815" lon="10.812603916308825"><ele>108.0</ele><time>2026-04-18T10:23:49.999Z</time></trkpt><trkpt lat="43.35773043685845" lon="10.812642008078837"><ele>108.0</ele><time>2026-04-18T10:23:50.999Z</time></trkpt><trkpt lat="43.35784349085924" lon="10.812628950049758"><ele>108.00000000000001</ele><time>2026-04-18T10:23:52Z</time></trkpt><trkpt lat="43.35795045448813" lon="10.812645014402305"><ele>108.00000000000001</ele><time>2026-04-18T10:23:53Z</time></trkpt><trkpt lat="43.358060896509706" lon="10.812658277638322"><ele>108.0</ele><time>2026-04-18T10:23:54Z</time></trkpt><trkpt lat="43.358161290777915" lon="10.812698576161138"><ele>108.0</ele><time>2026-04-18T10:23:55Z</time></trkpt><trkpt lat="43.35824407539648" lon="10.812779909304997"><ele>105.0</ele><time>2026-04-18T10:23:56Z</time></trkpt><trkpt lat="43.35829479438976" lon="10.812889649679086"><ele>102.00000000000001</ele><time>2026-04-18T10:23:57Z</time></trkpt><trkpt lat="43.35830014984466" lon="10.813009933576941"><ele>99.0</ele><time>2026-04-18T10:23:58Z</time></trkpt><trkpt lat="43.3582624733591" lon="10.813132849244752"><ele>96.0</ele><time>2026-04-18T10:23:59Z</time></trkpt><trkpt lat="43.35818575334096" lon="10.813224483364417"><ele>93.0</ele><time>2026-04-18T10:24:00Z</time></trkpt><trkpt lat="43.35812339850997" lon="10.813353793792123"><ele>93.25</ele><time>2026-04-18T10:24:01Z</time></trkpt><trkpt lat="43.35803264013737" lon="10.81347291798627"><ele>93.5</ele><time>2026-04-18T10:24:02Z</time></trkpt><trkpt lat="43.35793623143342" lon="10.81360668052391"><ele>93.75</ele><time>2026-04-18T10:24:03Z</time></trkpt><trkpt lat="43.35784004675439" lon="10.813754768764138"><ele>94.0</ele><time>2026-04-18T10:24:04Z</time></trkpt><trkpt lat="43.357745041006446" lon="10.813902033915824"><ele>94.0</ele><time>2026-04-18T10:24:05Z</time></trkpt><trkpt lat="43.35764392533225" lon="10.814049166424898"><ele>94.0</ele><time>2026-04-18T10:24:06Z</time></trkpt><trkpt lat="43.35755344334439" lon="10.81417363654948"><ele>94.0</ele><time>2026-04-18T10:24:07Z</time></trkpt><trkpt lat="43.35746938978516" lon="10.814293214440823"><ele>94.0</ele><time>2026-04-18T10:24:08Z</time></trkpt><trkpt lat="43.35739788621603" lon="10.814403757580536"><ele>92.6</ele><time>2026-04-18T10:24:09Z</time></trkpt><trkpt lat="43.35735872465036" lon="10.814511395570737"><ele>91.2</ele><time>2026-04-18T10:24:10Z</time></trkpt><trkpt lat="43.35736996418127" lon="10.814621797041728"><ele>89.8</ele><time>2026-04-18T10:24:11Z</time></trkpt><trkpt lat="43.35743658495626" lon="10.814699248141826"><ele>88.39999999999999</ele><time>2026-04-18T10:24:12Z</time></trkpt><trkpt lat="43.357520620187" lon="10.814753019186618"><ele>87.0</ele><time>2026-04-18T10:24:13Z</time></trkpt><trkpt lat="43.357638072289475" lon="10.814695138071063"><ele>87.0</ele><time>2026-04-18T10:24:14Z</time></trkpt><trkpt lat="43.357763438656185" lon="10.814633103793254"><ele>87.0</ele><time>2026-04-18T10:24:15Z</time></trkpt><trkpt lat="43.35789783944426" lon="10.814566740728036"><ele>87.0</ele><time>2026-04-18T10:24:16Z</time></trkpt><trkpt lat="43.35803846428176" lon="10.814511527202999"><ele>87.0</ele><time>2026-04-18T10:24:17Z</time></trkpt><trkpt lat="43.35817664262871" lon="10.814458678891397"><ele>86.75</ele><time>2026-04-18T10:24:18Z</time></trkpt><trkpt lat="43.358305891867445" lon="10.814414607594188"><ele>86.5</ele><time>2026-04-18T10:24:19Z</time></trkpt><trkpt lat="43.35843505527146" lon="10.814358371588321"><ele>86.25</ele><time>2026-04-18T10:24:20Z</time></trkpt><trkpt lat="43.358580062372305" lon="10.814309948125665"><ele>86.0</ele><time>2026-04-18T10:24:21Z</time></trkpt><trkpt lat="43.35872475067072" lon="10.814240625890685"><ele>86.0</ele><time>2026-04-18T10:24:22Z</time></trkpt><trkpt lat="43.35886425778321" lon="10.814157070711387"><ele>86.0</ele><time>2026-04-18T10:24:23Z</time></trkpt><trkpt lat="43.358979164153325" lon="10.814036269761534"><ele>86.0</ele><time>2026-04-18T10:24:24Z</time></trkpt><trkpt lat="43.35907583696718" lon="10.813881340641808"><ele>86.0</ele><time>2026-04-18T10:24:25Z</time></trkpt><trkpt lat="43.35917925868336" lon="10.81372197365276"><ele>85.0</ele><time>2026-04-18T10:24:26Z</time></trkpt><trkpt lat="43.35927822383753" lon="10.813590013033494"><ele>84.0</ele><time>2026-04-18T10:24:27Z</time></trkpt><trkpt lat="43.35937318440712" lon="10.813470013575735"><ele>83.0</ele><time>2026-04-18T10:24:28Z</time></trkpt><trkpt lat="43.359457955815884" lon="10.813355858533098"><ele>82.0</ele><time>2026-04-18T10:24:29Z</time></trkpt><trkpt lat="43.35953599757826" lon="10.813249116074926"><ele>82.0</ele><time>2026-04-18T10:24:30Z</time></trkpt><trkpt lat="43.35960934990265" lon="10.81315088844872"><ele>82.0</ele><time>2026-04-18T10:24:31Z</time></trkpt><trkpt lat="43.35968163997541" lon="10.813060751653808"><ele>82.0</ele><time>2026-04-18T10:24:32Z</time></trkpt><trkpt lat="43.35974408097645" lon="10.812972653673448"><ele>82.0</ele><time>2026-04-18T10:24:33.001Z</time></trkpt><trkpt lat="43.35979222836486" lon="10.812897680154085"><ele>82.0</ele><time>2026-04-18T10:24:34.001Z</time></trkpt><trkpt lat="43.35985368077693" lon="10.812809286498197"><ele>80.66666666666666</ele><time>2026-04-18T10:24:36.001Z</time></trkpt><trkpt lat="43.35990045988787" lon="10.812748932067874"><ele>79.33333333333333</ele><time>2026-04-18T10:24:39.001Z</time></trkpt><trkpt lat="43.35995909500769" lon="10.812664703801307"><ele>78.0</ele><time>2026-04-18T10:25:09.001Z</time></trkpt><trkpt lat="43.36001142791049" lon="10.812612604486723"><ele>76.66666666666667</ele><time>2026-04-18T10:25:11.001Z</time></trkpt><trkpt lat="43.36008379516938" lon="10.812544940250428"><ele>75.33333333333334</ele><time>2026-04-18T10:25:13.001Z</time></trkpt><trkpt lat="43.36015481892613" lon="10.812459736808274"><ele>74.0</ele><time>2026-04-18T10:25:15.001Z</time></trkpt><trkpt lat="43.3602450554726" lon="10.812341830998486"><ele>73.83333333333334</ele><time>2026-04-18T10:25:17.001Z</time></trkpt><trkpt lat="43.36033190425282" lon="10.812265305910612"><ele>73.66666666666667</ele><time>2026-04-18T10:25:19.001Z</time></trkpt><trkpt lat="43.360424553460795" lon="10.81227241931614"><ele>73.5</ele><time>2026-04-18T10:25:21.001Z</time></trkpt><trkpt lat="43.36048849187671" lon="10.81229057583427"><ele>73.33333333333333</ele><time>2026-04-18T10:25:22.001Z</time></trkpt><trkpt lat="43.36056902995363" lon="10.812322115534624"><ele>73.16666666666666</ele><time>2026-04-18T10:25:23.001Z</time></trkpt><trkpt lat="43.360658064978615" lon="10.81234366847884"><ele>73.0</ele><time>2026-04-18T10:25:24.001Z</time></trkpt><trkpt lat="43.360741886989835" lon="10.812353882123691"><ele>73.0</ele><time>2026-04-18T10:25:25.001Z</time></trkpt><trkpt lat="43.36082036563119" lon="10.812357086530007"><ele>73.0</ele><time>2026-04-18T10:25:26.001Z</time></trkpt><trkpt lat="43.36091118462819" lon="10.81235400953749"><ele>73.0</ele><time>2026-04-18T10:25:27.002Z</time></trkpt><trkpt lat="43.361002615239784" lon="10.812342706096072"><ele>73.0</ele><time>2026-04-18T10:25:28.002Z</time></trkpt><trkpt lat="43.36108509310189" lon="10.812318413694816"><ele>73.0</ele><time>2026-04-18T10:25:29.002Z</time></trkpt><trkpt lat="43.36114752054984" lon="10.812286533091745"><ele>73.0</ele><time>2026-04-18T10:25:30.002Z</time></trkpt><trkpt lat="43.36122903021265" lon="10.812241448100147"><ele>73.0</ele><time>2026-04-18T10:25:32.002Z</time></trkpt><trkpt lat="43.36128984170403" lon="10.812203535234481"><ele>73.0</ele><time>2026-04-18T10:25:41.002Z</time></trkpt><trkpt lat="43.361423586588145" lon="10.812337704480424"><ele>73.0</ele><time>2026-04-18T10:25:43Z</time></trkpt><trkpt lat="43.361521809051645" lon="10.812388900647864"><ele>73.0</ele><time>2026-04-18T10:25:44Z</time></trkpt><trkpt lat="43.36161542376667" lon="10.812462878709558"><ele>73.0</ele><time>2026-04-18T10:25:45Z</time></trkpt><trkpt lat="43.36172665840167" lon="10.812517379518887"><ele>73.0</ele><time>2026-04-18T10:25:46Z</time></trkpt><trkpt lat="43.36184620203202" lon="10.812566998002065"><ele>73.0</ele><time>2026-04-18T10:25:47Z</time></trkpt><trkpt lat="43.36196867921182" lon="10.812603703337706"><ele>73.0</ele><time>2026-04-18T10:25:48Z</time></trkpt><trkpt lat="43.36207349768176" lon="10.812629537536067"><ele>73.0</ele><time>2026-04-18T10:25:49Z</time></trkpt><trkpt lat="43.36216270282164" lon="10.812656441368015"><ele>73.0</ele><time>2026-04-18T10:25:50Z</time></trkpt><trkpt lat="43.36223684713816" lon="10.812686182627871"><ele>73.0</ele><time>2026-04-18T10:25:51Z</time></trkpt><trkpt lat="43.36229669433701" lon="10.81271910093822"><ele>73.0</ele><time>2026-04-18T10:25:52Z</time></trkpt><trkpt lat="43.362387515664516" lon="10.812741880771082"><ele>73.0</ele><time>2026-04-18T10:25:54Z</time></trkpt><trkpt lat="43.36245365719606" lon="10.812732632896564"><ele>73.0</ele><time>2026-04-18T10:25:57Z</time></trkpt><trkpt lat="43.362439637504025" lon="10.812639585953594"><ele>73.0</ele><time>2026-04-18T10:31:28.002Z</time></trkpt><trkpt lat="43.362515460184206" lon="10.81261740367676"><ele>73.0</ele><time>2026-04-18T10:31:46.002Z</time></trkpt><trkpt lat="43.36247898617717" lon="10.812523129308389"><ele>73.0</ele><time>2026-04-18T10:31:49.002Z</time></trkpt><trkpt lat="43.362415238044484" lon="10.812523564972476"><ele>73.6</ele><time>2026-04-18T10:31:50.002Z</time></trkpt><trkpt lat="43.36227113847589" lon="10.812548400329622"><ele>74.19999999999999</ele><time>2026-04-18T10:31:52.002Z</time></trkpt><trkpt lat="43.362180123150964" lon="10.812543344143116"><ele>74.8</ele><time>2026-04-18T10:31:53.002Z</time></trkpt><trkpt lat="43.3620746923764" lon="10.812528105902127"><ele>75.39999999999999</ele><time>2026-04-18T10:31:54.002Z</time></trkpt><trkpt lat="43.36197335268734" lon="10.812515627267326"><ele>76.0</ele><time>2026-04-18T10:31:55.002Z</time></trkpt><trkpt lat="43.361873189157876" lon="10.812495069795574"><ele>76.0</ele><time>2026-04-18T10:31:56.002Z</time></trkpt><trkpt lat="43.36177825845886" lon="10.812462180451746"><ele>76.0</ele><time>2026-04-18T10:31:57.002Z</time></trkpt><trkpt lat="43.36168570325692" lon="10.812418727606065"><ele>76.0</ele><time>2026-04-18T10:31:58.002Z</time></trkpt><trkpt lat="43.361595937990955" lon="10.812363855273638"><ele>76.0</ele><time>2026-04-18T10:31:59.002Z</time></trkpt><trkpt lat="43.36150515885654" lon="10.812300455805056"><ele>76.0</ele><time>2026-04-18T10:32:00.002Z</time></trkpt><trkpt lat="43.361412168310935" lon="10.812228378261224"><ele>75.66666666666666</ele><time>2026-04-18T10:32:01.002Z</time></trkpt><trkpt lat="43.36132206000314" lon="10.812149196560917"><ele>75.33333333333333</ele><time>2026-04-18T10:32:02.002Z</time></trkpt><trkpt lat="43.36115079093298" lon="10.811937058293397"><ele>75.0</ele><time>2026-04-18T10:32:04.002Z</time></trkpt><trkpt lat="43.36107122320094" lon="10.811816833101739"><ele>75.0</ele><time>2026-04-18T10:32:05.002Z</time></trkpt><trkpt lat="43.36098783363862" lon="10.811685496253226"><ele>75.0</ele><time>2026-04-18T10:32:06.002Z</time></trkpt><trkpt lat="43.36090172923471" lon="10.811539564771783"><ele>75.0</ele><time>2026-04-18T10:32:07.002Z</time></trkpt><trkpt lat="43.360827293351925" lon="10.811396735515451"><ele>75.0</ele><time>2026-04-18T10:32:08.002Z</time></trkpt><trkpt lat="43.360753382457794" lon="10.811259159688749"><ele>75.0</ele><time>2026-04-18T10:32:09.002Z</time></trkpt><trkpt lat="43.36067794426035" lon="10.811101672477088"><ele>75.0</ele><time>2026-04-18T10:32:10.002Z</time></trkpt><trkpt lat="43.360603120230465" lon="10.810921031643472"><ele>75.0</ele><time>2026-04-18T10:32:11.002Z</time></trkpt><trkpt lat="43.360476795597066" lon="10.8105260790691"><ele>74.0</ele><time>2026-04-18T10:32:13.002Z</time></trkpt><trkpt lat="43.36042153044898" lon="10.81031976398874"><ele>73.0</ele><time>2026-04-18T10:32:14.001Z</time></trkpt><trkpt lat="43.36036036819498" lon="10.810114560550195"><ele>72.0</ele><time>2026-04-18T10:32:15.001Z</time></trkpt><trkpt lat="43.36029460170609" lon="10.809910684665075"><ele>72.0</ele><time>2026-04-18T10:32:16.001Z</time></trkpt><trkpt lat="43.36022717431743" lon="10.80970385620062"><ele>72.0</ele><time>2026-04-18T10:32:17.001Z</time></trkpt><trkpt lat="43.36015912810443" lon="10.80949492551836"><ele>72.0</ele><time>2026-04-18T10:32:18.001Z</time></trkpt><trkpt lat="43.3600915473406" lon="10.809296543466827"><ele>72.5</ele><time>2026-04-18T10:32:19.001Z</time></trkpt><trkpt lat="43.36002745850883" lon="10.80910790446302"><ele>73.0</ele><time>2026-04-18T10:32:20.001Z</time></trkpt><trkpt lat="43.359976582737566" lon="10.808944625694233"><ele>73.5</ele><time>2026-04-18T10:32:21.001Z</time></trkpt><trkpt lat="43.359928737642626" lon="10.808801567163645"><ele>74.0</ele><time>2026-04-18T10:32:22.001Z</time></trkpt><trkpt lat="43.35987995496303" lon="10.808649800863126"><ele>75.33333333333334</ele><time>2026-04-18T10:32:23.001Z</time></trkpt><trkpt lat="43.35982540799571" lon="10.808470195258364"><ele>76.66666666666667</ele><time>2026-04-18T10:32:24.001Z</time></trkpt><trkpt lat="43.35976790140363" lon="10.80827444882583"><ele>78.0</ele><time>2026-04-18T10:32:25.001Z</time></trkpt><trkpt lat="43.35970462994786" lon="10.808064659805686"><ele>75.33333333333333</ele><time>2026-04-18T10:32:26.001Z</time></trkpt><trkpt lat="43.359643720613334" lon="10.807857698539168"><ele>72.66666666666666</ele><time>2026-04-18T10:32:27.001Z</time></trkpt><trkpt lat="43.35958528790212" lon="10.807664590676474"><ele>70.0</ele><time>2026-04-18T10:32:28.001Z</time></trkpt><trkpt lat="43.359522892732485" lon="10.807465348740353"><ele>70.0</ele><time>2026-04-18T10:32:29.001Z</time></trkpt><trkpt lat="43.35946303364338" lon="10.80726857552399"><ele>70.0</ele><time>2026-04-18T10:32:30.001Z</time></trkpt><trkpt lat="43.3593987616769" lon="10.807058790426268"><ele>70.0</ele><time>2026-04-18T10:32:31.001Z</time></trkpt><trkpt lat="43.35932857670921" lon="10.806845630023547"><ele>69.66666666666666</ele><time>2026-04-18T10:32:32.001Z</time></trkpt><trkpt lat="43.35926068150727" lon="10.806635528375189"><ele>69.33333333333333</ele><time>2026-04-18T10:32:33.001Z</time></trkpt><trkpt lat="43.35920945548665" lon="10.806437513403335"><ele>69.0</ele><time>2026-04-18T10:32:34.001Z</time></trkpt><trkpt lat="43.35919116156429" lon="10.806248758133512"><ele>69.0</ele><time>2026-04-18T10:32:35.001Z</time></trkpt><trkpt lat="43.359234687772414" lon="10.806080193576111"><ele>69.0</ele><time>2026-04-18T10:32:36.001Z</time></trkpt><trkpt lat="43.35924100024849" lon="10.805890899989736"><ele>69.0</ele><time>2026-04-18T10:32:37.001Z</time></trkpt><trkpt lat="43.35927448418376" lon="10.805680937226594"><ele>69.0</ele><time>2026-04-18T10:32:38.001Z</time></trkpt><trkpt lat="43.359300052129576" lon="10.805463227970762"><ele>69.0</ele><time>2026-04-18T10:32:39.001Z</time></trkpt><trkpt lat="43.35932612480317" lon="10.805237852282886"><ele>69.0</ele><time>2026-04-18T10:32:40.001Z</time></trkpt><trkpt lat="43.35935161135134" lon="10.8050215416808"><ele>69.0</ele><time>2026-04-18T10:32:41.001Z</time></trkpt><trkpt lat="43.35937852173535" lon="10.804802083877007"><ele>68.5</ele><time>2026-04-18T10:32:42.001Z</time></trkpt><trkpt lat="43.3594008995806" lon="10.804614863411194"><ele>68.0</ele><time>2026-04-18T10:32:43.001Z</time></trkpt><trkpt lat="43.359421604257456" lon="10.80444007397565"><ele>67.5</ele><time>2026-04-18T10:32:44.001Z</time></trkpt><trkpt lat="43.35944259333436" lon="10.804254093147804"><ele>67.0</ele><time>2026-04-18T10:32:45.001Z</time></trkpt><trkpt lat="43.35945998664846" lon="10.804061644132469"><ele>66.75</ele><time>2026-04-18T10:32:46.001Z</time></trkpt><trkpt lat="43.35947043218502" lon="10.803869061684114"><ele>66.5</ele><time>2026-04-18T10:32:47.001Z</time></trkpt><trkpt lat="43.35946033391125" lon="10.80370346087676"><ele>66.25</ele><time>2026-04-18T10:32:48.001Z</time></trkpt><trkpt lat="43.35943633402982" lon="10.803539037479315"><ele>66.0</ele><time>2026-04-18T10:32:49.001Z</time></trkpt><trkpt lat="43.35940669135548" lon="10.803365045499294"><ele>66.0</ele><time>2026-04-18T10:32:50.001Z</time></trkpt><trkpt lat="43.359374534062376" lon="10.803180377427898"><ele>66.0</ele><time>2026-04-18T10:32:51.001Z</time></trkpt><trkpt lat="43.359326510797345" lon="10.802984286026874"><ele>66.0</ele><time>2026-04-18T10:32:52.001Z</time></trkpt><trkpt lat="43.35924865984006" lon="10.802770893029743"><ele>67.0</ele><time>2026-04-18T10:32:53.001Z</time></trkpt><trkpt lat="43.35914696426748" lon="10.802565637008566"><ele>68.0</ele><time>2026-04-18T10:32:54.001Z</time></trkpt><trkpt lat="43.35902925226395" lon="10.80236255926919"><ele>69.0</ele><time>2026-04-18T10:32:55.001Z</time></trkpt><trkpt lat="43.35890125467736" lon="10.802167001945934"><ele>68.33333333333333</ele><time>2026-04-18T10:32:56.001Z</time></trkpt><trkpt lat="43.3587736632485" lon="10.801979009975966"><ele>67.66666666666666</ele><time>2026-04-18T10:32:57.001Z</time></trkpt><trkpt lat="43.358657926045765" lon="10.801802055912617"><ele>67.0</ele><time>2026-04-18T10:32:58.001Z</time></trkpt><trkpt lat="43.358556675057585" lon="10.80164425943387"><ele>67.0</ele><time>2026-04-18T10:32:59.001Z</time></trkpt><trkpt lat="43.358463346720136" lon="10.801489510315971"><ele>67.0</ele><time>2026-04-18T10:33:00.001Z</time></trkpt><trkpt lat="43.358368033696934" lon="10.801321240758316"><ele>67.0</ele><time>2026-04-18T10:33:01.001Z</time></trkpt><trkpt lat="43.35827967650729" lon="10.801103290779984"><ele>66.0</ele><time>2026-04-18T10:33:02.001Z</time></trkpt><trkpt lat="43.35819749327934" lon="10.800885134029953"><ele>65.0</ele><time>2026-04-18T10:33:03.001Z</time></trkpt><trkpt lat="43.35811140655136" lon="10.8006408609555"><ele>64.0</ele><time>2026-04-18T10:33:04.001Z</time></trkpt><trkpt lat="43.358017705955056" lon="10.800394473728034"><ele>64.33333333333333</ele><time>2026-04-18T10:33:05.002Z</time></trkpt><trkpt lat="43.35794765928426" lon="10.800137397147504"><ele>64.66666666666667</ele><time>2026-04-18T10:33:06.002Z</time></trkpt><trkpt lat="43.357873244393815" lon="10.799876682248156"><ele>65.0</ele><time>2026-04-18T10:33:07.002Z</time></trkpt><trkpt lat="43.35778627862246" lon="10.799620792786051"><ele>65.0</ele><time>2026-04-18T10:33:08.002Z</time></trkpt><trkpt lat="43.35768716014092" lon="10.799368622934585"><ele>65.0</ele><time>2026-04-18T10:33:09.002Z</time></trkpt><trkpt lat="43.35756907537583" lon="10.799129303492629"><ele>65.0</ele><time>2026-04-18T10:33:10.002Z</time></trkpt><trkpt lat="43.35743144379256" lon="10.798908491834926"><ele>65.0</ele><time>2026-04-18T10:33:11.002Z</time></trkpt><trkpt lat="43.357282168387314" lon="10.798696698600663"><ele>65.0</ele><time>2026-04-18T10:33:12.002Z</time></trkpt><trkpt lat="43.357138449122374" lon="10.798484744418113"><ele>65.0</ele><time>2026-04-18T10:33:13.002Z</time></trkpt><trkpt lat="43.35700186670213" lon="10.79825659740442"><ele>65.0</ele><time>2026-04-18T10:33:14.002Z</time></trkpt><trkpt lat="43.356876861573674" lon="10.798026743117784"><ele>65.0</ele><time>2026-04-18T10:33:15.002Z</time></trkpt><trkpt lat="43.35676405053119" lon="10.797785443021095"><ele>65.0</ele><time>2026-04-18T10:33:16.002Z</time></trkpt><trkpt lat="43.35666818735588" lon="10.797547211943536"><ele>66.66666666666667</ele><time>2026-04-18T10:33:17.002Z</time></trkpt><trkpt lat="43.35658465678425" lon="10.797301765625884"><ele>68.33333333333333</ele><time>2026-04-18T10:33:18.002Z</time></trkpt><trkpt lat="43.35651428408259" lon="10.797056013937008"><ele>70.0</ele><time>2026-04-18T10:33:19.002Z</time></trkpt><trkpt lat="43.35645417231582" lon="10.796800412103146"><ele>71.33333333333333</ele><time>2026-04-18T10:33:20.002Z</time></trkpt><trkpt lat="43.356405845633404" lon="10.796545681118525"><ele>72.66666666666667</ele><time>2026-04-18T10:33:21.002Z</time></trkpt><trkpt lat="43.35637145930406" lon="10.796284180760207"><ele>74.0</ele><time>2026-04-18T10:33:22.002Z</time></trkpt><trkpt lat="43.35634836332646" lon="10.79601418561879"><ele>70.0</ele><time>2026-04-18T10:33:23.002Z</time></trkpt><trkpt lat="43.35633609262927" lon="10.795753375710188"><ele>66.0</ele><time>2026-04-18T10:33:24.002Z</time></trkpt><trkpt lat="43.356335233618125" lon="10.795479361427043"><ele>62.0</ele><time>2026-04-18T10:33:25.002Z</time></trkpt><trkpt lat="43.35634617567365" lon="10.795203425398734"><ele>62.333333333333336</ele><time>2026-04-18T10:33:26.002Z</time></trkpt><trkpt lat="43.35636938543684" lon="10.79492574910468"><ele>62.66666666666667</ele><time>2026-04-18T10:33:27.002Z</time></trkpt><trkpt lat="43.35640432196284" lon="10.794650133296999"><ele>63.0</ele><time>2026-04-18T10:33:28.002Z</time></trkpt><trkpt lat="43.356451313158196" lon="10.794364218275183"><ele>62.33333333333333</ele><time>2026-04-18T10:33:29.002Z</time></trkpt><trkpt lat="43.356508830682294" lon="10.794076979152948"><ele>61.666666666666664</ele><time>2026-04-18T10:33:30.002Z</time></trkpt><trkpt lat="43.35657373689818" lon="10.793781066282156"><ele>61.0</ele><time>2026-04-18T10:33:31.002Z</time></trkpt><trkpt lat="43.356641006258826" lon="10.793481746388872"><ele>60.5</ele><time>2026-04-18T10:33:32.002Z</time></trkpt><trkpt lat="43.356711105696995" lon="10.79317877129102"><ele>60.0</ele><time>2026-04-18T10:33:33.002Z</time></trkpt><trkpt lat="43.356782143055156" lon="10.792868684383736"><ele>59.0</ele><time>2026-04-18T10:33:34.002Z</time></trkpt><trkpt lat="43.35684979193709" lon="10.792558647111383"><ele>58.0</ele><time>2026-04-18T10:33:35.002Z</time></trkpt><trkpt lat="43.35691993602786" lon="10.792239919794104"><ele>58.0</ele><time>2026-04-18T10:33:36.002Z</time></trkpt><trkpt lat="43.356986292142274" lon="10.791921414613503"><ele>58.0</ele><time>2026-04-18T10:33:37.002Z</time></trkpt><trkpt lat="43.35704317179882" lon="10.791621369421673"><ele>59.0</ele><time>2026-04-18T10:33:38.002Z</time></trkpt><trkpt lat="43.35709505651646" lon="10.79132473951711"><ele>60.0</ele><time>2026-04-18T10:33:39.002Z</time></trkpt><trkpt lat="43.357146636891784" lon="10.791010332898566"><ele>59.5</ele><time>2026-04-18T10:33:40.002Z</time></trkpt><trkpt lat="43.35719406117404" lon="10.790691750726909"><ele>59.0</ele><time>2026-04-18T10:33:41.002Z</time></trkpt><trkpt lat="43.3572348870087" lon="10.790361378617979"><ele>61.0</ele><time>2026-04-18T10:33:42.002Z</time></trkpt><trkpt lat="43.3572632150209" lon="10.790030718129259"><ele>63.0</ele><time>2026-04-18T10:33:43.002Z</time></trkpt><trkpt lat="43.35728053030994" lon="10.789699235454101"><ele>63.0</ele><time>2026-04-18T10:33:44.002Z</time></trkpt><trkpt lat="43.357290295976476" lon="10.789380392399076"><ele>63.0</ele><time>2026-04-18T10:33:45.002Z</time></trkpt><trkpt lat="43.35729462244137" lon="10.789053558734775"><ele>64.5</ele><time>2026-04-18T10:33:46.002Z</time></trkpt><trkpt lat="43.357293879434444" lon="10.788726549376028"><ele>66.0</ele><time>2026-04-18T10:33:47.002Z</time></trkpt><trkpt lat="43.3572903867135" lon="10.788401935821875"><ele>66.0</ele><time>2026-04-18T10:33:48.002Z</time></trkpt><trkpt lat="43.35727562135681" lon="10.788068621542562"><ele>66.0</ele><time>2026-04-18T10:33:49.002Z</time></trkpt><trkpt lat="43.35725317157981" lon="10.787739775040253"><ele>64.5</ele><time>2026-04-18T10:33:50.002Z</time></trkpt><trkpt lat="43.35725528037256" lon="10.787413385292076"><ele>63.0</ele><time>2026-04-18T10:33:51.002Z</time></trkpt><trkpt lat="43.357186061032195" lon="10.78708857737208"><ele>61.5</ele><time>2026-04-18T10:33:52.002Z</time></trkpt><trkpt lat="43.357145826526136" lon="10.786769466990952"><ele>60.0</ele><time>2026-04-18T10:33:53.002Z</time></trkpt><trkpt lat="43.35710844433883" lon="10.786445239339136"><ele>60.0</ele><time>2026-04-18T10:33:54.002Z</time></trkpt><trkpt lat="43.35706268412707" lon="10.786123527928934"><ele>60.0</ele><time>2026-04-18T10:33:55.002Z</time></trkpt><trkpt lat="43.35701270374482" lon="10.785798529707359"><ele>60.0</ele><time>2026-04-18T10:33:56.002Z</time></trkpt><trkpt lat="43.35695864960966" lon="10.785471610105585"><ele>60.0</ele><time>2026-04-18T10:33:57.002Z</time></trkpt><trkpt lat="43.3569072559389" lon="10.78515584367519"><ele>60.0</ele><time>2026-04-18T10:33:58.002Z</time></trkpt><trkpt lat="43.356861045695354" lon="10.7848680613469"><ele>60.0</ele><time>2026-04-18T10:33:59.002Z</time></trkpt><trkpt lat="43.356818345616446" lon="10.784598345263971"><ele>60.0</ele><time>2026-04-18T10:34:00.002Z</time></trkpt><trkpt lat="43.35677450722559" lon="10.784325747819585"><ele>60.0</ele><time>2026-04-18T10:34:01.002Z</time></trkpt><trkpt lat="43.35672829827731" lon="10.784049856673407"><ele>60.0</ele><time>2026-04-18T10:34:02.002Z</time></trkpt><trkpt lat="43.356686469808785" lon="10.78378476635422"><ele>60.0</ele><time>2026-04-18T10:34:03.002Z</time></trkpt><trkpt lat="43.35664952437786" lon="10.783544293840036"><ele>59.66666666666667</ele><time>2026-04-18T10:34:04.002Z</time></trkpt><trkpt lat="43.35661476630705" lon="10.783317611644009"><ele>59.333333333333336</ele><time>2026-04-18T10:34:05.002Z</time></trkpt><trkpt lat="43.3565788805218" lon="10.783081496490942"><ele>59.0</ele><time>2026-04-18T10:34:06.001Z</time></trkpt><trkpt lat="43.35654481256436" lon="10.782847457026667"><ele>58.66666666666667</ele><time>2026-04-18T10:34:07.001Z</time></trkpt><trkpt lat="43.356515093066896" lon="10.782606950470305"><ele>58.33333333333333</ele><time>2026-04-18T10:34:08.001Z</time></trkpt><trkpt lat="43.35649809930103" lon="10.782384498862772"><ele>58.0</ele><time>2026-04-18T10:34:09.001Z</time></trkpt><trkpt lat="43.35648886357437" lon="10.782185152012936"><ele>58.0</ele><time>2026-04-18T10:34:10.001Z</time></trkpt><trkpt lat="43.356483386943935" lon="10.781982849743606"><ele>58.0</ele><time>2026-04-18T10:34:11.001Z</time></trkpt><trkpt lat="43.3564792689925" lon="10.781777974840155"><ele>58.0</ele><time>2026-04-18T10:34:12.001Z</time></trkpt><trkpt lat="43.35647623741342" lon="10.78156101178923"><ele>58.33333333333333</ele><time>2026-04-18T10:34:13.001Z</time></trkpt><trkpt lat="43.35647077494404" lon="10.78134625510931"><ele>58.66666666666667</ele><time>2026-04-18T10:34:14.001Z</time></trkpt><trkpt lat="43.35646424029754" lon="10.781122062538602"><ele>59.0</ele><time>2026-04-18T10:34:15.001Z</time></trkpt><trkpt lat="43.35645678254498" lon="10.780887963831697"><ele>59.333333333333336</ele><time>2026-04-18T10:34:16.001Z</time></trkpt><trkpt lat="43.356450315130566" lon="10.780650521299188"><ele>59.66666666666667</ele><time>2026-04-18T10:34:17.001Z</time></trkpt><trkpt lat="43.356444309331614" lon="10.780410000370289"><ele>60.0</ele><time>2026-04-18T10:34:18.001Z</time></trkpt><trkpt lat="43.356438427512906" lon="10.780170234101506"><ele>60.0</ele><time>2026-04-18T10:34:19.001Z</time></trkpt><trkpt lat="43.35643445380723" lon="10.77993778428123"><ele>60.0</ele><time>2026-04-18T10:34:20.001Z</time></trkpt><trkpt lat="43.35642923588429" lon="10.779702390730145"><ele>60.0</ele><time>2026-04-18T10:34:21.001Z</time></trkpt><trkpt lat="43.3564222442754" lon="10.77946401484711"><ele>59.0</ele><time>2026-04-18T10:34:22.001Z</time></trkpt><trkpt lat="43.35641311295085" lon="10.779224194986188"><ele>58.0</ele><time>2026-04-18T10:34:23.001Z</time></trkpt><trkpt lat="43.35639570314824" lon="10.778988980733313"><ele>57.0</ele><time>2026-04-18T10:34:24.001Z</time></trkpt><trkpt lat="43.356367710925426" lon="10.778760811291017"><ele>57.0</ele><time>2026-04-18T10:34:25.001Z</time></trkpt><trkpt lat="43.35632919775264" lon="10.778530962762185"><ele>57.0</ele><time>2026-04-18T10:34:26.001Z</time></trkpt><trkpt lat="43.35628079139428" lon="10.778300767236479"><ele>57.0</ele><time>2026-04-18T10:34:27.001Z</time></trkpt><trkpt lat="43.35621882944179" lon="10.778076422229923"><ele>57.33333333333333</ele><time>2026-04-18T10:34:28.001Z</time></trkpt><trkpt lat="43.356142180021756" lon="10.777861803078563"><ele>57.666666666666664</ele><time>2026-04-18T10:34:29.001Z</time></trkpt><trkpt lat="43.35605108986461" lon="10.77765241992528"><ele>58.0</ele><time>2026-04-18T10:34:30.001Z</time></trkpt><trkpt lat="43.355949971091974" lon="10.777455612841127"><ele>59.33333333333333</ele><time>2026-04-18T10:34:31.001Z</time></trkpt><trkpt lat="43.35584047011625" lon="10.777272932874661"><ele>60.66666666666667</ele><time>2026-04-18T10:34:32.001Z</time></trkpt><trkpt lat="43.35571458413794" lon="10.777095488488007"><ele>62.0</ele><time>2026-04-18T10:34:33.001Z</time></trkpt><trkpt lat="43.35558435440504" lon="10.77693929320984"><ele>61.0</ele><time>2026-04-18T10:34:34.001Z</time></trkpt><trkpt lat="43.35544160762482" lon="10.776795249354446"><ele>60.0</ele><time>2026-04-18T10:34:35.001Z</time></trkpt><trkpt lat="43.35529011557742" lon="10.77666741334359"><ele>59.0</ele><time>2026-04-18T10:34:36.001Z</time></trkpt><trkpt lat="43.35513703819527" lon="10.776562322690987"><ele>59.0</ele><time>2026-04-18T10:34:37.001Z</time></trkpt><trkpt lat="43.354995365095675" lon="10.776483174618722"><ele>59.0</ele><time>2026-04-18T10:34:38.001Z</time></trkpt><trkpt lat="43.354862982736684" lon="10.77641105588037"><ele>59.0</ele><time>2026-04-18T10:34:39.001Z</time></trkpt><trkpt lat="43.354744955688695" lon="10.776339247229517"><ele>59.0</ele><time>2026-04-18T10:34:40.001Z</time></trkpt><trkpt lat="43.354634889739295" lon="10.77627207010504"><ele>59.2</ele><time>2026-04-18T10:34:41.001Z</time></trkpt><trkpt lat="43.35453539746857" lon="10.77621309522735"><ele>59.400000000000006</ele><time>2026-04-18T10:34:42.001Z</time></trkpt><trkpt lat="43.354441960093446" lon="10.776153857775062"><ele>59.6</ele><time>2026-04-18T10:34:43.001Z</time></trkpt><trkpt lat="43.354352229988166" lon="10.77609659041061"><ele>59.8</ele><time>2026-04-18T10:34:44.001Z</time></trkpt><trkpt lat="43.35426023775927" lon="10.776041261156946"><ele>60.0</ele><time>2026-04-18T10:34:45.001Z</time></trkpt><trkpt lat="43.35415608208579" lon="10.775979324684357"><ele>60.0</ele><time>2026-04-18T10:34:46.001Z</time></trkpt><trkpt lat="43.35404638033996" lon="10.775907690862121"><ele>60.0</ele><time>2026-04-18T10:34:47.001Z</time></trkpt><trkpt lat="43.35393529423623" lon="10.775823017982813"><ele>60.0</ele><time>2026-04-18T10:34:48.001Z</time></trkpt><trkpt lat="43.353823990156826" lon="10.775722604932508"><ele>60.0</ele><time>2026-04-18T10:34:49.001Z</time></trkpt><trkpt lat="43.353710386507395" lon="10.775604229010122"><ele>59.0</ele><time>2026-04-18T10:34:50.001Z</time></trkpt><trkpt lat="43.353596037887044" lon="10.775459456079219"><ele>58.0</ele><time>2026-04-18T10:34:51.001Z</time></trkpt><trkpt lat="43.353488584666614" lon="10.77529361760109"><ele>57.0</ele><time>2026-04-18T10:34:52.001Z</time></trkpt><trkpt lat="43.35339196000662" lon="10.775126558287191"><ele>57.0</ele><time>2026-04-18T10:34:53.001Z</time></trkpt><trkpt lat="43.3533028195401" lon="10.774965196373655"><ele>57.0</ele><time>2026-04-18T10:34:54.001Z</time></trkpt><trkpt lat="43.35322490788776" lon="10.774828454038728"><ele>57.0</ele><time>2026-04-18T10:34:55.001Z</time></trkpt><trkpt lat="43.353154389474014" lon="10.774709664342508"><ele>57.0</ele><time>2026-04-18T10:34:56.001Z</time></trkpt><trkpt lat="43.35308010071693" lon="10.774583611512385"><ele>57.0</ele><time>2026-04-18T10:34:57.001Z</time></trkpt><trkpt lat="43.35299266937868" lon="10.77443700576519"><ele>57.0</ele><time>2026-04-18T10:34:58.001Z</time></trkpt><trkpt lat="43.35289702656304" lon="10.774280731879006"><ele>57.0</ele><time>2026-04-18T10:34:59.001Z</time></trkpt><trkpt lat="43.3527975764935" lon="10.774115384876131"><ele>57.0</ele><time>2026-04-18T10:35:00.001Z</time></trkpt><trkpt lat="43.352694286921974" lon="10.773941433029265"><ele>57.0</ele><time>2026-04-18T10:35:01.001Z</time></trkpt><trkpt lat="43.35259659265958" lon="10.773771853975765"><ele>57.0</ele><time>2026-04-18T10:35:02.001Z</time></trkpt><trkpt lat="43.35250335191323" lon="10.773605507498548"><ele>57.0</ele><time>2026-04-18T10:35:03.001Z</time></trkpt><trkpt lat="43.35240849934391" lon="10.773436687558181"><ele>57.0</ele><time>2026-04-18T10:35:04.001Z</time></trkpt><trkpt lat="43.35231179589034" lon="10.773267161918792"><ele>57.0</ele><time>2026-04-18T10:35:05.001Z</time></trkpt><trkpt lat="43.35220397120329" lon="10.773076414020844"><ele>57.0</ele><time>2026-04-18T10:35:06.001Z</time></trkpt><trkpt lat="43.35208332573108" lon="10.772868783499618"><ele>56.33333333333333</ele><time>2026-04-18T10:35:07.001Z</time></trkpt><trkpt lat="43.351960528996024" lon="10.77265729298736"><ele>55.666666666666664</ele><time>2026-04-18T10:35:08.001Z</time></trkpt><trkpt lat="43.3518364161724" lon="10.772443022166243"><ele>55.0</ele><time>2026-04-18T10:35:09.001Z</time></trkpt><trkpt lat="43.35171508776826" lon="10.772233381769826"><ele>55.0</ele><time>2026-04-18T10:35:10.001Z</time></trkpt><trkpt lat="43.35160846714926" lon="10.7720471349205"><ele>55.0</ele><time>2026-04-18T10:35:11.001Z</time></trkpt><trkpt lat="43.35149340314647" lon="10.771841801142202"><ele>55.0</ele><time>2026-04-18T10:35:12.001Z</time></trkpt><trkpt lat="43.35136958949872" lon="10.77162760793371"><ele>54.666666666666664</ele><time>2026-04-18T10:35:13.001Z</time></trkpt><trkpt lat="43.351247088291366" lon="10.77142378250036"><ele>54.33333333333333</ele><time>2026-04-18T10:35:14.001Z</time></trkpt><trkpt lat="43.35112735539734" lon="10.77122374874735"><ele>54.0</ele><time>2026-04-18T10:35:15.001Z</time></trkpt><trkpt lat="43.35101432165579" lon="10.7710288157549"><ele>55.0</ele><time>2026-04-18T10:35:16.001Z</time></trkpt><trkpt lat="43.35090456129016" lon="10.770839973948346"><ele>56.0</ele><time>2026-04-18T10:35:17.001Z</time></trkpt><trkpt lat="43.3508044785702" lon="10.770662950562755"><ele>57.0</ele><time>2026-04-18T10:35:18.001Z</time></trkpt><trkpt lat="43.35070738145943" lon="10.770474108932847"><ele>57.0</ele><time>2026-04-18T10:35:19.001Z</time></trkpt><trkpt lat="43.350607915762694" lon="10.770277835642636"><ele>57.0</ele><time>2026-04-18T10:35:20.001Z</time></trkpt><trkpt lat="43.350510018572834" lon="10.770083644803732"><ele>57.0</ele><time>2026-04-18T10:35:21.001Z</time></trkpt><trkpt lat="43.350407871132575" lon="10.76988820135112"><ele>56.66666666666667</ele><time>2026-04-18T10:35:22.001Z</time></trkpt><trkpt lat="43.350308207772436" lon="10.769687677321691"><ele>56.333333333333336</ele><time>2026-04-18T10:35:23.001Z</time></trkpt><trkpt lat="43.35020921397923" lon="10.769480491508732"><ele>56.0</ele><time>2026-04-18T10:35:24.001Z</time></trkpt><trkpt lat="43.35010836541494" lon="10.769271513040371"><ele>56.0</ele><time>2026-04-18T10:35:25.001Z</time></trkpt><trkpt lat="43.35000936230351" lon="10.769072896941124"><ele>56.0</ele><time>2026-04-18T10:35:26.001Z</time></trkpt><trkpt lat="43.34990694222699" lon="10.768871493135636"><ele>56.0</ele><time>2026-04-18T10:35:27.001Z</time></trkpt><trkpt lat="43.349811510330035" lon="10.768676098778185"><ele>56.333333333333336</ele><time>2026-04-18T10:35:28.001Z</time></trkpt><trkpt lat="43.34971896604617" lon="10.76847169062168"><ele>56.66666666666667</ele><time>2026-04-18T10:35:29.001Z</time></trkpt><trkpt lat="43.349637499847894" lon="10.768254616158702"><ele>57.0</ele><time>2026-04-18T10:35:30.001Z</time></trkpt><trkpt lat="43.34958020679214" lon="10.768034489439442"><ele>56.33333333333333</ele><time>2026-04-18T10:35:31.001Z</time></trkpt><trkpt lat="43.34954131723437" lon="10.767811028240976"><ele>55.666666666666664</ele><time>2026-04-18T10:35:32.001Z</time></trkpt><trkpt lat="43.349518506690536" lon="10.767598284590694"><ele>55.0</ele><time>2026-04-18T10:35:33.001Z</time></trkpt><trkpt lat="43.349499582476675" lon="10.767387340612293"><ele>55.0</ele><time>2026-04-18T10:35:34.001Z</time></trkpt><trkpt lat="43.34949324525194" lon="10.767186650204104"><ele>55.0</ele><time>2026-04-18T10:35:35.001Z</time></trkpt><trkpt lat="43.34949910994824" lon="10.766990122625296"><ele>55.0</ele><time>2026-04-18T10:35:36.001Z</time></trkpt><trkpt lat="43.3495172727146" lon="10.766810326775223"><ele>55.0</ele><time>2026-04-18T10:35:37.001Z</time></trkpt><trkpt lat="43.349528446285284" lon="10.7666458422579"><ele>55.25</ele><time>2026-04-18T10:35:38.001Z</time></trkpt><trkpt lat="43.34950392477846" lon="10.766488708230604"><ele>55.5</ele><time>2026-04-18T10:35:39.001Z</time></trkpt><trkpt lat="43.34945205910013" lon="10.766321919751265"><ele>55.75</ele><time>2026-04-18T10:35:40.001Z</time></trkpt><trkpt lat="43.349363811046636" lon="10.766151872320247"><ele>56.0</ele><time>2026-04-18T10:35:41.001Z</time></trkpt><trkpt lat="43.34925976370742" lon="10.765991898220953"><ele>57.66666666666667</ele><time>2026-04-18T10:35:42.001Z</time></trkpt><trkpt lat="43.349134198487874" lon="10.765823066076086"><ele>59.33333333333333</ele><time>2026-04-18T10:35:43.001Z</time></trkpt><trkpt lat="43.349010598300964" lon="10.765651917859476"><ele>61.0</ele><time>2026-04-18T10:35:44.001Z</time></trkpt><trkpt lat="43.34889415455388" lon="10.765472338796439"><ele>60.666666666666664</ele><time>2026-04-18T10:35:45.001Z</time></trkpt><trkpt lat="43.34878568137507" lon="10.765286465503333"><ele>60.33333333333333</ele><time>2026-04-18T10:35:46.001Z</time></trkpt><trkpt lat="43.348696487627336" lon="10.765115869295268"><ele>60.0</ele><time>2026-04-18T10:35:47.001Z</time></trkpt><trkpt lat="43.34862086082015" lon="10.764948763324481"><ele>60.0</ele><time>2026-04-18T10:35:48.001Z</time></trkpt><trkpt lat="43.34855587222148" lon="10.76478017437167"><ele>60.0</ele><time>2026-04-18T10:35:49.001Z</time></trkpt><trkpt lat="43.34849731536467" lon="10.764602753580185"><ele>60.0</ele><time>2026-04-18T10:35:50.001Z</time></trkpt><trkpt lat="43.34844062907635" lon="10.764418863177921"><ele>60.0</ele><time>2026-04-18T10:35:51.001Z</time></trkpt><trkpt lat="43.34838148851799" lon="10.764235193650128"><ele>61.25</ele><time>2026-04-18T10:35:52.001Z</time></trkpt><trkpt lat="43.348322658370385" lon="10.764056033444309"><ele>62.5</ele><time>2026-04-18T10:35:53.001Z</time></trkpt><trkpt lat="43.34826105033411" lon="10.763871567971925"><ele>63.75</ele><time>2026-04-18T10:35:54.001Z</time></trkpt><trkpt lat="43.34820064852813" lon="10.763689450096855"><ele>65.0</ele><time>2026-04-18T10:35:55.001Z</time></trkpt><trkpt lat="43.34814769700992" lon="10.763522609468595"><ele>65.5</ele><time>2026-04-18T10:35:56.001Z</time></trkpt><trkpt lat="43.34809812907415" lon="10.763364265106375"><ele>66.0</ele><time>2026-04-18T10:35:57.001Z</time></trkpt><trkpt lat="43.34804603677013" lon="10.763199135774988"><ele>66.5</ele><time>2026-04-18T10:35:58.001Z</time></trkpt><trkpt lat="43.34798775595325" lon="10.76302054271354"><ele>67.0</ele><time>2026-04-18T10:35:59.001Z</time></trkpt><trkpt lat="43.34792459473814" lon="10.762833252914898"><ele>64.0</ele><time>2026-04-18T10:36:00.001Z</time></trkpt><trkpt lat="43.34786604244599" lon="10.762633426477628"><ele>61.0</ele><time>2026-04-18T10:36:01.001Z</time></trkpt><trkpt lat="43.347812481131896" lon="10.762414338577916"><ele>58.0</ele><time>2026-04-18T10:36:02.001Z</time></trkpt><trkpt lat="43.34776512609328" lon="10.76218033688207"><ele>58.0</ele><time>2026-04-18T10:36:03.001Z</time></trkpt><trkpt lat="43.34772641926895" lon="10.761940473123822"><ele>58.0</ele><time>2026-04-18T10:36:04.001Z</time></trkpt><trkpt lat="43.34769475878767" lon="10.761686489353085"><ele>58.0</ele><time>2026-04-18T10:36:05.001Z</time></trkpt><trkpt lat="43.347668159065705" lon="10.761424366529857"><ele>58.0</ele><time>2026-04-18T10:36:06.001Z</time></trkpt><trkpt lat="43.34764417953408" lon="10.761167143649528"><ele>58.0</ele><time>2026-04-18T10:36:07.001Z</time></trkpt><trkpt lat="43.34761669173861" lon="10.760913595289411"><ele>58.0</ele><time>2026-04-18T10:36:08.001Z</time></trkpt><trkpt lat="43.34758928774452" lon="10.760656965695565"><ele>58.0</ele><time>2026-04-18T10:36:09.002Z</time></trkpt><trkpt lat="43.347559820915954" lon="10.760399307759892"><ele>58.0</ele><time>2026-04-18T10:36:10.002Z</time></trkpt><trkpt lat="43.34752696231814" lon="10.76015353819791"><ele>58.0</ele><time>2026-04-18T10:36:11.002Z</time></trkpt><trkpt lat="43.34748078346057" lon="10.759900913297063"><ele>57.33333333333333</ele><time>2026-04-18T10:36:12Z</time></trkpt><trkpt lat="43.34741540959011" lon="10.759668370444446"><ele>56.66666666666667</ele><time>2026-04-18T10:36:13Z</time></trkpt><trkpt lat="43.347332260305215" lon="10.759442852148544"><ele>56.0</ele><time>2026-04-18T10:36:14Z</time></trkpt><trkpt lat="43.34723683793935" lon="10.759231484567222"><ele>56.333333333333336</ele><time>2026-04-18T10:36:15Z</time></trkpt><trkpt lat="43.347136276097785" lon="10.759037122152112"><ele>56.66666666666667</ele><time>2026-04-18T10:36:16Z</time></trkpt><trkpt lat="43.34703770413287" lon="10.758844324911747"><ele>57.0</ele><time>2026-04-18T10:36:17Z</time></trkpt><trkpt lat="43.34694261708879" lon="10.758658007072485"><ele>58.33333333333333</ele><time>2026-04-18T10:36:18Z</time></trkpt><trkpt lat="43.3468543039026" lon="10.758489025966215"><ele>59.666666666666664</ele><time>2026-04-18T10:36:19Z</time></trkpt><trkpt lat="43.34676030307568" lon="10.758318395918835"><ele>61.0</ele><time>2026-04-18T10:36:20Z</time></trkpt><trkpt lat="43.34666875302387" lon="10.758150704392474"><ele>61.0</ele><time>2026-04-18T10:36:21Z</time></trkpt><trkpt lat="43.34657736964817" lon="10.757985167323763"><ele>61.0</ele><time>2026-04-18T10:36:22Z</time></trkpt><trkpt lat="43.346481641374695" lon="10.757812555323563"><ele>61.0</ele><time>2026-04-18T10:36:23Z</time></trkpt><trkpt lat="43.346390329823556" lon="10.757639972126567"><ele>59.666666666666664</ele><time>2026-04-18T10:36:24Z</time></trkpt><trkpt lat="43.34630079784332" lon="10.757474462011778"><ele>58.33333333333333</ele><time>2026-04-18T10:36:25Z</time></trkpt><trkpt lat="43.34620831608929" lon="10.757304545173739"><ele>57.0</ele><time>2026-04-18T10:36:26Z</time></trkpt><trkpt lat="43.346110379364504" lon="10.757130940928095"><ele>57.0</ele><time>2026-04-18T10:36:27Z</time></trkpt><trkpt lat="43.34601120010561" lon="10.756965616882363"><ele>57.0</ele><time>2026-04-18T10:36:28Z</time></trkpt><trkpt lat="43.34591385724096" lon="10.75681877972784"><ele>57.0</ele><time>2026-04-18T10:36:29Z</time></trkpt><trkpt lat="43.3458163642167" lon="10.7566878865417"><ele>57.0</ele><time>2026-04-18T10:36:30Z</time></trkpt><trkpt lat="43.34571673461825" lon="10.75656589012995"><ele>57.0</ele><time>2026-04-18T10:36:31Z</time></trkpt><trkpt lat="43.34561441781078" lon="10.75644598410519"><ele>57.0</ele><time>2026-04-18T10:36:32Z</time></trkpt><trkpt lat="43.34551928708517" lon="10.756326160010143"><ele>57.0</ele><time>2026-04-18T10:36:33Z</time></trkpt><trkpt lat="43.34543655555005" lon="10.756216753026862"><ele>57.0</ele><time>2026-04-18T10:36:34Z</time></trkpt><trkpt lat="43.34535944817693" lon="10.756114219209525"><ele>56.8</ele><time>2026-04-18T10:36:35Z</time></trkpt><trkpt lat="43.34530003769974" lon="10.756035868015648"><ele>56.6</ele><time>2026-04-18T10:36:36Z</time></trkpt><trkpt lat="43.345231012915846" lon="10.755932806809515"><ele>56.39999999999999</ele><time>2026-04-18T10:36:38Z</time></trkpt><trkpt lat="43.34520387320613" lon="10.755808309521706"><ele>56.199999999999996</ele><time>2026-04-18T10:36:40Z</time></trkpt><trkpt lat="43.345249674609846" lon="10.755637535180098"><ele>56.0</ele><time>2026-04-18T10:36:42Z</time></trkpt><trkpt lat="43.34528888874346" lon="10.755548605008169"><ele>56.00000000000001</ele><time>2026-04-18T10:36:43Z</time></trkpt><trkpt lat="43.34530926070016" lon="10.755462213141387"><ele>56.0</ele><time>2026-04-18T10:36:44Z</time></trkpt><trkpt lat="43.345301163930635" lon="10.755369420495645"><ele>56.0</ele><time>2026-04-18T10:36:45Z</time></trkpt><trkpt lat="43.345262392319725" lon="10.755282037698429"><ele>56.0</ele><time>2026-04-18T10:36:46Z</time></trkpt><trkpt lat="43.345202759738044" lon="10.755211449422465"><ele>56.00000000000001</ele><time>2026-04-18T10:36:47Z</time></trkpt><trkpt lat="43.345123281127016" lon="10.755149851562436"><ele>56.0</ele><time>2026-04-18T10:36:48Z</time></trkpt><trkpt lat="43.34503515459388" lon="10.75508110220459"><ele>56.0</ele><time>2026-04-18T10:36:49Z</time></trkpt><trkpt lat="43.34495666200865" lon="10.754989354238695"><ele>55.99999999999999</ele><time>2026-04-18T10:36:50Z</time></trkpt><trkpt lat="43.34491010620195" lon="10.754877661625406"><ele>55.99999999999999</ele><time>2026-04-18T10:36:51Z</time></trkpt><trkpt lat="43.344879082531556" lon="10.754746820860314"><ele>56.0</ele><time>2026-04-18T10:36:52Z</time></trkpt><trkpt lat="43.34485389651543" lon="10.754618019665388"><ele>56.0</ele><time>2026-04-18T10:36:53Z</time></trkpt><trkpt lat="43.34482487555464" lon="10.754485798667769"><ele>56.16666666666667</ele><time>2026-04-18T10:36:54Z</time></trkpt><trkpt lat="43.344792241210335" lon="10.754354653899256"><ele>56.333333333333336</ele><time>2026-04-18T10:36:55Z</time></trkpt><trkpt lat="43.344758921090204" lon="10.754228852525301"><ele>56.5</ele><time>2026-04-18T10:36:56Z</time></trkpt><trkpt lat="43.34472597062282" lon="10.754116414376746"><ele>56.66666666666667</ele><time>2026-04-18T10:36:57Z</time></trkpt><trkpt lat="43.34469351248922" lon="10.75402533268293"><ele>56.833333333333336</ele><time>2026-04-18T10:36:58Z</time></trkpt><trkpt lat="43.34466187089077" lon="10.75394311606012"><ele>57.0</ele><time>2026-04-18T10:36:59Z</time></trkpt><trkpt lat="43.34463122665693" lon="10.753863951920039"><ele>57.0</ele><time>2026-04-18T10:37:00Z</time></trkpt><trkpt lat="43.34458345380484" lon="10.753726434617581"><ele>57.0</ele><time>2026-04-18T10:37:02Z</time></trkpt><trkpt lat="43.34454683235838" lon="10.75364929683743"><ele>57.0</ele><time>2026-04-18T10:37:05Z</time></trkpt><trkpt lat="43.34454689545358" lon="10.753560742735585"><ele>57.0</ele><time>2026-04-18T10:37:09Z</time></trkpt><trkpt lat="43.34449991575408" lon="10.753474223338452"><ele>57.0</ele><time>2026-04-18T10:37:13Z</time></trkpt><trkpt lat="43.34445597617674" lon="10.753394030332302"><ele>57.0</ele><time>2026-04-18T10:37:16.001Z</time></trkpt><trkpt lat="43.3444592440622" lon="10.753288367026114"><ele>57.0</ele><time>2026-04-18T10:37:19.001Z</time></trkpt><trkpt lat="43.34440950327188" lon="10.753204537344908"><ele>57.0</ele><time>2026-04-18T10:37:23.001Z</time></trkpt><trkpt lat="43.34436301852306" lon="10.75311754496698"><ele>57.0</ele><time>2026-04-18T10:37:26.001Z</time></trkpt><trkpt lat="43.344320293448654" lon="10.75302043007534"><ele>57.0</ele><time>2026-04-18T10:37:32.001Z</time></trkpt><trkpt lat="43.34426230201784" lon="10.752986677324918"><ele>57.0</ele><time>2026-04-18T10:37:35.001Z</time></trkpt></trkseg><trkseg><trkpt lat="43.34421601728871" lon="10.752964887258573"><ele>57.0</ele><time>2026-04-18T11:50:57Z</time></trkpt><trkpt lat="43.34426907674372" lon="10.753035524288402"><ele>57.0</ele><time>2026-04-18T11:52:35Z</time></trkpt><trkpt lat="43.34432099634731" lon="10.753132292353463"><ele>57.0</ele><time>2026-04-18T11:52:37Z</time></trkpt><trkpt lat="43.344398606863884" lon="10.753257374509849"><ele>57.0</ele><time>2026-04-18T11:52:39Z</time></trkpt><trkpt lat="43.34444770118867" lon="10.753336416646698"><ele>57.0</ele><time>2026-04-18T11:52:41Z</time></trkpt><trkpt lat="43.34449513535458" lon="10.753410245861794"><ele>57.0</ele><time>2026-04-18T11:52:43Z</time></trkpt><trkpt lat="43.34452610170457" lon="10.753496950335945"><ele>57.0</ele><time>2026-04-18T11:52:45Z</time></trkpt><trkpt lat="43.344452872005185" lon="10.753548417772569"><ele>57.0</ele><time>2026-04-18T11:52:49Z</time></trkpt><trkpt lat="43.34435566494091" lon="10.753419523199934"><ele>57.0</ele><time>2026-04-18T11:52:51Z</time></trkpt><trkpt lat="43.34431065034752" lon="10.753337172252001"><ele>57.0</ele><time>2026-04-18T11:52:52Z</time></trkpt><trkpt lat="43.344250176048426" lon="10.75325351378235"><ele>57.0</ele><time>2026-04-18T11:52:53Z</time></trkpt><trkpt lat="43.34418298713473" lon="10.75316498664743"><ele>57.0</ele><time>2026-04-18T11:52:54Z</time></trkpt><trkpt lat="43.34411365989896" lon="10.753067876812523"><ele>57.0</ele><time>2026-04-18T11:52:55Z</time></trkpt><trkpt lat="43.34403888923718" lon="10.752958345595168"><ele>57.0</ele><time>2026-04-18T11:52:56Z</time></trkpt><trkpt lat="43.34395193185635" lon="10.752832735430738"><ele>57.0</ele><time>2026-04-18T11:52:57Z</time></trkpt><trkpt lat="43.34386204965103" lon="10.752668285148433"><ele>56.66666666666667</ele><time>2026-04-18T11:52:58Z</time></trkpt><trkpt lat="43.34374960100174" lon="10.752504533229445"><ele>56.333333333333336</ele><time>2026-04-18T11:52:59Z</time></trkpt><trkpt lat="43.3436328068249" lon="10.752334707515171"><ele>56.0</ele><time>2026-04-18T11:53:00Z</time></trkpt><trkpt lat="43.343515528369686" lon="10.752165602992562"><ele>56.0</ele><time>2026-04-18T11:53:01Z</time></trkpt><trkpt lat="43.343392613145156" lon="10.751989742301845"><ele>56.0</ele><time>2026-04-18T11:53:02Z</time></trkpt><trkpt lat="43.3432688178884" lon="10.751810914990829"><ele>56.0</ele><time>2026-04-18T11:53:03Z</time></trkpt><trkpt lat="43.343145225648456" lon="10.751631772825606"><ele>55.66666666666667</ele><time>2026-04-18T11:53:04Z</time></trkpt><trkpt lat="43.3430241200442" lon="10.751456235068387"><ele>55.33333333333333</ele><time>2026-04-18T11:53:05Z</time></trkpt><trkpt lat="43.34290152143572" lon="10.751277464589561"><ele>55.0</ele><time>2026-04-18T11:53:06Z</time></trkpt><trkpt lat="43.342778510963505" lon="10.751098027061547"><ele>55.33333333333333</ele><time>2026-04-18T11:53:07Z</time></trkpt><trkpt lat="43.34265170693583" lon="10.750913054481945"><ele>55.66666666666667</ele><time>2026-04-18T11:53:08Z</time></trkpt><trkpt lat="43.34252524787437" lon="10.750728585103229"><ele>56.0</ele><time>2026-04-18T11:53:09Z</time></trkpt><trkpt lat="43.342391973938774" lon="10.750534882151317"><ele>56.0</ele><time>2026-04-18T11:53:10Z</time></trkpt><trkpt lat="43.34226057185474" lon="10.75034596720225"><ele>56.0</ele><time>2026-04-18T11:53:11Z</time></trkpt><trkpt lat="43.34212969952207" lon="10.750157320089151"><ele>56.0</ele><time>2026-04-18T11:53:12Z</time></trkpt><trkpt lat="43.341996689030815" lon="10.749965012013408"><ele>55.66666666666667</ele><time>2026-04-18T11:53:13Z</time></trkpt><trkpt lat="43.341851479947856" lon="10.749786277097042"><ele>55.33333333333333</ele><time>2026-04-18T11:53:14Z</time></trkpt><trkpt lat="43.34173364158903" lon="10.749581449593842"><ele>55.0</ele><time>2026-04-18T11:53:15Z</time></trkpt><trkpt lat="43.34159531022244" lon="10.749390565489389"><ele>54.666666666666664</ele><time>2026-04-18T11:53:16Z</time></trkpt><trkpt lat="43.3414430405849" lon="10.749229911696917"><ele>54.33333333333333</ele><time>2026-04-18T11:53:17Z</time></trkpt><trkpt lat="43.34129334289865" lon="10.749069555692673"><ele>54.0</ele><time>2026-04-18T11:53:18Z</time></trkpt><trkpt lat="43.34113272256634" lon="10.748930878870931"><ele>54.0</ele><time>2026-04-18T11:53:19Z</time></trkpt><trkpt lat="43.340956500836164" lon="10.748795116943631"><ele>54.0</ele><time>2026-04-18T11:53:20Z</time></trkpt><trkpt lat="43.34078269180654" lon="10.748667984931952"><ele>54.0</ele><time>2026-04-18T11:53:21Z</time></trkpt><trkpt lat="43.34060730868651" lon="10.748533630688641"><ele>54.33333333333333</ele><time>2026-04-18T11:53:22Z</time></trkpt><trkpt lat="43.340434714985534" lon="10.748411906102612"><ele>54.666666666666664</ele><time>2026-04-18T11:53:23Z</time></trkpt><trkpt lat="43.34024000792243" lon="10.748298174385472"><ele>55.0</ele><time>2026-04-18T11:53:24Z</time></trkpt><trkpt lat="43.34004884109827" lon="10.748207551500089"><ele>55.0</ele><time>2026-04-18T11:53:25Z</time></trkpt><trkpt lat="43.33985456282967" lon="10.74811805944691"><ele>55.0</ele><time>2026-04-18T11:53:26Z</time></trkpt><trkpt lat="43.33964828965119" lon="10.748042113129252"><ele>55.0</ele><time>2026-04-18T11:53:27Z</time></trkpt><trkpt lat="43.33943076801046" lon="10.747963747848459"><ele>55.0</ele><time>2026-04-18T11:53:28Z</time></trkpt><trkpt lat="43.339249184972154" lon="10.7478887814814"><ele>55.0</ele><time>2026-04-18T11:53:29Z</time></trkpt><trkpt lat="43.33906203496775" lon="10.747818816520192"><ele>55.0</ele><time>2026-04-18T11:53:30Z</time></trkpt><trkpt lat="43.33886302478899" lon="10.747771266141656"><ele>54.0</ele><time>2026-04-18T11:53:31Z</time></trkpt><trkpt lat="43.33866249469334" lon="10.747762782810275"><ele>53.0</ele><time>2026-04-18T11:53:32Z</time></trkpt><trkpt lat="43.338466460930185" lon="10.747779944379857"><ele>52.0</ele><time>2026-04-18T11:53:33Z</time></trkpt><trkpt lat="43.33826469378782" lon="10.747801034739737"><ele>52.0</ele><time>2026-04-18T11:53:34Z</time></trkpt><trkpt lat="43.33807129163662" lon="10.747823252524482"><ele>52.0</ele><time>2026-04-18T11:53:35Z</time></trkpt><trkpt lat="43.33787447647236" lon="10.747830511323047"><ele>52.0</ele><time>2026-04-18T11:53:36Z</time></trkpt><trkpt lat="43.33770059672999" lon="10.747815702131847"><ele>52.33333333333333</ele><time>2026-04-18T11:53:37Z</time></trkpt><trkpt lat="43.33753333839868" lon="10.747781302654847"><ele>52.66666666666667</ele><time>2026-04-18T11:53:38Z</time></trkpt><trkpt lat="43.33737699322621" lon="10.747723586436045"><ele>53.0</ele><time>2026-04-18T11:53:39Z</time></trkpt><trkpt lat="43.3372252926652" lon="10.747633279397858"><ele>54.0</ele><time>2026-04-18T11:53:40Z</time></trkpt><trkpt lat="43.337106779631576" lon="10.747491402597412"><ele>55.0</ele><time>2026-04-18T11:53:41Z</time></trkpt><trkpt lat="43.336988009318894" lon="10.747343826895245"><ele>56.0</ele><time>2026-04-18T11:53:42Z</time></trkpt><trkpt lat="43.336871277606846" lon="10.747198776633514"><ele>56.0</ele><time>2026-04-18T11:53:43Z</time></trkpt><trkpt lat="43.33674054905515" lon="10.747033280418172"><ele>56.0</ele><time>2026-04-18T11:53:44Z</time></trkpt><trkpt lat="43.336611837244384" lon="10.746869611592547"><ele>56.0</ele><time>2026-04-18T11:53:45Z</time></trkpt><trkpt lat="43.33649194181976" lon="10.74670916204706"><ele>55.333333333333336</ele><time>2026-04-18T11:53:46Z</time></trkpt><trkpt lat="43.33637424550196" lon="10.746535881619186"><ele>54.66666666666667</ele><time>2026-04-18T11:53:47Z</time></trkpt><trkpt lat="43.33628307027297" lon="10.74634473061106"><ele>54.0</ele><time>2026-04-18T11:53:48Z</time></trkpt><trkpt lat="43.336220235233895" lon="10.746152157965486"><ele>54.33333333333333</ele><time>2026-04-18T11:53:49Z</time></trkpt><trkpt lat="43.33616255934855" lon="10.745951919530652"><ele>54.666666666666664</ele><time>2026-04-18T11:53:50Z</time></trkpt><trkpt lat="43.33610746483866" lon="10.745761660544938"><ele>55.0</ele><time>2026-04-18T11:53:51Z</time></trkpt><trkpt lat="43.33605232688224" lon="10.745571251492414"><ele>55.0</ele><time>2026-04-18T11:53:52Z</time></trkpt><trkpt lat="43.335997753409835" lon="10.745382791702273"><ele>55.0</ele><time>2026-04-18T11:53:53Z</time></trkpt><trkpt lat="43.335947173258724" lon="10.745199225542944"><ele>55.0</ele><time>2026-04-18T11:53:54Z</time></trkpt><trkpt lat="43.33589444354195" lon="10.745016498980322"><ele>55.0</ele><time>2026-04-18T11:53:55Z</time></trkpt><trkpt lat="43.335840198706826" lon="10.74482899408653"><ele>55.75</ele><time>2026-04-18T11:53:56Z</time></trkpt><trkpt lat="43.33578665579649" lon="10.744643915500388"><ele>56.5</ele><time>2026-04-18T11:53:57Z</time></trkpt><trkpt lat="43.33573366812177" lon="10.744457489497124"><ele>57.25</ele><time>2026-04-18T11:53:58Z</time></trkpt><trkpt lat="43.3356803512178" lon="10.74426942494107"><ele>58.0</ele><time>2026-04-18T11:53:59Z</time></trkpt><trkpt lat="43.33559456094302" lon="10.744087092968458"><ele>56.666666666666664</ele><time>2026-04-18T11:54:00Z</time></trkpt><trkpt lat="43.335539921594105" lon="10.743887204245368"><ele>55.33333333333333</ele><time>2026-04-18T11:54:01Z</time></trkpt><trkpt lat="43.33548146294965" lon="10.743692233071325"><ele>54.0</ele><time>2026-04-18T11:54:02Z</time></trkpt><trkpt lat="43.33542509731172" lon="10.743506234235056"><ele>54.0</ele><time>2026-04-18T11:54:03Z</time></trkpt><trkpt lat="43.33541750336864" lon="10.74330422058345"><ele>54.0</ele><time>2026-04-18T11:54:04Z</time></trkpt><trkpt lat="43.335394012536526" lon="10.743121309905023"><ele>54.0</ele><time>2026-04-18T11:54:05Z</time></trkpt><trkpt lat="43.3354003472417" lon="10.742955427405423"><ele>54.0</ele><time>2026-04-18T11:54:06Z</time></trkpt><trkpt lat="43.33542925580865" lon="10.742781172140981"><ele>54.0</ele><time>2026-04-18T11:54:07Z</time></trkpt><trkpt lat="43.33545974518922" lon="10.742635240068614"><ele>54.00000000000001</ele><time>2026-04-18T11:54:08Z</time></trkpt><trkpt lat="43.335483970125985" lon="10.742516074742694"><ele>54.00000000000001</ele><time>2026-04-18T11:54:09Z</time></trkpt><trkpt lat="43.335506033175854" lon="10.74240732550993"><ele>54.0</ele><time>2026-04-18T11:54:10Z</time></trkpt><trkpt lat="43.3355193068879" lon="10.742266543783382"><ele>54.0</ele><time>2026-04-18T11:54:11Z</time></trkpt><trkpt lat="43.33554751699599" lon="10.742127341235317"><ele>55.400000000000006</ele><time>2026-04-18T11:54:12Z</time></trkpt><trkpt lat="43.335595639946014" lon="10.741968931843832"><ele>56.800000000000004</ele><time>2026-04-18T11:54:13Z</time></trkpt><trkpt lat="43.33561228507988" lon="10.74181480227515"><ele>58.199999999999996</ele><time>2026-04-18T11:54:14Z</time></trkpt><trkpt lat="43.33564090992346" lon="10.741685688438306"><ele>59.599999999999994</ele><time>2026-04-18T11:54:15Z</time></trkpt><trkpt lat="43.33566289927615" lon="10.74157207974605"><ele>61.0</ele><time>2026-04-18T11:54:16Z</time></trkpt><trkpt lat="43.33569167392086" lon="10.741460237088699"><ele>60.99999999999999</ele><time>2026-04-18T11:54:17Z</time></trkpt><trkpt lat="43.33571801193645" lon="10.741335013329484"><ele>61.0</ele><time>2026-04-18T11:54:18Z</time></trkpt><trkpt lat="43.33575755942105" lon="10.741195457826096"><ele>61.0</ele><time>2026-04-18T11:54:19Z</time></trkpt><trkpt lat="43.33577964744277" lon="10.741082918698208"><ele>61.0</ele><time>2026-04-18T11:54:20Z</time></trkpt><trkpt lat="43.33575422161198" lon="10.740996626057226"><ele>60.99999999999999</ele><time>2026-04-18T11:54:21Z</time></trkpt><trkpt lat="43.33567413283102" lon="10.740976215978407"><ele>61.0</ele><time>2026-04-18T11:54:23Z</time></trkpt><trkpt lat="43.33560260703714" lon="10.741079335099174"><ele>61.0</ele><time>2026-04-18T11:54:25Z</time></trkpt><trkpt lat="43.335638889020835" lon="10.741162932515124"><ele>60.99999999999999</ele><time>2026-04-18T11:54:28Z</time></trkpt><trkpt lat="43.33569763322233" lon="10.741207344987417"><ele>60.99999999999999</ele><time>2026-04-18T11:54:31Z</time></trkpt><trkpt lat="43.33565656053512" lon="10.741405115355738"><ele>61.0</ele><time>2026-04-18T11:54:33Z</time></trkpt><trkpt lat="43.33562149679169" lon="10.74154602956876"><ele>61.0</ele><time>2026-04-18T11:54:34Z</time></trkpt><trkpt lat="43.335593789309414" lon="10.741688715371176"><ele>61.0</ele><time>2026-04-18T11:54:35Z</time></trkpt><trkpt lat="43.33556494428121" lon="10.741837114981918"><ele>60.99999999999999</ele><time>2026-04-18T11:54:36Z</time></trkpt><trkpt lat="43.33553394392068" lon="10.741989434375771"><ele>60.99999999999999</ele><time>2026-04-18T11:54:37Z</time></trkpt><trkpt lat="43.33550282505893" lon="10.742142171313471"><ele>61.0</ele><time>2026-04-18T11:54:38Z</time></trkpt><trkpt lat="43.33547699283305" lon="10.742263209634586"><ele>61.0</ele><time>2026-04-18T11:54:39Z</time></trkpt><trkpt lat="43.33545469265266" lon="10.742371257460466"><ele>59.599999999999994</ele><time>2026-04-18T11:54:40Z</time></trkpt><trkpt lat="43.335394773576084" lon="10.742502289150822"><ele>58.199999999999996</ele><time>2026-04-18T11:54:42Z</time></trkpt><trkpt lat="43.33531213101596" lon="10.742468834914806"><ele>56.800000000000004</ele><time>2026-04-18T11:54:44Z</time></trkpt><trkpt lat="43.33524053999146" lon="10.74235412152551"><ele>55.400000000000006</ele><time>2026-04-18T11:54:46Z</time></trkpt><trkpt lat="43.335193626081924" lon="10.742236143799504"><ele>54.0</ele><time>2026-04-18T11:54:48Z</time></trkpt><trkpt lat="43.3351156177942" lon="10.742100120142583"><ele>54.0</ele><time>2026-04-18T11:54:50Z</time></trkpt><trkpt lat="43.33506509126638" lon="10.742013768887572"><ele>54.00000000000001</ele><time>2026-04-18T11:54:51Z</time></trkpt><trkpt lat="43.33499914421969" lon="10.741902291268977"><ele>54.00000000000001</ele><time>2026-04-18T11:54:52Z</time></trkpt><trkpt lat="43.3349237430322" lon="10.741774832278148"><ele>54.0</ele><time>2026-04-18T11:54:53Z</time></trkpt><trkpt lat="43.33486116166085" lon="10.741670199136182"><ele>54.0</ele><time>2026-04-18T11:54:54Z</time></trkpt><trkpt lat="43.33480235178532" lon="10.741572027178874"><ele>53.6</ele><time>2026-04-18T11:54:55Z</time></trkpt><trkpt lat="43.334752742241044" lon="10.741489213452807"><ele>53.2</ele><time>2026-04-18T11:54:56Z</time></trkpt><trkpt lat="43.33468777076529" lon="10.741380495783504"><ele>52.800000000000004</ele><time>2026-04-18T11:54:57Z</time></trkpt><trkpt lat="43.33462195824348" lon="10.741270367538126"><ele>52.400000000000006</ele><time>2026-04-18T11:54:58Z</time></trkpt><trkpt lat="43.33455173545602" lon="10.741154165223536"><ele>52.0</ele><time>2026-04-18T11:54:59Z</time></trkpt><trkpt lat="43.33447605442163" lon="10.741028458996087"><ele>51.75</ele><time>2026-04-18T11:55:00Z</time></trkpt><trkpt lat="43.33439521942427" lon="10.740892276576009"><ele>51.5</ele><time>2026-04-18T11:55:01Z</time></trkpt><trkpt lat="43.33431821492152" lon="10.740761751212558"><ele>51.25</ele><time>2026-04-18T11:55:02Z</time></trkpt><trkpt lat="43.334238224299966" lon="10.74062441269587"><ele>51.0</ele><time>2026-04-18T11:55:03Z</time></trkpt><trkpt lat="43.33415502352013" lon="10.740480883478966"><ele>51.0</ele><time>2026-04-18T11:55:04Z</time></trkpt><trkpt lat="43.33406706727183" lon="10.74032915063082"><ele>51.0</ele><time>2026-04-18T11:55:05Z</time></trkpt><trkpt lat="43.33398165858594" lon="10.740181812569217"><ele>51.0</ele><time>2026-04-18T11:55:06Z</time></trkpt><trkpt lat="43.33388653685808" lon="10.740017718591762"><ele>51.0</ele><time>2026-04-18T11:55:07Z</time></trkpt><trkpt lat="43.33378694771667" lon="10.739845917906306"><ele>51.33333333333333</ele><time>2026-04-18T11:55:08Z</time></trkpt><trkpt lat="43.33368841046013" lon="10.739676259006243"><ele>51.666666666666664</ele><time>2026-04-18T11:55:09Z</time></trkpt><trkpt lat="43.3335897832698" lon="10.739506726407445"><ele>52.0</ele><time>2026-04-18T11:55:10Z</time></trkpt><trkpt lat="43.333493299318" lon="10.739341704445305"><ele>52.0</ele><time>2026-04-18T11:55:11Z</time></trkpt><trkpt lat="43.33339055272834" lon="10.73917290605912"><ele>52.0</ele><time>2026-04-18T11:55:12Z</time></trkpt><trkpt lat="43.3332777824766" lon="10.739018675031428"><ele>52.0</ele><time>2026-04-18T11:55:13Z</time></trkpt><trkpt lat="43.33316837040301" lon="10.73885809406726"><ele>52.33333333333333</ele><time>2026-04-18T11:55:14Z</time></trkpt><trkpt lat="43.3330459338592" lon="10.738725279810605"><ele>52.66666666666667</ele><time>2026-04-18T11:55:15Z</time></trkpt><trkpt lat="43.33289429563542" lon="10.7386183597163"><ele>53.0</ele><time>2026-04-18T11:55:16Z</time></trkpt><trkpt lat="43.33274365728657" lon="10.738541252642158"><ele>53.333333333333336</ele><time>2026-04-18T11:55:17Z</time></trkpt><trkpt lat="43.33258466392285" lon="10.73846242387218"><ele>53.66666666666667</ele><time>2026-04-18T11:55:17.999Z</time></trkpt><trkpt lat="43.332421845008696" lon="10.738377147958674"><ele>54.0</ele><time>2026-04-18T11:55:18.999Z</time></trkpt><trkpt lat="43.332256101725605" lon="10.738279391303557"><ele>53.33333333333333</ele><time>2026-04-18T11:55:19.999Z</time></trkpt><trkpt lat="43.33209711493573" lon="10.738185020708563"><ele>52.666666666666664</ele><time>2026-04-18T11:55:20.999Z</time></trkpt><trkpt lat="43.33193193884986" lon="10.738087040851415"><ele>52.0</ele><time>2026-04-18T11:55:21.999Z</time></trkpt><trkpt lat="43.33177662642727" lon="10.737997360903046"><ele>52.0</ele><time>2026-04-18T11:55:22.999Z</time></trkpt><trkpt lat="43.33161136218066" lon="10.737902315521964"><ele>52.0</ele><time>2026-04-18T11:55:23.999Z</time></trkpt><trkpt lat="43.33143795695026" lon="10.73780714683149"><ele>52.0</ele><time>2026-04-18T11:55:24.999Z</time></trkpt><trkpt lat="43.33134032253735" lon="10.737744983884431"><ele>54.5</ele><time>2026-04-18T11:55:25.999Z</time></trkpt><trkpt lat="43.33122738814424" lon="10.737624534912653"><ele>57.0</ele><time>2026-04-18T11:55:26.999Z</time></trkpt><trkpt lat="43.33112230273236" lon="10.737500105387086"><ele>59.5</ele><time>2026-04-18T11:55:27.999Z</time></trkpt><trkpt lat="43.33102875331215" lon="10.73735243592484"><ele>62.0</ele><time>2026-04-18T11:55:28.999Z</time></trkpt><trkpt lat="43.33095492622333" lon="10.737184143485502"><ele>62.0</ele><time>2026-04-18T11:55:29.999Z</time></trkpt><trkpt lat="43.33089634488215" lon="10.737002711445754"><ele>62.0</ele><time>2026-04-18T11:55:30.999Z</time></trkpt><trkpt lat="43.33084306803214" lon="10.73681370158328"><ele>62.0</ele><time>2026-04-18T11:55:31.999Z</time></trkpt><trkpt lat="43.330795070757155" lon="10.736641586738907"><ele>62.0</ele><time>2026-04-18T11:55:32.999Z</time></trkpt><trkpt lat="43.33075209400856" lon="10.736488127299113"><ele>62.66666666666667</ele><time>2026-04-18T11:55:33.999Z</time></trkpt><trkpt lat="43.330710655322164" lon="10.736350411530855"><ele>63.33333333333333</ele><time>2026-04-18T11:55:34.999Z</time></trkpt><trkpt lat="43.33065734942096" lon="10.736153865287163"><ele>64.0</ele><time>2026-04-18T11:55:36.999Z</time></trkpt><trkpt lat="43.33043412515165" lon="10.736170912393003"><ele>66.0</ele><time>2026-04-18T11:55:38.999Z</time></trkpt><trkpt lat="43.330335198451984" lon="10.736222854044865"><ele>68.0</ele><time>2026-04-18T11:55:39.999Z</time></trkpt><trkpt lat="43.330235695309284" lon="10.736289491743257"><ele>70.0</ele><time>2026-04-18T11:55:40.999Z</time></trkpt><trkpt lat="43.330120203268095" lon="10.736352362747361"><ele>72.0</ele><time>2026-04-18T11:55:41.999Z</time></trkpt><trkpt lat="43.32998347396942" lon="10.736417117094499"><ele>72.0</ele><time>2026-04-18T11:55:42.999Z</time></trkpt><trkpt lat="43.32985202180238" lon="10.736484428105028"><ele>72.0</ele><time>2026-04-18T11:55:43.999Z</time></trkpt><trkpt lat="43.32971486923555" lon="10.736557587825416"><ele>72.0</ele><time>2026-04-18T11:55:44.999Z</time></trkpt><trkpt lat="43.32957246761627" lon="10.736638501442066"><ele>72.0</ele><time>2026-04-18T11:55:45.999Z</time></trkpt><trkpt lat="43.32940921640982" lon="10.736731082345742"><ele>72.33333333333333</ele><time>2026-04-18T11:55:47Z</time></trkpt><trkpt lat="43.32924501807264" lon="10.73681941870791"><ele>72.66666666666666</ele><time>2026-04-18T11:55:48Z</time></trkpt><trkpt lat="43.32908277884485" lon="10.736904505806578"><ele>73.0</ele><time>2026-04-18T11:55:49Z</time></trkpt><trkpt lat="43.328913821200764" lon="10.736998288626907"><ele>74.0</ele><time>2026-04-18T11:55:50Z</time></trkpt><trkpt lat="43.32874282685854" lon="10.7370854738628"><ele>75.0</ele><time>2026-04-18T11:55:51Z</time></trkpt><trkpt lat="43.32856978291177" lon="10.73717693612376"><ele>76.0</ele><time>2026-04-18T11:55:52Z</time></trkpt><trkpt lat="43.32839245302715" lon="10.73727553341442"><ele>76.0</ele><time>2026-04-18T11:55:53Z</time></trkpt><trkpt lat="43.32821384301859" lon="10.737374244890372"><ele>76.0</ele><time>2026-04-18T11:55:54Z</time></trkpt><trkpt lat="43.328025865129035" lon="10.737475406441108"><ele>76.0</ele><time>2026-04-18T11:55:55Z</time></trkpt><trkpt lat="43.32786237391559" lon="10.737570213274447"><ele>76.25</ele><time>2026-04-18T11:55:56Z</time></trkpt><trkpt lat="43.32771991354341" lon="10.737653601209898"><ele>76.5</ele><time>2026-04-18T11:55:57Z</time></trkpt><trkpt lat="43.32758407964184" lon="10.737721281879379"><ele>76.75</ele><time>2026-04-18T11:55:58Z</time></trkpt><trkpt lat="43.327451109402126" lon="10.737796675064349"><ele>77.0</ele><time>2026-04-18T11:55:59Z</time></trkpt><trkpt lat="43.32733432379669" lon="10.737895383515593"><ele>77.0</ele><time>2026-04-18T11:56:00Z</time></trkpt><trkpt lat="43.327232279703246" lon="10.738004899855575"><ele>77.0</ele><time>2026-04-18T11:56:01Z</time></trkpt><trkpt lat="43.32714667828419" lon="10.738105987577955"><ele>77.0</ele><time>2026-04-18T11:56:02Z</time></trkpt><trkpt lat="43.327040659618476" lon="10.738196394251869"><ele>77.0</ele><time>2026-04-18T11:56:03Z</time></trkpt><trkpt lat="43.32690824432722" lon="10.738279704036135"><ele>77.25</ele><time>2026-04-18T11:56:04Z</time></trkpt><trkpt lat="43.32678043544092" lon="10.738350446069227"><ele>77.5</ele><time>2026-04-18T11:56:05Z</time></trkpt><trkpt lat="43.326673727474606" lon="10.738427364643949"><ele>77.75</ele><time>2026-04-18T11:56:06Z</time></trkpt><trkpt lat="43.326585500359066" lon="10.738521630911999"><ele>78.0</ele><time>2026-04-18T11:56:07Z</time></trkpt><trkpt lat="43.326517385211815" lon="10.73862777157121"><ele>78.2</ele><time>2026-04-18T11:56:08Z</time></trkpt><trkpt lat="43.32645450146733" lon="10.738736073826185"><ele>78.4</ele><time>2026-04-18T11:56:09Z</time></trkpt><trkpt lat="43.32639169004083" lon="10.738849239661977"><ele>78.60000000000001</ele><time>2026-04-18T11:56:10Z</time></trkpt><trkpt lat="43.326333001893786" lon="10.738961061444837"><ele>78.8</ele><time>2026-04-18T11:56:11Z</time></trkpt><trkpt lat="43.32629192176262" lon="10.739099382689547"><ele>79.0</ele><time>2026-04-18T11:56:12Z</time></trkpt><trkpt lat="43.326301948895754" lon="10.739254304440221"><ele>76.5</ele><time>2026-04-18T11:56:13Z</time></trkpt><trkpt lat="43.326317529954814" lon="10.739431968236527"><ele>74.0</ele><time>2026-04-18T11:56:14Z</time></trkpt><trkpt lat="43.32631998428708" lon="10.739616970386448"><ele>71.5</ele><time>2026-04-18T11:56:15Z</time></trkpt><trkpt lat="43.326328135169064" lon="10.739774363643333"><ele>69.0</ele><time>2026-04-18T11:56:16Z</time></trkpt><trkpt lat="43.32631040947434" lon="10.739911691979799"><ele>69.0</ele><time>2026-04-18T11:56:17Z</time></trkpt><trkpt lat="43.32626380338739" lon="10.740035198538436"><ele>69.0</ele><time>2026-04-18T11:56:18Z</time></trkpt><trkpt lat="43.326187513244605" lon="10.740124069646969"><ele>69.0</ele><time>2026-04-18T11:56:19Z</time></trkpt><trkpt lat="43.32607508758013" lon="10.740189967298623"><ele>69.0</ele><time>2026-04-18T11:56:20Z</time></trkpt><trkpt lat="43.32593451672394" lon="10.74025537096545"><ele>67.66666666666667</ele><time>2026-04-18T11:56:21Z</time></trkpt><trkpt lat="43.32578805655593" lon="10.740340361425272"><ele>66.33333333333334</ele><time>2026-04-18T11:56:22Z</time></trkpt><trkpt lat="43.32564046047942" lon="10.740437650304186"><ele>65.0</ele><time>2026-04-18T11:56:23Z</time></trkpt><trkpt lat="43.325485562486854" lon="10.740546484999667"><ele>65.0</ele><time>2026-04-18T11:56:24Z</time></trkpt><trkpt lat="43.3253245955983" lon="10.740659431525488"><ele>65.0</ele><time>2026-04-18T11:56:25Z</time></trkpt><trkpt lat="43.32515489303971" lon="10.7407788322783"><ele>65.0</ele><time>2026-04-18T11:56:26Z</time></trkpt><trkpt lat="43.32498958316497" lon="10.74092289879219"><ele>64.0</ele><time>2026-04-18T11:56:27Z</time></trkpt><trkpt lat="43.32484189443645" lon="10.741093988688363"><ele>63.0</ele><time>2026-04-18T11:56:28Z</time></trkpt><trkpt lat="43.32470067947922" lon="10.741290117647543"><ele>62.0</ele><time>2026-04-18T11:56:29Z</time></trkpt><trkpt lat="43.32456007302322" lon="10.741498300147104"><ele>62.0</ele><time>2026-04-18T11:56:30Z</time></trkpt><trkpt lat="43.3244165645028" lon="10.741715343132457"><ele>62.0</ele><time>2026-04-18T11:56:31Z</time></trkpt><trkpt lat="43.324265041462944" lon="10.741947680382536"><ele>62.0</ele><time>2026-04-18T11:56:32Z</time></trkpt><trkpt lat="43.32411183650878" lon="10.742187263982492"><ele>59.5</ele><time>2026-04-18T11:56:33Z</time></trkpt><trkpt lat="43.32396271801491" lon="10.742430595406905"><ele>57.0</ele><time>2026-04-18T11:56:34Z</time></trkpt><trkpt lat="43.32380509973538" lon="10.742679583310892"><ele>57.5</ele><time>2026-04-18T11:56:35Z</time></trkpt><trkpt lat="43.323653757619006" lon="10.742922646903592"><ele>58.0</ele><time>2026-04-18T11:56:36Z</time></trkpt><trkpt lat="43.32350492866413" lon="10.743165271896055"><ele>58.0</ele><time>2026-04-18T11:56:37Z</time></trkpt><trkpt lat="43.32335788371229" lon="10.743410387132064"><ele>58.0</ele><time>2026-04-18T11:56:38Z</time></trkpt><trkpt lat="43.32320831721399" lon="10.743658519733794"><ele>61.0</ele><time>2026-04-18T11:56:39Z</time></trkpt><trkpt lat="43.3230553664042" lon="10.743907000416321"><ele>64.0</ele><time>2026-04-18T11:56:40Z</time></trkpt><trkpt lat="43.32289531855073" lon="10.74416518751526"><ele>60.5</ele><time>2026-04-18T11:56:41Z</time></trkpt><trkpt lat="43.322742959474" lon="10.744411833750204"><ele>57.0</ele><time>2026-04-18T11:56:42Z</time></trkpt><trkpt lat="43.32259508243969" lon="10.744653672152186"><ele>57.0</ele><time>2026-04-18T11:56:43Z</time></trkpt><trkpt lat="43.32243947393101" lon="10.744910663368575"><ele>57.0</ele><time>2026-04-18T11:56:44Z</time></trkpt><trkpt lat="43.32228875005822" lon="10.745153737116144"><ele>59.0</ele><time>2026-04-18T11:56:45Z</time></trkpt><trkpt lat="43.32213398330141" lon="10.745402649561118"><ele>61.0</ele><time>2026-04-18T11:56:46Z</time></trkpt><trkpt lat="43.321990095253774" lon="10.74564941670879"><ele>61.0</ele><time>2026-04-18T11:56:47Z</time></trkpt><trkpt lat="43.32185863840828" lon="10.745912039645168"><ele>61.0</ele><time>2026-04-18T11:56:48Z</time></trkpt><trkpt lat="43.32173665850539" lon="10.746183864073368"><ele>58.5</ele><time>2026-04-18T11:56:49Z</time></trkpt><trkpt lat="43.32162321449483" lon="10.746464997095408"><ele>56.0</ele><time>2026-04-18T11:56:50Z</time></trkpt><trkpt lat="43.32151572561349" lon="10.746743290081396"><ele>56.0</ele><time>2026-04-18T11:56:51Z</time></trkpt><trkpt lat="43.321399306089766" lon="10.747026299788397"><ele>56.0</ele><time>2026-04-18T11:56:52Z</time></trkpt><trkpt lat="43.32128564346675" lon="10.747304935174336"><ele>58.5</ele><time>2026-04-18T11:56:53Z</time></trkpt><trkpt lat="43.3211711039349" lon="10.747583602788762"><ele>61.0</ele><time>2026-04-18T11:56:54Z</time></trkpt><trkpt lat="43.3210541149145" lon="10.747861306513418"><ele>61.0</ele><time>2026-04-18T11:56:55Z</time></trkpt><trkpt lat="43.32093991830312" lon="10.748143034584343"><ele>61.0</ele><time>2026-04-18T11:56:56Z</time></trkpt><trkpt lat="43.32082477982985" lon="10.748432821664203"><ele>59.0</ele><time>2026-04-18T11:56:57Z</time></trkpt><trkpt lat="43.32071183802728" lon="10.74871854215883"><ele>57.0</ele><time>2026-04-18T11:56:58Z</time></trkpt><trkpt lat="43.320599310244944" lon="10.74900566520307"><ele>59.5</ele><time>2026-04-18T11:56:59Z</time></trkpt><trkpt lat="43.32047903470739" lon="10.74929791233688"><ele>62.0</ele><time>2026-04-18T11:57:00Z</time></trkpt><trkpt lat="43.32036584024448" lon="10.749584662815034"><ele>62.0</ele><time>2026-04-18T11:57:01Z</time></trkpt><trkpt lat="43.320241562566466" lon="10.749866192259432"><ele>62.0</ele><time>2026-04-18T11:57:02Z</time></trkpt><trkpt lat="43.32012053304562" lon="10.750109417070696"><ele>63.0</ele><time>2026-04-18T11:57:03Z</time></trkpt><trkpt lat="43.31998551123328" lon="10.75032648535769"><ele>64.0</ele><time>2026-04-18T11:57:04Z</time></trkpt><trkpt lat="43.31982096841598" lon="10.750519617584168"><ele>65.0</ele><time>2026-04-18T11:57:05Z</time></trkpt><trkpt lat="43.31964550244623" lon="10.750690718795413"><ele>65.0</ele><time>2026-04-18T11:57:06Z</time></trkpt><trkpt lat="43.31945909354353" lon="10.750875485080648"><ele>65.0</ele><time>2026-04-18T11:57:07Z</time></trkpt><trkpt lat="43.319302433067705" lon="10.751050744673194"><ele>65.0</ele><time>2026-04-18T11:57:08Z</time></trkpt><trkpt lat="43.31914360050586" lon="10.751242721168433"><ele>64.0</ele><time>2026-04-18T11:57:09Z</time></trkpt><trkpt lat="43.319013199425406" lon="10.75143779452752"><ele>63.0</ele><time>2026-04-18T11:57:10Z</time></trkpt><trkpt lat="43.31890439617022" lon="10.751671466697687"><ele>62.0</ele><time>2026-04-18T11:57:11Z</time></trkpt><trkpt lat="43.31881460027661" lon="10.751922830665892"><ele>66.5</ele><time>2026-04-18T11:57:12Z</time></trkpt><trkpt lat="43.31871464312486" lon="10.752216580410389"><ele>71.0</ele><time>2026-04-18T11:57:13Z</time></trkpt><trkpt lat="43.31862025587536" lon="10.752495605128098"><ele>70.5</ele><time>2026-04-18T11:57:14Z</time></trkpt><trkpt lat="43.3185204053451" lon="10.752771233778743"><ele>70.0</ele><time>2026-04-18T11:57:15Z</time></trkpt><trkpt lat="43.318414002939704" lon="10.753058247339954"><ele>70.0</ele><time>2026-04-18T11:57:16Z</time></trkpt><trkpt lat="43.318307391542724" lon="10.753348190355709"><ele>70.0</ele><time>2026-04-18T11:57:17Z</time></trkpt><trkpt lat="43.318203025908666" lon="10.753631818129918"><ele>67.0</ele><time>2026-04-18T11:57:18Z</time></trkpt><trkpt lat="43.318100023440785" lon="10.753917029652877"><ele>64.0</ele><time>2026-04-18T11:57:19Z</time></trkpt><trkpt lat="43.31799703174748" lon="10.754202061251007"><ele>65.0</ele><time>2026-04-18T11:57:20Z</time></trkpt><trkpt lat="43.317900948997" lon="10.754464307399395"><ele>66.0</ele><time>2026-04-18T11:57:21Z</time></trkpt><trkpt lat="43.31780797005139" lon="10.754719740210124"><ele>67.0</ele><time>2026-04-18T11:57:22Z</time></trkpt><trkpt lat="43.31771765680193" lon="10.754972454971478"><ele>66.66666666666666</ele><time>2026-04-18T11:57:23Z</time></trkpt><trkpt lat="43.31762928624042" lon="10.75524658220326"><ele>66.33333333333333</ele><time>2026-04-18T11:57:23.999Z</time></trkpt><trkpt lat="43.31755935391231" lon="10.755492121539339"><ele>66.0</ele><time>2026-04-18T11:57:24.999Z</time></trkpt><trkpt lat="43.31748619367886" lon="10.755747333789396"><ele>66.0</ele><time>2026-04-18T11:57:25.999Z</time></trkpt><trkpt lat="43.31740567530817" lon="10.756012157023438"><ele>66.0</ele><time>2026-04-18T11:57:26.999Z</time></trkpt><trkpt lat="43.31731952388609" lon="10.756280450619803"><ele>66.0</ele><time>2026-04-18T11:57:27.999Z</time></trkpt><trkpt lat="43.31722634857904" lon="10.75655118088079"><ele>70.33333333333333</ele><time>2026-04-18T11:57:28.999Z</time></trkpt><trkpt lat="43.317131864337775" lon="10.756825897064639"><ele>74.66666666666666</ele><time>2026-04-18T11:57:29.999Z</time></trkpt><trkpt lat="43.31704432178577" lon="10.757105706195926"><ele>79.0</ele><time>2026-04-18T11:57:30.999Z</time></trkpt><trkpt lat="43.31697642294142" lon="10.757359751041013"><ele>80.0</ele><time>2026-04-18T11:57:31.999Z</time></trkpt><trkpt lat="43.31692768296065" lon="10.757591980052455"><ele>81.0</ele><time>2026-04-18T11:57:32.999Z</time></trkpt><trkpt lat="43.316880843752706" lon="10.757794626782013"><ele>82.0</ele><time>2026-04-18T11:57:33.999Z</time></trkpt><trkpt lat="43.316845896055206" lon="10.757969227745843"><ele>80.66666666666666</ele><time>2026-04-18T11:57:34.999Z</time></trkpt><trkpt lat="43.31681405863833" lon="10.758122367485662"><ele>79.33333333333333</ele><time>2026-04-18T11:57:35.999Z</time></trkpt><trkpt lat="43.31678758606239" lon="10.758248586414604"><ele>78.0</ele><time>2026-04-18T11:57:36.999Z</time></trkpt><trkpt lat="43.3167679605801" lon="10.758332267662144"><ele>76.66666666666667</ele><time>2026-04-18T11:57:37.999Z</time></trkpt><trkpt lat="43.316745770205124" lon="10.758421400236964"><ele>75.33333333333334</ele><time>2026-04-18T11:57:39.999Z</time></trkpt><trkpt lat="43.31673786061827" lon="10.758530722336541"><ele>74.0</ele><time>2026-04-18T11:57:41.999Z</time></trkpt><trkpt lat="43.3167088743594" lon="10.75866720904791"><ele>72.8</ele><time>2026-04-18T11:57:43.999Z</time></trkpt><trkpt lat="43.31668381506251" lon="10.758777846716255"><ele>71.60000000000001</ele><time>2026-04-18T11:57:44.999Z</time></trkpt><trkpt lat="43.316659540060485" lon="10.758906162294512"><ele>70.4</ele><time>2026-04-18T11:57:45.999Z</time></trkpt><trkpt lat="43.31662264578612" lon="10.759071287980412"><ele>69.2</ele><time>2026-04-18T11:57:46.999Z</time></trkpt><trkpt lat="43.31658902394628" lon="10.759250902576452"><ele>68.0</ele><time>2026-04-18T11:57:47.999Z</time></trkpt><trkpt lat="43.316545556378706" lon="10.759457034368406"><ele>67.33333333333334</ele><time>2026-04-18T11:57:48.999Z</time></trkpt><trkpt lat="43.316494977762716" lon="10.759669529321732"><ele>66.66666666666667</ele><time>2026-04-18T11:57:49.999Z</time></trkpt><trkpt lat="43.31645062778965" lon="10.759898679612736"><ele>66.0</ele><time>2026-04-18T11:57:50.999Z</time></trkpt><trkpt lat="43.31640763130984" lon="10.760139500885575"><ele>68.33333333333333</ele><time>2026-04-18T11:57:51.999Z</time></trkpt><trkpt lat="43.31636494917772" lon="10.760361819086164"><ele>70.66666666666666</ele><time>2026-04-18T11:57:52.999Z</time></trkpt><trkpt lat="43.316326615341836" lon="10.760563457026818"><ele>73.0</ele><time>2026-04-18T11:57:53.999Z</time></trkpt><trkpt lat="43.31629103087506" lon="10.760745469716557"><ele>73.0</ele><time>2026-04-18T11:57:54.999Z</time></trkpt><trkpt lat="43.31624840680085" lon="10.760887667971009"><ele>73.0</ele><time>2026-04-18T11:57:55.999Z</time></trkpt><trkpt lat="43.31618932493007" lon="10.760990009598995"><ele>73.0</ele><time>2026-04-18T11:57:57Z</time></trkpt><trkpt lat="43.31610519616586" lon="10.761036658536238"><ele>73.0</ele><time>2026-04-18T11:57:58Z</time></trkpt><trkpt lat="43.31599780253383" lon="10.761060262060164"><ele>73.0</ele><time>2026-04-18T11:57:59Z</time></trkpt><trkpt lat="43.31586087147205" lon="10.7610873807726"><ele>71.33333333333333</ele><time>2026-04-18T11:58:00Z</time></trkpt><trkpt lat="43.31571343792357" lon="10.761139367466374"><ele>69.66666666666667</ele><time>2026-04-18T11:58:01Z</time></trkpt><trkpt lat="43.31555603048196" lon="10.761212719293383"><ele>68.0</ele><time>2026-04-18T11:58:02Z</time></trkpt><trkpt lat="43.31540466187679" lon="10.76130870018733"><ele>67.66666666666667</ele><time>2026-04-18T11:58:03Z</time></trkpt><trkpt lat="43.31525599877768" lon="10.761442072134043"><ele>67.33333333333333</ele><time>2026-04-18T11:58:04Z</time></trkpt><trkpt lat="43.31512660758509" lon="10.761612711169379"><ele>67.0</ele><time>2026-04-18T11:58:05Z</time></trkpt><trkpt lat="43.31499146835046" lon="10.761803314554726"><ele>66.66666666666666</ele><time>2026-04-18T11:58:06Z</time></trkpt><trkpt lat="43.31488980696248" lon="10.761960435704067"><ele>66.33333333333333</ele><time>2026-04-18T11:58:07Z</time></trkpt><trkpt lat="43.31477954252111" lon="10.762093701829535"><ele>66.0</ele><time>2026-04-18T11:58:08Z</time></trkpt><trkpt lat="43.31464137078328" lon="10.762219495493586"><ele>67.33333333333333</ele><time>2026-04-18T11:58:09Z</time></trkpt><trkpt lat="43.31449326696136" lon="10.762328651189181"><ele>68.66666666666666</ele><time>2026-04-18T11:58:10Z</time></trkpt><trkpt lat="43.31433795244185" lon="10.76244345382184"><ele>70.0</ele><time>2026-04-18T11:58:11Z</time></trkpt><trkpt lat="43.314201320858146" lon="10.762576242026196"><ele>69.66666666666666</ele><time>2026-04-18T11:58:12Z</time></trkpt><trkpt lat="43.314078931656375" lon="10.762749639724458"><ele>69.33333333333333</ele><time>2026-04-18T11:58:13Z</time></trkpt><trkpt lat="43.31395584907251" lon="10.762943467940646"><ele>69.0</ele><time>2026-04-18T11:58:14Z</time></trkpt><trkpt lat="43.31384027552541" lon="10.763141124555062"><ele>71.0</ele><time>2026-04-18T11:58:15Z</time></trkpt><trkpt lat="43.31372387262476" lon="10.763346538534348"><ele>73.0</ele><time>2026-04-18T11:58:16Z</time></trkpt><trkpt lat="43.31361022983538" lon="10.763535506492659"><ele>75.0</ele><time>2026-04-18T11:58:17Z</time></trkpt><trkpt lat="43.31349251163303" lon="10.763723399501208"><ele>75.0</ele><time>2026-04-18T11:58:18Z</time></trkpt><trkpt lat="43.31338230746917" lon="10.763867504035664"><ele>75.0</ele><time>2026-04-18T11:58:19Z</time></trkpt><trkpt lat="43.31324798570282" lon="10.764002590232638"><ele>75.0</ele><time>2026-04-18T11:58:20Z</time></trkpt><trkpt lat="43.31309692072323" lon="10.764094921788725"><ele>79.0</ele><time>2026-04-18T11:58:21Z</time></trkpt><trkpt lat="43.312934253639135" lon="10.764187711623153"><ele>83.0</ele><time>2026-04-18T11:58:22Z</time></trkpt><trkpt lat="43.31276919094765" lon="10.764287127525101"><ele>87.0</ele><time>2026-04-18T11:58:23Z</time></trkpt><trkpt lat="43.31261413515673" lon="10.764415026712879"><ele>87.0</ele><time>2026-04-18T11:58:24Z</time></trkpt><trkpt lat="43.31245417266201" lon="10.764563991552812"><ele>87.0</ele><time>2026-04-18T11:58:25Z</time></trkpt><trkpt lat="43.31230408885458" lon="10.764705664670466"><ele>87.0</ele><time>2026-04-18T11:58:26Z</time></trkpt><trkpt lat="43.31215408908926" lon="10.764856142083678"><ele>91.66666666666666</ele><time>2026-04-18T11:58:27Z</time></trkpt><trkpt lat="43.312021275734246" lon="10.764998047966257"><ele>96.33333333333333</ele><time>2026-04-18T11:58:28Z</time></trkpt><trkpt lat="43.311914730098806" lon="10.765155841196387"><ele>101.0</ele><time>2026-04-18T11:58:29Z</time></trkpt><trkpt lat="43.31182056544968" lon="10.765338242261125"><ele>102.0</ele><time>2026-04-18T11:58:30Z</time></trkpt><trkpt lat="43.311745658124075" lon="10.76552446618623"><ele>103.0</ele><time>2026-04-18T11:58:31Z</time></trkpt><trkpt lat="43.311668073690996" lon="10.765733946368158"><ele>104.0</ele><time>2026-04-18T11:58:32Z</time></trkpt><trkpt lat="43.31159162809751" lon="10.765907533681787"><ele>105.0</ele><time>2026-04-18T11:58:33Z</time></trkpt><trkpt lat="43.311504292580885" lon="10.766043668477051"><ele>106.0</ele><time>2026-04-18T11:58:34Z</time></trkpt><trkpt lat="43.311399044499595" lon="10.766133702170922"><ele>107.0</ele><time>2026-04-18T11:58:35Z</time></trkpt><trkpt lat="43.31127289849644" lon="10.766111300337784"><ele>108.0</ele><time>2026-04-18T11:58:36Z</time></trkpt><trkpt lat="43.31115547602136" lon="10.76607417940953"><ele>109.25</ele><time>2026-04-18T11:58:37Z</time></trkpt><trkpt lat="43.31101849727982" lon="10.766037124323676"><ele>110.5</ele><time>2026-04-18T11:58:38Z</time></trkpt><trkpt lat="43.31087699703307" lon="10.76600269550474"><ele>111.75</ele><time>2026-04-18T11:58:39Z</time></trkpt><trkpt lat="43.31071458766391" lon="10.765959529462458"><ele>113.0</ele><time>2026-04-18T11:58:40Z</time></trkpt><trkpt lat="43.31055765335041" lon="10.765877453309313"><ele>117.33333333333333</ele><time>2026-04-18T11:58:41Z</time></trkpt><trkpt lat="43.31040576182146" lon="10.765781068416544"><ele>121.66666666666666</ele><time>2026-04-18T11:58:42Z</time></trkpt><trkpt lat="43.310260163701834" lon="10.765647324665478"><ele>126.0</ele><time>2026-04-18T11:58:43Z</time></trkpt><trkpt lat="43.310116312066626" lon="10.765470920787175"><ele>126.0</ele><time>2026-04-18T11:58:44Z</time></trkpt><trkpt lat="43.310008436124306" lon="10.765275656648415"><ele>126.0</ele><time>2026-04-18T11:58:45Z</time></trkpt><trkpt lat="43.30992499292595" lon="10.765056099527673"><ele>126.0</ele><time>2026-04-18T11:58:46Z</time></trkpt><trkpt lat="43.309853295816275" lon="10.764823745691341"><ele>126.33333333333334</ele><time>2026-04-18T11:58:47Z</time></trkpt><trkpt lat="43.3097921287323" lon="10.764582817937454"><ele>126.66666666666667</ele><time>2026-04-18T11:58:48Z</time></trkpt><trkpt lat="43.30971449436434" lon="10.76438087876426"><ele>127.0</ele><time>2026-04-18T11:58:49Z</time></trkpt><trkpt lat="43.309646226863144" lon="10.764229320523963"><ele>128.6</ele><time>2026-04-18T11:58:50Z</time></trkpt><trkpt lat="43.30957696926855" lon="10.764116098734236"><ele>130.2</ele><time>2026-04-18T11:58:51Z</time></trkpt><trkpt lat="43.30952785638262" lon="10.764029476210704"><ele>131.8</ele><time>2026-04-18T11:58:52Z</time></trkpt><trkpt lat="43.30944038374859" lon="10.764021877363808"><ele>133.4</ele><time>2026-04-18T11:58:53Z</time></trkpt><trkpt lat="43.30937480590787" lon="10.764075061798914"><ele>135.0</ele><time>2026-04-18T11:58:54Z</time></trkpt><trkpt lat="43.30931751959936" lon="10.764190295942806"><ele>135.0</ele><time>2026-04-18T11:58:55Z</time></trkpt><trkpt lat="43.30925306238768" lon="10.764305158352263"><ele>135.0</ele><time>2026-04-18T11:58:56Z</time></trkpt><trkpt lat="43.309177519424225" lon="10.764417688427168"><ele>135.0</ele><time>2026-04-18T11:58:57Z</time></trkpt><trkpt lat="43.309106132427374" lon="10.764514094080454"><ele>135.0</ele><time>2026-04-18T11:58:58Z</time></trkpt><trkpt lat="43.30905171381545" lon="10.764580120708091"><ele>135.0</ele><time>2026-04-18T11:58:59Z</time></trkpt><trkpt lat="43.308941257193446" lon="10.764671534112118"><ele>136.4</ele><time>2026-04-18T11:59:01Z</time></trkpt><trkpt lat="43.30886314680955" lon="10.764721756288983"><ele>137.8</ele><time>2026-04-18T11:59:02Z</time></trkpt><trkpt lat="43.3087678351692" lon="10.764782607532947"><ele>139.2</ele><time>2026-04-18T11:59:03Z</time></trkpt><trkpt lat="43.30866319410395" lon="10.764858949128142"><ele>140.6</ele><time>2026-04-18T11:59:04Z</time></trkpt><trkpt lat="43.308553768762486" lon="10.76494836649775"><ele>142.0</ele><time>2026-04-18T11:59:05Z</time></trkpt><trkpt lat="43.30844869280867" lon="10.765038184730496"><ele>142.0</ele><time>2026-04-18T11:59:06Z</time></trkpt><trkpt lat="43.30835069936263" lon="10.765118678520377"><ele>142.0</ele><time>2026-04-18T11:59:07Z</time></trkpt><trkpt lat="43.30825341502109" lon="10.765190985598474"><ele>142.0</ele><time>2026-04-18T11:59:08Z</time></trkpt><trkpt lat="43.308150514524165" lon="10.76526121119522"><ele>142.0</ele><time>2026-04-18T11:59:09Z</time></trkpt><trkpt lat="43.308048362601134" lon="10.765331760295238"><ele>142.75</ele><time>2026-04-18T11:59:10Z</time></trkpt><trkpt lat="43.30794650499237" lon="10.765408593447349"><ele>143.5</ele><time>2026-04-18T11:59:11Z</time></trkpt><trkpt lat="43.30784128362747" lon="10.765491980369704"><ele>144.25</ele><time>2026-04-18T11:59:12Z</time></trkpt><trkpt lat="43.30773079612656" lon="10.765581589149585"><ele>145.0</ele><time>2026-04-18T11:59:13Z</time></trkpt><trkpt lat="43.30762439406094" lon="10.765672441088682"><ele>145.0</ele><time>2026-04-18T11:59:14Z</time></trkpt><trkpt lat="43.307524166047656" lon="10.765778003188588"><ele>145.0</ele><time>2026-04-18T11:59:15Z</time></trkpt><trkpt lat="43.30742436741926" lon="10.765904084388406"><ele>145.0</ele><time>2026-04-18T11:59:16Z</time></trkpt><trkpt lat="43.30733172686332" lon="10.766034924753747"><ele>145.0</ele><time>2026-04-18T11:59:17Z</time></trkpt><trkpt lat="43.30723751449915" lon="10.76618524107323"><ele>144.0</ele><time>2026-04-18T11:59:18Z</time></trkpt><trkpt lat="43.307155678928616" lon="10.766344029334203"><ele>143.0</ele><time>2026-04-18T11:59:19Z</time></trkpt><trkpt lat="43.30708095696266" lon="10.766521505432841"><ele>142.0</ele><time>2026-04-18T11:59:20Z</time></trkpt><trkpt lat="43.30700794652646" lon="10.766676742647688"><ele>141.0</ele><time>2026-04-18T11:59:21Z</time></trkpt><trkpt lat="43.30692534642338" lon="10.766797396637399"><ele>140.75</ele><time>2026-04-18T11:59:22Z</time></trkpt><trkpt lat="43.30682440245214" lon="10.766890635154352"><ele>140.5</ele><time>2026-04-18T11:59:23Z</time></trkpt><trkpt lat="43.30669721089205" lon="10.766925727704328"><ele>140.25</ele><time>2026-04-18T11:59:24Z</time></trkpt><trkpt lat="43.30656338152811" lon="10.766994673829707"><ele>140.0</ele><time>2026-04-18T11:59:25Z</time></trkpt><trkpt lat="43.30642924180905" lon="10.767038146102394"><ele>141.33333333333331</ele><time>2026-04-18T11:59:26Z</time></trkpt><trkpt lat="43.306291700628435" lon="10.767120091483484"><ele>142.66666666666666</ele><time>2026-04-18T11:59:27Z</time></trkpt><trkpt lat="43.30615946479297" lon="10.76721970365719"><ele>144.0</ele><time>2026-04-18T11:59:28Z</time></trkpt><trkpt lat="43.306019618315844" lon="10.767316185703686"><ele>144.0</ele><time>2026-04-18T11:59:29Z</time></trkpt><trkpt lat="43.305884993580136" lon="10.767377686213074"><ele>144.0</ele><time>2026-04-18T11:59:29.999Z</time></trkpt><trkpt lat="43.30573848435038" lon="10.767405596658794"><ele>144.0</ele><time>2026-04-18T11:59:30.999Z</time></trkpt><trkpt lat="43.305576543604175" lon="10.76737135736748"><ele>145.0</ele><time>2026-04-18T11:59:31.999Z</time></trkpt><trkpt lat="43.305426233645285" lon="10.76735909272633"><ele>146.0</ele><time>2026-04-18T11:59:32.999Z</time></trkpt><trkpt lat="43.30528177283872" lon="10.767364335670766"><ele>147.0</ele><time>2026-04-18T11:59:33.999Z</time></trkpt><trkpt lat="43.305148193511194" lon="10.767381377189142"><ele>148.0</ele><time>2026-04-18T11:59:34.999Z</time></trkpt><trkpt lat="43.305021988557215" lon="10.767398328721274"><ele>148.0</ele><time>2026-04-18T11:59:35.999Z</time></trkpt><trkpt lat="43.30491155620301" lon="10.76737951873064"><ele>148.0</ele><time>2026-04-18T11:59:36.999Z</time></trkpt><trkpt lat="43.30479463633096" lon="10.767349295890124"><ele>148.0</ele><time>2026-04-18T11:59:38Z</time></trkpt><trkpt lat="43.30467416283071" lon="10.767304288846411"><ele>148.0</ele><time>2026-04-18T11:59:39Z</time></trkpt><trkpt lat="43.30453676366479" lon="10.767249737793321"><ele>149.0</ele><time>2026-04-18T11:59:40Z</time></trkpt><trkpt lat="43.30439407751415" lon="10.767205866181932"><ele>150.0</ele><time>2026-04-18T11:59:41Z</time></trkpt><trkpt lat="43.304243230572084" lon="10.767147191586902"><ele>151.0</ele><time>2026-04-18T11:59:42Z</time></trkpt><trkpt lat="43.30408958882817" lon="10.767091023766085"><ele>151.0</ele><time>2026-04-18T11:59:43Z</time></trkpt><trkpt lat="43.303933062104335" lon="10.767070396758541"><ele>151.0</ele><time>2026-04-18T11:59:44Z</time></trkpt><trkpt lat="43.30376759474418" lon="10.767078694558489"><ele>151.0</ele><time>2026-04-18T11:59:45Z</time></trkpt><trkpt lat="43.30360616491888" lon="10.76711013244603"><ele>152.0</ele><time>2026-04-18T11:59:46Z</time></trkpt><trkpt lat="43.3034314009845" lon="10.76717116401416"><ele>153.0</ele><time>2026-04-18T11:59:47Z</time></trkpt><trkpt lat="43.30325070616081" lon="10.767240395557643"><ele>154.0</ele><time>2026-04-18T11:59:48Z</time></trkpt><trkpt lat="43.30307032165166" lon="10.767304691578984"><ele>154.33333333333334</ele><time>2026-04-18T11:59:49Z</time></trkpt><trkpt lat="43.30288249674142" lon="10.76736771407539"><ele>154.66666666666666</ele><time>2026-04-18T11:59:50Z</time></trkpt><trkpt lat="43.30269417058553" lon="10.767428526779971"><ele>155.0</ele><time>2026-04-18T11:59:51Z</time></trkpt><trkpt lat="43.30250433291341" lon="10.767493233279819"><ele>155.0</ele><time>2026-04-18T11:59:52Z</time></trkpt><trkpt lat="43.30231677490166" lon="10.767562054732608"><ele>155.0</ele><time>2026-04-18T11:59:53Z</time></trkpt><trkpt lat="43.30213246113935" lon="10.767632305007547"><ele>155.0</ele><time>2026-04-18T11:59:54Z</time></trkpt><trkpt lat="43.30195128567652" lon="10.767703488004885"><ele>154.66666666666666</ele><time>2026-04-18T11:59:55Z</time></trkpt><trkpt lat="43.301763892533025" lon="10.76777870557487"><ele>154.33333333333334</ele><time>2026-04-18T11:59:56Z</time></trkpt><trkpt lat="43.301572431300556" lon="10.767855548913621"><ele>154.0</ele><time>2026-04-18T11:59:57Z</time></trkpt><trkpt lat="43.30137702104022" lon="10.767932629368858"><ele>155.0</ele><time>2026-04-18T11:59:58Z</time></trkpt><trkpt lat="43.30117289014785" lon="10.768012056626157"><ele>156.0</ele><time>2026-04-18T11:59:59Z</time></trkpt><trkpt lat="43.300980360472714" lon="10.768083949939916"><ele>157.0</ele><time>2026-04-18T12:00:00Z</time></trkpt><trkpt lat="43.30078477266861" lon="10.76815690069971"><ele>157.0</ele><time>2026-04-18T12:00:01Z</time></trkpt><trkpt lat="43.300587679406725" lon="10.768215024706247"><ele>157.0</ele><time>2026-04-18T12:00:02Z</time></trkpt><trkpt lat="43.30038732018428" lon="10.768252907952126"><ele>157.0</ele><time>2026-04-18T12:00:03Z</time></trkpt><trkpt lat="43.30018925901811" lon="10.768271870980701"><ele>159.33333333333334</ele><time>2026-04-18T12:00:04Z</time></trkpt><trkpt lat="43.299999675248785" lon="10.768278862391913"><ele>161.66666666666666</ele><time>2026-04-18T12:00:05Z</time></trkpt><trkpt lat="43.299805256581244" lon="10.768247140557378"><ele>164.0</ele><time>2026-04-18T12:00:06Z</time></trkpt><trkpt lat="43.299612082167975" lon="10.768194076768678"><ele>166.0</ele><time>2026-04-18T12:00:07Z</time></trkpt><trkpt lat="43.299422439320814" lon="10.76813561197572"><ele>168.0</ele><time>2026-04-18T12:00:08Z</time></trkpt><trkpt lat="43.2992206569352" lon="10.768069882895603"><ele>170.0</ele><time>2026-04-18T12:00:09Z</time></trkpt><trkpt lat="43.29903182289784" lon="10.768002970053711"><ele>173.33333333333331</ele><time>2026-04-18T12:00:10Z</time></trkpt><trkpt lat="43.29883776155978" lon="10.767947118922653"><ele>176.66666666666666</ele><time>2026-04-18T12:00:11Z</time></trkpt><trkpt lat="43.2986410194001" lon="10.767868101639463"><ele>180.0</ele><time>2026-04-18T12:00:12Z</time></trkpt><trkpt lat="43.298451267667566" lon="10.76775646588315"><ele>181.0</ele><time>2026-04-18T12:00:13Z</time></trkpt><trkpt lat="43.298270684730106" lon="10.767663416060977"><ele>182.0</ele><time>2026-04-18T12:00:14Z</time></trkpt><trkpt lat="43.29810183299995" lon="10.767637020003837"><ele>183.0</ele><time>2026-04-18T12:00:15Z</time></trkpt><trkpt lat="43.29796316901106" lon="10.767626135732913"><ele>184.25</ele><time>2026-04-18T12:00:16Z</time></trkpt><trkpt lat="43.297833038271335" lon="10.76765036332268"><ele>185.5</ele><time>2026-04-18T12:00:17Z</time></trkpt><trkpt lat="43.297716450004025" lon="10.767701721354543"><ele>186.75</ele><time>2026-04-18T12:00:18Z</time></trkpt><trkpt lat="43.29759106406102" lon="10.767755764755108"><ele>188.0</ele><time>2026-04-18T12:00:19Z</time></trkpt><trkpt lat="43.297456201190755" lon="10.767818035070437"><ele>188.0</ele><time>2026-04-18T12:00:20Z</time></trkpt><trkpt lat="43.29731435166741" lon="10.767906663687862"><ele>188.0</ele><time>2026-04-18T12:00:21Z</time></trkpt><trkpt lat="43.297182582852635" lon="10.7680436634934"><ele>188.0</ele><time>2026-04-18T12:00:22Z</time></trkpt><trkpt lat="43.29706744866263" lon="10.768175660978788"><ele>191.0</ele><time>2026-04-18T12:00:23Z</time></trkpt><trkpt lat="43.29696630710234" lon="10.768281036310226"><ele>194.0</ele><time>2026-04-18T12:00:24Z</time></trkpt><trkpt lat="43.2968485937867" lon="10.768341174272466"><ele>197.0</ele><time>2026-04-18T12:00:25Z</time></trkpt><trkpt lat="43.29671601266863" lon="10.76837955645845"><ele>200.0</ele><time>2026-04-18T12:00:26Z</time></trkpt><trkpt lat="43.296573599198" lon="10.768418089929936"><ele>200.0</ele><time>2026-04-18T12:00:27Z</time></trkpt><trkpt lat="43.29642154133698" lon="10.768407709908411"><ele>200.0</ele><time>2026-04-18T12:00:28Z</time></trkpt><trkpt lat="43.29625426367092" lon="10.768398190405197"><ele>200.0</ele><time>2026-04-18T12:00:29Z</time></trkpt><trkpt lat="43.29609435193004" lon="10.768388597940458"><ele>201.33333333333334</ele><time>2026-04-18T12:00:30Z</time></trkpt><trkpt lat="43.295922420510486" lon="10.768390494111197"><ele>202.66666666666669</ele><time>2026-04-18T12:00:31Z</time></trkpt><trkpt lat="43.29575708906488" lon="10.768374207432904"><ele>204.0</ele><time>2026-04-18T12:00:32Z</time></trkpt><trkpt lat="43.29560064990299" lon="10.768372389575333"><ele>205.66666666666669</ele><time>2026-04-18T12:00:33Z</time></trkpt><trkpt lat="43.295439683827524" lon="10.768397840593208"><ele>207.33333333333334</ele><time>2026-04-18T12:00:34Z</time></trkpt><trkpt lat="43.29528276576538" lon="10.768440276344569"><ele>209.0</ele><time>2026-04-18T12:00:35Z</time></trkpt><trkpt lat="43.29512208164215" lon="10.768483144539562"><ele>209.0</ele><time>2026-04-18T12:00:36Z</time></trkpt><trkpt lat="43.29495204058333" lon="10.768520925365957"><ele>209.0</ele><time>2026-04-18T12:00:37Z</time></trkpt><trkpt lat="43.2947845786494" lon="10.768511167485219"><ele>209.0</ele><time>2026-04-18T12:00:38Z</time></trkpt><trkpt lat="43.29462532832045" lon="10.76848511956517"><ele>210.25</ele><time>2026-04-18T12:00:39Z</time></trkpt><trkpt lat="43.2944778303728" lon="10.768452613987181"><ele>211.5</ele><time>2026-04-18T12:00:40Z</time></trkpt><trkpt lat="43.294330045869636" lon="10.768452779784482"><ele>212.75</ele><time>2026-04-18T12:00:41Z</time></trkpt><trkpt lat="43.29418325660365" lon="10.768474878623543"><ele>214.0</ele><time>2026-04-18T12:00:42Z</time></trkpt><trkpt lat="43.29402301175271" lon="10.768520185281648"><ele>208.0</ele><time>2026-04-18T12:00:43Z</time></trkpt><trkpt lat="43.29385096449678" lon="10.768571493749446"><ele>202.0</ele><time>2026-04-18T12:00:44Z</time></trkpt><trkpt lat="43.29367568334302" lon="10.768572459692248"><ele>196.0</ele><time>2026-04-18T12:00:45Z</time></trkpt><trkpt lat="43.29350409726223" lon="10.768584905509108"><ele>196.0</ele><time>2026-04-18T12:00:46Z</time></trkpt><trkpt lat="43.29335319152672" lon="10.768618670398222"><ele>196.0</ele><time>2026-04-18T12:00:47Z</time></trkpt><trkpt lat="43.293214573099924" lon="10.76862793215876"><ele>196.0</ele><time>2026-04-18T12:00:48Z</time></trkpt><trkpt lat="43.29308178540057" lon="10.768600645406671"><ele>196.0</ele><time>2026-04-18T12:00:49Z</time></trkpt><trkpt lat="43.292927915182304" lon="10.768553919140999"><ele>199.66666666666666</ele><time>2026-04-18T12:00:50Z</time></trkpt><trkpt lat="43.29276045462036" lon="10.768499532771123"><ele>203.33333333333331</ele><time>2026-04-18T12:00:51Z</time></trkpt><trkpt lat="43.29258330534636" lon="10.76846024541"><ele>207.0</ele><time>2026-04-18T12:00:52Z</time></trkpt><trkpt lat="43.29241167004329" lon="10.768394947334185"><ele>207.0</ele><time>2026-04-18T12:00:53Z</time></trkpt><trkpt lat="43.29224011952832" lon="10.768327490171686"><ele>207.0</ele><time>2026-04-18T12:00:54Z</time></trkpt><trkpt lat="43.29207306520566" lon="10.768257576461277"><ele>207.0</ele><time>2026-04-18T12:00:55Z</time></trkpt><trkpt lat="43.29191072873276" lon="10.768172894418528"><ele>207.0</ele><time>2026-04-18T12:00:56Z</time></trkpt><trkpt lat="43.29173840347542" lon="10.768117883109687"><ele>207.0</ele><time>2026-04-18T12:00:57Z</time></trkpt><trkpt lat="43.291551053892995" lon="10.768127033448495"><ele>207.0</ele><time>2026-04-18T12:00:58Z</time></trkpt><trkpt lat="43.29136504764525" lon="10.768121391280832"><ele>208.33333333333331</ele><time>2026-04-18T12:00:59Z</time></trkpt><trkpt lat="43.29118782064263" lon="10.76809812460703"><ele>209.66666666666666</ele><time>2026-04-18T12:01:00Z</time></trkpt><trkpt lat="43.29099555029852" lon="10.768094801116959"><ele>211.0</ele><time>2026-04-18T12:01:01Z</time></trkpt><trkpt lat="43.2908142858047" lon="10.768112281776924"><ele>211.0</ele><time>2026-04-18T12:01:02Z</time></trkpt><trkpt lat="43.29062342654988" lon="10.768104797922264"><ele>211.0</ele><time>2026-04-18T12:01:03.001Z</time></trkpt><trkpt lat="43.29043903395886" lon="10.768097463258869"><ele>211.0</ele><time>2026-04-18T12:01:04.001Z</time></trkpt><trkpt lat="43.29024355143404" lon="10.768094618877427"><ele>214.33333333333331</ele><time>2026-04-18T12:01:05.001Z</time></trkpt><trkpt lat="43.2900510041766" lon="10.768095226687228"><ele>217.66666666666669</ele><time>2026-04-18T12:01:06.001Z</time></trkpt><trkpt lat="43.28985156420816" lon="10.768090627330624"><ele>221.0</ele><time>2026-04-18T12:01:07.001Z</time></trkpt><trkpt lat="43.28965362122548" lon="10.76808235774369"><ele>224.33333333333334</ele><time>2026-04-18T12:01:08.001Z</time></trkpt><trkpt lat="43.289446737865205" lon="10.768071168903466"><ele>227.66666666666669</ele><time>2026-04-18T12:01:09.001Z</time></trkpt><trkpt lat="43.28925954534792" lon="10.768067378123215"><ele>231.0</ele><time>2026-04-18T12:01:10.001Z</time></trkpt><trkpt lat="43.28908467122851" lon="10.768072743911961"><ele>231.0</ele><time>2026-04-18T12:01:11.001Z</time></trkpt><trkpt lat="43.28893007949657" lon="10.76805580515344"><ele>231.0</ele><time>2026-04-18T12:01:12.001Z</time></trkpt><trkpt lat="43.288799523007306" lon="10.768056859369958"><ele>231.0</ele><time>2026-04-18T12:01:13.001Z</time></trkpt><trkpt lat="43.28866339973403" lon="10.768035347533347"><ele>231.0</ele><time>2026-04-18T12:01:14.001Z</time></trkpt><trkpt lat="43.288540243169365" lon="10.767953498975205"><ele>232.5</ele><time>2026-04-18T12:01:15.001Z</time></trkpt><trkpt lat="43.28844354314195" lon="10.767825840636371"><ele>234.0</ele><time>2026-04-18T12:01:16.001Z</time></trkpt><trkpt lat="43.28833380049696" lon="10.767692961833122"><ele>235.5</ele><time>2026-04-18T12:01:17.001Z</time></trkpt><trkpt lat="43.28823746315176" lon="10.767539639445886"><ele>237.0</ele><time>2026-04-18T12:01:18.001Z</time></trkpt><trkpt lat="43.28815263847257" lon="10.767364688797292"><ele>240.25</ele><time>2026-04-18T12:01:19.001Z</time></trkpt><trkpt lat="43.28809691210781" lon="10.767189884129126"><ele>243.5</ele><time>2026-04-18T12:01:20.001Z</time></trkpt><trkpt lat="43.288066603423154" lon="10.766993296294178"><ele>246.75</ele><time>2026-04-18T12:01:21.001Z</time></trkpt><trkpt lat="43.28802096916451" lon="10.76678129261394"><ele>250.0</ele><time>2026-04-18T12:01:22.001Z</time></trkpt><trkpt lat="43.287922258175605" lon="10.76658627346945"><ele>255.0</ele><time>2026-04-18T12:01:23.001Z</time></trkpt><trkpt lat="43.28783855494233" lon="10.766397660444644"><ele>260.0</ele><time>2026-04-18T12:01:24.001Z</time></trkpt><trkpt lat="43.28770128356962" lon="10.766231661759388"><ele>265.0</ele><time>2026-04-18T12:01:25.001Z</time></trkpt><trkpt lat="43.287542337500604" lon="10.766114154261412"><ele>268.0</ele><time>2026-04-18T12:01:26.001Z</time></trkpt><trkpt lat="43.287387610983025" lon="10.765989930805148"><ele>271.0</ele><time>2026-04-18T12:01:27.001Z</time></trkpt><trkpt lat="43.28722837050551" lon="10.765846667132896"><ele>274.0</ele><time>2026-04-18T12:01:28.001Z</time></trkpt><trkpt lat="43.287065539986806" lon="10.765741616207878"><ele>275.66666666666663</ele><time>2026-04-18T12:01:29.001Z</time></trkpt><trkpt lat="43.28690207890084" lon="10.765677718093889"><ele>277.3333333333333</ele><time>2026-04-18T12:01:30.001Z</time></trkpt><trkpt lat="43.28675428164898" lon="10.765649873221728"><ele>279.0</ele><time>2026-04-18T12:01:31.001Z</time></trkpt><trkpt lat="43.2865990082111" lon="10.765596822551753"><ele>279.0</ele><time>2026-04-18T12:01:32.001Z</time></trkpt><trkpt lat="43.28643533092659" lon="10.765557250753071"><ele>279.0</ele><time>2026-04-18T12:01:33.001Z</time></trkpt><trkpt lat="43.28625661187899" lon="10.765540792354662"><ele>279.0</ele><time>2026-04-18T12:01:34.001Z</time></trkpt><trkpt lat="43.2860903673226" lon="10.765571181664075"><ele>280.0</ele><time>2026-04-18T12:01:35.001Z</time></trkpt><trkpt lat="43.28591481032479" lon="10.76557381565042"><ele>281.0</ele><time>2026-04-18T12:01:36Z</time></trkpt><trkpt lat="43.28574443769625" lon="10.765569575874272"><ele>282.0</ele><time>2026-04-18T12:01:37Z</time></trkpt><trkpt lat="43.28558391905545" lon="10.765543864107366"><ele>282.3333333333333</ele><time>2026-04-18T12:01:38Z</time></trkpt><trkpt lat="43.28540297508317" lon="10.765501030652478"><ele>282.66666666666663</ele><time>2026-04-18T12:01:39Z</time></trkpt><trkpt lat="43.285222320877544" lon="10.765450275429751"><ele>283.0</ele><time>2026-04-18T12:01:40Z</time></trkpt><trkpt lat="43.28503985691064" lon="10.765393324552969"><ele>283.0</ele><time>2026-04-18T12:01:41Z</time></trkpt><trkpt lat="43.28487511759625" lon="10.765341429930182"><ele>283.0</ele><time>2026-04-18T12:01:42Z</time></trkpt><trkpt lat="43.284691131167904" lon="10.765280258914055"><ele>283.0</ele><time>2026-04-18T12:01:43Z</time></trkpt><trkpt lat="43.284531595466014" lon="10.765224332771114"><ele>290.3333333333333</ele><time>2026-04-18T12:01:44Z</time></trkpt><trkpt lat="43.28438002211883" lon="10.765169002363734"><ele>297.6666666666667</ele><time>2026-04-18T12:01:45Z</time></trkpt><trkpt lat="43.28422256182769" lon="10.765108694280991"><ele>305.0</ele><time>2026-04-18T12:01:46Z</time></trkpt><trkpt lat="43.284055353150706" lon="10.765080440092452"><ele>306.6666666666667</ele><time>2026-04-18T12:01:47Z</time></trkpt><trkpt lat="43.283895731259236" lon="10.76510103192492"><ele>308.3333333333333</ele><time>2026-04-18T12:01:48Z</time></trkpt><trkpt lat="43.28374272561054" lon="10.765120211978278"><ele>310.0</ele><time>2026-04-18T12:01:49Z</time></trkpt><trkpt lat="43.28360651100488" lon="10.76509325904866"><ele>310.0</ele><time>2026-04-18T12:01:50Z</time></trkpt><trkpt lat="43.283489943987945" lon="10.765093692414672"><ele>310.0</ele><time>2026-04-18T12:01:51Z</time></trkpt><trkpt lat="43.28339686603806" lon="10.765107056218524"><ele>310.0</ele><time>2026-04-18T12:01:52Z</time></trkpt><trkpt lat="43.2833144676332" lon="10.76516274638326"><ele>310.0</ele><time>2026-04-18T12:01:53Z</time></trkpt><trkpt lat="43.283260852753415" lon="10.765279121239296"><ele>310.0</ele><time>2026-04-18T12:01:54Z</time></trkpt><trkpt lat="43.283223173208896" lon="10.765388581764611"><ele>309.5</ele><time>2026-04-18T12:01:55Z</time></trkpt><trkpt lat="43.28320620479265" lon="10.765523419387877"><ele>309.0</ele><time>2026-04-18T12:01:56Z</time></trkpt><trkpt lat="43.28322108653749" lon="10.765680538822286"><ele>308.5</ele><time>2026-04-18T12:01:57Z</time></trkpt><trkpt lat="43.283242383001856" lon="10.765863561264041"><ele>308.0</ele><time>2026-04-18T12:01:58Z</time></trkpt><trkpt lat="43.28327222817797" lon="10.766057307714162"><ele>310.25</ele><time>2026-04-18T12:01:59Z</time></trkpt><trkpt lat="43.28332066025818" lon="10.766228047007239"><ele>312.5</ele><time>2026-04-18T12:02:00Z</time></trkpt><trkpt lat="43.283385574295146" lon="10.76642795166247"><ele>314.75</ele><time>2026-04-18T12:02:01Z</time></trkpt><trkpt lat="43.28345804279121" lon="10.766614216103763"><ele>317.0</ele><time>2026-04-18T12:02:02Z</time></trkpt><trkpt lat="43.283510238326514" lon="10.766790641443276"><ele>317.0</ele><time>2026-04-18T12:02:03Z</time></trkpt><trkpt lat="43.28354720617303" lon="10.766946274885626"><ele>317.0</ele><time>2026-04-18T12:02:04Z</time></trkpt><trkpt lat="43.283542854459895" lon="10.767122702078021"><ele>317.0</ele><time>2026-04-18T12:02:05Z</time></trkpt><trkpt lat="43.283515034524946" lon="10.767316628502064"><ele>317.0</ele><time>2026-04-18T12:02:06Z</time></trkpt><trkpt lat="43.28348024529629" lon="10.767530455626652"><ele>315.6666666666667</ele><time>2026-04-18T12:02:07Z</time></trkpt><trkpt lat="43.2834543325973" lon="10.76776213897021"><ele>314.3333333333333</ele><time>2026-04-18T12:02:08Z</time></trkpt><trkpt lat="43.283422295429396" lon="10.767981481643488"><ele>313.0</ele><time>2026-04-18T12:02:09Z</time></trkpt><trkpt lat="43.28336190940766" lon="10.768155975752176"><ele>313.0</ele><time>2026-04-18T12:02:10Z</time></trkpt><trkpt lat="43.28327487435702" lon="10.768284091873978"><ele>313.0</ele><time>2026-04-18T12:02:11Z</time></trkpt><trkpt lat="43.28316436023084" lon="10.76839680872545"><ele>313.0</ele><time>2026-04-18T12:02:12Z</time></trkpt><trkpt lat="43.283034771868294" lon="10.768470458153422"><ele>313.0</ele><time>2026-04-18T12:02:13Z</time></trkpt><trkpt lat="43.28290278434659" lon="10.768521391424333"><ele>314.3333333333333</ele><time>2026-04-18T12:02:14Z</time></trkpt><trkpt lat="43.282737217899815" lon="10.768560367202017"><ele>315.6666666666667</ele><time>2026-04-18T12:02:15Z</time></trkpt><trkpt lat="43.2825745593747" lon="10.768615189537476"><ele>317.0</ele><time>2026-04-18T12:02:16Z</time></trkpt><trkpt lat="43.28241375527132" lon="10.768673438490005"><ele>323.0</ele><time>2026-04-18T12:02:17Z</time></trkpt><trkpt lat="43.282261882862755" lon="10.768763603671418"><ele>329.0</ele><time>2026-04-18T12:02:18Z</time></trkpt><trkpt lat="43.2821333604512" lon="10.768902625783912"><ele>335.0</ele><time>2026-04-18T12:02:19Z</time></trkpt><trkpt lat="43.28201934866458" lon="10.769085250735381"><ele>335.0</ele><time>2026-04-18T12:02:20Z</time></trkpt><trkpt lat="43.28191086066807" lon="10.769261788518222"><ele>335.0</ele><time>2026-04-18T12:02:21Z</time></trkpt><trkpt lat="43.281787359734516" lon="10.769406620595651"><ele>335.0</ele><time>2026-04-18T12:02:22Z</time></trkpt><trkpt lat="43.28165457329536" lon="10.769504989330043"><ele>335.6666666666667</ele><time>2026-04-18T12:02:23Z</time></trkpt><trkpt lat="43.28151233168465" lon="10.769518450020508"><ele>336.3333333333333</ele><time>2026-04-18T12:02:24Z</time></trkpt><trkpt lat="43.281363541692734" lon="10.7695710800994"><ele>337.0</ele><time>2026-04-18T12:02:25Z</time></trkpt><trkpt lat="43.281191149401344" lon="10.769601437102374"><ele>337.0</ele><time>2026-04-18T12:02:26Z</time></trkpt><trkpt lat="43.281023812594576" lon="10.769657468577268"><ele>337.0</ele><time>2026-04-18T12:02:27Z</time></trkpt><trkpt lat="43.28088184772569" lon="10.769754567352114"><ele>337.0</ele><time>2026-04-18T12:02:28Z</time></trkpt><trkpt lat="43.280767260739246" lon="10.769885043471554"><ele>337.0</ele><time>2026-04-18T12:02:29Z</time></trkpt><trkpt lat="43.28069778030394" lon="10.77004766289251"><ele>337.0</ele><time>2026-04-18T12:02:30Z</time></trkpt><trkpt lat="43.28065390172017" lon="10.770244072589401"><ele>337.0</ele><time>2026-04-18T12:02:31Z</time></trkpt><trkpt lat="43.28063228131735" lon="10.770438465836122"><ele>337.0</ele><time>2026-04-18T12:02:32Z</time></trkpt><trkpt lat="43.28065195372754" lon="10.770646138753639"><ele>336.0</ele><time>2026-04-18T12:02:33Z</time></trkpt><trkpt lat="43.28068589041727" lon="10.77085063851974"><ele>335.0</ele><time>2026-04-18T12:02:34Z</time></trkpt><trkpt lat="43.28070354542715" lon="10.771071334636446"><ele>334.0</ele><time>2026-04-18T12:02:35Z</time></trkpt><trkpt lat="43.280699884133966" lon="10.771275019561243"><ele>334.0</ele><time>2026-04-18T12:02:36Z</time></trkpt><trkpt lat="43.28070686073318" lon="10.771460531593352"><ele>334.0</ele><time>2026-04-18T12:02:37Z</time></trkpt><trkpt lat="43.28072764513074" lon="10.771624248354634"><ele>334.0</ele><time>2026-04-18T12:02:38Z</time></trkpt><trkpt lat="43.28078091713093" lon="10.77177864985235"><ele>334.0</ele><time>2026-04-18T12:02:39Z</time></trkpt><trkpt lat="43.28087702647519" lon="10.771914178908101"><ele>337.75</ele><time>2026-04-18T12:02:40Z</time></trkpt><trkpt lat="43.28100289251882" lon="10.772025478300067"><ele>341.5</ele><time>2026-04-18T12:02:41Z</time></trkpt><trkpt lat="43.28113351662887" lon="10.772131436089047"><ele>345.25</ele><time>2026-04-18T12:02:42Z</time></trkpt><trkpt lat="43.28123754738528" lon="10.772258218438747"><ele>349.0</ele><time>2026-04-18T12:02:43Z</time></trkpt><trkpt lat="43.28130136929055" lon="10.77241646142157"><ele>349.0</ele><time>2026-04-18T12:02:44Z</time></trkpt><trkpt lat="43.28136133026202" lon="10.77260693150705"><ele>349.0</ele><time>2026-04-18T12:02:45Z</time></trkpt><trkpt lat="43.28139872786479" lon="10.772780608695392"><ele>349.0</ele><time>2026-04-18T12:02:46Z</time></trkpt><trkpt lat="43.28141321588964" lon="10.772955562291747"><ele>349.0</ele><time>2026-04-18T12:02:47.001Z</time></trkpt><trkpt lat="43.28136505750733" lon="10.773119642503874"><ele>352.75</ele><time>2026-04-18T12:02:48.001Z</time></trkpt><trkpt lat="43.28134583502143" lon="10.773295674010095"><ele>356.5</ele><time>2026-04-18T12:02:49.001Z</time></trkpt><trkpt lat="43.281311442229864" lon="10.773461916068133"><ele>360.25</ele><time>2026-04-18T12:02:50.001Z</time></trkpt><trkpt lat="43.28136632346435" lon="10.77361931490777"><ele>364.0</ele><time>2026-04-18T12:02:51.001Z</time></trkpt><trkpt lat="43.28142637322636" lon="10.773797730585203"><ele>365.5</ele><time>2026-04-18T12:02:52.001Z</time></trkpt><trkpt lat="43.28149177508255" lon="10.773944943494548"><ele>367.0</ele><time>2026-04-18T12:02:53.001Z</time></trkpt><trkpt lat="43.28151804911083" lon="10.77410166900803"><ele>368.5</ele><time>2026-04-18T12:02:54.001Z</time></trkpt><trkpt lat="43.28144920247225" lon="10.77424754167742"><ele>370.0</ele><time>2026-04-18T12:02:55.001Z</time></trkpt><trkpt lat="43.28140798070232" lon="10.77442662986092"><ele>370.0</ele><time>2026-04-18T12:02:56.001Z</time></trkpt><trkpt lat="43.281369589042264" lon="10.774633787087334"><ele>370.0</ele><time>2026-04-18T12:02:57.001Z</time></trkpt><trkpt lat="43.28131456522399" lon="10.77485665894584"><ele>370.0</ele><time>2026-04-18T12:02:58.001Z</time></trkpt><trkpt lat="43.281261521704614" lon="10.77509421148631"><ele>370.0</ele><time>2026-04-18T12:02:59.001Z</time></trkpt><trkpt lat="43.28120911797069" lon="10.775336296120743"><ele>370.0</ele><time>2026-04-18T12:03:00.001Z</time></trkpt><trkpt lat="43.281155064715556" lon="10.775544226921934"><ele>370.0</ele><time>2026-04-18T12:03:01.001Z</time></trkpt><trkpt lat="43.28110247049228" lon="10.77573504309456"><ele>370.0</ele><time>2026-04-18T12:03:02.001Z</time></trkpt><trkpt lat="43.28106104261067" lon="10.775948873414368"><ele>370.0</ele><time>2026-04-18T12:03:03.001Z</time></trkpt><trkpt lat="43.281054648401984" lon="10.776220344766243"><ele>370.0</ele><time>2026-04-18T12:03:04.001Z</time></trkpt><trkpt lat="43.28105140854765" lon="10.776488230358096"><ele>371.66666666666663</ele><time>2026-04-18T12:03:05.001Z</time></trkpt><trkpt lat="43.28104068697828" lon="10.776755747058477"><ele>373.3333333333333</ele><time>2026-04-18T12:03:06.001Z</time></trkpt><trkpt lat="43.281017490723876" lon="10.777016753193188"><ele>375.0</ele><time>2026-04-18T12:03:07.001Z</time></trkpt><trkpt lat="43.28099834964448" lon="10.7772881935355"><ele>378.0</ele><time>2026-04-18T12:03:08.001Z</time></trkpt><trkpt lat="43.28100979302626" lon="10.777535219159647"><ele>381.0</ele><time>2026-04-18T12:03:09.001Z</time></trkpt><trkpt lat="43.28106164961336" lon="10.777779246553438"><ele>384.0</ele><time>2026-04-18T12:03:10.001Z</time></trkpt><trkpt lat="43.28110584185342" lon="10.7780443816916"><ele>387.0</ele><time>2026-04-18T12:03:11.001Z</time></trkpt><trkpt lat="43.28117711511468" lon="10.778325003142722"><ele>390.0</ele><time>2026-04-18T12:03:12.001Z</time></trkpt><trkpt lat="43.28121106256514" lon="10.778593505617868"><ele>393.0</ele><time>2026-04-18T12:03:13.001Z</time></trkpt><trkpt lat="43.28124139790088" lon="10.77886349038061"><ele>392.33333333333337</ele><time>2026-04-18T12:03:14.001Z</time></trkpt><trkpt lat="43.28126677881713" lon="10.779146738694616"><ele>391.6666666666667</ele><time>2026-04-18T12:03:15.001Z</time></trkpt><trkpt lat="43.28128180849275" lon="10.779422096085595"><ele>391.0</ele><time>2026-04-18T12:03:16.001Z</time></trkpt><trkpt lat="43.28131720643398" lon="10.779701912636572"><ele>391.0</ele><time>2026-04-18T12:03:17.001Z</time></trkpt><trkpt lat="43.281362057309316" lon="10.77993516496324"><ele>391.0</ele><time>2026-04-18T12:03:18.001Z</time></trkpt><trkpt lat="43.281420149221454" lon="10.780129386414021"><ele>391.0</ele><time>2026-04-18T12:03:19.001Z</time></trkpt><trkpt lat="43.281483437792794" lon="10.780282776205969"><ele>391.8</ele><time>2026-04-18T12:03:20.001Z</time></trkpt><trkpt lat="43.281569507403404" lon="10.78041295568441"><ele>392.6</ele><time>2026-04-18T12:03:21.001Z</time></trkpt><trkpt lat="43.28163704845609" lon="10.78050439630987"><ele>393.4</ele><time>2026-04-18T12:03:22.001Z</time></trkpt><trkpt lat="43.28168121750567" lon="10.780593566127601"><ele>394.2</ele><time>2026-04-18T12:03:23.001Z</time></trkpt><trkpt lat="43.28171439198824" lon="10.780701042491565"><ele>395.0</ele><time>2026-04-18T12:03:24.001Z</time></trkpt><trkpt lat="43.28174520356809" lon="10.780836440145023"><ele>394.99999999999994</ele><time>2026-04-18T12:03:25.001Z</time></trkpt><trkpt lat="43.28177449435587" lon="10.780956282459895"><ele>395.0</ele><time>2026-04-18T12:03:26.001Z</time></trkpt><trkpt lat="43.281807554162135" lon="10.781044521561459"><ele>395.0</ele><time>2026-04-18T12:03:27.001Z</time></trkpt><trkpt lat="43.28184812574771" lon="10.78113586191677"><ele>395.0</ele><time>2026-04-18T12:03:29.001Z</time></trkpt><trkpt lat="43.28187396538881" lon="10.78121521994433"><ele>394.99999999999994</ele><time>2026-04-18T12:03:39.001Z</time></trkpt><trkpt lat="43.28189252291237" lon="10.781311577543228"><ele>395.0</ele><time>2026-04-18T12:03:41.001Z</time></trkpt><trkpt lat="43.28191594909159" lon="10.78141528508046"><ele>394.5</ele><time>2026-04-18T12:03:43Z</time></trkpt><trkpt lat="43.28195232718155" lon="10.781539503968894"><ele>394.0</ele><time>2026-04-18T12:03:45Z</time></trkpt><trkpt lat="43.281987703517" lon="10.781667695618847"><ele>393.5</ele><time>2026-04-18T12:03:47Z</time></trkpt><trkpt lat="43.282031319833486" lon="10.781749336712064"><ele>393.0</ele><time>2026-04-18T12:03:49Z</time></trkpt><trkpt lat="43.2819522119295" lon="10.78151509946993"><ele>393.0</ele><time>2026-04-18T12:03:55Z</time></trkpt><trkpt lat="43.281915887159215" lon="10.781411031810237"><ele>393.0</ele><time>2026-04-18T12:03:56Z</time></trkpt><trkpt lat="43.28188284137659" lon="10.781317642903186"><ele>393.0</ele><time>2026-04-18T12:03:57Z</time></trkpt><trkpt lat="43.28184363419677" lon="10.781190078889749"><ele>393.0</ele><time>2026-04-18T12:03:59Z</time></trkpt><trkpt lat="43.28185379479732" lon="10.781100789773147"><ele>393.0</ele><time>2026-04-18T12:04:01Z</time></trkpt><trkpt lat="43.2819365668032" lon="10.781156986168297"><ele>393.0</ele><time>2026-04-18T12:04:04Z</time></trkpt><trkpt lat="43.28198125998559" lon="10.78123948149262"><ele>393.0</ele><time>2026-04-18T12:04:06Z</time></trkpt><trkpt lat="43.28202336350277" lon="10.781340596926077"><ele>393.0</ele><time>2026-04-18T12:04:09Z</time></trkpt><trkpt lat="43.28207344391994" lon="10.781394469738048"><ele>393.0</ele><time>2026-04-18T12:04:11Z</time></trkpt><trkpt lat="43.28217248005671" lon="10.781455129970386"><ele>393.0</ele><time>2026-04-18T12:04:13Z</time></trkpt><trkpt lat="43.282282195971305" lon="10.781469790131721"><ele>393.0</ele><time>2026-04-18T12:04:15Z</time></trkpt><trkpt lat="43.28235472345867" lon="10.781453516602014"><ele>393.0</ele><time>2026-04-18T12:04:17Z</time></trkpt><trkpt lat="43.282394339328384" lon="10.781298081596715"><ele>393.8333333333333</ele><time>2026-04-18T12:04:18Z</time></trkpt><trkpt lat="43.282423820512875" lon="10.781192490365006"><ele>394.66666666666663</ele><time>2026-04-18T12:04:19Z</time></trkpt><trkpt lat="43.28244929559235" lon="10.78109450933276"><ele>395.5</ele><time>2026-04-18T12:04:20Z</time></trkpt><trkpt lat="43.282478104733194" lon="10.78101399292361"><ele>396.3333333333333</ele><time>2026-04-18T12:04:21Z</time></trkpt><trkpt lat="43.28251373818262" lon="10.780941992407243"><ele>397.16666666666663</ele><time>2026-04-18T12:04:22Z</time></trkpt><trkpt lat="43.282609571499265" lon="10.78080485495727"><ele>398.0</ele><time>2026-04-18T12:04:24Z</time></trkpt><trkpt lat="43.28270128855736" lon="10.780779335134534"><ele>396.0</ele><time>2026-04-18T12:04:25Z</time></trkpt><trkpt lat="43.28279887014511" lon="10.780772214803754"><ele>394.0</ele><time>2026-04-18T12:04:26Z</time></trkpt><trkpt lat="43.28290265439083" lon="10.780757359669066"><ele>392.0</ele><time>2026-04-18T12:04:27Z</time></trkpt><trkpt lat="43.28300485842284" lon="10.780735341928937"><ele>390.0</ele><time>2026-04-18T12:04:28Z</time></trkpt><trkpt lat="43.2831261519399" lon="10.780773531417786"><ele>388.0</ele><time>2026-04-18T12:04:29Z</time></trkpt><trkpt lat="43.28325416512684" lon="10.780753014245002"><ele>385.59999999999997</ele><time>2026-04-18T12:04:30Z</time></trkpt><trkpt lat="43.28337156587946" lon="10.780760033435728"><ele>383.2</ele><time>2026-04-18T12:04:31Z</time></trkpt><trkpt lat="43.2834477563289" lon="10.780746646760306"><ele>380.8</ele><time>2026-04-18T12:04:32Z</time></trkpt><trkpt lat="43.283547018586084" lon="10.780741063111543"><ele>378.4</ele><time>2026-04-18T12:04:33Z</time></trkpt><trkpt lat="43.283642848954244" lon="10.780754657688027"><ele>376.0</ele><time>2026-04-18T12:04:34Z</time></trkpt><trkpt lat="43.28374142302179" lon="10.780811592251807"><ele>376.0</ele><time>2026-04-18T12:04:35Z</time></trkpt><trkpt lat="43.283835799626225" lon="10.78084001321098"><ele>376.0</ele><time>2026-04-18T12:04:36Z</time></trkpt><trkpt lat="43.28390821340252" lon="10.780850562960893"><ele>376.0</ele><time>2026-04-18T12:04:37.001Z</time></trkpt><trkpt lat="43.28400284487227" lon="10.780835087508164"><ele>376.0</ele><time>2026-04-18T12:04:38.001Z</time></trkpt><trkpt lat="43.284087164978544" lon="10.780832065062539"><ele>376.0</ele><time>2026-04-18T12:04:39.001Z</time></trkpt><trkpt lat="43.28415339111888" lon="10.780771678809149"><ele>376.0</ele><time>2026-04-18T12:04:40.001Z</time></trkpt><trkpt lat="43.28424558503408" lon="10.78065711164699"><ele>374.5</ele><time>2026-04-18T12:04:41.001Z</time></trkpt><trkpt lat="43.28432738592875" lon="10.780569949604011"><ele>373.0</ele><time>2026-04-18T12:04:42.001Z</time></trkpt><trkpt lat="43.28439074413568" lon="10.780511972600518"><ele>371.5</ele><time>2026-04-18T12:04:43.001Z</time></trkpt><trkpt lat="43.28444995678685" lon="10.780454278170973"><ele>370.0</ele><time>2026-04-18T12:04:44.001Z</time></trkpt><trkpt lat="43.28452683734376" lon="10.780441996392529"><ele>368.5</ele><time>2026-04-18T12:04:45.001Z</time></trkpt><trkpt lat="43.28459984851086" lon="10.780480147795217"><ele>367.0</ele><time>2026-04-18T12:04:46.001Z</time></trkpt><trkpt lat="43.28465898612538" lon="10.780539159591733"><ele>367.0</ele><time>2026-04-18T12:04:47.001Z</time></trkpt><trkpt lat="43.284708192245866" lon="10.780606956531889"><ele>367.0</ele><time>2026-04-18T12:04:48.001Z</time></trkpt><trkpt lat="43.284739517031596" lon="10.780714958428389"><ele>367.0</ele><time>2026-04-18T12:04:49.001Z</time></trkpt><trkpt lat="43.28479347197499" lon="10.780821423302621"><ele>367.0</ele><time>2026-04-18T12:04:50.001Z</time></trkpt><trkpt lat="43.284827706810376" lon="10.780935635332142"><ele>367.0</ele><time>2026-04-18T12:04:51.001Z</time></trkpt><trkpt lat="43.28486472412685" lon="10.781050213763603"><ele>367.0</ele><time>2026-04-18T12:04:52.001Z</time></trkpt><trkpt lat="43.284907869125405" lon="10.781171427472238"><ele>367.16666666666663</ele><time>2026-04-18T12:04:53.001Z</time></trkpt><trkpt lat="43.28494586600957" lon="10.781269081463947"><ele>367.3333333333333</ele><time>2026-04-18T12:04:54.001Z</time></trkpt><trkpt lat="43.28497887478262" lon="10.781343501562688"><ele>367.5</ele><time>2026-04-18T12:04:55.001Z</time></trkpt><trkpt lat="43.28503689798793" lon="10.781449022563601"><ele>367.6666666666667</ele><time>2026-04-18T12:04:57.001Z</time></trkpt><trkpt lat="43.28510181585308" lon="10.781457853217152"><ele>367.83333333333337</ele><time>2026-04-18T12:04:58.001Z</time></trkpt><trkpt lat="43.285239695601256" lon="10.781403118915788"><ele>368.0</ele><time>2026-04-18T12:05:00.001Z</time></trkpt><trkpt lat="43.285317602137695" lon="10.781297241661097"><ele>368.0</ele><time>2026-04-18T12:05:01.001Z</time></trkpt><trkpt lat="43.285414101212424" lon="10.78119265884883"><ele>368.0</ele><time>2026-04-18T12:05:02.001Z</time></trkpt><trkpt lat="43.28552301186768" lon="10.78107103526643"><ele>368.0</ele><time>2026-04-18T12:05:03.001Z</time></trkpt><trkpt lat="43.28561033904206" lon="10.780937379626863"><ele>368.0</ele><time>2026-04-18T12:05:04.001Z</time></trkpt><trkpt lat="43.28572264476344" lon="10.78082104551016"><ele>365.0</ele><time>2026-04-18T12:05:05.001Z</time></trkpt><trkpt lat="43.28584211893361" lon="10.780740197065866"><ele>362.0</ele><time>2026-04-18T12:05:06.001Z</time></trkpt><trkpt lat="43.28596138163635" lon="10.780662531172185"><ele>359.0</ele><time>2026-04-18T12:05:07.001Z</time></trkpt><trkpt lat="43.28611126342031" lon="10.780569763096537"><ele>356.0</ele><time>2026-04-18T12:05:08.001Z</time></trkpt><trkpt lat="43.28622829058672" lon="10.780491570353352"><ele>356.0</ele><time>2026-04-18T12:05:09.001Z</time></trkpt><trkpt lat="43.28633725323304" lon="10.780417242072934"><ele>356.0</ele><time>2026-04-18T12:05:10.001Z</time></trkpt><trkpt lat="43.28645107640992" lon="10.780313393512552"><ele>356.0</ele><time>2026-04-18T12:05:11.001Z</time></trkpt><trkpt lat="43.28654344969356" lon="10.780150808942723"><ele>356.0</ele><time>2026-04-18T12:05:12.001Z</time></trkpt><trkpt lat="43.286617434738574" lon="10.779958266501609"><ele>351.75</ele><time>2026-04-18T12:05:13.001Z</time></trkpt><trkpt lat="43.28668153429916" lon="10.779786191766183"><ele>347.5</ele><time>2026-04-18T12:05:14.001Z</time></trkpt><trkpt lat="43.28674533336284" lon="10.779619375504238"><ele>343.25</ele><time>2026-04-18T12:05:15.001Z</time></trkpt><trkpt lat="43.28681577102481" lon="10.77946009597559"><ele>339.0</ele><time>2026-04-18T12:05:16.001Z</time></trkpt><trkpt lat="43.28688398202993" lon="10.779312122583116"><ele>337.0</ele><time>2026-04-18T12:05:17.001Z</time></trkpt><trkpt lat="43.28694564284742" lon="10.779175639628395"><ele>335.0</ele><time>2026-04-18T12:05:18.001Z</time></trkpt><trkpt lat="43.28699985318137" lon="10.779049097075074"><ele>333.0</ele><time>2026-04-18T12:05:19.001Z</time></trkpt><trkpt lat="43.28704891297046" lon="10.778928366754466"><ele>331.0</ele><time>2026-04-18T12:05:20.001Z</time></trkpt><trkpt lat="43.28709098904365" lon="10.778820295815757"><ele>329.0</ele><time>2026-04-18T12:05:21.001Z</time></trkpt><trkpt lat="43.28712831873225" lon="10.778700198303264"><ele>329.0</ele><time>2026-04-18T12:05:22.001Z</time></trkpt><trkpt lat="43.28715609059501" lon="10.778589733310604"><ele>329.0</ele><time>2026-04-18T12:05:23.001Z</time></trkpt><trkpt lat="43.2871852048278" lon="10.778452729690663"><ele>329.0</ele><time>2026-04-18T12:05:24.001Z</time></trkpt><trkpt lat="43.28720605571215" lon="10.778342345859471"><ele>329.0</ele><time>2026-04-18T12:05:25.001Z</time></trkpt><trkpt lat="43.28722517570001" lon="10.778217295146353"><ele>329.0</ele><time>2026-04-18T12:05:26.001Z</time></trkpt><trkpt lat="43.287235365722495" lon="10.778119871936997"><ele>329.0</ele><time>2026-04-18T12:05:27.001Z</time></trkpt><trkpt lat="43.287242534805614" lon="10.778026373771432"><ele>326.8</ele><time>2026-04-18T12:05:28.001Z</time></trkpt><trkpt lat="43.28725023801519" lon="10.777925909808419"><ele>324.59999999999997</ele><time>2026-04-18T12:05:29.001Z</time></trkpt><trkpt lat="43.28725988141486" lon="10.77782064154166"><ele>322.4</ele><time>2026-04-18T12:05:30.001Z</time></trkpt><trkpt lat="43.287295202573276" lon="10.777679565961643"><ele>320.2</ele><time>2026-04-18T12:05:32.001Z</time></trkpt><trkpt lat="43.28736890676251" lon="10.777555731973584"><ele>318.0</ele><time>2026-04-18T12:05:34.001Z</time></trkpt><trkpt lat="43.287433253644046" lon="10.777506041303843"><ele>317.5</ele><time>2026-04-18T12:05:35.001Z</time></trkpt><trkpt lat="43.28750903776026" lon="10.777497394630569"><ele>317.0</ele><time>2026-04-18T12:05:36.001Z</time></trkpt><trkpt lat="43.2875861596215" lon="10.777502027222194"><ele>316.5</ele><time>2026-04-18T12:05:37.001Z</time></trkpt><trkpt lat="43.287653077052944" lon="10.777541683643745"><ele>316.0</ele><time>2026-04-18T12:05:38.001Z</time></trkpt><trkpt lat="43.28771827998544" lon="10.77760729086118"><ele>315.5</ele><time>2026-04-18T12:05:39.001Z</time></trkpt><trkpt lat="43.28779468455237" lon="10.777690901154998"><ele>315.0</ele><time>2026-04-18T12:05:40.001Z</time></trkpt><trkpt lat="43.28787759680498" lon="10.777776392668871"><ele>315.0</ele><time>2026-04-18T12:05:41.001Z</time></trkpt><trkpt lat="43.28795419800851" lon="10.777846687636396"><ele>315.0</ele><time>2026-04-18T12:05:42.001Z</time></trkpt><trkpt lat="43.28801207356563" lon="10.777896650394341"><ele>315.0</ele><time>2026-04-18T12:05:43.001Z</time></trkpt><trkpt lat="43.288073100220835" lon="10.77792367374621"><ele>315.0</ele><time>2026-04-18T12:05:44.001Z</time></trkpt><trkpt lat="43.28814446907364" lon="10.777930392465148"><ele>315.0</ele><time>2026-04-18T12:05:45.001Z</time></trkpt><trkpt lat="43.2882088747011" lon="10.777924302000189"><ele>315.0</ele><time>2026-04-18T12:05:46.001Z</time></trkpt><trkpt lat="43.28827267561169" lon="10.777925145567007"><ele>315.0</ele><time>2026-04-18T12:05:47.001Z</time></trkpt><trkpt lat="43.288370679722924" lon="10.777962095258905"><ele>312.5</ele><time>2026-04-18T12:05:48Z</time></trkpt><trkpt lat="43.28846327838055" lon="10.77802336267272"><ele>310.0</ele><time>2026-04-18T12:05:49Z</time></trkpt><trkpt lat="43.288572707513914" lon="10.778085138500556"><ele>307.5</ele><time>2026-04-18T12:05:50Z</time></trkpt><trkpt lat="43.28868183907786" lon="10.77814808312013"><ele>305.0</ele><time>2026-04-18T12:05:51Z</time></trkpt><trkpt lat="43.28879792825114" lon="10.778204914400778"><ele>305.0</ele><time>2026-04-18T12:05:52Z</time></trkpt><trkpt lat="43.28892411122381" lon="10.778266423894356"><ele>305.0</ele><time>2026-04-18T12:05:53Z</time></trkpt><trkpt lat="43.289044778363774" lon="10.778326661367965"><ele>305.0</ele><time>2026-04-18T12:05:54Z</time></trkpt><trkpt lat="43.289152393251925" lon="10.77838854307986"><ele>305.0</ele><time>2026-04-18T12:05:55Z</time></trkpt><trkpt lat="43.28924012753947" lon="10.778459058674935"><ele>306.1666666666667</ele><time>2026-04-18T12:05:56Z</time></trkpt><trkpt lat="43.28930745878182" lon="10.778552583803119"><ele>307.33333333333337</ele><time>2026-04-18T12:05:57Z</time></trkpt><trkpt lat="43.28936494030417" lon="10.77865229713339"><ele>308.5</ele><time>2026-04-18T12:05:58Z</time></trkpt><trkpt lat="43.28942018115999" lon="10.778737897721424"><ele>309.6666666666667</ele><time>2026-04-18T12:05:59Z</time></trkpt><trkpt lat="43.28947367163552" lon="10.778789272444435"><ele>310.8333333333333</ele><time>2026-04-18T12:06:00Z</time></trkpt><trkpt lat="43.28954139913488" lon="10.77881325974322"><ele>312.0</ele><time>2026-04-18T12:06:01Z</time></trkpt><trkpt lat="43.28961784548881" lon="10.778853711520386"><ele>312.0</ele><time>2026-04-18T12:06:02Z</time></trkpt><trkpt lat="43.289714878781915" lon="10.778856084849284"><ele>312.0</ele><time>2026-04-18T12:06:03Z</time></trkpt><trkpt lat="43.28981190125572" lon="10.778840102111529"><ele>312.0</ele><time>2026-04-18T12:06:04Z</time></trkpt><trkpt lat="43.28990353217706" lon="10.7788248808063"><ele>312.0</ele><time>2026-04-18T12:06:05Z</time></trkpt><trkpt lat="43.28998944506457" lon="10.778807498078159"><ele>312.0</ele><time>2026-04-18T12:06:06Z</time></trkpt><trkpt lat="43.29007585342199" lon="10.778847390373238"><ele>311.2</ele><time>2026-04-18T12:06:07Z</time></trkpt><trkpt lat="43.29015891227106" lon="10.77889671186976"><ele>310.4</ele><time>2026-04-18T12:06:08Z</time></trkpt><trkpt lat="43.290224550946846" lon="10.778965716010502"><ele>309.6</ele><time>2026-04-18T12:06:09Z</time></trkpt><trkpt lat="43.29029668404669" lon="10.779060202808525"><ele>308.8</ele><time>2026-04-18T12:06:10Z</time></trkpt><trkpt lat="43.29034822238822" lon="10.779177526448676"><ele>308.0</ele><time>2026-04-18T12:06:11Z</time></trkpt><trkpt lat="43.29041146779535" lon="10.779290679829295"><ele>307.75</ele><time>2026-04-18T12:06:12Z</time></trkpt><trkpt lat="43.29049909382307" lon="10.779396878802006"><ele>307.5</ele><time>2026-04-18T12:06:13Z</time></trkpt><trkpt lat="43.29058203607487" lon="10.77950165457048"><ele>307.25</ele><time>2026-04-18T12:06:14Z</time></trkpt><trkpt lat="43.290678619456074" lon="10.77960985851141"><ele>307.0</ele><time>2026-04-18T12:06:15Z</time></trkpt><trkpt lat="43.29078993788276" lon="10.779721066976483"><ele>307.0</ele><time>2026-04-18T12:06:16Z</time></trkpt><trkpt lat="43.29086851531086" lon="10.779849466824022"><ele>307.0</ele><time>2026-04-18T12:06:17Z</time></trkpt><trkpt lat="43.29095375278386" lon="10.779965814831835"><ele>307.0</ele><time>2026-04-18T12:06:18Z</time></trkpt><trkpt lat="43.2910454715036" lon="10.780049475349191"><ele>307.0</ele><time>2026-04-18T12:06:19Z</time></trkpt><trkpt lat="43.29112518731547" lon="10.780142188953684"><ele>304.8333333333333</ele><time>2026-04-18T12:06:20Z</time></trkpt><trkpt lat="43.29119018455461" lon="10.780209761998531"><ele>302.66666666666663</ele><time>2026-04-18T12:06:21Z</time></trkpt><trkpt lat="43.29125676161256" lon="10.780267329612448"><ele>300.5</ele><time>2026-04-18T12:06:22Z</time></trkpt><trkpt lat="43.291346777910775" lon="10.780297519326403"><ele>298.3333333333333</ele><time>2026-04-18T12:06:23Z</time></trkpt><trkpt lat="43.291426917048405" lon="10.780315336367794"><ele>296.1666666666667</ele><time>2026-04-18T12:06:24Z</time></trkpt><trkpt lat="43.29151835918052" lon="10.780306917242982"><ele>294.0</ele><time>2026-04-18T12:06:25Z</time></trkpt><trkpt lat="43.291598810447496" lon="10.780277987335975"><ele>294.0</ele><time>2026-04-18T12:06:26Z</time></trkpt><trkpt lat="43.291665362011166" lon="10.780269649099514"><ele>294.0</ele><time>2026-04-18T12:06:27Z</time></trkpt><trkpt lat="43.29177712330463" lon="10.78035570013023"><ele>294.0</ele><time>2026-04-18T12:06:29Z</time></trkpt><trkpt lat="43.291851089713404" lon="10.780448088077538"><ele>294.0</ele><time>2026-04-18T12:06:30Z</time></trkpt><trkpt lat="43.2918981453774" lon="10.780572462409017"><ele>294.0</ele><time>2026-04-18T12:06:31Z</time></trkpt><trkpt lat="43.29191881800545" lon="10.780703261527716"><ele>294.0</ele><time>2026-04-18T12:06:32Z</time></trkpt><trkpt lat="43.291941490349316" lon="10.78084680508524"><ele>294.0</ele><time>2026-04-18T12:06:33Z</time></trkpt><trkpt lat="43.291946980876645" lon="10.78100950043662"><ele>294.0</ele><time>2026-04-18T12:06:34Z</time></trkpt><trkpt lat="43.29194792290431" lon="10.781175144019045"><ele>294.0</ele><time>2026-04-18T12:06:35Z</time></trkpt><trkpt lat="43.29197352839412" lon="10.781344669060632"><ele>294.8</ele><time>2026-04-18T12:06:36Z</time></trkpt><trkpt lat="43.29200588189985" lon="10.78147676087133"><ele>295.59999999999997</ele><time>2026-04-18T12:06:37Z</time></trkpt><trkpt lat="43.29204109980349" lon="10.781609372128877"><ele>296.4</ele><time>2026-04-18T12:06:38Z</time></trkpt><trkpt lat="43.29206541863607" lon="10.781758778244189"><ele>297.2</ele><time>2026-04-18T12:06:39Z</time></trkpt><trkpt lat="43.292139810292696" lon="10.781900651106351"><ele>298.0</ele><time>2026-04-18T12:06:40Z</time></trkpt><trkpt lat="43.29219108925694" lon="10.782053382121685"><ele>298.6</ele><time>2026-04-18T12:06:41Z</time></trkpt><trkpt lat="43.292205295442564" lon="10.7821784323892"><ele>299.20000000000005</ele><time>2026-04-18T12:06:42Z</time></trkpt><trkpt lat="43.29218579571477" lon="10.782287818733474"><ele>299.8</ele><time>2026-04-18T12:06:43Z</time></trkpt><trkpt lat="43.29214127076253" lon="10.782389943416709"><ele>300.40000000000003</ele><time>2026-04-18T12:06:44Z</time></trkpt><trkpt lat="43.292094717153915" lon="10.782516820132633"><ele>301.0</ele><time>2026-04-18T12:06:45Z</time></trkpt><trkpt lat="43.29204715616832" lon="10.782682838574562"><ele>301.8</ele><time>2026-04-18T12:06:46Z</time></trkpt><trkpt lat="43.29198833981462" lon="10.782837639324374"><ele>302.6</ele><time>2026-04-18T12:06:47Z</time></trkpt><trkpt lat="43.291919977406" lon="10.782988564596193"><ele>303.4</ele><time>2026-04-18T12:06:48.001Z</time></trkpt><trkpt lat="43.29188514380808" lon="10.78309665098351"><ele>304.2</ele><time>2026-04-18T12:06:49.001Z</time></trkpt><trkpt lat="43.29189874301816" lon="10.783198356805023"><ele>305.0</ele><time>2026-04-18T12:06:50.001Z</time></trkpt><trkpt lat="43.29192342770195" lon="10.7833190245829"><ele>305.0</ele><time>2026-04-18T12:06:51.001Z</time></trkpt><trkpt lat="43.291955555029425" lon="10.78345660920521"><ele>305.0</ele><time>2026-04-18T12:06:52.001Z</time></trkpt><trkpt lat="43.29198081655159" lon="10.7836112513907"><ele>305.0</ele><time>2026-04-18T12:06:53.001Z</time></trkpt><trkpt lat="43.29200176614476" lon="10.783746024586346"><ele>305.0</ele><time>2026-04-18T12:06:54.001Z</time></trkpt><trkpt lat="43.29200830422102" lon="10.783861422771228"><ele>305.0</ele><time>2026-04-18T12:06:55.001Z</time></trkpt><trkpt lat="43.291996794967346" lon="10.783981962763528"><ele>304.1666666666667</ele><time>2026-04-18T12:06:56.001Z</time></trkpt><trkpt lat="43.29196507609924" lon="10.784077940017673"><ele>303.33333333333337</ele><time>2026-04-18T12:06:57.001Z</time></trkpt><trkpt lat="43.29192633568951" lon="10.784157473089676"><ele>302.5</ele><time>2026-04-18T12:06:58.001Z</time></trkpt><trkpt lat="43.29188826320037" lon="10.784249900140074"><ele>301.6666666666667</ele><time>2026-04-18T12:06:59.001Z</time></trkpt><trkpt lat="43.29186780767828" lon="10.784350872732928"><ele>300.8333333333333</ele><time>2026-04-18T12:07:00.001Z</time></trkpt><trkpt lat="43.29188112735858" lon="10.784465320977823"><ele>300.0</ele><time>2026-04-18T12:07:01.001Z</time></trkpt><trkpt lat="43.29191656447849" lon="10.784572858955288"><ele>297.8</ele><time>2026-04-18T12:07:02.001Z</time></trkpt><trkpt lat="43.29197720445077" lon="10.784601127356371"><ele>295.6</ele><time>2026-04-18T12:07:03.001Z</time></trkpt><trkpt lat="43.292053731230766" lon="10.784648249779083"><ele>293.4</ele><time>2026-04-18T12:07:04.001Z</time></trkpt><trkpt lat="43.292152337508234" lon="10.784706041853232"><ele>291.2</ele><time>2026-04-18T12:07:05.001Z</time></trkpt><trkpt lat="43.292255952742224" lon="10.784766315793693"><ele>289.0</ele><time>2026-04-18T12:07:06.001Z</time></trkpt><trkpt lat="43.29234981844772" lon="10.784807366640052"><ele>287.66666666666663</ele><time>2026-04-18T12:07:07.001Z</time></trkpt><trkpt lat="43.2924327807324" lon="10.784832287848673"><ele>286.3333333333333</ele><time>2026-04-18T12:07:08.001Z</time></trkpt><trkpt lat="43.292506901637445" lon="10.7848460008549"><ele>285.0</ele><time>2026-04-18T12:07:09.001Z</time></trkpt><trkpt lat="43.29259587082461" lon="10.784856407665165"><ele>283.6666666666667</ele><time>2026-04-18T12:07:10.001Z</time></trkpt><trkpt lat="43.292670861778625" lon="10.78486793884737"><ele>282.33333333333337</ele><time>2026-04-18T12:07:11.001Z</time></trkpt><trkpt lat="43.292738315690166" lon="10.784887695994366"><ele>281.0</ele><time>2026-04-18T12:07:12.001Z</time></trkpt><trkpt lat="43.29281641820585" lon="10.784927376792435"><ele>281.0</ele><time>2026-04-18T12:07:13.001Z</time></trkpt><trkpt lat="43.292881399647" lon="10.784968753068108"><ele>281.0</ele><time>2026-04-18T12:07:14.001Z</time></trkpt><trkpt lat="43.29292842530747" lon="10.785028014287523"><ele>281.0</ele><time>2026-04-18T12:07:15.001Z</time></trkpt><trkpt lat="43.29297192915759" lon="10.785101483916826"><ele>281.0</ele><time>2026-04-18T12:07:16.001Z</time></trkpt><trkpt lat="43.292997762434034" lon="10.785189837504035"><ele>281.0</ele><time>2026-04-18T12:07:17.001Z</time></trkpt><trkpt lat="43.29300186273025" lon="10.78531304921909"><ele>281.0</ele><time>2026-04-18T12:07:18.001Z</time></trkpt><trkpt lat="43.293010221902485" lon="10.785464582048178"><ele>280.6</ele><time>2026-04-18T12:07:19.001Z</time></trkpt><trkpt lat="43.293027184873935" lon="10.785626065631169"><ele>280.20000000000005</ele><time>2026-04-18T12:07:20.001Z</time></trkpt><trkpt lat="43.29304713974517" lon="10.785789191181276"><ele>279.79999999999995</ele><time>2026-04-18T12:07:21.001Z</time></trkpt><trkpt lat="43.29306039893826" lon="10.785940123328118"><ele>279.4</ele><time>2026-04-18T12:07:22.001Z</time></trkpt><trkpt lat="43.29308157634478" lon="10.786062756218916"><ele>279.0</ele><time>2026-04-18T12:07:23.001Z</time></trkpt><trkpt lat="43.29312033914641" lon="10.786174573081052"><ele>274.59999999999997</ele><time>2026-04-18T12:07:24.001Z</time></trkpt><trkpt lat="43.293176209593454" lon="10.786287695844655"><ele>270.2</ele><time>2026-04-18T12:07:25.001Z</time></trkpt><trkpt lat="43.29324340720691" lon="10.786384556590296"><ele>265.79999999999995</ele><time>2026-04-18T12:07:26.001Z</time></trkpt><trkpt lat="43.293309171767916" lon="10.786481047257034"><ele>261.4</ele><time>2026-04-18T12:07:27.001Z</time></trkpt><trkpt lat="43.29339021264418" lon="10.78660091873664"><ele>257.0</ele><time>2026-04-18T12:07:28.001Z</time></trkpt><trkpt lat="43.29348988731639" lon="10.786717055225003"><ele>257.0</ele><time>2026-04-18T12:07:29.001Z</time></trkpt><trkpt lat="43.293605090137426" lon="10.786818634519069"><ele>257.0</ele><time>2026-04-18T12:07:30.001Z</time></trkpt><trkpt lat="43.29371322143506" lon="10.786909466351528"><ele>257.0</ele><time>2026-04-18T12:07:31.001Z</time></trkpt><trkpt lat="43.293808525460676" lon="10.786988958826964"><ele>257.0</ele><time>2026-04-18T12:07:32.001Z</time></trkpt><trkpt lat="43.29389226064855" lon="10.787070919162336"><ele>256.1666666666667</ele><time>2026-04-18T12:07:33.001Z</time></trkpt><trkpt lat="43.293955267379644" lon="10.787134648718446"><ele>255.33333333333334</ele><time>2026-04-18T12:07:34.001Z</time></trkpt><trkpt lat="43.294005771487065" lon="10.787194308686221"><ele>254.5</ele><time>2026-04-18T12:07:35.001Z</time></trkpt><trkpt lat="43.294034400763756" lon="10.787312765111924"><ele>253.66666666666669</ele><time>2026-04-18T12:07:37.001Z</time></trkpt><trkpt lat="43.29395952581525" lon="10.787415129264506"><ele>252.83333333333334</ele><time>2026-04-18T12:07:39.001Z</time></trkpt><trkpt lat="43.29390116026512" lon="10.787475197622921"><ele>252.0</ele><time>2026-04-18T12:07:40.001Z</time></trkpt><trkpt lat="43.29382747658656" lon="10.787561102612301"><ele>252.0</ele><time>2026-04-18T12:07:41.001Z</time></trkpt><trkpt lat="43.29374830160788" lon="10.787665499384017"><ele>252.0</ele><time>2026-04-18T12:07:42.001Z</time></trkpt><trkpt lat="43.293660559211425" lon="10.787776321092506"><ele>252.0</ele><time>2026-04-18T12:07:43.001Z</time></trkpt><trkpt lat="43.29356659457208" lon="10.787905597876563"><ele>252.0</ele><time>2026-04-18T12:07:44.001Z</time></trkpt><trkpt lat="43.29348526588731" lon="10.788022045025333"><ele>251.25</ele><time>2026-04-18T12:07:45.001Z</time></trkpt><trkpt lat="43.29342784721109" lon="10.788151458386272"><ele>250.5</ele><time>2026-04-18T12:07:46.001Z</time></trkpt><trkpt lat="43.29337634504654" lon="10.788299736926637"><ele>249.75</ele><time>2026-04-18T12:07:47.001Z</time></trkpt><trkpt lat="43.293323993145776" lon="10.788453237911572"><ele>249.0</ele><time>2026-04-18T12:07:48.001Z</time></trkpt><trkpt lat="43.29325709253044" lon="10.788616621445959"><ele>248.25</ele><time>2026-04-18T12:07:49.001Z</time></trkpt><trkpt lat="43.29319408503665" lon="10.78876608588309"><ele>247.5</ele><time>2026-04-18T12:07:50.001Z</time></trkpt><trkpt lat="43.29314738452639" lon="10.788908557194924"><ele>246.75</ele><time>2026-04-18T12:07:51.001Z</time></trkpt><trkpt lat="43.29310166323638" lon="10.789042058328139"><ele>246.0</ele><time>2026-04-18T12:07:52.001Z</time></trkpt><trkpt lat="43.293065266886046" lon="10.789187451466663"><ele>251.66666666666669</ele><time>2026-04-18T12:07:53.001Z</time></trkpt><trkpt lat="43.29302976375225" lon="10.789340177851786"><ele>257.33333333333337</ele><time>2026-04-18T12:07:54Z</time></trkpt><trkpt lat="43.29299102293332" lon="10.789496759458824"><ele>263.0</ele><time>2026-04-18T12:07:55Z</time></trkpt><trkpt lat="43.2929017563661" lon="10.78976623489575"><ele>263.0</ele><time>2026-04-18T12:07:57Z</time></trkpt><trkpt lat="43.29282242565436" lon="10.789850305608299"><ele>263.0</ele><time>2026-04-18T12:07:58Z</time></trkpt><trkpt lat="43.292742661167416" lon="10.789925117017056"><ele>263.0</ele><time>2026-04-18T12:07:59Z</time></trkpt><trkpt lat="43.29265529754387" lon="10.789988739331873"><ele>263.0</ele><time>2026-04-18T12:08:00Z</time></trkpt><trkpt lat="43.292581853512786" lon="10.790089086090415"><ele>263.0</ele><time>2026-04-18T12:08:01Z</time></trkpt><trkpt lat="43.29251580930791" lon="10.790171422172183"><ele>261.6</ele><time>2026-04-18T12:08:02Z</time></trkpt><trkpt lat="43.292452560424046" lon="10.790274902355543"><ele>260.20000000000005</ele><time>2026-04-18T12:08:03Z</time></trkpt><trkpt lat="43.29237724198312" lon="10.790393451408407"><ele>258.8</ele><time>2026-04-18T12:08:04Z</time></trkpt><trkpt lat="43.29229409642216" lon="10.790499676256898"><ele>257.40000000000003</ele><time>2026-04-18T12:08:05Z</time></trkpt><trkpt lat="43.29222267765081" lon="10.790573911811016"><ele>256.0</ele><time>2026-04-18T12:08:06Z</time></trkpt><trkpt lat="43.29218778369501" lon="10.790649067875378"><ele>255.20000000000002</ele><time>2026-04-18T12:08:07Z</time></trkpt><trkpt lat="43.29217423773589" lon="10.790744190921865"><ele>254.40000000000003</ele><time>2026-04-18T12:08:08Z</time></trkpt><trkpt lat="43.29217679284511" lon="10.790867661915065"><ele>253.6</ele><time>2026-04-18T12:08:09Z</time></trkpt><trkpt lat="43.29219799848714" lon="10.791010250119335"><ele>252.8</ele><time>2026-04-18T12:08:10Z</time></trkpt><trkpt lat="43.29222778626543" lon="10.791144069762499"><ele>252.0</ele><time>2026-04-18T12:08:11Z</time></trkpt><trkpt lat="43.292260539106984" lon="10.791271876076063"><ele>252.0</ele><time>2026-04-18T12:08:12Z</time></trkpt><trkpt lat="43.29228584378739" lon="10.791406568605867"><ele>252.0</ele><time>2026-04-18T12:08:13Z</time></trkpt><trkpt lat="43.29228557407639" lon="10.791532172774714"><ele>252.0</ele><time>2026-04-18T12:08:14Z</time></trkpt><trkpt lat="43.292276346615246" lon="10.791637969264245"><ele>252.0</ele><time>2026-04-18T12:08:15Z</time></trkpt><trkpt lat="43.29225635223665" lon="10.791733106920512"><ele>252.0</ele><time>2026-04-18T12:08:16Z</time></trkpt><trkpt lat="43.292227883122465" lon="10.791844720522839"><ele>252.0</ele><time>2026-04-18T12:08:17Z</time></trkpt><trkpt lat="43.292177427117444" lon="10.791968691409767"><ele>254.0</ele><time>2026-04-18T12:08:18Z</time></trkpt><trkpt lat="43.292109702781104" lon="10.792102805038079"><ele>256.0</ele><time>2026-04-18T12:08:19Z</time></trkpt><trkpt lat="43.2920453910217" lon="10.792232755391414"><ele>258.0</ele><time>2026-04-18T12:08:20Z</time></trkpt><trkpt lat="43.292001686819674" lon="10.792388707590124"><ele>260.0</ele><time>2026-04-18T12:08:21Z</time></trkpt><trkpt lat="43.2919766931703" lon="10.79252671329244"><ele>260.0</ele><time>2026-04-18T12:08:22Z</time></trkpt><trkpt lat="43.291958613553426" lon="10.79263105123909"><ele>260.0</ele><time>2026-04-18T12:08:23Z</time></trkpt><trkpt lat="43.291960152716044" lon="10.792752415127014"><ele>260.0</ele><time>2026-04-18T12:08:25Z</time></trkpt><trkpt lat="43.292009384939675" lon="10.792871442332071"><ele>260.0</ele><time>2026-04-18T12:08:27Z</time></trkpt><trkpt lat="43.292069415355265" lon="10.792957208110822"><ele>260.0</ele><time>2026-04-18T12:08:28Z</time></trkpt><trkpt lat="43.29212848156582" lon="10.793040469204142"><ele>260.0</ele><time>2026-04-18T12:08:29Z</time></trkpt><trkpt lat="43.292203823132375" lon="10.793145390964883"><ele>257.83333333333337</ele><time>2026-04-18T12:08:31Z</time></trkpt><trkpt lat="43.292234389886325" lon="10.79323879905317"><ele>255.66666666666669</ele><time>2026-04-18T12:08:33Z</time></trkpt><trkpt lat="43.292283583332846" lon="10.7933116237049"><ele>253.5</ele><time>2026-04-18T12:08:41Z</time></trkpt><trkpt lat="43.29232814387733" lon="10.793387945324527"><ele>251.33333333333331</ele><time>2026-04-18T12:08:42Z</time></trkpt><trkpt lat="43.29237280011282" lon="10.793472242061618"><ele>249.16666666666666</ele><time>2026-04-18T12:08:43Z</time></trkpt><trkpt lat="43.29242409024641" lon="10.793596277770849"><ele>247.0</ele><time>2026-04-18T12:08:44Z</time></trkpt><trkpt lat="43.292477811194935" lon="10.793716265039853"><ele>246.16666666666666</ele><time>2026-04-18T12:08:45Z</time></trkpt><trkpt lat="43.29254026933088" lon="10.793817930341081"><ele>245.33333333333331</ele><time>2026-04-18T12:08:46Z</time></trkpt><trkpt lat="43.29261045709797" lon="10.793889437469373"><ele>244.5</ele><time>2026-04-18T12:08:47Z</time></trkpt><trkpt lat="43.29268345211238" lon="10.79394248174513"><ele>243.66666666666669</ele><time>2026-04-18T12:08:48Z</time></trkpt><trkpt lat="43.29273295637824" lon="10.794014419857952"><ele>242.83333333333334</ele><time>2026-04-18T12:08:49Z</time></trkpt><trkpt lat="43.2927373991277" lon="10.794113678007262"><ele>242.0</ele><time>2026-04-18T12:08:50Z</time></trkpt><trkpt lat="43.292604335220936" lon="10.794146113001913"><ele>242.0</ele><time>2026-04-18T12:08:52Z</time></trkpt><trkpt lat="43.292515036398896" lon="10.794130035805903"><ele>242.0</ele><time>2026-04-18T12:08:53Z</time></trkpt><trkpt lat="43.29240384671368" lon="10.794124666990763"><ele>242.0</ele><time>2026-04-18T12:08:54Z</time></trkpt><trkpt lat="43.29228328452382" lon="10.79411693317529"><ele>242.0</ele><time>2026-04-18T12:08:55Z</time></trkpt><trkpt lat="43.2921617846087" lon="10.794074746649137"><ele>242.0</ele><time>2026-04-18T12:08:56Z</time></trkpt><trkpt lat="43.29204060333062" lon="10.794007303866382"><ele>240.25</ele><time>2026-04-18T12:08:57.001Z</time></trkpt><trkpt lat="43.291912096689735" lon="10.793908944117694"><ele>238.5</ele><time>2026-04-18T12:08:58.001Z</time></trkpt><trkpt lat="43.2917705176727" lon="10.793836613677831"><ele>236.75</ele><time>2026-04-18T12:08:59.001Z</time></trkpt><trkpt lat="43.291638330829294" lon="10.793820375045874"><ele>235.0</ele><time>2026-04-18T12:09:00.001Z</time></trkpt><trkpt lat="43.291527797355315" lon="10.793800646092304"><ele>235.0</ele><time>2026-04-18T12:09:01.001Z</time></trkpt><trkpt lat="43.29144874088435" lon="10.793798393459086"><ele>235.0</ele><time>2026-04-18T12:09:02.001Z</time></trkpt><trkpt lat="43.29138094905345" lon="10.79384038574123"><ele>235.0</ele><time>2026-04-18T12:09:04.001Z</time></trkpt><trkpt lat="43.29141757377425" lon="10.79398382762969"><ele>235.0</ele><time>2026-04-18T12:09:05.001Z</time></trkpt><trkpt lat="43.29156464048551" lon="10.794096575123715"><ele>235.0</ele><time>2026-04-18T12:09:07.001Z</time></trkpt><trkpt lat="43.291655485301824" lon="10.794194534911247"><ele>235.0</ele><time>2026-04-18T12:09:08.001Z</time></trkpt><trkpt lat="43.291730837005325" lon="10.794334126670165"><ele>235.0</ele><time>2026-04-18T12:09:09.001Z</time></trkpt><trkpt lat="43.291792080445894" lon="10.794499678933406"><ele>235.0</ele><time>2026-04-18T12:09:10.001Z</time></trkpt><trkpt lat="43.29184421801298" lon="10.79464818433476"><ele>235.0</ele><time>2026-04-18T12:09:11.001Z</time></trkpt><trkpt lat="43.291910449336626" lon="10.794770230892482"><ele>232.5</ele><time>2026-04-18T12:09:12.001Z</time></trkpt><trkpt lat="43.29199283872278" lon="10.794874476457506"><ele>230.0</ele><time>2026-04-18T12:09:13.001Z</time></trkpt><trkpt lat="43.292113716220406" lon="10.794968003322463"><ele>227.5</ele><time>2026-04-18T12:09:14.001Z</time></trkpt><trkpt lat="43.292249557631756" lon="10.795059182274622"><ele>225.0</ele><time>2026-04-18T12:09:15.001Z</time></trkpt><trkpt lat="43.292400063370245" lon="10.795149928900981"><ele>221.25</ele><time>2026-04-18T12:09:16.001Z</time></trkpt><trkpt lat="43.29253872099284" lon="10.795244856674099"><ele>217.5</ele><time>2026-04-18T12:09:17.001Z</time></trkpt><trkpt lat="43.292652245991924" lon="10.795363109151749"><ele>213.75</ele><time>2026-04-18T12:09:18.001Z</time></trkpt><trkpt lat="43.29274459334084" lon="10.795509662455059"><ele>210.0</ele><time>2026-04-18T12:09:19.001Z</time></trkpt><trkpt lat="43.29281884870208" lon="10.795658857812008"><ele>210.0</ele><time>2026-04-18T12:09:20.001Z</time></trkpt><trkpt lat="43.292888883157836" lon="10.795800498501706"><ele>210.0</ele><time>2026-04-18T12:09:21.001Z</time></trkpt><trkpt lat="43.29296325812829" lon="10.795919045026782"><ele>210.0</ele><time>2026-04-18T12:09:22.001Z</time></trkpt><trkpt lat="43.29304398808317" lon="10.796008025105191"><ele>210.0</ele><time>2026-04-18T12:09:23.001Z</time></trkpt><trkpt lat="43.29313657338236" lon="10.796059393695586"><ele>210.0</ele><time>2026-04-18T12:09:24.001Z</time></trkpt><trkpt lat="43.2932416105366" lon="10.796057331632607"><ele>210.5</ele><time>2026-04-18T12:09:25.001Z</time></trkpt><trkpt lat="43.2933512945154" lon="10.796013016634637"><ele>211.0</ele><time>2026-04-18T12:09:26.001Z</time></trkpt><trkpt lat="43.2934675873668" lon="10.79595010487528"><ele>211.5</ele><time>2026-04-18T12:09:27.001Z</time></trkpt><trkpt lat="43.29354904139236" lon="10.795834840965743"><ele>212.0</ele><time>2026-04-18T12:09:28.001Z</time></trkpt><trkpt lat="43.29363470849464" lon="10.795760526878931"><ele>212.0</ele><time>2026-04-18T12:09:29.001Z</time></trkpt><trkpt lat="43.29373095568865" lon="10.79574626758902"><ele>212.0</ele><time>2026-04-18T12:09:30.001Z</time></trkpt><trkpt lat="43.29381948065157" lon="10.795803750005648"><ele>212.0</ele><time>2026-04-18T12:09:31.001Z</time></trkpt><trkpt lat="43.2938810151506" lon="10.795918166353797"><ele>212.0</ele><time>2026-04-18T12:09:32.001Z</time></trkpt><trkpt lat="43.293921742695474" lon="10.79605807585489"><ele>212.0</ele><time>2026-04-18T12:09:33.001Z</time></trkpt><trkpt lat="43.29397187769149" lon="10.796210385515458"><ele>209.0</ele><time>2026-04-18T12:09:34.001Z</time></trkpt><trkpt lat="43.294053847407234" lon="10.796351338634791"><ele>206.0</ele><time>2026-04-18T12:09:35.001Z</time></trkpt><trkpt lat="43.29414416057584" lon="10.79647471418747"><ele>203.0</ele><time>2026-04-18T12:09:36.001Z</time></trkpt><trkpt lat="43.29424016157762" lon="10.796569784347845"><ele>200.0</ele><time>2026-04-18T12:09:37.001Z</time></trkpt><trkpt lat="43.29434538809701" lon="10.796639592794984"><ele>200.0</ele><time>2026-04-18T12:09:38.001Z</time></trkpt><trkpt lat="43.29446895243424" lon="10.796682361564542"><ele>200.0</ele><time>2026-04-18T12:09:39.001Z</time></trkpt><trkpt lat="43.29460597491442" lon="10.796700917807314"><ele>200.0</ele><time>2026-04-18T12:09:40.001Z</time></trkpt><trkpt lat="43.29489032495655" lon="10.796672679168779"><ele>198.25</ele><time>2026-04-18T12:09:42.001Z</time></trkpt><trkpt lat="43.295007058005545" lon="10.796720750752849"><ele>196.5</ele><time>2026-04-18T12:09:43.001Z</time></trkpt><trkpt lat="43.29511280768808" lon="10.796755888641457"><ele>194.75</ele><time>2026-04-18T12:09:44.001Z</time></trkpt><trkpt lat="43.295217253184575" lon="10.796729368713546"><ele>193.0</ele><time>2026-04-18T12:09:45.001Z</time></trkpt><trkpt lat="43.29531216921345" lon="10.796637572280346"><ele>193.0</ele><time>2026-04-18T12:09:46.001Z</time></trkpt><trkpt lat="43.29542092904599" lon="10.796531968804725"><ele>193.0</ele><time>2026-04-18T12:09:47.001Z</time></trkpt><trkpt lat="43.29550269803238" lon="10.79640424988335"><ele>193.0</ele><time>2026-04-18T12:09:48.001Z</time></trkpt><trkpt lat="43.29555585237305" lon="10.79625741848821"><ele>193.0</ele><time>2026-04-18T12:09:49.001Z</time></trkpt><trkpt lat="43.295571238406055" lon="10.79612703068896"><ele>191.4</ele><time>2026-04-18T12:09:50.001Z</time></trkpt><trkpt lat="43.29562142917142" lon="10.796035160129934"><ele>189.8</ele><time>2026-04-18T12:09:51.001Z</time></trkpt><trkpt lat="43.29571155342082" lon="10.795990113481825"><ele>188.2</ele><time>2026-04-18T12:09:52.001Z</time></trkpt><trkpt lat="43.2958271561953" lon="10.796070801296283"><ele>186.6</ele><time>2026-04-18T12:09:53.001Z</time></trkpt><trkpt lat="43.29594743561966" lon="10.796071672838375"><ele>185.0</ele><time>2026-04-18T12:09:54.001Z</time></trkpt><trkpt lat="43.29608392646037" lon="10.795993448278226"><ele>185.0</ele><time>2026-04-18T12:09:55.001Z</time></trkpt><trkpt lat="43.29623079820471" lon="10.795913363987085"><ele>185.0</ele><time>2026-04-18T12:09:56.001Z</time></trkpt><trkpt lat="43.2963718407153" lon="10.795889383102905"><ele>185.0</ele><time>2026-04-18T12:09:57.001Z</time></trkpt><trkpt lat="43.29649842202177" lon="10.795882210749392"><ele>185.0</ele><time>2026-04-18T12:09:58.001Z</time></trkpt><trkpt lat="43.29660236689504" lon="10.795853387502646"><ele>181.75</ele><time>2026-04-18T12:09:59.001Z</time></trkpt><trkpt lat="43.29670400793814" lon="10.795804977411727"><ele>178.5</ele><time>2026-04-18T12:10:00Z</time></trkpt><trkpt lat="43.296770327713816" lon="10.79563809553916"><ele>175.25</ele><time>2026-04-18T12:10:01Z</time></trkpt><trkpt lat="43.29682974138635" lon="10.795476500604371"><ele>172.0</ele><time>2026-04-18T12:10:02Z</time></trkpt><trkpt lat="43.29688148328969" lon="10.795343260606607"><ele>172.0</ele><time>2026-04-18T12:10:03Z</time></trkpt><trkpt lat="43.29694951596618" lon="10.795259677089604"><ele>172.0</ele><time>2026-04-18T12:10:04Z</time></trkpt><trkpt lat="43.29704593334904" lon="10.79520044425846"><ele>172.0</ele><time>2026-04-18T12:10:05Z</time></trkpt><trkpt lat="43.29716276727661" lon="10.795245485259064"><ele>172.0</ele><time>2026-04-18T12:10:06Z</time></trkpt><trkpt lat="43.29729924316603" lon="10.795287741349346"><ele>168.0</ele><time>2026-04-18T12:10:07Z</time></trkpt><trkpt lat="43.29744880610203" lon="10.795296610475347"><ele>164.0</ele><time>2026-04-18T12:10:08Z</time></trkpt><trkpt lat="43.297603279407305" lon="10.795298550556536"><ele>160.0</ele><time>2026-04-18T12:10:09Z</time></trkpt><trkpt lat="43.297771003344025" lon="10.795281722079517"><ele>160.0</ele><time>2026-04-18T12:10:10Z</time></trkpt><trkpt lat="43.297919936878344" lon="10.795268480947305"><ele>160.0</ele><time>2026-04-18T12:10:11Z</time></trkpt><trkpt lat="43.29805520736888" lon="10.795287123092727"><ele>160.0</ele><time>2026-04-18T12:10:12Z</time></trkpt><trkpt lat="43.2981635809932" lon="10.795369285806647"><ele>160.0</ele><time>2026-04-18T12:10:13Z</time></trkpt><trkpt lat="43.29824896303717" lon="10.795511955917842"><ele>160.5</ele><time>2026-04-18T12:10:14Z</time></trkpt><trkpt lat="43.2983318281634" lon="10.795674171803565"><ele>161.0</ele><time>2026-04-18T12:10:15Z</time></trkpt><trkpt lat="43.29838104125444" lon="10.795832874272737"><ele>161.5</ele><time>2026-04-18T12:10:16Z</time></trkpt><trkpt lat="43.29840338969348" lon="10.79599912508844"><ele>162.0</ele><time>2026-04-18T12:10:17Z</time></trkpt><trkpt lat="43.29839881660077" lon="10.796190704019844"><ele>160.5</ele><time>2026-04-18T12:10:18Z</time></trkpt><trkpt lat="43.29838127609751" lon="10.796379910235878"><ele>159.0</ele><time>2026-04-18T12:10:19Z</time></trkpt><trkpt lat="43.298363456512284" lon="10.796547638468455"><ele>157.5</ele><time>2026-04-18T12:10:20Z</time></trkpt><trkpt lat="43.2983739317402" lon="10.796703649084353"><ele>156.0</ele><time>2026-04-18T12:10:21Z</time></trkpt><trkpt lat="43.298380822440095" lon="10.796848144072879"><ele>153.5</ele><time>2026-04-18T12:10:22Z</time></trkpt><trkpt lat="43.29838551400011" lon="10.79698347447119"><ele>151.0</ele><time>2026-04-18T12:10:23Z</time></trkpt><trkpt lat="43.29844194431544" lon="10.797111564338582"><ele>148.5</ele><time>2026-04-18T12:10:24Z</time></trkpt><trkpt lat="43.298525295515795" lon="10.79723900779934"><ele>146.0</ele><time>2026-04-18T12:10:25Z</time></trkpt><trkpt lat="43.298626504927725" lon="10.797383526458995"><ele>146.0</ele><time>2026-04-18T12:10:26Z</time></trkpt><trkpt lat="43.29873072771228" lon="10.797541157148336"><ele>146.0</ele><time>2026-04-18T12:10:27Z</time></trkpt><trkpt lat="43.29881927914441" lon="10.79771163965991"><ele>146.0</ele><time>2026-04-18T12:10:28Z</time></trkpt><trkpt lat="43.29886721271967" lon="10.79789747010004"><ele>146.0</ele><time>2026-04-18T12:10:29Z</time></trkpt><trkpt lat="43.29887422645621" lon="10.798089176622826"><ele>146.0</ele><time>2026-04-18T12:10:30Z</time></trkpt><trkpt lat="43.29891737403366" lon="10.798250327883869"><ele>146.0</ele><time>2026-04-18T12:10:31Z</time></trkpt><trkpt lat="43.29899426956341" lon="10.798420265970915"><ele>146.0</ele><time>2026-04-18T12:10:32Z</time></trkpt><trkpt lat="43.29909495174619" lon="10.798614364959663"><ele>146.0</ele><time>2026-04-18T12:10:33Z</time></trkpt><trkpt lat="43.29921012402104" lon="10.798804729937407"><ele>146.0</ele><time>2026-04-18T12:10:34Z</time></trkpt><trkpt lat="43.299306675817455" lon="10.799007342212384"><ele>146.0</ele><time>2026-04-18T12:10:35Z</time></trkpt><trkpt lat="43.29936751578893" lon="10.799180455333065"><ele>144.0</ele><time>2026-04-18T12:10:36Z</time></trkpt><trkpt lat="43.299398286012426" lon="10.799372349910334"><ele>142.0</ele><time>2026-04-18T12:10:37Z</time></trkpt><trkpt lat="43.299408300233225" lon="10.799592861058347"><ele>140.0</ele><time>2026-04-18T12:10:38Z</time></trkpt><trkpt lat="43.299407265156454" lon="10.799813299725564"><ele>140.0</ele><time>2026-04-18T12:10:39Z</time></trkpt><trkpt lat="43.299420131342266" lon="10.800016705284731"><ele>140.0</ele><time>2026-04-18T12:10:40Z</time></trkpt><trkpt lat="43.29942872949937" lon="10.800194088242709"><ele>140.0</ele><time>2026-04-18T12:10:41Z</time></trkpt><trkpt lat="43.2994037787707" lon="10.800358811384962"><ele>140.0</ele><time>2026-04-18T12:10:42Z</time></trkpt><trkpt lat="43.29933902024249" lon="10.80050325672906"><ele>139.6</ele><time>2026-04-18T12:10:43Z</time></trkpt><trkpt lat="43.29927304822678" lon="10.800619020093148"><ele>139.2</ele><time>2026-04-18T12:10:44Z</time></trkpt><trkpt lat="43.29924453792255" lon="10.800755543296308"><ele>138.8</ele><time>2026-04-18T12:10:45Z</time></trkpt><trkpt lat="43.29929644883409" lon="10.800891858877597"><ele>138.4</ele><time>2026-04-18T12:10:46Z</time></trkpt><trkpt lat="43.29935789540727" lon="10.801041019425503"><ele>138.0</ele><time>2026-04-18T12:10:47Z</time></trkpt><trkpt lat="43.29947779736996" lon="10.80114394039796"><ele>137.33333333333334</ele><time>2026-04-18T12:10:48Z</time></trkpt><trkpt lat="43.29961200270154" lon="10.801216162580033"><ele>136.66666666666669</ele><time>2026-04-18T12:10:49Z</time></trkpt><trkpt lat="43.29975757140956" lon="10.801274869061398"><ele>136.0</ele><time>2026-04-18T12:10:50Z</time></trkpt><trkpt lat="43.29992003160407" lon="10.801316283719801"><ele>138.66666666666669</ele><time>2026-04-18T12:10:51Z</time></trkpt><trkpt lat="43.30010068354732" lon="10.80135336712076"><ele>141.33333333333334</ele><time>2026-04-18T12:10:52Z</time></trkpt><trkpt lat="43.30029646730108" lon="10.801366399724273"><ele>144.0</ele><time>2026-04-18T12:10:53Z</time></trkpt><trkpt lat="43.30046432155173" lon="10.801342151628136"><ele>143.75</ele><time>2026-04-18T12:10:54Z</time></trkpt><trkpt lat="43.30061989016582" lon="10.801337697155963"><ele>143.5</ele><time>2026-04-18T12:10:55Z</time></trkpt><trkpt lat="43.30075705887785" lon="10.801391199328783"><ele>143.25</ele><time>2026-04-18T12:10:56Z</time></trkpt><trkpt lat="43.300878031710724" lon="10.801497018258672"><ele>143.0</ele><time>2026-04-18T12:10:57Z</time></trkpt><trkpt lat="43.30099880656347" lon="10.801657227617419"><ele>143.0</ele><time>2026-04-18T12:10:58Z</time></trkpt><trkpt lat="43.30111966242465" lon="10.801812849576057"><ele>143.0</ele><time>2026-04-18T12:10:59Z</time></trkpt><trkpt lat="43.3012308319503" lon="10.801940737064479"><ele>143.0</ele><time>2026-04-18T12:11:00Z</time></trkpt><trkpt lat="43.30133385226922" lon="10.802048431673638"><ele>143.0</ele><time>2026-04-18T12:11:01Z</time></trkpt><trkpt lat="43.301423059977296" lon="10.802137034363959"><ele>142.4</ele><time>2026-04-18T12:11:02Z</time></trkpt><trkpt lat="43.3015030921585" lon="10.802204384554912"><ele>141.8</ele><time>2026-04-18T12:11:03Z</time></trkpt><trkpt lat="43.301580718683276" lon="10.802278195385414"><ele>141.2</ele><time>2026-04-18T12:11:04Z</time></trkpt><trkpt lat="43.301656283404654" lon="10.80234425647324"><ele>140.6</ele><time>2026-04-18T12:11:05Z</time></trkpt><trkpt lat="43.30172467550715" lon="10.802406648665574"><ele>140.0</ele><time>2026-04-18T12:11:06Z</time></trkpt><trkpt lat="43.30180190287104" lon="10.802482323667224"><ele>140.0</ele><time>2026-04-18T12:11:07Z</time></trkpt><trkpt lat="43.301896676798854" lon="10.80256344168128"><ele>140.0</ele><time>2026-04-18T12:11:08Z</time></trkpt><trkpt lat="43.302002137286564" lon="10.802659325515002"><ele>140.0</ele><time>2026-04-18T12:11:09Z</time></trkpt><trkpt lat="43.302110909902396" lon="10.802759712761347"><ele>140.0</ele><time>2026-04-18T12:11:10Z</time></trkpt><trkpt lat="43.302232763636056" lon="10.80286687081089"><ele>138.5</ele><time>2026-04-18T12:11:11Z</time></trkpt><trkpt lat="43.30235496715067" lon="10.802956853581021"><ele>137.0</ele><time>2026-04-18T12:11:12.001Z</time></trkpt><trkpt lat="43.302482803230035" lon="10.803003513692353"><ele>135.5</ele><time>2026-04-18T12:11:13.001Z</time></trkpt><trkpt lat="43.30261541938079" lon="10.80301114204174"><ele>134.0</ele><time>2026-04-18T12:11:14.001Z</time></trkpt><trkpt lat="43.302751203798714" lon="10.802974141339314"><ele>134.0</ele><time>2026-04-18T12:11:15.001Z</time></trkpt><trkpt lat="43.302869769593215" lon="10.8028927256907"><ele>134.0</ele><time>2026-04-18T12:11:16.001Z</time></trkpt><trkpt lat="43.30297975155332" lon="10.802783930467776"><ele>134.0</ele><time>2026-04-18T12:11:17.001Z</time></trkpt><trkpt lat="43.303093100340405" lon="10.80269006034854"><ele>134.0</ele><time>2026-04-18T12:11:18.001Z</time></trkpt><trkpt lat="43.3032160569993" lon="10.802642258176824"><ele>133.5</ele><time>2026-04-18T12:11:19.001Z</time></trkpt><trkpt lat="43.30334670353726" lon="10.802647163892651"><ele>133.0</ele><time>2026-04-18T12:11:20.001Z</time></trkpt><trkpt lat="43.30346974956006" lon="10.802694356538412"><ele>132.5</ele><time>2026-04-18T12:11:21.001Z</time></trkpt><trkpt lat="43.303580514421114" lon="10.8027847181358"><ele>132.0</ele><time>2026-04-18T12:11:22.001Z</time></trkpt><trkpt lat="43.303648260682415" lon="10.802914804046097"><ele>131.5</ele><time>2026-04-18T12:11:23.001Z</time></trkpt><trkpt lat="43.30367881296749" lon="10.803077819445694"><ele>131.0</ele><time>2026-04-18T12:11:24.001Z</time></trkpt><trkpt lat="43.30370004638788" lon="10.803254601282717"><ele>130.5</ele><time>2026-04-18T12:11:25.001Z</time></trkpt><trkpt lat="43.303722586191185" lon="10.803448783423294"><ele>130.0</ele><time>2026-04-18T12:11:26.001Z</time></trkpt><trkpt lat="43.30375385351394" lon="10.803637837721112"><ele>128.25</ele><time>2026-04-18T12:11:27.001Z</time></trkpt><trkpt lat="43.303788700058746" lon="10.80382453582781"><ele>126.5</ele><time>2026-04-18T12:11:28.001Z</time></trkpt><trkpt lat="43.30382399470965" lon="10.80402045782272"><ele>124.75</ele><time>2026-04-18T12:11:29.001Z</time></trkpt><trkpt lat="43.30386681445453" lon="10.804219042998616"><ele>123.0</ele><time>2026-04-18T12:11:30.001Z</time></trkpt><trkpt lat="43.303903545442914" lon="10.804431336966493"><ele>116.33333333333334</ele><time>2026-04-18T12:11:31.001Z</time></trkpt><trkpt lat="43.30394326403955" lon="10.804646428383597"><ele>109.66666666666667</ele><time>2026-04-18T12:11:32.001Z</time></trkpt><trkpt lat="43.303994141376144" lon="10.80487953957266"><ele>103.0</ele><time>2026-04-18T12:11:33.001Z</time></trkpt><trkpt lat="43.30403263489468" lon="10.80509686614847"><ele>102.0</ele><time>2026-04-18T12:11:34.001Z</time></trkpt><trkpt lat="43.3040627824601" lon="10.805325110026837"><ele>101.0</ele><time>2026-04-18T12:11:35.001Z</time></trkpt><trkpt lat="43.30407426409279" lon="10.805546037781939"><ele>100.0</ele><time>2026-04-18T12:11:36.001Z</time></trkpt><trkpt lat="43.30406433625631" lon="10.805758989069194"><ele>100.0</ele><time>2026-04-18T12:11:37.001Z</time></trkpt><trkpt lat="43.30402428393867" lon="10.805955520846588"><ele>100.0</ele><time>2026-04-18T12:11:38.001Z</time></trkpt><trkpt lat="43.303944402189735" lon="10.806136299144123"><ele>100.0</ele><time>2026-04-18T12:11:39.001Z</time></trkpt><trkpt lat="43.30383178882302" lon="10.806298259673065"><ele>100.0</ele><time>2026-04-18T12:11:40.001Z</time></trkpt><trkpt lat="43.30370085794484" lon="10.806456154825426"><ele>100.0</ele><time>2026-04-18T12:11:41.001Z</time></trkpt><trkpt lat="43.303574063399005" lon="10.80661317920026"><ele>100.0</ele><time>2026-04-18T12:11:42.001Z</time></trkpt><trkpt lat="43.30344956626795" lon="10.806783257325636"><ele>99.66666666666667</ele><time>2026-04-18T12:11:43.001Z</time></trkpt><trkpt lat="43.303324281481856" lon="10.806961151496337"><ele>99.33333333333334</ele><time>2026-04-18T12:11:44.001Z</time></trkpt><trkpt lat="43.3032037035424" lon="10.807127768937335"><ele>99.0</ele><time>2026-04-18T12:11:45.001Z</time></trkpt><trkpt lat="43.303085173445" lon="10.807287915235703"><ele>100.0</ele><time>2026-04-18T12:11:46.001Z</time></trkpt><trkpt lat="43.30296823512532" lon="10.807452916074851"><ele>101.0</ele><time>2026-04-18T12:11:47.001Z</time></trkpt><trkpt lat="43.30285656694681" lon="10.80761697997483"><ele>102.0</ele><time>2026-04-18T12:11:48.001Z</time></trkpt><trkpt lat="43.30275445252273" lon="10.807797535412892"><ele>102.0</ele><time>2026-04-18T12:11:49.001Z</time></trkpt><trkpt lat="43.30267240530535" lon="10.807983362052417"><ele>102.0</ele><time>2026-04-18T12:11:50.001Z</time></trkpt><trkpt lat="43.30260391244842" lon="10.808181979384266"><ele>102.0</ele><time>2026-04-18T12:11:51.001Z</time></trkpt><trkpt lat="43.30254818375455" lon="10.8083755319059"><ele>102.0</ele><time>2026-04-18T12:11:52.001Z</time></trkpt><trkpt lat="43.30249880082232" lon="10.808537030231095"><ele>102.0</ele><time>2026-04-18T12:11:53.001Z</time></trkpt><trkpt lat="43.30245016610846" lon="10.808674267872656"><ele>102.0</ele><time>2026-04-18T12:11:54.001Z</time></trkpt><trkpt lat="43.302407025237486" lon="10.808803367806831"><ele>102.0</ele><time>2026-04-18T12:11:55.001Z</time></trkpt><trkpt lat="43.30236501256778" lon="10.808936334221135"><ele>102.0</ele><time>2026-04-18T12:11:56.001Z</time></trkpt><trkpt lat="43.30232358838632" lon="10.809050138345613"><ele>102.0</ele><time>2026-04-18T12:11:57.001Z</time></trkpt><trkpt lat="43.30227694845417" lon="10.809160400470777"><ele>102.0</ele><time>2026-04-18T12:11:58.001Z</time></trkpt><trkpt lat="43.30225283562017" lon="10.809260421241932"><ele>102.0</ele><time>2026-04-18T12:11:59.001Z</time></trkpt><trkpt lat="43.30221274770949" lon="10.809330517913606"><ele>102.0</ele><time>2026-04-18T12:12:01.001Z</time></trkpt><trkpt lat="43.30208417320638" lon="10.809125062387947"><ele>102.0</ele><time>2026-04-18T12:12:02.001Z</time></trkpt><trkpt lat="43.302019709983014" lon="10.809044945399004"><ele>103.75</ele><time>2026-04-18T12:12:03.001Z</time></trkpt><trkpt lat="43.30193758209014" lon="10.808935184417534"><ele>105.5</ele><time>2026-04-18T12:12:04.001Z</time></trkpt><trkpt lat="43.30181361599799" lon="10.808789454803696"><ele>107.25</ele><time>2026-04-18T12:12:05.001Z</time></trkpt><trkpt lat="43.30167537301413" lon="10.808664727122888"><ele>109.0</ele><time>2026-04-18T12:12:06Z</time></trkpt><trkpt lat="43.30158793872411" lon="10.80854526585123"><ele>108.2</ele><time>2026-04-18T12:12:07Z</time></trkpt><trkpt lat="43.30148658883149" lon="10.808437531966273"><ele>107.4</ele><time>2026-04-18T12:12:08Z</time></trkpt><trkpt lat="43.30138261576315" lon="10.808331292003885"><ele>106.6</ele><time>2026-04-18T12:12:09Z</time></trkpt><trkpt lat="43.30128806669084" lon="10.808269900314878"><ele>105.8</ele><time>2026-04-18T12:12:10Z</time></trkpt><trkpt lat="43.301216906455146" lon="10.808233848632321"><ele>105.0</ele><time>2026-04-18T12:12:11Z</time></trkpt><trkpt lat="43.30115350384949" lon="10.808219933758021"><ele>106.6</ele><time>2026-04-18T12:12:12Z</time></trkpt><trkpt lat="43.301107889834064" lon="10.808319644675167"><ele>108.2</ele><time>2026-04-18T12:12:13Z</time></trkpt><trkpt lat="43.301101827790546" lon="10.808423689297372"><ele>109.80000000000001</ele><time>2026-04-18T12:12:14Z</time></trkpt><trkpt lat="43.301135835755424" lon="10.808553650712131"><ele>111.4</ele><time>2026-04-18T12:12:15Z</time></trkpt><trkpt lat="43.30118039937694" lon="10.808718070319536"><ele>113.0</ele><time>2026-04-18T12:12:16Z</time></trkpt><trkpt lat="43.30120539705531" lon="10.808890997817173"><ele>115.0</ele><time>2026-04-18T12:12:17Z</time></trkpt><trkpt lat="43.30117849165344" lon="10.809018396798388"><ele>117.0</ele><time>2026-04-18T12:12:18Z</time></trkpt><trkpt lat="43.30111172134284" lon="10.809120519849422"><ele>119.0</ele><time>2026-04-18T12:12:19Z</time></trkpt><trkpt lat="43.30100169455495" lon="10.809219936333838"><ele>121.0</ele><time>2026-04-18T12:12:20Z</time></trkpt><trkpt lat="43.300871172102106" lon="10.8093240886923"><ele>119.66666666666667</ele><time>2026-04-18T12:12:21Z</time></trkpt><trkpt lat="43.30075224991362" lon="10.809444780889104"><ele>118.33333333333334</ele><time>2026-04-18T12:12:22Z</time></trkpt><trkpt lat="43.30062982837714" lon="10.80960088913114"><ele>117.0</ele><time>2026-04-18T12:12:23Z</time></trkpt><trkpt lat="43.3005228301748" lon="10.809747737662875"><ele>121.0</ele><time>2026-04-18T12:12:24Z</time></trkpt><trkpt lat="43.30045095466233" lon="10.809901155831488"><ele>125.0</ele><time>2026-04-18T12:12:25Z</time></trkpt><trkpt lat="43.30042777670071" lon="10.810094430063737"><ele>129.0</ele><time>2026-04-18T12:12:26Z</time></trkpt><trkpt lat="43.300408042621356" lon="10.810277935973287"><ele>133.0</ele><time>2026-04-18T12:12:27Z</time></trkpt><trkpt lat="43.30039528403035" lon="10.810463252920178"><ele>133.33333333333334</ele><time>2026-04-18T12:12:28Z</time></trkpt><trkpt lat="43.300411634430574" lon="10.810601781502095"><ele>133.66666666666669</ele><time>2026-04-18T12:12:29Z</time></trkpt><trkpt lat="43.300393745363316" lon="10.810711808246108"><ele>134.0</ele><time>2026-04-18T12:12:30Z</time></trkpt><trkpt lat="43.300333637857776" lon="10.810792348236708"><ele>134.33333333333334</ele><time>2026-04-18T12:12:31Z</time></trkpt><trkpt lat="43.30025421556661" lon="10.810809362067003"><ele>134.66666666666666</ele><time>2026-04-18T12:12:32Z</time></trkpt><trkpt lat="43.300193071371346" lon="10.810701325194167"><ele>135.0</ele><time>2026-04-18T12:12:33Z</time></trkpt><trkpt lat="43.300163239253635" lon="10.810585051665761"><ele>135.0</ele><time>2026-04-18T12:12:34Z</time></trkpt><trkpt lat="43.300098229049205" lon="10.81045366887292"><ele>135.0</ele><time>2026-04-18T12:12:35Z</time></trkpt><trkpt lat="43.300035489825405" lon="10.810289037195215"><ele>135.0</ele><time>2026-04-18T12:12:36Z</time></trkpt><trkpt lat="43.29996416777533" lon="10.810090705039487"><ele>135.0</ele><time>2026-04-18T12:12:37Z</time></trkpt><trkpt lat="43.29985471341853" lon="10.809927279499712"><ele>135.25</ele><time>2026-04-18T12:12:38Z</time></trkpt><trkpt lat="43.299781320532496" lon="10.809740850202507"><ele>135.5</ele><time>2026-04-18T12:12:39Z</time></trkpt><trkpt lat="43.29971750471604" lon="10.809539781720822"><ele>135.75</ele><time>2026-04-18T12:12:40Z</time></trkpt><trkpt lat="43.29966099638715" lon="10.809396241347336"><ele>136.0</ele><time>2026-04-18T12:12:41Z</time></trkpt><trkpt lat="43.29959741809267" lon="10.809290010965357"><ele>136.0</ele><time>2026-04-18T12:12:42Z</time></trkpt><trkpt lat="43.299475268028836" lon="10.809273658665886"><ele>136.0</ele><time>2026-04-18T12:12:43Z</time></trkpt><trkpt lat="43.29936509060315" lon="10.809282773825744"><ele>136.0</ele><time>2026-04-18T12:12:44Z</time></trkpt><trkpt lat="43.299257591399076" lon="10.809328009962963"><ele>136.0</ele><time>2026-04-18T12:12:45Z</time></trkpt><trkpt lat="43.299150324299816" lon="10.809381680383265"><ele>137.2</ele><time>2026-04-18T12:12:46Z</time></trkpt><trkpt lat="43.29903622676401" lon="10.809427820750079"><ele>138.39999999999998</ele><time>2026-04-18T12:12:47Z</time></trkpt><trkpt lat="43.29893027588889" lon="10.80944270618641"><ele>139.6</ele><time>2026-04-18T12:12:48Z</time></trkpt><trkpt lat="43.29882688450431" lon="10.809501675916623"><ele>140.79999999999998</ele><time>2026-04-18T12:12:49Z</time></trkpt><trkpt lat="43.29873235250389" lon="10.80953173112698"><ele>142.0</ele><time>2026-04-18T12:12:50Z</time></trkpt><trkpt lat="43.298642112127396" lon="10.80956125715926"><ele>142.16666666666669</ele><time>2026-04-18T12:12:51Z</time></trkpt><trkpt lat="43.298551214632525" lon="10.809596951566013"><ele>142.33333333333334</ele><time>2026-04-18T12:12:52Z</time></trkpt><trkpt lat="43.2984574167821" lon="10.809634617726429"><ele>142.5</ele><time>2026-04-18T12:12:53Z</time></trkpt><trkpt lat="43.298369930994276" lon="10.809672344478514"><ele>142.66666666666666</ele><time>2026-04-18T12:12:54Z</time></trkpt><trkpt lat="43.29829658712484" lon="10.809708606410044"><ele>142.83333333333331</ele><time>2026-04-18T12:12:55Z</time></trkpt><trkpt lat="43.29822634840203" lon="10.809743241821979"><ele>143.0</ele><time>2026-04-18T12:12:56Z</time></trkpt><trkpt lat="43.298153515664914" lon="10.809783296733782"><ele>142.8</ele><time>2026-04-18T12:12:57Z</time></trkpt><trkpt lat="43.298072721375355" lon="10.809828980734235"><ele>142.60000000000002</ele><time>2026-04-18T12:12:58Z</time></trkpt><trkpt lat="43.297981015470995" lon="10.809877522974329"><ele>142.39999999999998</ele><time>2026-04-18T12:12:59Z</time></trkpt><trkpt lat="43.29787845443975" lon="10.809928277675484"><ele>142.2</ele><time>2026-04-18T12:13:00Z</time></trkpt><trkpt lat="43.2977675178982" lon="10.80998555372255"><ele>142.0</ele><time>2026-04-18T12:13:01Z</time></trkpt><trkpt lat="43.297652925891676" lon="10.810050130286134"><ele>142.0</ele><time>2026-04-18T12:13:02Z</time></trkpt><trkpt lat="43.29752594131557" lon="10.810118821124808"><ele>142.0</ele><time>2026-04-18T12:13:03Z</time></trkpt><trkpt lat="43.29738217252595" lon="10.810190429070987"><ele>142.0</ele><time>2026-04-18T12:13:04Z</time></trkpt><trkpt lat="43.297244263241836" lon="10.810259497281747"><ele>142.0</ele><time>2026-04-18T12:13:05Z</time></trkpt><trkpt lat="43.297114828968574" lon="10.810326511983092"><ele>143.75</ele><time>2026-04-18T12:13:06Z</time></trkpt><trkpt lat="43.29699349819504" lon="10.810389935647649"><ele>145.5</ele><time>2026-04-18T12:13:07Z</time></trkpt><trkpt lat="43.29686103448633" lon="10.81046160093385"><ele>147.25</ele><time>2026-04-18T12:13:08Z</time></trkpt><trkpt lat="43.296728463133014" lon="10.810534603974318"><ele>149.0</ele><time>2026-04-18T12:13:09Z</time></trkpt><trkpt lat="43.2965893178786" lon="10.810611008045553"><ele>149.0</ele><time>2026-04-18T12:13:10Z</time></trkpt><trkpt lat="43.296455429802705" lon="10.810688201634346"><ele>149.0</ele><time>2026-04-18T12:13:11Z</time></trkpt><trkpt lat="43.2963285291538" lon="10.810757381619387"><ele>149.0</ele><time>2026-04-18T12:13:12Z</time></trkpt><trkpt lat="43.29619948515366" lon="10.810824262434224"><ele>149.0</ele><time>2026-04-18T12:13:13Z</time></trkpt><trkpt lat="43.29607364158803" lon="10.81088592623866"><ele>149.0</ele><time>2026-04-18T12:13:14Z</time></trkpt><trkpt lat="43.295938685832766" lon="10.810942069814054"><ele>149.0</ele><time>2026-04-18T12:13:15Z</time></trkpt><trkpt lat="43.29579810390951" lon="10.810983681618936"><ele>149.0</ele><time>2026-04-18T12:13:16Z</time></trkpt><trkpt lat="43.29565304397947" lon="10.810981661812612"><ele>149.0</ele><time>2026-04-18T12:13:17Z</time></trkpt><trkpt lat="43.29550429411734" lon="10.810974135497982"><ele>149.66666666666666</ele><time>2026-04-18T12:13:18Z</time></trkpt><trkpt lat="43.2953420400285" lon="10.810961640617505"><ele>150.33333333333334</ele><time>2026-04-18T12:13:19Z</time></trkpt><trkpt lat="43.2951835749567" lon="10.810969138010146"><ele>151.0</ele><time>2026-04-18T12:13:20Z</time></trkpt><trkpt lat="43.29502559219217" lon="10.81095655874164"><ele>151.0</ele><time>2026-04-18T12:13:21Z</time></trkpt><trkpt lat="43.29487168831669" lon="10.810947771057297"><ele>151.0</ele><time>2026-04-18T12:13:22Z</time></trkpt><trkpt lat="43.294708634950204" lon="10.810931452290886"><ele>151.0</ele><time>2026-04-18T12:13:23Z</time></trkpt><trkpt lat="43.294553471968875" lon="10.810891064341602"><ele>151.0</ele><time>2026-04-18T12:13:24Z</time></trkpt><trkpt lat="43.294389896229504" lon="10.810877872476315"><ele>151.0</ele><time>2026-04-18T12:13:25Z</time></trkpt><trkpt lat="43.29424018218728" lon="10.81091507724779"><ele>151.0</ele><time>2026-04-18T12:13:26Z</time></trkpt><trkpt lat="43.29409639546878" lon="10.810967034881518"><ele>150.25</ele><time>2026-04-18T12:13:27Z</time></trkpt><trkpt lat="43.29397416108991" lon="10.81106585605863"><ele>149.5</ele><time>2026-04-18T12:13:28Z</time></trkpt><trkpt lat="43.29387596689765" lon="10.811184809185368"><ele>148.75</ele><time>2026-04-18T12:13:29Z</time></trkpt><trkpt lat="43.293767688571975" lon="10.811301245968357"><ele>148.0</ele><time>2026-04-18T12:13:30Z</time></trkpt><trkpt lat="43.2936640596288" lon="10.811335338103506"><ele>150.75</ele><time>2026-04-18T12:13:31Z</time></trkpt><trkpt lat="43.29356540843463" lon="10.811247569869673"><ele>153.5</ele><time>2026-04-18T12:13:32Z</time></trkpt><trkpt lat="43.29346793784474" lon="10.811159847123962"><ele>156.25</ele><time>2026-04-18T12:13:33Z</time></trkpt><trkpt lat="43.293348503939264" lon="10.81106881932838"><ele>159.0</ele><time>2026-04-18T12:13:34Z</time></trkpt><trkpt lat="43.29321028282676" lon="10.810998701589003"><ele>162.66666666666666</ele><time>2026-04-18T12:13:35Z</time></trkpt><trkpt lat="43.293056678099894" lon="10.810953785801441"><ele>166.33333333333331</ele><time>2026-04-18T12:13:36Z</time></trkpt><trkpt lat="43.29289447713158" lon="10.810895798865463"><ele>170.0</ele><time>2026-04-18T12:13:37.001Z</time></trkpt><trkpt lat="43.29276930759209" lon="10.810826776069044"><ele>170.0</ele><time>2026-04-18T12:13:38.001Z</time></trkpt><trkpt lat="43.29264178372914" lon="10.810777347080112"><ele>170.0</ele><time>2026-04-18T12:13:39.001Z</time></trkpt><trkpt lat="43.29250831110735" lon="10.810763516473925"><ele>170.0</ele><time>2026-04-18T12:13:40.001Z</time></trkpt><trkpt lat="43.2923744052413" lon="10.810743164318573"><ele>170.0</ele><time>2026-04-18T12:13:41.001Z</time></trkpt><trkpt lat="43.29221807795058" lon="10.810746997190021"><ele>172.5</ele><time>2026-04-18T12:13:42.001Z</time></trkpt><trkpt lat="43.292060779938126" lon="10.810745461028628"><ele>175.0</ele><time>2026-04-18T12:13:43.001Z</time></trkpt><trkpt lat="43.29190908854186" lon="10.810729304335272"><ele>177.5</ele><time>2026-04-18T12:13:44.001Z</time></trkpt><trkpt lat="43.291780297079846" lon="10.81071081490444"><ele>180.0</ele><time>2026-04-18T12:13:45.001Z</time></trkpt><trkpt lat="43.291678011922976" lon="10.810646693495322"><ele>180.0</ele><time>2026-04-18T12:13:46.001Z</time></trkpt><trkpt lat="43.29159638626821" lon="10.81056957526543"><ele>180.0</ele><time>2026-04-18T12:13:47.001Z</time></trkpt><trkpt lat="43.29153540857773" lon="10.810461250152906"><ele>180.0</ele><time>2026-04-18T12:13:48.001Z</time></trkpt><trkpt lat="43.29147164701125" lon="10.810332563420923"><ele>180.0</ele><time>2026-04-18T12:13:49.001Z</time></trkpt><trkpt lat="43.291392839070305" lon="10.810168491267815"><ele>182.5</ele><time>2026-04-18T12:13:50.001Z</time></trkpt><trkpt lat="43.29130439902142" lon="10.809993678752743"><ele>185.0</ele><time>2026-04-18T12:13:51.001Z</time></trkpt><trkpt lat="43.29119177511835" lon="10.809844548828645"><ele>187.5</ele><time>2026-04-18T12:13:52.001Z</time></trkpt><trkpt lat="43.29111883870263" lon="10.809698069049105"><ele>190.0</ele><time>2026-04-18T12:13:53.001Z</time></trkpt><trkpt lat="43.29111296354028" lon="10.80956705055394"><ele>190.0</ele><time>2026-04-18T12:13:54.001Z</time></trkpt><trkpt lat="43.29108770119419" lon="10.809404280466401"><ele>190.0</ele><time>2026-04-18T12:13:55.001Z</time></trkpt><trkpt lat="43.29106650241084" lon="10.809229596464196"><ele>190.0</ele><time>2026-04-18T12:13:56.001Z</time></trkpt><trkpt lat="43.29106683303861" lon="10.809074007495775"><ele>190.0</ele><time>2026-04-18T12:13:57.001Z</time></trkpt><trkpt lat="43.29110591632198" lon="10.808949652007728"><ele>190.25</ele><time>2026-04-18T12:13:58.001Z</time></trkpt><trkpt lat="43.291141731333646" lon="10.80880474026302"><ele>190.5</ele><time>2026-04-18T12:13:59.001Z</time></trkpt><trkpt lat="43.291187208536286" lon="10.808653699143909"><ele>190.75</ele><time>2026-04-18T12:14:00.001Z</time></trkpt><trkpt lat="43.291252690646886" lon="10.808540846002638"><ele>191.0</ele><time>2026-04-18T12:14:01.001Z</time></trkpt><trkpt lat="43.29133607400577" lon="10.808415843098846"><ele>192.25</ele><time>2026-04-18T12:14:02.001Z</time></trkpt><trkpt lat="43.291381847898066" lon="10.808296435562594"><ele>193.5</ele><time>2026-04-18T12:14:03.001Z</time></trkpt><trkpt lat="43.291355669386" lon="10.808136182654296"><ele>194.75</ele><time>2026-04-18T12:14:04.001Z</time></trkpt><trkpt lat="43.29130720167461" lon="10.807988452764778"><ele>196.0</ele><time>2026-04-18T12:14:05.001Z</time></trkpt><trkpt lat="43.2912646827572" lon="10.80782287495663"><ele>197.0</ele><time>2026-04-18T12:14:06.001Z</time></trkpt><trkpt lat="43.29123406310475" lon="10.80765398023771"><ele>198.0</ele><time>2026-04-18T12:14:07.001Z</time></trkpt><trkpt lat="43.29120505000182" lon="10.80745831420686"><ele>199.0</ele><time>2026-04-18T12:14:08.001Z</time></trkpt><trkpt lat="43.29117327574131" lon="10.807252556927574"><ele>200.0</ele><time>2026-04-18T12:14:09.001Z</time></trkpt><trkpt lat="43.29113998464285" lon="10.80705487116138"><ele>200.0</ele><time>2026-04-18T12:14:10.001Z</time></trkpt><trkpt lat="43.291099608561716" lon="10.806864691927839"><ele>200.0</ele><time>2026-04-18T12:14:11.001Z</time></trkpt><trkpt lat="43.29103965152136" lon="10.806703988804763"><ele>200.0</ele><time>2026-04-18T12:14:12Z</time></trkpt><trkpt lat="43.29095279291006" lon="10.806601702124555"><ele>200.0</ele><time>2026-04-18T12:14:13Z</time></trkpt><trkpt lat="43.290881980758016" lon="10.80651334188979"><ele>199.66666666666669</ele><time>2026-04-18T12:14:14Z</time></trkpt><trkpt lat="43.290831295018464" lon="10.806436052527921"><ele>199.33333333333334</ele><time>2026-04-18T12:14:15Z</time></trkpt><trkpt lat="43.290752632598306" lon="10.806436198997357"><ele>199.0</ele><time>2026-04-18T12:14:17Z</time></trkpt><trkpt lat="43.29068969462587" lon="10.806446051479249"><ele>198.66666666666669</ele><time>2026-04-18T12:14:22Z</time></trkpt><trkpt lat="43.29062521300363" lon="10.806543472368354"><ele>198.33333333333334</ele><time>2026-04-18T12:15:57.001Z</time></trkpt><trkpt lat="43.29062795483845" lon="10.806683095914233"><ele>198.0</ele><time>2026-04-18T12:15:59.001Z</time></trkpt><trkpt lat="43.2906377083769" lon="10.806787148183147"><ele>198.4</ele><time>2026-04-18T12:16:00.001Z</time></trkpt><trkpt lat="43.29064902887894" lon="10.806897735707125"><ele>198.8</ele><time>2026-04-18T12:16:01.001Z</time></trkpt><trkpt lat="43.29065862470329" lon="10.807035824603648"><ele>199.2</ele><time>2026-04-18T12:16:02.001Z</time></trkpt><trkpt lat="43.290650388070866" lon="10.807196524728703"><ele>199.6</ele><time>2026-04-18T12:16:03.001Z</time></trkpt><trkpt lat="43.29063281473496" lon="10.807367243992598"><ele>200.0</ele><time>2026-04-18T12:16:04.001Z</time></trkpt><trkpt lat="43.29060965166443" lon="10.807536631445098"><ele>203.5</ele><time>2026-04-18T12:16:05.001Z</time></trkpt><trkpt lat="43.29058056823911" lon="10.80770745814995"><ele>207.0</ele><time>2026-04-18T12:16:06.001Z</time></trkpt><trkpt lat="43.29054461388806" lon="10.807877187106218"><ele>210.5</ele><time>2026-04-18T12:16:07.001Z</time></trkpt><trkpt lat="43.290498927199685" lon="10.80802395468267"><ele>214.0</ele><time>2026-04-18T12:16:08.001Z</time></trkpt><trkpt lat="43.29043777122375" lon="10.808148152665229"><ele>214.0</ele><time>2026-04-18T12:16:09.001Z</time></trkpt><trkpt lat="43.29037097259821" lon="10.808251691930694"><ele>213.99999999999997</ele><time>2026-04-18T12:16:10.001Z</time></trkpt><trkpt lat="43.29028817208094" lon="10.808345451862817"><ele>213.99999999999997</ele><time>2026-04-18T12:16:11.001Z</time></trkpt><trkpt lat="43.29019758005298" lon="10.808448478454956"><ele>214.0</ele><time>2026-04-18T12:16:12.001Z</time></trkpt><trkpt lat="43.29011176475319" lon="10.808567844448724"><ele>214.0</ele><time>2026-04-18T12:16:13.001Z</time></trkpt><trkpt lat="43.29004586912506" lon="10.808710720587177"><ele>213.75</ele><time>2026-04-18T12:16:14.001Z</time></trkpt><trkpt lat="43.29000785645948" lon="10.808878174150838"><ele>213.5</ele><time>2026-04-18T12:16:15.001Z</time></trkpt><trkpt lat="43.28999143754172" lon="10.809045900654114"><ele>213.25</ele><time>2026-04-18T12:16:16.001Z</time></trkpt><trkpt lat="43.289974863960644" lon="10.8092066417476"><ele>213.0</ele><time>2026-04-18T12:16:17.001Z</time></trkpt><trkpt lat="43.28994462981685" lon="10.809356375839734"><ele>212.2</ele><time>2026-04-18T12:16:18Z</time></trkpt><trkpt lat="43.28989871329874" lon="10.809478166450317"><ele>211.4</ele><time>2026-04-18T12:16:19Z</time></trkpt><trkpt lat="43.28983243399907" lon="10.809555494811791"><ele>210.6</ele><time>2026-04-18T12:16:20Z</time></trkpt><trkpt lat="43.28973694131759" lon="10.80956852163872"><ele>209.79999999999998</ele><time>2026-04-18T12:16:21Z</time></trkpt><trkpt lat="43.289645549488775" lon="10.80964464840316"><ele>209.0</ele><time>2026-04-18T12:16:22Z</time></trkpt><trkpt lat="43.28954905379643" lon="10.809742604862292"><ele>213.5</ele><time>2026-04-18T12:16:23Z</time></trkpt><trkpt lat="43.28945718357269" lon="10.809880867560448"><ele>218.0</ele><time>2026-04-18T12:16:24Z</time></trkpt><trkpt lat="43.28937787068125" lon="10.810047426204878"><ele>222.5</ele><time>2026-04-18T12:16:25Z</time></trkpt><trkpt lat="43.28930753685933" lon="10.810190145902475"><ele>227.0</ele><time>2026-04-18T12:16:26Z</time></trkpt><trkpt lat="43.28928358582639" lon="10.810335308778942"><ele>227.0</ele><time>2026-04-18T12:16:27Z</time></trkpt><trkpt lat="43.28931199285465" lon="10.810474034492488"><ele>227.0</ele><time>2026-04-18T12:16:28Z</time></trkpt><trkpt lat="43.28935661187391" lon="10.810624220706874"><ele>227.0</ele><time>2026-04-18T12:16:29Z</time></trkpt><trkpt lat="43.2893702109838" lon="10.810789196368619"><ele>227.0</ele><time>2026-04-18T12:16:30Z</time></trkpt><trkpt lat="43.289317300847856" lon="10.810944975501735"><ele>226.75</ele><time>2026-04-18T12:16:31Z</time></trkpt><trkpt lat="43.289253265881186" lon="10.81111378356244"><ele>226.5</ele><time>2026-04-18T12:16:32Z</time></trkpt><trkpt lat="43.28920020400146" lon="10.811297729592107"><ele>226.25</ele><time>2026-04-18T12:16:33Z</time></trkpt><trkpt lat="43.289132931799536" lon="10.81147706522889"><ele>226.0</ele><time>2026-04-18T12:16:34Z</time></trkpt><trkpt lat="43.289070989595736" lon="10.811625572430954"><ele>226.0</ele><time>2026-04-18T12:16:35Z</time></trkpt><trkpt lat="43.289016921479146" lon="10.811735854715907"><ele>226.00000000000003</ele><time>2026-04-18T12:16:36Z</time></trkpt><trkpt lat="43.28895906704963" lon="10.811790630814672"><ele>226.00000000000003</ele><time>2026-04-18T12:16:37Z</time></trkpt><trkpt lat="43.28883665771704" lon="10.811738894963565"><ele>226.0</ele><time>2026-04-18T12:16:39Z</time></trkpt><trkpt lat="43.28884483386834" lon="10.81160964949185"><ele>226.0</ele><time>2026-04-18T12:16:40Z</time></trkpt><trkpt lat="43.28889316491232" lon="10.81150836270807"><ele>226.0</ele><time>2026-04-18T12:16:41Z</time></trkpt><trkpt lat="43.28892337308206" lon="10.811340908848196"><ele>226.0</ele><time>2026-04-18T12:16:42Z</time></trkpt><trkpt lat="43.288941218463044" lon="10.81116199740464"><ele>226.0</ele><time>2026-04-18T12:16:43Z</time></trkpt><trkpt lat="43.28891808063331" lon="10.810975066291546"><ele>226.0</ele><time>2026-04-18T12:16:44Z</time></trkpt><trkpt lat="43.28886120154034" lon="10.810793287859465"><ele>231.33333333333331</ele><time>2026-04-18T12:16:45Z</time></trkpt><trkpt lat="43.288823853537856" lon="10.810598293686626"><ele>236.66666666666669</ele><time>2026-04-18T12:16:46Z</time></trkpt><trkpt lat="43.28877143734577" lon="10.810389637310454"><ele>242.0</ele><time>2026-04-18T12:16:47Z</time></trkpt><trkpt lat="43.288729309215526" lon="10.81018677773847"><ele>243.25</ele><time>2026-04-18T12:16:48Z</time></trkpt><trkpt lat="43.28871756513783" lon="10.810010881452357"><ele>244.5</ele><time>2026-04-18T12:16:49Z</time></trkpt><trkpt lat="43.28874373200345" lon="10.809825414523532"><ele>245.75</ele><time>2026-04-18T12:16:50Z</time></trkpt><trkpt lat="43.2887762973516" lon="10.809626304976684"><ele>247.0</ele><time>2026-04-18T12:16:51Z</time></trkpt><trkpt lat="43.28878265975911" lon="10.809436081485865"><ele>247.83333333333331</ele><time>2026-04-18T12:16:52Z</time></trkpt><trkpt lat="43.28878796779325" lon="10.80927303417535"><ele>248.66666666666666</ele><time>2026-04-18T12:16:53Z</time></trkpt><trkpt lat="43.288791875690464" lon="10.809135632137108"><ele>249.5</ele><time>2026-04-18T12:16:54Z</time></trkpt><trkpt lat="43.288760501253236" lon="10.809039925828886"><ele>250.33333333333331</ele><time>2026-04-18T12:16:55Z</time></trkpt><trkpt lat="43.28871421505561" lon="10.808966376430233"><ele>251.16666666666666</ele><time>2026-04-18T12:17:00Z</time></trkpt><trkpt lat="43.288634882149346" lon="10.80897175319599"><ele>252.0</ele><time>2026-04-18T12:17:15Z</time></trkpt><trkpt lat="43.2885427366898" lon="10.809073391471264"><ele>252.0</ele><time>2026-04-18T12:17:17Z</time></trkpt><trkpt lat="43.2885155305535" lon="10.809178459708066"><ele>252.0</ele><time>2026-04-18T12:17:18Z</time></trkpt><trkpt lat="43.28849459140608" lon="10.809284793122641"><ele>252.0</ele><time>2026-04-18T12:17:19Z</time></trkpt><trkpt lat="43.28847367666265" lon="10.809386746136108"><ele>252.0</ele><time>2026-04-18T12:17:20Z</time></trkpt><trkpt lat="43.28844279763709" lon="10.80950243421988"><ele>252.0</ele><time>2026-04-18T12:17:21Z</time></trkpt><trkpt lat="43.288403805305315" lon="10.809646272567933"><ele>252.0</ele><time>2026-04-18T12:17:22Z</time></trkpt><trkpt lat="43.28836720226184" lon="10.809805116698918"><ele>250.75</ele><time>2026-04-18T12:17:23Z</time></trkpt><trkpt lat="43.28832124545193" lon="10.80999284695417"><ele>249.5</ele><time>2026-04-18T12:17:24Z</time></trkpt><trkpt lat="43.28829363162034" lon="10.810203265283672"><ele>248.25</ele><time>2026-04-18T12:17:25Z</time></trkpt><trkpt lat="43.28827549301847" lon="10.810402415668232"><ele>247.0</ele><time>2026-04-18T12:17:26Z</time></trkpt><trkpt lat="43.28827318934922" lon="10.810578799499844"><ele>245.75</ele><time>2026-04-18T12:17:27Z</time></trkpt><trkpt lat="43.28826863678424" lon="10.81072338192708"><ele>244.5</ele><time>2026-04-18T12:17:28.001Z</time></trkpt><trkpt lat="43.28825952325564" lon="10.81087776145077"><ele>243.25</ele><time>2026-04-18T12:17:29.001Z</time></trkpt><trkpt lat="43.288231957888065" lon="10.811037093093631"><ele>242.0</ele><time>2026-04-18T12:17:30.001Z</time></trkpt><trkpt lat="43.28817199266919" lon="10.811183773470862"><ele>244.0</ele><time>2026-04-18T12:17:31.001Z</time></trkpt><trkpt lat="43.28808992468337" lon="10.811311886936688"><ele>246.0</ele><time>2026-04-18T12:17:32.001Z</time></trkpt><trkpt lat="43.287969824346796" lon="10.811402595136624"><ele>248.0</ele><time>2026-04-18T12:17:33.001Z</time></trkpt><trkpt lat="43.28784602721871" lon="10.81151609593595"><ele>250.0</ele><time>2026-04-18T12:17:34.001Z</time></trkpt><trkpt lat="43.28774723045864" lon="10.811621892616174"><ele>250.0</ele><time>2026-04-18T12:17:35.001Z</time></trkpt><trkpt lat="43.287642455291234" lon="10.811693871202664"><ele>250.0</ele><time>2026-04-18T12:17:36.001Z</time></trkpt><trkpt lat="43.28753060440236" lon="10.811714236077444"><ele>250.0</ele><time>2026-04-18T12:17:37.001Z</time></trkpt><trkpt lat="43.28743258697429" lon="10.811739911863404"><ele>250.0</ele><time>2026-04-18T12:17:38.001Z</time></trkpt><trkpt lat="43.287324411391424" lon="10.811785152154219"><ele>250.0</ele><time>2026-04-18T12:17:39.001Z</time></trkpt><trkpt lat="43.287197532680885" lon="10.811846851322713"><ele>252.8</ele><time>2026-04-18T12:17:40.001Z</time></trkpt><trkpt lat="43.287083820473256" lon="10.81194272133976"><ele>255.6</ele><time>2026-04-18T12:17:41.001Z</time></trkpt><trkpt lat="43.28700265254038" lon="10.812034299938153"><ele>258.4</ele><time>2026-04-18T12:17:42.001Z</time></trkpt><trkpt lat="43.286937019636326" lon="10.812117251628505"><ele>261.2</ele><time>2026-04-18T12:17:43.001Z</time></trkpt><trkpt lat="43.286880736634444" lon="10.812217037830798"><ele>264.0</ele><time>2026-04-18T12:17:44.001Z</time></trkpt><trkpt lat="43.28683896467197" lon="10.812357939413454"><ele>264.0</ele><time>2026-04-18T12:17:45.001Z</time></trkpt><trkpt lat="43.28683349350856" lon="10.812524808714612"><ele>264.0</ele><time>2026-04-18T12:17:46.001Z</time></trkpt><trkpt lat="43.28687655946972" lon="10.812701475333736"><ele>264.0</ele><time>2026-04-18T12:17:47.001Z</time></trkpt><trkpt lat="43.286921850910296" lon="10.812887666394372"><ele>264.0</ele><time>2026-04-18T12:17:48.001Z</time></trkpt><trkpt lat="43.28698499086007" lon="10.813069616310159"><ele>263.4</ele><time>2026-04-18T12:17:49.001Z</time></trkpt><trkpt lat="43.28700909954881" lon="10.8132171778649"><ele>262.79999999999995</ele><time>2026-04-18T12:17:50.001Z</time></trkpt><trkpt lat="43.28698893325833" lon="10.8133404933755"><ele>262.20000000000005</ele><time>2026-04-18T12:17:51.001Z</time></trkpt><trkpt lat="43.286939074929755" lon="10.813444318720071"><ele>261.6</ele><time>2026-04-18T12:17:52.001Z</time></trkpt><trkpt lat="43.28685658926914" lon="10.813547132655062"><ele>261.0</ele><time>2026-04-18T12:17:53.001Z</time></trkpt><trkpt lat="43.28675447792384" lon="10.81365722146247"><ele>259.0</ele><time>2026-04-18T12:17:54.001Z</time></trkpt><trkpt lat="43.28663660826275" lon="10.813781037940831"><ele>257.0</ele><time>2026-04-18T12:17:55.001Z</time></trkpt><trkpt lat="43.28650829050528" lon="10.813894986545675"><ele>255.0</ele><time>2026-04-18T12:17:56.001Z</time></trkpt><trkpt lat="43.2863796398671" lon="10.814009575403832"><ele>257.75</ele><time>2026-04-18T12:17:57.001Z</time></trkpt><trkpt lat="43.28628632468348" lon="10.814136195378332"><ele>260.5</ele><time>2026-04-18T12:17:58.001Z</time></trkpt><trkpt lat="43.286230270903005" lon="10.814301182585597"><ele>263.25</ele><time>2026-04-18T12:17:59.001Z</time></trkpt><trkpt lat="43.28618765891227" lon="10.814478316399557"><ele>266.0</ele><time>2026-04-18T12:18:00.001Z</time></trkpt><trkpt lat="43.28612291794061" lon="10.814647192330199"><ele>266.0</ele><time>2026-04-18T12:18:01.001Z</time></trkpt><trkpt lat="43.286039620644814" lon="10.814731730309143"><ele>266.0</ele><time>2026-04-18T12:18:02.001Z</time></trkpt><trkpt lat="43.28592237009038" lon="10.814768086186492"><ele>266.0</ele><time>2026-04-18T12:18:03.001Z</time></trkpt><trkpt lat="43.28578578928135" lon="10.814801715429835"><ele>266.0</ele><time>2026-04-18T12:18:04.001Z</time></trkpt><trkpt lat="43.2856266469535" lon="10.814844879636535"><ele>267.5</ele><time>2026-04-18T12:18:05.001Z</time></trkpt><trkpt lat="43.28548308555569" lon="10.814897146477476"><ele>269.0</ele><time>2026-04-18T12:18:06.001Z</time></trkpt><trkpt lat="43.28535511778738" lon="10.814977009995227"><ele>270.5</ele><time>2026-04-18T12:18:07.001Z</time></trkpt><trkpt lat="43.28523899539241" lon="10.815093402420787"><ele>272.0</ele><time>2026-04-18T12:18:08.001Z</time></trkpt><trkpt lat="43.285129290749595" lon="10.81523489179658"><ele>272.0</ele><time>2026-04-18T12:18:09.001Z</time></trkpt><trkpt lat="43.2850146403609" lon="10.815373259569354"><ele>272.0</ele><time>2026-04-18T12:18:10.001Z</time></trkpt><trkpt lat="43.284913828960015" lon="10.815496650122228"><ele>272.0</ele><time>2026-04-18T12:18:11.001Z</time></trkpt><trkpt lat="43.2848233072252" lon="10.815606827043464"><ele>272.0</ele><time>2026-04-18T12:18:12.001Z</time></trkpt><trkpt lat="43.28473962504397" lon="10.815704326768968"><ele>273.5</ele><time>2026-04-18T12:18:13.001Z</time></trkpt><trkpt lat="43.28466107286046" lon="10.815787288582102"><ele>275.0</ele><time>2026-04-18T12:18:14.001Z</time></trkpt><trkpt lat="43.28458523998453" lon="10.8158517578227"><ele>276.5</ele><time>2026-04-18T12:18:15.001Z</time></trkpt><trkpt lat="43.284511637970915" lon="10.815907119215252"><ele>278.0</ele><time>2026-04-18T12:18:16.001Z</time></trkpt><trkpt lat="43.2844365343786" lon="10.81595034161287"><ele>279.5</ele><time>2026-04-18T12:18:17.001Z</time></trkpt><trkpt lat="43.284365166167746" lon="10.81595205154525"><ele>281.0</ele><time>2026-04-18T12:18:18.001Z</time></trkpt><trkpt lat="43.28432196015223" lon="10.815838633858782"><ele>281.0</ele><time>2026-04-18T12:18:19.001Z</time></trkpt><trkpt lat="43.28428058675351" lon="10.815741610338174"><ele>281.0</ele><time>2026-04-18T12:18:20.001Z</time></trkpt><trkpt lat="43.28420860417642" lon="10.815631760140791"><ele>281.0</ele><time>2026-04-18T12:18:21.001Z</time></trkpt><trkpt lat="43.28411741825153" lon="10.815500592724314"><ele>281.0</ele><time>2026-04-18T12:18:22.001Z</time></trkpt><trkpt lat="43.284018068102384" lon="10.815360973632856"><ele>280.5</ele><time>2026-04-18T12:18:23.001Z</time></trkpt><trkpt lat="43.28391750744463" lon="10.815224598190596"><ele>280.0</ele><time>2026-04-18T12:18:24Z</time></trkpt><trkpt lat="43.28380279001023" lon="10.81516689372074"><ele>279.5</ele><time>2026-04-18T12:18:25Z</time></trkpt><trkpt lat="43.28369740641967" lon="10.815146416443376"><ele>279.0</ele><time>2026-04-18T12:18:26Z</time></trkpt><trkpt lat="43.283582142619814" lon="10.815171616357118"><ele>279.0</ele><time>2026-04-18T12:18:27Z</time></trkpt><trkpt lat="43.2834648947784" lon="10.815225065562345"><ele>279.0</ele><time>2026-04-18T12:18:28Z</time></trkpt><trkpt lat="43.28335029531178" lon="10.815287094667557"><ele>279.0</ele><time>2026-04-18T12:18:29Z</time></trkpt><trkpt lat="43.28324154373109" lon="10.815329455154954"><ele>279.0</ele><time>2026-04-18T12:18:30Z</time></trkpt><trkpt lat="43.28316106100914" lon="10.81532302561643"><ele>279.0</ele><time>2026-04-18T12:18:31Z</time></trkpt><trkpt lat="43.283106494631866" lon="10.815179586679255"><ele>282.25</ele><time>2026-04-18T12:18:33Z</time></trkpt><trkpt lat="43.2831411809463" lon="10.815088952073413"><ele>285.5</ele><time>2026-04-18T12:18:34Z</time></trkpt><trkpt lat="43.283246829283605" lon="10.81503563606536"><ele>288.75</ele><time>2026-04-18T12:18:35Z</time></trkpt><trkpt lat="43.28334709138578" lon="10.814943210130112"><ele>292.0</ele><time>2026-04-18T12:18:36Z</time></trkpt><trkpt lat="43.28346002299854" lon="10.814771238823136"><ele>292.0</ele><time>2026-04-18T12:18:37Z</time></trkpt><trkpt lat="43.28360058460503" lon="10.814609733651391"><ele>292.0</ele><time>2026-04-18T12:18:38Z</time></trkpt><trkpt lat="43.2837357283867" lon="10.814484354154462"><ele>292.0</ele><time>2026-04-18T12:18:39Z</time></trkpt><trkpt lat="43.28387921359772" lon="10.81437897124812"><ele>291.25</ele><time>2026-04-18T12:18:40Z</time></trkpt><trkpt lat="43.2840304973683" lon="10.814338658076284"><ele>290.5</ele><time>2026-04-18T12:18:41Z</time></trkpt><trkpt lat="43.28414194462146" lon="10.814248210779729"><ele>289.75</ele><time>2026-04-18T12:18:42Z</time></trkpt><trkpt lat="43.28422445272143" lon="10.81413819067061"><ele>289.0</ele><time>2026-04-18T12:18:43Z</time></trkpt><trkpt lat="43.28429560289701" lon="10.813974611933201"><ele>291.0</ele><time>2026-04-18T12:18:44Z</time></trkpt><trkpt lat="43.284369852010954" lon="10.813788486420263"><ele>293.0</ele><time>2026-04-18T12:18:45Z</time></trkpt><trkpt lat="43.284423685258794" lon="10.813596427841604"><ele>295.0</ele><time>2026-04-18T12:18:46Z</time></trkpt><trkpt lat="43.28442906687419" lon="10.813401815044353"><ele>297.0</ele><time>2026-04-18T12:18:47Z</time></trkpt><trkpt lat="43.28442042735515" lon="10.8132141066019"><ele>299.5</ele><time>2026-04-18T12:18:48Z</time></trkpt><trkpt lat="43.28441111193365" lon="10.813022467952074"><ele>302.0</ele><time>2026-04-18T12:18:49Z</time></trkpt><trkpt lat="43.2844054712247" lon="10.812846160532315"><ele>304.5</ele><time>2026-04-18T12:18:50Z</time></trkpt><trkpt lat="43.2844196404584" lon="10.812713721428317"><ele>307.0</ele><time>2026-04-18T12:18:51Z</time></trkpt><trkpt lat="43.284456984424764" lon="10.81259505512432"><ele>311.5</ele><time>2026-04-18T12:18:52Z</time></trkpt><trkpt lat="43.28451003091274" lon="10.812450248058266"><ele>316.0</ele><time>2026-04-18T12:18:53Z</time></trkpt><trkpt lat="43.284582081240906" lon="10.812278117196254"><ele>320.5</ele><time>2026-04-18T12:18:54Z</time></trkpt><trkpt lat="43.28462065932519" lon="10.812098188615856"><ele>325.0</ele><time>2026-04-18T12:18:55Z</time></trkpt><trkpt lat="43.28462900717687" lon="10.811925787856552"><ele>319.5</ele><time>2026-04-18T12:18:56Z</time></trkpt><trkpt lat="43.2846391797852" lon="10.811748720413515"><ele>314.0</ele><time>2026-04-18T12:18:57Z</time></trkpt><trkpt lat="43.28467009775144" lon="10.811573207599102"><ele>308.5</ele><time>2026-04-18T12:18:58Z</time></trkpt><trkpt lat="43.28473106580742" lon="10.811342543533321"><ele>303.0</ele><time>2026-04-18T12:18:59Z</time></trkpt><trkpt lat="43.2847813306759" lon="10.81112186137012"><ele>306.5</ele><time>2026-04-18T12:19:00Z</time></trkpt><trkpt lat="43.28483363760128" lon="10.8109101985046"><ele>310.0</ele><time>2026-04-18T12:19:01Z</time></trkpt><trkpt lat="43.28488663153311" lon="10.81074794323878"><ele>313.5</ele><time>2026-04-18T12:19:02Z</time></trkpt><trkpt lat="43.28496232563527" lon="10.81061019224448"><ele>317.0</ele><time>2026-04-18T12:19:03Z</time></trkpt><trkpt lat="43.28503658559982" lon="10.810461525766025"><ele>317.0</ele><time>2026-04-18T12:19:04Z</time></trkpt><trkpt lat="43.285087457308535" lon="10.810326184729247"><ele>317.0</ele><time>2026-04-18T12:19:05Z</time></trkpt><trkpt lat="43.2851429822912" lon="10.810185184543382"><ele>317.0</ele><time>2026-04-18T12:19:06Z</time></trkpt><trkpt lat="43.28517906665371" lon="10.810014178061396"><ele>317.0</ele><time>2026-04-18T12:19:07Z</time></trkpt><trkpt lat="43.285199579525454" lon="10.809819960936506"><ele>322.0</ele><time>2026-04-18T12:19:08Z</time></trkpt><trkpt lat="43.28519848847788" lon="10.809624124249682"><ele>327.0</ele><time>2026-04-18T12:19:09Z</time></trkpt><trkpt lat="43.28516386845985" lon="10.809422687554529"><ele>332.0</ele><time>2026-04-18T12:19:10Z</time></trkpt><trkpt lat="43.285104822337" lon="10.809222285607856"><ele>332.0</ele><time>2026-04-18T12:19:11Z</time></trkpt><trkpt lat="43.28503790984244" lon="10.808993947860568"><ele>332.0</ele><time>2026-04-18T12:19:12Z</time></trkpt><trkpt lat="43.284970710561595" lon="10.80881346941925"><ele>332.0</ele><time>2026-04-18T12:19:13Z</time></trkpt><trkpt lat="43.284885899763346" lon="10.808643570327163"><ele>330.20000000000005</ele><time>2026-04-18T12:19:14Z</time></trkpt><trkpt lat="43.28480894749841" lon="10.80849212603599"><ele>328.4</ele><time>2026-04-18T12:19:15Z</time></trkpt><trkpt lat="43.28475522778868" lon="10.808363626110937"><ele>326.6</ele><time>2026-04-18T12:19:16Z</time></trkpt><trkpt lat="43.28471737276709" lon="10.808244252189175"><ele>324.79999999999995</ele><time>2026-04-18T12:19:17Z</time></trkpt><trkpt lat="43.28471064528435" lon="10.808119004142256"><ele>323.0</ele><time>2026-04-18T12:19:18Z</time></trkpt><trkpt lat="43.28478246763621" lon="10.808002252080243"><ele>323.0</ele><time>2026-04-18T12:19:19Z</time></trkpt><trkpt lat="43.28482993214297" lon="10.80780922129545"><ele>323.0</ele><time>2026-04-18T12:19:20Z</time></trkpt><trkpt lat="43.284867202038896" lon="10.80761399751417"><ele>323.0</ele><time>2026-04-18T12:19:21Z</time></trkpt><trkpt lat="43.28489389788576" lon="10.80740972118333"><ele>323.0</ele><time>2026-04-18T12:19:22Z</time></trkpt><trkpt lat="43.284890766875336" lon="10.807222061441246"><ele>323.75</ele><time>2026-04-18T12:19:23Z</time></trkpt><trkpt lat="43.284830476502066" lon="10.807052450371959"><ele>324.5</ele><time>2026-04-18T12:19:24Z</time></trkpt><trkpt lat="43.284775571572276" lon="10.806875131920393"><ele>325.25</ele><time>2026-04-18T12:19:25Z</time></trkpt><trkpt lat="43.28472388250814" lon="10.80669694237926"><ele>326.0</ele><time>2026-04-18T12:19:26Z</time></trkpt><trkpt lat="43.28472593623681" lon="10.806541383561163"><ele>326.0</ele><time>2026-04-18T12:19:27Z</time></trkpt><trkpt lat="43.284747852447325" lon="10.806418362643496"><ele>326.0</ele><time>2026-04-18T12:19:28Z</time></trkpt><trkpt lat="43.28478636728513" lon="10.806270394680526"><ele>326.0</ele><time>2026-04-18T12:19:29Z</time></trkpt><trkpt lat="43.28483569353831" lon="10.806072146835819"><ele>326.0</ele><time>2026-04-18T12:19:30Z</time></trkpt><trkpt lat="43.284882414790935" lon="10.805850344927553"><ele>328.0</ele><time>2026-04-18T12:19:31Z</time></trkpt><trkpt lat="43.28488904152177" lon="10.805611063029767"><ele>330.0</ele><time>2026-04-18T12:19:32Z</time></trkpt><trkpt lat="43.28485624017365" lon="10.805416528365406"><ele>332.0</ele><time>2026-04-18T12:19:33Z</time></trkpt><trkpt lat="43.284836375523454" lon="10.805214914425926"><ele>333.5</ele><time>2026-04-18T12:19:34Z</time></trkpt><trkpt lat="43.28484775789739" lon="10.805024991624963"><ele>335.0</ele><time>2026-04-18T12:19:35Z</time></trkpt><trkpt lat="43.28487092637143" lon="10.80481887264416"><ele>336.5</ele><time>2026-04-18T12:19:36Z</time></trkpt><trkpt lat="43.28488755587767" lon="10.804607224315292"><ele>338.0</ele><time>2026-04-18T12:19:37Z</time></trkpt><trkpt lat="43.284917648073666" lon="10.804418083147945"><ele>339.2</ele><time>2026-04-18T12:19:38Z</time></trkpt><trkpt lat="43.28499609367751" lon="10.804293390481526"><ele>340.4</ele><time>2026-04-18T12:19:39Z</time></trkpt><trkpt lat="43.28505974048167" lon="10.804135059778456"><ele>341.59999999999997</ele><time>2026-04-18T12:19:40Z</time></trkpt><trkpt lat="43.28509815951604" lon="10.804018805859808"><ele>342.79999999999995</ele><time>2026-04-18T12:19:41Z</time></trkpt><trkpt lat="43.285123274989" lon="10.80390702810347"><ele>344.0</ele><time>2026-04-18T12:19:42Z</time></trkpt><trkpt lat="43.285092777830755" lon="10.80374102737463"><ele>344.0</ele><time>2026-04-18T12:19:43Z</time></trkpt><trkpt lat="43.28499761523952" lon="10.80358668848018"><ele>344.0</ele><time>2026-04-18T12:19:44Z</time></trkpt><trkpt lat="43.28486733085472" lon="10.803492707439654"><ele>344.0</ele><time>2026-04-18T12:19:45Z</time></trkpt><trkpt lat="43.28478727149501" lon="10.803360285657552"><ele>344.0</ele><time>2026-04-18T12:19:46Z</time></trkpt><trkpt lat="43.284697395946885" lon="10.803266984137668"><ele>346.5</ele><time>2026-04-18T12:19:47Z</time></trkpt><trkpt lat="43.284597356771016" lon="10.803235820155574"><ele>349.0</ele><time>2026-04-18T12:19:48Z</time></trkpt><trkpt lat="43.2845318158222" lon="10.803312880202977"><ele>351.5</ele><time>2026-04-18T12:19:49Z</time></trkpt><trkpt lat="43.28449170496328" lon="10.803389221665082"><ele>354.0</ele><time>2026-04-18T12:19:50Z</time></trkpt><trkpt lat="43.2845154702941" lon="10.803478988195652"><ele>356.5</ele><time>2026-04-18T12:19:51Z</time></trkpt><trkpt lat="43.28455875746592" lon="10.803554718202909"><ele>359.0</ele><time>2026-04-18T12:19:52Z</time></trkpt><trkpt lat="43.28463866124913" lon="10.803607795998065"><ele>362.0</ele><time>2026-04-18T12:19:53Z</time></trkpt><trkpt lat="43.28472584288527" lon="10.80367423286455"><ele>365.0</ele><time>2026-04-18T12:19:54Z</time></trkpt><trkpt lat="43.284774037512044" lon="10.80379369022267"><ele>368.0</ele><time>2026-04-18T12:19:55Z</time></trkpt><trkpt lat="43.28473927742278" lon="10.803920124116512"><ele>371.0</ele><time>2026-04-18T12:19:56Z</time></trkpt><trkpt lat="43.28468639574697" lon="10.804022999773146"><ele>374.0</ele><time>2026-04-18T12:19:57Z</time></trkpt><trkpt lat="43.28463418483414" lon="10.804134542578081"><ele>374.0</ele><time>2026-04-18T12:19:58Z</time></trkpt><trkpt lat="43.28458930982619" lon="10.804249345340923"><ele>374.0</ele><time>2026-04-18T12:19:59Z</time></trkpt><trkpt lat="43.28454736254047" lon="10.804373692878317"><ele>374.0</ele><time>2026-04-18T12:20:00Z</time></trkpt><trkpt lat="43.28450865345913" lon="10.804507181561068"><ele>374.0</ele><time>2026-04-18T12:20:01Z</time></trkpt><trkpt lat="43.28447014274912" lon="10.804644478771985"><ele>374.0</ele><time>2026-04-18T12:20:02Z</time></trkpt><trkpt lat="43.284411578587644" lon="10.804770357562672"><ele>372.75</ele><time>2026-04-18T12:20:03Z</time></trkpt><trkpt lat="43.28430776207162" lon="10.804837030348452"><ele>371.5</ele><time>2026-04-18T12:20:04Z</time></trkpt><trkpt lat="43.28420923172396" lon="10.804942252199307"><ele>370.25</ele><time>2026-04-18T12:20:05Z</time></trkpt><trkpt lat="43.28412593192018" lon="10.805051997811939"><ele>369.0</ele><time>2026-04-18T12:20:06Z</time></trkpt><trkpt lat="43.284047510924104" lon="10.805167459110336"><ele>367.5</ele><time>2026-04-18T12:20:07Z</time></trkpt><trkpt lat="43.28402721072718" lon="10.805348672553125"><ele>366.0</ele><time>2026-04-18T12:20:08Z</time></trkpt><trkpt lat="43.28394100063096" lon="10.80548766307511"><ele>364.5</ele><time>2026-04-18T12:20:09Z</time></trkpt><trkpt lat="43.28386506360859" lon="10.805607875348429"><ele>363.0</ele><time>2026-04-18T12:20:10Z</time></trkpt><trkpt lat="43.283776295175976" lon="10.805686601632381"><ele>368.5</ele><time>2026-04-18T12:20:11Z</time></trkpt><trkpt lat="43.283685019148884" lon="10.80579471482149"><ele>374.0</ele><time>2026-04-18T12:20:12Z</time></trkpt><trkpt lat="43.283603938069376" lon="10.805954263348486"><ele>379.5</ele><time>2026-04-18T12:20:13Z</time></trkpt><trkpt lat="43.283532206397425" lon="10.806114598136878"><ele>385.0</ele><time>2026-04-18T12:20:14Z</time></trkpt><trkpt lat="43.2835518613014" lon="10.80626547028528"><ele>387.0</ele><time>2026-04-18T12:20:15Z</time></trkpt><trkpt lat="43.28359048667819" lon="10.806412386969264"><ele>389.0</ele><time>2026-04-18T12:20:16Z</time></trkpt><trkpt lat="43.28367839123187" lon="10.806544352322407"><ele>391.0</ele><time>2026-04-18T12:20:17Z</time></trkpt><trkpt lat="43.283753341105005" lon="10.806673396834745"><ele>393.0</ele><time>2026-04-18T12:20:18Z</time></trkpt><trkpt lat="43.28384165629566" lon="10.806828407310974"><ele>394.0</ele><time>2026-04-18T12:20:19.001Z</time></trkpt><trkpt lat="43.283922311854276" lon="10.806984857142583"><ele>395.0</ele><time>2026-04-18T12:20:20.001Z</time></trkpt><trkpt lat="43.2839712589028" lon="10.807115825471728"><ele>396.0</ele><time>2026-04-18T12:20:21.001Z</time></trkpt><trkpt lat="43.28400397105973" lon="10.807260288887393"><ele>397.0</ele><time>2026-04-18T12:20:22.001Z</time></trkpt><trkpt lat="43.28400228711544" lon="10.807381245092332"><ele>398.0</ele><time>2026-04-18T12:20:23.001Z</time></trkpt><trkpt lat="43.2839753481528" lon="10.807465642294014"><ele>398.0</ele><time>2026-04-18T12:20:24.001Z</time></trkpt><trkpt lat="43.28391292013887" lon="10.807505000874889"><ele>398.0</ele><time>2026-04-18T12:20:25.001Z</time></trkpt><trkpt lat="43.283846652330624" lon="10.807464856911473"><ele>398.0</ele><time>2026-04-18T12:20:26.001Z</time></trkpt><trkpt lat="43.28375684135096" lon="10.807446075092288"><ele>398.0</ele><time>2026-04-18T12:20:27.001Z</time></trkpt><trkpt lat="43.28362856074279" lon="10.807412275163465"><ele>398.0</ele><time>2026-04-18T12:20:28.001Z</time></trkpt><trkpt lat="43.28350182342882" lon="10.80742317003159"><ele>398.0</ele><time>2026-04-18T12:20:29.001Z</time></trkpt><trkpt lat="43.283423995367464" lon="10.80747430782719"><ele>398.0</ele><time>2026-04-18T12:20:30Z</time></trkpt><trkpt lat="43.283361379119114" lon="10.807528415569761"><ele>398.0</ele><time>2026-04-18T12:20:31Z</time></trkpt><trkpt lat="43.283330694517154" lon="10.807627987861768"><ele>398.0</ele><time>2026-04-18T12:20:32Z</time></trkpt><trkpt lat="43.28341547695271" lon="10.80776851743217"><ele>398.0</ele><time>2026-04-18T12:20:33Z</time></trkpt><trkpt lat="43.28348785438677" lon="10.80789650078689"><ele>400.5</ele><time>2026-04-18T12:20:34Z</time></trkpt><trkpt lat="43.28359094220702" lon="10.808078411084209"><ele>403.0</ele><time>2026-04-18T12:20:35Z</time></trkpt><trkpt lat="43.28366029235588" lon="10.808230235620162"><ele>405.5</ele><time>2026-04-18T12:20:36Z</time></trkpt><trkpt lat="43.28372516833736" lon="10.808409034927468"><ele>408.0</ele><time>2026-04-18T12:20:37Z</time></trkpt><trkpt lat="43.283755734838984" lon="10.808553355423095"><ele>408.59999999999997</ele><time>2026-04-18T12:20:38Z</time></trkpt><trkpt lat="43.28375061826068" lon="10.808695613843062"><ele>409.2</ele><time>2026-04-18T12:20:39Z</time></trkpt><trkpt lat="43.283729829413296" lon="10.808831495714204"><ele>409.8</ele><time>2026-04-18T12:20:40Z</time></trkpt><trkpt lat="43.28370399604986" lon="10.808989238091105"><ele>410.4</ele><time>2026-04-18T12:20:41Z</time></trkpt><trkpt lat="43.28368782020786" lon="10.809152349565695"><ele>411.0</ele><time>2026-04-18T12:20:42Z</time></trkpt><trkpt lat="43.28373002454506" lon="10.80932609239659"><ele>411.0</ele><time>2026-04-18T12:20:43Z</time></trkpt><trkpt lat="43.28381167805262" lon="10.809479857436255"><ele>411.0</ele><time>2026-04-18T12:20:44Z</time></trkpt><trkpt lat="43.28391045824992" lon="10.809613957873777"><ele>411.0</ele><time>2026-04-18T12:20:45Z</time></trkpt><trkpt lat="43.2839667552452" lon="10.809762385363463"><ele>411.0</ele><time>2026-04-18T12:20:46Z</time></trkpt><trkpt lat="43.28398337550907" lon="10.809873513557472"><ele>411.0</ele><time>2026-04-18T12:20:47Z</time></trkpt><trkpt lat="43.28396742826054" lon="10.809981670592071"><ele>411.0</ele><time>2026-04-18T12:20:48Z</time></trkpt><trkpt lat="43.283912536969666" lon="10.810110410214023"><ele>411.0</ele><time>2026-04-18T12:20:49Z</time></trkpt><trkpt lat="43.283826344500525" lon="10.810198993279712"><ele>411.0</ele><time>2026-04-18T12:20:50Z</time></trkpt><trkpt lat="43.28373571145765" lon="10.810245485563627"><ele>411.0</ele><time>2026-04-18T12:20:51Z</time></trkpt><trkpt lat="43.28363466554619" lon="10.810301055484203"><ele>408.20000000000005</ele><time>2026-04-18T12:20:52Z</time></trkpt><trkpt lat="43.28351917095912" lon="10.81034446567139"><ele>405.40000000000003</ele><time>2026-04-18T12:20:53Z</time></trkpt><trkpt lat="43.28339472212989" lon="10.810346970657676"><ele>402.6</ele><time>2026-04-18T12:20:54Z</time></trkpt><trkpt lat="43.283293507759794" lon="10.810347726775255"><ele>399.8</ele><time>2026-04-18T12:20:55Z</time></trkpt><trkpt lat="43.28319423876114" lon="10.810335253085997"><ele>397.0</ele><time>2026-04-18T12:20:56Z</time></trkpt><trkpt lat="43.28312098832357" lon="10.810274171694626"><ele>394.8</ele><time>2026-04-18T12:20:57Z</time></trkpt><trkpt lat="43.28303725398627" lon="10.810161359662"><ele>392.6</ele><time>2026-04-18T12:20:58Z</time></trkpt><trkpt lat="43.28296427898483" lon="10.81004362120153"><ele>390.40000000000003</ele><time>2026-04-18T12:20:59Z</time></trkpt><trkpt lat="43.28288561046698" lon="10.809922662839226"><ele>388.20000000000005</ele><time>2026-04-18T12:21:00Z</time></trkpt><trkpt lat="43.282823960767274" lon="10.80981356468072"><ele>386.0</ele><time>2026-04-18T12:21:01Z</time></trkpt><trkpt lat="43.282744654797604" lon="10.809706463809292"><ele>391.75</ele><time>2026-04-18T12:21:02Z</time></trkpt><trkpt lat="43.282643851128135" lon="10.809623929854537"><ele>397.5</ele><time>2026-04-18T12:21:03Z</time></trkpt><trkpt lat="43.2825290218102" lon="10.809587681356994"><ele>403.25</ele><time>2026-04-18T12:21:04Z</time></trkpt><trkpt lat="43.28241877221146" lon="10.809597606573481"><ele>409.0</ele><time>2026-04-18T12:21:05Z</time></trkpt><trkpt lat="43.28232117882775" lon="10.809655671020565"><ele>408.0</ele><time>2026-04-18T12:21:06Z</time></trkpt><trkpt lat="43.282237046573584" lon="10.809677633871496"><ele>407.0</ele><time>2026-04-18T12:21:07Z</time></trkpt><trkpt lat="43.28217107499729" lon="10.809733363088911"><ele>406.0</ele><time>2026-04-18T12:21:08Z</time></trkpt><trkpt lat="43.28205474376535" lon="10.809655609033298"><ele>405.0</ele><time>2026-04-18T12:21:10Z</time></trkpt><trkpt lat="43.282116190057096" lon="10.809577532477679"><ele>404.0</ele><time>2026-04-18T12:21:11Z</time></trkpt><trkpt lat="43.282214578073926" lon="10.809591989600422"><ele>405.25</ele><time>2026-04-18T12:21:12Z</time></trkpt><trkpt lat="43.282332431217824" lon="10.809491009970388"><ele>406.5</ele><time>2026-04-18T12:21:14Z</time></trkpt><trkpt lat="43.282446726003236" lon="10.809450078656694"><ele>407.75</ele><time>2026-04-18T12:21:15Z</time></trkpt><trkpt lat="43.2825844254984" lon="10.809472332218082"><ele>409.0</ele><time>2026-04-18T12:21:16Z</time></trkpt><trkpt lat="43.2826878117047" lon="10.809514209658213"><ele>409.0</ele><time>2026-04-18T12:21:17Z</time></trkpt><trkpt lat="43.28280595588706" lon="10.809530931515313"><ele>409.0</ele><time>2026-04-18T12:21:18Z</time></trkpt><trkpt lat="43.28293774901317" lon="10.809574938535649"><ele>409.0</ele><time>2026-04-18T12:21:19Z</time></trkpt><trkpt lat="43.28304581465112" lon="10.80960859920818"><ele>409.0</ele><time>2026-04-18T12:21:20Z</time></trkpt><trkpt lat="43.283129432998486" lon="10.809623749563787"><ele>409.4</ele><time>2026-04-18T12:21:21Z</time></trkpt><trkpt lat="43.283211384078704" lon="10.80948991121079"><ele>409.79999999999995</ele><time>2026-04-18T12:21:23Z</time></trkpt><trkpt lat="43.28319486456426" lon="10.809352875309884"><ele>410.20000000000005</ele><time>2026-04-18T12:21:24Z</time></trkpt><trkpt lat="43.28315653899571" lon="10.809228986972013"><ele>410.6</ele><time>2026-04-18T12:21:25Z</time></trkpt><trkpt lat="43.283112127393466" lon="10.809098983718782"><ele>411.0</ele><time>2026-04-18T12:21:26Z</time></trkpt><trkpt lat="43.28305376041582" lon="10.80895639603685"><ele>414.0</ele><time>2026-04-18T12:21:27Z</time></trkpt><trkpt lat="43.28301378397755" lon="10.808847452585342"><ele>417.0</ele><time>2026-04-18T12:21:28Z</time></trkpt><trkpt lat="43.28294677743835" lon="10.808740353331498"><ele>420.0</ele><time>2026-04-18T12:21:29Z</time></trkpt><trkpt lat="43.28287616185489" lon="10.808672501497579"><ele>423.0</ele><time>2026-04-18T12:21:30Z</time></trkpt><trkpt lat="43.28280662861953" lon="10.80863183247054"><ele>426.0</ele><time>2026-04-18T12:21:31Z</time></trkpt><trkpt lat="43.282729330047346" lon="10.808628245773262"><ele>429.0</ele><time>2026-04-18T12:21:32Z</time></trkpt><trkpt lat="43.28267789647201" lon="10.80877786745425"><ele>429.0</ele><time>2026-04-18T12:21:33Z</time></trkpt><trkpt lat="43.282463104171406" lon="10.808786396036703"><ele>429.0</ele><time>2026-04-18T12:21:34Z</time></trkpt><trkpt lat="43.282319672736634" lon="10.80879572904584"><ele>429.0</ele><time>2026-04-18T12:21:35Z</time></trkpt><trkpt lat="43.282187171128896" lon="10.808773760725732"><ele>428.79999999999995</ele><time>2026-04-18T12:21:36Z</time></trkpt><trkpt lat="43.282079740651604" lon="10.808774581243734"><ele>428.59999999999997</ele><time>2026-04-18T12:21:37Z</time></trkpt><trkpt lat="43.281987949560474" lon="10.808759247366085"><ele>428.4</ele><time>2026-04-18T12:21:38Z</time></trkpt><trkpt lat="43.28189814090591" lon="10.808745746711274"><ele>428.2</ele><time>2026-04-18T12:21:40Z</time></trkpt><trkpt lat="43.281801896756704" lon="10.808713605898639"><ele>428.0</ele><time>2026-04-18T12:21:45Z</time></trkpt><trkpt lat="43.28172602152475" lon="10.808666928279067"><ele>427.99999999999994</ele><time>2026-04-18T12:21:49Z</time></trkpt><trkpt lat="43.28164790490727" lon="10.80860608721399"><ele>428.0</ele><time>2026-04-18T12:22:33Z</time></trkpt><trkpt lat="43.28159358152756" lon="10.808665713536035"><ele>428.0</ele><time>2026-04-18T12:22:34Z</time></trkpt><trkpt lat="43.28154712455244" lon="10.808586677854548"><ele>428.0</ele><time>2026-04-18T12:22:36Z</time></trkpt><trkpt lat="43.281508777633945" lon="10.80846542978441"><ele>427.99999999999994</ele><time>2026-04-18T12:22:38Z</time></trkpt><trkpt lat="43.281410050635564" lon="10.808373405406531"><ele>428.0</ele><time>2026-04-18T12:22:40Z</time></trkpt><trkpt lat="43.28134376067572" lon="10.808319968363149"><ele>429.16666666666663</ele><time>2026-04-18T12:22:41Z</time></trkpt><trkpt lat="43.28128303858249" lon="10.808280279687992"><ele>430.3333333333333</ele><time>2026-04-18T12:22:42Z</time></trkpt><trkpt lat="43.28116185922899" lon="10.808237127051493"><ele>431.5</ele><time>2026-04-18T12:22:44Z</time></trkpt><trkpt lat="43.281095081541245" lon="10.808228813298607"><ele>432.66666666666663</ele><time>2026-04-18T12:22:45Z</time></trkpt><trkpt lat="43.281022358039074" lon="10.808222034187837"><ele>433.8333333333333</ele><time>2026-04-18T12:22:46Z</time></trkpt><trkpt lat="43.28092704511632" lon="10.80821358045284"><ele>435.0</ele><time>2026-04-18T12:22:47Z</time></trkpt><trkpt lat="43.28084426168381" lon="10.808211708629516"><ele>435.0</ele><time>2026-04-18T12:22:48Z</time></trkpt><trkpt lat="43.28074102815165" lon="10.808215333065979"><ele>435.0</ele><time>2026-04-18T12:22:49Z</time></trkpt><trkpt lat="43.28064853643124" lon="10.808227237338647"><ele>435.0</ele><time>2026-04-18T12:22:50Z</time></trkpt><trkpt lat="43.28056955868875" lon="10.80826366132551"><ele>435.0</ele><time>2026-04-18T12:22:51Z</time></trkpt><trkpt lat="43.28048257179196" lon="10.808268116296576"><ele>435.0</ele><time>2026-04-18T12:22:52Z</time></trkpt><trkpt lat="43.28038101779229" lon="10.808309520826793"><ele>435.6</ele><time>2026-04-18T12:22:53Z</time></trkpt><trkpt lat="43.280305999810246" lon="10.80843138969587"><ele>436.2</ele><time>2026-04-18T12:22:54Z</time></trkpt><trkpt lat="43.280206206927176" lon="10.80846822666251"><ele>436.79999999999995</ele><time>2026-04-18T12:22:55Z</time></trkpt><trkpt lat="43.28010400934137" lon="10.808471325056733"><ele>437.4</ele><time>2026-04-18T12:22:56Z</time></trkpt><trkpt lat="43.28000355018994" lon="10.808501480790119"><ele>438.0</ele><time>2026-04-18T12:22:57Z</time></trkpt><trkpt lat="43.279897004351916" lon="10.80850267963943"><ele>436.25</ele><time>2026-04-18T12:22:58Z</time></trkpt><trkpt lat="43.27981335563271" lon="10.808584779784972"><ele>434.5</ele><time>2026-04-18T12:22:59Z</time></trkpt><trkpt lat="43.27972828701791" lon="10.808664280266814"><ele>432.75</ele><time>2026-04-18T12:23:00Z</time></trkpt><trkpt lat="43.27963338721514" lon="10.808753277188295"><ele>431.0</ele><time>2026-04-18T12:23:01Z</time></trkpt><trkpt lat="43.27953560644864" lon="10.80888603290666"><ele>435.25</ele><time>2026-04-18T12:23:02Z</time></trkpt><trkpt lat="43.27944723286004" lon="10.808989332445325"><ele>439.5</ele><time>2026-04-18T12:23:03Z</time></trkpt><trkpt lat="43.279372499631606" lon="10.809066941812606"><ele>443.75</ele><time>2026-04-18T12:23:04Z</time></trkpt><trkpt lat="43.27925462281929" lon="10.809060955871976"><ele>448.0</ele><time>2026-04-18T12:23:06Z</time></trkpt><trkpt lat="43.279155784455135" lon="10.808952573528606"><ele>448.00000000000006</ele><time>2026-04-18T12:23:08Z</time></trkpt><trkpt lat="43.27910168206497" lon="10.808822644086243"><ele>448.0</ele><time>2026-04-18T12:23:10Z</time></trkpt><trkpt lat="43.27908004937263" lon="10.808724604506308"><ele>448.0</ele><time>2026-04-18T12:23:11Z</time></trkpt><trkpt lat="43.27908872191974" lon="10.808633919641832"><ele>448.0</ele><time>2026-04-18T12:23:12Z</time></trkpt><trkpt lat="43.27909297239886" lon="10.808542938843102"><ele>448.00000000000006</ele><time>2026-04-18T12:23:13Z</time></trkpt><trkpt lat="43.27908433597682" lon="10.808404409121103"><ele>448.0</ele><time>2026-04-18T12:23:14Z</time></trkpt><trkpt lat="43.27906094648828" lon="10.808256729586981"><ele>448.0</ele><time>2026-04-18T12:23:15Z</time></trkpt><trkpt lat="43.27903812441884" lon="10.808100034994563"><ele>448.0</ele><time>2026-04-18T12:23:16Z</time></trkpt><trkpt lat="43.2790087511008" lon="10.807968666040313"><ele>448.0</ele><time>2026-04-18T12:23:17Z</time></trkpt><trkpt lat="43.278934336681665" lon="10.80780757187311"><ele>448.0</ele><time>2026-04-18T12:23:18Z</time></trkpt><trkpt lat="43.27879985312749" lon="10.807704411723035"><ele>448.0</ele><time>2026-04-18T12:23:19Z</time></trkpt><trkpt lat="43.27867773129123" lon="10.807668740494355"><ele>447.99999999999994</ele><time>2026-04-18T12:23:20Z</time></trkpt><trkpt lat="43.27857727718833" lon="10.807620815021693"><ele>447.99999999999994</ele><time>2026-04-18T12:23:21Z</time></trkpt><trkpt lat="43.27849209747062" lon="10.807541512664912"><ele>448.0</ele><time>2026-04-18T12:23:22Z</time></trkpt><trkpt lat="43.278453545312836" lon="10.807463261827596"><ele>448.0</ele><time>2026-04-18T12:23:23Z</time></trkpt><trkpt lat="43.278409097312334" lon="10.8073511400614"><ele>450.79999999999995</ele><time>2026-04-18T12:23:24Z</time></trkpt><trkpt lat="43.27835216670963" lon="10.807217163942356"><ele>453.59999999999997</ele><time>2026-04-18T12:23:25Z</time></trkpt><trkpt lat="43.27831744974741" lon="10.80707808466601"><ele>456.40000000000003</ele><time>2026-04-18T12:23:26Z</time></trkpt><trkpt lat="43.278270043138065" lon="10.806925806617617"><ele>459.20000000000005</ele><time>2026-04-18T12:23:27Z</time></trkpt><trkpt lat="43.27821749134625" lon="10.80681683502178"><ele>462.0</ele><time>2026-04-18T12:23:28Z</time></trkpt><trkpt lat="43.278117673231485" lon="10.806744337959364"><ele>462.8333333333333</ele><time>2026-04-18T12:23:29Z</time></trkpt><trkpt lat="43.277995102697425" lon="10.806761750511333"><ele>463.66666666666663</ele><time>2026-04-18T12:23:30Z</time></trkpt><trkpt lat="43.27790494673037" lon="10.806759654092005"><ele>464.5</ele><time>2026-04-18T12:23:31Z</time></trkpt><trkpt lat="43.27781302500355" lon="10.806755872018664"><ele>465.3333333333333</ele><time>2026-04-18T12:23:32Z</time></trkpt><trkpt lat="43.27773822895658" lon="10.806745055048648"><ele>466.16666666666663</ele><time>2026-04-18T12:23:33Z</time></trkpt><trkpt lat="43.277673844760095" lon="10.806714301324151"><ele>467.0</ele><time>2026-04-18T12:23:34Z</time></trkpt><trkpt lat="43.27760778439296" lon="10.806649876027553"><ele>466.99999999999994</ele><time>2026-04-18T12:23:35Z</time></trkpt><trkpt lat="43.27755905782326" lon="10.806594472872817"><ele>467.0</ele><time>2026-04-18T12:23:36Z</time></trkpt><trkpt lat="43.27750274455456" lon="10.806511708527426"><ele>467.0</ele><time>2026-04-18T12:23:37Z</time></trkpt><trkpt lat="43.2774409777231" lon="10.806405758675034"><ele>467.0</ele><time>2026-04-18T12:23:38Z</time></trkpt><trkpt lat="43.27738422226386" lon="10.806304734059305"><ele>466.99999999999994</ele><time>2026-04-18T12:23:39Z</time></trkpt><trkpt lat="43.27732781351074" lon="10.806191532375891"><ele>467.0</ele><time>2026-04-18T12:23:40Z</time></trkpt><trkpt lat="43.27726573383617" lon="10.806039550544485"><ele>467.6</ele><time>2026-04-18T12:23:41Z</time></trkpt><trkpt lat="43.277206539738394" lon="10.805892963369763"><ele>468.20000000000005</ele><time>2026-04-18T12:23:42Z</time></trkpt><trkpt lat="43.277143476403594" lon="10.8057543784243"><ele>468.8</ele><time>2026-04-18T12:23:43Z</time></trkpt><trkpt lat="43.27708730137065" lon="10.80563879614455"><ele>469.4</ele><time>2026-04-18T12:23:44Z</time></trkpt><trkpt lat="43.27703306398722" lon="10.805534034893379"><ele>470.0</ele><time>2026-04-18T12:23:45Z</time></trkpt><trkpt lat="43.276955594390024" lon="10.805436158433102"><ele>470.0</ele><time>2026-04-18T12:23:46Z</time></trkpt><trkpt lat="43.276889758932484" lon="10.805389500472064"><ele>470.0</ele><time>2026-04-18T12:23:47Z</time></trkpt><trkpt lat="43.276799187016934" lon="10.805390885137696"><ele>470.0</ele><time>2026-04-18T12:23:48Z</time></trkpt><trkpt lat="43.27670342322472" lon="10.805513970734635"><ele>470.0</ele><time>2026-04-18T12:23:49Z</time></trkpt><trkpt lat="43.27661091992258" lon="10.805571782032874"><ele>470.0</ele><time>2026-04-18T12:23:50Z</time></trkpt><trkpt lat="43.27648562171359" lon="10.805581302508498"><ele>469.0</ele><time>2026-04-18T12:23:51Z</time></trkpt><trkpt lat="43.27636038986229" lon="10.805587212473027"><ele>468.0</ele><time>2026-04-18T12:23:52Z</time></trkpt><trkpt lat="43.27625224505484" lon="10.805577199008452"><ele>467.0</ele><time>2026-04-18T12:23:53Z</time></trkpt><trkpt lat="43.27616592561332" lon="10.80555304199207"><ele>466.0</ele><time>2026-04-18T12:23:54Z</time></trkpt><trkpt lat="43.27609912037563" lon="10.80550720799323"><ele>465.0</ele><time>2026-04-18T12:23:55Z</time></trkpt><trkpt lat="43.27604475926139" lon="10.805451635444976"><ele>465.0</ele><time>2026-04-18T12:23:56Z</time></trkpt><trkpt lat="43.27600013424182" lon="10.805384415065188"><ele>465.0</ele><time>2026-04-18T12:23:57Z</time></trkpt><trkpt lat="43.27595657025121" lon="10.80531447893384"><ele>465.0</ele><time>2026-04-18T12:23:58Z</time></trkpt><trkpt lat="43.27590812020133" lon="10.80524241406016"><ele>465.0</ele><time>2026-04-18T12:23:59Z</time></trkpt><trkpt lat="43.275873961077046" lon="10.805156024311056"><ele>465.0</ele><time>2026-04-18T12:24:00Z</time></trkpt><trkpt lat="43.27581831376416" lon="10.805045040660103"><ele>465.0</ele><time>2026-04-18T12:24:01Z</time></trkpt><trkpt lat="43.2757477965398" lon="10.80495931168704"><ele>465.0</ele><time>2026-04-18T12:24:02Z</time></trkpt><trkpt lat="43.27563467712532" lon="10.804891492362154"><ele>465.0</ele><time>2026-04-18T12:24:03Z</time></trkpt><trkpt lat="43.27555535274932" lon="10.80485456395221"><ele>465.0</ele><time>2026-04-18T12:24:04Z</time></trkpt><trkpt lat="43.27545280413979" lon="10.80482588583876"><ele>465.0</ele><time>2026-04-18T12:24:05Z</time></trkpt><trkpt lat="43.27533415273937" lon="10.80481971163142"><ele>465.0</ele><time>2026-04-18T12:24:06Z</time></trkpt><trkpt lat="43.27520564955142" lon="10.804857847448353"><ele>465.0</ele><time>2026-04-18T12:24:07Z</time></trkpt><trkpt lat="43.27507875945207" lon="10.804879369231275"><ele>465.0</ele><time>2026-04-18T12:24:08Z</time></trkpt><trkpt lat="43.274953657500824" lon="10.804940570217864"><ele>465.0</ele><time>2026-04-18T12:24:09Z</time></trkpt><trkpt lat="43.27483434695331" lon="10.804995606325924"><ele>465.0</ele><time>2026-04-18T12:24:10Z</time></trkpt><trkpt lat="43.27472187985195" lon="10.805033663919962"><ele>463.0</ele><time>2026-04-18T12:24:11Z</time></trkpt><trkpt lat="43.27458866034769" lon="10.805074259735813"><ele>461.0</ele><time>2026-04-18T12:24:12Z</time></trkpt><trkpt lat="43.27446272686606" lon="10.805114350713229"><ele>459.0</ele><time>2026-04-18T12:24:13Z</time></trkpt><trkpt lat="43.274343389492536" lon="10.805151186218634"><ele>457.0</ele><time>2026-04-18T12:24:14Z</time></trkpt><trkpt lat="43.274222374583985" lon="10.805186709771258"><ele>455.5</ele><time>2026-04-18T12:24:15Z</time></trkpt><trkpt lat="43.27407542187722" lon="10.80521353352497"><ele>454.0</ele><time>2026-04-18T12:24:16Z</time></trkpt><trkpt lat="43.27393690177779" lon="10.805233810164053"><ele>452.5</ele><time>2026-04-18T12:24:17Z</time></trkpt><trkpt lat="43.27378629191687" lon="10.805250840846329"><ele>451.0</ele><time>2026-04-18T12:24:18Z</time></trkpt><trkpt lat="43.27363544261921" lon="10.805268762563008"><ele>451.0</ele><time>2026-04-18T12:24:19Z</time></trkpt><trkpt lat="43.273478683331234" lon="10.805292618662989"><ele>451.0</ele><time>2026-04-18T12:24:20Z</time></trkpt><trkpt lat="43.27331840430082" lon="10.80531353304983"><ele>451.0</ele><time>2026-04-18T12:24:21Z</time></trkpt><trkpt lat="43.27315180306918" lon="10.805301455686898"><ele>450.75</ele><time>2026-04-18T12:24:22Z</time></trkpt><trkpt lat="43.272995856796065" lon="10.805313034038178"><ele>450.5</ele><time>2026-04-18T12:24:23Z</time></trkpt><trkpt lat="43.272840603193856" lon="10.805344365105693"><ele>450.25</ele><time>2026-04-18T12:24:24Z</time></trkpt><trkpt lat="43.2727093573131" lon="10.805359889630676"><ele>450.0</ele><time>2026-04-18T12:24:25Z</time></trkpt><trkpt lat="43.272564869043165" lon="10.805394977842147"><ele>450.0</ele><time>2026-04-18T12:24:26Z</time></trkpt><trkpt lat="43.272423134411255" lon="10.805450813401466"><ele>450.0</ele><time>2026-04-18T12:24:27Z</time></trkpt><trkpt lat="43.27227854701451" lon="10.80550430764242"><ele>450.0</ele><time>2026-04-18T12:24:28Z</time></trkpt><trkpt lat="43.272136936092146" lon="10.80556261930618"><ele>450.0</ele><time>2026-04-18T12:24:29.001Z</time></trkpt><trkpt lat="43.272000123778355" lon="10.805636500205507"><ele>450.0</ele><time>2026-04-18T12:24:30.001Z</time></trkpt><trkpt lat="43.27186208339691" lon="10.805706985273703"><ele>450.0</ele><time>2026-04-18T12:24:31.001Z</time></trkpt><trkpt lat="43.27172714631443" lon="10.805770412810027"><ele>450.0</ele><time>2026-04-18T12:24:32.001Z</time></trkpt><trkpt lat="43.27158002189458" lon="10.805775023749108"><ele>450.0</ele><time>2026-04-18T12:24:33.001Z</time></trkpt><trkpt lat="43.2714361788198" lon="10.805777040520638"><ele>450.33333333333337</ele><time>2026-04-18T12:24:34.001Z</time></trkpt><trkpt lat="43.271270900722925" lon="10.805776149718188"><ele>450.6666666666667</ele><time>2026-04-18T12:24:35.001Z</time></trkpt><trkpt lat="43.27111769617857" lon="10.805794923530724"><ele>451.0</ele><time>2026-04-18T12:24:36.001Z</time></trkpt><trkpt lat="43.270964935652664" lon="10.805805879618264"><ele>451.0</ele><time>2026-04-18T12:24:37.001Z</time></trkpt><trkpt lat="43.27081591841161" lon="10.805840727026666"><ele>451.0</ele><time>2026-04-18T12:24:38.001Z</time></trkpt><trkpt lat="43.27064985036647" lon="10.805869014901493"><ele>451.0</ele><time>2026-04-18T12:24:39.001Z</time></trkpt><trkpt lat="43.270500663529624" lon="10.805856864742358"><ele>451.33333333333337</ele><time>2026-04-18T12:24:40.001Z</time></trkpt><trkpt lat="43.27035167780668" lon="10.80588666164532"><ele>451.66666666666663</ele><time>2026-04-18T12:24:41.001Z</time></trkpt><trkpt lat="43.27019332122269" lon="10.805905762198154"><ele>452.0</ele><time>2026-04-18T12:24:42Z</time></trkpt><trkpt lat="43.27003681648428" lon="10.805930716807032"><ele>452.0</ele><time>2026-04-18T12:24:43Z</time></trkpt><trkpt lat="43.26988323611093" lon="10.805951142042984"><ele>452.0</ele><time>2026-04-18T12:24:44Z</time></trkpt><trkpt lat="43.26971652859714" lon="10.805942355127353"><ele>452.0</ele><time>2026-04-18T12:24:45Z</time></trkpt><trkpt lat="43.269579592780374" lon="10.805941997660433"><ele>453.25</ele><time>2026-04-18T12:24:45.999Z</time></trkpt><trkpt lat="43.26946680779125" lon="10.805906429312758"><ele>454.5</ele><time>2026-04-18T12:24:46.999Z</time></trkpt><trkpt lat="43.26936193130642" lon="10.805843077846898"><ele>455.75</ele><time>2026-04-18T12:24:47.999Z</time></trkpt><trkpt lat="43.26923689628755" lon="10.805732603929576"><ele>457.0</ele><time>2026-04-18T12:24:48.999Z</time></trkpt><trkpt lat="43.26908811590809" lon="10.805637940039924"><ele>457.0</ele><time>2026-04-18T12:24:50Z</time></trkpt><trkpt lat="43.268953307405845" lon="10.80557641968523"><ele>457.0</ele><time>2026-04-18T12:24:51Z</time></trkpt><trkpt lat="43.26881470732219" lon="10.80557820033313"><ele>457.0</ele><time>2026-04-18T12:24:52Z</time></trkpt><trkpt lat="43.268690322264554" lon="10.80558928683814"><ele>457.0</ele><time>2026-04-18T12:24:53Z</time></trkpt><trkpt lat="43.26857714320203" lon="10.805618761798083"><ele>457.0</ele><time>2026-04-18T12:24:54Z</time></trkpt><trkpt lat="43.26843737722051" lon="10.805652589262184"><ele>457.0</ele><time>2026-04-18T12:24:55Z</time></trkpt><trkpt lat="43.26828491220651" lon="10.805652165994031"><ele>457.0</ele><time>2026-04-18T12:24:56Z</time></trkpt><trkpt lat="43.26812949470123" lon="10.8056450637096"><ele>457.33333333333337</ele><time>2026-04-18T12:24:57Z</time></trkpt><trkpt lat="43.26795563906441" lon="10.80560792525863"><ele>457.66666666666663</ele><time>2026-04-18T12:24:58Z</time></trkpt><trkpt lat="43.26779228412043" lon="10.805543352593455"><ele>458.0</ele><time>2026-04-18T12:24:59Z</time></trkpt><trkpt lat="43.267649959671346" lon="10.805480635485956"><ele>458.0</ele><time>2026-04-18T12:25:00Z</time></trkpt><trkpt lat="43.26752857774808" lon="10.805441162327988"><ele>458.0</ele><time>2026-04-18T12:25:01Z</time></trkpt><trkpt lat="43.26742182923983" lon="10.80539167772825"><ele>458.0</ele><time>2026-04-18T12:25:02Z</time></trkpt><trkpt lat="43.26729567408133" lon="10.805336659981108"><ele>458.0</ele><time>2026-04-18T12:25:03Z</time></trkpt><trkpt lat="43.26715371321985" lon="10.805302622236315"><ele>457.25</ele><time>2026-04-18T12:25:04Z</time></trkpt><trkpt lat="43.26700710179019" lon="10.805229241066918"><ele>456.5</ele><time>2026-04-18T12:25:05Z</time></trkpt><trkpt lat="43.26688474736926" lon="10.805199921747914"><ele>455.75</ele><time>2026-04-18T12:25:06Z</time></trkpt><trkpt lat="43.26675905003919" lon="10.80512077648233"><ele>455.0</ele><time>2026-04-18T12:25:07Z</time></trkpt><trkpt lat="43.26662626263418" lon="10.805020416490843"><ele>455.0</ele><time>2026-04-18T12:25:08Z</time></trkpt><trkpt lat="43.26649159028434" lon="10.804911317930735"><ele>455.0</ele><time>2026-04-18T12:25:09Z</time></trkpt><trkpt lat="43.266361862215646" lon="10.80480353850613"><ele>455.0</ele><time>2026-04-18T12:25:10Z</time></trkpt><trkpt lat="43.266235291130336" lon="10.804679861750408"><ele>456.25</ele><time>2026-04-18T12:25:11Z</time></trkpt><trkpt lat="43.26610911837055" lon="10.804561610101254"><ele>457.5</ele><time>2026-04-18T12:25:12Z</time></trkpt><trkpt lat="43.26598210958128" lon="10.804460604449245"><ele>458.75</ele><time>2026-04-18T12:25:13Z</time></trkpt><trkpt lat="43.26587050378007" lon="10.804342570851732"><ele>460.0</ele><time>2026-04-18T12:25:14Z</time></trkpt><trkpt lat="43.26576170826013" lon="10.804248736601336"><ele>460.0</ele><time>2026-04-18T12:25:15Z</time></trkpt><trkpt lat="43.26564633496946" lon="10.80416988653568"><ele>460.0</ele><time>2026-04-18T12:25:16Z</time></trkpt><trkpt lat="43.265547099997164" lon="10.804046638550263"><ele>460.0</ele><time>2026-04-18T12:25:17Z</time></trkpt><trkpt lat="43.26548036871056" lon="10.803929530668702"><ele>460.0</ele><time>2026-04-18T12:25:18Z</time></trkpt><trkpt lat="43.26542954018813" lon="10.803801012565316"><ele>459.8</ele><time>2026-04-18T12:25:19Z</time></trkpt><trkpt lat="43.26539827094125" lon="10.803651144388098"><ele>459.6</ele><time>2026-04-18T12:25:20Z</time></trkpt><trkpt lat="43.26535499441335" lon="10.803547206436994"><ele>459.4</ele><time>2026-04-18T12:25:21Z</time></trkpt><trkpt lat="43.26525121352273" lon="10.803494984407333"><ele>459.2</ele><time>2026-04-18T12:25:22Z</time></trkpt><trkpt lat="43.26514478262685" lon="10.803506027518486"><ele>459.0</ele><time>2026-04-18T12:25:23Z</time></trkpt><trkpt lat="43.26504357138252" lon="10.803475637661903"><ele>459.0</ele><time>2026-04-18T12:25:24Z</time></trkpt><trkpt lat="43.26492619822869" lon="10.803475307773219"><ele>459.0</ele><time>2026-04-18T12:25:25Z</time></trkpt><trkpt lat="43.264780326200835" lon="10.803479135006869"><ele>459.0</ele><time>2026-04-18T12:25:26Z</time></trkpt><trkpt lat="43.26463760742198" lon="10.803501667602953"><ele>459.0</ele><time>2026-04-18T12:25:27Z</time></trkpt><trkpt lat="43.26448439422299" lon="10.803522062219104"><ele>460.5</ele><time>2026-04-18T12:25:28Z</time></trkpt><trkpt lat="43.26432752305228" lon="10.80355280930425"><ele>462.0</ele><time>2026-04-18T12:25:29Z</time></trkpt><trkpt lat="43.26420142999155" lon="10.803523230032297"><ele>463.5</ele><time>2026-04-18T12:25:30Z</time></trkpt><trkpt lat="43.26410193207349" lon="10.803485984787283"><ele>465.0</ele><time>2026-04-18T12:25:31Z</time></trkpt><trkpt lat="43.26402288582708" lon="10.803406465172882"><ele>465.0</ele><time>2026-04-18T12:25:32Z</time></trkpt><trkpt lat="43.26394068119347" lon="10.80330079542187"><ele>465.0</ele><time>2026-04-18T12:25:33Z</time></trkpt><trkpt lat="43.26384828470507" lon="10.803192959395037"><ele>465.0</ele><time>2026-04-18T12:25:34Z</time></trkpt><trkpt lat="43.26374875509196" lon="10.80304967070151"><ele>465.0</ele><time>2026-04-18T12:25:35Z</time></trkpt><trkpt lat="43.263682547110456" lon="10.802940994020776"><ele>465.0</ele><time>2026-04-18T12:25:36Z</time></trkpt><trkpt lat="43.26363002473932" lon="10.802799136431805"><ele>465.0</ele><time>2026-04-18T12:25:37Z</time></trkpt><trkpt lat="43.263595386038" lon="10.80262494773233"><ele>465.0</ele><time>2026-04-18T12:25:38Z</time></trkpt><trkpt lat="43.2635870684696" lon="10.802445856712582"><ele>465.0</ele><time>2026-04-18T12:25:39Z</time></trkpt><trkpt lat="43.26360173944431" lon="10.802298597340437"><ele>465.25</ele><time>2026-04-18T12:25:40Z</time></trkpt><trkpt lat="43.26361661021874" lon="10.8021446356761"><ele>465.5</ele><time>2026-04-18T12:25:41Z</time></trkpt><trkpt lat="43.26364574117377" lon="10.801967447836615"><ele>465.75</ele><time>2026-04-18T12:25:42Z</time></trkpt><trkpt lat="43.26368998088279" lon="10.801775601927709"><ele>466.0</ele><time>2026-04-18T12:25:43Z</time></trkpt><trkpt lat="43.26374450907859" lon="10.801596174063175"><ele>466.0</ele><time>2026-04-18T12:25:44Z</time></trkpt><trkpt lat="43.26380617889894" lon="10.801441087260477"><ele>466.0</ele><time>2026-04-18T12:25:45Z</time></trkpt><trkpt lat="43.263864146997506" lon="10.801307899093732"><ele>466.0</ele><time>2026-04-18T12:25:46Z</time></trkpt><trkpt lat="43.263905477448304" lon="10.801182662749252"><ele>466.0</ele><time>2026-04-18T12:25:47Z</time></trkpt><trkpt lat="43.263932092064685" lon="10.801026527933955"><ele>465.25</ele><time>2026-04-18T12:25:48Z</time></trkpt><trkpt lat="43.26390708434969" lon="10.800865839363949"><ele>464.5</ele><time>2026-04-18T12:25:49Z</time></trkpt><trkpt lat="43.263849877726464" lon="10.800747795716232"><ele>463.75</ele><time>2026-04-18T12:25:50Z</time></trkpt><trkpt lat="43.26375959346752" lon="10.80066182361083"><ele>463.0</ele><time>2026-04-18T12:25:51Z</time></trkpt><trkpt lat="43.26365532295778" lon="10.800585354152753"><ele>463.0</ele><time>2026-04-18T12:25:52Z</time></trkpt><trkpt lat="43.26355800927021" lon="10.80045672516119"><ele>463.0</ele><time>2026-04-18T12:25:53Z</time></trkpt><trkpt lat="43.26344917856406" lon="10.800342053260328"><ele>463.0</ele><time>2026-04-18T12:25:54Z</time></trkpt><trkpt lat="43.2633298867628" lon="10.800219342125137"><ele>463.0</ele><time>2026-04-18T12:25:55Z</time></trkpt><trkpt lat="43.26319138603087" lon="10.80008495281897"><ele>465.0</ele><time>2026-04-18T12:25:56Z</time></trkpt><trkpt lat="43.26306463591789" lon="10.799967540806412"><ele>467.0</ele><time>2026-04-18T12:25:57Z</time></trkpt><trkpt lat="43.2629306037438" lon="10.799864780709523"><ele>469.0</ele><time>2026-04-18T12:25:58Z</time></trkpt><trkpt lat="43.2627670513543" lon="10.799704922089175"><ele>469.0</ele><time>2026-04-18T12:25:59Z</time></trkpt><trkpt lat="43.26263758882102" lon="10.799557808454681"><ele>469.0</ele><time>2026-04-18T12:26:00Z</time></trkpt><trkpt lat="43.26252487090357" lon="10.799433620286802"><ele>469.0</ele><time>2026-04-18T12:26:01Z</time></trkpt><trkpt lat="43.2624443187713" lon="10.799335292028099"><ele>469.0</ele><time>2026-04-18T12:26:02Z</time></trkpt><trkpt lat="43.26237814891763" lon="10.799222965050397"><ele>470.5</ele><time>2026-04-18T12:26:03Z</time></trkpt><trkpt lat="43.262350286483716" lon="10.799113543973945"><ele>472.0</ele><time>2026-04-18T12:26:04Z</time></trkpt><trkpt lat="43.26231351464096" lon="10.798972130980413"><ele>473.5</ele><time>2026-04-18T12:26:05Z</time></trkpt><trkpt lat="43.26226558586172" lon="10.798784164813105"><ele>475.0</ele><time>2026-04-18T12:26:06Z</time></trkpt><trkpt lat="43.26221690889385" lon="10.798584333198598"><ele>479.6666666666667</ele><time>2026-04-18T12:26:07Z</time></trkpt><trkpt lat="43.26216608714709" lon="10.798363196642688"><ele>484.33333333333337</ele><time>2026-04-18T12:26:08Z</time></trkpt><trkpt lat="43.262116673445384" lon="10.798148186777974"><ele>489.0</ele><time>2026-04-18T12:26:09Z</time></trkpt><trkpt lat="43.26206003722613" lon="10.797909840813778"><ele>489.0</ele><time>2026-04-18T12:26:10Z</time></trkpt><trkpt lat="43.262007350664106" lon="10.797690805847317"><ele>489.0</ele><time>2026-04-18T12:26:11Z</time></trkpt><trkpt lat="43.26196002545352" lon="10.7975045294839"><ele>489.0</ele><time>2026-04-18T12:26:12Z</time></trkpt><trkpt lat="43.26191171959309" lon="10.797326787011764"><ele>488.5</ele><time>2026-04-18T12:26:13Z</time></trkpt><trkpt lat="43.26185246372446" lon="10.797125470981412"><ele>488.0</ele><time>2026-04-18T12:26:14Z</time></trkpt><trkpt lat="43.26179718394666" lon="10.796942477419458"><ele>487.5</ele><time>2026-04-18T12:26:15Z</time></trkpt><trkpt lat="43.26174639260821" lon="10.796789178437226"><ele>487.0</ele><time>2026-04-18T12:26:16Z</time></trkpt><trkpt lat="43.261697957762514" lon="10.796640965393378"><ele>484.6666666666667</ele><time>2026-04-18T12:26:17Z</time></trkpt><trkpt lat="43.26164275115668" lon="10.796466872111322"><ele>482.33333333333337</ele><time>2026-04-18T12:26:18Z</time></trkpt><trkpt lat="43.26157917794122" lon="10.796257381907157"><ele>480.0</ele><time>2026-04-18T12:26:19Z</time></trkpt><trkpt lat="43.261512198594204" lon="10.796054599320692"><ele>479.0</ele><time>2026-04-18T12:26:20Z</time></trkpt><trkpt lat="43.261445517231486" lon="10.795856234444678"><ele>478.0</ele><time>2026-04-18T12:26:21Z</time></trkpt><trkpt lat="43.261365342835965" lon="10.795646377354116"><ele>477.0</ele><time>2026-04-18T12:26:22Z</time></trkpt><trkpt lat="43.26129430453157" lon="10.795438203560987"><ele>477.0</ele><time>2026-04-18T12:26:23Z</time></trkpt><trkpt lat="43.26120707009912" lon="10.795256843561411"><ele>477.0</ele><time>2026-04-18T12:26:24Z</time></trkpt><trkpt lat="43.26111037995192" lon="10.795085013904604"><ele>477.0</ele><time>2026-04-18T12:26:25Z</time></trkpt><trkpt lat="43.26100280502818" lon="10.79489192942971"><ele>474.33333333333337</ele><time>2026-04-18T12:26:26Z</time></trkpt><trkpt lat="43.260892421539225" lon="10.794681304968927"><ele>471.6666666666667</ele><time>2026-04-18T12:26:27Z</time></trkpt><trkpt lat="43.26081018984691" lon="10.79448817835932"><ele>469.0</ele><time>2026-04-18T12:26:28Z</time></trkpt><trkpt lat="43.26072982756503" lon="10.794309480984746"><ele>467.0</ele><time>2026-04-18T12:26:29Z</time></trkpt><trkpt lat="43.26064624293419" lon="10.794117347596169"><ele>465.0</ele><time>2026-04-18T12:26:30Z</time></trkpt><trkpt lat="43.26057382623136" lon="10.793940265945572"><ele>463.0</ele><time>2026-04-18T12:26:31Z</time></trkpt><trkpt lat="43.26050990905061" lon="10.793763398872896"><ele>461.6666666666667</ele><time>2026-04-18T12:26:32Z</time></trkpt><trkpt lat="43.26044376423518" lon="10.7935629020067"><ele>460.33333333333337</ele><time>2026-04-18T12:26:33Z</time></trkpt><trkpt lat="43.2603726191557" lon="10.793356050551967"><ele>459.0</ele><time>2026-04-18T12:26:34Z</time></trkpt><trkpt lat="43.26029887461254" lon="10.79314261310961"><ele>459.0</ele><time>2026-04-18T12:26:35Z</time></trkpt><trkpt lat="43.260220429630614" lon="10.792915571085341"><ele>459.0</ele><time>2026-04-18T12:26:36Z</time></trkpt><trkpt lat="43.26011187830729" lon="10.792694885173603"><ele>459.0</ele><time>2026-04-18T12:26:37Z</time></trkpt><trkpt lat="43.260005844111724" lon="10.792487165402862"><ele>460.0</ele><time>2026-04-18T12:26:38Z</time></trkpt><trkpt lat="43.25989372499138" lon="10.792277640633984"><ele>461.0</ele><time>2026-04-18T12:26:39Z</time></trkpt><trkpt lat="43.25977449925832" lon="10.792075516174725"><ele>462.0</ele><time>2026-04-18T12:26:40Z</time></trkpt><trkpt lat="43.25964723555071" lon="10.7918777189031"><ele>460.66666666666663</ele><time>2026-04-18T12:26:41Z</time></trkpt><trkpt lat="43.25952413513138" lon="10.791686647198324"><ele>459.3333333333333</ele><time>2026-04-18T12:26:42Z</time></trkpt><trkpt lat="43.259409647127825" lon="10.791509715314868"><ele>458.0</ele><time>2026-04-18T12:26:43Z</time></trkpt><trkpt lat="43.25929807027087" lon="10.791310610954454"><ele>458.0</ele><time>2026-04-18T12:26:44Z</time></trkpt><trkpt lat="43.25919423351708" lon="10.791099974079351"><ele>458.0</ele><time>2026-04-18T12:26:45.001Z</time></trkpt><trkpt lat="43.259097582226445" lon="10.79089181996482"><ele>458.0</ele><time>2026-04-18T12:26:46.001Z</time></trkpt><trkpt lat="43.25900687334867" lon="10.790680539763287"><ele>457.66666666666663</ele><time>2026-04-18T12:26:47.001Z</time></trkpt><trkpt lat="43.258926407296315" lon="10.790482655660385"><ele>457.33333333333337</ele><time>2026-04-18T12:26:48Z</time></trkpt><trkpt lat="43.25885286016141" lon="10.790299149327204"><ele>457.0</ele><time>2026-04-18T12:26:49Z</time></trkpt><trkpt lat="43.25877539382247" lon="10.790091460303834"><ele>457.0</ele><time>2026-04-18T12:26:50Z</time></trkpt><trkpt lat="43.25870360995399" lon="10.789882298826384"><ele>457.0</ele><time>2026-04-18T12:26:51Z</time></trkpt><trkpt lat="43.25864296393572" lon="10.789684066260017"><ele>457.0</ele><time>2026-04-18T12:26:52Z</time></trkpt><trkpt lat="43.258591384163076" lon="10.789495909813656"><ele>456.33333333333337</ele><time>2026-04-18T12:26:53Z</time></trkpt><trkpt lat="43.258542307849474" lon="10.78929331661705"><ele>455.66666666666663</ele><time>2026-04-18T12:26:54Z</time></trkpt><trkpt lat="43.25849777949532" lon="10.789066825145587"><ele>455.0</ele><time>2026-04-18T12:26:55Z</time></trkpt><trkpt lat="43.25846277538434" lon="10.788808766494705"><ele>455.0</ele><time>2026-04-18T12:26:56Z</time></trkpt><trkpt lat="43.25844896876656" lon="10.78853189092841"><ele>455.0</ele><time>2026-04-18T12:26:57Z</time></trkpt><trkpt lat="43.258440985778655" lon="10.788334075073704"><ele>455.0</ele><time>2026-04-18T12:26:58Z</time></trkpt><trkpt lat="43.258433867703616" lon="10.78815769152156"><ele>455.0</ele><time>2026-04-18T12:26:59Z</time></trkpt><trkpt lat="43.258373035984036" lon="10.787957632886025"><ele>455.0</ele><time>2026-04-18T12:27:00Z</time></trkpt><trkpt lat="43.258371575412376" lon="10.787772217068461"><ele>455.0</ele><time>2026-04-18T12:27:01Z</time></trkpt><trkpt lat="43.258366959209305" lon="10.787600015895565"><ele>455.0</ele><time>2026-04-18T12:27:02Z</time></trkpt><trkpt lat="43.258349404625974" lon="10.787456732051925"><ele>455.4</ele><time>2026-04-18T12:27:03Z</time></trkpt><trkpt lat="43.258309593422084" lon="10.787325469673691"><ele>455.8</ele><time>2026-04-18T12:27:04Z</time></trkpt><trkpt lat="43.258249571417366" lon="10.787223950857848"><ele>456.20000000000005</ele><time>2026-04-18T12:27:05Z</time></trkpt><trkpt lat="43.25815965820794" lon="10.787141563754103"><ele>456.6</ele><time>2026-04-18T12:27:06Z</time></trkpt><trkpt lat="43.25805104698975" lon="10.787071948758074"><ele>457.0</ele><time>2026-04-18T12:27:07Z</time></trkpt><trkpt lat="43.25792018373004" lon="10.786983391383897"><ele>454.0</ele><time>2026-04-18T12:27:08Z</time></trkpt><trkpt lat="43.257799126238645" lon="10.786876083446792"><ele>451.0</ele><time>2026-04-18T12:27:09Z</time></trkpt><trkpt lat="43.257677774108636" lon="10.786749530068311"><ele>448.0</ele><time>2026-04-18T12:27:10Z</time></trkpt><trkpt lat="43.257548481953194" lon="10.786604042648053"><ele>448.0</ele><time>2026-04-18T12:27:11Z</time></trkpt><trkpt lat="43.257420766171506" lon="10.786451807916649"><ele>448.0</ele><time>2026-04-18T12:27:12Z</time></trkpt><trkpt lat="43.257308759069424" lon="10.78630117641682"><ele>448.0</ele><time>2026-04-18T12:27:13Z</time></trkpt><trkpt lat="43.25720552808015" lon="10.78615260623553"><ele>445.59999999999997</ele><time>2026-04-18T12:27:14Z</time></trkpt><trkpt lat="43.25712836296319" lon="10.78603691229751"><ele>443.19999999999993</ele><time>2026-04-18T12:27:15Z</time></trkpt><trkpt lat="43.257093708823426" lon="10.785923184668611"><ele>440.8</ele><time>2026-04-18T12:27:16Z</time></trkpt><trkpt lat="43.25709679002465" lon="10.785809789388304"><ele>438.4</ele><time>2026-04-18T12:27:17Z</time></trkpt><trkpt lat="43.2571112281407" lon="10.78567220325894"><ele>436.0</ele><time>2026-04-18T12:27:18Z</time></trkpt><trkpt lat="43.25713504186377" lon="10.785519710013245"><ele>436.0</ele><time>2026-04-18T12:27:19Z</time></trkpt><trkpt lat="43.25721927606319" lon="10.785344775907802"><ele>436.0</ele><time>2026-04-18T12:27:20Z</time></trkpt><trkpt lat="43.25719711253601" lon="10.78516842570429"><ele>436.0</ele><time>2026-04-18T12:27:21Z</time></trkpt><trkpt lat="43.25709850852604" lon="10.78501675588085"><ele>436.0</ele><time>2026-04-18T12:27:22Z</time></trkpt><trkpt lat="43.25701996820746" lon="10.784867645098837"><ele>437.0</ele><time>2026-04-18T12:27:23Z</time></trkpt><trkpt lat="43.256954792219126" lon="10.78471945572795"><ele>438.0</ele><time>2026-04-18T12:27:24Z</time></trkpt><trkpt lat="43.256909339534836" lon="10.784581958276167"><ele>439.0</ele><time>2026-04-18T12:27:25Z</time></trkpt><trkpt lat="43.25687078790923" lon="10.784439733762285"><ele>440.0</ele><time>2026-04-18T12:27:26Z</time></trkpt><trkpt lat="43.256830539597885" lon="10.784264036308466"><ele>441.0</ele><time>2026-04-18T12:27:27Z</time></trkpt><trkpt lat="43.25679776345971" lon="10.784054398682207"><ele>442.0</ele><time>2026-04-18T12:27:28Z</time></trkpt><trkpt lat="43.25677827113166" lon="10.783853042211792"><ele>443.0</ele><time>2026-04-18T12:27:29Z</time></trkpt><trkpt lat="43.25676055176123" lon="10.78367750073864"><ele>444.0</ele><time>2026-04-18T12:27:30Z</time></trkpt><trkpt lat="43.25674389902584" lon="10.783514460526867"><ele>445.0</ele><time>2026-04-18T12:27:31Z</time></trkpt><trkpt lat="43.256728746147296" lon="10.783378442386354"><ele>446.0</ele><time>2026-04-18T12:27:32Z</time></trkpt><trkpt lat="43.256697434980744" lon="10.783245394092695"><ele>447.0</ele><time>2026-04-18T12:27:33Z</time></trkpt><trkpt lat="43.25665398449971" lon="10.783129364971245"><ele>448.0</ele><time>2026-04-18T12:27:34Z</time></trkpt><trkpt lat="43.25658112821009" lon="10.783046079242698"><ele>449.0</ele><time>2026-04-18T12:27:35Z</time></trkpt><trkpt lat="43.256484449692" lon="10.7830113379637"><ele>449.5</ele><time>2026-04-18T12:27:36Z</time></trkpt><trkpt lat="43.25637515730812" lon="10.783036436590622"><ele>450.0</ele><time>2026-04-18T12:27:37Z</time></trkpt><trkpt lat="43.25627027325647" lon="10.783037028455336"><ele>450.5</ele><time>2026-04-18T12:27:38Z</time></trkpt><trkpt lat="43.25615567645354" lon="10.783034300400743"><ele>451.0</ele><time>2026-04-18T12:27:39Z</time></trkpt><trkpt lat="43.2560359864544" lon="10.783028054354034"><ele>451.0</ele><time>2026-04-18T12:27:40Z</time></trkpt><trkpt lat="43.25593470097482" lon="10.783012516306375"><ele>451.0</ele><time>2026-04-18T12:27:41Z</time></trkpt><trkpt lat="43.255834939014804" lon="10.782974985125188"><ele>451.0</ele><time>2026-04-18T12:27:42Z</time></trkpt><trkpt lat="43.25576380746444" lon="10.782887478149746"><ele>451.0</ele><time>2026-04-18T12:27:43Z</time></trkpt><trkpt lat="43.25567764758739" lon="10.782780045611124"><ele>451.0</ele><time>2026-04-18T12:27:44Z</time></trkpt><trkpt lat="43.25559664842134" lon="10.78268367625866"><ele>451.0</ele><time>2026-04-18T12:27:45Z</time></trkpt><trkpt lat="43.25550132461714" lon="10.782558229941648"><ele>451.0</ele><time>2026-04-18T12:27:46Z</time></trkpt><trkpt lat="43.25542372873019" lon="10.782441524635427"><ele>451.0</ele><time>2026-04-18T12:27:47Z</time></trkpt><trkpt lat="43.255370700475495" lon="10.782326053121942"><ele>451.0</ele><time>2026-04-18T12:27:48Z</time></trkpt><trkpt lat="43.25535328242677" lon="10.782238482745447"><ele>451.0</ele><time>2026-04-18T12:27:49Z</time></trkpt><trkpt lat="43.25534646384143" lon="10.78214722519675"><ele>451.0</ele><time>2026-04-18T12:27:50Z</time></trkpt><trkpt lat="43.25533224333947" lon="10.782013944312864"><ele>451.0</ele><time>2026-04-18T12:27:51Z</time></trkpt><trkpt lat="43.25531154211437" lon="10.781859361142997"><ele>451.0</ele><time>2026-04-18T12:27:52Z</time></trkpt><trkpt lat="43.25523269043376" lon="10.78169457184612"><ele>451.0</ele><time>2026-04-18T12:27:53Z</time></trkpt><trkpt lat="43.25516558124504" lon="10.781547241548234"><ele>452.75</ele><time>2026-04-18T12:27:54Z</time></trkpt><trkpt lat="43.25508918742577" lon="10.781423201904621"><ele>454.5</ele><time>2026-04-18T12:27:55Z</time></trkpt><trkpt lat="43.25499565277335" lon="10.781318785683801"><ele>456.25</ele><time>2026-04-18T12:27:56Z</time></trkpt><trkpt lat="43.254879399158874" lon="10.78120376398615"><ele>458.0</ele><time>2026-04-18T12:27:57Z</time></trkpt><trkpt lat="43.25476475265659" lon="10.781114763524993"><ele>458.0</ele><time>2026-04-18T12:27:58Z</time></trkpt><trkpt lat="43.25465944733226" lon="10.781063314651886"><ele>457.99999999999994</ele><time>2026-04-18T12:27:59Z</time></trkpt><trkpt lat="43.25456675884644" lon="10.78109411059144"><ele>457.99999999999994</ele><time>2026-04-18T12:28:00Z</time></trkpt><trkpt lat="43.25449257323398" lon="10.781166181402877"><ele>458.0</ele><time>2026-04-18T12:28:01Z</time></trkpt><trkpt lat="43.25438408737462" lon="10.781203297609638"><ele>458.0</ele><time>2026-04-18T12:28:02Z</time></trkpt><trkpt lat="43.2542535391169" lon="10.781248714430001"><ele>458.0</ele><time>2026-04-18T12:28:03Z</time></trkpt><trkpt lat="43.25412921683045" lon="10.78125581821654"><ele>458.0</ele><time>2026-04-18T12:28:04Z</time></trkpt><trkpt lat="43.254033727521296" lon="10.781160526488186"><ele>458.0</ele><time>2026-04-18T12:28:05Z</time></trkpt><trkpt lat="43.25393156531681" lon="10.781054614197274"><ele>458.0</ele><time>2026-04-18T12:28:06Z</time></trkpt><trkpt lat="43.2538278928335" lon="10.78095084512113"><ele>459.0</ele><time>2026-04-18T12:28:07Z</time></trkpt><trkpt lat="43.25372478537584" lon="10.780825143933896"><ele>460.0</ele><time>2026-04-18T12:28:08Z</time></trkpt><trkpt lat="43.25363597306209" lon="10.780681485694094"><ele>461.0</ele><time>2026-04-18T12:28:09Z</time></trkpt><trkpt lat="43.253592955731484" lon="10.7805681559451"><ele>462.0</ele><time>2026-04-18T12:28:10Z</time></trkpt><trkpt lat="43.253552120111095" lon="10.780396289269317"><ele>462.0</ele><time>2026-04-18T12:28:11Z</time></trkpt><trkpt lat="43.25348239824532" lon="10.780221853543976"><ele>462.0</ele><time>2026-04-18T12:28:12Z</time></trkpt><trkpt lat="43.253382835044015" lon="10.780059211324685"><ele>462.0</ele><time>2026-04-18T12:28:13Z</time></trkpt><trkpt lat="43.25327493419574" lon="10.779905375256805"><ele>461.33333333333337</ele><time>2026-04-18T12:28:14Z</time></trkpt><trkpt lat="43.253152934203875" lon="10.779755009984923"><ele>460.6666666666667</ele><time>2026-04-18T12:28:15Z</time></trkpt><trkpt lat="43.25302596830258" lon="10.779618268829882"><ele>460.0</ele><time>2026-04-18T12:28:16Z</time></trkpt><trkpt lat="43.252903397476864" lon="10.779493340128969"><ele>460.0</ele><time>2026-04-18T12:28:17Z</time></trkpt><trkpt lat="43.25276897214326" lon="10.779363660418305"><ele>460.0</ele><time>2026-04-18T12:28:18Z</time></trkpt><trkpt lat="43.25262657075639" lon="10.779234975701153"><ele>460.0</ele><time>2026-04-18T12:28:19Z</time></trkpt><trkpt lat="43.25246811534905" lon="10.779099354890109"><ele>462.0</ele><time>2026-04-18T12:28:20Z</time></trkpt><trkpt lat="43.25230925402678" lon="10.778966089214949"><ele>464.0</ele><time>2026-04-18T12:28:21Z</time></trkpt><trkpt lat="43.25216890486456" lon="10.778848353044674"><ele>466.0</ele><time>2026-04-18T12:28:22Z</time></trkpt><trkpt lat="43.25200116577067" lon="10.77870840922743"><ele>466.0</ele><time>2026-04-18T12:28:23Z</time></trkpt><trkpt lat="43.25182031635969" lon="10.778559949401055"><ele>466.0</ele><time>2026-04-18T12:28:24Z</time></trkpt><trkpt lat="43.251464914874205" lon="10.778303351473205"><ele>468.0</ele><time>2026-04-18T12:28:26Z</time></trkpt><trkpt lat="43.25130485498346" lon="10.778195178854004"><ele>470.0</ele><time>2026-04-18T12:28:27Z</time></trkpt><trkpt lat="43.25117167788898" lon="10.778106510040198"><ele>472.0</ele><time>2026-04-18T12:28:28Z</time></trkpt><trkpt lat="43.25105051656507" lon="10.778028690000268"><ele>472.0</ele><time>2026-04-18T12:28:29Z</time></trkpt><trkpt lat="43.250939903361" lon="10.777969624438168"><ele>472.00000000000006</ele><time>2026-04-18T12:28:30Z</time></trkpt><trkpt lat="43.25086082400713" lon="10.777933918743473"><ele>472.00000000000006</ele><time>2026-04-18T12:28:31Z</time></trkpt><trkpt lat="43.25076549040074" lon="10.777932835765915"><ele>472.0</ele><time>2026-04-18T12:28:32Z</time></trkpt><trkpt lat="43.25066909910848" lon="10.777988136917642"><ele>472.0</ele><time>2026-04-18T12:28:33Z</time></trkpt><trkpt lat="43.250536400781876" lon="10.778048191087066"><ele>473.33333333333337</ele><time>2026-04-18T12:28:34Z</time></trkpt><trkpt lat="43.25038759081475" lon="10.778092996620423"><ele>474.66666666666663</ele><time>2026-04-18T12:28:35Z</time></trkpt><trkpt lat="43.25022167945567" lon="10.77810943648585"><ele>476.0</ele><time>2026-04-18T12:28:36.001Z</time></trkpt><trkpt lat="43.25006706051457" lon="10.77809743622613"><ele>476.0</ele><time>2026-04-18T12:28:37.001Z</time></trkpt><trkpt lat="43.249931187822334" lon="10.77804518683454"><ele>476.0</ele><time>2026-04-18T12:28:38.001Z</time></trkpt><trkpt lat="43.2498454305683" lon="10.777991612947757"><ele>476.0</ele><time>2026-04-18T12:28:39.001Z</time></trkpt><trkpt lat="43.249793912452915" lon="10.777937735196845"><ele>476.0</ele><time>2026-04-18T12:28:40.001Z</time></trkpt><trkpt lat="43.24974042152946" lon="10.77788664159001"><ele>476.0</ele><time>2026-04-18T12:28:41.001Z</time></trkpt><trkpt lat="43.24967615516911" lon="10.777808782804938"><ele>481.5</ele><time>2026-04-18T12:28:42.001Z</time></trkpt><trkpt lat="43.24959457699319" lon="10.777705905437607"><ele>487.0</ele><time>2026-04-18T12:28:43.001Z</time></trkpt><trkpt lat="43.24950039483149" lon="10.77759425061206"><ele>492.5</ele><time>2026-04-18T12:28:44.001Z</time></trkpt><trkpt lat="43.24940878654201" lon="10.777473221453713"><ele>498.0</ele><time>2026-04-18T12:28:45.001Z</time></trkpt><trkpt lat="43.2493091806769" lon="10.777334781220336"><ele>498.0</ele><time>2026-04-18T12:28:46.001Z</time></trkpt><trkpt lat="43.249240762413024" lon="10.777171365422022"><ele>498.0</ele><time>2026-04-18T12:28:47.001Z</time></trkpt><trkpt lat="43.249208844635604" lon="10.777037568946838"><ele>498.0</ele><time>2026-04-18T12:28:48.001Z</time></trkpt><trkpt lat="43.24916881955306" lon="10.77688315650234"><ele>498.0</ele><time>2026-04-18T12:28:49.001Z</time></trkpt><trkpt lat="43.249108840664164" lon="10.776750767370801"><ele>497.0</ele><time>2026-04-18T12:28:50.001Z</time></trkpt><trkpt lat="43.249066771647826" lon="10.776609028847766"><ele>495.99999999999994</ele><time>2026-04-18T12:28:51.001Z</time></trkpt><trkpt lat="43.24900535433722" lon="10.776490914463144"><ele>494.99999999999994</ele><time>2026-04-18T12:28:52.001Z</time></trkpt><trkpt lat="43.24893132250484" lon="10.77638101959573"><ele>494.0</ele><time>2026-04-18T12:28:53.001Z</time></trkpt><trkpt lat="43.24883574863388" lon="10.776287221166365"><ele>493.0</ele><time>2026-04-18T12:28:54Z</time></trkpt><trkpt lat="43.24874352591262" lon="10.776158366112709"><ele>495.0</ele><time>2026-04-18T12:28:55Z</time></trkpt><trkpt lat="43.24866465590964" lon="10.776015880389043"><ele>496.99999999999994</ele><time>2026-04-18T12:28:56Z</time></trkpt><trkpt lat="43.24857810492011" lon="10.77587204273797"><ele>498.99999999999994</ele><time>2026-04-18T12:28:57Z</time></trkpt><trkpt lat="43.24850581390064" lon="10.775788646593771"><ele>501.0</ele><time>2026-04-18T12:28:58Z</time></trkpt><trkpt lat="43.24844914364583" lon="10.775745688060013"><ele>503.0</ele><time>2026-04-18T12:28:59Z</time></trkpt><trkpt lat="43.24837978709299" lon="10.775755151153291"><ele>503.0</ele><time>2026-04-18T12:29:00Z</time></trkpt><trkpt lat="43.24829618211091" lon="10.775797707819104"><ele>502.99999999999994</ele><time>2026-04-18T12:29:01Z</time></trkpt><trkpt lat="43.24820786576665" lon="10.775865379448893"><ele>502.99999999999994</ele><time>2026-04-18T12:29:02Z</time></trkpt><trkpt lat="43.24809650267004" lon="10.77591316316284"><ele>503.0</ele><time>2026-04-18T12:29:03Z</time></trkpt><trkpt lat="43.24798719621617" lon="10.775965902942252"><ele>503.0</ele><time>2026-04-18T12:29:04Z</time></trkpt><trkpt lat="43.24786344172932" lon="10.775981142647584"><ele>503.5</ele><time>2026-04-18T12:29:05Z</time></trkpt><trkpt lat="43.247748294187225" lon="10.775916990944827"><ele>504.0</ele><time>2026-04-18T12:29:06Z</time></trkpt><trkpt lat="43.24760938753498" lon="10.775862136667795"><ele>504.5</ele><time>2026-04-18T12:29:07Z</time></trkpt><trkpt lat="43.247482173961416" lon="10.775869881745297"><ele>505.0</ele><time>2026-04-18T12:29:08Z</time></trkpt><trkpt lat="43.247357333038146" lon="10.775968203553516"><ele>510.25</ele><time>2026-04-18T12:29:09Z</time></trkpt><trkpt lat="43.24722395037665" lon="10.776063048643543"><ele>515.5</ele><time>2026-04-18T12:29:10Z</time></trkpt><trkpt lat="43.247097844173645" lon="10.776136803130463"><ele>520.75</ele><time>2026-04-18T12:29:11Z</time></trkpt><trkpt lat="43.24698082263814" lon="10.776174591476305"><ele>526.0</ele><time>2026-04-18T12:29:12Z</time></trkpt><trkpt lat="43.246894653461126" lon="10.776137543375107"><ele>526.0</ele><time>2026-04-18T12:29:13Z</time></trkpt><trkpt lat="43.24681653905412" lon="10.776106305839107"><ele>526.0</ele><time>2026-04-18T12:29:14Z</time></trkpt><trkpt lat="43.24675549285016" lon="10.776039856494673"><ele>526.0</ele><time>2026-04-18T12:29:15Z</time></trkpt><trkpt lat="43.24667947431206" lon="10.775929877522646"><ele>526.0</ele><time>2026-04-18T12:29:16Z</time></trkpt><trkpt lat="43.24659485532768" lon="10.775809397411614"><ele>526.0</ele><time>2026-04-18T12:29:17Z</time></trkpt><trkpt lat="43.24646628931715" lon="10.775674955191956"><ele>523.0</ele><time>2026-04-18T12:29:18Z</time></trkpt><trkpt lat="43.24635166415807" lon="10.775565355475019"><ele>520.0</ele><time>2026-04-18T12:29:19Z</time></trkpt><trkpt lat="43.24625671789022" lon="10.77542843244504"><ele>517.0</ele><time>2026-04-18T12:29:20Z</time></trkpt><trkpt lat="43.2461832364189" lon="10.775251590670829"><ele>514.0</ele><time>2026-04-18T12:29:21Z</time></trkpt><trkpt lat="43.246088783613494" lon="10.775101156445425"><ele>512.5</ele><time>2026-04-18T12:29:22Z</time></trkpt><trkpt lat="43.24600681163521" lon="10.774993788311445"><ele>511.0</ele><time>2026-04-18T12:29:23Z</time></trkpt><trkpt lat="43.2459427394731" lon="10.774921204726324"><ele>509.5</ele><time>2026-04-18T12:29:24Z</time></trkpt><trkpt lat="43.24585966415034" lon="10.774933379450456"><ele>508.0</ele><time>2026-04-18T12:29:25Z</time></trkpt><trkpt lat="43.24580163410607" lon="10.774977844846225"><ele>506.50000000000006</ele><time>2026-04-18T12:29:26Z</time></trkpt><trkpt lat="43.24573307021888" lon="10.775058427352622"><ele>505.0</ele><time>2026-04-18T12:29:27Z</time></trkpt><trkpt lat="43.24560811862288" lon="10.775075472780804"><ele>504.6</ele><time>2026-04-18T12:29:28Z</time></trkpt><trkpt lat="43.24551220566848" lon="10.775093773031918"><ele>504.2</ele><time>2026-04-18T12:29:29Z</time></trkpt><trkpt lat="43.245447460523856" lon="10.77509678733638"><ele>503.79999999999995</ele><time>2026-04-18T12:29:30Z</time></trkpt><trkpt lat="43.24533988324114" lon="10.775015288962386"><ele>503.4</ele><time>2026-04-18T12:29:32Z</time></trkpt><trkpt lat="43.24525596197355" lon="10.774937808191803"><ele>503.0</ele><time>2026-04-18T12:29:33Z</time></trkpt><trkpt lat="43.24513313973415" lon="10.774845913626248"><ele>503.0</ele><time>2026-04-18T12:29:34Z</time></trkpt><trkpt lat="43.24501093033533" lon="10.774769103159503"><ele>503.0</ele><time>2026-04-18T12:29:35Z</time></trkpt><trkpt lat="43.24488625279742" lon="10.774690741459045"><ele>503.0</ele><time>2026-04-18T12:29:36Z</time></trkpt><trkpt lat="43.24475209165241" lon="10.774603545556351"><ele>503.0</ele><time>2026-04-18T12:29:37Z</time></trkpt><trkpt lat="43.24459811831636" lon="10.774520953060254"><ele>502.5</ele><time>2026-04-18T12:29:38Z</time></trkpt><trkpt lat="43.24446421006225" lon="10.774424121114427"><ele>502.0</ele><time>2026-04-18T12:29:39Z</time></trkpt><trkpt lat="43.24433697201103" lon="10.774332092696419"><ele>501.5</ele><time>2026-04-18T12:29:40Z</time></trkpt><trkpt lat="43.24422201432654" lon="10.774248801108577"><ele>501.0</ele><time>2026-04-18T12:29:41Z</time></trkpt><trkpt lat="43.24412348108688" lon="10.77416540928315"><ele>501.0</ele><time>2026-04-18T12:29:42Z</time></trkpt><trkpt lat="43.24407098067112" lon="10.774038819184057"><ele>501.0</ele><time>2026-04-18T12:29:43Z</time></trkpt><trkpt lat="43.24403773788403" lon="10.77389127304332"><ele>501.0</ele><time>2026-04-18T12:29:44Z</time></trkpt><trkpt lat="43.2440222474547" lon="10.773738534465458"><ele>501.0</ele><time>2026-04-18T12:29:45Z</time></trkpt><trkpt lat="43.24399752767788" lon="10.773590444977298"><ele>501.0</ele><time>2026-04-18T12:29:46Z</time></trkpt><trkpt lat="43.24396728592698" lon="10.773441139551972"><ele>501.5</ele><time>2026-04-18T12:29:47Z</time></trkpt><trkpt lat="43.243920453626245" lon="10.773316213113377"><ele>502.0</ele><time>2026-04-18T12:29:48Z</time></trkpt><trkpt lat="43.24384958828334" lon="10.77319261701811"><ele>502.5</ele><time>2026-04-18T12:29:49Z</time></trkpt><trkpt lat="43.2437439037075" lon="10.773097494956412"><ele>503.0</ele><time>2026-04-18T12:29:50Z</time></trkpt><trkpt lat="43.24366835390304" lon="10.772965341823218"><ele>503.0</ele><time>2026-04-18T12:29:51Z</time></trkpt><trkpt lat="43.24363503391975" lon="10.772821061872389"><ele>503.0</ele><time>2026-04-18T12:29:52Z</time></trkpt><trkpt lat="43.24362795275773" lon="10.772671968735274"><ele>503.0</ele><time>2026-04-18T12:29:53Z</time></trkpt><trkpt lat="43.243626254888035" lon="10.772493707084914"><ele>503.0</ele><time>2026-04-18T12:29:54Z</time></trkpt><trkpt lat="43.243629023217984" lon="10.772310246494849"><ele>503.0</ele><time>2026-04-18T12:29:55Z</time></trkpt><trkpt lat="43.24364125209589" lon="10.772119903320615"><ele>503.0</ele><time>2026-04-18T12:29:56Z</time></trkpt><trkpt lat="43.243652964029565" lon="10.771945117878495"><ele>503.0</ele><time>2026-04-18T12:29:57Z</time></trkpt><trkpt lat="43.24365934519286" lon="10.771794132408127"><ele>503.0</ele><time>2026-04-18T12:29:58Z</time></trkpt><trkpt lat="43.24365098232929" lon="10.771670330302216"><ele>503.0</ele><time>2026-04-18T12:29:59Z</time></trkpt><trkpt lat="43.243617555904166" lon="10.77157547386066"><ele>502.99999999999994</ele><time>2026-04-18T12:30:00Z</time></trkpt><trkpt lat="43.24358809651155" lon="10.771497321652761"><ele>502.99999999999994</ele><time>2026-04-18T12:30:01Z</time></trkpt><trkpt lat="43.243491848597984" lon="10.771424755603944"><ele>503.0</ele><time>2026-04-18T12:30:02Z</time></trkpt><trkpt lat="43.24336022245294" lon="10.771402416007186"><ele>503.0</ele><time>2026-04-18T12:30:03Z</time></trkpt><trkpt lat="43.24323125541173" lon="10.77142569065834"><ele>503.0</ele><time>2026-04-18T12:30:04Z</time></trkpt><trkpt lat="43.24315468799129" lon="10.771400546047493"><ele>502.99999999999994</ele><time>2026-04-18T12:30:05Z</time></trkpt><trkpt lat="43.24308056784148" lon="10.771363913850358"><ele>502.99999999999994</ele><time>2026-04-18T12:30:06Z</time></trkpt><trkpt lat="43.243090526235186" lon="10.771225772446847"><ele>503.0</ele><time>2026-04-18T12:30:07Z</time></trkpt><trkpt lat="43.243059120439476" lon="10.771083025499005"><ele>503.0</ele><time>2026-04-18T12:30:08Z</time></trkpt><trkpt lat="43.243011264031445" lon="10.770912601963602"><ele>503.75</ele><time>2026-04-18T12:30:09Z</time></trkpt><trkpt lat="43.24299910559225" lon="10.770719760572176"><ele>504.5</ele><time>2026-04-18T12:30:10Z</time></trkpt><trkpt lat="43.2429743907086" lon="10.77056450066573"><ele>505.25</ele><time>2026-04-18T12:30:11Z</time></trkpt><trkpt lat="43.242936132535284" lon="10.770432947798003"><ele>506.0</ele><time>2026-04-18T12:30:12Z</time></trkpt><trkpt lat="43.24287276231415" lon="10.770294854008858"><ele>502.5</ele><time>2026-04-18T12:30:13Z</time></trkpt><trkpt lat="43.24279805350993" lon="10.77012385554771"><ele>499.0</ele><time>2026-04-18T12:30:14Z</time></trkpt><trkpt lat="43.24272376370765" lon="10.769956314431129"><ele>495.5</ele><time>2026-04-18T12:30:15Z</time></trkpt><trkpt lat="43.24267693066199" lon="10.769798794908136"><ele>492.0</ele><time>2026-04-18T12:30:16Z</time></trkpt><trkpt lat="43.242644032701996" lon="10.769639471546371"><ele>492.0</ele><time>2026-04-18T12:30:17Z</time></trkpt><trkpt lat="43.24262765445217" lon="10.769474387924515"><ele>492.00000000000006</ele><time>2026-04-18T12:30:18Z</time></trkpt><trkpt lat="43.242605200364004" lon="10.769332791258076"><ele>492.00000000000006</ele><time>2026-04-18T12:30:19Z</time></trkpt><trkpt lat="43.24259342577917" lon="10.769218160989302"><ele>492.0</ele><time>2026-04-18T12:30:20Z</time></trkpt><trkpt lat="43.242554047758794" lon="10.769124387318744"><ele>492.0</ele><time>2026-04-18T12:30:21Z</time></trkpt><trkpt lat="43.24250709657451" lon="10.76906358326901"><ele>489.25</ele><time>2026-04-18T12:30:22Z</time></trkpt><trkpt lat="43.242409442273015" lon="10.76903152904691"><ele>486.5</ele><time>2026-04-18T12:30:23Z</time></trkpt><trkpt lat="43.2422812452502" lon="10.76898349885375"><ele>483.75</ele><time>2026-04-18T12:30:24Z</time></trkpt><trkpt lat="43.24212948213907" lon="10.768932053402798"><ele>481.0</ele><time>2026-04-18T12:30:25Z</time></trkpt><trkpt lat="43.24197559137562" lon="10.76887557077559"><ele>481.0</ele><time>2026-04-18T12:30:26Z</time></trkpt><trkpt lat="43.241829653462034" lon="10.768812368906744"><ele>481.0</ele><time>2026-04-18T12:30:27Z</time></trkpt><trkpt lat="43.24169141086301" lon="10.768751793544018"><ele>481.0</ele><time>2026-04-18T12:30:28Z</time></trkpt><trkpt lat="43.241551041801586" lon="10.768758884543015"><ele>481.0</ele><time>2026-04-18T12:30:29Z</time></trkpt><trkpt lat="43.24141418052519" lon="10.768793150242846"><ele>478.75</ele><time>2026-04-18T12:30:30Z</time></trkpt><trkpt lat="43.241291957840765" lon="10.768762687459132"><ele>476.5</ele><time>2026-04-18T12:30:31Z</time></trkpt><trkpt lat="43.24118303702437" lon="10.768725999967836"><ele>474.25</ele><time>2026-04-18T12:30:32Z</time></trkpt><trkpt lat="43.24106115174954" lon="10.768653579411131"><ele>472.0</ele><time>2026-04-18T12:30:33Z</time></trkpt><trkpt lat="43.24093730038288" lon="10.768581940940889"><ele>470.0</ele><time>2026-04-18T12:30:34Z</time></trkpt><trkpt lat="43.240826405818744" lon="10.768521559259604"><ele>468.00000000000006</ele><time>2026-04-18T12:30:35Z</time></trkpt><trkpt lat="43.24073979229763" lon="10.768481053489413"><ele>466.00000000000006</ele><time>2026-04-18T12:30:36Z</time></trkpt><trkpt lat="43.24067454980372" lon="10.76844697330022"><ele>464.0</ele><time>2026-04-18T12:30:37Z</time></trkpt><trkpt lat="43.24058915367551" lon="10.76842334208903"><ele>462.0</ele><time>2026-04-18T12:30:39Z</time></trkpt><trkpt lat="43.24068089560383" lon="10.76826426336185"><ele>462.0</ele><time>2026-04-18T12:32:24.998Z</time></trkpt><trkpt lat="43.240687933364256" lon="10.768175103722454"><ele>462.00000000000006</ele><time>2026-04-18T12:32:25.998Z</time></trkpt><trkpt lat="43.240692818019674" lon="10.768065008531165"><ele>462.00000000000006</ele><time>2026-04-18T12:32:26.998Z</time></trkpt><trkpt lat="43.2406933944235" lon="10.767926243104064"><ele>462.0</ele><time>2026-04-18T12:32:27.998Z</time></trkpt><trkpt lat="43.24070641778495" lon="10.767763131426081"><ele>462.0</ele><time>2026-04-18T12:32:28.998Z</time></trkpt><trkpt lat="43.24073299463109" lon="10.767573339399242"><ele>460.33333333333337</ele><time>2026-04-18T12:32:29.998Z</time></trkpt><trkpt lat="43.24076079183057" lon="10.767382458935803"><ele>458.6666666666667</ele><time>2026-04-18T12:32:30.998Z</time></trkpt><trkpt lat="43.240793672423614" lon="10.767167789438364"><ele>457.0</ele><time>2026-04-18T12:32:31.998Z</time></trkpt><trkpt lat="43.24081109354471" lon="10.766941727939157"><ele>458.0</ele><time>2026-04-18T12:32:32.998Z</time></trkpt><trkpt lat="43.24080569254207" lon="10.766739143970693"><ele>459.0</ele><time>2026-04-18T12:32:33.998Z</time></trkpt><trkpt lat="43.24085225283671" lon="10.766565413235867"><ele>460.0</ele><time>2026-04-18T12:32:34.998Z</time></trkpt><trkpt lat="43.240879952454314" lon="10.766379357949058"><ele>461.0</ele><time>2026-04-18T12:32:35.998Z</time></trkpt><trkpt lat="43.240928368049964" lon="10.76621812885234"><ele>461.0</ele><time>2026-04-18T12:32:36.998Z</time></trkpt><trkpt lat="43.24097134611726" lon="10.766085330524012"><ele>461.0</ele><time>2026-04-18T12:32:37.998Z</time></trkpt><trkpt lat="43.24101341089697" lon="10.76598126818673"><ele>461.0</ele><time>2026-04-18T12:32:38.998Z</time></trkpt><trkpt lat="43.24102981767976" lon="10.765882924439305"><ele>461.0</ele><time>2026-04-18T12:32:39.998Z</time></trkpt><trkpt lat="43.24103723319304" lon="10.765775543526662"><ele>461.0</ele><time>2026-04-18T12:32:40.998Z</time></trkpt><trkpt lat="43.24102812669515" lon="10.765629130988513"><ele>460.25</ele><time>2026-04-18T12:32:41.998Z</time></trkpt><trkpt lat="43.240998527957615" lon="10.765487461359132"><ele>459.5</ele><time>2026-04-18T12:32:42.998Z</time></trkpt><trkpt lat="43.240938859361606" lon="10.765340934896512"><ele>458.75</ele><time>2026-04-18T12:32:43.998Z</time></trkpt><trkpt lat="43.24091126140857" lon="10.765174517123972"><ele>458.0</ele><time>2026-04-18T12:32:44.998Z</time></trkpt><trkpt lat="43.240922965983465" lon="10.76502381506388"><ele>458.0</ele><time>2026-04-18T12:32:45.998Z</time></trkpt><trkpt lat="43.24091249521614" lon="10.764907913143848"><ele>457.99999999999994</ele><time>2026-04-18T12:32:46.998Z</time></trkpt><trkpt lat="43.240890059747585" lon="10.764796316709074"><ele>457.99999999999994</ele><time>2026-04-18T12:32:47.998Z</time></trkpt><trkpt lat="43.24084303002893" lon="10.764676415544345"><ele>458.0</ele><time>2026-04-18T12:32:48.998Z</time></trkpt><trkpt lat="43.240764467613154" lon="10.764561180927892"><ele>458.0</ele><time>2026-04-18T12:32:49.998Z</time></trkpt><trkpt lat="43.24069426167189" lon="10.764433551719623"><ele>456.2</ele><time>2026-04-18T12:32:50.998Z</time></trkpt><trkpt lat="43.24064136457994" lon="10.764297524614129"><ele>454.4</ele><time>2026-04-18T12:32:51.998Z</time></trkpt><trkpt lat="43.240599922232526" lon="10.764144781284912"><ele>452.59999999999997</ele><time>2026-04-18T12:32:52.998Z</time></trkpt><trkpt lat="43.24055210422653" lon="10.764027186488809"><ele>450.79999999999995</ele><time>2026-04-18T12:32:53.998Z</time></trkpt><trkpt lat="43.24047264815936" lon="10.76396552808237"><ele>449.0</ele><time>2026-04-18T12:32:54.998Z</time></trkpt><trkpt lat="43.24039830625205" lon="10.763923569180918"><ele>453.79999999999995</ele><time>2026-04-18T12:32:55.998Z</time></trkpt><trkpt lat="43.240301565407755" lon="10.763877707824482"><ele>458.59999999999997</ele><time>2026-04-18T12:32:56.998Z</time></trkpt><trkpt lat="43.240211305617805" lon="10.763812067474454"><ele>463.4</ele><time>2026-04-18T12:32:57.998Z</time></trkpt><trkpt lat="43.24015148859228" lon="10.763754070798333"><ele>468.2</ele><time>2026-04-18T12:32:58.998Z</time></trkpt><trkpt lat="43.24012027662629" lon="10.763617699047307"><ele>473.0</ele><time>2026-04-18T12:33:00.998Z</time></trkpt><trkpt lat="43.24017012525407" lon="10.763531011103403"><ele>472.2</ele><time>2026-04-18T12:33:02.998Z</time></trkpt><trkpt lat="43.24028916299582" lon="10.763455208489926"><ele>471.4</ele><time>2026-04-18T12:33:04.998Z</time></trkpt><trkpt lat="43.2403769713029" lon="10.76341695464119"><ele>470.59999999999997</ele><time>2026-04-18T12:33:05.998Z</time></trkpt><trkpt lat="43.24045364897038" lon="10.763362766983441"><ele>469.79999999999995</ele><time>2026-04-18T12:33:06.998Z</time></trkpt><trkpt lat="43.24053689782911" lon="10.76327768369731"><ele>469.0</ele><time>2026-04-18T12:33:07.998Z</time></trkpt><trkpt lat="43.24063565188972" lon="10.763193790034947"><ele>464.75</ele><time>2026-04-18T12:33:08.998Z</time></trkpt><trkpt lat="43.240753520026594" lon="10.763169305621911"><ele>460.5</ele><time>2026-04-18T12:33:09.998Z</time></trkpt><trkpt lat="43.24083688323507" lon="10.763098884225766"><ele>456.25</ele><time>2026-04-18T12:33:10.998Z</time></trkpt><trkpt lat="43.24088788532268" lon="10.762951541944053"><ele>452.0</ele><time>2026-04-18T12:33:11.998Z</time></trkpt><trkpt lat="43.24096861467098" lon="10.762817670123562"><ele>452.0</ele><time>2026-04-18T12:33:12.998Z</time></trkpt><trkpt lat="43.2410695445051" lon="10.762728063536947"><ele>452.00000000000006</ele><time>2026-04-18T12:33:13.999Z</time></trkpt><trkpt lat="43.24113441206371" lon="10.76263881985924"><ele>452.00000000000006</ele><time>2026-04-18T12:33:14.999Z</time></trkpt><trkpt lat="43.24117168467962" lon="10.762479888578234"><ele>452.0</ele><time>2026-04-18T12:33:16.999Z</time></trkpt><trkpt lat="43.24115338540674" lon="10.762348261056832"><ele>452.0</ele><time>2026-04-18T12:33:17.999Z</time></trkpt><trkpt lat="43.241146969223614" lon="10.76220359115109"><ele>454.16666666666663</ele><time>2026-04-18T12:33:18.999Z</time></trkpt><trkpt lat="43.24115291049171" lon="10.762076040346416"><ele>456.3333333333333</ele><time>2026-04-18T12:33:19.999Z</time></trkpt><trkpt lat="43.24117309745637" lon="10.761970621576562"><ele>458.5</ele><time>2026-04-18T12:33:20.999Z</time></trkpt><trkpt lat="43.241217279830174" lon="10.761860218713682"><ele>460.66666666666663</ele><time>2026-04-18T12:33:21.999Z</time></trkpt><trkpt lat="43.24126924922096" lon="10.76174884633368"><ele>462.8333333333333</ele><time>2026-04-18T12:33:22.999Z</time></trkpt><trkpt lat="43.24131333904819" lon="10.761657572347548"><ele>465.0</ele><time>2026-04-18T12:33:23.999Z</time></trkpt><trkpt lat="43.24133860397862" lon="10.761575687277825"><ele>466.0</ele><time>2026-04-18T12:33:24.999Z</time></trkpt><trkpt lat="43.24139584673784" lon="10.761520583518452"><ele>467.0</ele><time>2026-04-18T12:33:25.999Z</time></trkpt><trkpt lat="43.24146195659065" lon="10.761500274871612"><ele>468.0</ele><time>2026-04-18T12:33:26.999Z</time></trkpt><trkpt lat="43.241540438907045" lon="10.761393446987949"><ele>469.0</ele><time>2026-04-18T12:33:29Z</time></trkpt><trkpt lat="43.2415488318386" lon="10.761238240069723"><ele>470.0</ele><time>2026-04-18T12:33:31Z</time></trkpt><trkpt lat="43.24145725225793" lon="10.76114425409406"><ele>469.6</ele><time>2026-04-18T12:33:32Z</time></trkpt><trkpt lat="43.241412966902764" lon="10.761019846383137"><ele>469.2</ele><time>2026-04-18T12:33:33Z</time></trkpt><trkpt lat="43.24134985130547" lon="10.760882945474131"><ele>468.79999999999995</ele><time>2026-04-18T12:33:34Z</time></trkpt><trkpt lat="43.24128262694096" lon="10.760766446280211"><ele>468.4</ele><time>2026-04-18T12:33:35Z</time></trkpt><trkpt lat="43.241236706058" lon="10.760660725155873"><ele>468.0</ele><time>2026-04-18T12:33:36Z</time></trkpt><trkpt lat="43.241213949854036" lon="10.760522447463362"><ele>468.0</ele><time>2026-04-18T12:33:37Z</time></trkpt><trkpt lat="43.24119251876112" lon="10.760375853297584"><ele>467.99999999999994</ele><time>2026-04-18T12:33:38Z</time></trkpt><trkpt lat="43.24118862761401" lon="10.760250506001409"><ele>467.99999999999994</ele><time>2026-04-18T12:33:39Z</time></trkpt><trkpt lat="43.241207598446465" lon="10.76010093682351"><ele>468.0</ele><time>2026-04-18T12:33:40Z</time></trkpt><trkpt lat="43.2412103451756" lon="10.759951600307032"><ele>468.0</ele><time>2026-04-18T12:33:41Z</time></trkpt><trkpt lat="43.24119685087426" lon="10.759817123507208"><ele>465.6666666666667</ele><time>2026-04-18T12:33:42Z</time></trkpt><trkpt lat="43.24121597402704" lon="10.759709521265245"><ele>463.33333333333337</ele><time>2026-04-18T12:33:43Z</time></trkpt><trkpt lat="43.24124338589167" lon="10.759601581472829"><ele>461.0</ele><time>2026-04-18T12:33:44Z</time></trkpt><trkpt lat="43.24125503057853" lon="10.759477370225744"><ele>458.6666666666667</ele><time>2026-04-18T12:33:45Z</time></trkpt><trkpt lat="43.24123426575854" lon="10.759336564081282"><ele>456.33333333333337</ele><time>2026-04-18T12:33:46Z</time></trkpt><trkpt lat="43.24120901573178" lon="10.75922624642795"><ele>454.0</ele><time>2026-04-18T12:33:47Z</time></trkpt><trkpt lat="43.24116600776905" lon="10.75914016811997"><ele>452.00000000000006</ele><time>2026-04-18T12:33:48Z</time></trkpt><trkpt lat="43.24114404197952" lon="10.759057965352612"><ele>450.0</ele><time>2026-04-18T12:33:49Z</time></trkpt><trkpt lat="43.241147142557026" lon="10.758960196099355"><ele>448.0</ele><time>2026-04-18T12:33:51Z</time></trkpt><trkpt lat="43.241222039787516" lon="10.758943530141249"><ele>446.0</ele><time>2026-04-18T12:33:53Z</time></trkpt><trkpt lat="43.241292168983186" lon="10.759071262668789"><ele>444.00000000000006</ele><time>2026-04-18T12:33:55Z</time></trkpt><trkpt lat="43.24131077017183" lon="10.75917068193804"><ele>442.0</ele><time>2026-04-18T12:33:56Z</time></trkpt><trkpt lat="43.241331408906" lon="10.759311556164416"><ele>440.75</ele><time>2026-04-18T12:33:57Z</time></trkpt><trkpt lat="43.24136265972088" lon="10.759458791480899"><ele>439.5</ele><time>2026-04-18T12:33:58Z</time></trkpt><trkpt lat="43.24139786041265" lon="10.759609507337702"><ele>438.25</ele><time>2026-04-18T12:33:59Z</time></trkpt><trkpt lat="43.24143594471536" lon="10.759761431079372"><ele>437.0</ele><time>2026-04-18T12:34:00Z</time></trkpt><trkpt lat="43.241488709332366" lon="10.75991802910389"><ele>437.0</ele><time>2026-04-18T12:34:01Z</time></trkpt><trkpt lat="43.24154411006694" lon="10.760058839374896"><ele>437.00000000000006</ele><time>2026-04-18T12:34:02Z</time></trkpt><trkpt lat="43.24159319599851" lon="10.760174555201964"><ele>437.00000000000006</ele><time>2026-04-18T12:34:03Z</time></trkpt><trkpt lat="43.24164084531668" lon="10.760255776283316"><ele>437.0</ele><time>2026-04-18T12:34:04Z</time></trkpt><trkpt lat="43.241741378973074" lon="10.76027093208941"><ele>437.0</ele><time>2026-04-18T12:34:06Z</time></trkpt><trkpt lat="43.24180642203918" lon="10.760230044486498"><ele>437.0</ele><time>2026-04-18T12:34:07Z</time></trkpt><trkpt lat="43.24189412607144" lon="10.760218293373232"><ele>437.0</ele><time>2026-04-18T12:34:08Z</time></trkpt><trkpt lat="43.242004694288276" lon="10.760171826779318"><ele>437.0</ele><time>2026-04-18T12:34:09Z</time></trkpt><trkpt lat="43.242106285374824" lon="10.760082306074178"><ele>437.0</ele><time>2026-04-18T12:34:10Z</time></trkpt><trkpt lat="43.24219400718014" lon="10.759959156853633"><ele>437.0</ele><time>2026-04-18T12:34:11Z</time></trkpt><trkpt lat="43.24227644204512" lon="10.759840275241025"><ele>437.00000000000006</ele><time>2026-04-18T12:34:12Z</time></trkpt><trkpt lat="43.24235787916365" lon="10.759742196454448"><ele>437.00000000000006</ele><time>2026-04-18T12:34:13Z</time></trkpt><trkpt lat="43.242439814539566" lon="10.759671095695369"><ele>437.0</ele><time>2026-04-18T12:34:14Z</time></trkpt><trkpt lat="43.24251653524134" lon="10.759630355832396"><ele>437.0</ele><time>2026-04-18T12:34:15Z</time></trkpt><trkpt lat="43.24259928719496" lon="10.759596708149365"><ele>437.6</ele><time>2026-04-18T12:34:16Z</time></trkpt><trkpt lat="43.242730909709095" lon="10.759584547920785"><ele>438.20000000000005</ele><time>2026-04-18T12:34:18Z</time></trkpt><trkpt lat="43.24280796717034" lon="10.75959565546359"><ele>438.8</ele><time>2026-04-18T12:34:19Z</time></trkpt><trkpt lat="43.242891968447" lon="10.759622026085333"><ele>439.4</ele><time>2026-04-18T12:34:20Z</time></trkpt><trkpt lat="43.242969650281985" lon="10.759697875460933"><ele>440.0</ele><time>2026-04-18T12:34:21Z</time></trkpt><trkpt lat="43.243073811715306" lon="10.759779992408262"><ele>437.25</ele><time>2026-04-18T12:34:22Z</time></trkpt><trkpt lat="43.243185424273975" lon="10.759883251117282"><ele>434.5</ele><time>2026-04-18T12:34:23Z</time></trkpt><trkpt lat="43.24333090015795" lon="10.75995774470678"><ele>431.75</ele><time>2026-04-18T12:34:24Z</time></trkpt><trkpt lat="43.243477532433076" lon="10.760007348560116"><ele>429.0</ele><time>2026-04-18T12:34:25Z</time></trkpt><trkpt lat="43.243618380596445" lon="10.760059273215848"><ele>429.0</ele><time>2026-04-18T12:34:26Z</time></trkpt><trkpt lat="43.24374056719052" lon="10.760161464288771"><ele>429.0</ele><time>2026-04-18T12:34:27Z</time></trkpt><trkpt lat="43.24386595991136" lon="10.760260281980466"><ele>429.0</ele><time>2026-04-18T12:34:28Z</time></trkpt><trkpt lat="43.24400190531962" lon="10.760348995804229"><ele>429.0</ele><time>2026-04-18T12:34:29Z</time></trkpt><trkpt lat="43.24412320023317" lon="10.760435752888482"><ele>426.79999999999995</ele><time>2026-04-18T12:34:30Z</time></trkpt><trkpt lat="43.244232717056185" lon="10.760467968228541"><ele>424.59999999999997</ele><time>2026-04-18T12:34:31Z</time></trkpt><trkpt lat="43.24432575102639" lon="10.760477240092625"><ele>422.4</ele><time>2026-04-18T12:34:32Z</time></trkpt><trkpt lat="43.24440843226781" lon="10.76045811064957"><ele>420.2</ele><time>2026-04-18T12:34:33Z</time></trkpt><trkpt lat="43.24449965798392" lon="10.760425462170957"><ele>418.0</ele><time>2026-04-18T12:34:34Z</time></trkpt><trkpt lat="43.244593493763766" lon="10.760413264656986"><ele>418.0</ele><time>2026-04-18T12:34:35Z</time></trkpt><trkpt lat="43.244688786681664" lon="10.760392288583256"><ele>418.0</ele><time>2026-04-18T12:34:36Z</time></trkpt><trkpt lat="43.24476386789429" lon="10.760353747477113"><ele>418.0</ele><time>2026-04-18T12:34:37Z</time></trkpt><trkpt lat="43.24482715963167" lon="10.760256538481498"><ele>418.0</ele><time>2026-04-18T12:34:38Z</time></trkpt><trkpt lat="43.24487235056989" lon="10.760152467784875"><ele>418.0</ele><time>2026-04-18T12:34:39Z</time></trkpt><trkpt lat="43.24490921706653" lon="10.760001698236632"><ele>421.75</ele><time>2026-04-18T12:34:40Z</time></trkpt><trkpt lat="43.24494330075711" lon="10.75984470028419"><ele>425.5</ele><time>2026-04-18T12:34:41Z</time></trkpt><trkpt lat="43.24496063956892" lon="10.759667911388464"><ele>429.25</ele><time>2026-04-18T12:34:42Z</time></trkpt><trkpt lat="43.24498529333254" lon="10.759506256872255"><ele>433.0</ele><time>2026-04-18T12:34:43Z</time></trkpt><trkpt lat="43.24501972015857" lon="10.759340072825369"><ele>433.59999999999997</ele><time>2026-04-18T12:34:44Z</time></trkpt><trkpt lat="43.2450597608945" lon="10.759195790750052"><ele>434.19999999999993</ele><time>2026-04-18T12:34:45Z</time></trkpt><trkpt lat="43.24511493246681" lon="10.759057350976434"><ele>434.8</ele><time>2026-04-18T12:34:46Z</time></trkpt><trkpt lat="43.24518728451228" lon="10.758950958854193"><ele>435.4</ele><time>2026-04-18T12:34:47Z</time></trkpt><trkpt lat="43.24526900312667" lon="10.758851013089782"><ele>436.0</ele><time>2026-04-18T12:34:48Z</time></trkpt><trkpt lat="43.245353351296046" lon="10.758754324981012"><ele>436.0</ele><time>2026-04-18T12:34:49Z</time></trkpt><trkpt lat="43.245443521541475" lon="10.758657546749708"><ele>436.0</ele><time>2026-04-18T12:34:50Z</time></trkpt><trkpt lat="43.24552803300693" lon="10.758562793240808"><ele>436.0</ele><time>2026-04-18T12:34:51Z</time></trkpt><trkpt lat="43.24559748579026" lon="10.758479289900714"><ele>436.0</ele><time>2026-04-18T12:34:52Z</time></trkpt><trkpt lat="43.24564702271666" lon="10.75836695669903"><ele>436.0</ele><time>2026-04-18T12:34:53.001Z</time></trkpt><trkpt lat="43.245634338031515" lon="10.758227348610596"><ele>438.8</ele><time>2026-04-18T12:34:54.001Z</time></trkpt><trkpt lat="43.245651531016286" lon="10.758099004408908"><ele>441.6</ele><time>2026-04-18T12:34:55.001Z</time></trkpt><trkpt lat="43.24567906609151" lon="10.757951881262683"><ele>444.4</ele><time>2026-04-18T12:34:56.001Z</time></trkpt><trkpt lat="43.245719595095316" lon="10.757799208369173"><ele>447.2</ele><time>2026-04-18T12:34:57.001Z</time></trkpt><trkpt lat="43.245769988710904" lon="10.757669102536145"><ele>450.0</ele><time>2026-04-18T12:34:58.001Z</time></trkpt><trkpt lat="43.245829970024445" lon="10.757540601944411"><ele>451.25</ele><time>2026-04-18T12:34:59.001Z</time></trkpt><trkpt lat="43.245902563411455" lon="10.757404840265071"><ele>452.5</ele><time>2026-04-18T12:35:00.001Z</time></trkpt><trkpt lat="43.24598478541188" lon="10.757265679891963"><ele>453.75</ele><time>2026-04-18T12:35:01.001Z</time></trkpt><trkpt lat="43.24606986504323" lon="10.757138015384074"><ele>455.0</ele><time>2026-04-18T12:35:02.001Z</time></trkpt><trkpt lat="43.24616192986348" lon="10.757037362907479"><ele>455.0</ele><time>2026-04-18T12:35:03.001Z</time></trkpt><trkpt lat="43.24625789814884" lon="10.756966454661077"><ele>455.0</ele><time>2026-04-18T12:35:04.001Z</time></trkpt><trkpt lat="43.24634432427748" lon="10.756930965476668"><ele>455.0</ele><time>2026-04-18T12:35:05.001Z</time></trkpt><trkpt lat="43.246453276196185" lon="10.756900058499633"><ele>455.0</ele><time>2026-04-18T12:35:06.001Z</time></trkpt><trkpt lat="43.246588034447" lon="10.756863603307984"><ele>455.0</ele><time>2026-04-18T12:35:07.001Z</time></trkpt><trkpt lat="43.24673914539533" lon="10.756823732858493"><ele>456.75</ele><time>2026-04-18T12:35:08.001Z</time></trkpt><trkpt lat="43.24689028415724" lon="10.756780236498825"><ele>458.5</ele><time>2026-04-18T12:35:09.001Z</time></trkpt><trkpt lat="43.24703472496508" lon="10.756733166062137"><ele>460.25</ele><time>2026-04-18T12:35:10.001Z</time></trkpt><trkpt lat="43.24715041815217" lon="10.756675099249405"><ele>462.0</ele><time>2026-04-18T12:35:11Z</time></trkpt><trkpt lat="43.2472388324986" lon="10.756637196131624"><ele>462.0</ele><time>2026-04-18T12:35:12Z</time></trkpt><trkpt lat="43.24728446461494" lon="10.756569308737546"><ele>462.00000000000006</ele><time>2026-04-18T12:35:13Z</time></trkpt><trkpt lat="43.24729263802504" lon="10.756368877312182"><ele>462.00000000000006</ele><time>2026-04-18T12:35:15Z</time></trkpt><trkpt lat="43.24723003479304" lon="10.756265341923106"><ele>462.0</ele><time>2026-04-18T12:35:16Z</time></trkpt><trkpt lat="43.24717883442786" lon="10.756189603463278"><ele>462.0</ele><time>2026-04-18T12:35:17Z</time></trkpt><trkpt lat="43.24712474028454" lon="10.756086739014304"><ele>460.8</ele><time>2026-04-18T12:35:18Z</time></trkpt><trkpt lat="43.24709042146743" lon="10.755982869599032"><ele>459.6</ele><time>2026-04-18T12:35:19Z</time></trkpt><trkpt lat="43.24712904392438" lon="10.755845146993787"><ele>458.40000000000003</ele><time>2026-04-18T12:35:21Z</time></trkpt><trkpt lat="43.24724406584016" lon="10.755734785279602"><ele>457.20000000000005</ele><time>2026-04-18T12:35:23Z</time></trkpt><trkpt lat="43.247324786325315" lon="10.755644621652936"><ele>456.0</ele><time>2026-04-18T12:35:24Z</time></trkpt><trkpt lat="43.24741600656031" lon="10.75553516934471"><ele>458.75</ele><time>2026-04-18T12:35:25Z</time></trkpt><trkpt lat="43.24751381097064" lon="10.755425472579617"><ele>461.5</ele><time>2026-04-18T12:35:26Z</time></trkpt><trkpt lat="43.247639135486374" lon="10.755335061953891"><ele>464.25</ele><time>2026-04-18T12:35:27Z</time></trkpt><trkpt lat="43.24773905956661" lon="10.755250804730121"><ele>467.0</ele><time>2026-04-18T12:35:28Z</time></trkpt><trkpt lat="43.24782220129766" lon="10.755119506882188"><ele>467.0</ele><time>2026-04-18T12:35:29Z</time></trkpt><trkpt lat="43.24789806028425" lon="10.754984831105034"><ele>467.0</ele><time>2026-04-18T12:35:30Z</time></trkpt><trkpt lat="43.24798508155579" lon="10.754836889134136"><ele>467.0</ele><time>2026-04-18T12:35:31Z</time></trkpt><trkpt lat="43.24806721102784" lon="10.754687836479018"><ele>467.0</ele><time>2026-04-18T12:35:32Z</time></trkpt><trkpt lat="43.24812847104323" lon="10.754525619559343"><ele>467.75</ele><time>2026-04-18T12:35:33Z</time></trkpt><trkpt lat="43.24818785759179" lon="10.754362831455206"><ele>468.5</ele><time>2026-04-18T12:35:34Z</time></trkpt><trkpt lat="43.24825402782602" lon="10.754186554875446"><ele>469.25</ele><time>2026-04-18T12:35:35Z</time></trkpt><trkpt lat="43.24829216836091" lon="10.753992359882725"><ele>470.0</ele><time>2026-04-18T12:35:36.001Z</time></trkpt><trkpt lat="43.248306372023436" lon="10.753781938671336"><ele>470.0</ele><time>2026-04-18T12:35:37.001Z</time></trkpt><trkpt lat="43.248359113000205" lon="10.753587063170576"><ele>470.0</ele><time>2026-04-18T12:35:38.001Z</time></trkpt><trkpt lat="43.24840702195535" lon="10.75341280241706"><ele>470.0</ele><time>2026-04-18T12:35:39.001Z</time></trkpt><trkpt lat="43.24845554721341" lon="10.75324765842114"><ele>470.0</ele><time>2026-04-18T12:35:40.001Z</time></trkpt><trkpt lat="43.2485018296309" lon="10.753090467740302"><ele>472.75</ele><time>2026-04-18T12:35:41.001Z</time></trkpt><trkpt lat="43.24852764879281" lon="10.752952984044928"><ele>475.5</ele><time>2026-04-18T12:35:42.001Z</time></trkpt><trkpt lat="43.24854871627378" lon="10.752796862316078"><ele>478.25</ele><time>2026-04-18T12:35:43.001Z</time></trkpt><trkpt lat="43.24856493501582" lon="10.752622207159545"><ele>481.0</ele><time>2026-04-18T12:35:44.001Z</time></trkpt><trkpt lat="43.248575960065715" lon="10.752440169590784"><ele>481.8</ele><time>2026-04-18T12:35:45Z</time></trkpt><trkpt lat="43.24857909671787" lon="10.75228597609662"><ele>482.6</ele><time>2026-04-18T12:35:46Z</time></trkpt><trkpt lat="43.248571029787975" lon="10.752165790684765"><ele>483.4</ele><time>2026-04-18T12:35:47Z</time></trkpt><trkpt lat="43.24857646370609" lon="10.752013003379066"><ele>484.2</ele><time>2026-04-18T12:35:48Z</time></trkpt><trkpt lat="43.24856466622311" lon="10.751848959899036"><ele>485.0</ele><time>2026-04-18T12:35:49Z</time></trkpt><trkpt lat="43.24854171447487" lon="10.751709688487471"><ele>485.0</ele><time>2026-04-18T12:35:50Z</time></trkpt><trkpt lat="43.24851408685562" lon="10.751599874342197"><ele>485.0</ele><time>2026-04-18T12:35:51Z</time></trkpt><trkpt lat="43.24849195179675" lon="10.751465812874523"><ele>485.0</ele><time>2026-04-18T12:35:52Z</time></trkpt><trkpt lat="43.24853761422682" lon="10.751320125423426"><ele>485.0</ele><time>2026-04-18T12:35:53Z</time></trkpt><trkpt lat="43.24857309626242" lon="10.751141181726922"><ele>485.0</ele><time>2026-04-18T12:35:54Z</time></trkpt><trkpt lat="43.24861019575689" lon="10.750953809303649"><ele>485.0</ele><time>2026-04-18T12:35:55Z</time></trkpt><trkpt lat="43.248633615983536" lon="10.750748134966173"><ele>485.0</ele><time>2026-04-18T12:35:56Z</time></trkpt><trkpt lat="43.24866269563211" lon="10.750549836890716"><ele>485.0</ele><time>2026-04-18T12:35:57Z</time></trkpt><trkpt lat="43.24867538161854" lon="10.750349207340191"><ele>485.0</ele><time>2026-04-18T12:35:58Z</time></trkpt><trkpt lat="43.248676322400385" lon="10.750151063149426"><ele>485.0</ele><time>2026-04-18T12:35:59Z</time></trkpt><trkpt lat="43.24868720290118" lon="10.749975610840197"><ele>485.0</ele><time>2026-04-18T12:36:00Z</time></trkpt><trkpt lat="43.248687580584416" lon="10.749810179962813"><ele>485.0</ele><time>2026-04-18T12:36:01Z</time></trkpt><trkpt lat="43.24868933378804" lon="10.74964097429195"><ele>485.0</ele><time>2026-04-18T12:36:02Z</time></trkpt><trkpt lat="43.248679882778156" lon="10.749472835659274"><ele>485.25</ele><time>2026-04-18T12:36:03Z</time></trkpt><trkpt lat="43.248652986040064" lon="10.749299787370164"><ele>485.5</ele><time>2026-04-18T12:36:04Z</time></trkpt><trkpt lat="43.24862317557238" lon="10.749112216499665"><ele>485.75</ele><time>2026-04-18T12:36:05Z</time></trkpt><trkpt lat="43.24858431066666" lon="10.748910597198003"><ele>486.0</ele><time>2026-04-18T12:36:06Z</time></trkpt><trkpt lat="43.24853838588766" lon="10.748721500677417"><ele>486.0</ele><time>2026-04-18T12:36:07Z</time></trkpt><trkpt lat="43.24848984774529" lon="10.748574124936438"><ele>486.0</ele><time>2026-04-18T12:36:08Z</time></trkpt><trkpt lat="43.24844183091063" lon="10.748459511832806"><ele>486.0</ele><time>2026-04-18T12:36:09Z</time></trkpt><trkpt lat="43.248409756986085" lon="10.748367446756374"><ele>486.0</ele><time>2026-04-18T12:36:10Z</time></trkpt><trkpt lat="43.24840717973681" lon="10.748270539421787"><ele>486.0</ele><time>2026-04-18T12:36:11.001Z</time></trkpt><trkpt lat="43.24843896430463" lon="10.74817133203639"><ele>486.0</ele><time>2026-04-18T12:36:13.001Z</time></trkpt><trkpt lat="43.24849888401992" lon="10.748200232444715"><ele>487.0</ele><time>2026-04-18T12:36:14.001Z</time></trkpt><trkpt lat="43.24862839988856" lon="10.748216576292942"><ele>488.0</ele><time>2026-04-18T12:36:16.001Z</time></trkpt><trkpt lat="43.24870538494424" lon="10.748277557855733"><ele>489.0</ele><time>2026-04-18T12:36:17.001Z</time></trkpt><trkpt lat="43.24880236103877" lon="10.74835733760956"><ele>490.0</ele><time>2026-04-18T12:36:18.001Z</time></trkpt><trkpt lat="43.24890030672443" lon="10.748446579523234"><ele>490.8</ele><time>2026-04-18T12:36:19.001Z</time></trkpt><trkpt lat="43.24900497244059" lon="10.748533702113356"><ele>491.6</ele><time>2026-04-18T12:36:20.001Z</time></trkpt><trkpt lat="43.24909099158046" lon="10.74861532511803"><ele>492.4</ele><time>2026-04-18T12:36:21.001Z</time></trkpt><trkpt lat="43.24917729183585" lon="10.748702901679154"><ele>493.2</ele><time>2026-04-18T12:36:22.001Z</time></trkpt><trkpt lat="43.249276411117535" lon="10.748769902946306"><ele>494.0</ele><time>2026-04-18T12:36:23.001Z</time></trkpt><trkpt lat="43.24937148069945" lon="10.748808496540164"><ele>494.2</ele><time>2026-04-18T12:36:24.001Z</time></trkpt><trkpt lat="43.24945788563971" lon="10.748826632336696"><ele>494.4</ele><time>2026-04-18T12:36:25.001Z</time></trkpt><trkpt lat="43.24954528513725" lon="10.748833440232637"><ele>494.6</ele><time>2026-04-18T12:36:26.001Z</time></trkpt><trkpt lat="43.24963259570988" lon="10.748816936673277"><ele>494.8</ele><time>2026-04-18T12:36:27.001Z</time></trkpt><trkpt lat="43.24974132032513" lon="10.748787433839981"><ele>495.0</ele><time>2026-04-18T12:36:28.001Z</time></trkpt><trkpt lat="43.24986053784567" lon="10.748747782354304"><ele>494.25</ele><time>2026-04-18T12:36:29.001Z</time></trkpt><trkpt lat="43.249964192178" lon="10.748741179573178"><ele>493.5</ele><time>2026-04-18T12:36:30.001Z</time></trkpt><trkpt lat="43.25006831731074" lon="10.748701710374176"><ele>492.75</ele><time>2026-04-18T12:36:31.001Z</time></trkpt><trkpt lat="43.2501821816613" lon="10.74863944481112"><ele>492.0</ele><time>2026-04-18T12:36:32.001Z</time></trkpt><trkpt lat="43.25028629072181" lon="10.748528534814177"><ele>492.0</ele><time>2026-04-18T12:36:33.001Z</time></trkpt><trkpt lat="43.25038602997177" lon="10.748437111111642"><ele>492.00000000000006</ele><time>2026-04-18T12:36:34.001Z</time></trkpt><trkpt lat="43.25047929402968" lon="10.74838592582081"><ele>492.00000000000006</ele><time>2026-04-18T12:36:35.001Z</time></trkpt><trkpt lat="43.25057048400215" lon="10.748328592417147"><ele>492.0</ele><time>2026-04-18T12:36:36.001Z</time></trkpt><trkpt lat="43.25064067621018" lon="10.748258811025364"><ele>492.0</ele><time>2026-04-18T12:36:37.001Z</time></trkpt><trkpt lat="43.25070508819666" lon="10.74818058659828"><ele>492.0</ele><time>2026-04-18T12:36:38.001Z</time></trkpt><trkpt lat="43.250765677422244" lon="10.748079394278314"><ele>492.00000000000006</ele><time>2026-04-18T12:36:39.001Z</time></trkpt><trkpt lat="43.250812769255376" lon="10.747922190564683"><ele>492.00000000000006</ele><time>2026-04-18T12:36:40.001Z</time></trkpt><trkpt lat="43.25083260020275" lon="10.747771388445415"><ele>492.0</ele><time>2026-04-18T12:36:41.001Z</time></trkpt><trkpt lat="43.25086476550925" lon="10.747645810605189"><ele>492.0</ele><time>2026-04-18T12:36:42.001Z</time></trkpt><trkpt lat="43.250910267703034" lon="10.747533584477805"><ele>492.0</ele><time>2026-04-18T12:36:43.001Z</time></trkpt><trkpt lat="43.25097368673927" lon="10.747411338150267"><ele>492.0</ele><time>2026-04-18T12:36:44.001Z</time></trkpt><trkpt lat="43.25105155701848" lon="10.747282314399188"><ele>492.0</ele><time>2026-04-18T12:36:45.001Z</time></trkpt><trkpt lat="43.25115722421071" lon="10.747127237840012"><ele>492.0</ele><time>2026-04-18T12:36:46.001Z</time></trkpt><trkpt lat="43.25124892235676" lon="10.746952598265505"><ele>492.40000000000003</ele><time>2026-04-18T12:36:47.001Z</time></trkpt><trkpt lat="43.25133241403469" lon="10.746810295555976"><ele>492.80000000000007</ele><time>2026-04-18T12:36:48.001Z</time></trkpt><trkpt lat="43.25141797238257" lon="10.746696426373388"><ele>493.2</ele><time>2026-04-18T12:36:49.001Z</time></trkpt><trkpt lat="43.25147347112883" lon="10.746572148275096"><ele>493.6</ele><time>2026-04-18T12:36:50.001Z</time></trkpt><trkpt lat="43.25151773378076" lon="10.746466999312883"><ele>494.0</ele><time>2026-04-18T12:36:51.001Z</time></trkpt><trkpt lat="43.251575499598346" lon="10.74637272547272"><ele>493.99999999999994</ele><time>2026-04-18T12:36:52.001Z</time></trkpt><trkpt lat="43.25163597677421" lon="10.746326885255591"><ele>494.0</ele><time>2026-04-18T12:36:53.001Z</time></trkpt><trkpt lat="43.251699791395815" lon="10.746305501647779"><ele>494.0</ele><time>2026-04-18T12:36:54.001Z</time></trkpt><trkpt lat="43.25177206606811" lon="10.746321820987868"><ele>494.0</ele><time>2026-04-18T12:36:55.001Z</time></trkpt><trkpt lat="43.251809133601654" lon="10.746429195298415"><ele>493.99999999999994</ele><time>2026-04-18T12:36:56.001Z</time></trkpt><trkpt lat="43.25187070622207" lon="10.746510860956612"><ele>494.0</ele><time>2026-04-18T12:36:57.001Z</time></trkpt><trkpt lat="43.25192495880862" lon="10.746640441554545"><ele>494.0</ele><time>2026-04-18T12:36:58.001Z</time></trkpt><trkpt lat="43.25198656729501" lon="10.746776482092976"><ele>494.0</ele><time>2026-04-18T12:36:59.001Z</time></trkpt><trkpt lat="43.25205602920435" lon="10.74693409373252"><ele>494.0</ele><time>2026-04-18T12:37:00.001Z</time></trkpt><trkpt lat="43.25213623229812" lon="10.747066013361819"><ele>494.0</ele><time>2026-04-18T12:37:01.001Z</time></trkpt><trkpt lat="43.25221420286956" lon="10.74715228805316"><ele>495.0</ele><time>2026-04-18T12:37:02.001Z</time></trkpt><trkpt lat="43.25229696540445" lon="10.747215705724452"><ele>496.0</ele><time>2026-04-18T12:37:03.001Z</time></trkpt><trkpt lat="43.25242631114191" lon="10.747249189359101"><ele>497.0</ele><time>2026-04-18T12:37:04.001Z</time></trkpt><trkpt lat="43.252551621656245" lon="10.747259858692564"><ele>498.0</ele><time>2026-04-18T12:37:05.001Z</time></trkpt><trkpt lat="43.25268894771453" lon="10.74720414116931"><ele>498.0</ele><time>2026-04-18T12:37:06.001Z</time></trkpt><trkpt lat="43.25278150431429" lon="10.747205010022386"><ele>497.99999999999994</ele><time>2026-04-18T12:37:07.001Z</time></trkpt><trkpt lat="43.25287061524321" lon="10.747176743171025"><ele>497.99999999999994</ele><time>2026-04-18T12:37:08.001Z</time></trkpt><trkpt lat="43.25294176099575" lon="10.747193587159275"><ele>498.0</ele><time>2026-04-18T12:37:09.001Z</time></trkpt><trkpt lat="43.25297687038452" lon="10.747366464749486"><ele>498.0</ele><time>2026-04-18T12:37:11.001Z</time></trkpt><trkpt lat="43.25301827274705" lon="10.747527776919899"><ele>498.0</ele><time>2026-04-18T12:37:12.001Z</time></trkpt><trkpt lat="43.25305676192927" lon="10.747696688491661"><ele>497.99999999999994</ele><time>2026-04-18T12:37:13.001Z</time></trkpt><trkpt lat="43.25310349959518" lon="10.747865279264074"><ele>497.99999999999994</ele><time>2026-04-18T12:37:14.001Z</time></trkpt><trkpt lat="43.25314666369296" lon="10.748001336834614"><ele>498.0</ele><time>2026-04-18T12:37:15.001Z</time></trkpt><trkpt lat="43.25318815143976" lon="10.748093380311422"><ele>498.0</ele><time>2026-04-18T12:37:16.001Z</time></trkpt><trkpt lat="43.253265829024784" lon="10.748167989612895"><ele>496.0</ele><time>2026-04-18T12:37:17Z</time></trkpt><trkpt lat="43.25336563506235" lon="10.748229069949403"><ele>493.99999999999994</ele><time>2026-04-18T12:37:18Z</time></trkpt><trkpt lat="43.25348410271725" lon="10.74828979875761"><ele>491.99999999999994</ele><time>2026-04-18T12:37:19Z</time></trkpt><trkpt lat="43.253580914056734" lon="10.748341848881985"><ele>490.0</ele><time>2026-04-18T12:37:20Z</time></trkpt><trkpt lat="43.253662364643475" lon="10.748403737786521"><ele>488.0</ele><time>2026-04-18T12:37:21Z</time></trkpt><trkpt lat="43.25373497951568" lon="10.748581125456363"><ele>488.0</ele><time>2026-04-18T12:37:23Z</time></trkpt><trkpt lat="43.253733894248334" lon="10.748724603404455"><ele>488.0</ele><time>2026-04-18T12:37:24Z</time></trkpt><trkpt lat="43.253731329402605" lon="10.74888721015312"><ele>488.0</ele><time>2026-04-18T12:37:25Z</time></trkpt><trkpt lat="43.25378038323669" lon="10.749031039739512"><ele>488.0</ele><time>2026-04-18T12:37:26Z</time></trkpt><trkpt lat="43.25382150476182" lon="10.749202904628362"><ele>488.0</ele><time>2026-04-18T12:37:27Z</time></trkpt><trkpt lat="43.253860096722605" lon="10.749330995205863"><ele>487.99999999999994</ele><time>2026-04-18T12:37:28Z</time></trkpt><trkpt lat="43.25390294559155" lon="10.749444289554177"><ele>487.99999999999994</ele><time>2026-04-18T12:37:29Z</time></trkpt><trkpt lat="43.25399529283358" lon="10.74955913510409"><ele>488.0</ele><time>2026-04-18T12:37:30Z</time></trkpt><trkpt lat="43.2540847076947" lon="10.749666143237935"><ele>488.0</ele><time>2026-04-18T12:37:31Z</time></trkpt><trkpt lat="43.25417120634927" lon="10.749749811083921"><ele>487.59999999999997</ele><time>2026-04-18T12:37:32Z</time></trkpt><trkpt lat="43.25426903578552" lon="10.749811184723507"><ele>487.19999999999993</ele><time>2026-04-18T12:37:33Z</time></trkpt><trkpt lat="43.25436154905972" lon="10.749896106755044"><ele>486.8</ele><time>2026-04-18T12:37:34Z</time></trkpt><trkpt lat="43.25445339327136" lon="10.749950988615609"><ele>486.4</ele><time>2026-04-18T12:37:35Z</time></trkpt><trkpt lat="43.25456085808866" lon="10.749970095824937"><ele>486.0</ele><time>2026-04-18T12:37:36Z</time></trkpt><trkpt lat="43.25469154148423" lon="10.74996191727637"><ele>483.25</ele><time>2026-04-18T12:37:37Z</time></trkpt><trkpt lat="43.2548248388161" lon="10.749938493436012"><ele>480.5</ele><time>2026-04-18T12:37:38Z</time></trkpt><trkpt lat="43.25495637445058" lon="10.749990376861879"><ele>477.75</ele><time>2026-04-18T12:37:39Z</time></trkpt><trkpt lat="43.255074734355446" lon="10.75001338702307"><ele>475.0</ele><time>2026-04-18T12:37:40Z</time></trkpt><trkpt lat="43.25517967302812" lon="10.749980269327486"><ele>475.0</ele><time>2026-04-18T12:37:41Z</time></trkpt><trkpt lat="43.25529910962078" lon="10.749958183047692"><ele>475.0</ele><time>2026-04-18T12:37:42Z</time></trkpt><trkpt lat="43.25540224302574" lon="10.749891789890663"><ele>475.0</ele><time>2026-04-18T12:37:43Z</time></trkpt><trkpt lat="43.25548454121025" lon="10.749854214150016"><ele>475.0</ele><time>2026-04-18T12:37:44Z</time></trkpt><trkpt lat="43.255597714583224" lon="10.749865146316715"><ele>475.0</ele><time>2026-04-18T12:37:46Z</time></trkpt><trkpt lat="43.255636577022145" lon="10.749972433086757"><ele>474.2</ele><time>2026-04-18T12:37:47.001Z</time></trkpt><trkpt lat="43.25569942768196" lon="10.750068040824365"><ele>473.4</ele><time>2026-04-18T12:37:48.001Z</time></trkpt><trkpt lat="43.255760745141814" lon="10.750183911993865"><ele>472.6</ele><time>2026-04-18T12:37:49.001Z</time></trkpt><trkpt lat="43.255836732799786" lon="10.750293308517"><ele>471.8</ele><time>2026-04-18T12:37:50.001Z</time></trkpt><trkpt lat="43.25590142043242" lon="10.75040088168663"><ele>471.0</ele><time>2026-04-18T12:37:51.001Z</time></trkpt><trkpt lat="43.25598319566983" lon="10.750490387697651"><ele>471.0</ele><time>2026-04-18T12:37:52.001Z</time></trkpt><trkpt lat="43.256120193587336" lon="10.750458426308823"><ele>471.0</ele><time>2026-04-18T12:37:53.001Z</time></trkpt><trkpt lat="43.25622117442887" lon="10.750551623244338"><ele>471.0</ele><time>2026-04-18T12:37:54.001Z</time></trkpt><trkpt lat="43.25629763512482" lon="10.75068189898827"><ele>471.0</ele><time>2026-04-18T12:37:55.001Z</time></trkpt><trkpt lat="43.25634404363751" lon="10.750775837920823"><ele>471.0</ele><time>2026-04-18T12:37:56.001Z</time></trkpt><trkpt lat="43.2564000053243" lon="10.750927751134617"><ele>471.0</ele><time>2026-04-18T12:37:57.001Z</time></trkpt><trkpt lat="43.25648174820324" lon="10.751067845514482"><ele>471.0</ele><time>2026-04-18T12:37:58.001Z</time></trkpt><trkpt lat="43.25656483958321" lon="10.751234096020243"><ele>471.0</ele><time>2026-04-18T12:37:59.001Z</time></trkpt><trkpt lat="43.25665208442194" lon="10.751397254866367"><ele>469.0</ele><time>2026-04-18T12:38:00.001Z</time></trkpt><trkpt lat="43.256745495696364" lon="10.751554625158684"><ele>467.0</ele><time>2026-04-18T12:38:01.001Z</time></trkpt><trkpt lat="43.256843510351906" lon="10.751710626480065"><ele>465.0</ele><time>2026-04-18T12:38:02.001Z</time></trkpt><trkpt lat="43.25693937898696" lon="10.751847262226786"><ele>463.0</ele><time>2026-04-18T12:38:03.001Z</time></trkpt><trkpt lat="43.25703505997677" lon="10.75194372991093"><ele>462.5</ele><time>2026-04-18T12:38:04.001Z</time></trkpt><trkpt lat="43.25715701770311" lon="10.75204283998073"><ele>462.0</ele><time>2026-04-18T12:38:05.001Z</time></trkpt><trkpt lat="43.25729203475522" lon="10.752142855985474"><ele>461.5</ele><time>2026-04-18T12:38:06.001Z</time></trkpt><trkpt lat="43.257424424411575" lon="10.752241825029493"><ele>461.0</ele><time>2026-04-18T12:38:07.001Z</time></trkpt><trkpt lat="43.25753519413872" lon="10.752335484015221"><ele>461.0</ele><time>2026-04-18T12:38:08.001Z</time></trkpt><trkpt lat="43.257639236726966" lon="10.752404478067692"><ele>461.0</ele><time>2026-04-18T12:38:09.001Z</time></trkpt><trkpt lat="43.25774163170416" lon="10.7524516594796"><ele>461.0</ele><time>2026-04-18T12:38:10.001Z</time></trkpt><trkpt lat="43.25785416375601" lon="10.752465095662021"><ele>461.0</ele><time>2026-04-18T12:38:11.001Z</time></trkpt><trkpt lat="43.25796561111015" lon="10.752451126728536"><ele>461.0</ele><time>2026-04-18T12:38:12.001Z</time></trkpt><trkpt lat="43.2580962217957" lon="10.752446005817456"><ele>462.25</ele><time>2026-04-18T12:38:13.001Z</time></trkpt><trkpt lat="43.258245234996316" lon="10.752422866079085"><ele>463.5</ele><time>2026-04-18T12:38:14.001Z</time></trkpt><trkpt lat="43.2583680382554" lon="10.75236624980934"><ele>464.75</ele><time>2026-04-18T12:38:15.001Z</time></trkpt><trkpt lat="43.25847945397885" lon="10.752313862136392"><ele>466.0</ele><time>2026-04-18T12:38:16.001Z</time></trkpt><trkpt lat="43.25861648546728" lon="10.752233279155474"><ele>466.0</ele><time>2026-04-18T12:38:17.001Z</time></trkpt><trkpt lat="43.25875443023562" lon="10.752147520798022"><ele>466.0</ele><time>2026-04-18T12:38:18.001Z</time></trkpt><trkpt lat="43.2588784376375" lon="10.752069661356629"><ele>466.0</ele><time>2026-04-18T12:38:19.001Z</time></trkpt><trkpt lat="43.258985991623234" lon="10.752011502322807"><ele>466.0</ele><time>2026-04-18T12:38:20.001Z</time></trkpt><trkpt lat="43.25907322061667" lon="10.7519872130323"><ele>465.75</ele><time>2026-04-18T12:38:21.001Z</time></trkpt><trkpt lat="43.259178754550085" lon="10.751984534256444"><ele>465.5</ele><time>2026-04-18T12:38:22.001Z</time></trkpt><trkpt lat="43.25929710882582" lon="10.752012001599178"><ele>465.25</ele><time>2026-04-18T12:38:23.001Z</time></trkpt><trkpt lat="43.259411817309996" lon="10.752049205935647"><ele>465.0</ele><time>2026-04-18T12:38:24.001Z</time></trkpt><trkpt lat="43.259521604765716" lon="10.752057067467835"><ele>465.0</ele><time>2026-04-18T12:38:25.001Z</time></trkpt><trkpt lat="43.25958198892102" lon="10.752087771104549"><ele>465.0</ele><time>2026-04-18T12:38:26.001Z</time></trkpt><trkpt lat="43.25967519799744" lon="10.752216415728121"><ele>465.0</ele><time>2026-04-18T12:38:28.001Z</time></trkpt><trkpt lat="43.25968129842752" lon="10.75237521642986"><ele>465.0</ele><time>2026-04-18T12:38:29.001Z</time></trkpt><trkpt lat="43.259636137122754" lon="10.75251995833813"><ele>465.0</ele><time>2026-04-18T12:38:30.001Z</time></trkpt><trkpt lat="43.25958614516878" lon="10.752669757223964"><ele>462.5</ele><time>2026-04-18T12:38:31.001Z</time></trkpt><trkpt lat="43.259498898175316" lon="10.75281030225415"><ele>460.0</ele><time>2026-04-18T12:38:32.001Z</time></trkpt><trkpt lat="43.259463463095344" lon="10.752968280616702"><ele>457.5</ele><time>2026-04-18T12:38:33.001Z</time></trkpt><trkpt lat="43.25943616454475" lon="10.753109516507863"><ele>455.0</ele><time>2026-04-18T12:38:34.001Z</time></trkpt><trkpt lat="43.259433331449124" lon="10.753236951521558"><ele>455.0</ele><time>2026-04-18T12:38:35.001Z</time></trkpt><trkpt lat="43.25944849118689" lon="10.753348265706023"><ele>455.0</ele><time>2026-04-18T12:38:36.001Z</time></trkpt><trkpt lat="43.259491044360146" lon="10.753450773780623"><ele>455.0</ele><time>2026-04-18T12:38:37.001Z</time></trkpt><trkpt lat="43.25956136298935" lon="10.753556619197797"><ele>455.0</ele><time>2026-04-18T12:38:38.001Z</time></trkpt><trkpt lat="43.25965287436502" lon="10.753677026022585"><ele>455.0</ele><time>2026-04-18T12:38:39.001Z</time></trkpt><trkpt lat="43.259752478387306" lon="10.753800837351157"><ele>455.75</ele><time>2026-04-18T12:38:40.001Z</time></trkpt><trkpt lat="43.259833874643725" lon="10.753904889149213"><ele>456.5</ele><time>2026-04-18T12:38:41.001Z</time></trkpt><trkpt lat="43.25991552573194" lon="10.75398758376641"><ele>457.25</ele><time>2026-04-18T12:38:42.001Z</time></trkpt><trkpt lat="43.26002291493739" lon="10.75404845275135"><ele>458.0</ele><time>2026-04-18T12:38:43.001Z</time></trkpt><trkpt lat="43.26014862747456" lon="10.754123645608493"><ele>458.0</ele><time>2026-04-18T12:38:44.001Z</time></trkpt><trkpt lat="43.26027781003239" lon="10.75418685479632"><ele>458.0</ele><time>2026-04-18T12:38:45.001Z</time></trkpt><trkpt lat="43.26038918572018" lon="10.754220960298243"><ele>458.0</ele><time>2026-04-18T12:38:46.001Z</time></trkpt><trkpt lat="43.26049570469111" lon="10.754213691484871"><ele>458.0</ele><time>2026-04-18T12:38:47.001Z</time></trkpt><trkpt lat="43.26061960021031" lon="10.754177073933878"><ele>458.0</ele><time>2026-04-18T12:38:48.001Z</time></trkpt><trkpt lat="43.26075212993613" lon="10.754108442401543"><ele>457.99999999999994</ele><time>2026-04-18T12:38:49.001Z</time></trkpt><trkpt lat="43.26084628059202" lon="10.75401159417435"><ele>457.99999999999994</ele><time>2026-04-18T12:38:50.001Z</time></trkpt><trkpt lat="43.2609187899352" lon="10.753947596290578"><ele>458.0</ele><time>2026-04-18T12:38:51.001Z</time></trkpt><trkpt lat="43.2609521317757" lon="10.753870236109819"><ele>458.0</ele><time>2026-04-18T12:38:52.001Z</time></trkpt><trkpt lat="43.26100040835431" lon="10.753769544327946"><ele>458.0</ele><time>2026-04-18T12:38:53.001Z</time></trkpt><trkpt lat="43.26104001011564" lon="10.753670953168895"><ele>457.99999999999994</ele><time>2026-04-18T12:38:54.001Z</time></trkpt><trkpt lat="43.26108854891595" lon="10.753609791657121"><ele>457.99999999999994</ele><time>2026-04-18T12:38:55.001Z</time></trkpt><trkpt lat="43.26123021828371" lon="10.753615623488306"><ele>458.0</ele><time>2026-04-18T12:38:57.001Z</time></trkpt><trkpt lat="43.261324961750084" lon="10.75357487090766"><ele>458.0</ele><time>2026-04-18T12:38:58.001Z</time></trkpt><trkpt lat="43.261410317052786" lon="10.75346512453426"><ele>459.59999999999997</ele><time>2026-04-18T12:38:59.001Z</time></trkpt><trkpt lat="43.26151921746595" lon="10.7533774700964"><ele>461.19999999999993</ele><time>2026-04-18T12:39:00.001Z</time></trkpt><trkpt lat="43.26160692890318" lon="10.753244868696612"><ele>462.8</ele><time>2026-04-18T12:39:01.001Z</time></trkpt><trkpt lat="43.26167697817504" lon="10.753160450589357"><ele>464.4</ele><time>2026-04-18T12:39:02.001Z</time></trkpt><trkpt lat="43.26176023124838" lon="10.75311369321893"><ele>466.0</ele><time>2026-04-18T12:39:03.001Z</time></trkpt><trkpt lat="43.26184255326098" lon="10.753078694221966"><ele>466.0</ele><time>2026-04-18T12:39:04.001Z</time></trkpt><trkpt lat="43.261950898656416" lon="10.753094505737575"><ele>466.0</ele><time>2026-04-18T12:39:06.001Z</time></trkpt><trkpt lat="43.262033170008145" lon="10.753128782770638"><ele>466.0</ele><time>2026-04-18T12:39:07.001Z</time></trkpt><trkpt lat="43.26211322035471" lon="10.753220069915821"><ele>466.0</ele><time>2026-04-18T12:39:08.001Z</time></trkpt><trkpt lat="43.26221112692552" lon="10.75328558579139"><ele>466.0</ele><time>2026-04-18T12:39:09.001Z</time></trkpt><trkpt lat="43.26230163415541" lon="10.75331737081684"><ele>465.00000000000006</ele><time>2026-04-18T12:39:10.001Z</time></trkpt><trkpt lat="43.26237087289933" lon="10.753330973207538"><ele>464.0</ele><time>2026-04-18T12:39:11.001Z</time></trkpt><trkpt lat="43.26245282943404" lon="10.753265428070984"><ele>463.0</ele><time>2026-04-18T12:39:12.001Z</time></trkpt><trkpt lat="43.26252577164789" lon="10.7532102226737"><ele>462.0</ele><time>2026-04-18T12:39:13.001Z</time></trkpt><trkpt lat="43.262597669266874" lon="10.75317769134065"><ele>461.00000000000006</ele><time>2026-04-18T12:39:14.001Z</time></trkpt><trkpt lat="43.26267052635962" lon="10.753218577943063"><ele>460.0</ele><time>2026-04-18T12:39:15.001Z</time></trkpt><trkpt lat="43.26274867136043" lon="10.753305598378919"><ele>460.0</ele><time>2026-04-18T12:39:16.001Z</time></trkpt><trkpt lat="43.262849662978596" lon="10.753402873648989"><ele>460.0</ele><time>2026-04-18T12:39:17.001Z</time></trkpt><trkpt lat="43.262971373011155" lon="10.753478732209858"><ele>460.0</ele><time>2026-04-18T12:39:18.001Z</time></trkpt><trkpt lat="43.26311346762407" lon="10.753566592354652"><ele>460.0</ele><time>2026-04-18T12:39:19.001Z</time></trkpt><trkpt lat="43.26326533827728" lon="10.753588628729368"><ele>456.5</ele><time>2026-04-18T12:39:20.001Z</time></trkpt><trkpt lat="43.263398377774635" lon="10.753596549054926"><ele>453.0</ele><time>2026-04-18T12:39:21.001Z</time></trkpt><trkpt lat="43.26350348614632" lon="10.75362417430247"><ele>449.5</ele><time>2026-04-18T12:39:22Z</time></trkpt><trkpt lat="43.263585367319216" lon="10.75363831598015"><ele>446.0</ele><time>2026-04-18T12:39:23Z</time></trkpt><trkpt lat="43.26363165533514" lon="10.753816721973713"><ele>446.0</ele><time>2026-04-18T12:39:24Z</time></trkpt><trkpt lat="43.263654081683455" lon="10.753910910145056"><ele>446.0</ele><time>2026-04-18T12:39:25Z</time></trkpt><trkpt lat="43.263683912999745" lon="10.75403262329964"><ele>446.0</ele><time>2026-04-18T12:39:26Z</time></trkpt><trkpt lat="43.263714019128955" lon="10.754181294524408"><ele>446.0</ele><time>2026-04-18T12:39:27Z</time></trkpt><trkpt lat="43.26376137924957" lon="10.754344614102456"><ele>446.0</ele><time>2026-04-18T12:39:28Z</time></trkpt><trkpt lat="43.263820268623675" lon="10.754508608877744"><ele>447.6</ele><time>2026-04-18T12:39:29Z</time></trkpt><trkpt lat="43.26388870719298" lon="10.754639302950418"><ele>449.20000000000005</ele><time>2026-04-18T12:39:30Z</time></trkpt><trkpt lat="43.263949024313526" lon="10.754727136707732"><ele>450.79999999999995</ele><time>2026-04-18T12:39:31Z</time></trkpt><trkpt lat="43.26401356403741" lon="10.754784523008269"><ele>452.4</ele><time>2026-04-18T12:39:32Z</time></trkpt><trkpt lat="43.26408635287997" lon="10.754847970584095"><ele>454.0</ele><time>2026-04-18T12:39:33Z</time></trkpt><trkpt lat="43.26419710139091" lon="10.75490130636183"><ele>454.0</ele><time>2026-04-18T12:39:34Z</time></trkpt><trkpt lat="43.264319405364226" lon="10.754936919762118"><ele>454.0</ele><time>2026-04-18T12:39:35Z</time></trkpt><trkpt lat="43.264458636212076" lon="10.75494309876928"><ele>454.0</ele><time>2026-04-18T12:39:36Z</time></trkpt><trkpt lat="43.264591054841574" lon="10.754955166221091"><ele>454.0</ele><time>2026-04-18T12:39:37Z</time></trkpt><trkpt lat="43.264711213737996" lon="10.755004856462183"><ele>456.25</ele><time>2026-04-18T12:39:38Z</time></trkpt><trkpt lat="43.264817152739404" lon="10.755077134554725"><ele>458.5</ele><time>2026-04-18T12:39:39Z</time></trkpt><trkpt lat="43.26493198983125" lon="10.755131358107032"><ele>460.75</ele><time>2026-04-18T12:39:40Z</time></trkpt><trkpt lat="43.26504687047712" lon="10.755139646640375"><ele>463.0</ele><time>2026-04-18T12:39:41Z</time></trkpt><trkpt lat="43.26514510658064" lon="10.755129874086178"><ele>463.0</ele><time>2026-04-18T12:39:42Z</time></trkpt><trkpt lat="43.26524525965981" lon="10.755118078459974"><ele>463.0</ele><time>2026-04-18T12:39:43Z</time></trkpt><trkpt lat="43.265370200283755" lon="10.755072682512338"><ele>463.0</ele><time>2026-04-18T12:39:44Z</time></trkpt><trkpt lat="43.265474463860386" lon="10.755008043064507"><ele>463.0</ele><time>2026-04-18T12:39:45Z</time></trkpt><trkpt lat="43.26559319765046" lon="10.754978296508428"><ele>460.0</ele><time>2026-04-18T12:39:46Z</time></trkpt><trkpt lat="43.26570294031532" lon="10.754997236237086"><ele>457.0</ele><time>2026-04-18T12:39:47Z</time></trkpt><trkpt lat="43.265825919910185" lon="10.754993789542215"><ele>454.0</ele><time>2026-04-18T12:39:48Z</time></trkpt><trkpt lat="43.26595993621474" lon="10.754952524345839"><ele>451.0</ele><time>2026-04-18T12:39:49Z</time></trkpt><trkpt lat="43.26609108124064" lon="10.754911869622116"><ele>451.0</ele><time>2026-04-18T12:39:50Z</time></trkpt><trkpt lat="43.26620618117005" lon="10.75489624605173"><ele>451.0</ele><time>2026-04-18T12:39:51Z</time></trkpt><trkpt lat="43.266302846536746" lon="10.754904147387808"><ele>451.0</ele><time>2026-04-18T12:39:52Z</time></trkpt><trkpt lat="43.266415436226744" lon="10.75495063870155"><ele>451.0</ele><time>2026-04-18T12:39:53Z</time></trkpt><trkpt lat="43.26655841096783" lon="10.755029567345295"><ele>448.0</ele><time>2026-04-18T12:39:54Z</time></trkpt><trkpt lat="43.266688611984016" lon="10.755148626599228"><ele>445.0</ele><time>2026-04-18T12:39:55Z</time></trkpt><trkpt lat="43.266820297098505" lon="10.75525660035868"><ele>442.0</ele><time>2026-04-18T12:39:56.001Z</time></trkpt><trkpt lat="43.266955733219305" lon="10.755346902923163"><ele>442.0</ele><time>2026-04-18T12:39:57.001Z</time></trkpt><trkpt lat="43.267093686972785" lon="10.755425607208984"><ele>442.0</ele><time>2026-04-18T12:39:58.001Z</time></trkpt><trkpt lat="43.26722425666625" lon="10.755476135568083"><ele>442.0</ele><time>2026-04-18T12:39:59.001Z</time></trkpt><trkpt lat="43.26734887580721" lon="10.755489889364714"><ele>442.0</ele><time>2026-04-18T12:40:00.001Z</time></trkpt><trkpt lat="43.26745705556015" lon="10.755461056111264"><ele>442.0</ele><time>2026-04-18T12:40:01.001Z</time></trkpt><trkpt lat="43.26757452766014" lon="10.755420840036258"><ele>442.0</ele><time>2026-04-18T12:40:02.001Z</time></trkpt><trkpt lat="43.267687193409614" lon="10.755329124519513"><ele>442.0</ele><time>2026-04-18T12:40:03.001Z</time></trkpt><trkpt lat="43.26779139807135" lon="10.755217619874397"><ele>442.0</ele><time>2026-04-18T12:40:04.001Z</time></trkpt><trkpt lat="43.26787055866036" lon="10.755105813380162"><ele>442.1666666666667</ele><time>2026-04-18T12:40:05.001Z</time></trkpt><trkpt lat="43.267941777529714" lon="10.755031969298615"><ele>442.33333333333337</ele><time>2026-04-18T12:40:06.001Z</time></trkpt><trkpt lat="43.26801165073198" lon="10.755009231746962"><ele>442.5</ele><time>2026-04-18T12:40:07.001Z</time></trkpt><trkpt lat="43.268077615610125" lon="10.755008374415434"><ele>442.66666666666663</ele><time>2026-04-18T12:40:08.001Z</time></trkpt><trkpt lat="43.26811362248029" lon="10.755095857066863"><ele>442.8333333333333</ele><time>2026-04-18T12:40:09.001Z</time></trkpt><trkpt lat="43.268165965428054" lon="10.755153892152"><ele>443.0</ele><time>2026-04-18T12:40:10.001Z</time></trkpt><trkpt lat="43.26820439330607" lon="10.755264531036326"><ele>443.0</ele><time>2026-04-18T12:40:11.001Z</time></trkpt><trkpt lat="43.2682727463454" lon="10.755411661630085"><ele>443.0</ele><time>2026-04-18T12:40:12.001Z</time></trkpt><trkpt lat="43.2683551231931" lon="10.75555504326702"><ele>443.0</ele><time>2026-04-18T12:40:13.001Z</time></trkpt><trkpt lat="43.26846238973985" lon="10.75570305129924"><ele>443.0</ele><time>2026-04-18T12:40:14.001Z</time></trkpt><trkpt lat="43.268593693914916" lon="10.755846614128682"><ele>443.0</ele><time>2026-04-18T12:40:15.001Z</time></trkpt><trkpt lat="43.268730386021566" lon="10.756004162217877"><ele>443.0</ele><time>2026-04-18T12:40:16.001Z</time></trkpt><trkpt lat="43.26885303414598" lon="10.756144007187983"><ele>443.0</ele><time>2026-04-18T12:40:17.001Z</time></trkpt><trkpt lat="43.268980377729704" lon="10.756285170188443"><ele>442.0</ele><time>2026-04-18T12:40:18.001Z</time></trkpt><trkpt lat="43.26911318237463" lon="10.756411271247284"><ele>441.0</ele><time>2026-04-18T12:40:19.001Z</time></trkpt><trkpt lat="43.269258384063306" lon="10.756531233666728"><ele>440.0</ele><time>2026-04-18T12:40:20.001Z</time></trkpt><trkpt lat="43.269410517715926" lon="10.756649561756497"><ele>440.0</ele><time>2026-04-18T12:40:21.001Z</time></trkpt><trkpt lat="43.269554504665116" lon="10.756761256122557"><ele>440.0</ele><time>2026-04-18T12:40:22.001Z</time></trkpt><trkpt lat="43.26968878444531" lon="10.75684578969494"><ele>440.0</ele><time>2026-04-18T12:40:23.001Z</time></trkpt><trkpt lat="43.26981509525928" lon="10.756895748519677"><ele>440.0</ele><time>2026-04-18T12:40:24.001Z</time></trkpt><trkpt lat="43.26993660771708" lon="10.75689786213649"><ele>440.25</ele><time>2026-04-18T12:40:25.001Z</time></trkpt><trkpt lat="43.27007884519986" lon="10.756888167664652"><ele>440.5</ele><time>2026-04-18T12:40:26.001Z</time></trkpt><trkpt lat="43.270224142196" lon="10.756878967682795"><ele>440.75</ele><time>2026-04-18T12:40:27.001Z</time></trkpt><trkpt lat="43.27035524035046" lon="10.756929634132517"><ele>441.0</ele><time>2026-04-18T12:40:28.001Z</time></trkpt><trkpt lat="43.27048285745777" lon="10.756986812907785"><ele>441.0</ele><time>2026-04-18T12:40:29.001Z</time></trkpt><trkpt lat="43.270600540219135" lon="10.757065130811625"><ele>441.0</ele><time>2026-04-18T12:40:30.001Z</time></trkpt><trkpt lat="43.270711810756026" lon="10.757156253250047"><ele>441.0</ele><time>2026-04-18T12:40:31.001Z</time></trkpt><trkpt lat="43.270776238230624" lon="10.757266224922308"><ele>441.0</ele><time>2026-04-18T12:40:32.001Z</time></trkpt><trkpt lat="43.27080049305868" lon="10.757361657770806"><ele>441.0</ele><time>2026-04-18T12:40:33.001Z</time></trkpt><trkpt lat="43.27079232209276" lon="10.757452823723769"><ele>443.4</ele><time>2026-04-18T12:40:34.001Z</time></trkpt><trkpt lat="43.270766726513756" lon="10.757559277638462"><ele>445.8</ele><time>2026-04-18T12:40:35.001Z</time></trkpt><trkpt lat="43.27076603146762" lon="10.757689032467656"><ele>448.19999999999993</ele><time>2026-04-18T12:40:36.001Z</time></trkpt><trkpt lat="43.27076374126375" lon="10.757820279519684"><ele>450.59999999999997</ele><time>2026-04-18T12:40:37.001Z</time></trkpt><trkpt lat="43.27077958617133" lon="10.757949783161784"><ele>453.0</ele><time>2026-04-18T12:40:38.001Z</time></trkpt><trkpt lat="43.27085796369213" lon="10.758111910619467"><ele>453.59999999999997</ele><time>2026-04-18T12:40:40.001Z</time></trkpt><trkpt lat="43.2709185234714" lon="10.758253990932113"><ele>454.19999999999993</ele><time>2026-04-18T12:40:41.001Z</time></trkpt><trkpt lat="43.27094005742969" lon="10.75837717743228"><ele>454.8</ele><time>2026-04-18T12:40:42.001Z</time></trkpt><trkpt lat="43.27092873113738" lon="10.758506940708052"><ele>455.4</ele><time>2026-04-18T12:40:43.001Z</time></trkpt><trkpt lat="43.27090049880128" lon="10.758642952761344"><ele>456.0</ele><time>2026-04-18T12:40:44.001Z</time></trkpt><trkpt lat="43.27087438155665" lon="10.75880940334836"><ele>456.8</ele><time>2026-04-18T12:40:45.001Z</time></trkpt><trkpt lat="43.27083824887401" lon="10.758959765951092"><ele>457.6</ele><time>2026-04-18T12:40:46.001Z</time></trkpt><trkpt lat="43.27080196650735" lon="10.759117176545303"><ele>458.4</ele><time>2026-04-18T12:40:47.001Z</time></trkpt><trkpt lat="43.27075118191133" lon="10.759234390324195"><ele>459.2</ele><time>2026-04-18T12:40:48.001Z</time></trkpt><trkpt lat="43.27072668592316" lon="10.759328799744475"><ele>460.0</ele><time>2026-04-18T12:40:49.001Z</time></trkpt><trkpt lat="43.27075176224618" lon="10.759501676414231"><ele>460.2</ele><time>2026-04-18T12:40:51.001Z</time></trkpt><trkpt lat="43.27078777677269" lon="10.75964015216211"><ele>460.4</ele><time>2026-04-18T12:40:52.001Z</time></trkpt><trkpt lat="43.270830270900824" lon="10.759788994627087"><ele>460.6</ele><time>2026-04-18T12:40:53.001Z</time></trkpt><trkpt lat="43.27082755460442" lon="10.759935849359934"><ele>460.8</ele><time>2026-04-18T12:40:54.001Z</time></trkpt><trkpt lat="43.27081878746148" lon="10.760026401181106"><ele>461.0</ele><time>2026-04-18T12:40:55.001Z</time></trkpt><trkpt lat="43.27078797928331" lon="10.760190322310427"><ele>462.5</ele><time>2026-04-18T12:40:56.001Z</time></trkpt><trkpt lat="43.270769455171155" lon="10.760347268912014"><ele>464.0</ele><time>2026-04-18T12:40:57.001Z</time></trkpt><trkpt lat="43.27076184837888" lon="10.760505922275987"><ele>465.5</ele><time>2026-04-18T12:40:58.001Z</time></trkpt><trkpt lat="43.27075693849532" lon="10.760690531683386"><ele>467.0</ele><time>2026-04-18T12:40:59.001Z</time></trkpt><trkpt lat="43.27075772744663" lon="10.760868053784794"><ele>467.0</ele><time>2026-04-18T12:41:00.001Z</time></trkpt><trkpt lat="43.27075051025932" lon="10.761026915899624"><ele>467.00000000000006</ele><time>2026-04-18T12:41:01.001Z</time></trkpt><trkpt lat="43.270749201179974" lon="10.76113844681847"><ele>467.00000000000006</ele><time>2026-04-18T12:41:02.001Z</time></trkpt><trkpt lat="43.27081938714359" lon="10.761227780649435"><ele>467.0</ele><time>2026-04-18T12:41:04.001Z</time></trkpt><trkpt lat="43.27089145009313" lon="10.761277668444253"><ele>467.0</ele><time>2026-04-18T12:41:05.001Z</time></trkpt><trkpt lat="43.27097186689909" lon="10.761316318671431"><ele>465.99999999999994</ele><time>2026-04-18T12:41:06.001Z</time></trkpt><trkpt lat="43.271067015865185" lon="10.761338208108738"><ele>465.0</ele><time>2026-04-18T12:41:07.001Z</time></trkpt><trkpt lat="43.271156212046314" lon="10.761351014320063"><ele>464.0</ele><time>2026-04-18T12:41:08.001Z</time></trkpt><trkpt lat="43.271227331460636" lon="10.761340368683538"><ele>463.0</ele><time>2026-04-18T12:41:09.001Z</time></trkpt><trkpt lat="43.27130819111223" lon="10.761324084205802"><ele>461.99999999999994</ele><time>2026-04-18T12:41:10.001Z</time></trkpt><trkpt lat="43.27140078214594" lon="10.76131348618406"><ele>461.0</ele><time>2026-04-18T12:41:11.001Z</time></trkpt><trkpt lat="43.271490679505725" lon="10.761293567541216"><ele>460.3333333333333</ele><time>2026-04-18T12:41:12.001Z</time></trkpt><trkpt lat="43.271559793794566" lon="10.761258248180933"><ele>459.66666666666663</ele><time>2026-04-18T12:41:13.001Z</time></trkpt><trkpt lat="43.27164005568917" lon="10.761132906552952"><ele>459.0</ele><time>2026-04-18T12:41:15.001Z</time></trkpt><trkpt lat="43.271689255479714" lon="10.761051843433913"><ele>458.33333333333337</ele><time>2026-04-18T12:41:16.001Z</time></trkpt><trkpt lat="43.271721844845715" lon="10.760942177869982"><ele>457.6666666666667</ele><time>2026-04-18T12:41:17.001Z</time></trkpt><trkpt lat="43.271745549493446" lon="10.760821898397584"><ele>457.0</ele><time>2026-04-18T12:41:18.001Z</time></trkpt><trkpt lat="43.27174484900945" lon="10.76072351313531"><ele>461.5</ele><time>2026-04-18T12:41:19.001Z</time></trkpt><trkpt lat="43.27178137944749" lon="10.760477816327478"><ele>466.0</ele><time>2026-04-18T12:41:21.001Z</time></trkpt><trkpt lat="43.27185697393323" lon="10.760359319205316"><ele>470.5</ele><time>2026-04-18T12:41:22.001Z</time></trkpt><trkpt lat="43.27192587911734" lon="10.760268687435648"><ele>475.0</ele><time>2026-04-18T12:41:23.001Z</time></trkpt><trkpt lat="43.271976503462916" lon="10.760196302623246"><ele>475.50000000000006</ele><time>2026-04-18T12:41:24.001Z</time></trkpt><trkpt lat="43.272048356418765" lon="10.76013276675283"><ele>476.0</ele><time>2026-04-18T12:41:25.001Z</time></trkpt><trkpt lat="43.27213514603146" lon="10.760089274769973"><ele>476.5</ele><time>2026-04-18T12:41:26.001Z</time></trkpt><trkpt lat="43.27221358439774" lon="10.76005408882984"><ele>477.0</ele><time>2026-04-18T12:41:27.001Z</time></trkpt><trkpt lat="43.272298473016455" lon="10.760081173342883"><ele>477.50000000000006</ele><time>2026-04-18T12:41:28Z</time></trkpt><trkpt lat="43.27239510436847" lon="10.760118699158099"><ele>478.0</ele><time>2026-04-18T12:41:29Z</time></trkpt><trkpt lat="43.27250674846378" lon="10.760157514553173"><ele>479.0</ele><time>2026-04-18T12:41:30Z</time></trkpt><trkpt lat="43.27260290942511" lon="10.760185320808805"><ele>479.99999999999994</ele><time>2026-04-18T12:41:31Z</time></trkpt><trkpt lat="43.27271175395688" lon="10.760183552955167"><ele>480.99999999999994</ele><time>2026-04-18T12:41:32Z</time></trkpt><trkpt lat="43.27281597995837" lon="10.76015031298435"><ele>482.0</ele><time>2026-04-18T12:41:33Z</time></trkpt><trkpt lat="43.2729137553909" lon="10.760115873915606"><ele>483.0</ele><time>2026-04-18T12:41:34Z</time></trkpt><trkpt lat="43.27299220321372" lon="10.760030802877278"><ele>483.0</ele><time>2026-04-18T12:41:35Z</time></trkpt><trkpt lat="43.27307167113061" lon="10.759931102231338"><ele>482.99999999999994</ele><time>2026-04-18T12:41:36Z</time></trkpt><trkpt lat="43.27315416691957" lon="10.759823245144107"><ele>482.99999999999994</ele><time>2026-04-18T12:41:37Z</time></trkpt><trkpt lat="43.27322943944242" lon="10.75971943325685"><ele>483.0</ele><time>2026-04-18T12:41:38Z</time></trkpt><trkpt lat="43.27330475158985" lon="10.759615566753848"><ele>483.0</ele><time>2026-04-18T12:41:39Z</time></trkpt><trkpt lat="43.27338512735405" lon="10.759506684480819"><ele>483.1666666666667</ele><time>2026-04-18T12:41:40Z</time></trkpt><trkpt lat="43.27345336997648" lon="10.759436395761437"><ele>483.33333333333337</ele><time>2026-04-18T12:41:41Z</time></trkpt><trkpt lat="43.27351970617862" lon="10.759395728415921"><ele>483.5</ele><time>2026-04-18T12:41:44Z</time></trkpt><trkpt lat="43.273578493700306" lon="10.759362820391662"><ele>483.6666666666667</ele><time>2026-04-18T12:41:46Z</time></trkpt><trkpt lat="43.273629837285625" lon="10.759287608731672"><ele>483.83333333333337</ele><time>2026-04-18T12:43:04.001Z</time></trkpt><trkpt lat="43.27373636918144" lon="10.759204724682112"><ele>484.0</ele><time>2026-04-18T12:43:06.001Z</time></trkpt><trkpt lat="43.27381682172963" lon="10.759178528379591"><ele>484.0</ele><time>2026-04-18T12:43:07.001Z</time></trkpt><trkpt lat="43.27391591208648" lon="10.759151256879589"><ele>484.0</ele><time>2026-04-18T12:43:08.001Z</time></trkpt><trkpt lat="43.27402508921242" lon="10.759111745462357"><ele>484.0</ele><time>2026-04-18T12:43:09.001Z</time></trkpt><trkpt lat="43.27414196621371" lon="10.759063536568569"><ele>484.0</ele><time>2026-04-18T12:43:10.001Z</time></trkpt><trkpt lat="43.274272214380865" lon="10.759012955850535"><ele>486.2</ele><time>2026-04-18T12:43:11.001Z</time></trkpt><trkpt lat="43.27437263221782" lon="10.75895798290235"><ele>488.4</ele><time>2026-04-18T12:43:12.001Z</time></trkpt><trkpt lat="43.27446941558455" lon="10.758927966411575"><ele>490.6</ele><time>2026-04-18T12:43:13.001Z</time></trkpt><trkpt lat="43.27456124094784" lon="10.758912395585563"><ele>492.8</ele><time>2026-04-18T12:43:14.001Z</time></trkpt><trkpt lat="43.27466143505724" lon="10.7589431241676"><ele>495.0</ele><time>2026-04-18T12:43:15.001Z</time></trkpt><trkpt lat="43.27475302479678" lon="10.758981060779035"><ele>494.6666666666667</ele><time>2026-04-18T12:43:16.001Z</time></trkpt><trkpt lat="43.27483386677367" lon="10.758989137099594"><ele>494.33333333333337</ele><time>2026-04-18T12:43:17.001Z</time></trkpt><trkpt lat="43.274899549260915" lon="10.75898678762645"><ele>494.0</ele><time>2026-04-18T12:43:18.001Z</time></trkpt><trkpt lat="43.274961732167284" lon="10.758937981159276"><ele>493.6666666666667</ele><time>2026-04-18T12:43:19.001Z</time></trkpt><trkpt lat="43.275029026796155" lon="10.758821001100516"><ele>493.33333333333337</ele><time>2026-04-18T12:43:20.001Z</time></trkpt><trkpt lat="43.27509813260993" lon="10.758706449168347"><ele>493.0</ele><time>2026-04-18T12:43:21.001Z</time></trkpt><trkpt lat="43.27516467442926" lon="10.758634175988643"><ele>493.0</ele><time>2026-04-18T12:43:22.001Z</time></trkpt><trkpt lat="43.2752337320877" lon="10.758610191383632"><ele>492.99999999999994</ele><time>2026-04-18T12:43:23.001Z</time></trkpt><trkpt lat="43.275297595984206" lon="10.758605472860452"><ele>492.99999999999994</ele><time>2026-04-18T12:43:24.001Z</time></trkpt><trkpt lat="43.275375042790664" lon="10.758663982127205"><ele>493.0</ele><time>2026-04-18T12:43:25.001Z</time></trkpt><trkpt lat="43.27547234606044" lon="10.758744125339408"><ele>493.0</ele><time>2026-04-18T12:43:26.001Z</time></trkpt><trkpt lat="43.27557962921573" lon="10.758815777153563"><ele>492.1666666666667</ele><time>2026-04-18T12:43:27.001Z</time></trkpt><trkpt lat="43.27569198292311" lon="10.758855813070808"><ele>491.33333333333337</ele><time>2026-04-18T12:43:28.001Z</time></trkpt><trkpt lat="43.27579023310973" lon="10.758859929570004"><ele>490.5</ele><time>2026-04-18T12:43:29.001Z</time></trkpt><trkpt lat="43.2758791688459" lon="10.75885961211862"><ele>489.66666666666663</ele><time>2026-04-18T12:43:30.001Z</time></trkpt><trkpt lat="43.27593214943681" lon="10.758806056679973"><ele>488.8333333333333</ele><time>2026-04-18T12:43:31.001Z</time></trkpt><trkpt lat="43.27598282300049" lon="10.758737634854725"><ele>488.0</ele><time>2026-04-18T12:43:32.001Z</time></trkpt><trkpt lat="43.27601956821595" lon="10.758615019871879"><ele>488.25</ele><time>2026-04-18T12:43:33.001Z</time></trkpt><trkpt lat="43.27603375217948" lon="10.758440137210977"><ele>488.5</ele><time>2026-04-18T12:43:34Z</time></trkpt><trkpt lat="43.27604682587373" lon="10.75826626556358"><ele>488.75</ele><time>2026-04-18T12:43:35Z</time></trkpt><trkpt lat="43.27605583856081" lon="10.758085518201705"><ele>489.0</ele><time>2026-04-18T12:43:36Z</time></trkpt><trkpt lat="43.27607324789221" lon="10.757899866295924"><ele>489.0</ele><time>2026-04-18T12:43:37Z</time></trkpt><trkpt lat="43.2760910044714" lon="10.757749930066126"><ele>489.0</ele><time>2026-04-18T12:43:38Z</time></trkpt><trkpt lat="43.276111129242956" lon="10.757632905064519"><ele>489.0</ele><time>2026-04-18T12:43:39Z</time></trkpt><trkpt lat="43.276146959538806" lon="10.757539117648307"><ele>489.0</ele><time>2026-04-18T12:43:40Z</time></trkpt><trkpt lat="43.276209159602715" lon="10.757421061460397"><ele>489.0</ele><time>2026-04-18T12:43:41Z</time></trkpt><trkpt lat="43.27627939879535" lon="10.757277364428305"><ele>489.0</ele><time>2026-04-18T12:43:42Z</time></trkpt><trkpt lat="43.276325433120086" lon="10.757166890027065"><ele>489.0</ele><time>2026-04-18T12:43:43Z</time></trkpt><trkpt lat="43.27637968319936" lon="10.757070330543623"><ele>489.0</ele><time>2026-04-18T12:43:44Z</time></trkpt><trkpt lat="43.27643147176914" lon="10.756985510589326"><ele>489.0</ele><time>2026-04-18T12:43:45Z</time></trkpt><trkpt lat="43.27651711355504" lon="10.75696270635245"><ele>489.0</ele><time>2026-04-18T12:43:46Z</time></trkpt><trkpt lat="43.276619636353935" lon="10.756971055537512"><ele>487.75</ele><time>2026-04-18T12:43:47Z</time></trkpt><trkpt lat="43.276740245033636" lon="10.756973848457267"><ele>486.5</ele><time>2026-04-18T12:43:48Z</time></trkpt><trkpt lat="43.276869371787555" lon="10.756952827172423"><ele>485.25</ele><time>2026-04-18T12:43:49Z</time></trkpt><trkpt lat="43.27700879760309" lon="10.75689763636224"><ele>484.0</ele><time>2026-04-18T12:43:50Z</time></trkpt><trkpt lat="43.27716001765703" lon="10.756842564447293"><ele>481.75</ele><time>2026-04-18T12:43:51Z</time></trkpt><trkpt lat="43.27730897345171" lon="10.756784117760626"><ele>479.5</ele><time>2026-04-18T12:43:52Z</time></trkpt><trkpt lat="43.27743993604879" lon="10.756728795887348"><ele>477.25</ele><time>2026-04-18T12:43:53Z</time></trkpt><trkpt lat="43.27753962775672" lon="10.756671662805266"><ele>475.0</ele><time>2026-04-18T12:43:54Z</time></trkpt><trkpt lat="43.27762785606271" lon="10.756590755534454"><ele>475.0</ele><time>2026-04-18T12:43:55Z</time></trkpt><trkpt lat="43.27770077889988" lon="10.756490781780803"><ele>475.0</ele><time>2026-04-18T12:43:56Z</time></trkpt><trkpt lat="43.27776923207166" lon="10.756365458033367"><ele>475.0</ele><time>2026-04-18T12:43:57Z</time></trkpt><trkpt lat="43.27783609727989" lon="10.75621248096951"><ele>475.0</ele><time>2026-04-18T12:43:58Z</time></trkpt><trkpt lat="43.27791271315507" lon="10.756039154102966"><ele>475.4</ele><time>2026-04-18T12:43:59Z</time></trkpt><trkpt lat="43.277969708216965" lon="10.75588037760192"><ele>475.8</ele><time>2026-04-18T12:44:00Z</time></trkpt><trkpt lat="43.27803082798704" lon="10.755770962777389"><ele>476.20000000000005</ele><time>2026-04-18T12:44:01Z</time></trkpt><trkpt lat="43.27808376375422" lon="10.755678932588294"><ele>476.6</ele><time>2026-04-18T12:44:02Z</time></trkpt><trkpt lat="43.278142900113416" lon="10.755635740126475"><ele>477.0</ele><time>2026-04-18T12:44:03Z</time></trkpt><trkpt lat="43.27827404952762" lon="10.75562722350249"><ele>475.0</ele><time>2026-04-18T12:44:05Z</time></trkpt><trkpt lat="43.27833922393193" lon="10.755694200720855"><ele>473.00000000000006</ele><time>2026-04-18T12:44:06Z</time></trkpt><trkpt lat="43.27838306855184" lon="10.755757258287339"><ele>471.00000000000006</ele><time>2026-04-18T12:44:07Z</time></trkpt><trkpt lat="43.278446037335236" lon="10.755838749518519"><ele>469.0</ele><time>2026-04-18T12:44:08Z</time></trkpt><trkpt lat="43.27849938453427" lon="10.755975823396183"><ele>467.0</ele><time>2026-04-18T12:44:09Z</time></trkpt><trkpt lat="43.27854837321493" lon="10.756129042971365"><ele>466.66666666666663</ele><time>2026-04-18T12:44:10Z</time></trkpt><trkpt lat="43.27860094865006" lon="10.756270397338756"><ele>466.3333333333333</ele><time>2026-04-18T12:44:11Z</time></trkpt><trkpt lat="43.27865258262951" lon="10.756386621330535"><ele>466.0</ele><time>2026-04-18T12:44:12Z</time></trkpt><trkpt lat="43.278709834262465" lon="10.756474646528897"><ele>465.66666666666663</ele><time>2026-04-18T12:44:13Z</time></trkpt><trkpt lat="43.27875920223084" lon="10.756530492163321"><ele>465.3333333333333</ele><time>2026-04-18T12:44:14Z</time></trkpt><trkpt lat="43.27882235342674" lon="10.756552052128919"><ele>465.0</ele><time>2026-04-18T12:44:15Z</time></trkpt><trkpt lat="43.27893720813927" lon="10.756523243249859"><ele>464.2</ele><time>2026-04-18T12:44:17.001Z</time></trkpt><trkpt lat="43.278986623782615" lon="10.756428575751402"><ele>463.4</ele><time>2026-04-18T12:44:18.001Z</time></trkpt><trkpt lat="43.27903529167178" lon="10.75630765022317"><ele>462.6</ele><time>2026-04-18T12:44:19.001Z</time></trkpt><trkpt lat="43.27908108910284" lon="10.756164032469703"><ele>461.8</ele><time>2026-04-18T12:44:20.001Z</time></trkpt><trkpt lat="43.27912948531509" lon="10.756015199786221"><ele>461.0</ele><time>2026-04-18T12:44:21.001Z</time></trkpt><trkpt lat="43.279168623570335" lon="10.755892220228517"><ele>461.0</ele><time>2026-04-18T12:44:22.001Z</time></trkpt><trkpt lat="43.279192767540714" lon="10.755779053123563"><ele>461.0</ele><time>2026-04-18T12:44:23.001Z</time></trkpt><trkpt lat="43.27919129981487" lon="10.75564515894659"><ele>461.0</ele><time>2026-04-18T12:44:24.001Z</time></trkpt><trkpt lat="43.279168266351604" lon="10.7555102757182"><ele>461.0</ele><time>2026-04-18T12:44:25.001Z</time></trkpt><trkpt lat="43.27914748266335" lon="10.755372568681109"><ele>461.0</ele><time>2026-04-18T12:44:26.001Z</time></trkpt><trkpt lat="43.27913182157277" lon="10.7552257297762"><ele>460.49999999999994</ele><time>2026-04-18T12:44:27.001Z</time></trkpt><trkpt lat="43.27912619808545" lon="10.755117685248472"><ele>460.0</ele><time>2026-04-18T12:44:28.001Z</time></trkpt><trkpt lat="43.27912883803082" lon="10.755022842576079"><ele>459.5</ele><time>2026-04-18T12:44:29.001Z</time></trkpt><trkpt lat="43.27919405802786" lon="10.754902658548058"><ele>459.0</ele><time>2026-04-18T12:44:31.001Z</time></trkpt><trkpt lat="43.279247110686946" lon="10.754842588825609"><ele>458.49999999999994</ele><time>2026-04-18T12:44:32.001Z</time></trkpt><trkpt lat="43.27933535663709" lon="10.75475121332427"><ele>458.0</ele><time>2026-04-18T12:44:33.001Z</time></trkpt><trkpt lat="43.2794149553187" lon="10.75463596830918"><ele>458.0</ele><time>2026-04-18T12:44:34.001Z</time></trkpt><trkpt lat="43.27948739809005" lon="10.75452490628323"><ele>457.99999999999994</ele><time>2026-04-18T12:44:35.001Z</time></trkpt><trkpt lat="43.279538588515734" lon="10.754399604256072"><ele>457.99999999999994</ele><time>2026-04-18T12:44:36.001Z</time></trkpt><trkpt lat="43.27956453106141" lon="10.754273398515272"><ele>458.0</ele><time>2026-04-18T12:44:37.001Z</time></trkpt><trkpt lat="43.27958723249939" lon="10.754155655184706"><ele>458.0</ele><time>2026-04-18T12:44:38.001Z</time></trkpt><trkpt lat="43.27959831723618" lon="10.754008399343205"><ele>458.25</ele><time>2026-04-18T12:44:39.001Z</time></trkpt><trkpt lat="43.27963176598945" lon="10.753838977460662"><ele>458.5</ele><time>2026-04-18T12:44:40.001Z</time></trkpt><trkpt lat="43.279676876180645" lon="10.753658953158338"><ele>458.75</ele><time>2026-04-18T12:44:41.001Z</time></trkpt><trkpt lat="43.27973064356288" lon="10.753482831366167"><ele>459.0</ele><time>2026-04-18T12:44:42.001Z</time></trkpt><trkpt lat="43.27978307723159" lon="10.753313274356504"><ele>459.0</ele><time>2026-04-18T12:44:43.001Z</time></trkpt><trkpt lat="43.2798268119293" lon="10.753151336922727"><ele>459.0</ele><time>2026-04-18T12:44:44.001Z</time></trkpt><trkpt lat="43.27984676407343" lon="10.752982185309666"><ele>459.0</ele><time>2026-04-18T12:44:45.001Z</time></trkpt><trkpt lat="43.279860740517435" lon="10.752833124979357"><ele>459.0</ele><time>2026-04-18T12:44:46.001Z</time></trkpt><trkpt lat="43.279879142739546" lon="10.752700551961045"><ele>457.8333333333333</ele><time>2026-04-18T12:44:47.001Z</time></trkpt><trkpt lat="43.27990545314797" lon="10.752614361730696"><ele>456.66666666666663</ele><time>2026-04-18T12:44:48.001Z</time></trkpt><trkpt lat="43.279943843927335" lon="10.752531226926255"><ele>455.5</ele><time>2026-04-18T12:44:49.001Z</time></trkpt><trkpt lat="43.2799966654381" lon="10.752481759144674"><ele>454.3333333333333</ele><time>2026-04-18T12:44:50.001Z</time></trkpt><trkpt lat="43.2800674379903" lon="10.752453474039287"><ele>453.16666666666663</ele><time>2026-04-18T12:44:51.001Z</time></trkpt><trkpt lat="43.28018726215714" lon="10.752413870237165"><ele>452.0</ele><time>2026-04-18T12:44:52.001Z</time></trkpt><trkpt lat="43.28032021965926" lon="10.752375336535378"><ele>452.0</ele><time>2026-04-18T12:44:53.001Z</time></trkpt><trkpt lat="43.28045827916341" lon="10.7523231929942"><ele>452.0</ele><time>2026-04-18T12:44:54.001Z</time></trkpt><trkpt lat="43.28058455159526" lon="10.752267094464903"><ele>452.0</ele><time>2026-04-18T12:44:55.001Z</time></trkpt><trkpt lat="43.28070516247244" lon="10.752227986275694"><ele>452.0</ele><time>2026-04-18T12:44:56.001Z</time></trkpt><trkpt lat="43.280824766660274" lon="10.752202304080912"><ele>451.75</ele><time>2026-04-18T12:44:57.001Z</time></trkpt><trkpt lat="43.280937697062285" lon="10.75219033928936"><ele>451.5</ele><time>2026-04-18T12:44:58.001Z</time></trkpt><trkpt lat="43.28106852733142" lon="10.75218031361905"><ele>451.25</ele><time>2026-04-18T12:44:59.001Z</time></trkpt><trkpt lat="43.281208065678385" lon="10.75216754769326"><ele>451.0</ele><time>2026-04-18T12:45:00.001Z</time></trkpt><trkpt lat="43.28132601553006" lon="10.752151021160467"><ele>451.00000000000006</ele><time>2026-04-18T12:45:01.001Z</time></trkpt><trkpt lat="43.2814255212648" lon="10.752121918738517"><ele>451.0</ele><time>2026-04-18T12:45:02.001Z</time></trkpt><trkpt lat="43.281511807895946" lon="10.752080327870479"><ele>451.0</ele><time>2026-04-18T12:45:03.001Z</time></trkpt><trkpt lat="43.28158223754842" lon="10.75201900401852"><ele>451.0</ele><time>2026-04-18T12:45:04.001Z</time></trkpt><trkpt lat="43.28163708563512" lon="10.751952476191162"><ele>451.00000000000006</ele><time>2026-04-18T12:45:05.001Z</time></trkpt><trkpt lat="43.281664147696965" lon="10.751866366077424"><ele>451.0</ele><time>2026-04-18T12:45:06.001Z</time></trkpt><trkpt lat="43.281711102016615" lon="10.751752244035787"><ele>449.20000000000005</ele><time>2026-04-18T12:45:08.001Z</time></trkpt><trkpt lat="43.281754378705195" lon="10.751582307265904"><ele>447.40000000000003</ele><time>2026-04-18T12:45:10.001Z</time></trkpt><trkpt lat="43.28177213358005" lon="10.751442740307342"><ele>445.6</ele><time>2026-04-18T12:45:11.001Z</time></trkpt><trkpt lat="43.281782255631754" lon="10.751299639506065"><ele>443.8</ele><time>2026-04-18T12:45:12.001Z</time></trkpt><trkpt lat="43.28179010528254" lon="10.751177979035683"><ele>442.0</ele><time>2026-04-18T12:45:13.001Z</time></trkpt><trkpt lat="43.281796744520605" lon="10.751055680653431"><ele>441.1666666666667</ele><time>2026-04-18T12:45:14.001Z</time></trkpt><trkpt lat="43.28180774799899" lon="10.750941696603844"><ele>440.33333333333337</ele><time>2026-04-18T12:45:15.001Z</time></trkpt><trkpt lat="43.28182032991536" lon="10.75084125974404"><ele>439.5</ele><time>2026-04-18T12:45:16.001Z</time></trkpt><trkpt lat="43.281825769962424" lon="10.750752194710499"><ele>438.66666666666663</ele><time>2026-04-18T12:45:17.001Z</time></trkpt><trkpt lat="43.281794526204024" lon="10.750640714024101"><ele>437.8333333333333</ele><time>2026-04-18T12:45:18.001Z</time></trkpt><trkpt lat="43.28174846768534" lon="10.75052714982074"><ele>437.0</ele><time>2026-04-18T12:45:19.001Z</time></trkpt><trkpt lat="43.28169618234244" lon="10.750425896776807"><ele>436.99999999999994</ele><time>2026-04-18T12:45:20.001Z</time></trkpt><trkpt lat="43.28164789905618" lon="10.750334994973988"><ele>437.0</ele><time>2026-04-18T12:45:21.001Z</time></trkpt><trkpt lat="43.28160867194454" lon="10.750232712577569"><ele>437.0</ele><time>2026-04-18T12:45:22.001Z</time></trkpt><trkpt lat="43.28159034669914" lon="10.750129840495752"><ele>437.0</ele><time>2026-04-18T12:45:23.001Z</time></trkpt><trkpt lat="43.28159666000283" lon="10.750033529746178"><ele>436.99999999999994</ele><time>2026-04-18T12:45:24.001Z</time></trkpt><trkpt lat="43.28162506616518" lon="10.749913713454514"><ele>437.0</ele><time>2026-04-18T12:45:25.001Z</time></trkpt><trkpt lat="43.281668429639026" lon="10.749774823983358"><ele>436.0</ele><time>2026-04-18T12:45:26.001Z</time></trkpt><trkpt lat="43.28170691072071" lon="10.749627544890775"><ele>435.00000000000006</ele><time>2026-04-18T12:45:27.001Z</time></trkpt><trkpt lat="43.28176774985026" lon="10.74951622901707"><ele>434.00000000000006</ele><time>2026-04-18T12:45:28.001Z</time></trkpt><trkpt lat="43.281814013257765" lon="10.749385919995627"><ele>433.0</ele><time>2026-04-18T12:45:29.001Z</time></trkpt><trkpt lat="43.28185946272348" lon="10.749275210072856"><ele>432.0</ele><time>2026-04-18T12:45:30.001Z</time></trkpt><trkpt lat="43.28190132110445" lon="10.749185961076961"><ele>431.8</ele><time>2026-04-18T12:45:31.001Z</time></trkpt><trkpt lat="43.282014260335245" lon="10.749154741152568"><ele>431.6</ele><time>2026-04-18T12:45:33.001Z</time></trkpt><trkpt lat="43.282113931600186" lon="10.749153204530366"><ele>431.40000000000003</ele><time>2026-04-18T12:45:34.001Z</time></trkpt><trkpt lat="43.282212043662476" lon="10.749117947108253"><ele>431.20000000000005</ele><time>2026-04-18T12:45:35.001Z</time></trkpt><trkpt lat="43.28229410428325" lon="10.749085463980878"><ele>431.0</ele><time>2026-04-18T12:45:36.001Z</time></trkpt><trkpt lat="43.28236820497326" lon="10.749027820027768"><ele>430.99999999999994</ele><time>2026-04-18T12:45:37.001Z</time></trkpt><trkpt lat="43.2824206911458" lon="10.74896424596393"><ele>431.0</ele><time>2026-04-18T12:45:38.001Z</time></trkpt><trkpt lat="43.28241755529331" lon="10.748845049305446"><ele>431.0</ele><time>2026-04-18T12:45:39.001Z</time></trkpt><trkpt lat="43.28237621020412" lon="10.748735425717294"><ele>431.0</ele><time>2026-04-18T12:45:40Z</time></trkpt><trkpt lat="43.28234876234609" lon="10.748594142636328"><ele>430.99999999999994</ele><time>2026-04-18T12:45:41Z</time></trkpt><trkpt lat="43.28232415455231" lon="10.74848293506848"><ele>431.0</ele><time>2026-04-18T12:45:42Z</time></trkpt><trkpt lat="43.28234678474292" lon="10.748349534122552"><ele>428.20000000000005</ele><time>2026-04-18T12:45:44Z</time></trkpt><trkpt lat="43.282422467731095" lon="10.74824706075169"><ele>425.40000000000003</ele><time>2026-04-18T12:45:45Z</time></trkpt><trkpt lat="43.28249409363999" lon="10.748123926347754"><ele>422.6</ele><time>2026-04-18T12:45:46Z</time></trkpt><trkpt lat="43.28255028817986" lon="10.748032316965798"><ele>419.8</ele><time>2026-04-18T12:45:47Z</time></trkpt><trkpt lat="43.28261364856265" lon="10.747971339808787"><ele>417.0</ele><time>2026-04-18T12:45:48Z</time></trkpt><trkpt lat="43.28270689833276" lon="10.747908866812782"><ele>417.0</ele><time>2026-04-18T12:45:49Z</time></trkpt><trkpt lat="43.28278256203151" lon="10.74782669571096"><ele>417.0</ele><time>2026-04-18T12:45:50Z</time></trkpt><trkpt lat="43.28284101647523" lon="10.74774129404829"><ele>417.0</ele><time>2026-04-18T12:45:51Z</time></trkpt><trkpt lat="43.282914649070946" lon="10.747646166911888"><ele>417.0</ele><time>2026-04-18T12:45:53Z</time></trkpt><trkpt lat="43.282981561701206" lon="10.747654924537938"><ele>417.0</ele><time>2026-04-18T12:45:54Z</time></trkpt><trkpt lat="43.28305246556596" lon="10.747632451354804"><ele>417.0</ele><time>2026-04-18T12:45:55Z</time></trkpt><trkpt lat="43.28312004267821" lon="10.747448597267594"><ele>416.40000000000003</ele><time>2026-04-18T12:45:57Z</time></trkpt><trkpt lat="43.28315712731367" lon="10.747300600204818"><ele>415.8</ele><time>2026-04-18T12:45:58Z</time></trkpt><trkpt lat="43.283192077927026" lon="10.747203886994807"><ele>415.2</ele><time>2026-04-18T12:45:59Z</time></trkpt><trkpt lat="43.2832888421918" lon="10.747142806116994"><ele>414.6</ele><time>2026-04-18T12:46:01Z</time></trkpt><trkpt lat="43.283368898176946" lon="10.747104864773524"><ele>414.0</ele><time>2026-04-18T12:46:02Z</time></trkpt><trkpt lat="43.28346976182892" lon="10.747107059311656"><ele>414.0</ele><time>2026-04-18T12:46:03Z</time></trkpt><trkpt lat="43.283572050404395" lon="10.747126208669906"><ele>414.0</ele><time>2026-04-18T12:46:04Z</time></trkpt><trkpt lat="43.283643812372375" lon="10.747113661832838"><ele>414.0</ele><time>2026-04-18T12:46:05Z</time></trkpt><trkpt lat="43.283763873130766" lon="10.747034965876942"><ele>414.0</ele><time>2026-04-18T12:46:07Z</time></trkpt><trkpt lat="43.283781076928356" lon="10.746947058380108"><ele>414.0</ele><time>2026-04-18T12:46:08Z</time></trkpt><trkpt lat="43.2837865277344" lon="10.746852765015637"><ele>414.0</ele><time>2026-04-18T12:46:09Z</time></trkpt><trkpt lat="43.28376772089754" lon="10.746756101119868"><ele>412.0</ele><time>2026-04-18T12:46:10Z</time></trkpt><trkpt lat="43.28365809371982" lon="10.746711641907739"><ele>410.0</ele><time>2026-04-18T12:46:11Z</time></trkpt><trkpt lat="43.28358070465255" lon="10.74669268719917"><ele>408.0</ele><time>2026-04-18T12:46:12Z</time></trkpt><trkpt lat="43.283496136004494" lon="10.746630848176158"><ele>406.0</ele><time>2026-04-18T12:46:13Z</time></trkpt><trkpt lat="43.28344126914168" lon="10.746522760968348"><ele>404.0</ele><time>2026-04-18T12:46:14Z</time></trkpt><trkpt lat="43.28340382433776" lon="10.74645025406801"><ele>402.0</ele><time>2026-04-18T12:46:15Z</time></trkpt><trkpt lat="43.28338618786059" lon="10.746307730921155"><ele>402.0</ele><time>2026-04-18T12:46:17Z</time></trkpt><trkpt lat="43.28340100143061" lon="10.746178635659072"><ele>402.0</ele><time>2026-04-18T12:46:18Z</time></trkpt><trkpt lat="43.2834378183658" lon="10.746033999897664"><ele>402.0</ele><time>2026-04-18T12:46:19Z</time></trkpt><trkpt lat="43.283490429610616" lon="10.745900106654203"><ele>402.0</ele><time>2026-04-18T12:46:20Z</time></trkpt><trkpt lat="43.28356221732895" lon="10.745763901667608"><ele>402.0</ele><time>2026-04-18T12:46:21Z</time></trkpt><trkpt lat="43.283637328598886" lon="10.745629893898636"><ele>400.20000000000005</ele><time>2026-04-18T12:46:22Z</time></trkpt><trkpt lat="43.28370370105975" lon="10.745510749419502"><ele>398.4</ele><time>2026-04-18T12:46:23Z</time></trkpt><trkpt lat="43.28374577219858" lon="10.745399746406699"><ele>396.6</ele><time>2026-04-18T12:46:24Z</time></trkpt><trkpt lat="43.28376563476045" lon="10.745269283415093"><ele>394.79999999999995</ele><time>2026-04-18T12:46:25Z</time></trkpt><trkpt lat="43.28374871401966" lon="10.745141581055998"><ele>393.0</ele><time>2026-04-18T12:46:26Z</time></trkpt><trkpt lat="43.28370264179088" lon="10.745028511428002"><ele>392.0</ele><time>2026-04-18T12:46:27Z</time></trkpt><trkpt lat="43.28367478691723" lon="10.744880851256044"><ele>391.0</ele><time>2026-04-18T12:46:28Z</time></trkpt><trkpt lat="43.283620942203996" lon="10.744741687597628"><ele>390.0</ele><time>2026-04-18T12:46:29Z</time></trkpt><trkpt lat="43.283551453858905" lon="10.744614917474431"><ele>389.0</ele><time>2026-04-18T12:46:30Z</time></trkpt><trkpt lat="43.283492115914896" lon="10.744444706619163"><ele>388.25</ele><time>2026-04-18T12:46:31Z</time></trkpt><trkpt lat="43.283437236379285" lon="10.744290210135446"><ele>387.5</ele><time>2026-04-18T12:46:32Z</time></trkpt><trkpt lat="43.283357647534224" lon="10.744143947303774"><ele>386.75</ele><time>2026-04-18T12:46:33Z</time></trkpt><trkpt lat="43.28326140238814" lon="10.744001398001647"><ele>386.0</ele><time>2026-04-18T12:46:34Z</time></trkpt><trkpt lat="43.28319954660333" lon="10.743853967389658"><ele>386.0</ele><time>2026-04-18T12:46:35Z</time></trkpt><trkpt lat="43.28312941061767" lon="10.743728781562565"><ele>386.0</ele><time>2026-04-18T12:46:36Z</time></trkpt><trkpt lat="43.28306424103238" lon="10.743613046876886"><ele>386.0</ele><time>2026-04-18T12:46:37Z</time></trkpt><trkpt lat="43.283004328241304" lon="10.743503084850248"><ele>386.0</ele><time>2026-04-18T12:46:38Z</time></trkpt><trkpt lat="43.282993772189606" lon="10.743390471547846"><ele>386.0</ele><time>2026-04-18T12:46:39Z</time></trkpt><trkpt lat="43.28297994451541" lon="10.743194431846034"><ele>384.99999999999994</ele><time>2026-04-18T12:46:41Z</time></trkpt><trkpt lat="43.282971027130166" lon="10.743089951745588"><ele>384.0</ele><time>2026-04-18T12:46:42Z</time></trkpt><trkpt lat="43.28296366763954" lon="10.743003724273343"><ele>383.0</ele><time>2026-04-18T12:46:43Z</time></trkpt><trkpt lat="43.282975300561034" lon="10.742876324652071"><ele>382.0</ele><time>2026-04-18T12:46:45Z</time></trkpt><trkpt lat="43.28307221667458" lon="10.74283299365585"><ele>381.0</ele><time>2026-04-18T12:46:47Z</time></trkpt><trkpt lat="43.283149333803344" lon="10.742852977872719"><ele>380.0</ele><time>2026-04-18T12:46:48.001Z</time></trkpt><trkpt lat="43.28322737915929" lon="10.742814730500637"><ele>380.0</ele><time>2026-04-18T12:46:49.001Z</time></trkpt><trkpt lat="43.28327219672499" lon="10.742731550481938"><ele>380.0</ele><time>2026-04-18T12:46:50.001Z</time></trkpt><trkpt lat="43.28333653592169" lon="10.742646295288484"><ele>380.0</ele><time>2026-04-18T12:46:51.001Z</time></trkpt><trkpt lat="43.28340139990107" lon="10.742575131551936"><ele>380.0</ele><time>2026-04-18T12:46:52.001Z</time></trkpt><trkpt lat="43.2834733004319" lon="10.74257971385933"><ele>380.0</ele><time>2026-04-18T12:46:53.001Z</time></trkpt><trkpt lat="43.283583135567206" lon="10.742614217591058"><ele>380.0</ele><time>2026-04-18T12:46:55.001Z</time></trkpt><trkpt lat="43.28365791887105" lon="10.742674069140413"><ele>380.0</ele><time>2026-04-18T12:46:56.001Z</time></trkpt><trkpt lat="43.283736442004276" lon="10.742765956467904"><ele>380.0</ele><time>2026-04-18T12:46:57.001Z</time></trkpt><trkpt lat="43.283808990427616" lon="10.74285427584867"><ele>380.0</ele><time>2026-04-18T12:46:58.001Z</time></trkpt><trkpt lat="43.28386885168694" lon="10.742913751951205"><ele>380.0</ele><time>2026-04-18T12:46:59.001Z</time></trkpt><trkpt lat="43.28394347226923" lon="10.742944487109208"><ele>380.0</ele><time>2026-04-18T12:47:00.001Z</time></trkpt><trkpt lat="43.28403821256253" lon="10.742950585823055"><ele>380.0</ele><time>2026-04-18T12:47:01.001Z</time></trkpt><trkpt lat="43.284150719338825" lon="10.74295991135767"><ele>379.0</ele><time>2026-04-18T12:47:02.001Z</time></trkpt><trkpt lat="43.28424535914084" lon="10.742997477766185"><ele>378.0</ele><time>2026-04-18T12:47:03.001Z</time></trkpt><trkpt lat="43.28432782892014" lon="10.74305845479494"><ele>377.0</ele><time>2026-04-18T12:47:04.001Z</time></trkpt><trkpt lat="43.28440244916286" lon="10.743111965513531"><ele>376.0</ele><time>2026-04-18T12:47:05.001Z</time></trkpt><trkpt lat="43.28446780003526" lon="10.74312182092257"><ele>375.0</ele><time>2026-04-18T12:47:06.001Z</time></trkpt><trkpt lat="43.28453732556153" lon="10.743083141511693"><ele>374.0</ele><time>2026-04-18T12:47:07.001Z</time></trkpt><trkpt lat="43.2846139738296" lon="10.743045193472497"><ele>374.0</ele><time>2026-04-18T12:47:08.001Z</time></trkpt><trkpt lat="43.28468901111141" lon="10.743046789753578"><ele>374.0</ele><time>2026-04-18T12:47:09.001Z</time></trkpt><trkpt lat="43.28475193530225" lon="10.743030111724138"><ele>374.0</ele><time>2026-04-18T12:47:10.001Z</time></trkpt><trkpt lat="43.28481640004738" lon="10.743014463821332"><ele>374.0</ele><time>2026-04-18T12:47:11.001Z</time></trkpt><trkpt lat="43.284928608890304" lon="10.743015939879529"><ele>374.0</ele><time>2026-04-18T12:47:13.001Z</time></trkpt><trkpt lat="43.28499296262188" lon="10.743073459849322"><ele>374.0</ele><time>2026-04-18T12:47:14.001Z</time></trkpt><trkpt lat="43.285068714931036" lon="10.743156423266937"><ele>372.4</ele><time>2026-04-18T12:47:15.001Z</time></trkpt><trkpt lat="43.28514532014387" lon="10.743250167827714"><ele>370.79999999999995</ele><time>2026-04-18T12:47:16.001Z</time></trkpt><trkpt lat="43.28521635178002" lon="10.743338919161026"><ele>369.20000000000005</ele><time>2026-04-18T12:47:17.001Z</time></trkpt><trkpt lat="43.285281990599884" lon="10.743391481791628"><ele>367.6</ele><time>2026-04-18T12:47:18.001Z</time></trkpt><trkpt lat="43.285427113629474" lon="10.743415406957496"><ele>366.0</ele><time>2026-04-18T12:47:20.001Z</time></trkpt><trkpt lat="43.28551565170582" lon="10.743411108334799"><ele>366.0</ele><time>2026-04-18T12:47:21.001Z</time></trkpt><trkpt lat="43.28558190356674" lon="10.743451903796139"><ele>366.0</ele><time>2026-04-18T12:47:22.001Z</time></trkpt><trkpt lat="43.28563311731365" lon="10.743529785978778"><ele>366.0</ele><time>2026-04-18T12:47:23.001Z</time></trkpt><trkpt lat="43.28566764559519" lon="10.743639396943339"><ele>366.0</ele><time>2026-04-18T12:47:24.001Z</time></trkpt><trkpt lat="43.285692256654364" lon="10.74378032363826"><ele>366.0</ele><time>2026-04-18T12:47:25.001Z</time></trkpt><trkpt lat="43.28572359988669" lon="10.743901650810091"><ele>366.0</ele><time>2026-04-18T12:47:26.001Z</time></trkpt><trkpt lat="43.28577896968948" lon="10.744009713555016"><ele>366.20000000000005</ele><time>2026-04-18T12:47:28.001Z</time></trkpt><trkpt lat="43.28588091958366" lon="10.743970938129571"><ele>366.40000000000003</ele><time>2026-04-18T12:47:30.001Z</time></trkpt><trkpt lat="43.28591782908609" lon="10.743900846570043"><ele>366.6</ele><time>2026-04-18T12:47:31.001Z</time></trkpt><trkpt lat="43.28592276630224" lon="10.743752357126347"><ele>366.8</ele><time>2026-04-18T12:47:32.001Z</time></trkpt><trkpt lat="43.28591881195467" lon="10.743593886289284"><ele>367.0</ele><time>2026-04-18T12:47:33.001Z</time></trkpt><trkpt lat="43.28591805099973" lon="10.743463784674336"><ele>365.40000000000003</ele><time>2026-04-18T12:47:34.001Z</time></trkpt><trkpt lat="43.28591805099719" lon="10.743351993187247"><ele>363.8</ele><time>2026-04-18T12:47:35.001Z</time></trkpt><trkpt lat="43.28594278630896" lon="10.743183338887707"><ele>362.2</ele><time>2026-04-18T12:47:37.001Z</time></trkpt><trkpt lat="43.28602594785156" lon="10.74309558976227"><ele>360.6</ele><time>2026-04-18T12:47:38.001Z</time></trkpt><trkpt lat="43.286126671737776" lon="10.742972028970117"><ele>359.0</ele><time>2026-04-18T12:47:39.001Z</time></trkpt><trkpt lat="43.28619748423529" lon="10.742824927859331"><ele>356.25</ele><time>2026-04-18T12:47:40.001Z</time></trkpt><trkpt lat="43.28625432689679" lon="10.742647113082507"><ele>353.5</ele><time>2026-04-18T12:47:41.001Z</time></trkpt><trkpt lat="43.286294527627064" lon="10.742468007528677"><ele>350.75</ele><time>2026-04-18T12:47:42.001Z</time></trkpt><trkpt lat="43.28632188239555" lon="10.742299057668825"><ele>348.0</ele><time>2026-04-18T12:47:43.001Z</time></trkpt><trkpt lat="43.286342435388015" lon="10.742180089496742"><ele>348.0</ele><time>2026-04-18T12:47:44.001Z</time></trkpt><trkpt lat="43.28637924558075" lon="10.742073940134864"><ele>348.0</ele><time>2026-04-18T12:47:45.001Z</time></trkpt><trkpt lat="43.28643030905054" lon="10.74195064338342"><ele>348.0</ele><time>2026-04-18T12:47:46Z</time></trkpt><trkpt lat="43.28649169605895" lon="10.74177912755976"><ele>348.0</ele><time>2026-04-18T12:47:47Z</time></trkpt><trkpt lat="43.28652957024151" lon="10.741600768212669"><ele>348.25</ele><time>2026-04-18T12:47:48Z</time></trkpt><trkpt lat="43.28658537168838" lon="10.74142278692214"><ele>348.5</ele><time>2026-04-18T12:47:49Z</time></trkpt><trkpt lat="43.28668757276749" lon="10.74129894093321"><ele>348.75</ele><time>2026-04-18T12:47:50Z</time></trkpt><trkpt lat="43.28673136848388" lon="10.741138092721641"><ele>349.0</ele><time>2026-04-18T12:47:51Z</time></trkpt><trkpt lat="43.28676528025312" lon="10.740964136553066"><ele>344.25</ele><time>2026-04-18T12:47:52Z</time></trkpt><trkpt lat="43.28682581380941" lon="10.740811853287992"><ele>339.5</ele><time>2026-04-18T12:47:53Z</time></trkpt><trkpt lat="43.28687547366631" lon="10.740638119110441"><ele>334.75</ele><time>2026-04-18T12:47:54Z</time></trkpt><trkpt lat="43.286932445851015" lon="10.740468882406072"><ele>330.0</ele><time>2026-04-18T12:47:55Z</time></trkpt><trkpt lat="43.286980387582005" lon="10.740321859541218"><ele>331.6</ele><time>2026-04-18T12:47:56Z</time></trkpt><trkpt lat="43.28703541987021" lon="10.740200537694022"><ele>333.2</ele><time>2026-04-18T12:47:57Z</time></trkpt><trkpt lat="43.28711173172648" lon="10.740115760433996"><ele>334.79999999999995</ele><time>2026-04-18T12:47:58Z</time></trkpt><trkpt lat="43.28719621877176" lon="10.740035211265443"><ele>336.4</ele><time>2026-04-18T12:47:59Z</time></trkpt><trkpt lat="43.287284522787346" lon="10.739920723071624"><ele>338.0</ele><time>2026-04-18T12:48:00Z</time></trkpt><trkpt lat="43.28734044183465" lon="10.739805617901672"><ele>338.0</ele><time>2026-04-18T12:48:01Z</time></trkpt><trkpt lat="43.28738460472041" lon="10.739672165859663"><ele>338.0</ele><time>2026-04-18T12:48:02Z</time></trkpt><trkpt lat="43.28741918365739" lon="10.739541870787313"><ele>338.0</ele><time>2026-04-18T12:48:03Z</time></trkpt><trkpt lat="43.28746965106179" lon="10.73943871608589"><ele>338.0</ele><time>2026-04-18T12:48:04Z</time></trkpt><trkpt lat="43.28753400547238" lon="10.739370016807516"><ele>338.0</ele><time>2026-04-18T12:48:05Z</time></trkpt><trkpt lat="43.287604359414104" lon="10.739330656681794"><ele>338.0</ele><time>2026-04-18T12:48:06Z</time></trkpt><trkpt lat="43.28771671307832" lon="10.739376186937141"><ele>338.0</ele><time>2026-04-18T12:48:08Z</time></trkpt><trkpt lat="43.287784920590944" lon="10.739426008574638"><ele>338.0</ele><time>2026-04-18T12:48:09Z</time></trkpt><trkpt lat="43.287845629227846" lon="10.73951417880621"><ele>338.0</ele><time>2026-04-18T12:48:10Z</time></trkpt><trkpt lat="43.28790083005893" lon="10.739616441873833"><ele>338.0</ele><time>2026-04-18T12:48:11Z</time></trkpt><trkpt lat="43.28795742254735" lon="10.739670171160224"><ele>338.0</ele><time>2026-04-18T12:48:12Z</time></trkpt><trkpt lat="43.28803883041862" lon="10.739732572168215"><ele>336.4</ele><time>2026-04-18T12:48:14Z</time></trkpt><trkpt lat="43.288144261062165" lon="10.739621539031685"><ele>334.79999999999995</ele><time>2026-04-18T12:48:16Z</time></trkpt><trkpt lat="43.288152337428414" lon="10.739472415497959"><ele>333.2</ele><time>2026-04-18T12:48:17Z</time></trkpt><trkpt lat="43.28817488042085" lon="10.739347293447626"><ele>331.6</ele><time>2026-04-18T12:48:18Z</time></trkpt><trkpt lat="43.28821448200376" lon="10.739208148146986"><ele>330.0</ele><time>2026-04-18T12:48:19Z</time></trkpt><trkpt lat="43.28827535381613" lon="10.739080647356769"><ele>330.0</ele><time>2026-04-18T12:48:20Z</time></trkpt><trkpt lat="43.288346284502765" lon="10.738940621350384"><ele>330.0</ele><time>2026-04-18T12:48:21Z</time></trkpt><trkpt lat="43.28842676728085" lon="10.738802735574682"><ele>330.0</ele><time>2026-04-18T12:48:22Z</time></trkpt><trkpt lat="43.28851604177224" lon="10.738683308836718"><ele>330.0</ele><time>2026-04-18T12:48:23Z</time></trkpt><trkpt lat="43.28860056585492" lon="10.738593400334112"><ele>329.25</ele><time>2026-04-18T12:48:24Z</time></trkpt><trkpt lat="43.28870481024631" lon="10.738518262964943"><ele>328.5</ele><time>2026-04-18T12:48:25Z</time></trkpt><trkpt lat="43.288832733407276" lon="10.738446112184848"><ele>327.75</ele><time>2026-04-18T12:48:26Z</time></trkpt><trkpt lat="43.28896348561543" lon="10.738382630213748"><ele>327.0</ele><time>2026-04-18T12:48:27Z</time></trkpt><trkpt lat="43.2890910968241" lon="10.738291754909369"><ele>327.0</ele><time>2026-04-18T12:48:28Z</time></trkpt><trkpt lat="43.28919024739037" lon="10.738185786866044"><ele>327.0</ele><time>2026-04-18T12:48:29Z</time></trkpt><trkpt lat="43.28930470858941" lon="10.738110883839788"><ele>327.0</ele><time>2026-04-18T12:48:30Z</time></trkpt><trkpt lat="43.28939498710889" lon="10.73806170359675"><ele>327.0</ele><time>2026-04-18T12:48:31Z</time></trkpt><trkpt lat="43.28947686161717" lon="10.73801735997367"><ele>327.0</ele><time>2026-04-18T12:48:32Z</time></trkpt><trkpt lat="43.289564244254386" lon="10.737963044734471"><ele>327.0</ele><time>2026-04-18T12:48:33Z</time></trkpt><trkpt lat="43.289631244051655" lon="10.737886656428671"><ele>327.0</ele><time>2026-04-18T12:48:34Z</time></trkpt><trkpt lat="43.289695203263435" lon="10.737773088708547"><ele>327.0</ele><time>2026-04-18T12:48:35Z</time></trkpt><trkpt lat="43.28977889734752" lon="10.73766894117072"><ele>327.0</ele><time>2026-04-18T12:48:36Z</time></trkpt><trkpt lat="43.289877567152544" lon="10.737558002535451"><ele>327.0</ele><time>2026-04-18T12:48:37Z</time></trkpt><trkpt lat="43.28997226451096" lon="10.737452423255828"><ele>325.0</ele><time>2026-04-18T12:48:38Z</time></trkpt><trkpt lat="43.29005938939641" lon="10.737353810303611"><ele>323.0</ele><time>2026-04-18T12:48:39Z</time></trkpt><trkpt lat="43.29011971889049" lon="10.737246177294258"><ele>321.0</ele><time>2026-04-18T12:48:40Z</time></trkpt><trkpt lat="43.2901776574249" lon="10.73715685242145"><ele>319.0</ele><time>2026-04-18T12:48:41Z</time></trkpt><trkpt lat="43.290250690186774" lon="10.737061513717265"><ele>317.0</ele><time>2026-04-18T12:48:42Z</time></trkpt><trkpt lat="43.29031363530622" lon="10.73693675973079"><ele>314.2</ele><time>2026-04-18T12:48:43Z</time></trkpt><trkpt lat="43.29035836310898" lon="10.736824308311736"><ele>311.4</ele><time>2026-04-18T12:48:44Z</time></trkpt><trkpt lat="43.29038086972918" lon="10.736688273999258"><ele>308.6</ele><time>2026-04-18T12:48:45Z</time></trkpt><trkpt lat="43.29039936084588" lon="10.73656741726941"><ele>305.8</ele><time>2026-04-18T12:48:46Z</time></trkpt><trkpt lat="43.29039926212869" lon="10.736449760191917"><ele>303.0</ele><time>2026-04-18T12:48:47Z</time></trkpt><trkpt lat="43.290353168727506" lon="10.736315877110286"><ele>303.0</ele><time>2026-04-18T12:48:48Z</time></trkpt><trkpt lat="43.29031806378473" lon="10.736185455153663"><ele>303.0</ele><time>2026-04-18T12:48:49Z</time></trkpt><trkpt lat="43.29025708263593" lon="10.736063935122651"><ele>303.0</ele><time>2026-04-18T12:48:50Z</time></trkpt><trkpt lat="43.29021456799945" lon="10.735958585172906"><ele>303.0</ele><time>2026-04-18T12:48:51Z</time></trkpt><trkpt lat="43.29014289792574" lon="10.735899000934355"><ele>303.0</ele><time>2026-04-18T12:48:52Z</time></trkpt><trkpt lat="43.29006058435996" lon="10.735871563786707"><ele>303.0</ele><time>2026-04-18T12:48:53Z</time></trkpt><trkpt lat="43.2899539886442" lon="10.735844513856154"><ele>303.0</ele><time>2026-04-18T12:48:54Z</time></trkpt><trkpt lat="43.289832398881394" lon="10.735833890823187"><ele>303.0</ele><time>2026-04-18T12:48:55Z</time></trkpt><trkpt lat="43.28970062147995" lon="10.735791964501123"><ele>303.0</ele><time>2026-04-18T12:48:56Z</time></trkpt><trkpt lat="43.28955348493576" lon="10.73578146514851"><ele>299.8</ele><time>2026-04-18T12:48:57Z</time></trkpt><trkpt lat="43.289427141828845" lon="10.735720664383695"><ele>296.6</ele><time>2026-04-18T12:48:58Z</time></trkpt><trkpt lat="43.28933003263938" lon="10.735636563568479"><ele>293.4</ele><time>2026-04-18T12:48:59Z</time></trkpt><trkpt lat="43.28926283511135" lon="10.735555666794085"><ele>290.2</ele><time>2026-04-18T12:49:00Z</time></trkpt><trkpt lat="43.289221680829904" lon="10.735475464339377"><ele>287.0</ele><time>2026-04-18T12:49:01Z</time></trkpt><trkpt lat="43.28920656234987" lon="10.735282003995986"><ele>287.8</ele><time>2026-04-18T12:49:03Z</time></trkpt><trkpt lat="43.28922451402342" lon="10.73513228248235"><ele>288.6</ele><time>2026-04-18T12:49:04Z</time></trkpt><trkpt lat="43.2892311172572" lon="10.734994232922002"><ele>289.40000000000003</ele><time>2026-04-18T12:49:05Z</time></trkpt><trkpt lat="43.28923235338172" lon="10.734847320590749"><ele>290.2</ele><time>2026-04-18T12:49:06Z</time></trkpt><trkpt lat="43.28921622214789" lon="10.73471537406681"><ele>291.0</ele><time>2026-04-18T12:49:07Z</time></trkpt><trkpt lat="43.289185639295674" lon="10.734597880303866"><ele>291.0</ele><time>2026-04-18T12:49:08Z</time></trkpt><trkpt lat="43.28913345682791" lon="10.734499994151484"><ele>291.0</ele><time>2026-04-18T12:49:09Z</time></trkpt><trkpt lat="43.289114167767195" lon="10.734401196496178"><ele>291.0</ele><time>2026-04-18T12:49:10Z</time></trkpt><trkpt lat="43.28913748859683" lon="10.734284868255768"><ele>291.0</ele><time>2026-04-18T12:49:12Z</time></trkpt><trkpt lat="43.2892426632335" lon="10.734170986944537"><ele>291.0</ele><time>2026-04-18T12:49:14Z</time></trkpt><trkpt lat="43.289324182233365" lon="10.734080678808594"><ele>289.0</ele><time>2026-04-18T12:49:15.001Z</time></trkpt><trkpt lat="43.28940964295725" lon="10.733988169592461"><ele>287.0</ele><time>2026-04-18T12:49:16.001Z</time></trkpt><trkpt lat="43.28949669064336" lon="10.733888891481195"><ele>285.0</ele><time>2026-04-18T12:49:17.001Z</time></trkpt><trkpt lat="43.289569422292146" lon="10.733777057419251"><ele>283.0</ele><time>2026-04-18T12:49:18.001Z</time></trkpt><trkpt lat="43.289636724157376" lon="10.733671226889765"><ele>281.0</ele><time>2026-04-18T12:49:19.001Z</time></trkpt><trkpt lat="43.28969824427356" lon="10.73357443421452"><ele>281.1666666666667</ele><time>2026-04-18T12:49:20.001Z</time></trkpt><trkpt lat="43.289740417265264" lon="10.73348389384982"><ele>281.33333333333337</ele><time>2026-04-18T12:49:21.001Z</time></trkpt><trkpt lat="43.28979487647279" lon="10.733407616029941"><ele>281.5</ele><time>2026-04-18T12:49:22.001Z</time></trkpt><trkpt lat="43.289867214981406" lon="10.733355150649178"><ele>281.6666666666667</ele><time>2026-04-18T12:49:23.001Z</time></trkpt><trkpt lat="43.28992752927747" lon="10.733319864406681"><ele>281.8333333333333</ele><time>2026-04-18T12:49:24.001Z</time></trkpt><trkpt lat="43.29000870725283" lon="10.73334524815522"><ele>282.0</ele><time>2026-04-18T12:49:25.001Z</time></trkpt><trkpt lat="43.29012464045464" lon="10.733352146599056"><ele>282.0</ele><time>2026-04-18T12:49:26.001Z</time></trkpt><trkpt lat="43.29023436989245" lon="10.733370182755493"><ele>282.0</ele><time>2026-04-18T12:49:27.001Z</time></trkpt><trkpt lat="43.290341355696256" lon="10.733397714113954"><ele>282.0</ele><time>2026-04-18T12:49:28.001Z</time></trkpt><trkpt lat="43.290441555030036" lon="10.73344274797786"><ele>282.0</ele><time>2026-04-18T12:49:29.001Z</time></trkpt><trkpt lat="43.29053287007095" lon="10.733507875769474"><ele>282.0</ele><time>2026-04-18T12:49:30.001Z</time></trkpt><trkpt lat="43.29060272361543" lon="10.733596380476882"><ele>283.2</ele><time>2026-04-18T12:49:31.001Z</time></trkpt><trkpt lat="43.290642336526034" lon="10.733750673708778"><ele>284.4</ele><time>2026-04-18T12:49:33.001Z</time></trkpt><trkpt lat="43.290648486563455" lon="10.733856767375269"><ele>285.6</ele><time>2026-04-18T12:49:34.001Z</time></trkpt><trkpt lat="43.29067762820157" lon="10.733989899138708"><ele>286.8</ele><time>2026-04-18T12:49:35.001Z</time></trkpt><trkpt lat="43.29073718263013" lon="10.734060967226428"><ele>288.0</ele><time>2026-04-18T12:49:36.001Z</time></trkpt><trkpt lat="43.29083880259415" lon="10.734070555296176"><ele>288.0</ele><time>2026-04-18T12:49:37.001Z</time></trkpt><trkpt lat="43.290937910622084" lon="10.734109769314482"><ele>288.0</ele><time>2026-04-18T12:49:38.001Z</time></trkpt><trkpt lat="43.29106095122528" lon="10.73409399459635"><ele>288.0</ele><time>2026-04-18T12:49:39.001Z</time></trkpt><trkpt lat="43.29117663074171" lon="10.734101488314092"><ele>288.0</ele><time>2026-04-18T12:49:40.001Z</time></trkpt><trkpt lat="43.29126573570154" lon="10.734168167240503"><ele>288.0</ele><time>2026-04-18T12:49:41.001Z</time></trkpt><trkpt lat="43.29134290246014" lon="10.734220805234402"><ele>288.0</ele><time>2026-04-18T12:49:42.001Z</time></trkpt><trkpt lat="43.291413229528324" lon="10.734324827733676"><ele>288.0</ele><time>2026-04-18T12:49:43.001Z</time></trkpt><trkpt lat="43.29146707088549" lon="10.734440138063164"><ele>288.0</ele><time>2026-04-18T12:49:44.001Z</time></trkpt><trkpt lat="43.2915332600987" lon="10.734543967572371"><ele>288.0</ele><time>2026-04-18T12:49:45.001Z</time></trkpt><trkpt lat="43.29157512734696" lon="10.73466488732767"><ele>288.0</ele><time>2026-04-18T12:49:46.001Z</time></trkpt><trkpt lat="43.29156703966921" lon="10.734794523875255"><ele>287.6</ele><time>2026-04-18T12:49:47.001Z</time></trkpt><trkpt lat="43.291599853019136" lon="10.73489949073829"><ele>287.20000000000005</ele><time>2026-04-18T12:49:48.001Z</time></trkpt><trkpt lat="43.29162282000452" lon="10.734981349099396"><ele>286.8</ele><time>2026-04-18T12:49:49.001Z</time></trkpt><trkpt lat="43.291703927463395" lon="10.735048573234833"><ele>286.40000000000003</ele><time>2026-04-18T12:49:51.001Z</time></trkpt><trkpt lat="43.29179317807787" lon="10.735026793687172"><ele>286.0</ele><time>2026-04-18T12:49:52Z</time></trkpt><trkpt lat="43.2918585902698" lon="10.73487842982488"><ele>286.0</ele><time>2026-04-18T12:49:53Z</time></trkpt><trkpt lat="43.291968493395515" lon="10.734792913537168"><ele>286.0</ele><time>2026-04-18T12:49:54Z</time></trkpt><trkpt lat="43.29207650911679" lon="10.734669393706787"><ele>286.0</ele><time>2026-04-18T12:49:55Z</time></trkpt><trkpt lat="43.292122171455134" lon="10.734494353430621"><ele>286.0</ele><time>2026-04-18T12:49:56Z</time></trkpt><trkpt lat="43.29217574136355" lon="10.73432669699455"><ele>286.0</ele><time>2026-04-18T12:49:57Z</time></trkpt><trkpt lat="43.292214915866765" lon="10.734169841460096"><ele>286.0</ele><time>2026-04-18T12:49:58Z</time></trkpt><trkpt lat="43.292270759646115" lon="10.734015847079073"><ele>286.0</ele><time>2026-04-18T12:49:59Z</time></trkpt><trkpt lat="43.292279976793964" lon="10.733884366352722"><ele>286.0</ele><time>2026-04-18T12:50:00Z</time></trkpt><trkpt lat="43.292289937949555" lon="10.733716490918473"><ele>282.0</ele><time>2026-04-18T12:50:01Z</time></trkpt><trkpt lat="43.29230392398784" lon="10.733540153236433"><ele>278.0</ele><time>2026-04-18T12:50:02Z</time></trkpt><trkpt lat="43.29229975037014" lon="10.733388866416433"><ele>274.0</ele><time>2026-04-18T12:50:03Z</time></trkpt><trkpt lat="43.29233281053631" lon="10.733231145155138"><ele>270.0</ele><time>2026-04-18T12:50:04Z</time></trkpt><trkpt lat="43.292360763009206" lon="10.733089732858279"><ele>270.0</ele><time>2026-04-18T12:50:05Z</time></trkpt><trkpt lat="43.2923816122395" lon="10.733007924445849"><ele>270.0</ele><time>2026-04-18T12:50:06Z</time></trkpt><trkpt lat="43.29247153247301" lon="10.73292832835766"><ele>270.0</ele><time>2026-04-18T12:50:08Z</time></trkpt><trkpt lat="43.292560200206005" lon="10.73296723802993"><ele>270.0</ele><time>2026-04-18T12:50:09Z</time></trkpt><trkpt lat="43.292666058929306" lon="10.733008176609955"><ele>270.0</ele><time>2026-04-18T12:50:10Z</time></trkpt><trkpt lat="43.292783325945116" lon="10.733013494798245"><ele>270.0</ele><time>2026-04-18T12:50:11Z</time></trkpt><trkpt lat="43.29287823011295" lon="10.733013494798966"><ele>270.0</ele><time>2026-04-18T12:50:12Z</time></trkpt><trkpt lat="43.29294965985488" lon="10.73302270540982"><ele>270.0</ele><time>2026-04-18T12:50:13Z</time></trkpt><trkpt lat="43.29303290163281" lon="10.733024631746286"><ele>270.0</ele><time>2026-04-18T12:50:14Z</time></trkpt><trkpt lat="43.29309814017025" lon="10.73302269990551"><ele>270.0</ele><time>2026-04-18T12:50:15Z</time></trkpt><trkpt lat="43.29315733117399" lon="10.732992130493797"><ele>270.0</ele><time>2026-04-18T12:50:16Z</time></trkpt><trkpt lat="43.29320349850343" lon="10.732862882282673"><ele>269.4</ele><time>2026-04-18T12:50:17Z</time></trkpt><trkpt lat="43.29314491741639" lon="10.732680251265347"><ele>268.8</ele><time>2026-04-18T12:50:18Z</time></trkpt><trkpt lat="43.29311888793743" lon="10.732552120388474"><ele>268.2</ele><time>2026-04-18T12:50:19Z</time></trkpt><trkpt lat="43.293106432150296" lon="10.73245158606834"><ele>267.6</ele><time>2026-04-18T12:50:20Z</time></trkpt><trkpt lat="43.29314187172482" lon="10.732311249795467"><ele>267.0</ele><time>2026-04-18T12:50:22Z</time></trkpt><trkpt lat="43.29315382115017" lon="10.732164807403093"><ele>267.0</ele><time>2026-04-18T12:50:24Z</time></trkpt><trkpt lat="43.2931657974829" lon="10.731998366723262"><ele>267.0</ele><time>2026-04-18T12:50:26Z</time></trkpt><trkpt lat="43.29316665305428" lon="10.731900797528205"><ele>267.0</ele><time>2026-04-18T12:50:27Z</time></trkpt><trkpt lat="43.293134019071175" lon="10.731802312726607"><ele>267.0</ele><time>2026-04-18T12:50:28Z</time></trkpt><trkpt lat="43.29307189825303" lon="10.731714460283618"><ele>267.0</ele><time>2026-04-18T12:50:29Z</time></trkpt><trkpt lat="43.29302525087624" lon="10.731617343764274"><ele>267.0</ele><time>2026-04-18T12:50:30Z</time></trkpt><trkpt lat="43.292986673937925" lon="10.73150923649887"><ele>265.0</ele><time>2026-04-18T12:50:31Z</time></trkpt><trkpt lat="43.29296411730335" lon="10.731410744151228"><ele>263.0</ele><time>2026-04-18T12:50:32Z</time></trkpt><trkpt lat="43.292988208385175" lon="10.7312795956843"><ele>261.0</ele><time>2026-04-18T12:50:34Z</time></trkpt><trkpt lat="43.29306578045269" lon="10.731125615031521"><ele>259.0</ele><time>2026-04-18T12:50:36Z</time></trkpt><trkpt lat="43.29312927182802" lon="10.731004863441074"><ele>257.0</ele><time>2026-04-18T12:50:37Z</time></trkpt><trkpt lat="43.29319339416757" lon="10.730867628695938"><ele>257.0</ele><time>2026-04-18T12:50:38Z</time></trkpt><trkpt lat="43.29324835752119" lon="10.730710538757993"><ele>257.0</ele><time>2026-04-18T12:50:39Z</time></trkpt><trkpt lat="43.293287088954685" lon="10.730556645331315"><ele>257.0</ele><time>2026-04-18T12:50:40Z</time></trkpt><trkpt lat="43.29332175193367" lon="10.73040915208265"><ele>257.0</ele><time>2026-04-18T12:50:41Z</time></trkpt><trkpt lat="43.29336783337709" lon="10.730268297927735"><ele>254.2</ele><time>2026-04-18T12:50:42Z</time></trkpt><trkpt lat="43.293422120070524" lon="10.730153386726924"><ele>251.39999999999998</ele><time>2026-04-18T12:50:43Z</time></trkpt><trkpt lat="43.29349336344912" lon="10.730051722933942"><ele>248.60000000000002</ele><time>2026-04-18T12:50:44Z</time></trkpt><trkpt lat="43.293580243202854" lon="10.730006451261598"><ele>245.8</ele><time>2026-04-18T12:50:45Z</time></trkpt><trkpt lat="43.293658349633105" lon="10.72997086767421"><ele>243.0</ele><time>2026-04-18T12:50:46Z</time></trkpt><trkpt lat="43.29375391444135" lon="10.729932956687"><ele>243.0</ele><time>2026-04-18T12:50:47Z</time></trkpt><trkpt lat="43.293874076401416" lon="10.729903675397471"><ele>243.0</ele><time>2026-04-18T12:50:48Z</time></trkpt><trkpt lat="43.293999262511285" lon="10.729859924692322"><ele>243.0</ele><time>2026-04-18T12:50:49Z</time></trkpt><trkpt lat="43.294112424457374" lon="10.729793873721004"><ele>243.0</ele><time>2026-04-18T12:50:50Z</time></trkpt><trkpt lat="43.2942051606724" lon="10.729727549781737"><ele>245.2</ele><time>2026-04-18T12:50:51Z</time></trkpt><trkpt lat="43.29429044919374" lon="10.729684059738863"><ele>247.4</ele><time>2026-04-18T12:50:52Z</time></trkpt><trkpt lat="43.29436696259729" lon="10.729648756585995"><ele>249.59999999999997</ele><time>2026-04-18T12:50:53Z</time></trkpt><trkpt lat="43.29445090227803" lon="10.72961676582254"><ele>251.79999999999998</ele><time>2026-04-18T12:50:55Z</time></trkpt><trkpt lat="43.29452689660103" lon="10.729575018521276"><ele>254.0</ele><time>2026-04-18T12:51:00Z</time></trkpt><trkpt lat="43.294518805599076" lon="10.729398658778182"><ele>254.0</ele><time>2026-04-18T12:51:02Z</time></trkpt><trkpt lat="43.29450439798056" lon="10.729309577336785"><ele>254.0</ele><time>2026-04-18T12:51:04Z</time></trkpt><trkpt lat="43.29451894316065" lon="10.729399509167347"><ele>254.0</ele><time>2026-04-18T12:51:25.001Z</time></trkpt><trkpt lat="43.294539198221905" lon="10.72952158298703"><ele>254.0</ele><time>2026-04-18T12:51:28.001Z</time></trkpt><trkpt lat="43.294556331027756" lon="10.729622382105882"><ele>254.0</ele><time>2026-04-18T12:51:31.001Z</time></trkpt><trkpt lat="43.29457222357833" lon="10.729715882709215"><ele>254.0</ele><time>2026-04-18T12:51:34.001Z</time></trkpt><trkpt lat="43.294599162981854" lon="10.729806818886637"><ele>254.0</ele><time>2026-04-18T12:51:38.001Z</time></trkpt><trkpt lat="43.294715510402156" lon="10.729762527437607"><ele>254.0</ele><time>2026-04-18T12:51:46.001Z</time></trkpt><trkpt lat="43.29473119602366" lon="10.729571275381856"><ele>253.99999999999997</ele><time>2026-04-18T12:51:48.001Z</time></trkpt><trkpt lat="43.29478266082952" lon="10.729470971707904"><ele>253.99999999999997</ele><time>2026-04-18T12:51:49.001Z</time></trkpt><trkpt lat="43.294808167596806" lon="10.729345535956778"><ele>254.0</ele><time>2026-04-18T12:51:51.001Z</time></trkpt><trkpt lat="43.29486969263817" lon="10.72927458382391"><ele>254.0</ele><time>2026-04-18T12:51:52.001Z</time></trkpt><trkpt lat="43.2949578883879" lon="10.72921274916297"><ele>252.0</ele><time>2026-04-18T12:51:53.001Z</time></trkpt><trkpt lat="43.29505065887684" lon="10.729134497745191"><ele>249.99999999999997</ele><time>2026-04-18T12:51:54.001Z</time></trkpt><trkpt lat="43.29515286074823" lon="10.729057006160838"><ele>247.99999999999997</ele><time>2026-04-18T12:51:55.001Z</time></trkpt><trkpt lat="43.295255918986875" lon="10.729002034058045"><ele>246.0</ele><time>2026-04-18T12:51:56.001Z</time></trkpt><trkpt lat="43.29534837547315" lon="10.72892237782961"><ele>244.0</ele><time>2026-04-18T12:51:57.001Z</time></trkpt><trkpt lat="43.295435026064" lon="10.728822697542904"><ele>244.0</ele><time>2026-04-18T12:51:58Z</time></trkpt><trkpt lat="43.29552888649584" lon="10.728678843126039"><ele>244.0</ele><time>2026-04-18T12:51:59Z</time></trkpt><trkpt lat="43.295610018943485" lon="10.728514642475565"><ele>244.0</ele><time>2026-04-18T12:52:00Z</time></trkpt><trkpt lat="43.295692194009085" lon="10.728361762289655"><ele>244.0</ele><time>2026-04-18T12:52:01Z</time></trkpt><trkpt lat="43.29576515087232" lon="10.728210973917879"><ele>239.39999999999998</ele><time>2026-04-18T12:52:02Z</time></trkpt><trkpt lat="43.295813455030355" lon="10.728063246381682"><ele>234.79999999999998</ele><time>2026-04-18T12:52:03Z</time></trkpt><trkpt lat="43.29586545009689" lon="10.727935849181184"><ele>230.20000000000002</ele><time>2026-04-18T12:52:04Z</time></trkpt><trkpt lat="43.295878581046196" lon="10.727825947009505"><ele>225.60000000000002</ele><time>2026-04-18T12:52:05Z</time></trkpt><trkpt lat="43.29588695130593" lon="10.727722562617766"><ele>221.0</ele><time>2026-04-18T12:52:06Z</time></trkpt><trkpt lat="43.29582640811216" lon="10.727623312395673"><ele>220.0</ele><time>2026-04-18T12:52:07Z</time></trkpt><trkpt lat="43.29575930484454" lon="10.72752928304363"><ele>219.00000000000003</ele><time>2026-04-18T12:52:08Z</time></trkpt><trkpt lat="43.29567521412444" lon="10.727431635356803"><ele>218.00000000000003</ele><time>2026-04-18T12:52:09Z</time></trkpt><trkpt lat="43.29557978738212" lon="10.727330243316933"><ele>217.0</ele><time>2026-04-18T12:52:10Z</time></trkpt><trkpt lat="43.29549270327063" lon="10.727231390643986"><ele>216.0</ele><time>2026-04-18T12:52:11Z</time></trkpt><trkpt lat="43.29541466559081" lon="10.727148892227007"><ele>215.4</ele><time>2026-04-18T12:52:12Z</time></trkpt><trkpt lat="43.29534850619234" lon="10.727071416618427"><ele>214.8</ele><time>2026-04-18T12:52:13Z</time></trkpt><trkpt lat="43.29534608775789" lon="10.726906037358647"><ele>214.20000000000002</ele><time>2026-04-18T12:52:15Z</time></trkpt><trkpt lat="43.29540939493481" lon="10.726832814871583"><ele>213.60000000000002</ele><time>2026-04-18T12:52:16Z</time></trkpt><trkpt lat="43.295512960491926" lon="10.726783441702336"><ele>213.0</ele><time>2026-04-18T12:52:17Z</time></trkpt><trkpt lat="43.29560297474677" lon="10.726711733701556"><ele>213.60000000000002</ele><time>2026-04-18T12:52:18Z</time></trkpt><trkpt lat="43.2956849789538" lon="10.726668453864523"><ele>214.20000000000002</ele><time>2026-04-18T12:52:19Z</time></trkpt><trkpt lat="43.29576388704601" lon="10.726720547326012"><ele>214.8</ele><time>2026-04-18T12:52:20Z</time></trkpt><trkpt lat="43.295839511361834" lon="10.726802415482313"><ele>215.4</ele><time>2026-04-18T12:52:21Z</time></trkpt><trkpt lat="43.29593878604405" lon="10.726883225341792"><ele>216.0</ele><time>2026-04-18T12:52:22Z</time></trkpt><trkpt lat="43.296024059837485" lon="10.72695526650198"><ele>216.0</ele><time>2026-04-18T12:52:23Z</time></trkpt><trkpt lat="43.296107610555104" lon="10.727042496545616"><ele>216.00000000000003</ele><time>2026-04-18T12:52:24Z</time></trkpt><trkpt lat="43.29619623846003" lon="10.727136769439507"><ele>216.00000000000003</ele><time>2026-04-18T12:52:25Z</time></trkpt><trkpt lat="43.29626962555531" lon="10.727185551691182"><ele>216.0</ele><time>2026-04-18T12:52:26Z</time></trkpt><trkpt lat="43.29633443056824" lon="10.727234563005716"><ele>216.0</ele><time>2026-04-18T12:52:27Z</time></trkpt><trkpt lat="43.2964129989748" lon="10.72716187945689"><ele>216.0</ele><time>2026-04-18T12:52:28Z</time></trkpt><trkpt lat="43.29638124793405" lon="10.726981360769896"><ele>216.0</ele><time>2026-04-18T12:52:29Z</time></trkpt><trkpt lat="43.296390010787434" lon="10.726843790639197"><ele>216.0</ele><time>2026-04-18T12:52:30Z</time></trkpt><trkpt lat="43.296407917363595" lon="10.72668654416392"><ele>216.0</ele><time>2026-04-18T12:52:31Z</time></trkpt><trkpt lat="43.296467139886516" lon="10.72652173080525"><ele>212.20000000000002</ele><time>2026-04-18T12:52:32Z</time></trkpt><trkpt lat="43.29652423744681" lon="10.72636073058556"><ele>208.40000000000003</ele><time>2026-04-18T12:52:33Z</time></trkpt><trkpt lat="43.29656332161021" lon="10.726224219907483"><ele>204.6</ele><time>2026-04-18T12:52:34Z</time></trkpt><trkpt lat="43.296565758026055" lon="10.726092709620527"><ele>200.8</ele><time>2026-04-18T12:52:35Z</time></trkpt><trkpt lat="43.2964913504195" lon="10.725992354742072"><ele>197.0</ele><time>2026-04-18T12:52:36Z</time></trkpt><trkpt lat="43.296422713146555" lon="10.725876557240424"><ele>197.0</ele><time>2026-04-18T12:52:37Z</time></trkpt><trkpt lat="43.29638126475532" lon="10.725762857355754"><ele>197.0</ele><time>2026-04-18T12:52:38Z</time></trkpt><trkpt lat="43.29638267034498" lon="10.725612854246807"><ele>197.0</ele><time>2026-04-18T12:52:39Z</time></trkpt><trkpt lat="43.296432499893164" lon="10.72549239241722"><ele>197.0</ele><time>2026-04-18T12:52:40Z</time></trkpt><trkpt lat="43.296491697538485" lon="10.72537666656202"><ele>197.0</ele><time>2026-04-18T12:52:41Z</time></trkpt><trkpt lat="43.29654620090978" lon="10.725268604726045"><ele>194.6</ele><time>2026-04-18T12:52:42Z</time></trkpt><trkpt lat="43.29660142407462" lon="10.725191223165423"><ele>192.2</ele><time>2026-04-18T12:52:43Z</time></trkpt><trkpt lat="43.296665599491455" lon="10.725085206606028"><ele>189.8</ele><time>2026-04-18T12:52:44Z</time></trkpt><trkpt lat="43.29678446916326" lon="10.725041903173151"><ele>187.4</ele><time>2026-04-18T12:52:45Z</time></trkpt><trkpt lat="43.29690793229892" lon="10.72498596768039"><ele>185.0</ele><time>2026-04-18T12:52:46Z</time></trkpt><trkpt lat="43.29704262802894" lon="10.724910136523983"><ele>185.0</ele><time>2026-04-18T12:52:47Z</time></trkpt><trkpt lat="43.297168462288845" lon="10.724854790290765"><ele>185.0</ele><time>2026-04-18T12:52:48Z</time></trkpt><trkpt lat="43.297288050069696" lon="10.724829075422127"><ele>185.0</ele><time>2026-04-18T12:52:49Z</time></trkpt><trkpt lat="43.29739415876026" lon="10.724762300443535"><ele>185.0</ele><time>2026-04-18T12:52:50Z</time></trkpt><trkpt lat="43.297498462977394" lon="10.72472420524657"><ele>185.0</ele><time>2026-04-18T12:52:51Z</time></trkpt><trkpt lat="43.297586946957814" lon="10.724689798441181"><ele>185.0</ele><time>2026-04-18T12:52:52Z</time></trkpt><trkpt lat="43.29766856202125" lon="10.724663414761286"><ele>185.0</ele><time>2026-04-18T12:52:53Z</time></trkpt><trkpt lat="43.297758742431625" lon="10.724634792895033"><ele>185.0</ele><time>2026-04-18T12:52:54Z</time></trkpt><trkpt lat="43.2978450880838" lon="10.72461101299396"><ele>185.0</ele><time>2026-04-18T12:52:55Z</time></trkpt><trkpt lat="43.2979404048323" lon="10.724604306204432"><ele>185.0</ele><time>2026-04-18T12:52:56Z</time></trkpt><trkpt lat="43.29803146726829" lon="10.724581055723107"><ele>185.0</ele><time>2026-04-18T12:52:57Z</time></trkpt><trkpt lat="43.2981232679552" lon="10.724536733418438"><ele>185.0</ele><time>2026-04-18T12:52:58Z</time></trkpt><trkpt lat="43.29820266975984" lon="10.72447636096161"><ele>185.0</ele><time>2026-04-18T12:52:59Z</time></trkpt><trkpt lat="43.29827086528905" lon="10.724463833497714"><ele>185.0</ele><time>2026-04-18T12:53:00Z</time></trkpt><trkpt lat="43.29833281199218" lon="10.724505699521048"><ele>185.0</ele><time>2026-04-18T12:53:01Z</time></trkpt><trkpt lat="43.29839990189927" lon="10.724540716532555"><ele>185.0</ele><time>2026-04-18T12:53:02Z</time></trkpt><trkpt lat="43.298466590923056" lon="10.724588053317655"><ele>185.0</ele><time>2026-04-18T12:53:03Z</time></trkpt><trkpt lat="43.29856579147576" lon="10.724650423910205"><ele>185.0</ele><time>2026-04-18T12:53:04Z</time></trkpt><trkpt lat="43.298674995121814" lon="10.724722497016597"><ele>185.0</ele><time>2026-04-18T12:53:05Z</time></trkpt><trkpt lat="43.298786880812386" lon="10.724805807575173"><ele>185.0</ele><time>2026-04-18T12:53:06Z</time></trkpt><trkpt lat="43.29890667054658" lon="10.724895105346539"><ele>183.0</ele><time>2026-04-18T12:53:07Z</time></trkpt><trkpt lat="43.2989992628927" lon="10.725004892320712"><ele>181.0</ele><time>2026-04-18T12:53:08Z</time></trkpt><trkpt lat="43.299077447456156" lon="10.725078184040244"><ele>179.0</ele><time>2026-04-18T12:53:09Z</time></trkpt><trkpt lat="43.29915429032757" lon="10.725119399788264"><ele>177.0</ele><time>2026-04-18T12:53:10Z</time></trkpt><trkpt lat="43.29924363618275" lon="10.725169036886685"><ele>175.0</ele><time>2026-04-18T12:53:11Z</time></trkpt><trkpt lat="43.299352557594545" lon="10.725143017978436"><ele>175.0</ele><time>2026-04-18T12:53:12Z</time></trkpt><trkpt lat="43.299452895561075" lon="10.725051904061221"><ele>175.0</ele><time>2026-04-18T12:53:13Z</time></trkpt><trkpt lat="43.29954972235641" lon="10.725053880101639"><ele>175.0</ele><time>2026-04-18T12:53:14Z</time></trkpt><trkpt lat="43.29963790907375" lon="10.725052443706064"><ele>175.0</ele><time>2026-04-18T12:53:15Z</time></trkpt><trkpt lat="43.29970476679765" lon="10.725047526339592"><ele>175.0</ele><time>2026-04-18T12:53:16Z</time></trkpt><trkpt lat="43.299788821860886" lon="10.725104233632615"><ele>173.75</ele><time>2026-04-18T12:53:17Z</time></trkpt><trkpt lat="43.29985457722443" lon="10.725239868070869"><ele>172.5</ele><time>2026-04-18T12:53:18Z</time></trkpt><trkpt lat="43.29992031678149" lon="10.725367493869326"><ele>171.25</ele><time>2026-04-18T12:53:19Z</time></trkpt><trkpt lat="43.29999032868935" lon="10.725505463807458"><ele>170.0</ele><time>2026-04-18T12:53:20Z</time></trkpt><trkpt lat="43.30005419857308" lon="10.725624284997494"><ele>170.0</ele><time>2026-04-18T12:53:21Z</time></trkpt><trkpt lat="43.30010964700255" lon="10.7256927619179"><ele>170.0</ele><time>2026-04-18T12:53:22Z</time></trkpt><trkpt lat="43.30018367151046" lon="10.725745501121942"><ele>170.0</ele><time>2026-04-18T12:53:23Z</time></trkpt><trkpt lat="43.30027827031598" lon="10.725785189730752"><ele>170.0</ele><time>2026-04-18T12:53:24Z</time></trkpt><trkpt lat="43.30037508911678" lon="10.725818183824329"><ele>170.0</ele><time>2026-04-18T12:53:25Z</time></trkpt><trkpt lat="43.300453748853705" lon="10.725823544650295"><ele>170.0</ele><time>2026-04-18T12:53:26Z</time></trkpt><trkpt lat="43.300518938342655" lon="10.72580082327244"><ele>170.0</ele><time>2026-04-18T12:53:27Z</time></trkpt><trkpt lat="43.300545833868036" lon="10.725698305892408"><ele>170.0</ele><time>2026-04-18T12:53:29Z</time></trkpt><trkpt lat="43.3005554165209" lon="10.72559583215671"><ele>170.0</ele><time>2026-04-18T12:53:30Z</time></trkpt><trkpt lat="43.30053785310458" lon="10.725474153829987"><ele>170.0</ele><time>2026-04-18T12:53:31.001Z</time></trkpt><trkpt lat="43.300517069013516" lon="10.725343223219847"><ele>170.0</ele><time>2026-04-18T12:53:32.001Z</time></trkpt><trkpt lat="43.30051655737767" lon="10.725227128971998"><ele>170.0</ele><time>2026-04-18T12:53:33.001Z</time></trkpt><trkpt lat="43.30053560110034" lon="10.725142688784562"><ele>169.2</ele><time>2026-04-18T12:53:34.001Z</time></trkpt><trkpt lat="43.30057524630494" lon="10.725058136954667"><ele>168.4</ele><time>2026-04-18T12:53:35.001Z</time></trkpt><trkpt lat="43.30064088837586" lon="10.724934590055389"><ele>167.60000000000002</ele><time>2026-04-18T12:53:36.001Z</time></trkpt><trkpt lat="43.30070056281443" lon="10.72480418856254"><ele>166.8</ele><time>2026-04-18T12:53:37.001Z</time></trkpt><trkpt lat="43.30075421581198" lon="10.724672174646074"><ele>166.0</ele><time>2026-04-18T12:53:38.001Z</time></trkpt><trkpt lat="43.30079886513666" lon="10.724539521711433"><ele>164.20000000000002</ele><time>2026-04-18T12:53:39.001Z</time></trkpt><trkpt lat="43.30082902898157" lon="10.724392681484797"><ele>162.4</ele><time>2026-04-18T12:53:40.001Z</time></trkpt><trkpt lat="43.30081989419785" lon="10.724234718888166"><ele>160.6</ele><time>2026-04-18T12:53:41.001Z</time></trkpt><trkpt lat="43.30081580034949" lon="10.72407685252829"><ele>158.8</ele><time>2026-04-18T12:53:42.001Z</time></trkpt><trkpt lat="43.30081825429138" lon="10.7239321591229"><ele>157.0</ele><time>2026-04-18T12:53:43.001Z</time></trkpt><trkpt lat="43.30083487108907" lon="10.723814854555135"><ele>157.0</ele><time>2026-04-18T12:53:44.001Z</time></trkpt><trkpt lat="43.30086467381027" lon="10.723721070127647"><ele>157.0</ele><time>2026-04-18T12:53:45.001Z</time></trkpt><trkpt lat="43.30096097666514" lon="10.723601433139901"><ele>157.0</ele><time>2026-04-18T12:53:47.001Z</time></trkpt><trkpt lat="43.3010322483021" lon="10.723561469796508"><ele>157.0</ele><time>2026-04-18T12:53:48.001Z</time></trkpt><trkpt lat="43.301126379053905" lon="10.72349502676232"><ele>157.0</ele><time>2026-04-18T12:53:49.001Z</time></trkpt><trkpt lat="43.3012378907989" lon="10.723500095704763"><ele>156.4</ele><time>2026-04-18T12:53:50.001Z</time></trkpt><trkpt lat="43.30135046036878" lon="10.723504881941738"><ele>155.79999999999998</ele><time>2026-04-18T12:53:51.001Z</time></trkpt><trkpt lat="43.30146101726744" lon="10.72351314776655"><ele>155.2</ele><time>2026-04-18T12:53:52.001Z</time></trkpt><trkpt lat="43.3015394755724" lon="10.723488038440674"><ele>154.6</ele><time>2026-04-18T12:53:53.001Z</time></trkpt><trkpt lat="43.301613478761745" lon="10.723423292881844"><ele>154.0</ele><time>2026-04-18T12:53:54.001Z</time></trkpt><trkpt lat="43.30166459806126" lon="10.723326753277782"><ele>154.0</ele><time>2026-04-18T12:53:55.001Z</time></trkpt><trkpt lat="43.30171866438576" lon="10.723216637330342"><ele>154.0</ele><time>2026-04-18T12:53:56.001Z</time></trkpt><trkpt lat="43.30176090435837" lon="10.723055298729255"><ele>154.0</ele><time>2026-04-18T12:53:57.001Z</time></trkpt><trkpt lat="43.30180507960374" lon="10.722900282111828"><ele>154.0</ele><time>2026-04-18T12:53:58.001Z</time></trkpt><trkpt lat="43.30185627829969" lon="10.722760796323136"><ele>151.8</ele><time>2026-04-18T12:53:59.001Z</time></trkpt><trkpt lat="43.30191208773567" lon="10.722629989669539"><ele>149.60000000000002</ele><time>2026-04-18T12:54:00.001Z</time></trkpt><trkpt lat="43.301971970845074" lon="10.722513796723174"><ele>147.4</ele><time>2026-04-18T12:54:01.001Z</time></trkpt><trkpt lat="43.30203487703084" lon="10.722424091907058"><ele>145.20000000000002</ele><time>2026-04-18T12:54:02.001Z</time></trkpt><trkpt lat="43.30210469490219" lon="10.722352736513187"><ele>143.0</ele><time>2026-04-18T12:54:03Z</time></trkpt><trkpt lat="43.30217702025764" lon="10.722299015574373"><ele>143.75</ele><time>2026-04-18T12:54:04Z</time></trkpt><trkpt lat="43.30232782055765" lon="10.722260746306139"><ele>144.5</ele><time>2026-04-18T12:54:06Z</time></trkpt><trkpt lat="43.30242917768575" lon="10.722275056472688"><ele>145.25</ele><time>2026-04-18T12:54:07Z</time></trkpt><trkpt lat="43.30256236573026" lon="10.722296199004026"><ele>146.0</ele><time>2026-04-18T12:54:08Z</time></trkpt><trkpt lat="43.30268917825759" lon="10.722327404962874"><ele>146.0</ele><time>2026-04-18T12:54:09Z</time></trkpt><trkpt lat="43.30279414564763" lon="10.722363690493188"><ele>146.0</ele><time>2026-04-18T12:54:10Z</time></trkpt><trkpt lat="43.30287995391374" lon="10.72240842002212"><ele>146.0</ele><time>2026-04-18T12:54:11Z</time></trkpt><trkpt lat="43.30298677929282" lon="10.722467253863053"><ele>146.0</ele><time>2026-04-18T12:54:13Z</time></trkpt><trkpt lat="43.30303781096726" lon="10.722520515412944"><ele>146.0</ele><time>2026-04-18T12:54:16Z</time></trkpt><trkpt lat="43.3031228477019" lon="10.722597293414532"><ele>144.0</ele><time>2026-04-18T12:54:19Z</time></trkpt><trkpt lat="43.30317649301404" lon="10.72265066215117"><ele>142.0</ele><time>2026-04-18T12:54:20Z</time></trkpt><trkpt lat="43.303235616578775" lon="10.722727827083524"><ele>140.0</ele><time>2026-04-18T12:54:21Z</time></trkpt><trkpt lat="43.30330288150144" lon="10.722854480185656"><ele>138.0</ele><time>2026-04-18T12:54:23Z</time></trkpt><trkpt lat="43.303351366685106" lon="10.72301784133576"><ele>136.0</ele><time>2026-04-18T12:54:25Z</time></trkpt><trkpt lat="43.303360604507354" lon="10.723138414102394"><ele>136.0</ele><time>2026-04-18T12:54:26Z</time></trkpt><trkpt lat="43.30337808940289" lon="10.723263443080176"><ele>136.0</ele><time>2026-04-18T12:54:27Z</time></trkpt><trkpt lat="43.30337341627446" lon="10.723396855913167"><ele>136.0</ele><time>2026-04-18T12:54:28Z</time></trkpt><trkpt lat="43.30338323672947" lon="10.723532462297692"><ele>136.0</ele><time>2026-04-18T12:54:29Z</time></trkpt><trkpt lat="43.30340994954678" lon="10.723612584277989"><ele>136.0</ele><time>2026-04-18T12:54:30Z</time></trkpt><trkpt lat="43.30343146313479" lon="10.723715170864763"><ele>136.0</ele><time>2026-04-18T12:54:33Z</time></trkpt><trkpt lat="43.30352918368062" lon="10.723618974048728"><ele>136.0</ele><time>2026-04-18T12:54:35Z</time></trkpt><trkpt lat="43.3035583797695" lon="10.72346255732823"><ele>136.0</ele><time>2026-04-18T12:54:37Z</time></trkpt><trkpt lat="43.303579772242045" lon="10.72335235858205"><ele>136.0</ele><time>2026-04-18T12:54:38Z</time></trkpt><trkpt lat="43.3035925467695" lon="10.723240837794611"><ele>136.0</ele><time>2026-04-18T12:54:39Z</time></trkpt><trkpt lat="43.30358996910811" lon="10.723125241284563"><ele>136.0</ele><time>2026-04-18T12:54:40Z</time></trkpt><trkpt lat="43.303584309425354" lon="10.72299712688254"><ele>136.0</ele><time>2026-04-18T12:54:41Z</time></trkpt><trkpt lat="43.30356837967916" lon="10.722861748134608"><ele>136.0</ele><time>2026-04-18T12:54:42Z</time></trkpt><trkpt lat="43.3035732613448" lon="10.722721417632785"><ele>136.0</ele><time>2026-04-18T12:54:43Z</time></trkpt><trkpt lat="43.30359897853925" lon="10.722597235990609"><ele>136.0</ele><time>2026-04-18T12:54:44Z</time></trkpt><trkpt lat="43.30363330741342" lon="10.72246769832748"><ele>136.0</ele><time>2026-04-18T12:54:45Z</time></trkpt><trkpt lat="43.303673586435586" lon="10.722326685671622"><ele>135.4</ele><time>2026-04-18T12:54:46Z</time></trkpt><trkpt lat="43.303719257652155" lon="10.722206274768876"><ele>134.8</ele><time>2026-04-18T12:54:47Z</time></trkpt><trkpt lat="43.303778486386285" lon="10.722074297284772"><ele>134.20000000000002</ele><time>2026-04-18T12:54:48Z</time></trkpt><trkpt lat="43.303836175124665" lon="10.7219579849906"><ele>133.6</ele><time>2026-04-18T12:54:49Z</time></trkpt><trkpt lat="43.303899642258635" lon="10.721827796973772"><ele>133.0</ele><time>2026-04-18T12:54:50Z</time></trkpt><trkpt lat="43.303960117376256" lon="10.721686398336745"><ele>129.6</ele><time>2026-04-18T12:54:51Z</time></trkpt><trkpt lat="43.30400915908006" lon="10.721581197081903"><ele>126.20000000000002</ele><time>2026-04-18T12:54:52Z</time></trkpt><trkpt lat="43.30406476555042" lon="10.721456644052088"><ele>122.8</ele><time>2026-04-18T12:54:53Z</time></trkpt><trkpt lat="43.304128527422954" lon="10.721335114163457"><ele>119.4</ele><time>2026-04-18T12:54:54Z</time></trkpt><trkpt lat="43.304210988525206" lon="10.721207981874063"><ele>116.0</ele><time>2026-04-18T12:54:55Z</time></trkpt><trkpt lat="43.304280479703756" lon="10.721107025807285"><ele>117.16666666666666</ele><time>2026-04-18T12:54:56Z</time></trkpt><trkpt lat="43.304332169067834" lon="10.72101309022726"><ele>118.33333333333333</ele><time>2026-04-18T12:54:57Z</time></trkpt><trkpt lat="43.3043828544223" lon="10.72089925105423"><ele>119.5</ele><time>2026-04-18T12:54:58Z</time></trkpt><trkpt lat="43.304442938660415" lon="10.720825713688766"><ele>120.66666666666666</ele><time>2026-04-18T12:54:59Z</time></trkpt><trkpt lat="43.30451522970262" lon="10.72076251636237"><ele>121.83333333333333</ele><time>2026-04-18T12:55:00Z</time></trkpt><trkpt lat="43.30459828606064" lon="10.720738985715313"><ele>123.0</ele><time>2026-04-18T12:55:01Z</time></trkpt><trkpt lat="43.30470990974346" lon="10.720727042859046"><ele>120.2</ele><time>2026-04-18T12:55:02Z</time></trkpt><trkpt lat="43.30481110033173" lon="10.72072998436681"><ele>117.4</ele><time>2026-04-18T12:55:03Z</time></trkpt><trkpt lat="43.30491580163024" lon="10.72071640383984"><ele>114.60000000000001</ele><time>2026-04-18T12:55:04Z</time></trkpt><trkpt lat="43.305015527079235" lon="10.720699927037321"><ele>111.80000000000001</ele><time>2026-04-18T12:55:05Z</time></trkpt><trkpt lat="43.3051132125515" lon="10.720671950969315"><ele>109.0</ele><time>2026-04-18T12:55:06Z</time></trkpt><trkpt lat="43.30519623436719" lon="10.720624204458858"><ele>109.00000000000001</ele><time>2026-04-18T12:55:07Z</time></trkpt><trkpt lat="43.30525989104799" lon="10.720557235270213"><ele>109.0</ele><time>2026-04-18T12:55:08Z</time></trkpt><trkpt lat="43.30529981178849" lon="10.720488775875497"><ele>109.0</ele><time>2026-04-18T12:55:09Z</time></trkpt><trkpt lat="43.305353455861464" lon="10.720378728983318"><ele>109.0</ele><time>2026-04-18T12:55:10Z</time></trkpt><trkpt lat="43.30538463103287" lon="10.720263925234004"><ele>109.00000000000001</ele><time>2026-04-18T12:55:11Z</time></trkpt><trkpt lat="43.305405125426226" lon="10.720146001097048"><ele>109.0</ele><time>2026-04-18T12:55:12Z</time></trkpt><trkpt lat="43.30542599887376" lon="10.71999751456751"><ele>110.2</ele><time>2026-04-18T12:55:13Z</time></trkpt><trkpt lat="43.30544346778739" lon="10.71983981456247"><ele>111.4</ele><time>2026-04-18T12:55:14Z</time></trkpt><trkpt lat="43.30546746566496" lon="10.71969857462905"><ele>112.6</ele><time>2026-04-18T12:55:15Z</time></trkpt><trkpt lat="43.30548878132144" lon="10.719565745802704"><ele>113.8</ele><time>2026-04-18T12:55:16Z</time></trkpt><trkpt lat="43.30548505174516" lon="10.719407694789806"><ele>115.0</ele><time>2026-04-18T12:55:18Z</time></trkpt><trkpt lat="43.30544446589114" lon="10.719323798463405"><ele>115.0</ele><time>2026-04-18T12:55:19Z</time></trkpt><trkpt lat="43.305392216684346" lon="10.719245933975815"><ele>115.0</ele><time>2026-04-18T12:55:20Z</time></trkpt><trkpt lat="43.30535106540584" lon="10.719140006173856"><ele>115.0</ele><time>2026-04-18T12:55:21Z</time></trkpt><trkpt lat="43.30534496865128" lon="10.719009928451133"><ele>115.0</ele><time>2026-04-18T12:55:22Z</time></trkpt><trkpt lat="43.30536010076275" lon="10.718836132696836"><ele>115.0</ele><time>2026-04-18T12:55:23Z</time></trkpt><trkpt lat="43.30536565873767" lon="10.718691860259124"><ele>115.0</ele><time>2026-04-18T12:55:24Z</time></trkpt><trkpt lat="43.305384169363954" lon="10.718571101663994"><ele>115.0</ele><time>2026-04-18T12:55:25Z</time></trkpt><trkpt lat="43.30542751024762" lon="10.718475067459881"><ele>115.0</ele><time>2026-04-18T12:55:26Z</time></trkpt><trkpt lat="43.305508039015336" lon="10.718406439639969"><ele>115.0</ele><time>2026-04-18T12:55:27Z</time></trkpt><trkpt lat="43.305598296264975" lon="10.718389964301695"><ele>115.0</ele><time>2026-04-18T12:55:28Z</time></trkpt><trkpt lat="43.305703053962986" lon="10.718376629752408"><ele>111.25</ele><time>2026-04-18T12:55:29Z</time></trkpt><trkpt lat="43.305806120305746" lon="10.718378801713229"><ele>107.5</ele><time>2026-04-18T12:55:30Z</time></trkpt><trkpt lat="43.30590430374888" lon="10.71833803968535"><ele>103.75</ele><time>2026-04-18T12:55:31Z</time></trkpt><trkpt lat="43.30602647963765" lon="10.71819544681105"><ele>100.0</ele><time>2026-04-18T12:55:33Z</time></trkpt><trkpt lat="43.30608327137347" lon="10.71808670624747"><ele>100.00000000000001</ele><time>2026-04-18T12:55:34Z</time></trkpt><trkpt lat="43.30612581118337" lon="10.717971815231468"><ele>100.0</ele><time>2026-04-18T12:55:35Z</time></trkpt><trkpt lat="43.3061453197126" lon="10.717839425947252"><ele>100.0</ele><time>2026-04-18T12:55:36Z</time></trkpt><trkpt lat="43.30615715594659" lon="10.717714689852652"><ele>100.0</ele><time>2026-04-18T12:55:37Z</time></trkpt><trkpt lat="43.3061703427827" lon="10.717613617356701"><ele>100.00000000000001</ele><time>2026-04-18T12:55:38Z</time></trkpt><trkpt lat="43.30620528926987" lon="10.717528560822684"><ele>100.0</ele><time>2026-04-18T12:55:39Z</time></trkpt><trkpt lat="43.30625723472951" lon="10.717449732675119"><ele>100.0</ele><time>2026-04-18T12:55:40Z</time></trkpt><trkpt lat="43.306386424586435" lon="10.717365367346808"><ele>100.0</ele><time>2026-04-18T12:55:42Z</time></trkpt><trkpt lat="43.30649182820297" lon="10.71731562455345"><ele>100.0</ele><time>2026-04-18T12:55:43Z</time></trkpt><trkpt lat="43.30659358279972" lon="10.717259177155993"><ele>100.0</ele><time>2026-04-18T12:55:44Z</time></trkpt><trkpt lat="43.30668124445693" lon="10.717212031441054"><ele>98.33333333333334</ele><time>2026-04-18T12:55:45Z</time></trkpt><trkpt lat="43.30673643265172" lon="10.717150557995723"><ele>96.66666666666667</ele><time>2026-04-18T12:55:46Z</time></trkpt><trkpt lat="43.30678701497601" lon="10.717048430068164"><ele>95.0</ele><time>2026-04-18T12:55:47Z</time></trkpt><trkpt lat="43.30681141290225" lon="10.716917804222506"><ele>93.33333333333334</ele><time>2026-04-18T12:55:48Z</time></trkpt><trkpt lat="43.30682189972833" lon="10.716799255490141"><ele>91.66666666666667</ele><time>2026-04-18T12:55:49Z</time></trkpt><trkpt lat="43.306825337605574" lon="10.716689370846584"><ele>90.0</ele><time>2026-04-18T12:55:51Z</time></trkpt><trkpt lat="43.30681715302894" lon="10.716589881177812"><ele>90.0</ele><time>2026-04-18T12:55:52Z</time></trkpt><trkpt lat="43.30680774546791" lon="10.71643945222141"><ele>90.0</ele><time>2026-04-18T12:55:53.001Z</time></trkpt><trkpt lat="43.30679482309612" lon="10.716300744048759"><ele>90.0</ele><time>2026-04-18T12:55:54.001Z</time></trkpt><trkpt lat="43.30679844603277" lon="10.716196268544442"><ele>90.0</ele><time>2026-04-18T12:55:56.001Z</time></trkpt><trkpt lat="43.30686411545806" lon="10.716187697556409"><ele>90.0</ele><time>2026-04-18T12:55:58.001Z</time></trkpt><trkpt lat="43.30692513047607" lon="10.716319066010602"><ele>90.0</ele><time>2026-04-18T12:56:01.001Z</time></trkpt><trkpt lat="43.306948474750804" lon="10.716436278888748"><ele>90.0</ele><time>2026-04-18T12:56:02.001Z</time></trkpt><trkpt lat="43.30698980684818" lon="10.716560527032131"><ele>90.0</ele><time>2026-04-18T12:56:03.001Z</time></trkpt><trkpt lat="43.30705716218247" lon="10.716715028537829"><ele>90.0</ele><time>2026-04-18T12:56:04.001Z</time></trkpt><trkpt lat="43.30709667612772" lon="10.716824335910765"><ele>90.0</ele><time>2026-04-18T12:56:05.001Z</time></trkpt><trkpt lat="43.307121572840146" lon="10.716929893811411"><ele>89.8</ele><time>2026-04-18T12:56:06.001Z</time></trkpt><trkpt lat="43.30714891051614" lon="10.717075883579506"><ele>89.6</ele><time>2026-04-18T12:56:07.001Z</time></trkpt><trkpt lat="43.30717559686685" lon="10.717246197579078"><ele>89.4</ele><time>2026-04-18T12:56:08.001Z</time></trkpt><trkpt lat="43.30718540409021" lon="10.717366724426661"><ele>89.2</ele><time>2026-04-18T12:56:08.999Z</time></trkpt><trkpt lat="43.3071872551854" lon="10.717502526315002"><ele>89.0</ele><time>2026-04-18T12:56:09.999Z</time></trkpt><trkpt lat="43.307180812578665" lon="10.71760886002636"><ele>89.0</ele><time>2026-04-18T12:56:10.999Z</time></trkpt><trkpt lat="43.30715500084204" lon="10.717704486362646"><ele>89.0</ele><time>2026-04-18T12:56:11.999Z</time></trkpt><trkpt lat="43.30711134849792" lon="10.717773422694867"><ele>89.0</ele><time>2026-04-18T12:56:12.999Z</time></trkpt><trkpt lat="43.30699687633198" lon="10.71787508540076"><ele>89.0</ele><time>2026-04-18T12:56:14.999Z</time></trkpt><trkpt lat="43.30692399064648" lon="10.717925177209583"><ele>89.0</ele><time>2026-04-18T12:56:15.999Z</time></trkpt><trkpt lat="43.306874918083764" lon="10.718057024238698"><ele>88.16666666666667</ele><time>2026-04-18T12:56:17.999Z</time></trkpt><trkpt lat="43.30690063210409" lon="10.718136061243746"><ele>87.33333333333334</ele><time>2026-04-18T12:56:18.999Z</time></trkpt><trkpt lat="43.30694926523344" lon="10.718209399945758"><ele>86.5</ele><time>2026-04-18T12:56:19.999Z</time></trkpt><trkpt lat="43.307005953223246" lon="10.718321852234752"><ele>85.66666666666667</ele><time>2026-04-18T12:56:20.999Z</time></trkpt><trkpt lat="43.307035392913505" lon="10.71844329859765"><ele>84.83333333333333</ele><time>2026-04-18T12:56:21.999Z</time></trkpt><trkpt lat="43.30703791578126" lon="10.718546779777514"><ele>84.0</ele><time>2026-04-18T12:56:23Z</time></trkpt><trkpt lat="43.30702856070937" lon="10.718656045142943"><ele>83.4</ele><time>2026-04-18T12:56:24Z</time></trkpt><trkpt lat="43.307006293824784" lon="10.718756559897853"><ele>82.80000000000001</ele><time>2026-04-18T12:56:25Z</time></trkpt><trkpt lat="43.306972326949655" lon="10.71887145653915"><ele>82.19999999999999</ele><time>2026-04-18T12:56:26Z</time></trkpt><trkpt lat="43.306952291569125" lon="10.719013724535635"><ele>81.6</ele><time>2026-04-18T12:56:27Z</time></trkpt><trkpt lat="43.30694676323653" lon="10.719161316123131"><ele>81.0</ele><time>2026-04-18T12:56:28Z</time></trkpt><trkpt lat="43.30695394727375" lon="10.719278456403087"><ele>81.0</ele><time>2026-04-18T12:56:29Z</time></trkpt><trkpt lat="43.30696677887594" lon="10.719367369562981"><ele>81.0</ele><time>2026-04-18T12:56:30Z</time></trkpt><trkpt lat="43.30699262795208" lon="10.719508603353185"><ele>81.0</ele><time>2026-04-18T12:56:32Z</time></trkpt><trkpt lat="43.3070537597029" lon="10.719534963304815"><ele>81.0</ele><time>2026-04-18T12:56:34Z</time></trkpt><trkpt lat="43.30712418908646" lon="10.719429044143304"><ele>81.0</ele><time>2026-04-18T12:56:36Z</time></trkpt><trkpt lat="43.30715763426854" lon="10.719326780050324"><ele>81.0</ele><time>2026-04-18T12:56:37Z</time></trkpt><trkpt lat="43.30718236212656" lon="10.719209711228569"><ele>81.0</ele><time>2026-04-18T12:56:38Z</time></trkpt><trkpt lat="43.30722059151594" lon="10.719056178141894"><ele>81.0</ele><time>2026-04-18T12:56:39Z</time></trkpt><trkpt lat="43.30727247402717" lon="10.718907308556348"><ele>81.0</ele><time>2026-04-18T12:56:40Z</time></trkpt><trkpt lat="43.307324734751674" lon="10.718715682617892"><ele>81.0</ele><time>2026-04-18T12:56:41Z</time></trkpt><trkpt lat="43.30736993131283" lon="10.718514785315058"><ele>78.33333333333333</ele><time>2026-04-18T12:56:42Z</time></trkpt><trkpt lat="43.307429422427894" lon="10.718270734135002"><ele>75.66666666666666</ele><time>2026-04-18T12:56:43Z</time></trkpt><trkpt lat="43.30748488295739" lon="10.718041340910315"><ele>73.0</ele><time>2026-04-18T12:56:44Z</time></trkpt><trkpt lat="43.30753657789912" lon="10.717859547161277"><ele>73.25</ele><time>2026-04-18T12:56:45Z</time></trkpt><trkpt lat="43.30755830555747" lon="10.717699371408921"><ele>73.5</ele><time>2026-04-18T12:56:46Z</time></trkpt><trkpt lat="43.30757571135659" lon="10.71755868944047"><ele>73.75</ele><time>2026-04-18T12:56:47Z</time></trkpt><trkpt lat="43.307671933983976" lon="10.717329795379918"><ele>74.0</ele><time>2026-04-18T12:56:48Z</time></trkpt><trkpt lat="43.30772083227796" lon="10.717136652713812"><ele>74.0</ele><time>2026-04-18T12:56:49Z</time></trkpt><trkpt lat="43.30775656529919" lon="10.716950462588958"><ele>74.0</ele><time>2026-04-18T12:56:50Z</time></trkpt><trkpt lat="43.30778618829078" lon="10.716799357039958"><ele>74.0</ele><time>2026-04-18T12:56:51Z</time></trkpt><trkpt lat="43.30781494201555" lon="10.716681768538287"><ele>74.0</ele><time>2026-04-18T12:56:52Z</time></trkpt><trkpt lat="43.30785390763219" lon="10.71658044381747"><ele>74.0</ele><time>2026-04-18T12:56:53Z</time></trkpt><trkpt lat="43.30791118527498" lon="10.716460026671525"><ele>73.8</ele><time>2026-04-18T12:56:54Z</time></trkpt><trkpt lat="43.30797898958008" lon="10.716355948820533"><ele>73.60000000000001</ele><time>2026-04-18T12:56:55Z</time></trkpt><trkpt lat="43.30806329024572" lon="10.716274909870414"><ele>73.4</ele><time>2026-04-18T12:56:56Z</time></trkpt><trkpt lat="43.30815717642442" lon="10.716204945742394"><ele>73.2</ele><time>2026-04-18T12:56:57Z</time></trkpt><trkpt lat="43.30825748667661" lon="10.716132604786857"><ele>73.0</ele><time>2026-04-18T12:56:58Z</time></trkpt><trkpt lat="43.30835464382379" lon="10.716061091728246"><ele>73.0</ele><time>2026-04-18T12:56:59Z</time></trkpt><trkpt lat="43.30843491507641" lon="10.71598498334744"><ele>73.0</ele><time>2026-04-18T12:57:00Z</time></trkpt><trkpt lat="43.3085108785722" lon="10.715897378580681"><ele>73.0</ele><time>2026-04-18T12:57:01Z</time></trkpt><trkpt lat="43.30856307348253" lon="10.715807627302302"><ele>73.0</ele><time>2026-04-18T12:57:02Z</time></trkpt><trkpt lat="43.308598205305266" lon="10.715689990884549"><ele>73.0</ele><time>2026-04-18T12:57:03Z</time></trkpt><trkpt lat="43.30860350509427" lon="10.715584711711042"><ele>73.0</ele><time>2026-04-18T12:57:04Z</time></trkpt><trkpt lat="43.30860557715164" lon="10.71544695022834"><ele>73.0</ele><time>2026-04-18T12:57:05Z</time></trkpt><trkpt lat="43.30861916063622" lon="10.715328176335229"><ele>73.0</ele><time>2026-04-18T12:57:06Z</time></trkpt><trkpt lat="43.308665333235766" lon="10.715247593500186"><ele>73.0</ele><time>2026-04-18T12:57:07Z</time></trkpt><trkpt lat="43.3087659696005" lon="10.715137182643419"><ele>73.0</ele><time>2026-04-18T12:57:09Z</time></trkpt><trkpt lat="43.30885214318975" lon="10.715087234180247"><ele>71.8</ele><time>2026-04-18T12:57:10Z</time></trkpt><trkpt lat="43.30893414116512" lon="10.715000546303502"><ele>70.6</ele><time>2026-04-18T12:57:11Z</time></trkpt><trkpt lat="43.30900196072939" lon="10.714895222751835"><ele>69.4</ele><time>2026-04-18T12:57:12Z</time></trkpt><trkpt lat="43.30908089264944" lon="10.714757235574323"><ele>68.2</ele><time>2026-04-18T12:57:13Z</time></trkpt><trkpt lat="43.30914271361176" lon="10.714625202902914"><ele>67.0</ele><time>2026-04-18T12:57:14Z</time></trkpt><trkpt lat="43.30918756608712" lon="10.714515957133159"><ele>67.0</ele><time>2026-04-18T12:57:15Z</time></trkpt><trkpt lat="43.3092184040227" lon="10.71441239229275"><ele>67.0</ele><time>2026-04-18T12:57:16Z</time></trkpt><trkpt lat="43.30925724538963" lon="10.714303433844034"><ele>67.0</ele><time>2026-04-18T12:57:17Z</time></trkpt><trkpt lat="43.309301484606614" lon="10.714234723644187"><ele>67.0</ele><time>2026-04-18T12:57:18Z</time></trkpt><trkpt lat="43.3093481515885" lon="10.714154259543978"><ele>67.0</ele><time>2026-04-18T12:57:19Z</time></trkpt><trkpt lat="43.3094082243912" lon="10.714073632008812"><ele>67.0</ele><time>2026-04-18T12:57:20Z</time></trkpt><trkpt lat="43.30947990471522" lon="10.714004348077896"><ele>67.16666666666666</ele><time>2026-04-18T12:57:21Z</time></trkpt><trkpt lat="43.30954864642348" lon="10.713969007517115"><ele>67.33333333333333</ele><time>2026-04-18T12:57:22Z</time></trkpt><trkpt lat="43.309622703608746" lon="10.713942057104635"><ele>67.5</ele><time>2026-04-18T12:57:23Z</time></trkpt><trkpt lat="43.30971996076294" lon="10.713920910286188"><ele>67.66666666666667</ele><time>2026-04-18T12:57:24Z</time></trkpt><trkpt lat="43.309817642486635" lon="10.713880595237185"><ele>67.83333333333334</ele><time>2026-04-18T12:57:25Z</time></trkpt><trkpt lat="43.309903419880335" lon="10.7138299182249"><ele>68.0</ele><time>2026-04-18T12:57:26Z</time></trkpt><trkpt lat="43.309969740288935" lon="10.713742016418983"><ele>68.0</ele><time>2026-04-18T12:57:27Z</time></trkpt><trkpt lat="43.310037772207515" lon="10.713639490280556"><ele>68.0</ele><time>2026-04-18T12:57:28Z</time></trkpt><trkpt lat="43.31012171643923" lon="10.713523470709205"><ele>68.0</ele><time>2026-04-18T12:57:29Z</time></trkpt><trkpt lat="43.310214523332256" lon="10.713416503634141"><ele>68.0</ele><time>2026-04-18T12:57:30Z</time></trkpt><trkpt lat="43.31029190367073" lon="10.713339995296307"><ele>68.0</ele><time>2026-04-18T12:57:31Z</time></trkpt><trkpt lat="43.310356138297465" lon="10.713333817229396"><ele>67.5</ele><time>2026-04-18T12:57:32Z</time></trkpt><trkpt lat="43.31039389544163" lon="10.713262112826088"><ele>67.0</ele><time>2026-04-18T12:57:34Z</time></trkpt><trkpt lat="43.31046141346191" lon="10.713206940945502"><ele>66.5</ele><time>2026-04-18T12:58:12.001Z</time></trkpt><trkpt lat="43.31053108346112" lon="10.713100526140076"><ele>66.0</ele><time>2026-04-18T12:58:14.001Z</time></trkpt><trkpt lat="43.31057482450256" lon="10.713026654950433"><ele>65.5</ele><time>2026-04-18T12:58:15Z</time></trkpt><trkpt lat="43.31063595710102" lon="10.71292543116108"><ele>65.0</ele><time>2026-04-18T12:58:16Z</time></trkpt><trkpt lat="43.31071351333239" lon="10.712828691975057"><ele>64.66666666666667</ele><time>2026-04-18T12:58:17Z</time></trkpt><trkpt lat="43.310804577839725" lon="10.712686816870832"><ele>64.33333333333333</ele><time>2026-04-18T12:58:18Z</time></trkpt><trkpt lat="43.31091697998841" lon="10.712549138536597"><ele>64.0</ele><time>2026-04-18T12:58:19Z</time></trkpt><trkpt lat="43.310731319593245" lon="10.711961998017042"><ele>63.666666666666664</ele><time>2026-04-18T12:58:20Z</time></trkpt><trkpt lat="43.3108115317068" lon="10.711756993206778"><ele>63.33333333333333</ele><time>2026-04-18T12:58:21Z</time></trkpt><trkpt lat="43.310883970828336" lon="10.711537007393792"><ele>63.0</ele><time>2026-04-18T12:58:22Z</time></trkpt><trkpt lat="43.31096390909903" lon="10.711318889817067"><ele>63.0</ele><time>2026-04-18T12:58:23Z</time></trkpt><trkpt lat="43.31104743668865" lon="10.711106488453835"><ele>63.0</ele><time>2026-04-18T12:58:24Z</time></trkpt><trkpt lat="43.3111329308545" lon="10.71088975262594"><ele>63.0</ele><time>2026-04-18T12:58:25Z</time></trkpt><trkpt lat="43.31121643515396" lon="10.71066931608803"><ele>62.66666666666667</ele><time>2026-04-18T12:58:26Z</time></trkpt><trkpt lat="43.31130122428401" lon="10.710438508732258"><ele>62.333333333333336</ele><time>2026-04-18T12:58:27Z</time></trkpt><trkpt lat="43.31138341877323" lon="10.71021426654273"><ele>62.0</ele><time>2026-04-18T12:58:28Z</time></trkpt><trkpt lat="43.31146487777912" lon="10.709977393832299"><ele>61.66666666666667</ele><time>2026-04-18T12:58:29Z</time></trkpt><trkpt lat="43.3115511177081" lon="10.709738953554202"><ele>61.33333333333333</ele><time>2026-04-18T12:58:30Z</time></trkpt><trkpt lat="43.31163535385312" lon="10.709514285932325"><ele>61.0</ele><time>2026-04-18T12:58:31Z</time></trkpt><trkpt lat="43.31172299566843" lon="10.709268084318753"><ele>61.0</ele><time>2026-04-18T12:58:32Z</time></trkpt><trkpt lat="43.3118107688202" lon="10.70902630334894"><ele>61.0</ele><time>2026-04-18T12:58:33Z</time></trkpt><trkpt lat="43.31190060922638" lon="10.708780792715176"><ele>61.0</ele><time>2026-04-18T12:58:34Z</time></trkpt><trkpt lat="43.3119857091735" lon="10.708550124345656"><ele>60.666666666666664</ele><time>2026-04-18T12:58:35Z</time></trkpt><trkpt lat="43.31207493644691" lon="10.708307245476465"><ele>60.33333333333333</ele><time>2026-04-18T12:58:36Z</time></trkpt><trkpt lat="43.31216615590731" lon="10.708054672300706"><ele>60.0</ele><time>2026-04-18T12:58:37Z</time></trkpt><trkpt lat="43.31225511286864" lon="10.707803424345471"><ele>60.66666666666667</ele><time>2026-04-18T12:58:38Z</time></trkpt><trkpt lat="43.312359839130046" lon="10.707566040726485"><ele>61.333333333333336</ele><time>2026-04-18T12:58:39Z</time></trkpt><trkpt lat="43.31245604425683" lon="10.70730820652601"><ele>62.0</ele><time>2026-04-18T12:58:40Z</time></trkpt><trkpt lat="43.31253914185949" lon="10.707046650612558"><ele>62.66666666666667</ele><time>2026-04-18T12:58:41Z</time></trkpt><trkpt lat="43.312637041923864" lon="10.706802731522766"><ele>63.33333333333333</ele><time>2026-04-18T12:58:42Z</time></trkpt><trkpt lat="43.31273105049279" lon="10.706540916031019"><ele>64.0</ele><time>2026-04-18T12:58:43Z</time></trkpt><trkpt lat="43.312811194250244" lon="10.706279094372833"><ele>66.0</ele><time>2026-04-18T12:58:44Z</time></trkpt><trkpt lat="43.31288982554024" lon="10.705991977414646"><ele>68.0</ele><time>2026-04-18T12:58:45Z</time></trkpt><trkpt lat="43.312958697062115" lon="10.705712119984126"><ele>70.0</ele><time>2026-04-18T12:58:46Z</time></trkpt><trkpt lat="43.3130396999412" lon="10.705429683487008"><ele>70.33333333333333</ele><time>2026-04-18T12:58:47Z</time></trkpt><trkpt lat="43.31308992133772" lon="10.705153449043317"><ele>70.66666666666667</ele><time>2026-04-18T12:58:48Z</time></trkpt><trkpt lat="43.31311951033296" lon="10.704864913641403"><ele>71.0</ele><time>2026-04-18T12:58:49Z</time></trkpt><trkpt lat="43.31319728521144" lon="10.704605408186982"><ele>72.66666666666667</ele><time>2026-04-18T12:58:50Z</time></trkpt><trkpt lat="43.31328182926008" lon="10.704357012019791"><ele>74.33333333333333</ele><time>2026-04-18T12:58:51Z</time></trkpt><trkpt lat="43.31338125650103" lon="10.704106748385298"><ele>76.0</ele><time>2026-04-18T12:58:52Z</time></trkpt><trkpt lat="43.31348002387006" lon="10.703859077954425"><ele>76.0</ele><time>2026-04-18T12:58:53Z</time></trkpt><trkpt lat="43.31360197563739" lon="10.703612390832522"><ele>76.0</ele><time>2026-04-18T12:58:54Z</time></trkpt><trkpt lat="43.31370815599906" lon="10.703352062278483"><ele>76.0</ele><time>2026-04-18T12:58:55Z</time></trkpt><trkpt lat="43.313797461560505" lon="10.70308140296066"><ele>77.0</ele><time>2026-04-18T12:58:56Z</time></trkpt><trkpt lat="43.31388816238865" lon="10.70279593015486"><ele>78.0</ele><time>2026-04-18T12:58:57Z</time></trkpt><trkpt lat="43.313970859093224" lon="10.702531094744383"><ele>79.0</ele><time>2026-04-18T12:58:58Z</time></trkpt><trkpt lat="43.3140438133928" lon="10.70230434994956"><ele>79.0</ele><time>2026-04-18T12:58:59Z</time></trkpt><trkpt lat="43.31410764174242" lon="10.7020880215457"><ele>79.0</ele><time>2026-04-18T12:59:00Z</time></trkpt><trkpt lat="43.31415082135125" lon="10.701886499088204"><ele>79.0</ele><time>2026-04-18T12:59:01Z</time></trkpt><trkpt lat="43.31415813290602" lon="10.701702183550307"><ele>80.25</ele><time>2026-04-18T12:59:02Z</time></trkpt><trkpt lat="43.31411112678633" lon="10.70156124055642"><ele>81.5</ele><time>2026-04-18T12:59:03Z</time></trkpt><trkpt lat="43.31402207941779" lon="10.70145641514923"><ele>82.75</ele><time>2026-04-18T12:59:04Z</time></trkpt><trkpt lat="43.31390464256897" lon="10.701382488512763"><ele>84.0</ele><time>2026-04-18T12:59:05Z</time></trkpt><trkpt lat="43.313804769419995" lon="10.701269117459121"><ele>86.25</ele><time>2026-04-18T12:59:06Z</time></trkpt><trkpt lat="43.31372941275583" lon="10.701121890628897"><ele>88.5</ele><time>2026-04-18T12:59:07Z</time></trkpt><trkpt lat="43.31372239399614" lon="10.700917221560356"><ele>90.75</ele><time>2026-04-18T12:59:08Z</time></trkpt><trkpt lat="43.31371654897728" lon="10.700693000894173"><ele>93.0</ele><time>2026-04-18T12:59:09Z</time></trkpt><trkpt lat="43.31372388455634" lon="10.70044650079443"><ele>94.33333333333334</ele><time>2026-04-18T12:59:10Z</time></trkpt><trkpt lat="43.31374148665834" lon="10.700188183602243"><ele>95.66666666666667</ele><time>2026-04-18T12:59:11Z</time></trkpt><trkpt lat="43.31379326715707" lon="10.69992144145021"><ele>97.0</ele><time>2026-04-18T12:59:12Z</time></trkpt><trkpt lat="43.31386377684524" lon="10.699645673211363"><ele>95.33333333333334</ele><time>2026-04-18T12:59:13Z</time></trkpt><trkpt lat="43.31392719373613" lon="10.69934744849648"><ele>93.66666666666667</ele><time>2026-04-18T12:59:14Z</time></trkpt><trkpt lat="43.31400700987711" lon="10.699090172879496"><ele>92.0</ele><time>2026-04-18T12:59:15Z</time></trkpt><trkpt lat="43.314056602697576" lon="10.698838874206645"><ele>90.0</ele><time>2026-04-18T12:59:16Z</time></trkpt><trkpt lat="43.314078637572656" lon="10.698573985009858"><ele>88.0</ele><time>2026-04-18T12:59:17Z</time></trkpt><trkpt lat="43.31407022519181" lon="10.698292104179762"><ele>86.0</ele><time>2026-04-18T12:59:18Z</time></trkpt><trkpt lat="43.314055660762904" lon="10.698006677953058"><ele>86.0</ele><time>2026-04-18T12:59:19Z</time></trkpt><trkpt lat="43.31405371941523" lon="10.697753184404647"><ele>86.0</ele><time>2026-04-18T12:59:20Z</time></trkpt><trkpt lat="43.31405742248856" lon="10.697540127101936"><ele>86.0</ele><time>2026-04-18T12:59:21Z</time></trkpt><trkpt lat="43.31405468165812" lon="10.697329499375375"><ele>86.4</ele><time>2026-04-18T12:59:22Z</time></trkpt><trkpt lat="43.31403350414003" lon="10.697169282391263"><ele>86.8</ele><time>2026-04-18T12:59:23Z</time></trkpt><trkpt lat="43.31398109163874" lon="10.697061150294184"><ele>87.2</ele><time>2026-04-18T12:59:24Z</time></trkpt><trkpt lat="43.3138962995817" lon="10.696997848518025"><ele>87.60000000000001</ele><time>2026-04-18T12:59:25Z</time></trkpt><trkpt lat="43.313788906433665" lon="10.696996387900754"><ele>88.0</ele><time>2026-04-18T12:59:26Z</time></trkpt><trkpt lat="43.313665915613676" lon="10.697037666149546"><ele>88.0</ele><time>2026-04-18T12:59:27Z</time></trkpt><trkpt lat="43.31353200876815" lon="10.69710574385778"><ele>88.0</ele><time>2026-04-18T12:59:28Z</time></trkpt><trkpt lat="43.313413960953135" lon="10.697186209838112"><ele>88.0</ele><time>2026-04-18T12:59:29Z</time></trkpt><trkpt lat="43.31330618740545" lon="10.697218488861212"><ele>88.0</ele><time>2026-04-18T12:59:30Z</time></trkpt><trkpt lat="43.31321492383933" lon="10.697238295032433"><ele>88.0</ele><time>2026-04-18T12:59:31Z</time></trkpt><trkpt lat="43.313124237534176" lon="10.697205736808554"><ele>88.0</ele><time>2026-04-18T12:59:32Z</time></trkpt><trkpt lat="43.31305484240865" lon="10.697106308472605"><ele>88.0</ele><time>2026-04-18T12:59:33Z</time></trkpt><trkpt lat="43.31308003405615" lon="10.696965057036742"><ele>88.0</ele><time>2026-04-18T12:59:34Z</time></trkpt><trkpt lat="43.3131044242742" lon="10.696814088283778"><ele>88.0</ele><time>2026-04-18T12:59:35Z</time></trkpt><trkpt lat="43.3131860659903" lon="10.69665852695058"><ele>87.0</ele><time>2026-04-18T12:59:36Z</time></trkpt><trkpt lat="43.313284154725295" lon="10.69649650050639"><ele>86.0</ele><time>2026-04-18T12:59:37Z</time></trkpt><trkpt lat="43.313392759910435" lon="10.696328496299802"><ele>85.0</ele><time>2026-04-18T12:59:38.001Z</time></trkpt><trkpt lat="43.31349488236234" lon="10.696128071907955"><ele>86.0</ele><time>2026-04-18T12:59:39.001Z</time></trkpt><trkpt lat="43.31360018534769" lon="10.695928035297829"><ele>87.0</ele><time>2026-04-18T12:59:40.001Z</time></trkpt><trkpt lat="43.31371459825209" lon="10.69571363653513"><ele>88.0</ele><time>2026-04-18T12:59:41.001Z</time></trkpt><trkpt lat="43.313819720988434" lon="10.695537048012328"><ele>88.0</ele><time>2026-04-18T12:59:42.001Z</time></trkpt><trkpt lat="43.31389999233121" lon="10.69536141776963"><ele>88.0</ele><time>2026-04-18T12:59:43.001Z</time></trkpt><trkpt lat="43.31395127859964" lon="10.695206078638716"><ele>88.0</ele><time>2026-04-18T12:59:44.001Z</time></trkpt><trkpt lat="43.3139618348351" lon="10.695033147709719"><ele>88.0</ele><time>2026-04-18T12:59:45.001Z</time></trkpt><trkpt lat="43.31392528504458" lon="10.694884119468338"><ele>88.0</ele><time>2026-04-18T12:59:46.001Z</time></trkpt><trkpt lat="43.31386765954405" lon="10.694738849653854"><ele>88.0</ele><time>2026-04-18T12:59:47.001Z</time></trkpt><trkpt lat="43.313740991383625" lon="10.6946347889911"><ele>88.0</ele><time>2026-04-18T12:59:48.001Z</time></trkpt><trkpt lat="43.313615467154925" lon="10.694522919067337"><ele>88.0</ele><time>2026-04-18T12:59:49.001Z</time></trkpt><trkpt lat="43.31353357181125" lon="10.694364338521497"><ele>86.75</ele><time>2026-04-18T12:59:50.001Z</time></trkpt><trkpt lat="43.313478545940235" lon="10.694198616729812"><ele>85.5</ele><time>2026-04-18T12:59:51.001Z</time></trkpt><trkpt lat="43.31350256672149" lon="10.694030840662638"><ele>84.25</ele><time>2026-04-18T12:59:52.001Z</time></trkpt><trkpt lat="43.31354153979722" lon="10.69389738373194"><ele>83.0</ele><time>2026-04-18T12:59:53.001Z</time></trkpt><trkpt lat="43.313600292399954" lon="10.693723867151604"><ele>83.33333333333334</ele><time>2026-04-18T12:59:54.001Z</time></trkpt><trkpt lat="43.313692990755015" lon="10.693543720037516"><ele>83.66666666666667</ele><time>2026-04-18T12:59:55.001Z</time></trkpt><trkpt lat="43.313770824478205" lon="10.693347769758164"><ele>84.0</ele><time>2026-04-18T12:59:56.001Z</time></trkpt><trkpt lat="43.313860621131504" lon="10.693128551324786"><ele>79.66666666666667</ele><time>2026-04-18T12:59:57.001Z</time></trkpt><trkpt lat="43.31395154941252" lon="10.692904985965432"><ele>75.33333333333334</ele><time>2026-04-18T12:59:58.001Z</time></trkpt><trkpt lat="43.314028309857214" lon="10.692687193078038"><ele>71.0</ele><time>2026-04-18T12:59:59.001Z</time></trkpt><trkpt lat="43.31408829824949" lon="10.692433413202329"><ele>70.66666666666667</ele><time>2026-04-18T13:00:00.001Z</time></trkpt><trkpt lat="43.31412721469834" lon="10.692185953998411"><ele>70.33333333333333</ele><time>2026-04-18T13:00:01.001Z</time></trkpt><trkpt lat="43.31416532145588" lon="10.69195362665544"><ele>70.0</ele><time>2026-04-18T13:00:02.001Z</time></trkpt><trkpt lat="43.31421174992829" lon="10.69176419119287"><ele>70.0</ele><time>2026-04-18T13:00:03.001Z</time></trkpt><trkpt lat="43.31429953983603" lon="10.691580753970493"><ele>70.0</ele><time>2026-04-18T13:00:04.001Z</time></trkpt><trkpt lat="43.31435257070019" lon="10.69135932021638"><ele>70.0</ele><time>2026-04-18T13:00:05.001Z</time></trkpt><trkpt lat="43.314415933640525" lon="10.691162028210512"><ele>71.66666666666666</ele><time>2026-04-18T13:00:06.001Z</time></trkpt><trkpt lat="43.31446972575857" lon="10.690944681385282"><ele>73.33333333333333</ele><time>2026-04-18T13:00:07.001Z</time></trkpt><trkpt lat="43.31451084674804" lon="10.690702349743422"><ele>75.0</ele><time>2026-04-18T13:00:08.001Z</time></trkpt><trkpt lat="43.314531524841215" lon="10.690460236293228"><ele>73.66666666666667</ele><time>2026-04-18T13:00:09.001Z</time></trkpt><trkpt lat="43.31454000594994" lon="10.690205127498883"><ele>72.33333333333334</ele><time>2026-04-18T13:00:10.001Z</time></trkpt><trkpt lat="43.31455834365396" lon="10.68996241699289"><ele>71.0</ele><time>2026-04-18T13:00:11.001Z</time></trkpt><trkpt lat="43.314542605000696" lon="10.68970217225315"><ele>71.0</ele><time>2026-04-18T13:00:12.001Z</time></trkpt><trkpt lat="43.314531842997766" lon="10.689457109999253"><ele>71.0</ele><time>2026-04-18T13:00:13.001Z</time></trkpt><trkpt lat="43.31448382238616" lon="10.689240844253675"><ele>71.0</ele><time>2026-04-18T13:00:14.001Z</time></trkpt><trkpt lat="43.31443802549322" lon="10.689020596880525"><ele>69.0</ele><time>2026-04-18T13:00:15.001Z</time></trkpt><trkpt lat="43.31437037623565" lon="10.688826361753746"><ele>67.0</ele><time>2026-04-18T13:00:16.001Z</time></trkpt><trkpt lat="43.31425800804845" lon="10.688643890914495"><ele>65.0</ele><time>2026-04-18T13:00:17.001Z</time></trkpt><trkpt lat="43.31415393381517" lon="10.688498255993252"><ele>64.25</ele><time>2026-04-18T13:00:18.001Z</time></trkpt><trkpt lat="43.31409214504468" lon="10.68833154981031"><ele>63.5</ele><time>2026-04-18T13:00:19.001Z</time></trkpt><trkpt lat="43.31404615788921" lon="10.688141196895145"><ele>62.75</ele><time>2026-04-18T13:00:20.001Z</time></trkpt><trkpt lat="43.31401566783214" lon="10.687920647940054"><ele>62.0</ele><time>2026-04-18T13:00:21Z</time></trkpt><trkpt lat="43.31400274392369" lon="10.687716168986846"><ele>61.75</ele><time>2026-04-18T13:00:22Z</time></trkpt><trkpt lat="43.31400813122748" lon="10.687524637269432"><ele>61.5</ele><time>2026-04-18T13:00:23Z</time></trkpt><trkpt lat="43.31405159240004" lon="10.6873486158121"><ele>61.25</ele><time>2026-04-18T13:00:24Z</time></trkpt><trkpt lat="43.31412595007672" lon="10.687161537777362"><ele>61.0</ele><time>2026-04-18T13:00:25Z</time></trkpt><trkpt lat="43.314207922443245" lon="10.686954549315208"><ele>59.0</ele><time>2026-04-18T13:00:26Z</time></trkpt><trkpt lat="43.31427603086733" lon="10.686718958609056"><ele>57.0</ele><time>2026-04-18T13:00:27Z</time></trkpt><trkpt lat="43.31431315704592" lon="10.68647517566287"><ele>55.0</ele><time>2026-04-18T13:00:28Z</time></trkpt><trkpt lat="43.31435751482332" lon="10.686231424322155"><ele>54.0</ele><time>2026-04-18T13:00:29Z</time></trkpt><trkpt lat="43.31441999383004" lon="10.685979317728103"><ele>53.0</ele><time>2026-04-18T13:00:30Z</time></trkpt><trkpt lat="43.314461178846784" lon="10.685726645519976"><ele>52.0</ele><time>2026-04-18T13:00:31Z</time></trkpt><trkpt lat="43.31448053534528" lon="10.685484585800769"><ele>50.666666666666664</ele><time>2026-04-18T13:00:32Z</time></trkpt><trkpt lat="43.31445885074638" lon="10.685244074890692"><ele>49.33333333333333</ele><time>2026-04-18T13:00:33Z</time></trkpt><trkpt lat="43.314384832799774" lon="10.685004550401217"><ele>48.0</ele><time>2026-04-18T13:00:34Z</time></trkpt><trkpt lat="43.31430204362543" lon="10.68476402486488"><ele>48.0</ele><time>2026-04-18T13:00:35Z</time></trkpt><trkpt lat="43.314228978326845" lon="10.684502446194008"><ele>48.0</ele><time>2026-04-18T13:00:36Z</time></trkpt><trkpt lat="43.314149189321256" lon="10.684242918776098"><ele>48.0</ele><time>2026-04-18T13:00:37Z</time></trkpt><trkpt lat="43.31407195605298" lon="10.683983594377374"><ele>47.666666666666664</ele><time>2026-04-18T13:00:38Z</time></trkpt><trkpt lat="43.31401164060365" lon="10.683743852195272"><ele>47.33333333333333</ele><time>2026-04-18T13:00:39Z</time></trkpt><trkpt lat="43.31398823018812" lon="10.68352866316077"><ele>47.0</ele><time>2026-04-18T13:00:40Z</time></trkpt><trkpt lat="43.31399128049764" lon="10.683309950549312"><ele>46.0</ele><time>2026-04-18T13:00:41Z</time></trkpt><trkpt lat="43.31401930444868" lon="10.683069552436928"><ele>45.0</ele><time>2026-04-18T13:00:42Z</time></trkpt><trkpt lat="43.314055612635975" lon="10.682804154918113"><ele>44.0</ele><time>2026-04-18T13:00:43Z</time></trkpt><trkpt lat="43.31408613271989" lon="10.68253460042106"><ele>43.666666666666664</ele><time>2026-04-18T13:00:44Z</time></trkpt><trkpt lat="43.31412540736705" lon="10.682264544262313"><ele>43.333333333333336</ele><time>2026-04-18T13:00:45Z</time></trkpt><trkpt lat="43.31416441696341" lon="10.681981658427144"><ele>43.0</ele><time>2026-04-18T13:00:46Z</time></trkpt><trkpt lat="43.31420373058403" lon="10.681690526189458"><ele>42.66666666666667</ele><time>2026-04-18T13:00:47Z</time></trkpt><trkpt lat="43.31424452297226" lon="10.681399085460917"><ele>42.333333333333336</ele><time>2026-04-18T13:00:48Z</time></trkpt><trkpt lat="43.31428833005129" lon="10.68109750808976"><ele>42.0</ele><time>2026-04-18T13:00:49Z</time></trkpt><trkpt lat="43.314330260474264" lon="10.680801662904484"><ele>42.0</ele><time>2026-04-18T13:00:50Z</time></trkpt><trkpt lat="43.314368782033185" lon="10.680523548160748"><ele>42.0</ele><time>2026-04-18T13:00:51Z</time></trkpt><trkpt lat="43.31440640839076" lon="10.680264315428"><ele>42.0</ele><time>2026-04-18T13:00:52Z</time></trkpt><trkpt lat="43.314440008209246" lon="10.680003277429455"><ele>41.666666666666664</ele><time>2026-04-18T13:00:53Z</time></trkpt><trkpt lat="43.31445133115975" lon="10.679764084816426"><ele>41.33333333333333</ele><time>2026-04-18T13:00:54Z</time></trkpt><trkpt lat="43.314429736754164" lon="10.679533306205187"><ele>41.0</ele><time>2026-04-18T13:00:55Z</time></trkpt><trkpt lat="43.31437166316788" lon="10.679266098001527"><ele>40.33333333333333</ele><time>2026-04-18T13:00:56Z</time></trkpt><trkpt lat="43.31429259251788" lon="10.679010730972795"><ele>39.666666666666664</ele><time>2026-04-18T13:00:57Z</time></trkpt><trkpt lat="43.314222820454084" lon="10.67872281419702"><ele>39.0</ele><time>2026-04-18T13:00:58Z</time></trkpt><trkpt lat="43.31414646449293" lon="10.678447124049786"><ele>39.0</ele><time>2026-04-18T13:00:59Z</time></trkpt><trkpt lat="43.31405670960498" lon="10.678185165942917"><ele>39.0</ele><time>2026-04-18T13:01:00Z</time></trkpt><trkpt lat="43.31398639965088" lon="10.677902811012357"><ele>39.0</ele><time>2026-04-18T13:01:01Z</time></trkpt><trkpt lat="43.3139051173363" lon="10.677618161442787"><ele>39.333333333333336</ele><time>2026-04-18T13:01:02Z</time></trkpt><trkpt lat="43.313833625919166" lon="10.677358198789044"><ele>39.66666666666667</ele><time>2026-04-18T13:01:03Z</time></trkpt><trkpt lat="43.31376591257224" lon="10.677119413330232"><ele>40.0</ele><time>2026-04-18T13:01:04Z</time></trkpt><trkpt lat="43.313711219053864" lon="10.676919711150997"><ele>40.25</ele><time>2026-04-18T13:01:05Z</time></trkpt><trkpt lat="43.313657892413104" lon="10.676750120477559"><ele>40.5</ele><time>2026-04-18T13:01:06Z</time></trkpt><trkpt lat="43.31359172097672" lon="10.67660473096641"><ele>40.75</ele><time>2026-04-18T13:01:07Z</time></trkpt><trkpt lat="43.313511625710866" lon="10.676494305229944"><ele>41.0</ele><time>2026-04-18T13:01:08Z</time></trkpt><trkpt lat="43.31341989635775" lon="10.676403996346487"><ele>41.0</ele><time>2026-04-18T13:01:09Z</time></trkpt><trkpt lat="43.31332526593317" lon="10.676331408244547"><ele>41.0</ele><time>2026-04-18T13:01:10Z</time></trkpt><trkpt lat="43.313237160193964" lon="10.676262639618612"><ele>41.0</ele><time>2026-04-18T13:01:11Z</time></trkpt><trkpt lat="43.313162359379355" lon="10.6762063476221"><ele>41.0</ele><time>2026-04-18T13:01:12Z</time></trkpt><trkpt lat="43.31310023551758" lon="10.676144946059564"><ele>41.0</ele><time>2026-04-18T13:01:13Z</time></trkpt><trkpt lat="43.31304213236217" lon="10.67609526635634"><ele>41.0</ele><time>2026-04-18T13:01:14Z</time></trkpt><trkpt lat="43.312950790331186" lon="10.676003096437759"><ele>40.8</ele><time>2026-04-18T13:01:16Z</time></trkpt><trkpt lat="43.31288184393803" lon="10.67593101404615"><ele>40.599999999999994</ele><time>2026-04-18T13:01:18Z</time></trkpt><trkpt lat="43.31290399015546" lon="10.675750700662187"><ele>40.4</ele><time>2026-04-18T13:01:21Z</time></trkpt><trkpt lat="43.31294904069571" lon="10.675689721346693"><ele>40.2</ele><time>2026-04-18T13:01:22Z</time></trkpt><trkpt lat="43.313014979258455" lon="10.675607076320956"><ele>40.0</ele><time>2026-04-18T13:01:23Z</time></trkpt><trkpt lat="43.31310520147579" lon="10.675503518290743"><ele>40.0</ele><time>2026-04-18T13:01:24Z</time></trkpt><trkpt lat="43.31320589056334" lon="10.675385511129715"><ele>40.0</ele><time>2026-04-18T13:01:25Z</time></trkpt><trkpt lat="43.31330455695482" lon="10.675265727178061"><ele>40.0</ele><time>2026-04-18T13:01:26Z</time></trkpt><trkpt lat="43.31342133720451" lon="10.675120097984248"><ele>40.0</ele><time>2026-04-18T13:01:27Z</time></trkpt><trkpt lat="43.31355098083907" lon="10.674961904701627"><ele>40.333333333333336</ele><time>2026-04-18T13:01:28Z</time></trkpt><trkpt lat="43.313680691472825" lon="10.674813282890002"><ele>40.666666666666664</ele><time>2026-04-18T13:01:29Z</time></trkpt><trkpt lat="43.31380512061031" lon="10.674674741746594"><ele>41.0</ele><time>2026-04-18T13:01:30Z</time></trkpt><trkpt lat="43.313936953144434" lon="10.674517651317538"><ele>40.0</ele><time>2026-04-18T13:01:31Z</time></trkpt><trkpt lat="43.31407463970379" lon="10.674349684026202"><ele>39.0</ele><time>2026-04-18T13:01:32Z</time></trkpt><trkpt lat="43.3142125542978" lon="10.674190335490232"><ele>38.0</ele><time>2026-04-18T13:01:33Z</time></trkpt><trkpt lat="43.31435711351953" lon="10.674032023902065"><ele>38.0</ele><time>2026-04-18T13:01:34Z</time></trkpt><trkpt lat="43.31451063846752" lon="10.673872932735803"><ele>38.0</ele><time>2026-04-18T13:01:35Z</time></trkpt><trkpt lat="43.314669272272994" lon="10.67371626734873"><ele>38.0</ele><time>2026-04-18T13:01:36Z</time></trkpt><trkpt lat="43.314835032991645" lon="10.67355616090768"><ele>39.0</ele><time>2026-04-18T13:01:37.001Z</time></trkpt><trkpt lat="43.314997971996156" lon="10.673403638742876"><ele>40.0</ele><time>2026-04-18T13:01:38.001Z</time></trkpt><trkpt lat="43.31516886418123" lon="10.673250437515918"><ele>41.0</ele><time>2026-04-18T13:01:39.001Z</time></trkpt><trkpt lat="43.315344429214115" lon="10.673096732582305"><ele>41.0</ele><time>2026-04-18T13:01:40.001Z</time></trkpt><trkpt lat="43.31552787331072" lon="10.672939025317762"><ele>41.0</ele><time>2026-04-18T13:01:41.001Z</time></trkpt><trkpt lat="43.31571178155694" lon="10.672778791235405"><ele>41.0</ele><time>2026-04-18T13:01:42.001Z</time></trkpt><trkpt lat="43.31589451605143" lon="10.672618093235629"><ele>40.666666666666664</ele><time>2026-04-18T13:01:43.001Z</time></trkpt><trkpt lat="43.31607757158438" lon="10.672457272562195"><ele>40.333333333333336</ele><time>2026-04-18T13:01:44.001Z</time></trkpt><trkpt lat="43.31626141861766" lon="10.672292888046401"><ele>40.0</ele><time>2026-04-18T13:01:45.001Z</time></trkpt><trkpt lat="43.31645256847166" lon="10.672126902877052"><ele>40.0</ele><time>2026-04-18T13:01:46.001Z</time></trkpt><trkpt lat="43.31662841150196" lon="10.671968749801794"><ele>40.0</ele><time>2026-04-18T13:01:47.001Z</time></trkpt><trkpt lat="43.316806887332454" lon="10.671809847499436"><ele>40.0</ele><time>2026-04-18T13:01:48.001Z</time></trkpt><trkpt lat="43.31698923230718" lon="10.671650915258548"><ele>39.66666666666667</ele><time>2026-04-18T13:01:49.001Z</time></trkpt><trkpt lat="43.317169245671764" lon="10.671498918891993"><ele>39.333333333333336</ele><time>2026-04-18T13:01:50.001Z</time></trkpt><trkpt lat="43.31735416079952" lon="10.671355044486681"><ele>39.0</ele><time>2026-04-18T13:01:51.001Z</time></trkpt><trkpt lat="43.31753463688476" lon="10.671219130402546"><ele>38.333333333333336</ele><time>2026-04-18T13:01:52.001Z</time></trkpt><trkpt lat="43.317723539341216" lon="10.671089265885376"><ele>37.66666666666667</ele><time>2026-04-18T13:01:53.001Z</time></trkpt><trkpt lat="43.31790430560422" lon="10.670961683019643"><ele>37.0</ele><time>2026-04-18T13:01:54.001Z</time></trkpt><trkpt lat="43.31808891329046" lon="10.670839105772144"><ele>36.66666666666667</ele><time>2026-04-18T13:01:55.001Z</time></trkpt><trkpt lat="43.31828878390228" lon="10.670719233008544"><ele>36.333333333333336</ele><time>2026-04-18T13:01:56.001Z</time></trkpt><trkpt lat="43.31848138387998" lon="10.670614921603757"><ele>36.0</ele><time>2026-04-18T13:01:57.001Z</time></trkpt><trkpt lat="43.31867950104059" lon="10.670515456151525"><ele>36.0</ele><time>2026-04-18T13:01:58.001Z</time></trkpt><trkpt lat="43.31888771264071" lon="10.670423638292286"><ele>36.0</ele><time>2026-04-18T13:01:59.001Z</time></trkpt><trkpt lat="43.31909568526669" lon="10.670339523152695"><ele>36.0</ele><time>2026-04-18T13:02:00.001Z</time></trkpt><trkpt lat="43.31930803224726" lon="10.67026149374953"><ele>35.666666666666664</ele><time>2026-04-18T13:02:01.001Z</time></trkpt><trkpt lat="43.31951455884935" lon="10.670186258856331"><ele>35.33333333333333</ele><time>2026-04-18T13:02:02.001Z</time></trkpt><trkpt lat="43.319723552957775" lon="10.670118427266221"><ele>35.0</ele><time>2026-04-18T13:02:03.001Z</time></trkpt><trkpt lat="43.31994601499892" lon="10.670068088433734"><ele>35.666666666666664</ele><time>2026-04-18T13:02:04.001Z</time></trkpt><trkpt lat="43.32016026080378" lon="10.670022785635746"><ele>36.333333333333336</ele><time>2026-04-18T13:02:05.001Z</time></trkpt><trkpt lat="43.32037238656305" lon="10.66998252952555"><ele>37.0</ele><time>2026-04-18T13:02:06.001Z</time></trkpt><trkpt lat="43.32058981659018" lon="10.669946968574404"><ele>37.0</ele><time>2026-04-18T13:02:07.001Z</time></trkpt><trkpt lat="43.32081005171618" lon="10.669920861743904"><ele>37.0</ele><time>2026-04-18T13:02:08.001Z</time></trkpt><trkpt lat="43.32103376618382" lon="10.669907492417856"><ele>37.0</ele><time>2026-04-18T13:02:09.001Z</time></trkpt><trkpt lat="43.321251709728735" lon="10.669899066869094"><ele>37.0</ele><time>2026-04-18T13:02:10.001Z</time></trkpt><trkpt lat="43.32147576887275" lon="10.669897305291066"><ele>37.0</ele><time>2026-04-18T13:02:11.001Z</time></trkpt><trkpt lat="43.321690301449564" lon="10.66989462000214"><ele>37.0</ele><time>2026-04-18T13:02:12.001Z</time></trkpt><trkpt lat="43.32190987520931" lon="10.669890496289797"><ele>37.0</ele><time>2026-04-18T13:02:13.001Z</time></trkpt><trkpt lat="43.32213484865943" lon="10.66988538292446"><ele>37.0</ele><time>2026-04-18T13:02:14.001Z</time></trkpt><trkpt lat="43.322356884012734" lon="10.66987968442935"><ele>37.0</ele><time>2026-04-18T13:02:15.001Z</time></trkpt><trkpt lat="43.32257290444349" lon="10.669874635533372"><ele>37.333333333333336</ele><time>2026-04-18T13:02:16.001Z</time></trkpt><trkpt lat="43.322789176891526" lon="10.66987551878466"><ele>37.666666666666664</ele><time>2026-04-18T13:02:17.001Z</time></trkpt><trkpt lat="43.32299672598481" lon="10.669875233866673"><ele>38.0</ele><time>2026-04-18T13:02:18.001Z</time></trkpt><trkpt lat="43.32322639694406" lon="10.669879723046835"><ele>36.666666666666664</ele><time>2026-04-18T13:02:19.001Z</time></trkpt><trkpt lat="43.32342385615835" lon="10.669871759126837"><ele>35.333333333333336</ele><time>2026-04-18T13:02:20.001Z</time></trkpt><trkpt lat="43.323613115019604" lon="10.669869109554813"><ele>34.0</ele><time>2026-04-18T13:02:21.001Z</time></trkpt><trkpt lat="43.32382588305001" lon="10.669863380885177"><ele>34.66666666666667</ele><time>2026-04-18T13:02:22.001Z</time></trkpt><trkpt lat="43.32402898688057" lon="10.66985409618892"><ele>35.333333333333336</ele><time>2026-04-18T13:02:23.001Z</time></trkpt><trkpt lat="43.32425052240665" lon="10.669857808943359"><ele>36.0</ele><time>2026-04-18T13:02:24.001Z</time></trkpt><trkpt lat="43.32446979366015" lon="10.669879371307879"><ele>36.0</ele><time>2026-04-18T13:02:25.001Z</time></trkpt><trkpt lat="43.32469903353882" lon="10.66992060807486"><ele>36.0</ele><time>2026-04-18T13:02:26.001Z</time></trkpt><trkpt lat="43.324918132950046" lon="10.669960582496804"><ele>36.0</ele><time>2026-04-18T13:02:27Z</time></trkpt><trkpt lat="43.32513889195974" lon="10.670000131493765"><ele>36.0</ele><time>2026-04-18T13:02:28Z</time></trkpt><trkpt lat="43.3253596055738" lon="10.670039666929151"><ele>36.0</ele><time>2026-04-18T13:02:29Z</time></trkpt><trkpt lat="43.325581991353964" lon="10.670083654975272"><ele>36.0</ele><time>2026-04-18T13:02:30Z</time></trkpt><trkpt lat="43.32580916795154" lon="10.670124404137344"><ele>36.0</ele><time>2026-04-18T13:02:31Z</time></trkpt><trkpt lat="43.32602894855042" lon="10.670165336334854"><ele>36.0</ele><time>2026-04-18T13:02:32Z</time></trkpt><trkpt lat="43.32625489679254" lon="10.67020938940694"><ele>36.0</ele><time>2026-04-18T13:02:33Z</time></trkpt><trkpt lat="43.326481518215644" lon="10.67025261930455"><ele>37.0</ele><time>2026-04-18T13:02:34Z</time></trkpt><trkpt lat="43.3267064822181" lon="10.670293259312489"><ele>38.0</ele><time>2026-04-18T13:02:35Z</time></trkpt><trkpt lat="43.326931842827896" lon="10.67033581674874"><ele>38.0</ele><time>2026-04-18T13:02:36Z</time></trkpt><trkpt lat="43.327140927734284" lon="10.670377005610653"><ele>38.0</ele><time>2026-04-18T13:02:37Z</time></trkpt><trkpt lat="43.32733070008215" lon="10.67041600935162"><ele>38.0</ele><time>2026-04-18T13:02:38Z</time></trkpt><trkpt lat="43.32750931592342" lon="10.670453931186362"><ele>37.666666666666664</ele><time>2026-04-18T13:02:39Z</time></trkpt><trkpt lat="43.327670098740334" lon="10.670485484701583"><ele>37.333333333333336</ele><time>2026-04-18T13:02:40Z</time></trkpt><trkpt lat="43.32781937779753" lon="10.670515197680931"><ele>37.0</ele><time>2026-04-18T13:02:41Z</time></trkpt><trkpt lat="43.32797404435987" lon="10.670543417832095"><ele>36.75</ele><time>2026-04-18T13:02:42Z</time></trkpt><trkpt lat="43.32812115827011" lon="10.670573927547581"><ele>36.5</ele><time>2026-04-18T13:02:43Z</time></trkpt><trkpt lat="43.3282674165343" lon="10.67060137252197"><ele>36.25</ele><time>2026-04-18T13:02:44Z</time></trkpt><trkpt lat="43.32839715462612" lon="10.6706271662443"><ele>36.0</ele><time>2026-04-18T13:02:45Z</time></trkpt><trkpt lat="43.32852524683687" lon="10.670636410997073"><ele>36.0</ele><time>2026-04-18T13:02:46Z</time></trkpt><trkpt lat="43.32864427492394" lon="10.670627424932189"><ele>36.0</ele><time>2026-04-18T13:02:47Z</time></trkpt><trkpt lat="43.32875456305952" lon="10.670594807756794"><ele>36.0</ele><time>2026-04-18T13:02:48Z</time></trkpt><trkpt lat="43.328854613628835" lon="10.670553461464472"><ele>36.0</ele><time>2026-04-18T13:02:49Z</time></trkpt><trkpt lat="43.32895139426135" lon="10.670520770244966"><ele>36.0</ele><time>2026-04-18T13:02:50Z</time></trkpt><trkpt lat="43.32904547317935" lon="10.670532833446618"><ele>36.166666666666664</ele><time>2026-04-18T13:02:51Z</time></trkpt><trkpt lat="43.32913900409029" lon="10.670582587398988"><ele>36.333333333333336</ele><time>2026-04-18T13:02:52Z</time></trkpt><trkpt lat="43.3292225069646" lon="10.670611404910067"><ele>36.5</ele><time>2026-04-18T13:02:53Z</time></trkpt><trkpt lat="43.32929248115333" lon="10.670573340633396"><ele>36.66666666666667</ele><time>2026-04-18T13:02:54Z</time></trkpt><trkpt lat="43.329336477305624" lon="10.670479406995137"><ele>36.833333333333336</ele><time>2026-04-18T13:02:55Z</time></trkpt><trkpt lat="43.32934875244588" lon="10.670355670899617"><ele>37.0</ele><time>2026-04-18T13:02:56Z</time></trkpt><trkpt lat="43.329322685432096" lon="10.670226312977114"><ele>36.6</ele><time>2026-04-18T13:02:57Z</time></trkpt><trkpt lat="43.32926949065782" lon="10.670109099542115"><ele>36.2</ele><time>2026-04-18T13:02:58Z</time></trkpt><trkpt lat="43.3292154999582" lon="10.669986306723041"><ele>35.8</ele><time>2026-04-18T13:02:59Z</time></trkpt><trkpt lat="43.32918027475853" lon="10.669844692731063"><ele>35.4</ele><time>2026-04-18T13:03:00Z</time></trkpt><trkpt lat="43.3291565172777" lon="10.66968609377997"><ele>35.0</ele><time>2026-04-18T13:03:01Z</time></trkpt><trkpt lat="43.32913145222278" lon="10.6695245639963"><ele>34.75</ele><time>2026-04-18T13:03:02Z</time></trkpt><trkpt lat="43.32910213452238" lon="10.669358784115133"><ele>34.5</ele><time>2026-04-18T13:03:03Z</time></trkpt><trkpt lat="43.32907381349071" lon="10.66918915615203"><ele>34.25</ele><time>2026-04-18T13:03:04Z</time></trkpt><trkpt lat="43.329047744472525" lon="10.669017879495316"><ele>34.0</ele><time>2026-04-18T13:03:05Z</time></trkpt><trkpt lat="43.32902085556728" lon="10.668851633123108"><ele>34.0</ele><time>2026-04-18T13:03:06Z</time></trkpt><trkpt lat="43.32899221105275" lon="10.668681518395642"><ele>34.0</ele><time>2026-04-18T13:03:07Z</time></trkpt><trkpt lat="43.32896618810743" lon="10.668513034062938"><ele>34.0</ele><time>2026-04-18T13:03:08Z</time></trkpt><trkpt lat="43.32893913330606" lon="10.668339233459958"><ele>34.0</ele><time>2026-04-18T13:03:09Z</time></trkpt><trkpt lat="43.328912865643595" lon="10.668165982009322"><ele>34.5</ele><time>2026-04-18T13:03:10Z</time></trkpt><trkpt lat="43.32888589795527" lon="10.667986028025261"><ele>35.0</ele><time>2026-04-18T13:03:11Z</time></trkpt><trkpt lat="43.328858992933924" lon="10.667811958528397"><ele>35.5</ele><time>2026-04-18T13:03:12Z</time></trkpt><trkpt lat="43.328828764555624" lon="10.667628725928019"><ele>36.0</ele><time>2026-04-18T13:03:13Z</time></trkpt><trkpt lat="43.32880005942454" lon="10.66744383106385"><ele>36.25</ele><time>2026-04-18T13:03:14Z</time></trkpt><trkpt lat="43.32877037353636" lon="10.667258172419263"><ele>36.5</ele><time>2026-04-18T13:03:15Z</time></trkpt><trkpt lat="43.32874350605298" lon="10.667071014307584"><ele>36.75</ele><time>2026-04-18T13:03:16Z</time></trkpt><trkpt lat="43.32871909343784" lon="10.666896455640154"><ele>37.0</ele><time>2026-04-18T13:03:17Z</time></trkpt><trkpt lat="43.32869435448369" lon="10.666714757398417"><ele>37.0</ele><time>2026-04-18T13:03:18Z</time></trkpt><trkpt lat="43.32867021455284" lon="10.666552240229326"><ele>37.0</ele><time>2026-04-18T13:03:19Z</time></trkpt><trkpt lat="43.32864490302262" lon="10.66639533061774"><ele>37.0</ele><time>2026-04-18T13:03:20Z</time></trkpt><trkpt lat="43.32861974453818" lon="10.666231614010615"><ele>37.0</ele><time>2026-04-18T13:03:21Z</time></trkpt><trkpt lat="43.32859905726267" lon="10.666065399780368"><ele>37.25</ele><time>2026-04-18T13:03:22Z</time></trkpt><trkpt lat="43.328582674785004" lon="10.66589357021061"><ele>37.5</ele><time>2026-04-18T13:03:23Z</time></trkpt><trkpt lat="43.328570352675875" lon="10.665713304731497"><ele>37.75</ele><time>2026-04-18T13:03:24Z</time></trkpt><trkpt lat="43.32855797200277" lon="10.665536530484768"><ele>38.0</ele><time>2026-04-18T13:03:25Z</time></trkpt><trkpt lat="43.32854414348629" lon="10.665343095963154"><ele>38.0</ele><time>2026-04-18T13:03:26Z</time></trkpt><trkpt lat="43.32852890128884" lon="10.665141885646143"><ele>38.0</ele><time>2026-04-18T13:03:27Z</time></trkpt><trkpt lat="43.328512810239395" lon="10.66494154384125"><ele>38.0</ele><time>2026-04-18T13:03:28Z</time></trkpt><trkpt lat="43.328498223274174" lon="10.664741110156164"><ele>38.0</ele><time>2026-04-18T13:03:29Z</time></trkpt><trkpt lat="43.328483360357346" lon="10.66453418929386"><ele>37.0</ele><time>2026-04-18T13:03:30Z</time></trkpt><trkpt lat="43.32847267111468" lon="10.664321162445418"><ele>36.0</ele><time>2026-04-18T13:03:31Z</time></trkpt><trkpt lat="43.328471766423526" lon="10.664088676944074"><ele>35.0</ele><time>2026-04-18T13:03:32Z</time></trkpt><trkpt lat="43.328492883050636" lon="10.663853936852654"><ele>35.0</ele><time>2026-04-18T13:03:33Z</time></trkpt><trkpt lat="43.32853855252335" lon="10.663607151537747"><ele>35.0</ele><time>2026-04-18T13:03:34Z</time></trkpt><trkpt lat="43.32861063035708" lon="10.663358750069674"><ele>35.0</ele><time>2026-04-18T13:03:35Z</time></trkpt><trkpt lat="43.32870750781128" lon="10.663117651485804"><ele>35.0</ele><time>2026-04-18T13:03:36Z</time></trkpt><trkpt lat="43.32882553325841" lon="10.662904224622896"><ele>35.0</ele><time>2026-04-18T13:03:37Z</time></trkpt><trkpt lat="43.328984186179476" lon="10.662741851051058"><ele>35.0</ele><time>2026-04-18T13:03:38Z</time></trkpt><trkpt lat="43.329130246073596" lon="10.662585208947162"><ele>35.0</ele><time>2026-04-18T13:03:39Z</time></trkpt><trkpt lat="43.329304183562044" lon="10.66247300950255"><ele>35.0</ele><time>2026-04-18T13:03:40Z</time></trkpt><trkpt lat="43.329498752787224" lon="10.662372864971738"><ele>35.0</ele><time>2026-04-18T13:03:41Z</time></trkpt><trkpt lat="43.32968986949427" lon="10.662287633724652"><ele>36.0</ele><time>2026-04-18T13:03:42Z</time></trkpt><trkpt lat="43.32989724127317" lon="10.662198133618267"><ele>37.0</ele><time>2026-04-18T13:03:43Z</time></trkpt><trkpt lat="43.33009651805607" lon="10.662110157982813"><ele>38.0</ele><time>2026-04-18T13:03:44Z</time></trkpt><trkpt lat="43.33030034854829" lon="10.662012820524208"><ele>37.33333333333333</ele><time>2026-04-18T13:03:45Z</time></trkpt><trkpt lat="43.33050455527494" lon="10.66190844533501"><ele>36.666666666666664</ele><time>2026-04-18T13:03:46Z</time></trkpt><trkpt lat="43.33070784550703" lon="10.661788921607922"><ele>36.0</ele><time>2026-04-18T13:03:47Z</time></trkpt><trkpt lat="43.330918005884" lon="10.661648079082948"><ele>38.0</ele><time>2026-04-18T13:03:48Z</time></trkpt><trkpt lat="43.33112363521094" lon="10.661489118110257"><ele>40.0</ele><time>2026-04-18T13:03:49Z</time></trkpt><trkpt lat="43.33131556344197" lon="10.66131680545495"><ele>38.0</ele><time>2026-04-18T13:03:50Z</time></trkpt><trkpt lat="43.33150709684279" lon="10.661124646652567"><ele>36.0</ele><time>2026-04-18T13:03:51Z</time></trkpt><trkpt lat="43.33169651767019" lon="10.660922881511244"><ele>36.0</ele><time>2026-04-18T13:03:52Z</time></trkpt><trkpt lat="43.33188101408154" lon="10.66071143957322"><ele>36.0</ele><time>2026-04-18T13:03:53Z</time></trkpt><trkpt lat="43.332058032069924" lon="10.660486335883826"><ele>37.5</ele><time>2026-04-18T13:03:54Z</time></trkpt><trkpt lat="43.33222473072552" lon="10.660245518634262"><ele>39.0</ele><time>2026-04-18T13:03:55Z</time></trkpt><trkpt lat="43.332380986153964" lon="10.659983877226637"><ele>39.0</ele><time>2026-04-18T13:03:56Z</time></trkpt><trkpt lat="43.33252683399374" lon="10.659718967710756"><ele>39.0</ele><time>2026-04-18T13:03:57Z</time></trkpt><trkpt lat="43.33266861965507" lon="10.659444987483326"><ele>37.0</ele><time>2026-04-18T13:03:58Z</time></trkpt><trkpt lat="43.33281547008005" lon="10.659172109619114"><ele>35.0</ele><time>2026-04-18T13:03:59Z</time></trkpt><trkpt lat="43.33296757504291" lon="10.658900883661843"><ele>35.5</ele><time>2026-04-18T13:04:00Z</time></trkpt><trkpt lat="43.333119803227206" lon="10.658623250842487"><ele>36.0</ele><time>2026-04-18T13:04:01Z</time></trkpt><trkpt lat="43.33327066373601" lon="10.65836140635235"><ele>34.0</ele><time>2026-04-18T13:04:02Z</time></trkpt><trkpt lat="43.33341802166725" lon="10.658110290721853"><ele>32.0</ele><time>2026-04-18T13:04:03.001Z</time></trkpt><trkpt lat="43.333580016051776" lon="10.657801616512549"><ele>32.0</ele><time>2026-04-18T13:04:04.001Z</time></trkpt><trkpt lat="43.33373276016067" lon="10.657521093107997"><ele>32.0</ele><time>2026-04-18T13:04:05.001Z</time></trkpt><trkpt lat="43.333885802635265" lon="10.657236947552555"><ele>32.5</ele><time>2026-04-18T13:04:06.001Z</time></trkpt><trkpt lat="43.33403489842884" lon="10.656953853760365"><ele>33.0</ele><time>2026-04-18T13:04:07.001Z</time></trkpt><trkpt lat="43.334189232593396" lon="10.656669299637"><ele>33.0</ele><time>2026-04-18T13:04:08.001Z</time></trkpt><trkpt lat="43.33434120425701" lon="10.656390650426252"><ele>33.0</ele><time>2026-04-18T13:04:09.001Z</time></trkpt><trkpt lat="43.33449784889416" lon="10.656110664681599"><ele>32.0</ele><time>2026-04-18T13:04:10.001Z</time></trkpt><trkpt lat="43.33465125804127" lon="10.655825760004285"><ele>31.0</ele><time>2026-04-18T13:04:11.001Z</time></trkpt><trkpt lat="43.33480656597363" lon="10.65554523424051"><ele>32.0</ele><time>2026-04-18T13:04:12.001Z</time></trkpt><trkpt lat="43.33496515801603" lon="10.65525801948005"><ele>33.0</ele><time>2026-04-18T13:04:13.001Z</time></trkpt><trkpt lat="43.33511952027301" lon="10.654975556215907"><ele>33.0</ele><time>2026-04-18T13:04:14.001Z</time></trkpt><trkpt lat="43.33526851594395" lon="10.654690289804547"><ele>33.0</ele><time>2026-04-18T13:04:15.001Z</time></trkpt><trkpt lat="43.335419929689905" lon="10.654405141463453"><ele>35.5</ele><time>2026-04-18T13:04:16.001Z</time></trkpt><trkpt lat="43.33557411911005" lon="10.654123014895262"><ele>38.0</ele><time>2026-04-18T13:04:17.001Z</time></trkpt><trkpt lat="43.335722030705334" lon="10.65386908745484"><ele>38.0</ele><time>2026-04-18T13:04:18.001Z</time></trkpt><trkpt lat="43.33585989307467" lon="10.65364822389731"><ele>38.0</ele><time>2026-04-18T13:04:19.001Z</time></trkpt><trkpt lat="43.33598565062183" lon="10.653446739849151"><ele>38.0</ele><time>2026-04-18T13:04:20.001Z</time></trkpt><trkpt lat="43.336096797899614" lon="10.653268703033108"><ele>37.8</ele><time>2026-04-18T13:04:21.001Z</time></trkpt><trkpt lat="43.33619440621558" lon="10.653119367332607"><ele>37.599999999999994</ele><time>2026-04-18T13:04:22.001Z</time></trkpt><trkpt lat="43.33628117289645" lon="10.653010071702994"><ele>37.400000000000006</ele><time>2026-04-18T13:04:23.001Z</time></trkpt><trkpt lat="43.33635946812286" lon="10.652944676040374"><ele>37.2</ele><time>2026-04-18T13:04:24.001Z</time></trkpt><trkpt lat="43.33644881233367" lon="10.652922039864926"><ele>37.0</ele><time>2026-04-18T13:04:25.001Z</time></trkpt><trkpt lat="43.336507207898656" lon="10.65302061715847"><ele>37.0</ele><time>2026-04-18T13:04:26.001Z</time></trkpt><trkpt lat="43.33656594477952" lon="10.653122896816056"><ele>37.0</ele><time>2026-04-18T13:04:27.001Z</time></trkpt><trkpt lat="43.336630475513154" lon="10.652742215634278"><ele>37.0</ele><time>2026-04-18T13:04:28.001Z</time></trkpt><trkpt lat="43.336645735998765" lon="10.652581144368767"><ele>36.2</ele><time>2026-04-18T13:04:29.001Z</time></trkpt><trkpt lat="43.33665971495726" lon="10.652434425779946"><ele>35.400000000000006</ele><time>2026-04-18T13:04:30.001Z</time></trkpt><trkpt lat="43.33669739243733" lon="10.652332365402694"><ele>34.599999999999994</ele><time>2026-04-18T13:04:31.001Z</time></trkpt><trkpt lat="43.336761611763855" lon="10.652227038643046"><ele>33.8</ele><time>2026-04-18T13:04:32.001Z</time></trkpt><trkpt lat="43.33685177633189" lon="10.65209973380829"><ele>33.0</ele><time>2026-04-18T13:04:32.999Z</time></trkpt><trkpt lat="43.33696215233371" lon="10.651946074653868"><ele>32.666666666666664</ele><time>2026-04-18T13:04:33.999Z</time></trkpt><trkpt lat="43.33708237634536" lon="10.651770430783616"><ele>32.33333333333333</ele><time>2026-04-18T13:04:34.999Z</time></trkpt><trkpt lat="43.337215160402764" lon="10.651576009889279"><ele>32.0</ele><time>2026-04-18T13:04:35.999Z</time></trkpt><trkpt lat="43.337348552133584" lon="10.65138474235837"><ele>32.0</ele><time>2026-04-18T13:04:36.999Z</time></trkpt><trkpt lat="43.33748767603818" lon="10.65118058095259"><ele>32.0</ele><time>2026-04-18T13:04:37.999Z</time></trkpt><trkpt lat="43.337631968958405" lon="10.650970044047412"><ele>32.0</ele><time>2026-04-18T13:04:38.999Z</time></trkpt><trkpt lat="43.33778114214031" lon="10.650765141838006"><ele>32.0</ele><time>2026-04-18T13:04:39.999Z</time></trkpt><trkpt lat="43.33792426881852" lon="10.650559033900029"><ele>32.0</ele><time>2026-04-18T13:04:40.999Z</time></trkpt><trkpt lat="43.33806878573655" lon="10.650347485473368"><ele>32.0</ele><time>2026-04-18T13:04:41.999Z</time></trkpt><trkpt lat="43.33820779830016" lon="10.650126688878466"><ele>32.0</ele><time>2026-04-18T13:04:42.999Z</time></trkpt><trkpt lat="43.33833859501279" lon="10.649882784675718"><ele>32.0</ele><time>2026-04-18T13:04:43.999Z</time></trkpt><trkpt lat="43.338462553617944" lon="10.6496250453983"><ele>32.0</ele><time>2026-04-18T13:04:44.999Z</time></trkpt><trkpt lat="43.338578348917174" lon="10.649355868372302"><ele>32.0</ele><time>2026-04-18T13:04:45.999Z</time></trkpt><trkpt lat="43.3386878496944" lon="10.649075260901375"><ele>32.0</ele><time>2026-04-18T13:04:46.999Z</time></trkpt><trkpt lat="43.3387876468268" lon="10.648788483257983"><ele>32.0</ele><time>2026-04-18T13:04:47.999Z</time></trkpt><trkpt lat="43.33888364342049" lon="10.64849743166352"><ele>32.0</ele><time>2026-04-18T13:04:48.999Z</time></trkpt><trkpt lat="43.33895347727211" lon="10.648197181308012"><ele>32.0</ele><time>2026-04-18T13:04:49.999Z</time></trkpt><trkpt lat="43.33903262049328" lon="10.64789423163598"><ele>32.0</ele><time>2026-04-18T13:04:50.999Z</time></trkpt><trkpt lat="43.33910841290834" lon="10.647586644826387"><ele>32.0</ele><time>2026-04-18T13:04:51.999Z</time></trkpt><trkpt lat="43.339174787081646" lon="10.647288983222044"><ele>32.0</ele><time>2026-04-18T13:04:52.999Z</time></trkpt><trkpt lat="43.33924379515908" lon="10.646980483556586"><ele>32.0</ele><time>2026-04-18T13:04:54Z</time></trkpt><trkpt lat="43.33931520843814" lon="10.646671975913243"><ele>32.0</ele><time>2026-04-18T13:04:55Z</time></trkpt><trkpt lat="43.339391005593164" lon="10.646366402566889"><ele>31.5</ele><time>2026-04-18T13:04:56Z</time></trkpt><trkpt lat="43.3394641321238" lon="10.646067689999041"><ele>31.0</ele><time>2026-04-18T13:04:57Z</time></trkpt><trkpt lat="43.339535542016066" lon="10.645767068827423"><ele>31.0</ele><time>2026-04-18T13:04:58Z</time></trkpt><trkpt lat="43.33960212679798" lon="10.645494961535544"><ele>31.0</ele><time>2026-04-18T13:04:59Z</time></trkpt><trkpt lat="43.33974153986421" lon="10.644923493395547"><ele>31.0</ele><time>2026-04-18T13:05:01Z</time></trkpt><trkpt lat="43.339802803770475" lon="10.644673493727806"><ele>31.0</ele><time>2026-04-18T13:05:02Z</time></trkpt><trkpt lat="43.33985899799443" lon="10.644455227860416"><ele>31.0</ele><time>2026-04-18T13:05:03Z</time></trkpt><trkpt lat="43.33990558478475" lon="10.64427352070829"><ele>31.200000000000003</ele><time>2026-04-18T13:05:04Z</time></trkpt><trkpt lat="43.33994528148015" lon="10.644120620674713"><ele>31.400000000000002</ele><time>2026-04-18T13:05:05Z</time></trkpt><trkpt lat="43.33998348418464" lon="10.64399712009933"><ele>31.6</ele><time>2026-04-18T13:05:06Z</time></trkpt><trkpt lat="43.34001618537336" lon="10.643908480534986"><ele>31.8</ele><time>2026-04-18T13:05:07Z</time></trkpt><trkpt lat="43.34008681443671" lon="10.643906591714364"><ele>32.0</ele><time>2026-04-18T13:05:10Z</time></trkpt><trkpt lat="43.34000909106225" lon="10.64403997374309"><ele>31.999999999999996</ele><time>2026-04-18T13:05:12Z</time></trkpt><trkpt lat="43.340058217671285" lon="10.644200207605651"><ele>32.0</ele><time>2026-04-18T13:05:14Z</time></trkpt><trkpt lat="43.34009874722773" lon="10.64429962651565"><ele>32.0</ele><time>2026-04-18T13:05:15Z</time></trkpt><trkpt lat="43.34011083205566" lon="10.644413895477115"><ele>32.0</ele><time>2026-04-18T13:05:16Z</time></trkpt><trkpt lat="43.340125003749144" lon="10.644523121850995"><ele>31.999999999999996</ele><time>2026-04-18T13:05:17Z</time></trkpt><trkpt lat="43.34013349422626" lon="10.644618169096175"><ele>32.0</ele><time>2026-04-18T13:05:18Z</time></trkpt><trkpt lat="43.340152615541335" lon="10.644759133185644"><ele>31.8</ele><time>2026-04-18T13:05:20Z</time></trkpt><trkpt lat="43.34016602516971" lon="10.64484546707417"><ele>31.6</ele><time>2026-04-18T13:05:22Z</time></trkpt><trkpt lat="43.34028323420004" lon="10.644832805761629"><ele>31.400000000000002</ele><time>2026-04-18T13:05:23Z</time></trkpt><trkpt lat="43.34035233690892" lon="10.644853768876226"><ele>31.200000000000003</ele><time>2026-04-18T13:05:24Z</time></trkpt><trkpt lat="43.34043787835234" lon="10.64491270739249"><ele>31.0</ele><time>2026-04-18T13:05:25Z</time></trkpt><trkpt lat="43.34054197029019" lon="10.645001396145512"><ele>31.5</ele><time>2026-04-18T13:05:26Z</time></trkpt><trkpt lat="43.34065174397468" lon="10.645094915746121"><ele>32.0</ele><time>2026-04-18T13:05:27Z</time></trkpt><trkpt lat="43.34076199331546" lon="10.64519577404547"><ele>32.5</ele><time>2026-04-18T13:05:28Z</time></trkpt><trkpt lat="43.340872852191296" lon="10.645305032307503"><ele>33.0</ele><time>2026-04-18T13:05:29Z</time></trkpt><trkpt lat="43.340990695964386" lon="10.645420662055015"><ele>33.0</ele><time>2026-04-18T13:05:30Z</time></trkpt><trkpt lat="43.34111364972373" lon="10.64554297196039"><ele>33.0</ele><time>2026-04-18T13:05:31Z</time></trkpt><trkpt lat="43.34123078115574" lon="10.64565947951753"><ele>33.0</ele><time>2026-04-18T13:05:32Z</time></trkpt><trkpt lat="43.34135662779056" lon="10.645778767276408"><ele>33.0</ele><time>2026-04-18T13:05:33Z</time></trkpt><trkpt lat="43.34148398735174" lon="10.645905799541207"><ele>32.75</ele><time>2026-04-18T13:05:34Z</time></trkpt><trkpt lat="43.34160524777294" lon="10.646025947831259"><ele>32.5</ele><time>2026-04-18T13:05:35Z</time></trkpt><trkpt lat="43.34173341354984" lon="10.64614722996912"><ele>32.25</ele><time>2026-04-18T13:05:36Z</time></trkpt><trkpt lat="43.341851402108894" lon="10.64624952249249"><ele>32.0</ele><time>2026-04-18T13:05:37Z</time></trkpt><trkpt lat="43.34197836633974" lon="10.646333332382167"><ele>32.0</ele><time>2026-04-18T13:05:38Z</time></trkpt><trkpt lat="43.34212470796303" lon="10.646396433975735"><ele>32.0</ele><time>2026-04-18T13:05:39Z</time></trkpt><trkpt lat="43.34228042458564" lon="10.646441136518195"><ele>32.0</ele><time>2026-04-18T13:05:40Z</time></trkpt><trkpt lat="43.34243327504923" lon="10.646480665692048"><ele>33.33333333333333</ele><time>2026-04-18T13:05:41Z</time></trkpt><trkpt lat="43.34257735078021" lon="10.646531208290986"><ele>34.666666666666664</ele><time>2026-04-18T13:05:42Z</time></trkpt><trkpt lat="43.34272571658347" lon="10.646587924915243"><ele>36.0</ele><time>2026-04-18T13:05:43Z</time></trkpt><trkpt lat="43.342873006047185" lon="10.646656469030287"><ele>36.0</ele><time>2026-04-18T13:05:44Z</time></trkpt><trkpt lat="43.34302640417713" lon="10.646708937260826"><ele>36.0</ele><time>2026-04-18T13:05:45Z</time></trkpt><trkpt lat="43.34317628626564" lon="10.646729198096818"><ele>36.0</ele><time>2026-04-18T13:05:46Z</time></trkpt><trkpt lat="43.343341218438134" lon="10.646717486839975"><ele>37.0</ele><time>2026-04-18T13:05:47Z</time></trkpt><trkpt lat="43.343513652911994" lon="10.646712861426828"><ele>38.0</ele><time>2026-04-18T13:05:48Z</time></trkpt><trkpt lat="43.34369369798519" lon="10.646713772979028"><ele>39.0</ele><time>2026-04-18T13:05:49Z</time></trkpt><trkpt lat="43.34386986685149" lon="10.646735218761759"><ele>39.0</ele><time>2026-04-18T13:05:50Z</time></trkpt><trkpt lat="43.344049651980015" lon="10.646784054888217"><ele>39.0</ele><time>2026-04-18T13:05:51Z</time></trkpt><trkpt lat="43.344246026167816" lon="10.646846254520009"><ele>39.0</ele><time>2026-04-18T13:05:52Z</time></trkpt><trkpt lat="43.34443081944237" lon="10.646904332220348"><ele>39.0</ele><time>2026-04-18T13:05:53Z</time></trkpt><trkpt lat="43.344626963490605" lon="10.646958234426798"><ele>39.0</ele><time>2026-04-18T13:05:54Z</time></trkpt><trkpt lat="43.34482066837398" lon="10.647011132549302"><ele>39.0</ele><time>2026-04-18T13:05:55Z</time></trkpt><trkpt lat="43.34501309275865" lon="10.647072335520146"><ele>39.0</ele><time>2026-04-18T13:05:56Z</time></trkpt><trkpt lat="43.345181461093404" lon="10.647132838181067"><ele>39.0</ele><time>2026-04-18T13:05:57Z</time></trkpt><trkpt lat="43.345328854014575" lon="10.64719758656741"><ele>39.0</ele><time>2026-04-18T13:05:58Z</time></trkpt><trkpt lat="43.345472788795675" lon="10.64726004698113"><ele>40.333333333333336</ele><time>2026-04-18T13:05:59Z</time></trkpt><trkpt lat="43.34562739819388" lon="10.64731298128445"><ele>41.66666666666667</ele><time>2026-04-18T13:06:00Z</time></trkpt><trkpt lat="43.34578930142232" lon="10.647349799968996"><ele>43.0</ele><time>2026-04-18T13:06:01Z</time></trkpt><trkpt lat="43.3459637159542" lon="10.647405975505992"><ele>43.0</ele><time>2026-04-18T13:06:02Z</time></trkpt><trkpt lat="43.34614599663217" lon="10.647447853466806"><ele>43.0</ele><time>2026-04-18T13:06:03Z</time></trkpt><trkpt lat="43.346309013857585" lon="10.647464806162118"><ele>43.0</ele><time>2026-04-18T13:06:04Z</time></trkpt><trkpt lat="43.346464662252146" lon="10.647538340866513"><ele>42.66666666666667</ele><time>2026-04-18T13:06:05Z</time></trkpt><trkpt lat="43.34662859998346" lon="10.647597071771223"><ele>42.333333333333336</ele><time>2026-04-18T13:06:06Z</time></trkpt><trkpt lat="43.34680691954341" lon="10.647675812062458"><ele>42.0</ele><time>2026-04-18T13:06:07Z</time></trkpt><trkpt lat="43.34699317111188" lon="10.647757143185677"><ele>41.0</ele><time>2026-04-18T13:06:08Z</time></trkpt><trkpt lat="43.3471776827516" lon="10.647830248279194"><ele>40.0</ele><time>2026-04-18T13:06:09Z</time></trkpt><trkpt lat="43.347367364663945" lon="10.647904224498424"><ele>39.0</ele><time>2026-04-18T13:06:10Z</time></trkpt><trkpt lat="43.347554838714636" lon="10.64797763372158"><ele>39.0</ele><time>2026-04-18T13:06:11Z</time></trkpt><trkpt lat="43.34775661828252" lon="10.648057901480907"><ele>39.0</ele><time>2026-04-18T13:06:12Z</time></trkpt><trkpt lat="43.34794747196817" lon="10.648128824790248"><ele>39.0</ele><time>2026-04-18T13:06:13Z</time></trkpt><trkpt lat="43.348139620205735" lon="10.64820929411597"><ele>39.333333333333336</ele><time>2026-04-18T13:06:14Z</time></trkpt><trkpt lat="43.34833057529427" lon="10.64829150792511"><ele>39.66666666666667</ele><time>2026-04-18T13:06:15Z</time></trkpt><trkpt lat="43.348529333545045" lon="10.64837924909192"><ele>40.0</ele><time>2026-04-18T13:06:16.001Z</time></trkpt><trkpt lat="43.34871933591836" lon="10.648462152526413"><ele>40.0</ele><time>2026-04-18T13:06:17.001Z</time></trkpt><trkpt lat="43.34891974371956" lon="10.648539610431506"><ele>40.0</ele><time>2026-04-18T13:06:18.001Z</time></trkpt><trkpt lat="43.349114292614686" lon="10.648617544257975"><ele>40.0</ele><time>2026-04-18T13:06:19.001Z</time></trkpt><trkpt lat="43.34930372196597" lon="10.64869672710771"><ele>40.0</ele><time>2026-04-18T13:06:20.001Z</time></trkpt><trkpt lat="43.3494883742361" lon="10.648776680508414"><ele>40.0</ele><time>2026-04-18T13:06:21.001Z</time></trkpt><trkpt lat="43.34965542870166" lon="10.648852373143702"><ele>40.0</ele><time>2026-04-18T13:06:22.001Z</time></trkpt><trkpt lat="43.349788059984725" lon="10.64892169061833"><ele>41.333333333333336</ele><time>2026-04-18T13:06:23.001Z</time></trkpt><trkpt lat="43.34993946805263" lon="10.648998972497694"><ele>42.666666666666664</ele><time>2026-04-18T13:06:24.001Z</time></trkpt><trkpt lat="43.350111545553105" lon="10.64908693922863"><ele>44.0</ele><time>2026-04-18T13:06:25.001Z</time></trkpt><trkpt lat="43.350295660454236" lon="10.649176028538971"><ele>44.0</ele><time>2026-04-18T13:06:26.001Z</time></trkpt><trkpt lat="43.350487602694244" lon="10.64926917767122"><ele>44.0</ele><time>2026-04-18T13:06:27.001Z</time></trkpt><trkpt lat="43.350682063448666" lon="10.649360789128611"><ele>44.0</ele><time>2026-04-18T13:06:28.001Z</time></trkpt><trkpt lat="43.350874035024255" lon="10.64946119443155"><ele>44.33333333333333</ele><time>2026-04-18T13:06:29.001Z</time></trkpt><trkpt lat="43.35106071852156" lon="10.64955686677731"><ele>44.666666666666664</ele><time>2026-04-18T13:06:30.001Z</time></trkpt><trkpt lat="43.35125102209093" lon="10.649652732649802"><ele>45.0</ele><time>2026-04-18T13:06:31.001Z</time></trkpt><trkpt lat="43.351439097619284" lon="10.649744834847581"><ele>45.0</ele><time>2026-04-18T13:06:32.001Z</time></trkpt><trkpt lat="43.35162477000381" lon="10.649837250485197"><ele>45.0</ele><time>2026-04-18T13:06:33.001Z</time></trkpt><trkpt lat="43.35181645059645" lon="10.649934533512967"><ele>45.0</ele><time>2026-04-18T13:06:34.001Z</time></trkpt><trkpt lat="43.351988866336235" lon="10.650021942373206"><ele>45.0</ele><time>2026-04-18T13:06:35.001Z</time></trkpt><trkpt lat="43.35214550990901" lon="10.650102057198582"><ele>45.0</ele><time>2026-04-18T13:06:36.001Z</time></trkpt><trkpt lat="43.35229533388218" lon="10.65017499160143"><ele>45.0</ele><time>2026-04-18T13:06:37.001Z</time></trkpt><trkpt lat="43.35246009015136" lon="10.65025323102821"><ele>45.333333333333336</ele><time>2026-04-18T13:06:38.001Z</time></trkpt><trkpt lat="43.352636099109226" lon="10.650343987016413"><ele>45.66666666666667</ele><time>2026-04-18T13:06:38.999Z</time></trkpt><trkpt lat="43.35281432422984" lon="10.65043485031223"><ele>46.0</ele><time>2026-04-18T13:06:39.999Z</time></trkpt><trkpt lat="43.35299484117218" lon="10.650525735308483"><ele>46.66666666666667</ele><time>2026-04-18T13:06:40.999Z</time></trkpt><trkpt lat="43.353179753824364" lon="10.650619583705295"><ele>47.333333333333336</ele><time>2026-04-18T13:06:41.999Z</time></trkpt><trkpt lat="43.35335352207324" lon="10.650710359043522"><ele>48.0</ele><time>2026-04-18T13:06:42.999Z</time></trkpt><trkpt lat="43.353511723575956" lon="10.650792140681403"><ele>48.0</ele><time>2026-04-18T13:06:43.999Z</time></trkpt><trkpt lat="43.35363984335844" lon="10.650856840118019"><ele>48.0</ele><time>2026-04-18T13:06:44.999Z</time></trkpt><trkpt lat="43.35375359736273" lon="10.650911455749242"><ele>48.0</ele><time>2026-04-18T13:06:45.999Z</time></trkpt><trkpt lat="43.353843506586706" lon="10.65094736729461"><ele>48.0</ele><time>2026-04-18T13:06:46.999Z</time></trkpt><trkpt lat="43.35390409321503" lon="10.650975662698002"><ele>48.0</ele><time>2026-04-18T13:06:47.999Z</time></trkpt><trkpt lat="43.35397826227782" lon="10.650993700732526"><ele>48.2</ele><time>2026-04-18T13:06:49.999Z</time></trkpt><trkpt lat="43.35405305137549" lon="10.65102092566994"><ele>48.4</ele><time>2026-04-18T13:06:52.999Z</time></trkpt><trkpt lat="43.35418358401454" lon="10.651056088988096"><ele>48.6</ele><time>2026-04-18T13:06:54.999Z</time></trkpt><trkpt lat="43.35426739350593" lon="10.651083097179809"><ele>48.800000000000004</ele><time>2026-04-18T13:06:55.999Z</time></trkpt><trkpt lat="43.35435564068261" lon="10.651109562919276"><ele>49.0</ele><time>2026-04-18T13:06:56.999Z</time></trkpt><trkpt lat="43.35445143632566" lon="10.651140026736382"><ele>49.0</ele><time>2026-04-18T13:06:57.999Z</time></trkpt><trkpt lat="43.35455450371153" lon="10.651176115290236"><ele>49.0</ele><time>2026-04-18T13:06:58.999Z</time></trkpt><trkpt lat="43.35465805657597" lon="10.651208771398533"><ele>49.0</ele><time>2026-04-18T13:06:59.999Z</time></trkpt><trkpt lat="43.354764931543826" lon="10.651248979693534"><ele>49.0</ele><time>2026-04-18T13:07:00.999Z</time></trkpt><trkpt lat="43.35487378406599" lon="10.651290575869812"><ele>49.0</ele><time>2026-04-18T13:07:01.999Z</time></trkpt><trkpt lat="43.35498298411239" lon="10.651329055885462"><ele>49.5</ele><time>2026-04-18T13:07:02.999Z</time></trkpt><trkpt lat="43.3550974271721" lon="10.65136603480525"><ele>50.0</ele><time>2026-04-18T13:07:04Z</time></trkpt><trkpt lat="43.35520505096187" lon="10.651402627475324"><ele>50.5</ele><time>2026-04-18T13:07:05Z</time></trkpt><trkpt lat="43.35531874673499" lon="10.651437415929884"><ele>51.0</ele><time>2026-04-18T13:07:06Z</time></trkpt><trkpt lat="43.35543987473044" lon="10.651475784892085"><ele>52.0</ele><time>2026-04-18T13:07:07Z</time></trkpt><trkpt lat="43.35555251135726" lon="10.651522453340894"><ele>53.0</ele><time>2026-04-18T13:07:08Z</time></trkpt><trkpt lat="43.35566608400685" lon="10.651550452203342"><ele>53.99999999999999</ele><time>2026-04-18T13:07:09Z</time></trkpt><trkpt lat="43.35575914510643" lon="10.651587734856495"><ele>55.0</ele><time>2026-04-18T13:07:10Z</time></trkpt><trkpt lat="43.35582633801692" lon="10.651641737086038"><ele>56.0</ele><time>2026-04-18T13:07:11Z</time></trkpt><trkpt lat="43.355891384258136" lon="10.6516367495111"><ele>56.0</ele><time>2026-04-18T13:07:12Z</time></trkpt><trkpt lat="43.35611173327105" lon="10.651676446818335"><ele>56.0</ele><time>2026-04-18T13:07:13Z</time></trkpt><trkpt lat="43.35622098012829" lon="10.651736003014575"><ele>56.0</ele><time>2026-04-18T13:07:14Z</time></trkpt><trkpt lat="43.356326886433116" lon="10.651807631042903"><ele>55.75</ele><time>2026-04-18T13:07:15Z</time></trkpt><trkpt lat="43.35643993019231" lon="10.651892918117214"><ele>55.5</ele><time>2026-04-18T13:07:16Z</time></trkpt><trkpt lat="43.356561929292134" lon="10.651960072140104"><ele>55.25</ele><time>2026-04-18T13:07:17Z</time></trkpt><trkpt lat="43.35668555707182" lon="10.652041535530172"><ele>55.0</ele><time>2026-04-18T13:07:18Z</time></trkpt><trkpt lat="43.35680984140024" lon="10.652119854909186"><ele>55.0</ele><time>2026-04-18T13:07:19Z</time></trkpt><trkpt lat="43.35693314899064" lon="10.652200804532137"><ele>55.0</ele><time>2026-04-18T13:07:20Z</time></trkpt><trkpt lat="43.357055869845254" lon="10.6522866471429"><ele>55.0</ele><time>2026-04-18T13:07:21Z</time></trkpt><trkpt lat="43.35718088766893" lon="10.652381967722468"><ele>55.0</ele><time>2026-04-18T13:07:22Z</time></trkpt><trkpt lat="43.357310424794235" lon="10.652472281376475"><ele>55.0</ele><time>2026-04-18T13:07:23Z</time></trkpt><trkpt lat="43.357440380933866" lon="10.652563658750179"><ele>55.0</ele><time>2026-04-18T13:07:24Z</time></trkpt><trkpt lat="43.35756898247574" lon="10.652648619428332"><ele>55.0</ele><time>2026-04-18T13:07:25Z</time></trkpt><trkpt lat="43.35769788745448" lon="10.652719574574844"><ele>55.0</ele><time>2026-04-18T13:07:26Z</time></trkpt><trkpt lat="43.357831751107184" lon="10.65279393195944"><ele>55.0</ele><time>2026-04-18T13:07:27Z</time></trkpt><trkpt lat="43.35796483534012" lon="10.652842669589102"><ele>55.0</ele><time>2026-04-18T13:07:28Z</time></trkpt><trkpt lat="43.35810076658341" lon="10.652883931229928"><ele>55.0</ele><time>2026-04-18T13:07:29Z</time></trkpt><trkpt lat="43.358244218814555" lon="10.652915836378524"><ele>55.0</ele><time>2026-04-18T13:07:30Z</time></trkpt><trkpt lat="43.35838834736591" lon="10.652937232549688"><ele>55.25</ele><time>2026-04-18T13:07:31Z</time></trkpt><trkpt lat="43.35852226796815" lon="10.652951205218145"><ele>55.5</ele><time>2026-04-18T13:07:32Z</time></trkpt><trkpt lat="43.35864753249529" lon="10.652963592419697"><ele>55.75</ele><time>2026-04-18T13:07:33Z</time></trkpt><trkpt lat="43.358776674562186" lon="10.652979742074873"><ele>56.0</ele><time>2026-04-18T13:07:34Z</time></trkpt><trkpt lat="43.35890687271477" lon="10.653000725794794"><ele>57.25</ele><time>2026-04-18T13:07:35Z</time></trkpt><trkpt lat="43.35902733446551" lon="10.653029104991608"><ele>58.5</ele><time>2026-04-18T13:07:36Z</time></trkpt><trkpt lat="43.3591448046882" lon="10.653079727444153"><ele>59.75</ele><time>2026-04-18T13:07:37Z</time></trkpt><trkpt lat="43.35926469292378" lon="10.653179052160926"><ele>61.0</ele><time>2026-04-18T13:07:38Z</time></trkpt><trkpt lat="43.35939205505029" lon="10.653233265680122"><ele>61.0</ele><time>2026-04-18T13:07:39Z</time></trkpt><trkpt lat="43.359521345356676" lon="10.653292913981847"><ele>61.0</ele><time>2026-04-18T13:07:40Z</time></trkpt><trkpt lat="43.35965270899842" lon="10.653327762962492"><ele>61.0</ele><time>2026-04-18T13:07:41Z</time></trkpt><trkpt lat="43.35978618945603" lon="10.653344036591703"><ele>61.0</ele><time>2026-04-18T13:07:42Z</time></trkpt><trkpt lat="43.359918598128196" lon="10.653358683013888"><ele>61.4</ele><time>2026-04-18T13:07:43Z</time></trkpt><trkpt lat="43.360025729088406" lon="10.653374127632958"><ele>61.8</ele><time>2026-04-18T13:07:44Z</time></trkpt><trkpt lat="43.36012053543016" lon="10.653391041118242"><ele>62.199999999999996</ele><time>2026-04-18T13:07:45Z</time></trkpt><trkpt lat="43.3602195145943" lon="10.653413472292566"><ele>62.599999999999994</ele><time>2026-04-18T13:07:46Z</time></trkpt><trkpt lat="43.36032019313703" lon="10.65346226152913"><ele>63.0</ele><time>2026-04-18T13:07:47Z</time></trkpt><trkpt lat="43.360432924270015" lon="10.65353331378044"><ele>63.25</ele><time>2026-04-18T13:07:48Z</time></trkpt><trkpt lat="43.36055624850878" lon="10.653601689935025"><ele>63.5</ele><time>2026-04-18T13:07:49Z</time></trkpt><trkpt lat="43.36068054126446" lon="10.653656764228282"><ele>63.75</ele><time>2026-04-18T13:07:50Z</time></trkpt><trkpt lat="43.36079018755956" lon="10.653714828910191"><ele>64.0</ele><time>2026-04-18T13:07:51Z</time></trkpt><trkpt lat="43.36090389996365" lon="10.653762773192113"><ele>64.0</ele><time>2026-04-18T13:07:52Z</time></trkpt><trkpt lat="43.36101458067605" lon="10.65380697961871"><ele>64.0</ele><time>2026-04-18T13:07:53Z</time></trkpt><trkpt lat="43.36111189159087" lon="10.653863211035514"><ele>64.0</ele><time>2026-04-18T13:07:54Z</time></trkpt><trkpt lat="43.3611866332328" lon="10.653936950742022"><ele>64.0</ele><time>2026-04-18T13:07:55Z</time></trkpt><trkpt lat="43.36126891658885" lon="10.654032003800761"><ele>64.0</ele><time>2026-04-18T13:07:56Z</time></trkpt><trkpt lat="43.361356726018215" lon="10.654111081245109"><ele>65.0</ele><time>2026-04-18T13:07:57Z</time></trkpt><trkpt lat="43.36143613622843" lon="10.65421997813151"><ele>66.0</ele><time>2026-04-18T13:07:58Z</time></trkpt><trkpt lat="43.36151984023872" lon="10.65434219811643"><ele>67.0</ele><time>2026-04-18T13:07:59Z</time></trkpt><trkpt lat="43.36160634874514" lon="10.654463128455411"><ele>68.0</ele><time>2026-04-18T13:08:00Z</time></trkpt><trkpt lat="43.36168298577168" lon="10.654582768975857"><ele>68.0</ele><time>2026-04-18T13:08:01Z</time></trkpt><trkpt lat="43.361769350613606" lon="10.654686461156619"><ele>68.0</ele><time>2026-04-18T13:08:02Z</time></trkpt><trkpt lat="43.36186108381888" lon="10.654759407728164"><ele>68.0</ele><time>2026-04-18T13:08:03Z</time></trkpt><trkpt lat="43.36196655808962" lon="10.654774920383673"><ele>68.0</ele><time>2026-04-18T13:08:04Z</time></trkpt><trkpt lat="43.362072949431415" lon="10.6548033565072"><ele>68.0</ele><time>2026-04-18T13:08:05Z</time></trkpt><trkpt lat="43.36218710014714" lon="10.654849111430801"><ele>70.6</ele><time>2026-04-18T13:08:06Z</time></trkpt><trkpt lat="43.36228629814236" lon="10.654894966184917"><ele>73.19999999999999</ele><time>2026-04-18T13:08:07Z</time></trkpt><trkpt lat="43.3623886782978" lon="10.654963212606576"><ele>75.8</ele><time>2026-04-18T13:08:08Z</time></trkpt><trkpt lat="43.362487232761126" lon="10.65498310219719"><ele>78.39999999999999</ele><time>2026-04-18T13:08:09Z</time></trkpt><trkpt lat="43.362588943824676" lon="10.654933469589654"><ele>81.0</ele><time>2026-04-18T13:08:10Z</time></trkpt><trkpt lat="43.36269658757033" lon="10.654923673442568"><ele>81.0</ele><time>2026-04-18T13:08:11Z</time></trkpt><trkpt lat="43.36280693139138" lon="10.65489617201362"><ele>81.0</ele><time>2026-04-18T13:08:12Z</time></trkpt><trkpt lat="43.36291281561486" lon="10.654903266617215"><ele>81.0</ele><time>2026-04-18T13:08:13Z</time></trkpt><trkpt lat="43.362993437322636" lon="10.654951792983647"><ele>81.0</ele><time>2026-04-18T13:08:14Z</time></trkpt><trkpt lat="43.3630493292865" lon="10.655062659863129"><ele>81.0</ele><time>2026-04-18T13:08:15Z</time></trkpt><trkpt lat="43.363116941691274" lon="10.655153204754342"><ele>80.83333333333333</ele><time>2026-04-18T13:08:16Z</time></trkpt><trkpt lat="43.36319910374724" lon="10.655218773027231"><ele>80.66666666666667</ele><time>2026-04-18T13:08:17Z</time></trkpt><trkpt lat="43.363266302408896" lon="10.655237744028467"><ele>80.5</ele><time>2026-04-18T13:08:18Z</time></trkpt><trkpt lat="43.363356750268274" lon="10.655229310531174"><ele>80.33333333333334</ele><time>2026-04-18T13:08:19.001Z</time></trkpt><trkpt lat="43.36345236763891" lon="10.655217937962481"><ele>80.16666666666667</ele><time>2026-04-18T13:08:20.001Z</time></trkpt><trkpt lat="43.3635435034156" lon="10.655244808394299"><ele>80.0</ele><time>2026-04-18T13:08:21.001Z</time></trkpt><trkpt lat="43.36361584959968" lon="10.655298868757995"><ele>80.0</ele><time>2026-04-18T13:08:22.001Z</time></trkpt><trkpt lat="43.363695271852336" lon="10.655311184457927"><ele>80.0</ele><time>2026-04-18T13:08:23.001Z</time></trkpt><trkpt lat="43.363774337773954" lon="10.655318932865512"><ele>80.0</ele><time>2026-04-18T13:08:24.001Z</time></trkpt><trkpt lat="43.36382490891609" lon="10.655234720930508"><ele>80.0</ele><time>2026-04-18T13:08:25.001Z</time></trkpt><trkpt lat="43.36380730015688" lon="10.655134416145803"><ele>80.0</ele><time>2026-04-18T13:08:26.001Z</time></trkpt><trkpt lat="43.363807271122575" lon="10.65502422239608"><ele>80.0</ele><time>2026-04-18T13:08:27.001Z</time></trkpt><trkpt lat="43.36375712360653" lon="10.65494982212849"><ele>81.8</ele><time>2026-04-18T13:08:28.001Z</time></trkpt><trkpt lat="43.36368747740395" lon="10.65484039223279"><ele>83.6</ele><time>2026-04-18T13:08:29.001Z</time></trkpt><trkpt lat="43.36359986188928" lon="10.654734632342848"><ele>85.4</ele><time>2026-04-18T13:08:30.001Z</time></trkpt><trkpt lat="43.36354920832584" lon="10.654585980793703"><ele>87.2</ele><time>2026-04-18T13:08:31.001Z</time></trkpt><trkpt lat="43.363492336481" lon="10.654463729121485"><ele>89.0</ele><time>2026-04-18T13:08:32.001Z</time></trkpt><trkpt lat="43.36341257411671" lon="10.654370712567605"><ele>90.66666666666667</ele><time>2026-04-18T13:08:33.001Z</time></trkpt><trkpt lat="43.3633354477073" lon="10.654307949247535"><ele>92.33333333333334</ele><time>2026-04-18T13:08:34.001Z</time></trkpt><trkpt lat="43.36326957301067" lon="10.65425729526896"><ele>94.0</ele><time>2026-04-18T13:08:35.001Z</time></trkpt><trkpt lat="43.36323235679438" lon="10.654162795429052"><ele>95.66666666666667</ele><time>2026-04-18T13:08:37.001Z</time></trkpt><trkpt lat="43.36331955500748" lon="10.65412680573856"><ele>97.33333333333333</ele><time>2026-04-18T13:08:40.001Z</time></trkpt><trkpt lat="43.36337220146029" lon="10.654181651681828"><ele>99.0</ele><time>2026-04-18T13:08:41.001Z</time></trkpt><trkpt lat="43.36344793418226" lon="10.654191672620806"><ele>99.0</ele><time>2026-04-18T13:08:42.001Z</time></trkpt><trkpt lat="43.36353273707311" lon="10.654223037161774"><ele>99.0</ele><time>2026-04-18T13:08:43.001Z</time></trkpt><trkpt lat="43.36361823604747" lon="10.654266781751772"><ele>99.0</ele><time>2026-04-18T13:08:44.001Z</time></trkpt><trkpt lat="43.363706542755295" lon="10.654289475748602"><ele>99.0</ele><time>2026-04-18T13:08:44.999Z</time></trkpt><trkpt lat="43.36380671978415" lon="10.654322125274517"><ele>99.0</ele><time>2026-04-18T13:08:45.999Z</time></trkpt><trkpt lat="43.36391694699708" lon="10.654377341349731"><ele>99.75</ele><time>2026-04-18T13:08:46.999Z</time></trkpt><trkpt lat="43.36404927410689" lon="10.65449609131043"><ele>100.5</ele><time>2026-04-18T13:08:47.999Z</time></trkpt><trkpt lat="43.36414299732048" lon="10.654607401652864"><ele>101.25</ele><time>2026-04-18T13:08:48.999Z</time></trkpt><trkpt lat="43.364211424354345" lon="10.654732962353892"><ele>102.0</ele><time>2026-04-18T13:08:49.999Z</time></trkpt><trkpt lat="43.36428897823517" lon="10.654804654158387"><ele>102.0</ele><time>2026-04-18T13:08:50.999Z</time></trkpt><trkpt lat="43.36438254562781" lon="10.654869089837465"><ele>102.0</ele><time>2026-04-18T13:08:51.999Z</time></trkpt><trkpt lat="43.36448673707292" lon="10.654910580636324"><ele>102.0</ele><time>2026-04-18T13:08:52.999Z</time></trkpt><trkpt lat="43.3645913310454" lon="10.654939588619131"><ele>102.0</ele><time>2026-04-18T13:08:53.999Z</time></trkpt><trkpt lat="43.36467729696165" lon="10.654956680978174"><ele>102.0</ele><time>2026-04-18T13:08:54.999Z</time></trkpt><trkpt lat="43.36475900918218" lon="10.654968905227994"><ele>104.19999999999999</ele><time>2026-04-18T13:08:55.999Z</time></trkpt><trkpt lat="43.36482804162959" lon="10.655000841594958"><ele>106.4</ele><time>2026-04-18T13:08:56.999Z</time></trkpt><trkpt lat="43.364969306839704" lon="10.655060157830702"><ele>108.60000000000001</ele><time>2026-04-18T13:08:57.999Z</time></trkpt><trkpt lat="43.36505979679734" lon="10.655095296581433"><ele>110.80000000000001</ele><time>2026-04-18T13:08:58.999Z</time></trkpt><trkpt lat="43.36512772542343" lon="10.655082114998555"><ele>113.0</ele><time>2026-04-18T13:08:59.999Z</time></trkpt><trkpt lat="43.365207608133055" lon="10.655026679517501"><ele>112.99999999999999</ele><time>2026-04-18T13:09:00.999Z</time></trkpt><trkpt lat="43.36528254241488" lon="10.654974410409565"><ele>113.0</ele><time>2026-04-18T13:09:01.999Z</time></trkpt><trkpt lat="43.36534808568797" lon="10.65492628445675"><ele>113.0</ele><time>2026-04-18T13:09:02.999Z</time></trkpt><trkpt lat="43.365416415504136" lon="10.654915348015022"><ele>113.0</ele><time>2026-04-18T13:09:03.999Z</time></trkpt><trkpt lat="43.36547722411728" lon="10.654885559309806"><ele>112.99999999999999</ele><time>2026-04-18T13:09:04.999Z</time></trkpt><trkpt lat="43.365575010108294" lon="10.654823795346605"><ele>113.0</ele><time>2026-04-18T13:09:07Z</time></trkpt><trkpt lat="43.365665151381336" lon="10.654802358235582"><ele>112.99999999999999</ele><time>2026-04-18T13:09:09Z</time></trkpt><trkpt lat="43.365755347381445" lon="10.654792893132853"><ele>113.0</ele><time>2026-04-18T13:09:11Z</time></trkpt><trkpt lat="43.365842297939245" lon="10.654826989425933"><ele>113.0</ele><time>2026-04-18T13:09:13Z</time></trkpt><trkpt lat="43.365933772358666" lon="10.654824406874619"><ele>113.0</ele><time>2026-04-18T13:09:15Z</time></trkpt><trkpt lat="43.36601862658017" lon="10.654831501360617"><ele>112.99999999999999</ele><time>2026-04-18T13:09:17Z</time></trkpt><trkpt lat="43.36608228340145" lon="10.654830697616513"><ele>113.0</ele><time>2026-04-18T13:09:18Z</time></trkpt><trkpt lat="43.366139864888375" lon="10.654766722047553"><ele>113.0</ele><time>2026-04-18T13:09:20Z</time></trkpt><trkpt lat="43.36617858370273" lon="10.65461391138904"><ele>113.00000000000001</ele><time>2026-04-18T13:09:22Z</time></trkpt><trkpt lat="43.36617407312885" lon="10.654480144545394"><ele>113.00000000000001</ele><time>2026-04-18T13:09:24Z</time></trkpt><trkpt lat="43.3661733961531" lon="10.654372383802066"><ele>113.0</ele><time>2026-04-18T13:09:26Z</time></trkpt><trkpt lat="43.36619084273119" lon="10.65425829239121"><ele>113.0</ele><time>2026-04-18T13:09:28Z</time></trkpt><trkpt lat="43.36622312243098" lon="10.654161370965406"><ele>114.0</ele><time>2026-04-18T13:09:30Z</time></trkpt><trkpt lat="43.366274485376614" lon="10.65401864125529"><ele>115.00000000000001</ele><time>2026-04-18T13:09:32Z</time></trkpt><trkpt lat="43.36631397076108" lon="10.653886990445976"><ele>116.00000000000001</ele><time>2026-04-18T13:09:34Z</time></trkpt><trkpt lat="43.36634703029134" lon="10.653754721518112"><ele>117.0</ele><time>2026-04-18T13:09:36Z</time></trkpt><trkpt lat="43.36639329232699" lon="10.653622285523076"><ele>118.0</ele><time>2026-04-18T13:09:38Z</time></trkpt><trkpt lat="43.36639682748456" lon="10.653482113565742"><ele>120.00000000000001</ele><time>2026-04-18T13:09:40Z</time></trkpt><trkpt lat="43.36643391512707" lon="10.653409578507327"><ele>122.0</ele><time>2026-04-18T13:09:42Z</time></trkpt><trkpt lat="43.36650342662491" lon="10.653325802415802"><ele>124.0</ele><time>2026-04-18T13:09:44Z</time></trkpt><trkpt lat="43.36658712724053" lon="10.653312963290006"><ele>126.0</ele><time>2026-04-18T13:09:46Z</time></trkpt><trkpt lat="43.36668176118943" lon="10.653308714763515"><ele>128.0</ele><time>2026-04-18T13:09:48Z</time></trkpt><trkpt lat="43.36675645798397" lon="10.653303715491754"><ele>130.0</ele><time>2026-04-18T13:09:49Z</time></trkpt><trkpt lat="43.366831506748795" lon="10.653274417655842"><ele>130.0</ele><time>2026-04-18T13:09:50Z</time></trkpt><trkpt lat="43.36691097677237" lon="10.653281418796194"><ele>130.0</ele><time>2026-04-18T13:09:51Z</time></trkpt><trkpt lat="43.367000869133655" lon="10.653276470953639"><ele>130.0</ele><time>2026-04-18T13:09:52Z</time></trkpt><trkpt lat="43.367090939224425" lon="10.653250144752226"><ele>130.0</ele><time>2026-04-18T13:09:53Z</time></trkpt><trkpt lat="43.367199793334265" lon="10.653235464893202"><ele>130.0</ele><time>2026-04-18T13:09:54Z</time></trkpt><trkpt lat="43.367310050576094" lon="10.65319433643169"><ele>129.5</ele><time>2026-04-18T13:09:55Z</time></trkpt><trkpt lat="43.3674131430456" lon="10.653180389557003"><ele>129.0</ele><time>2026-04-18T13:09:56Z</time></trkpt><trkpt lat="43.36752248867155" lon="10.65314819524428"><ele>128.5</ele><time>2026-04-18T13:09:57Z</time></trkpt><trkpt lat="43.367633360805826" lon="10.653086145154898"><ele>128.0</ele><time>2026-04-18T13:09:58Z</time></trkpt><trkpt lat="43.36775895392873" lon="10.653053048798238"><ele>128.0</ele><time>2026-04-18T13:09:59Z</time></trkpt><trkpt lat="43.367887208089066" lon="10.65303063044344"><ele>128.0</ele><time>2026-04-18T13:10:00Z</time></trkpt><trkpt lat="43.36800384485745" lon="10.65304728836445"><ele>128.0</ele><time>2026-04-18T13:10:01Z</time></trkpt><trkpt lat="43.368103426734095" lon="10.653064067004506"><ele>128.0</ele><time>2026-04-18T13:10:02Z</time></trkpt><trkpt lat="43.36817843856261" lon="10.653048198508124"><ele>128.0</ele><time>2026-04-18T13:10:03Z</time></trkpt><trkpt lat="43.368246025560815" lon="10.652974915418877"><ele>128.8</ele><time>2026-04-18T13:10:04Z</time></trkpt><trkpt lat="43.368257590269934" lon="10.652885538931372"><ele>129.60000000000002</ele><time>2026-04-18T13:10:05Z</time></trkpt><trkpt lat="43.36831905527477" lon="10.65279256159758"><ele>130.39999999999998</ele><time>2026-04-18T13:10:06Z</time></trkpt><trkpt lat="43.368366860857705" lon="10.652693214117972"><ele>131.2</ele><time>2026-04-18T13:10:07Z</time></trkpt><trkpt lat="43.36843665435477" lon="10.65261132497553"><ele>132.0</ele><time>2026-04-18T13:10:08Z</time></trkpt><trkpt lat="43.36853743723224" lon="10.652536331046905"><ele>133.0</ele><time>2026-04-18T13:10:09Z</time></trkpt><trkpt lat="43.36864138635644" lon="10.652485067963344"><ele>134.0</ele><time>2026-04-18T13:10:10Z</time></trkpt><trkpt lat="43.368714119937216" lon="10.65249506159685"><ele>135.0</ele><time>2026-04-18T13:10:11Z</time></trkpt><trkpt lat="43.36877671995911" lon="10.65255911124262"><ele>136.0</ele><time>2026-04-18T13:10:12Z</time></trkpt><trkpt lat="43.36882123818199" lon="10.652669553123623"><ele>137.0</ele><time>2026-04-18T13:10:13Z</time></trkpt><trkpt lat="43.3688860394845" lon="10.652756719110958"><ele>138.0</ele><time>2026-04-18T13:10:14Z</time></trkpt><trkpt lat="43.36893207323738" lon="10.652865284702848"><ele>138.0</ele><time>2026-04-18T13:10:15.001Z</time></trkpt><trkpt lat="43.36901213346495" lon="10.65293564088732"><ele>138.0</ele><time>2026-04-18T13:10:16.001Z</time></trkpt><trkpt lat="43.369109867209865" lon="10.652980876721434"><ele>138.0</ele><time>2026-04-18T13:10:17.001Z</time></trkpt><trkpt lat="43.369205267575396" lon="10.652985439024366"><ele>138.0</ele><time>2026-04-18T13:10:18.001Z</time></trkpt><trkpt lat="43.36930821330814" lon="10.652968169384234"><ele>138.0</ele><time>2026-04-18T13:10:19.001Z</time></trkpt><trkpt lat="43.369413132223535" lon="10.652967198304454"><ele>138.0</ele><time>2026-04-18T13:10:20.001Z</time></trkpt><trkpt lat="43.369512437161056" lon="10.652921761915035"><ele>138.0</ele><time>2026-04-18T13:10:21.001Z</time></trkpt><trkpt lat="43.36962461548873" lon="10.652906777872785"><ele>138.0</ele><time>2026-04-18T13:10:22.001Z</time></trkpt><trkpt lat="43.36973334450025" lon="10.652864123130472"><ele>138.0</ele><time>2026-04-18T13:10:23.001Z</time></trkpt><trkpt lat="43.36984103711253" lon="10.652810080260444"><ele>138.0</ele><time>2026-04-18T13:10:24.001Z</time></trkpt><trkpt lat="43.369934695206815" lon="10.652737049387294"><ele>142.60000000000002</ele><time>2026-04-18T13:10:25.001Z</time></trkpt><trkpt lat="43.370028034894084" lon="10.652663284413515"><ele>147.20000000000002</ele><time>2026-04-18T13:10:26.001Z</time></trkpt><trkpt lat="43.370121725634405" lon="10.652628043758975"><ele>151.8</ele><time>2026-04-18T13:10:27.001Z</time></trkpt><trkpt lat="43.37018861332064" lon="10.65262388238586"><ele>156.4</ele><time>2026-04-18T13:10:28.001Z</time></trkpt><trkpt lat="43.37028121375134" lon="10.652623594756609"><ele>161.0</ele><time>2026-04-18T13:10:29.001Z</time></trkpt><trkpt lat="43.37039366910345" lon="10.652656419785723"><ele>161.0</ele><time>2026-04-18T13:10:30.001Z</time></trkpt><trkpt lat="43.37050053214559" lon="10.652689225422902"><ele>161.0</ele><time>2026-04-18T13:10:31.001Z</time></trkpt><trkpt lat="43.370608097878176" lon="10.65269423938345"><ele>161.0</ele><time>2026-04-18T13:10:32.001Z</time></trkpt><trkpt lat="43.37069150200533" lon="10.652676607509385"><ele>161.0</ele><time>2026-04-18T13:10:33.001Z</time></trkpt><trkpt lat="43.37079124006486" lon="10.652583090878052"><ele>161.0</ele><time>2026-04-18T13:10:35.001Z</time></trkpt><trkpt lat="43.370848074351954" lon="10.652511725420165"><ele>160.0</ele><time>2026-04-18T13:10:36.001Z</time></trkpt><trkpt lat="43.37092393876748" lon="10.65244187200888"><ele>159.0</ele><time>2026-04-18T13:10:37.001Z</time></trkpt><trkpt lat="43.37096593842047" lon="10.652364564596324"><ele>158.0</ele><time>2026-04-18T13:10:38.001Z</time></trkpt><trkpt lat="43.37092979367397" lon="10.652220448094988"><ele>157.0</ele><time>2026-04-18T13:10:40.001Z</time></trkpt><trkpt lat="43.37085367588092" lon="10.652169880255933"><ele>156.0</ele><time>2026-04-18T13:10:41.001Z</time></trkpt><trkpt lat="43.3707501936071" lon="10.652228169887088"><ele>156.0</ele><time>2026-04-18T13:10:42.001Z</time></trkpt><trkpt lat="43.370661006868616" lon="10.652267974502186"><ele>156.0</ele><time>2026-04-18T13:10:43.001Z</time></trkpt><trkpt lat="43.370573008125795" lon="10.652125805739812"><ele>156.0</ele><time>2026-04-18T13:10:45.001Z</time></trkpt><trkpt lat="43.37050957900544" lon="10.65204149710004"><ele>156.0</ele><time>2026-04-18T13:10:46.001Z</time></trkpt><trkpt lat="43.370439897422386" lon="10.651979271292786"><ele>156.0</ele><time>2026-04-18T13:10:47.001Z</time></trkpt><trkpt lat="43.37034726577465" lon="10.651937605324614"><ele>157.0</ele><time>2026-04-18T13:10:48.001Z</time></trkpt><trkpt lat="43.370242090201636" lon="10.651938720474067"><ele>158.0</ele><time>2026-04-18T13:10:49.001Z</time></trkpt><trkpt lat="43.37015076709073" lon="10.651999181036254"><ele>159.0</ele><time>2026-04-18T13:10:50.001Z</time></trkpt><trkpt lat="43.37004994384779" lon="10.652035851595668"><ele>160.0</ele><time>2026-04-18T13:10:50.999Z</time></trkpt><trkpt lat="43.36994398690978" lon="10.652068268290463"><ele>161.0</ele><time>2026-04-18T13:10:51.999Z</time></trkpt><trkpt lat="43.36983884561927" lon="10.652094189805268"><ele>161.0</ele><time>2026-04-18T13:10:52.999Z</time></trkpt><trkpt lat="43.369760782690086" lon="10.65212183815342"><ele>161.0</ele><time>2026-04-18T13:10:53.999Z</time></trkpt><trkpt lat="43.36967834753367" lon="10.652091765132244"><ele>161.0</ele><time>2026-04-18T13:10:54.999Z</time></trkpt><trkpt lat="43.369605061246006" lon="10.652031659696727"><ele>161.0</ele><time>2026-04-18T13:10:55.999Z</time></trkpt><trkpt lat="43.36954089820863" lon="10.65194051548968"><ele>161.0</ele><time>2026-04-18T13:10:56.999Z</time></trkpt><trkpt lat="43.3694574903498" lon="10.65186821986397"><ele>161.0</ele><time>2026-04-18T13:10:57.999Z</time></trkpt><trkpt lat="43.36938052060534" lon="10.65176884396662"><ele>161.83333333333331</ele><time>2026-04-18T13:10:58.999Z</time></trkpt><trkpt lat="43.36933123836943" lon="10.65165957979546"><ele>162.66666666666666</ele><time>2026-04-18T13:10:59.999Z</time></trkpt><trkpt lat="43.369356327874755" lon="10.651565378990659"><ele>163.5</ele><time>2026-04-18T13:11:00.999Z</time></trkpt><trkpt lat="43.369374871396765" lon="10.651450414917644"><ele>164.33333333333334</ele><time>2026-04-18T13:11:02Z</time></trkpt><trkpt lat="43.36941914950913" lon="10.651323198326011"><ele>165.16666666666669</ele><time>2026-04-18T13:11:03Z</time></trkpt><trkpt lat="43.36946205126477" lon="10.651211440524833"><ele>166.0</ele><time>2026-04-18T13:11:04Z</time></trkpt><trkpt lat="43.36950863411226" lon="10.65109046983674"><ele>166.8</ele><time>2026-04-18T13:11:05Z</time></trkpt><trkpt lat="43.36955267752941" lon="10.65097572370982"><ele>167.60000000000002</ele><time>2026-04-18T13:11:06Z</time></trkpt><trkpt lat="43.3696226002589" lon="10.650924490203181"><ele>168.4</ele><time>2026-04-18T13:11:07Z</time></trkpt><trkpt lat="43.369706266247185" lon="10.650882244178131"><ele>169.2</ele><time>2026-04-18T13:11:08Z</time></trkpt><trkpt lat="43.36980891145766" lon="10.65084624477068"><ele>170.0</ele><time>2026-04-18T13:11:09Z</time></trkpt><trkpt lat="43.36991945306329" lon="10.650814948113046"><ele>172.0</ele><time>2026-04-18T13:11:10Z</time></trkpt><trkpt lat="43.37001350758446" lon="10.65082663147138"><ele>174.0</ele><time>2026-04-18T13:11:11Z</time></trkpt><trkpt lat="43.37013178004169" lon="10.650839449761014"><ele>176.0</ele><time>2026-04-18T13:11:12Z</time></trkpt><trkpt lat="43.37025917167849" lon="10.65083972978189"><ele>178.0</ele><time>2026-04-18T13:11:13Z</time></trkpt><trkpt lat="43.370371543643465" lon="10.650896686406055"><ele>178.0</ele><time>2026-04-18T13:11:14Z</time></trkpt><trkpt lat="43.370473625665916" lon="10.650954864049364"><ele>178.0</ele><time>2026-04-18T13:11:15Z</time></trkpt><trkpt lat="43.37054940216879" lon="10.65096109881138"><ele>178.0</ele><time>2026-04-18T13:11:16Z</time></trkpt><trkpt lat="43.370621239906704" lon="10.650960263313753"><ele>178.0</ele><time>2026-04-18T13:11:17Z</time></trkpt><trkpt lat="43.37070965886635" lon="10.650817682063012"><ele>178.0</ele><time>2026-04-18T13:11:19Z</time></trkpt><trkpt lat="43.37077739154303" lon="10.650712791706482"><ele>178.0</ele><time>2026-04-18T13:11:20Z</time></trkpt><trkpt lat="43.37086422888346" lon="10.650593523563337"><ele>178.0</ele><time>2026-04-18T13:11:21Z</time></trkpt><trkpt lat="43.37094946407422" lon="10.650466993240647"><ele>178.0</ele><time>2026-04-18T13:11:22Z</time></trkpt><trkpt lat="43.37102057727317" lon="10.650354563606959"><ele>178.0</ele><time>2026-04-18T13:11:23Z</time></trkpt><trkpt lat="43.37108109296211" lon="10.650266969000269"><ele>178.0</ele><time>2026-04-18T13:11:24Z</time></trkpt><trkpt lat="43.37113140378783" lon="10.650200486388261"><ele>177.33333333333334</ele><time>2026-04-18T13:11:25Z</time></trkpt><trkpt lat="43.37119571204347" lon="10.650103921128654"><ele>176.66666666666669</ele><time>2026-04-18T13:11:27Z</time></trkpt><trkpt lat="43.37126451127052" lon="10.650021438339705"><ele>176.0</ele><time>2026-04-18T13:11:36Z</time></trkpt><trkpt lat="43.37130727359879" lon="10.649955338526617"><ele>175.33333333333334</ele><time>2026-04-18T13:11:37Z</time></trkpt><trkpt lat="43.371365382581196" lon="10.649877924614355"><ele>174.66666666666666</ele><time>2026-04-18T13:11:38Z</time></trkpt><trkpt lat="43.37142197156273" lon="10.649790926701549"><ele>174.0</ele><time>2026-04-18T13:11:39Z</time></trkpt><trkpt lat="43.37147070130628" lon="10.649694494053923"><ele>174.5</ele><time>2026-04-18T13:11:40Z</time></trkpt><trkpt lat="43.371509296529446" lon="10.649587775666564"><ele>175.0</ele><time>2026-04-18T13:11:41Z</time></trkpt><trkpt lat="43.37154726851132" lon="10.649496704432355"><ele>175.5</ele><time>2026-04-18T13:11:42Z</time></trkpt><trkpt lat="43.37156266026568" lon="10.64938745738837"><ele>176.0</ele><time>2026-04-18T13:11:43Z</time></trkpt><trkpt lat="43.37157224336564" lon="10.649275939234528"><ele>176.5</ele><time>2026-04-18T13:11:44Z</time></trkpt><trkpt lat="43.37156874819721" lon="10.649163348367468"><ele>177.0</ele><time>2026-04-18T13:11:45Z</time></trkpt><trkpt lat="43.37160706272722" lon="10.649086571820856"><ele>177.0</ele><time>2026-04-18T13:11:46Z</time></trkpt><trkpt lat="43.371724716443886" lon="10.649067102061368"><ele>177.0</ele><time>2026-04-18T13:11:48Z</time></trkpt><trkpt lat="43.371796183255725" lon="10.649050169624783"><ele>177.0</ele><time>2026-04-18T13:11:49Z</time></trkpt><trkpt lat="43.371908409942215" lon="10.649053613475326"><ele>177.0</ele><time>2026-04-18T13:11:50Z</time></trkpt><trkpt lat="43.37203933065537" lon="10.649050180711232"><ele>177.0</ele><time>2026-04-18T13:11:51Z</time></trkpt><trkpt lat="43.37219790903594" lon="10.649051778880006"><ele>177.33333333333334</ele><time>2026-04-18T13:11:52Z</time></trkpt><trkpt lat="43.37237440700301" lon="10.649054043836381"><ele>177.66666666666669</ele><time>2026-04-18T13:11:53Z</time></trkpt><trkpt lat="43.372541351012714" lon="10.649023066259819"><ele>178.0</ele><time>2026-04-18T13:11:55Z</time></trkpt><trkpt lat="43.37268359715879" lon="10.649013781735711"><ele>178.0</ele><time>2026-04-18T13:11:56Z</time></trkpt><trkpt lat="43.3728335163331" lon="10.649008152670392"><ele>178.0</ele><time>2026-04-18T13:11:57Z</time></trkpt><trkpt lat="43.372978979300434" lon="10.649006746091239"><ele>178.0</ele><time>2026-04-18T13:11:58Z</time></trkpt><trkpt lat="43.37313037829157" lon="10.649001420421573"><ele>178.0</ele><time>2026-04-18T13:11:59Z</time></trkpt><trkpt lat="43.37326450528403" lon="10.648993939669387"><ele>178.5</ele><time>2026-04-18T13:12:00Z</time></trkpt><trkpt lat="43.3733746647665" lon="10.648989490271447"><ele>179.0</ele><time>2026-04-18T13:12:01Z</time></trkpt><trkpt lat="43.373500366751855" lon="10.648981844200893"><ele>179.5</ele><time>2026-04-18T13:12:02Z</time></trkpt><trkpt lat="43.37362327218817" lon="10.648972133363905"><ele>180.0</ele><time>2026-04-18T13:12:03Z</time></trkpt><trkpt lat="43.373745812349355" lon="10.648960613532367"><ele>180.0</ele><time>2026-04-18T13:12:04Z</time></trkpt><trkpt lat="43.373852356581786" lon="10.648951247798166"><ele>180.0</ele><time>2026-04-18T13:12:05Z</time></trkpt><trkpt lat="43.37394103706019" lon="10.648937496207497"><ele>180.0</ele><time>2026-04-18T13:12:06Z</time></trkpt><trkpt lat="43.374021798939204" lon="10.648911840285393"><ele>180.0</ele><time>2026-04-18T13:12:07Z</time></trkpt><trkpt lat="43.37410381879206" lon="10.648869164140567"><ele>180.0</ele><time>2026-04-18T13:12:08Z</time></trkpt><trkpt lat="43.37418160830867" lon="10.648798204435119"><ele>180.5</ele><time>2026-04-18T13:12:09Z</time></trkpt><trkpt lat="43.374268053812806" lon="10.64871631121614"><ele>181.0</ele><time>2026-04-18T13:12:10Z</time></trkpt><trkpt lat="43.374361863611135" lon="10.648629500796453"><ele>181.5</ele><time>2026-04-18T13:12:11.001Z</time></trkpt><trkpt lat="43.374462869484624" lon="10.648537790204738"><ele>182.0</ele><time>2026-04-18T13:12:12.001Z</time></trkpt><trkpt lat="43.37456630801956" lon="10.64844464164066"><ele>182.0</ele><time>2026-04-18T13:12:13.001Z</time></trkpt><trkpt lat="43.37467436850408" lon="10.648340998159103"><ele>182.0</ele><time>2026-04-18T13:12:14.001Z</time></trkpt><trkpt lat="43.374783074940595" lon="10.648241156723463"><ele>182.0</ele><time>2026-04-18T13:12:15.001Z</time></trkpt><trkpt lat="43.374895268502144" lon="10.648139221862928"><ele>182.0</ele><time>2026-04-18T13:12:16.001Z</time></trkpt><trkpt lat="43.375004091620085" lon="10.64803435546265"><ele>181.0</ele><time>2026-04-18T13:12:17.001Z</time></trkpt><trkpt lat="43.375104636684505" lon="10.647940386149902"><ele>180.0</ele><time>2026-04-18T13:12:18.001Z</time></trkpt><trkpt lat="43.37519451061799" lon="10.647857095857702"><ele>179.0</ele><time>2026-04-18T13:12:19.001Z</time></trkpt><trkpt lat="43.37528749828981" lon="10.647790385519375"><ele>178.0</ele><time>2026-04-18T13:12:20.001Z</time></trkpt><trkpt lat="43.375385818715564" lon="10.647787128950391"><ele>177.0</ele><time>2026-04-18T13:12:21.001Z</time></trkpt><trkpt lat="43.37547194440873" lon="10.647801919926431"><ele>176.75</ele><time>2026-04-18T13:12:22.001Z</time></trkpt><trkpt lat="43.375570514102584" lon="10.647803050786264"><ele>176.5</ele><time>2026-04-18T13:12:23.001Z</time></trkpt><trkpt lat="43.37568090751864" lon="10.647812139262632"><ele>176.25</ele><time>2026-04-18T13:12:24.001Z</time></trkpt><trkpt lat="43.37580432591284" lon="10.647827906161528"><ele>176.0</ele><time>2026-04-18T13:12:25.001Z</time></trkpt><trkpt lat="43.37593710718826" lon="10.647841616081134"><ele>176.0</ele><time>2026-04-18T13:12:26.001Z</time></trkpt><trkpt lat="43.376069223909155" lon="10.647852367516514"><ele>176.0</ele><time>2026-04-18T13:12:27.001Z</time></trkpt><trkpt lat="43.37618461288052" lon="10.647841153995108"><ele>176.0</ele><time>2026-04-18T13:12:28.001Z</time></trkpt><trkpt lat="43.37627065836361" lon="10.647837958273849"><ele>176.0</ele><time>2026-04-18T13:12:29.001Z</time></trkpt><trkpt lat="43.37634466680814" lon="10.647800735820223"><ele>176.0</ele><time>2026-04-18T13:12:30.001Z</time></trkpt><trkpt lat="43.37640480360118" lon="10.647684296217678"><ele>179.60000000000002</ele><time>2026-04-18T13:12:31.001Z</time></trkpt><trkpt lat="43.37648898155041" lon="10.647613990806509"><ele>183.2</ele><time>2026-04-18T13:12:32.001Z</time></trkpt><trkpt lat="43.376599999744094" lon="10.647662732243315"><ele>186.8</ele><time>2026-04-18T13:12:33.001Z</time></trkpt><trkpt lat="43.376696020645625" lon="10.647683595102741"><ele>190.39999999999998</ele><time>2026-04-18T13:12:34.001Z</time></trkpt><trkpt lat="43.376810452693434" lon="10.647683294261146"><ele>194.0</ele><time>2026-04-18T13:12:35.001Z</time></trkpt><trkpt lat="43.376933138650415" lon="10.647703981860998"><ele>194.0</ele><time>2026-04-18T13:12:36.001Z</time></trkpt><trkpt lat="43.37705918133113" lon="10.647685246692777"><ele>194.0</ele><time>2026-04-18T13:12:37.001Z</time></trkpt><trkpt lat="43.37718903458805" lon="10.647643357946851"><ele>194.0</ele><time>2026-04-18T13:12:38.001Z</time></trkpt><trkpt lat="43.37732324464005" lon="10.647597328171518"><ele>194.0</ele><time>2026-04-18T13:12:39.001Z</time></trkpt><trkpt lat="43.377457637763094" lon="10.647564218187748"><ele>193.2</ele><time>2026-04-18T13:12:40.001Z</time></trkpt><trkpt lat="43.37758398779768" lon="10.647544367871792"><ele>192.39999999999998</ele><time>2026-04-18T13:12:41.001Z</time></trkpt><trkpt lat="43.37768943407372" lon="10.64751782572837"><ele>191.6</ele><time>2026-04-18T13:12:42.001Z</time></trkpt><trkpt lat="43.37778187614876" lon="10.647497438913609"><ele>190.8</ele><time>2026-04-18T13:12:43.001Z</time></trkpt><trkpt lat="43.37785593900574" lon="10.647461535050798"><ele>190.0</ele><time>2026-04-18T13:12:44.001Z</time></trkpt><trkpt lat="43.37794568128845" lon="10.647368317494326"><ele>188.0</ele><time>2026-04-18T13:12:45.001Z</time></trkpt><trkpt lat="43.37803651910012" lon="10.647263067762811"><ele>186.0</ele><time>2026-04-18T13:12:46.001Z</time></trkpt><trkpt lat="43.37813528725958" lon="10.647156499495894"><ele>184.0</ele><time>2026-04-18T13:12:47.001Z</time></trkpt><trkpt lat="43.37824355211052" lon="10.64703207607757"><ele>182.0</ele><time>2026-04-18T13:12:48.001Z</time></trkpt><trkpt lat="43.378347405346744" lon="10.646936986797657"><ele>186.0</ele><time>2026-04-18T13:12:49.001Z</time></trkpt><trkpt lat="43.37845096334702" lon="10.646815881537444"><ele>190.0</ele><time>2026-04-18T13:12:50.001Z</time></trkpt><trkpt lat="43.37855145262079" lon="10.646700062083985"><ele>194.0</ele><time>2026-04-18T13:12:51.001Z</time></trkpt><trkpt lat="43.378656210693705" lon="10.646601841135386"><ele>198.0</ele><time>2026-04-18T13:12:52.001Z</time></trkpt><trkpt lat="43.378765904706924" lon="10.64653562614079"><ele>195.0</ele><time>2026-04-18T13:12:53.001Z</time></trkpt><trkpt lat="43.378874215948635" lon="10.646487412138017"><ele>192.0</ele><time>2026-04-18T13:12:54.001Z</time></trkpt><trkpt lat="43.37900207850542" lon="10.646430557270794"><ele>189.0</ele><time>2026-04-18T13:12:55.001Z</time></trkpt><trkpt lat="43.3791220617635" lon="10.646367055257235"><ele>186.0</ele><time>2026-04-18T13:12:56.001Z</time></trkpt><trkpt lat="43.379237419650856" lon="10.646323957462931"><ele>186.0</ele><time>2026-04-18T13:12:57Z</time></trkpt><trkpt lat="43.37935999189405" lon="10.646321071881589"><ele>186.0</ele><time>2026-04-18T13:12:58Z</time></trkpt><trkpt lat="43.379477751190905" lon="10.646317846795963"><ele>186.0</ele><time>2026-04-18T13:12:59Z</time></trkpt><trkpt lat="43.37958991221335" lon="10.646284143217606"><ele>186.0</ele><time>2026-04-18T13:13:00Z</time></trkpt><trkpt lat="43.37968787876099" lon="10.646205531920657"><ele>185.75</ele><time>2026-04-18T13:13:01Z</time></trkpt><trkpt lat="43.37979478965981" lon="10.64612958151841"><ele>185.5</ele><time>2026-04-18T13:13:02Z</time></trkpt><trkpt lat="43.3799142137795" lon="10.64605944632705"><ele>185.25</ele><time>2026-04-18T13:13:03Z</time></trkpt><trkpt lat="43.380051810471386" lon="10.646035430639687"><ele>185.0</ele><time>2026-04-18T13:13:04Z</time></trkpt><trkpt lat="43.38019464678126" lon="10.646030167852595"><ele>186.8</ele><time>2026-04-18T13:13:05Z</time></trkpt><trkpt lat="43.38033151530023" lon="10.646010957212377"><ele>188.6</ele><time>2026-04-18T13:13:06Z</time></trkpt><trkpt lat="43.38045408775183" lon="10.645996134616945"><ele>190.39999999999998</ele><time>2026-04-18T13:13:07Z</time></trkpt><trkpt lat="43.38055594871652" lon="10.645992606351125"><ele>192.2</ele><time>2026-04-18T13:13:08Z</time></trkpt><trkpt lat="43.380630015123785" lon="10.645994969340817"><ele>194.0</ele><time>2026-04-18T13:13:09Z</time></trkpt><trkpt lat="43.38071159486063" lon="10.645956151249065"><ele>194.0</ele><time>2026-04-18T13:13:10Z</time></trkpt><trkpt lat="43.38080533410632" lon="10.645934616633408"><ele>194.0</ele><time>2026-04-18T13:13:11Z</time></trkpt><trkpt lat="43.38086204499097" lon="10.64579990196019"><ele>194.0</ele><time>2026-04-18T13:13:12Z</time></trkpt><trkpt lat="43.38092825826623" lon="10.645668534961475"><ele>194.0</ele><time>2026-04-18T13:13:13Z</time></trkpt><trkpt lat="43.38097204549889" lon="10.645530449041607"><ele>194.0</ele><time>2026-04-18T13:13:14Z</time></trkpt><trkpt lat="43.3810325314065" lon="10.645422324185624"><ele>194.00000000000003</ele><time>2026-04-18T13:13:15Z</time></trkpt><trkpt lat="43.38106527118513" lon="10.645319530145054"><ele>194.0</ele><time>2026-04-18T13:13:16Z</time></trkpt><trkpt lat="43.381157483681356" lon="10.64528686238588"><ele>194.0</ele><time>2026-04-18T13:13:18Z</time></trkpt><trkpt lat="43.38123293445576" lon="10.645363453508638"><ele>194.0</ele><time>2026-04-18T13:13:20Z</time></trkpt><trkpt lat="43.381292834537284" lon="10.645425454503762"><ele>194.00000000000003</ele><time>2026-04-18T13:13:21Z</time></trkpt><trkpt lat="43.381365361647454" lon="10.645488832412395"><ele>194.0</ele><time>2026-04-18T13:13:22Z</time></trkpt><trkpt lat="43.38144458590612" lon="10.64554153431351"><ele>193.83333333333334</ele><time>2026-04-18T13:13:23Z</time></trkpt><trkpt lat="43.3815165739928" lon="10.645599422787736"><ele>193.66666666666669</ele><time>2026-04-18T13:13:24Z</time></trkpt><trkpt lat="43.38160572144401" lon="10.645611815820539"><ele>193.5</ele><time>2026-04-18T13:13:25Z</time></trkpt><trkpt lat="43.381696491432" lon="10.645578256917473"><ele>193.33333333333331</ele><time>2026-04-18T13:13:26Z</time></trkpt><trkpt lat="43.38175909269387" lon="10.645512967321139"><ele>193.16666666666666</ele><time>2026-04-18T13:13:27Z</time></trkpt><trkpt lat="43.38180473459175" lon="10.645408136877013"><ele>193.0</ele><time>2026-04-18T13:13:28Z</time></trkpt><trkpt lat="43.38186828198945" lon="10.645307401506214"><ele>195.60000000000002</ele><time>2026-04-18T13:13:29Z</time></trkpt><trkpt lat="43.38193900323289" lon="10.645198548176609"><ele>198.20000000000002</ele><time>2026-04-18T13:13:30Z</time></trkpt><trkpt lat="43.381991466632414" lon="10.645092517939409"><ele>200.8</ele><time>2026-04-18T13:13:31Z</time></trkpt><trkpt lat="43.38206696952152" lon="10.645017618674553"><ele>203.4</ele><time>2026-04-18T13:13:32Z</time></trkpt><trkpt lat="43.38214024141674" lon="10.644931196322057"><ele>206.0</ele><time>2026-04-18T13:13:33Z</time></trkpt><trkpt lat="43.38227058369088" lon="10.644902291307764"><ele>206.4</ele><time>2026-04-18T13:13:35Z</time></trkpt><trkpt lat="43.38236475677875" lon="10.644864247035066"><ele>206.8</ele><time>2026-04-18T13:13:36Z</time></trkpt><trkpt lat="43.38246741502238" lon="10.644836458602615"><ele>207.20000000000002</ele><time>2026-04-18T13:13:37Z</time></trkpt><trkpt lat="43.38255870408468" lon="10.644773234859278"><ele>207.60000000000002</ele><time>2026-04-18T13:13:38Z</time></trkpt><trkpt lat="43.38263018018516" lon="10.644680640419583"><ele>208.0</ele><time>2026-04-18T13:13:39Z</time></trkpt><trkpt lat="43.382696428165566" lon="10.644595901886571"><ele>208.0</ele><time>2026-04-18T13:13:40Z</time></trkpt><trkpt lat="43.382761362305644" lon="10.64451683250156"><ele>208.0</ele><time>2026-04-18T13:13:41Z</time></trkpt><trkpt lat="43.38277431758936" lon="10.64438532692316"><ele>208.0</ele><time>2026-04-18T13:13:42Z</time></trkpt><trkpt lat="43.382810568652" lon="10.64425585712018"><ele>208.0</ele><time>2026-04-18T13:13:43Z</time></trkpt><trkpt lat="43.382840883217774" lon="10.644106494171886"><ele>208.0</ele><time>2026-04-18T13:13:44Z</time></trkpt><trkpt lat="43.38288674470985" lon="10.643980783105313"><ele>209.16666666666666</ele><time>2026-04-18T13:13:45Z</time></trkpt><trkpt lat="43.382917752901996" lon="10.643861109113733"><ele>210.33333333333331</ele><time>2026-04-18T13:13:46Z</time></trkpt><trkpt lat="43.38295686199735" lon="10.64377993182819"><ele>211.5</ele><time>2026-04-18T13:13:47Z</time></trkpt><trkpt lat="43.38302295585985" lon="10.64375793410429"><ele>212.66666666666669</ele><time>2026-04-18T13:13:49Z</time></trkpt><trkpt lat="43.383095919157576" lon="10.643804429356027"><ele>213.83333333333334</ele><time>2026-04-18T13:13:50Z</time></trkpt><trkpt lat="43.3832104497739" lon="10.643799500192966"><ele>215.0</ele><time>2026-04-18T13:13:51Z</time></trkpt><trkpt lat="43.383318599663866" lon="10.643752208733956"><ele>217.8</ele><time>2026-04-18T13:13:52Z</time></trkpt><trkpt lat="43.38339567630844" lon="10.643574430568918"><ele>220.6</ele><time>2026-04-18T13:13:54Z</time></trkpt><trkpt lat="43.38343296928076" lon="10.643481085115809"><ele>223.39999999999998</ele><time>2026-04-18T13:13:55Z</time></trkpt><trkpt lat="43.3835081430193" lon="10.64341747081857"><ele>226.2</ele><time>2026-04-18T13:13:56Z</time></trkpt><trkpt lat="43.38356622079813" lon="10.643363526145468"><ele>229.0</ele><time>2026-04-18T13:13:57Z</time></trkpt><trkpt lat="43.383636079164695" lon="10.643289760159208"><ele>229.0</ele><time>2026-04-18T13:13:58Z</time></trkpt><trkpt lat="43.383670773882756" lon="10.64313427541855"><ele>228.99999999999997</ele><time>2026-04-18T13:13:59Z</time></trkpt><trkpt lat="43.38371136354599" lon="10.643002624893528"><ele>228.99999999999997</ele><time>2026-04-18T13:14:00Z</time></trkpt><trkpt lat="43.38376358456873" lon="10.642897082883556"><ele>229.0</ele><time>2026-04-18T13:14:01Z</time></trkpt><trkpt lat="43.38380476181683" lon="10.642798466441093"><ele>229.0</ele><time>2026-04-18T13:14:02Z</time></trkpt><trkpt lat="43.38385534839103" lon="10.642744656744316"><ele>230.6</ele><time>2026-04-18T13:14:03Z</time></trkpt><trkpt lat="43.383936133600734" lon="10.6427140536105"><ele>232.2</ele><time>2026-04-18T13:14:04Z</time></trkpt><trkpt lat="43.384031237343564" lon="10.64266428599819"><ele>233.79999999999998</ele><time>2026-04-18T13:14:05Z</time></trkpt><trkpt lat="43.38411914842112" lon="10.64258553017353"><ele>235.39999999999998</ele><time>2026-04-18T13:14:06Z</time></trkpt><trkpt lat="43.38419129924007" lon="10.642518181300256"><ele>237.0</ele><time>2026-04-18T13:14:07.001Z</time></trkpt><trkpt lat="43.38424080468714" lon="10.642426147341881"><ele>237.0</ele><time>2026-04-18T13:14:08.001Z</time></trkpt><trkpt lat="43.38431305123601" lon="10.642331992843303"><ele>237.0</ele><time>2026-04-18T13:14:09.001Z</time></trkpt><trkpt lat="43.384380692593695" lon="10.642249029055503"><ele>237.0</ele><time>2026-04-18T13:14:10.001Z</time></trkpt><trkpt lat="43.38444917060397" lon="10.64221258697024"><ele>237.0</ele><time>2026-04-18T13:14:11.001Z</time></trkpt><trkpt lat="43.384528592906925" lon="10.642157870784704"><ele>237.0</ele><time>2026-04-18T13:14:12.001Z</time></trkpt><trkpt lat="43.3846261486134" lon="10.64208656505936"><ele>237.5</ele><time>2026-04-18T13:14:13.001Z</time></trkpt><trkpt lat="43.38470399738065" lon="10.641987406880716"><ele>238.0</ele><time>2026-04-18T13:14:14.001Z</time></trkpt><trkpt lat="43.384801557583344" lon="10.641905234734264"><ele>238.5</ele><time>2026-04-18T13:14:15.001Z</time></trkpt><trkpt lat="43.3848991998548" lon="10.641810597288343"><ele>239.0</ele><time>2026-04-18T13:14:16.001Z</time></trkpt><trkpt lat="43.38499974368549" lon="10.64170456339931"><ele>240.00000000000003</ele><time>2026-04-18T13:14:17.001Z</time></trkpt><trkpt lat="43.38510008373306" lon="10.641602093341081"><ele>241.0</ele><time>2026-04-18T13:14:18.001Z</time></trkpt><trkpt lat="43.385189783601966" lon="10.641544501297806"><ele>242.0</ele><time>2026-04-18T13:14:19.001Z</time></trkpt><trkpt lat="43.385248167807475" lon="10.641464856466559"><ele>243.0</ele><time>2026-04-18T13:14:20.001Z</time></trkpt><trkpt lat="43.38530823227268" lon="10.641427483212548"><ele>244.00000000000003</ele><time>2026-04-18T13:14:21.001Z</time></trkpt><trkpt lat="43.38536826009282" lon="10.641378163899308"><ele>245.0</ele><time>2026-04-18T13:14:22.001Z</time></trkpt><trkpt lat="43.38545608552616" lon="10.641329783844578"><ele>247.0</ele><time>2026-04-18T13:14:24.001Z</time></trkpt><trkpt lat="43.38553143254799" lon="10.641420436025916"><ele>249.0</ele><time>2026-04-18T13:14:26.001Z</time></trkpt><trkpt lat="43.38563924706943" lon="10.641519623260717"><ele>251.0</ele><time>2026-04-18T13:14:28.001Z</time></trkpt><trkpt lat="43.385687133901875" lon="10.641595280891107"><ele>253.0</ele><time>2026-04-18T13:14:29.001Z</time></trkpt><trkpt lat="43.38575517644756" lon="10.641804044127364"><ele>252.99999999999997</ele><time>2026-04-18T13:14:31.001Z</time></trkpt><trkpt lat="43.385775631042364" lon="10.641898963491288"><ele>253.0</ele><time>2026-04-18T13:14:32.001Z</time></trkpt><trkpt lat="43.385789139038124" lon="10.642008122615051"><ele>253.0</ele><time>2026-04-18T13:14:33.001Z</time></trkpt><trkpt lat="43.3857750511872" lon="10.642108266298418"><ele>253.0</ele><time>2026-04-18T13:14:34.001Z</time></trkpt><trkpt lat="43.38576116664876" lon="10.642210763305203"><ele>252.99999999999997</ele><time>2026-04-18T13:14:35.001Z</time></trkpt><trkpt lat="43.385748058699114" lon="10.642338833666518"><ele>253.0</ele><time>2026-04-18T13:14:36.001Z</time></trkpt><trkpt lat="43.38572789979191" lon="10.642456641654062"><ele>252.8</ele><time>2026-04-18T13:14:37.001Z</time></trkpt><trkpt lat="43.385714951438146" lon="10.642578641917012"><ele>252.60000000000002</ele><time>2026-04-18T13:14:38.001Z</time></trkpt><trkpt lat="43.38570795255585" lon="10.642702911307266"><ele>252.39999999999998</ele><time>2026-04-18T13:14:39.001Z</time></trkpt><trkpt lat="43.385714567449554" lon="10.642823720071284"><ele>252.2</ele><time>2026-04-18T13:14:40.001Z</time></trkpt><trkpt lat="43.38572655797658" lon="10.642930649984224"><ele>252.0</ele><time>2026-04-18T13:14:41.001Z</time></trkpt><trkpt lat="43.38578590701216" lon="10.643117798406074"><ele>252.0</ele><time>2026-04-18T13:14:43.001Z</time></trkpt><trkpt lat="43.385829355137794" lon="10.643220133517504"><ele>252.0</ele><time>2026-04-18T13:14:44.001Z</time></trkpt><trkpt lat="43.38586937381437" lon="10.643304468283269"><ele>252.0</ele><time>2026-04-18T13:14:45.001Z</time></trkpt><trkpt lat="43.38594896568066" lon="10.64340667558528"><ele>252.0</ele><time>2026-04-18T13:14:47.001Z</time></trkpt><trkpt lat="43.38602816845169" lon="10.64337909110469"><ele>252.0</ele><time>2026-04-18T13:14:48.001Z</time></trkpt><trkpt lat="43.386115084526054" lon="10.64338963659989"><ele>252.0</ele><time>2026-04-18T13:14:49.001Z</time></trkpt><trkpt lat="43.3862101648123" lon="10.643410700289074"><ele>252.0</ele><time>2026-04-18T13:14:50.001Z</time></trkpt><trkpt lat="43.38631593945748" lon="10.64344132067211"><ele>252.0</ele><time>2026-04-18T13:14:51.001Z</time></trkpt><trkpt lat="43.38642921165916" lon="10.643459107052042"><ele>252.0</ele><time>2026-04-18T13:14:52.001Z</time></trkpt><trkpt lat="43.38653744842873" lon="10.643476746927305"><ele>252.0</ele><time>2026-04-18T13:14:53.001Z</time></trkpt><trkpt lat="43.386653077433685" lon="10.643487911346503"><ele>252.0</ele><time>2026-04-18T13:14:54.001Z</time></trkpt><trkpt lat="43.3867752636525" lon="10.6435049097038"><ele>254.0</ele><time>2026-04-18T13:14:55.001Z</time></trkpt><trkpt lat="43.38690362553762" lon="10.6435285187271"><ele>256.0</ele><time>2026-04-18T13:14:56.001Z</time></trkpt><trkpt lat="43.38703329376987" lon="10.64355260778934"><ele>258.0</ele><time>2026-04-18T13:14:57.001Z</time></trkpt><trkpt lat="43.38717319845822" lon="10.643573586091762"><ele>260.0</ele><time>2026-04-18T13:14:58.001Z</time></trkpt><trkpt lat="43.38730318958473" lon="10.643594743272148"><ele>260.2</ele><time>2026-04-18T13:14:59.001Z</time></trkpt><trkpt lat="43.387395680675226" lon="10.64361949890341"><ele>260.4</ele><time>2026-04-18T13:15:00.001Z</time></trkpt><trkpt lat="43.38747132376609" lon="10.643654370268901"><ele>260.6</ele><time>2026-04-18T13:15:01.001Z</time></trkpt><trkpt lat="43.38760394593491" lon="10.64370166440439"><ele>260.8</ele><time>2026-04-18T13:15:03Z</time></trkpt><trkpt lat="43.38765971744585" lon="10.643633867624313"><ele>261.0</ele><time>2026-04-18T13:15:05Z</time></trkpt><trkpt lat="43.387685158593136" lon="10.64345065396324"><ele>262.6</ele><time>2026-04-18T13:15:07Z</time></trkpt><trkpt lat="43.38768735708984" lon="10.643351889096406"><ele>264.20000000000005</ele><time>2026-04-18T13:15:08Z</time></trkpt><trkpt lat="43.38769262316615" lon="10.64322487712419"><ele>265.79999999999995</ele><time>2026-04-18T13:15:09Z</time></trkpt><trkpt lat="43.38769399917483" lon="10.643091325543299"><ele>267.4</ele><time>2026-04-18T13:15:10Z</time></trkpt><trkpt lat="43.38769972988822" lon="10.64296003035906"><ele>269.0</ele><time>2026-04-18T13:15:11Z</time></trkpt><trkpt lat="43.38770142012462" lon="10.642829640563319"><ele>270.2</ele><time>2026-04-18T13:15:12Z</time></trkpt><trkpt lat="43.38772834699678" lon="10.642682670575114"><ele>271.4</ele><time>2026-04-18T13:15:13Z</time></trkpt><trkpt lat="43.38772566311666" lon="10.642524784590863"><ele>272.6</ele><time>2026-04-18T13:15:14Z</time></trkpt><trkpt lat="43.387732479030014" lon="10.642383532648378"><ele>273.8</ele><time>2026-04-18T13:15:15Z</time></trkpt><trkpt lat="43.38774488506066" lon="10.642249825393689"><ele>275.0</ele><time>2026-04-18T13:15:16Z</time></trkpt><trkpt lat="43.387756645571464" lon="10.642123322725528"><ele>275.0</ele><time>2026-04-18T13:15:17Z</time></trkpt><trkpt lat="43.38779322633669" lon="10.642029689238818"><ele>275.0</ele><time>2026-04-18T13:15:18Z</time></trkpt><trkpt lat="43.387823092890564" lon="10.641938402566495"><ele>275.0</ele><time>2026-04-18T13:15:19Z</time></trkpt><trkpt lat="43.38792660855112" lon="10.641914035363321"><ele>275.0</ele><time>2026-04-18T13:15:21Z</time></trkpt><trkpt lat="43.38801571644931" lon="10.641928892181571"><ele>275.0</ele><time>2026-04-18T13:15:23Z</time></trkpt><trkpt lat="43.388105099916196" lon="10.641959698723742"><ele>275.0</ele><time>2026-04-18T13:15:24Z</time></trkpt><trkpt lat="43.3881895401778" lon="10.64195995461481"><ele>277.4</ele><time>2026-04-18T13:15:25Z</time></trkpt><trkpt lat="43.38828534689287" lon="10.641986299394308"><ele>279.8</ele><time>2026-04-18T13:15:26Z</time></trkpt><trkpt lat="43.38837933199349" lon="10.642031868672406"><ele>282.2</ele><time>2026-04-18T13:15:27Z</time></trkpt><trkpt lat="43.38848241195375" lon="10.642060936354802"><ele>284.6</ele><time>2026-04-18T13:15:28Z</time></trkpt><trkpt lat="43.38859295006208" lon="10.642083087378511"><ele>287.0</ele><time>2026-04-18T13:15:29Z</time></trkpt><trkpt lat="43.38872595855271" lon="10.64214477086328"><ele>288.4</ele><time>2026-04-18T13:15:30Z</time></trkpt><trkpt lat="43.38886598777811" lon="10.642126406441287"><ele>289.79999999999995</ele><time>2026-04-18T13:15:31Z</time></trkpt><trkpt lat="43.389000273196245" lon="10.642069664957964"><ele>291.2</ele><time>2026-04-18T13:15:32Z</time></trkpt><trkpt lat="43.38893419372989" lon="10.642065267223295"><ele>292.59999999999997</ele><time>2026-04-18T13:15:33Z</time></trkpt><trkpt lat="43.38902286162764" lon="10.642019910722585"><ele>294.0</ele><time>2026-04-18T13:15:34Z</time></trkpt><trkpt lat="43.3891187458863" lon="10.641991088733418"><ele>297.0</ele><time>2026-04-18T13:15:35Z</time></trkpt><trkpt lat="43.38921733698788" lon="10.641960351572719"><ele>300.0</ele><time>2026-04-18T13:15:36Z</time></trkpt><trkpt lat="43.38932076000992" lon="10.641942741201241"><ele>303.0</ele><time>2026-04-18T13:15:37Z</time></trkpt><trkpt lat="43.38943810142934" lon="10.641925897590028"><ele>306.0</ele><time>2026-04-18T13:15:38Z</time></trkpt><trkpt lat="43.389552215724734" lon="10.641913952276878"><ele>309.0</ele><time>2026-04-18T13:15:39Z</time></trkpt><trkpt lat="43.38967749832652" lon="10.641889980974295"><ele>310.0</ele><time>2026-04-18T13:15:40Z</time></trkpt><trkpt lat="43.38980365486696" lon="10.641894530866447"><ele>311.0</ele><time>2026-04-18T13:15:41Z</time></trkpt><trkpt lat="43.389907127038626" lon="10.641901330421991"><ele>312.0</ele><time>2026-04-18T13:15:42Z</time></trkpt><trkpt lat="43.38999649546893" lon="10.641924890431918"><ele>313.0</ele><time>2026-04-18T13:15:43Z</time></trkpt><trkpt lat="43.390109221385686" lon="10.641955386717626"><ele>314.0</ele><time>2026-04-18T13:15:44Z</time></trkpt><trkpt lat="43.390225563697555" lon="10.641985840360721"><ele>312.25</ele><time>2026-04-18T13:15:45Z</time></trkpt><trkpt lat="43.39035557113185" lon="10.642008341342857"><ele>310.5</ele><time>2026-04-18T13:15:46Z</time></trkpt><trkpt lat="43.39049784231755" lon="10.64203247489051"><ele>308.75</ele><time>2026-04-18T13:15:47Z</time></trkpt><trkpt lat="43.39061396815505" lon="10.642050737130319"><ele>307.0</ele><time>2026-04-18T13:15:48Z</time></trkpt><trkpt lat="43.390712124718014" lon="10.642044207938454"><ele>307.0</ele><time>2026-04-18T13:15:49Z</time></trkpt><trkpt lat="43.39080497550176" lon="10.642048517029759"><ele>307.0</ele><time>2026-04-18T13:15:50Z</time></trkpt><trkpt lat="43.390901490165064" lon="10.64202412559835"><ele>307.0</ele><time>2026-04-18T13:15:51Z</time></trkpt><trkpt lat="43.39097702144509" lon="10.641945604772937"><ele>307.0</ele><time>2026-04-18T13:15:52Z</time></trkpt><trkpt lat="43.39104487611684" lon="10.641843669971733"><ele>307.0</ele><time>2026-04-18T13:15:53Z</time></trkpt><trkpt lat="43.39114314743412" lon="10.641780748745425"><ele>307.3333333333333</ele><time>2026-04-18T13:15:54Z</time></trkpt><trkpt lat="43.39124131774554" lon="10.641782577264843"><ele>307.66666666666663</ele><time>2026-04-18T13:15:55Z</time></trkpt><trkpt lat="43.39130365148734" lon="10.641806634248695"><ele>308.0</ele><time>2026-04-18T13:15:56Z</time></trkpt><trkpt lat="43.39135184924468" lon="10.641919295567215"><ele>308.3333333333333</ele><time>2026-04-18T13:15:57Z</time></trkpt><trkpt lat="43.39143382471236" lon="10.641962540600767"><ele>308.6666666666667</ele><time>2026-04-18T13:15:58Z</time></trkpt><trkpt lat="43.39151368938243" lon="10.64197196400382"><ele>309.0</ele><time>2026-04-18T13:15:59Z</time></trkpt><trkpt lat="43.3916043076889" lon="10.641979363636686"><ele>309.0</ele><time>2026-04-18T13:16:00Z</time></trkpt><trkpt lat="43.39169704082817" lon="10.641968896025586"><ele>309.0</ele><time>2026-04-18T13:16:01Z</time></trkpt><trkpt lat="43.391807650852336" lon="10.64196986317259"><ele>309.0</ele><time>2026-04-18T13:16:02Z</time></trkpt><trkpt lat="43.391923553065766" lon="10.641966880860688"><ele>309.0</ele><time>2026-04-18T13:16:03.001Z</time></trkpt><trkpt lat="43.39203402062384" lon="10.641962418853002"><ele>309.0</ele><time>2026-04-18T13:16:04.001Z</time></trkpt><trkpt lat="43.39215777172438" lon="10.641954624363727"><ele>314.25</ele><time>2026-04-18T13:16:05.001Z</time></trkpt><trkpt lat="43.39228445432835" lon="10.641950873406149"><ele>319.5</ele><time>2026-04-18T13:16:06.001Z</time></trkpt><trkpt lat="43.392408856265" lon="10.641938019161644"><ele>324.75</ele><time>2026-04-18T13:16:07.001Z</time></trkpt><trkpt lat="43.39252595599444" lon="10.641905135119174"><ele>330.0</ele><time>2026-04-18T13:16:08.001Z</time></trkpt><trkpt lat="43.392601055046775" lon="10.641838681544579"><ele>330.0</ele><time>2026-04-18T13:16:09.001Z</time></trkpt><trkpt lat="43.39264396582198" lon="10.641768163409093"><ele>330.0</ele><time>2026-04-18T13:16:10.001Z</time></trkpt><trkpt lat="43.392678807712166" lon="10.641664625232528"><ele>330.0</ele><time>2026-04-18T13:16:11.001Z</time></trkpt><trkpt lat="43.39270855590845" lon="10.6415374649974"><ele>330.0</ele><time>2026-04-18T13:16:12.001Z</time></trkpt><trkpt lat="43.39273614588706" lon="10.64140375696409"><ele>330.0</ele><time>2026-04-18T13:16:13.001Z</time></trkpt><trkpt lat="43.392761009824575" lon="10.641257161024123"><ele>332.25</ele><time>2026-04-18T13:16:14.001Z</time></trkpt><trkpt lat="43.39278821164009" lon="10.6411118838987"><ele>334.5</ele><time>2026-04-18T13:16:15.001Z</time></trkpt><trkpt lat="43.392823730401396" lon="10.640955137896464"><ele>336.75</ele><time>2026-04-18T13:16:16.001Z</time></trkpt><trkpt lat="43.39286338296464" lon="10.640801286067653"><ele>339.0</ele><time>2026-04-18T13:16:17.001Z</time></trkpt><trkpt lat="43.39290716181832" lon="10.640634631377567"><ele>339.0</ele><time>2026-04-18T13:16:18.001Z</time></trkpt><trkpt lat="43.392972493809935" lon="10.640496256588843"><ele>339.0</ele><time>2026-04-18T13:16:19.001Z</time></trkpt><trkpt lat="43.39302662401253" lon="10.640411593807565"><ele>339.0</ele><time>2026-04-18T13:16:20.001Z</time></trkpt><trkpt lat="43.39310207380575" lon="10.640339505684395"><ele>339.0</ele><time>2026-04-18T13:16:21.001Z</time></trkpt><trkpt lat="43.39318225524362" lon="10.6403682210509"><ele>339.0</ele><time>2026-04-18T13:16:22.001Z</time></trkpt><trkpt lat="43.39325997108437" lon="10.640459269469314"><ele>341.2</ele><time>2026-04-18T13:16:24.001Z</time></trkpt><trkpt lat="43.39332171133937" lon="10.640537534462464"><ele>343.4</ele><time>2026-04-18T13:16:25.001Z</time></trkpt><trkpt lat="43.39338992078005" lon="10.64063102794409"><ele>345.6</ele><time>2026-04-18T13:16:26.001Z</time></trkpt><trkpt lat="43.393477743270616" lon="10.640754158383388"><ele>347.8</ele><time>2026-04-18T13:16:27.001Z</time></trkpt><trkpt lat="43.393564262664626" lon="10.640877133816"><ele>350.0</ele><time>2026-04-18T13:16:28.001Z</time></trkpt><trkpt lat="43.39364664117793" lon="10.640994223602213"><ele>350.0</ele><time>2026-04-18T13:16:29.001Z</time></trkpt><trkpt lat="43.39372858047692" lon="10.64111934812228"><ele>350.0</ele><time>2026-04-18T13:16:30.001Z</time></trkpt><trkpt lat="43.39378934340089" lon="10.641229446976997"><ele>350.0</ele><time>2026-04-18T13:16:31.001Z</time></trkpt><trkpt lat="43.393837589138485" lon="10.64129537591954"><ele>350.0</ele><time>2026-04-18T13:16:32.001Z</time></trkpt><trkpt lat="43.393907548716065" lon="10.64132896687523"><ele>350.0</ele><time>2026-04-18T13:16:33.001Z</time></trkpt><trkpt lat="43.3939947197652" lon="10.641315666822"><ele>350.8</ele><time>2026-04-18T13:16:34.001Z</time></trkpt><trkpt lat="43.39408566637624" lon="10.641298010125068"><ele>351.6</ele><time>2026-04-18T13:16:35.001Z</time></trkpt><trkpt lat="43.39419018746051" lon="10.641269804255215"><ele>352.4</ele><time>2026-04-18T13:16:36.001Z</time></trkpt><trkpt lat="43.39429743508887" lon="10.641235481584992"><ele>353.2</ele><time>2026-04-18T13:16:37.001Z</time></trkpt><trkpt lat="43.39441536625154" lon="10.641227063954693"><ele>354.0</ele><time>2026-04-18T13:16:38.001Z</time></trkpt><trkpt lat="43.394542436163235" lon="10.64119825560171"><ele>354.0</ele><time>2026-04-18T13:16:39.001Z</time></trkpt><trkpt lat="43.39466530245652" lon="10.641158395477497"><ele>354.0</ele><time>2026-04-18T13:16:40.001Z</time></trkpt><trkpt lat="43.394794230916965" lon="10.641127441586825"><ele>354.0</ele><time>2026-04-18T13:16:41.001Z</time></trkpt><trkpt lat="43.394915201268034" lon="10.64108289479766"><ele>354.0</ele><time>2026-04-18T13:16:42.001Z</time></trkpt><trkpt lat="43.3950400295973" lon="10.641038124418353"><ele>359.75</ele><time>2026-04-18T13:16:43.001Z</time></trkpt><trkpt lat="43.39517291442462" lon="10.64101126426125"><ele>365.5</ele><time>2026-04-18T13:16:44.001Z</time></trkpt><trkpt lat="43.39528688610025" lon="10.640999176465092"><ele>371.25</ele><time>2026-04-18T13:16:45.001Z</time></trkpt><trkpt lat="43.39542875655111" lon="10.640998451347057"><ele>377.0</ele><time>2026-04-18T13:16:46.001Z</time></trkpt><trkpt lat="43.395580584747925" lon="10.64097310141956"><ele>377.25</ele><time>2026-04-18T13:16:47.001Z</time></trkpt><trkpt lat="43.39571361643829" lon="10.640947946997462"><ele>377.5</ele><time>2026-04-18T13:16:48.001Z</time></trkpt><trkpt lat="43.395855264140835" lon="10.640924423931478"><ele>377.75</ele><time>2026-04-18T13:16:49.001Z</time></trkpt><trkpt lat="43.3959928322182" lon="10.640902080269825"><ele>378.0</ele><time>2026-04-18T13:16:50.001Z</time></trkpt><trkpt lat="43.39611444453297" lon="10.640889876632311"><ele>378.0</ele><time>2026-04-18T13:16:51.001Z</time></trkpt><trkpt lat="43.396232266679306" lon="10.640851033962878"><ele>378.0</ele><time>2026-04-18T13:16:52.001Z</time></trkpt><trkpt lat="43.39634584709898" lon="10.640833892147073"><ele>378.0</ele><time>2026-04-18T13:16:53.001Z</time></trkpt><trkpt lat="43.39645495615389" lon="10.640792722882043"><ele>378.0</ele><time>2026-04-18T13:16:54.001Z</time></trkpt><trkpt lat="43.39655494449462" lon="10.640750739493638"><ele>377.4</ele><time>2026-04-18T13:16:55.001Z</time></trkpt><trkpt lat="43.3966438951745" lon="10.6407199452339"><ele>376.79999999999995</ele><time>2026-04-18T13:16:56.001Z</time></trkpt><trkpt lat="43.396733829726145" lon="10.640700302528458"><ele>376.2</ele><time>2026-04-18T13:16:57.001Z</time></trkpt><trkpt lat="43.396826658852675" lon="10.640695811208248"><ele>375.6</ele><time>2026-04-18T13:16:58.001Z</time></trkpt><trkpt lat="43.396915299579334" lon="10.640784874846293"><ele>375.0</ele><time>2026-04-18T13:16:59.001Z</time></trkpt><trkpt lat="43.39702784823866" lon="10.64083683777726"><ele>375.0</ele><time>2026-04-18T13:17:00.001Z</time></trkpt><trkpt lat="43.397117449158195" lon="10.640870632020425"><ele>375.0</ele><time>2026-04-18T13:17:01.001Z</time></trkpt><trkpt lat="43.397222692859" lon="10.640890626485005"><ele>375.0</ele><time>2026-04-18T13:17:02.001Z</time></trkpt><trkpt lat="43.397325345280144" lon="10.640917402840659"><ele>375.0</ele><time>2026-04-18T13:17:03.001Z</time></trkpt><trkpt lat="43.39743342407331" lon="10.64093587330637"><ele>375.0</ele><time>2026-04-18T13:17:04.001Z</time></trkpt><trkpt lat="43.39756394637099" lon="10.6409457941437"><ele>375.25</ele><time>2026-04-18T13:17:05.001Z</time></trkpt><trkpt lat="43.39769535375658" lon="10.640934444377207"><ele>375.5</ele><time>2026-04-18T13:17:06.001Z</time></trkpt><trkpt lat="43.397808554134535" lon="10.64089362892992"><ele>375.75</ele><time>2026-04-18T13:17:07.001Z</time></trkpt><trkpt lat="43.39792334691191" lon="10.640824835524183"><ele>376.0</ele><time>2026-04-18T13:17:08.001Z</time></trkpt><trkpt lat="43.39804481751504" lon="10.64071974926876"><ele>376.5</ele><time>2026-04-18T13:17:09Z</time></trkpt><trkpt lat="43.39814751033829" lon="10.640650385249582"><ele>377.0</ele><time>2026-04-18T13:17:10Z</time></trkpt><trkpt lat="43.39826475572958" lon="10.640597908695266"><ele>377.5</ele><time>2026-04-18T13:17:11Z</time></trkpt><trkpt lat="43.398394979166866" lon="10.6405675341623"><ele>378.0</ele><time>2026-04-18T13:17:12Z</time></trkpt><trkpt lat="43.39853362370753" lon="10.640575752144336"><ele>378.0</ele><time>2026-04-18T13:17:13Z</time></trkpt><trkpt lat="43.398666530549285" lon="10.640571327227889"><ele>378.0</ele><time>2026-04-18T13:17:14Z</time></trkpt><trkpt lat="43.39879251780172" lon="10.640574827762467"><ele>378.0</ele><time>2026-04-18T13:17:15Z</time></trkpt><trkpt lat="43.398915752924204" lon="10.640580987838861"><ele>378.0</ele><time>2026-04-18T13:17:16Z</time></trkpt><trkpt lat="43.39904872997558" lon="10.640621806063644"><ele>380.0</ele><time>2026-04-18T13:17:17Z</time></trkpt><trkpt lat="43.3991737245332" lon="10.640690317813764"><ele>382.0</ele><time>2026-04-18T13:17:18Z</time></trkpt><trkpt lat="43.3992861508759" lon="10.640749934600516"><ele>384.0</ele><time>2026-04-18T13:17:19Z</time></trkpt><trkpt lat="43.39939318851522" lon="10.640820558534857"><ele>386.0</ele><time>2026-04-18T13:17:20Z</time></trkpt><trkpt lat="43.39951711235964" lon="10.640903609739873"><ele>385.99999999999994</ele><time>2026-04-18T13:17:21Z</time></trkpt><trkpt lat="43.3996022824218" lon="10.641007541365873"><ele>386.0</ele><time>2026-04-18T13:17:22Z</time></trkpt><trkpt lat="43.39967922831773" lon="10.641063604850851"><ele>386.0</ele><time>2026-04-18T13:17:23Z</time></trkpt><trkpt lat="43.39974458431838" lon="10.64109202090726"><ele>386.0</ele><time>2026-04-18T13:17:24Z</time></trkpt><trkpt lat="43.399837772309944" lon="10.641082329982037"><ele>385.99999999999994</ele><time>2026-04-18T13:17:26Z</time></trkpt><trkpt lat="43.399888083079915" lon="10.641025176314503"><ele>386.0</ele><time>2026-04-18T13:17:28Z</time></trkpt><trkpt lat="43.39982836552216" lon="10.640929024299146"><ele>385.99999999999994</ele><time>2026-04-18T13:17:37Z</time></trkpt><trkpt lat="43.399749864651014" lon="10.6408443881802"><ele>386.0</ele><time>2026-04-18T13:17:39Z</time></trkpt><trkpt lat="43.399700374272335" lon="10.640790134820277"><ele>386.0</ele><time>2026-04-18T13:17:41Z</time></trkpt><trkpt lat="43.39962965141192" lon="10.640712136633605"><ele>386.0</ele><time>2026-04-18T13:17:46Z</time></trkpt><trkpt lat="43.39958884614874" lon="10.640633196382405"><ele>385.99999999999994</ele><time>2026-04-18T13:17:47Z</time></trkpt><trkpt lat="43.39955029558428" lon="10.640532372370403"><ele>386.0</ele><time>2026-04-18T13:17:48Z</time></trkpt><trkpt lat="43.39953462337478" lon="10.640421723456775"><ele>388.20000000000005</ele><time>2026-04-18T13:17:49Z</time></trkpt><trkpt lat="43.39956478143831" lon="10.640296418043112"><ele>390.40000000000003</ele><time>2026-04-18T13:17:50Z</time></trkpt><trkpt lat="43.399583698556235" lon="10.64018011385344"><ele>392.6</ele><time>2026-04-18T13:17:51Z</time></trkpt><trkpt lat="43.39957439856186" lon="10.6400520260516"><ele>394.8</ele><time>2026-04-18T13:17:52Z</time></trkpt><trkpt lat="43.39955480431906" lon="10.639926273177585"><ele>397.0</ele><time>2026-04-18T13:17:53Z</time></trkpt><trkpt lat="43.39952727999524" lon="10.639798458872628"><ele>397.0</ele><time>2026-04-18T13:17:54Z</time></trkpt><trkpt lat="43.399494462554415" lon="10.639660140665866"><ele>397.0</ele><time>2026-04-18T13:17:55Z</time></trkpt><trkpt lat="43.39945322584396" lon="10.639507390767568"><ele>397.0</ele><time>2026-04-18T13:17:56Z</time></trkpt><trkpt lat="43.39940721544466" lon="10.639371102791342"><ele>397.0</ele><time>2026-04-18T13:17:57Z</time></trkpt><trkpt lat="43.39935056538964" lon="10.639229313276552"><ele>400.75</ele><time>2026-04-18T13:17:58Z</time></trkpt><trkpt lat="43.39928592722374" lon="10.63909765047236"><ele>404.5</ele><time>2026-04-18T13:17:59Z</time></trkpt><trkpt lat="43.39921478834929" lon="10.638964735556112"><ele>408.25</ele><time>2026-04-18T13:18:00Z</time></trkpt><trkpt lat="43.39912320291456" lon="10.638823179984788"><ele>412.0</ele><time>2026-04-18T13:18:01Z</time></trkpt><trkpt lat="43.399034930427796" lon="10.638687218080754"><ele>414.40000000000003</ele><time>2026-04-18T13:18:02Z</time></trkpt><trkpt lat="43.39895141185382" lon="10.638558578503204"><ele>416.8</ele><time>2026-04-18T13:18:03Z</time></trkpt><trkpt lat="43.39888328882428" lon="10.638431743069983"><ele>419.2</ele><time>2026-04-18T13:18:04Z</time></trkpt><trkpt lat="43.398860187052314" lon="10.638322567008114"><ele>421.6</ele><time>2026-04-18T13:18:05Z</time></trkpt><trkpt lat="43.39887315049566" lon="10.638195478127074"><ele>424.0</ele><time>2026-04-18T13:18:06Z</time></trkpt><trkpt lat="43.398889954809576" lon="10.638069365980233"><ele>424.0</ele><time>2026-04-18T13:18:07Z</time></trkpt><trkpt lat="43.39889557530917" lon="10.637949435644884"><ele>424.0</ele><time>2026-04-18T13:18:08Z</time></trkpt><trkpt lat="43.39889875016074" lon="10.63784307689732"><ele>424.0</ele><time>2026-04-18T13:18:09Z</time></trkpt><trkpt lat="43.39884565769619" lon="10.63767717361719"><ele>424.0</ele><time>2026-04-18T13:18:10Z</time></trkpt><trkpt lat="43.398809465893315" lon="10.637498539864806"><ele>424.0</ele><time>2026-04-18T13:18:11Z</time></trkpt><trkpt lat="43.39877102638469" lon="10.637336826090811"><ele>425.6</ele><time>2026-04-18T13:18:12Z</time></trkpt><trkpt lat="43.39872353520709" lon="10.637182191309268"><ele>427.2</ele><time>2026-04-18T13:18:13Z</time></trkpt><trkpt lat="43.398672669146286" lon="10.637049804964333"><ele>428.80000000000007</ele><time>2026-04-18T13:18:14Z</time></trkpt><trkpt lat="43.39860904012107" lon="10.636941740796486"><ele>430.40000000000003</ele><time>2026-04-18T13:18:15Z</time></trkpt><trkpt lat="43.3985193521883" lon="10.636858641912623"><ele>432.0</ele><time>2026-04-18T13:18:16.001Z</time></trkpt><trkpt lat="43.39840369099356" lon="10.636764485635412"><ele>434.75</ele><time>2026-04-18T13:18:17.001Z</time></trkpt><trkpt lat="43.39831316338624" lon="10.636692659339188"><ele>437.5</ele><time>2026-04-18T13:18:18.001Z</time></trkpt><trkpt lat="43.398191785459865" lon="10.636614852653096"><ele>440.25</ele><time>2026-04-18T13:18:19.001Z</time></trkpt><trkpt lat="43.398101155829316" lon="10.636529762470097"><ele>443.0</ele><time>2026-04-18T13:18:20.001Z</time></trkpt><trkpt lat="43.39802125544896" lon="10.636412430679089"><ele>444.25</ele><time>2026-04-18T13:18:21.001Z</time></trkpt><trkpt lat="43.39792944291052" lon="10.636284549013606"><ele>445.5</ele><time>2026-04-18T13:18:22.001Z</time></trkpt><trkpt lat="43.39784728663336" lon="10.63615626687889"><ele>446.75</ele><time>2026-04-18T13:18:23.001Z</time></trkpt><trkpt lat="43.39776702394798" lon="10.636027585353057"><ele>448.0</ele><time>2026-04-18T13:18:24.001Z</time></trkpt><trkpt lat="43.39767902078137" lon="10.635888865939751"><ele>450.5</ele><time>2026-04-18T13:18:25.001Z</time></trkpt><trkpt lat="43.397597213221374" lon="10.635762062866583"><ele>453.0</ele><time>2026-04-18T13:18:26.001Z</time></trkpt><trkpt lat="43.39750400760094" lon="10.635642088322273"><ele>455.5</ele><time>2026-04-18T13:18:27.001Z</time></trkpt><trkpt lat="43.39741445435448" lon="10.6354769071035"><ele>458.0</ele><time>2026-04-18T13:18:28.001Z</time></trkpt><trkpt lat="43.397361182499544" lon="10.635326415908244"><ele>460.0</ele><time>2026-04-18T13:18:29.001Z</time></trkpt><trkpt lat="43.39734110670707" lon="10.635169611700984"><ele>461.99999999999994</ele><time>2026-04-18T13:18:30.001Z</time></trkpt><trkpt lat="43.39733735013591" lon="10.635016897276978"><ele>463.99999999999994</ele><time>2026-04-18T13:18:31.001Z</time></trkpt><trkpt lat="43.3973354453856" lon="10.634906099248044"><ele>466.0</ele><time>2026-04-18T13:18:32.001Z</time></trkpt><trkpt lat="43.39733754033575" lon="10.634753218365422"><ele>468.0</ele><time>2026-04-18T13:18:33.001Z</time></trkpt><trkpt lat="43.397330416547476" lon="10.634590512544685"><ele>468.2</ele><time>2026-04-18T13:18:34.001Z</time></trkpt><trkpt lat="43.397330861165216" lon="10.634438674724176"><ele>468.4</ele><time>2026-04-18T13:18:35.001Z</time></trkpt><trkpt lat="43.397341384049454" lon="10.6343027087084"><ele>468.59999999999997</ele><time>2026-04-18T13:18:36.001Z</time></trkpt><trkpt lat="43.397381371157245" lon="10.634181960528267"><ele>468.79999999999995</ele><time>2026-04-18T13:18:37.001Z</time></trkpt><trkpt lat="43.3974102065487" lon="10.634060457291527"><ele>469.0</ele><time>2026-04-18T13:18:38.001Z</time></trkpt><trkpt lat="43.397433136114756" lon="10.633954812134778"><ele>469.00000000000006</ele><time>2026-04-18T13:18:39.001Z</time></trkpt><trkpt lat="43.397442354400475" lon="10.633844587933572"><ele>469.0</ele><time>2026-04-18T13:18:40.001Z</time></trkpt><trkpt lat="43.39747654048163" lon="10.633734418374305"><ele>469.0</ele><time>2026-04-18T13:18:41.001Z</time></trkpt><trkpt lat="43.397497880866716" lon="10.633624989758445"><ele>469.0</ele><time>2026-04-18T13:18:42.001Z</time></trkpt><trkpt lat="43.39750914046069" lon="10.633524019163223"><ele>469.00000000000006</ele><time>2026-04-18T13:18:43.001Z</time></trkpt><trkpt lat="43.39753431326646" lon="10.633427518411247"><ele>469.0</ele><time>2026-04-18T13:18:44.001Z</time></trkpt><trkpt lat="43.397556946149116" lon="10.633309440551388"><ele>468.79999999999995</ele><time>2026-04-18T13:18:46.001Z</time></trkpt><trkpt lat="43.39755974267642" lon="10.63321299635378"><ele>468.59999999999997</ele><time>2026-04-18T13:20:42.001Z</time></trkpt><trkpt lat="43.39758863926123" lon="10.633064685720138"><ele>468.4</ele><time>2026-04-18T13:20:44.001Z</time></trkpt><trkpt lat="43.39761463866965" lon="10.632955540344762"><ele>468.2</ele><time>2026-04-18T13:20:46.001Z</time></trkpt><trkpt lat="43.39764723026357" lon="10.632848814945433"><ele>468.0</ele><time>2026-04-18T13:21:17.001Z</time></trkpt><trkpt lat="43.39767898257364" lon="10.632687554309172"><ele>468.0</ele><time>2026-04-18T13:21:19.001Z</time></trkpt><trkpt lat="43.397697567343805" lon="10.632593145032235"><ele>467.99999999999994</ele><time>2026-04-18T13:21:20.001Z</time></trkpt><trkpt lat="43.397717913661204" lon="10.632489787238326"><ele>467.99999999999994</ele><time>2026-04-18T13:21:21.001Z</time></trkpt><trkpt lat="43.39774633576427" lon="10.632345405008646"><ele>468.0</ele><time>2026-04-18T13:21:22.001Z</time></trkpt><trkpt lat="43.39777509131162" lon="10.632184154802143"><ele>468.0</ele><time>2026-04-18T13:21:23.001Z</time></trkpt><trkpt lat="43.39779943645066" lon="10.632038609332525"><ele>468.5</ele><time>2026-04-18T13:21:24.001Z</time></trkpt><trkpt lat="43.397822472211146" lon="10.631941343781206"><ele>469.0</ele><time>2026-04-18T13:21:25.001Z</time></trkpt><trkpt lat="43.397862432995495" lon="10.63183413687477"><ele>469.5</ele><time>2026-04-18T13:21:26.001Z</time></trkpt><trkpt lat="43.39791360808479" lon="10.631722646510774"><ele>470.0</ele><time>2026-04-18T13:21:27.001Z</time></trkpt><trkpt lat="43.397973095688464" lon="10.63160871880165"><ele>470.5</ele><time>2026-04-18T13:21:28.001Z</time></trkpt><trkpt lat="43.39802124584218" lon="10.631521096284006"><ele>471.0</ele><time>2026-04-18T13:21:29.001Z</time></trkpt><trkpt lat="43.39806663841614" lon="10.631430250735841"><ele>471.3333333333333</ele><time>2026-04-18T13:21:30.001Z</time></trkpt><trkpt lat="43.3981096023553" lon="10.631336624143595"><ele>471.66666666666663</ele><time>2026-04-18T13:21:31.001Z</time></trkpt><trkpt lat="43.39815303153071" lon="10.631229184295735"><ele>472.0</ele><time>2026-04-18T13:21:32.001Z</time></trkpt><trkpt lat="43.39818816806114" lon="10.631129967380847"><ele>472.3333333333333</ele><time>2026-04-18T13:21:33.001Z</time></trkpt><trkpt lat="43.398225337528125" lon="10.631013944783268"><ele>472.66666666666663</ele><time>2026-04-18T13:21:34.001Z</time></trkpt><trkpt lat="43.39823841662223" lon="10.630875105090048"><ele>473.0</ele><time>2026-04-18T13:21:35.001Z</time></trkpt><trkpt lat="43.39825538893818" lon="10.630751625454364"><ele>474.2</ele><time>2026-04-18T13:21:36.001Z</time></trkpt><trkpt lat="43.398222103044674" lon="10.630649033096326"><ele>475.4</ele><time>2026-04-18T13:21:37.001Z</time></trkpt><trkpt lat="43.398197127865295" lon="10.630544761311402"><ele>476.59999999999997</ele><time>2026-04-18T13:21:38.001Z</time></trkpt><trkpt lat="43.39816784551558" lon="10.630416328808318"><ele>477.79999999999995</ele><time>2026-04-18T13:21:39.001Z</time></trkpt><trkpt lat="43.398124748156754" lon="10.630266593546976"><ele>479.0</ele><time>2026-04-18T13:21:40.001Z</time></trkpt><trkpt lat="43.39812967283507" lon="10.630126816126799"><ele>481.4</ele><time>2026-04-18T13:21:41.001Z</time></trkpt><trkpt lat="43.39813443920627" lon="10.62998483480543"><ele>483.79999999999995</ele><time>2026-04-18T13:21:42.001Z</time></trkpt><trkpt lat="43.39814182290546" lon="10.629848494986993"><ele>486.20000000000005</ele><time>2026-04-18T13:21:43.001Z</time></trkpt><trkpt lat="43.3981366864662" lon="10.629707884382835"><ele>488.6</ele><time>2026-04-18T13:21:44.001Z</time></trkpt><trkpt lat="43.39814458163054" lon="10.629575510139315"><ele>491.0</ele><time>2026-04-18T13:21:45.001Z</time></trkpt><trkpt lat="43.39814350847991" lon="10.629429704455422"><ele>492.0</ele><time>2026-04-18T13:21:46.001Z</time></trkpt><trkpt lat="43.39815709691071" lon="10.629287880699454"><ele>493.0</ele><time>2026-04-18T13:21:47.001Z</time></trkpt><trkpt lat="43.39816015672203" lon="10.6291421082111"><ele>494.0</ele><time>2026-04-18T13:21:48.001Z</time></trkpt><trkpt lat="43.39815971883292" lon="10.628964304882201"><ele>495.0</ele><time>2026-04-18T13:21:49.001Z</time></trkpt><trkpt lat="43.398156479015704" lon="10.628793942762508"><ele>495.5</ele><time>2026-04-18T13:21:50.001Z</time></trkpt><trkpt lat="43.39816222911399" lon="10.628626350233587"><ele>496.0</ele><time>2026-04-18T13:21:51.001Z</time></trkpt><trkpt lat="43.398169911423054" lon="10.628457213490533"><ele>496.5</ele><time>2026-04-18T13:21:52.001Z</time></trkpt><trkpt lat="43.3981528865486" lon="10.628301993497251"><ele>497.0</ele><time>2026-04-18T13:21:53.001Z</time></trkpt><trkpt lat="43.39815729508516" lon="10.62814908821984"><ele>497.0</ele><time>2026-04-18T13:21:54.001Z</time></trkpt><trkpt lat="43.39814597371557" lon="10.62797890510793"><ele>497.00000000000006</ele><time>2026-04-18T13:21:55.001Z</time></trkpt><trkpt lat="43.39814679276825" lon="10.627839843847982"><ele>497.00000000000006</ele><time>2026-04-18T13:21:56.001Z</time></trkpt><trkpt lat="43.39815353472925" lon="10.627728475610668"><ele>497.0</ele><time>2026-04-18T13:21:57.001Z</time></trkpt><trkpt lat="43.398142854284934" lon="10.627642715774334"><ele>497.0</ele><time>2026-04-18T13:21:58.001Z</time></trkpt><trkpt lat="43.398128944092676" lon="10.627532428552149"><ele>497.66666666666663</ele><time>2026-04-18T13:21:59.001Z</time></trkpt><trkpt lat="43.39807990037316" lon="10.627405792644714"><ele>498.3333333333333</ele><time>2026-04-18T13:22:00.001Z</time></trkpt><trkpt lat="43.398038599770274" lon="10.627305155399565"><ele>499.0</ele><time>2026-04-18T13:22:01.001Z</time></trkpt><trkpt lat="43.39800762000548" lon="10.62721287224457"><ele>499.66666666666663</ele><time>2026-04-18T13:22:02.001Z</time></trkpt><trkpt lat="43.39797794553515" lon="10.62711388105264"><ele>500.3333333333333</ele><time>2026-04-18T13:22:03.001Z</time></trkpt><trkpt lat="43.39796052163199" lon="10.626983187584203"><ele>501.0</ele><time>2026-04-18T13:22:04.001Z</time></trkpt><trkpt lat="43.39796776402317" lon="10.626858652585433"><ele>503.0</ele><time>2026-04-18T13:22:05.001Z</time></trkpt><trkpt lat="43.39805626438861" lon="10.626757022353022"><ele>505.0</ele><time>2026-04-18T13:22:07.001Z</time></trkpt><trkpt lat="43.39811699438492" lon="10.626672767467467"><ele>507.0</ele><time>2026-04-18T13:22:08.001Z</time></trkpt><trkpt lat="43.39817570963652" lon="10.626604767024999"><ele>509.0</ele><time>2026-04-18T13:22:09.001Z</time></trkpt><trkpt lat="43.398270432303775" lon="10.626521422441956"><ele>511.0</ele><time>2026-04-18T13:22:10.001Z</time></trkpt><trkpt lat="43.39836705782267" lon="10.626436005856037"><ele>511.0</ele><time>2026-04-18T13:22:11.001Z</time></trkpt><trkpt lat="43.398436917573555" lon="10.626339653771009"><ele>511.0</ele><time>2026-04-18T13:22:12.001Z</time></trkpt><trkpt lat="43.39853789063225" lon="10.626297484731577"><ele>511.0</ele><time>2026-04-18T13:22:13.001Z</time></trkpt><trkpt lat="43.39859246264345" lon="10.626195217167593"><ele>511.0</ele><time>2026-04-18T13:22:14.001Z</time></trkpt><trkpt lat="43.3986033960284" lon="10.62606911805087"><ele>511.0</ele><time>2026-04-18T13:22:15.001Z</time></trkpt><trkpt lat="43.39859250134775" lon="10.625915821902698"><ele>513.75</ele><time>2026-04-18T13:22:17.001Z</time></trkpt><trkpt lat="43.39854443531063" lon="10.625831430169557"><ele>516.5</ele><time>2026-04-18T13:22:20.001Z</time></trkpt><trkpt lat="43.39847639031636" lon="10.625718234686245"><ele>519.25</ele><time>2026-04-18T13:22:27.001Z</time></trkpt><trkpt lat="43.398410967202175" lon="10.625586634833285"><ele>522.0</ele><time>2026-04-18T13:22:29.001Z</time></trkpt><trkpt lat="43.398123684379236" lon="10.625450826747539"><ele>523.0</ele><time>2026-04-18T13:22:30.001Z</time></trkpt><trkpt lat="43.39812032319694" lon="10.625284503488304"><ele>524.0</ele><time>2026-04-18T13:22:32.001Z</time></trkpt><trkpt lat="43.39812090042642" lon="10.625172337317888"><ele>525.0</ele><time>2026-04-18T13:22:33.001Z</time></trkpt><trkpt lat="43.39812337143695" lon="10.625055136579629"><ele>526.0</ele><time>2026-04-18T13:22:34.001Z</time></trkpt><trkpt lat="43.398128595606885" lon="10.624948589528445"><ele>527.0</ele><time>2026-04-18T13:22:35.001Z</time></trkpt><trkpt lat="43.398132425596415" lon="10.624854489024607"><ele>528.0</ele><time>2026-04-18T13:22:36.001Z</time></trkpt><trkpt lat="43.39813637216833" lon="10.624760673795011"><ele>528.0</ele><time>2026-04-18T13:22:37.001Z</time></trkpt><trkpt lat="43.39813839121751" lon="10.62465046136818"><ele>528.0</ele><time>2026-04-18T13:22:39.001Z</time></trkpt><trkpt lat="43.39821209636573" lon="10.624652900876596"><ele>528.0</ele><time>2026-04-18T13:24:15Z</time></trkpt><trkpt lat="43.39818954966198" lon="10.62455760541306"><ele>528.0</ele><time>2026-04-18T13:29:46.001Z</time></trkpt><trkpt lat="43.39812617506961" lon="10.624421100254459"><ele>528.0</ele><time>2026-04-18T13:29:48.001Z</time></trkpt><trkpt lat="43.398103865465984" lon="10.624254723854369"><ele>528.5714285714286</ele><time>2026-04-18T13:29:51.001Z</time></trkpt><trkpt lat="43.39808896991596" lon="10.624167268146767"><ele>529.1428571428571</ele><time>2026-04-18T13:29:52.001Z</time></trkpt><trkpt lat="43.39806955240966" lon="10.624067707334651"><ele>529.7142857142858</ele><time>2026-04-18T13:29:53.001Z</time></trkpt><trkpt lat="43.398048461988935" lon="10.623976273373874"><ele>530.2857142857142</ele><time>2026-04-18T13:29:54.001Z</time></trkpt><trkpt lat="43.39803713847427" lon="10.623886841039658"><ele>530.8571428571429</ele><time>2026-04-18T13:29:55.001Z</time></trkpt><trkpt lat="43.398041472017105" lon="10.62379541599964"><ele>531.4285714285714</ele><time>2026-04-18T13:29:56.001Z</time></trkpt><trkpt lat="43.39805813446044" lon="10.623702920497132"><ele>532.0</ele><time>2026-04-18T13:29:57.001Z</time></trkpt><trkpt lat="43.39809051965747" lon="10.623618527245908"><ele>532.4</ele><time>2026-04-18T13:29:58.001Z</time></trkpt><trkpt lat="43.398142036424005" lon="10.6235561585041"><ele>532.8000000000001</ele><time>2026-04-18T13:29:59.001Z</time></trkpt><trkpt lat="43.39818953336862" lon="10.623476222783216"><ele>533.2</ele><time>2026-04-18T13:30:00.001Z</time></trkpt><trkpt lat="43.39826437004371" lon="10.62334555560358"><ele>533.6</ele><time>2026-04-18T13:30:02.001Z</time></trkpt><trkpt lat="43.39830560576296" lon="10.623269275184787"><ele>534.0</ele><time>2026-04-18T13:30:03.001Z</time></trkpt><trkpt lat="43.39837700348565" lon="10.623133475897639"><ele>534.0</ele><time>2026-04-18T13:30:05.001Z</time></trkpt><trkpt lat="43.398416325676735" lon="10.623053656461384"><ele>534.0</ele><time>2026-04-18T13:30:06.001Z</time></trkpt><trkpt lat="43.39845131918907" lon="10.6229615242341"><ele>534.0</ele><time>2026-04-18T13:30:07.001Z</time></trkpt><trkpt lat="43.39846785326362" lon="10.62287254339887"><ele>534.0</ele><time>2026-04-18T13:30:08.001Z</time></trkpt><trkpt lat="43.39847380445427" lon="10.622776189892294"><ele>534.0</ele><time>2026-04-18T13:30:09.001Z</time></trkpt><trkpt lat="43.398472550194555" lon="10.622645063254133"><ele>534.0</ele><time>2026-04-18T13:30:10.001Z</time></trkpt><trkpt lat="43.39846586634742" lon="10.622524801826264"><ele>534.3333333333334</ele><time>2026-04-18T13:30:11.001Z</time></trkpt><trkpt lat="43.39845805287657" lon="10.622399140322123"><ele>534.6666666666666</ele><time>2026-04-18T13:30:12.001Z</time></trkpt><trkpt lat="43.39846305501401" lon="10.622293270253987"><ele>535.0</ele><time>2026-04-18T13:30:13.001Z</time></trkpt><trkpt lat="43.39849588909511" lon="10.622193058714748"><ele>535.3333333333333</ele><time>2026-04-18T13:30:14.001Z</time></trkpt><trkpt lat="43.398530102699745" lon="10.622098896595654"><ele>535.6666666666666</ele><time>2026-04-18T13:30:15.001Z</time></trkpt><trkpt lat="43.398574995646655" lon="10.622007271007254"><ele>536.0</ele><time>2026-04-18T13:30:16.001Z</time></trkpt><trkpt lat="43.39861446904404" lon="10.621933028330163"><ele>536.0</ele><time>2026-04-18T13:30:17.001Z</time></trkpt><trkpt lat="43.39868303982093" lon="10.6218046290694"><ele>536.0</ele><time>2026-04-18T13:30:19.001Z</time></trkpt><trkpt lat="43.39873828837736" lon="10.621673927527242"><ele>536.0</ele><time>2026-04-18T13:30:21.001Z</time></trkpt><trkpt lat="43.39878973729613" lon="10.621563068357172"><ele>536.0</ele><time>2026-04-18T13:30:23.001Z</time></trkpt><trkpt lat="43.39879304585332" lon="10.621379834947742"><ele>536.0</ele><time>2026-04-18T13:30:25.001Z</time></trkpt><trkpt lat="43.398772303660465" lon="10.621198717360254"><ele>536.0</ele><time>2026-04-18T13:30:27.001Z</time></trkpt><trkpt lat="43.398774554625554" lon="10.62104784358249"><ele>536.0</ele><time>2026-04-18T13:30:29.001Z</time></trkpt><trkpt lat="43.398792045233144" lon="10.620940113222762"><ele>536.0</ele><time>2026-04-18T13:30:31.001Z</time></trkpt><trkpt lat="43.39883807829492" lon="10.620804761019993"><ele>536.0</ele><time>2026-04-18T13:30:33.001Z</time></trkpt><trkpt lat="43.39887612909766" lon="10.620730924285745"><ele>536.2</ele><time>2026-04-18T13:30:34.001Z</time></trkpt><trkpt lat="43.39891556025708" lon="10.620657584418575"><ele>536.4000000000001</ele><time>2026-04-18T13:30:35.001Z</time></trkpt><trkpt lat="43.39896957454418" lon="10.620561631934986"><ele>536.6</ele><time>2026-04-18T13:30:36.001Z</time></trkpt><trkpt lat="43.399034122293436" lon="10.620452392813803"><ele>536.8000000000001</ele><time>2026-04-18T13:30:37.001Z</time></trkpt><trkpt lat="43.399097077220425" lon="10.620343450400695"><ele>537.0</ele><time>2026-04-18T13:30:38.001Z</time></trkpt><trkpt lat="43.399156079477976" lon="10.620229275498827"><ele>536.2</ele><time>2026-04-18T13:30:39.001Z</time></trkpt><trkpt lat="43.39921130857412" lon="10.620113641161563"><ele>535.4000000000001</ele><time>2026-04-18T13:30:40.001Z</time></trkpt><trkpt lat="43.39926210076512" lon="10.620001630081967"><ele>534.5999999999999</ele><time>2026-04-18T13:30:41.001Z</time></trkpt><trkpt lat="43.39931094013786" lon="10.619889281284086"><ele>533.8</ele><time>2026-04-18T13:30:42.001Z</time></trkpt><trkpt lat="43.39936131449403" lon="10.61977035705135"><ele>533.0</ele><time>2026-04-18T13:30:43.001Z</time></trkpt><trkpt lat="43.39941241965815" lon="10.619650989900036"><ele>533.0</ele><time>2026-04-18T13:30:44.001Z</time></trkpt><trkpt lat="43.39943929252357" lon="10.619513493235994"><ele>533.0</ele><time>2026-04-18T13:30:45.001Z</time></trkpt><trkpt lat="43.399462336640646" lon="10.619376898605758"><ele>533.0</ele><time>2026-04-18T13:30:46.001Z</time></trkpt><trkpt lat="43.399471330707385" lon="10.619236167359329"><ele>533.0</ele><time>2026-04-18T13:30:47.001Z</time></trkpt><trkpt lat="43.39948998705984" lon="10.619100096680247"><ele>533.0</ele><time>2026-04-18T13:30:48.001Z</time></trkpt><trkpt lat="43.39949847749434" lon="10.618971811080556"><ele>532.8333333333333</ele><time>2026-04-18T13:30:49.001Z</time></trkpt><trkpt lat="43.399504324678766" lon="10.618877648592646"><ele>532.6666666666666</ele><time>2026-04-18T13:30:50.001Z</time></trkpt><trkpt lat="43.399510502325015" lon="10.618752885488808"><ele>532.5</ele><time>2026-04-18T13:30:52.001Z</time></trkpt><trkpt lat="43.39951525864585" lon="10.618649172500476"><ele>532.3333333333334</ele><time>2026-04-18T13:30:55.001Z</time></trkpt><trkpt lat="43.39948914449103" lon="10.618542364591965"><ele>532.1666666666667</ele><time>2026-04-18T13:46:31.001Z</time></trkpt><trkpt lat="43.39957401287053" lon="10.618521123210336"><ele>532.0</ele><time>2026-04-18T13:46:33.999Z</time></trkpt><trkpt lat="43.399685023447965" lon="10.618613928765333"><ele>533.25</ele><time>2026-04-18T13:46:35.999Z</time></trkpt><trkpt lat="43.39977166195058" lon="10.618682172140428"><ele>534.5</ele><time>2026-04-18T13:46:36.999Z</time></trkpt><trkpt lat="43.39986805603907" lon="10.618768821319767"><ele>535.75</ele><time>2026-04-18T13:46:37.999Z</time></trkpt><trkpt lat="43.39997481866989" lon="10.618852381082904"><ele>537.0</ele><time>2026-04-18T13:46:38.999Z</time></trkpt><trkpt lat="43.40009715881219" lon="10.618941259764961"><ele>537.0</ele><time>2026-04-18T13:46:39.999Z</time></trkpt><trkpt lat="43.4002284611068" lon="10.619047088552088"><ele>537.0</ele><time>2026-04-18T13:46:40.999Z</time></trkpt><trkpt lat="43.40036619326073" lon="10.619164466610592"><ele>537.0</ele><time>2026-04-18T13:46:41.999Z</time></trkpt><trkpt lat="43.40049188942448" lon="10.61925203719789"><ele>535.0</ele><time>2026-04-18T13:46:42.999Z</time></trkpt><trkpt lat="43.40062101111825" lon="10.619300499523996"><ele>533.0</ele><time>2026-04-18T13:46:43.999Z</time></trkpt><trkpt lat="43.40076687183861" lon="10.619326783891998"><ele>531.0</ele><time>2026-04-18T13:46:44.999Z</time></trkpt><trkpt lat="43.40091789739143" lon="10.619327230001705"><ele>529.0</ele><time>2026-04-18T13:46:45.999Z</time></trkpt><trkpt lat="43.40105296316222" lon="10.619307479393713"><ele>529.0</ele><time>2026-04-18T13:46:46.999Z</time></trkpt><trkpt lat="43.40118125586764" lon="10.619268298642558"><ele>529.0</ele><time>2026-04-18T13:46:47.999Z</time></trkpt><trkpt lat="43.401274824191866" lon="10.619194988745532"><ele>529.0</ele><time>2026-04-18T13:46:49Z</time></trkpt><trkpt lat="43.40137275125815" lon="10.619166805245337"><ele>529.0</ele><time>2026-04-18T13:46:50Z</time></trkpt><trkpt lat="43.401471539704445" lon="10.619201149233676"><ele>529.0</ele><time>2026-04-18T13:46:51Z</time></trkpt><trkpt lat="43.401572381914406" lon="10.619274698073342"><ele>527.5</ele><time>2026-04-18T13:46:52Z</time></trkpt><trkpt lat="43.40169507712056" lon="10.619378776268695"><ele>526.0</ele><time>2026-04-18T13:46:53Z</time></trkpt><trkpt lat="43.401827399745585" lon="10.619493975071146"><ele>524.5</ele><time>2026-04-18T13:46:54Z</time></trkpt><trkpt lat="43.40195155347516" lon="10.619581376382634"><ele>523.0</ele><time>2026-04-18T13:46:55Z</time></trkpt><trkpt lat="43.402076937114416" lon="10.61965905373458"><ele>517.25</ele><time>2026-04-18T13:46:56Z</time></trkpt><trkpt lat="43.40222133005387" lon="10.61974753297875"><ele>511.5</ele><time>2026-04-18T13:46:57Z</time></trkpt><trkpt lat="43.402344828758366" lon="10.619847436907001"><ele>505.75</ele><time>2026-04-18T13:46:58Z</time></trkpt><trkpt lat="43.40243252034049" lon="10.619983049112934"><ele>500.0</ele><time>2026-04-18T13:46:59Z</time></trkpt><trkpt lat="43.40252478872742" lon="10.620112617144557"><ele>500.0</ele><time>2026-04-18T13:47:00Z</time></trkpt><trkpt lat="43.40261159191858" lon="10.620248688903741"><ele>500.0</ele><time>2026-04-18T13:47:01Z</time></trkpt><trkpt lat="43.402709595938724" lon="10.620388458449897"><ele>500.0</ele><time>2026-04-18T13:47:02Z</time></trkpt><trkpt lat="43.40278545041258" lon="10.620557392791294"><ele>500.0</ele><time>2026-04-18T13:47:03Z</time></trkpt><trkpt lat="43.402847233429" lon="10.620703923148099"><ele>499.5</ele><time>2026-04-18T13:47:04Z</time></trkpt><trkpt lat="43.402897755483245" lon="10.620847300457669"><ele>499.0</ele><time>2026-04-18T13:47:05Z</time></trkpt><trkpt lat="43.4029110431955" lon="10.621013204703818"><ele>498.5</ele><time>2026-04-18T13:47:06Z</time></trkpt><trkpt lat="43.40291751204367" lon="10.621211378245285"><ele>498.0</ele><time>2026-04-18T13:47:07Z</time></trkpt><trkpt lat="43.402938059886274" lon="10.621425090830492"><ele>496.33333333333337</ele><time>2026-04-18T13:47:08Z</time></trkpt><trkpt lat="43.402953685560185" lon="10.621647405275553"><ele>494.6666666666667</ele><time>2026-04-18T13:47:09Z</time></trkpt><trkpt lat="43.40296971728367" lon="10.621884187091156"><ele>493.0</ele><time>2026-04-18T13:47:10Z</time></trkpt><trkpt lat="43.402977262023285" lon="10.622106753951268"><ele>492.5</ele><time>2026-04-18T13:47:11Z</time></trkpt><trkpt lat="43.4029703434316" lon="10.622324632595987"><ele>492.0</ele><time>2026-04-18T13:47:12Z</time></trkpt><trkpt lat="43.40295082182545" lon="10.622528352885835"><ele>491.5</ele><time>2026-04-18T13:47:13Z</time></trkpt><trkpt lat="43.402881989502355" lon="10.622692840863847"><ele>491.0</ele><time>2026-04-18T13:47:14Z</time></trkpt><trkpt lat="43.40283160750183" lon="10.62289074661397"><ele>490.75</ele><time>2026-04-18T13:47:15Z</time></trkpt><trkpt lat="43.40275177198318" lon="10.623066104921463"><ele>490.5</ele><time>2026-04-18T13:47:16Z</time></trkpt><trkpt lat="43.40270793470237" lon="10.623235002413544"><ele>490.25</ele><time>2026-04-18T13:47:17Z</time></trkpt><trkpt lat="43.40271194720266" lon="10.623414208195587"><ele>490.0</ele><time>2026-04-18T13:47:18Z</time></trkpt><trkpt lat="43.40273060308122" lon="10.623597994747438"><ele>490.0</ele><time>2026-04-18T13:47:19Z</time></trkpt><trkpt lat="43.40277104721321" lon="10.623802650127317"><ele>490.0</ele><time>2026-04-18T13:47:20Z</time></trkpt><trkpt lat="43.40281675223752" lon="10.623995367947096"><ele>490.0</ele><time>2026-04-18T13:47:21Z</time></trkpt><trkpt lat="43.40286052169591" lon="10.624201916091526"><ele>490.0</ele><time>2026-04-18T13:47:22Z</time></trkpt><trkpt lat="43.40290042090749" lon="10.624387827057555"><ele>490.0</ele><time>2026-04-18T13:47:23Z</time></trkpt><trkpt lat="43.40293805157347" lon="10.624561029245848"><ele>490.0</ele><time>2026-04-18T13:47:24Z</time></trkpt><trkpt lat="43.40300464814167" lon="10.624731769198426"><ele>490.0</ele><time>2026-04-18T13:47:25Z</time></trkpt><trkpt lat="43.40308635580386" lon="10.624908786606404"><ele>490.75</ele><time>2026-04-18T13:47:26Z</time></trkpt><trkpt lat="43.40315500938829" lon="10.625078492469164"><ele>491.5</ele><time>2026-04-18T13:47:27Z</time></trkpt><trkpt lat="43.40317250987219" lon="10.625249833569184"><ele>492.25</ele><time>2026-04-18T13:47:28Z</time></trkpt><trkpt lat="43.40322879792921" lon="10.625375109809221"><ele>493.0</ele><time>2026-04-18T13:47:29Z</time></trkpt><trkpt lat="43.40329339565226" lon="10.625515376315464"><ele>486.6666666666667</ele><time>2026-04-18T13:47:30Z</time></trkpt><trkpt lat="43.403382946306536" lon="10.625686851422039"><ele>480.33333333333337</ele><time>2026-04-18T13:47:31Z</time></trkpt><trkpt lat="43.40348524924483" lon="10.625854125935282"><ele>474.0</ele><time>2026-04-18T13:47:32Z</time></trkpt><trkpt lat="43.403580748375084" lon="10.626023260112806"><ele>477.0</ele><time>2026-04-18T13:47:33Z</time></trkpt><trkpt lat="43.403683314038695" lon="10.626209218019682"><ele>480.0</ele><time>2026-04-18T13:47:34Z</time></trkpt><trkpt lat="43.403790635565365" lon="10.626411566996794"><ele>483.0</ele><time>2026-04-18T13:47:35Z</time></trkpt><trkpt lat="43.403892210680006" lon="10.626597148481167"><ele>483.0</ele><time>2026-04-18T13:47:36Z</time></trkpt><trkpt lat="43.4039861902982" lon="10.626759536970935"><ele>483.0</ele><time>2026-04-18T13:47:37Z</time></trkpt><trkpt lat="43.4040729392201" lon="10.626895828297922"><ele>483.0</ele><time>2026-04-18T13:47:38Z</time></trkpt><trkpt lat="43.40416185726926" lon="10.62700082028053"><ele>483.0</ele><time>2026-04-18T13:47:39Z</time></trkpt><trkpt lat="43.4042656760899" lon="10.627119674754265"><ele>479.5</ele><time>2026-04-18T13:47:40Z</time></trkpt><trkpt lat="43.40436683053693" lon="10.627229465704366"><ele>476.0</ele><time>2026-04-18T13:47:41Z</time></trkpt><trkpt lat="43.404467732647106" lon="10.627319389083299"><ele>472.5</ele><time>2026-04-18T13:47:42Z</time></trkpt><trkpt lat="43.40457849091255" lon="10.627378457963141"><ele>469.0</ele><time>2026-04-18T13:47:43Z</time></trkpt><trkpt lat="43.40471186808384" lon="10.627407089399913"><ele>469.0</ele><time>2026-04-18T13:47:44Z</time></trkpt><trkpt lat="43.404854855528114" lon="10.62741105159957"><ele>469.0</ele><time>2026-04-18T13:47:45Z</time></trkpt><trkpt lat="43.40498855627989" lon="10.62742850165045"><ele>469.0</ele><time>2026-04-18T13:47:46Z</time></trkpt><trkpt lat="43.405115840404285" lon="10.627466176523134"><ele>469.0</ele><time>2026-04-18T13:47:47Z</time></trkpt><trkpt lat="43.40522819628682" lon="10.627517472986572"><ele>469.0</ele><time>2026-04-18T13:47:48Z</time></trkpt><trkpt lat="43.40532586436162" lon="10.627554470719472"><ele>469.0</ele><time>2026-04-18T13:47:49Z</time></trkpt><trkpt lat="43.40541414281114" lon="10.627583512760859"><ele>469.0</ele><time>2026-04-18T13:47:50Z</time></trkpt><trkpt lat="43.40543564369438" lon="10.627909251311426"><ele>469.0</ele><time>2026-04-18T13:47:51Z</time></trkpt><trkpt lat="43.405476082171255" lon="10.628100263505553"><ele>465.79999999999995</ele><time>2026-04-18T13:47:52Z</time></trkpt><trkpt lat="43.405526432743216" lon="10.6282684191673"><ele>462.59999999999997</ele><time>2026-04-18T13:47:53Z</time></trkpt><trkpt lat="43.40558387008837" lon="10.628397116592303"><ele>459.4</ele><time>2026-04-18T13:47:54Z</time></trkpt><trkpt lat="43.40565309058444" lon="10.628470323430733"><ele>456.2</ele><time>2026-04-18T13:47:55Z</time></trkpt><trkpt lat="43.405731756694394" lon="10.628505270722723"><ele>453.0</ele><time>2026-04-18T13:47:56Z</time></trkpt><trkpt lat="43.40580445787387" lon="10.628513085344885"><ele>453.0</ele><time>2026-04-18T13:47:57Z</time></trkpt><trkpt lat="43.40590887752166" lon="10.62854237710814"><ele>453.0</ele><time>2026-04-18T13:47:58Z</time></trkpt><trkpt lat="43.40603047600979" lon="10.628572519959913"><ele>453.0</ele><time>2026-04-18T13:47:59Z</time></trkpt><trkpt lat="43.40617103756037" lon="10.628603353435839"><ele>453.0</ele><time>2026-04-18T13:48:00Z</time></trkpt><trkpt lat="43.40630705833901" lon="10.628636863548387"><ele>449.75</ele><time>2026-04-18T13:48:01Z</time></trkpt><trkpt lat="43.40642941956683" lon="10.628671920003331"><ele>446.5</ele><time>2026-04-18T13:48:02Z</time></trkpt><trkpt lat="43.406542506294095" lon="10.628721651896882"><ele>443.25</ele><time>2026-04-18T13:48:03Z</time></trkpt><trkpt lat="43.40663525288101" lon="10.628797191134552"><ele>440.0</ele><time>2026-04-18T13:48:04Z</time></trkpt><trkpt lat="43.40671131887313" lon="10.628912650289998"><ele>440.0</ele><time>2026-04-18T13:48:05Z</time></trkpt><trkpt lat="43.406791589775324" lon="10.629069440745912"><ele>440.0</ele><time>2026-04-18T13:48:06Z</time></trkpt><trkpt lat="43.40688051747783" lon="10.62923950922897"><ele>440.0</ele><time>2026-04-18T13:48:07Z</time></trkpt><trkpt lat="43.40698117772152" lon="10.629406047039385"><ele>440.0</ele><time>2026-04-18T13:48:08Z</time></trkpt><trkpt lat="43.4070785095046" lon="10.629568565402694"><ele>436.0</ele><time>2026-04-18T13:48:09Z</time></trkpt><trkpt lat="43.40717824948377" lon="10.629735498396"><ele>432.0</ele><time>2026-04-18T13:48:10Z</time></trkpt><trkpt lat="43.40728475522668" lon="10.629905172452435"><ele>428.0</ele><time>2026-04-18T13:48:11Z</time></trkpt><trkpt lat="43.40740009896875" lon="10.630089734828125"><ele>428.0</ele><time>2026-04-18T13:48:12Z</time></trkpt><trkpt lat="43.407506088074754" lon="10.630264214049799"><ele>428.0</ele><time>2026-04-18T13:48:13Z</time></trkpt><trkpt lat="43.407613277855724" lon="10.630443724464149"><ele>428.0</ele><time>2026-04-18T13:48:14Z</time></trkpt><trkpt lat="43.40772187435878" lon="10.63061559805814"><ele>428.5</ele><time>2026-04-18T13:48:15Z</time></trkpt><trkpt lat="43.407804708840466" lon="10.63075880848211"><ele>429.0</ele><time>2026-04-18T13:48:16Z</time></trkpt><trkpt lat="43.407894626732784" lon="10.63092174372428"><ele>429.5</ele><time>2026-04-18T13:48:17Z</time></trkpt><trkpt lat="43.40796702090363" lon="10.631074724955967"><ele>430.0</ele><time>2026-04-18T13:48:18Z</time></trkpt><trkpt lat="43.408037536079966" lon="10.63120465334718"><ele>427.5</ele><time>2026-04-18T13:48:19Z</time></trkpt><trkpt lat="43.40813915297016" lon="10.631318787911614"><ele>425.0</ele><time>2026-04-18T13:48:20Z</time></trkpt><trkpt lat="43.40826649084579" lon="10.631415796059386"><ele>422.5</ele><time>2026-04-18T13:48:21Z</time></trkpt><trkpt lat="43.408410194898906" lon="10.631507652529157"><ele>420.0</ele><time>2026-04-18T13:48:22Z</time></trkpt><trkpt lat="43.408551898745976" lon="10.631609999238634"><ele>420.0</ele><time>2026-04-18T13:48:23Z</time></trkpt><trkpt lat="43.40866832309415" lon="10.631700216974368"><ele>420.0</ele><time>2026-04-18T13:48:24Z</time></trkpt><trkpt lat="43.40878177975969" lon="10.631760159775759"><ele>420.0</ele><time>2026-04-18T13:48:25Z</time></trkpt><trkpt lat="43.408910496262614" lon="10.631779027940263"><ele>420.0</ele><time>2026-04-18T13:48:26Z</time></trkpt><trkpt lat="43.40904735310857" lon="10.631742549122778"><ele>415.66666666666663</ele><time>2026-04-18T13:48:27.001Z</time></trkpt><trkpt lat="43.409197601678066" lon="10.631688816477439"><ele>411.3333333333333</ele><time>2026-04-18T13:48:28.001Z</time></trkpt><trkpt lat="43.409356032241526" lon="10.631636873432031"><ele>407.0</ele><time>2026-04-18T13:48:29.001Z</time></trkpt><trkpt lat="43.40950800295991" lon="10.631600663671314"><ele>407.0</ele><time>2026-04-18T13:48:30.001Z</time></trkpt><trkpt lat="43.40964537979294" lon="10.631557979064082"><ele>407.0</ele><time>2026-04-18T13:48:31.001Z</time></trkpt><trkpt lat="43.409770567541145" lon="10.631529829027004"><ele>407.0</ele><time>2026-04-18T13:48:32.001Z</time></trkpt><trkpt lat="43.409871564547366" lon="10.631544971563113"><ele>407.0</ele><time>2026-04-18T13:48:33.001Z</time></trkpt><trkpt lat="43.409950392760855" lon="10.63162184069512"><ele>406.0</ele><time>2026-04-18T13:48:34.001Z</time></trkpt><trkpt lat="43.41000910096127" lon="10.63175011042558"><ele>405.0</ele><time>2026-04-18T13:48:35.001Z</time></trkpt><trkpt lat="43.41006428205119" lon="10.631909483970919"><ele>404.0</ele><time>2026-04-18T13:48:36.001Z</time></trkpt><trkpt lat="43.410123675990384" lon="10.632087509160554"><ele>403.0</ele><time>2026-04-18T13:48:37.001Z</time></trkpt><trkpt lat="43.41018081287473" lon="10.632260640757819"><ele>403.0</ele><time>2026-04-18T13:48:38.001Z</time></trkpt><trkpt lat="43.41024008303623" lon="10.632409997886162"><ele>403.0</ele><time>2026-04-18T13:48:38.998Z</time></trkpt><trkpt lat="43.41031358992814" lon="10.632538475284877"><ele>403.0</ele><time>2026-04-18T13:48:39.998Z</time></trkpt><trkpt lat="43.41042171320038" lon="10.632625885947977"><ele>403.0</ele><time>2026-04-18T13:48:40.998Z</time></trkpt><trkpt lat="43.41055818541499" lon="10.632692256318446"><ele>397.33333333333337</ele><time>2026-04-18T13:48:41.998Z</time></trkpt><trkpt lat="43.410722812317914" lon="10.632746587599819"><ele>391.66666666666663</ele><time>2026-04-18T13:48:42.998Z</time></trkpt><trkpt lat="43.41087712262428" lon="10.632809367593483"><ele>386.0</ele><time>2026-04-18T13:48:43.998Z</time></trkpt><trkpt lat="43.4110067393288" lon="10.632895363224204"><ele>386.0</ele><time>2026-04-18T13:48:44.998Z</time></trkpt><trkpt lat="43.41109694701377" lon="10.633014095272328"><ele>386.0</ele><time>2026-04-18T13:48:45.998Z</time></trkpt><trkpt lat="43.41115443581973" lon="10.633183765785079"><ele>386.0</ele><time>2026-04-18T13:48:46.998Z</time></trkpt><trkpt lat="43.41120636222806" lon="10.63337545456916"><ele>386.0</ele><time>2026-04-18T13:48:47.998Z</time></trkpt><trkpt lat="43.41125712204716" lon="10.63357767240238"><ele>387.0</ele><time>2026-04-18T13:48:48.998Z</time></trkpt><trkpt lat="43.41131147692921" lon="10.633750408868762"><ele>388.0</ele><time>2026-04-18T13:48:49.998Z</time></trkpt><trkpt lat="43.41136204268699" lon="10.633913378680672"><ele>389.0</ele><time>2026-04-18T13:48:50.998Z</time></trkpt><trkpt lat="43.41139524517178" lon="10.63409994280596"><ele>390.0</ele><time>2026-04-18T13:48:51.998Z</time></trkpt><trkpt lat="43.411428835189604" lon="10.634323707587969"><ele>387.0</ele><time>2026-04-18T13:48:52.998Z</time></trkpt><trkpt lat="43.411480702882734" lon="10.634536902572268"><ele>384.0</ele><time>2026-04-18T13:48:53.998Z</time></trkpt><trkpt lat="43.41156246498816" lon="10.634717699326506"><ele>381.0</ele><time>2026-04-18T13:48:54.999Z</time></trkpt><trkpt lat="43.41166038625691" lon="10.634898004498515"><ele>381.0</ele><time>2026-04-18T13:48:55.999Z</time></trkpt><trkpt lat="43.411748306915015" lon="10.635071936969824"><ele>381.0</ele><time>2026-04-18T13:48:56.999Z</time></trkpt><trkpt lat="43.41181730271271" lon="10.63520932340364"><ele>381.0</ele><time>2026-04-18T13:48:57.999Z</time></trkpt><trkpt lat="43.41186218113956" lon="10.635301548360479"><ele>381.0</ele><time>2026-04-18T13:48:58.999Z</time></trkpt><trkpt lat="43.411900053367674" lon="10.63541098010342"><ele>381.0</ele><time>2026-04-18T13:48:59.999Z</time></trkpt><trkpt lat="43.41191679044272" lon="10.635547103893643"><ele>381.75</ele><time>2026-04-18T13:49:00.999Z</time></trkpt><trkpt lat="43.411920615999186" lon="10.635709540097642"><ele>382.5</ele><time>2026-04-18T13:49:01.999Z</time></trkpt><trkpt lat="43.41192711812326" lon="10.635884196184099"><ele>383.25</ele><time>2026-04-18T13:49:02.999Z</time></trkpt><trkpt lat="43.41195931123538" lon="10.636055203808336"><ele>384.0</ele><time>2026-04-18T13:49:03.999Z</time></trkpt><trkpt lat="43.41199555358531" lon="10.636196526348868"><ele>384.0</ele><time>2026-04-18T13:49:04.999Z</time></trkpt><trkpt lat="43.41204871747354" lon="10.636337844937296"><ele>384.0</ele><time>2026-04-18T13:49:05.999Z</time></trkpt><trkpt lat="43.412126854775686" lon="10.636489036415817"><ele>384.0</ele><time>2026-04-18T13:49:06.999Z</time></trkpt><trkpt lat="43.41222077007729" lon="10.636635614079252"><ele>384.0</ele><time>2026-04-18T13:49:07.999Z</time></trkpt><trkpt lat="43.41232768212499" lon="10.636777655270734"><ele>380.6666666666667</ele><time>2026-04-18T13:49:08.999Z</time></trkpt><trkpt lat="43.41244800473852" lon="10.636942918921239"><ele>377.33333333333337</ele><time>2026-04-18T13:49:09.999Z</time></trkpt><trkpt lat="43.412571350587925" lon="10.637128313524823"><ele>374.0</ele><time>2026-04-18T13:49:10.999Z</time></trkpt><trkpt lat="43.41268411798284" lon="10.637310432874244"><ele>373.0</ele><time>2026-04-18T13:49:11.999Z</time></trkpt><trkpt lat="43.412786685752856" lon="10.63747844219344"><ele>372.0</ele><time>2026-04-18T13:49:12.999Z</time></trkpt><trkpt lat="43.41288239364976" lon="10.637625593765492"><ele>371.0</ele><time>2026-04-18T13:49:13.999Z</time></trkpt><trkpt lat="43.4129660080004" lon="10.63773114632185"><ele>370.0</ele><time>2026-04-18T13:49:14.999Z</time></trkpt><trkpt lat="43.413044959386376" lon="10.637775773689942"><ele>369.0</ele><time>2026-04-18T13:49:15.999Z</time></trkpt><trkpt lat="43.413124988028564" lon="10.637788057706704"><ele>368.0</ele><time>2026-04-18T13:49:16.999Z</time></trkpt><trkpt lat="43.413206268159" lon="10.637788988883855"><ele>367.0</ele><time>2026-04-18T13:49:17.999Z</time></trkpt><trkpt lat="43.41329363800875" lon="10.637801027849104"><ele>366.0</ele><time>2026-04-18T13:49:18.999Z</time></trkpt><trkpt lat="43.41337539292434" lon="10.637834032854176"><ele>365.0</ele><time>2026-04-18T13:49:19.999Z</time></trkpt><trkpt lat="43.413439764551704" lon="10.637875194231395"><ele>364.0</ele><time>2026-04-18T13:49:20.999Z</time></trkpt><trkpt lat="43.413536867404055" lon="10.637914370175803"><ele>364.25</ele><time>2026-04-18T13:49:21.999Z</time></trkpt><trkpt lat="43.41360526654607" lon="10.637941810265389"><ele>364.5</ele><time>2026-04-18T13:49:22.999Z</time></trkpt><trkpt lat="43.41372913931828" lon="10.638044656880096"><ele>364.75</ele><time>2026-04-18T13:49:35Z</time></trkpt><trkpt lat="43.4138158114405" lon="10.638139725909962"><ele>365.0</ele><time>2026-04-18T13:49:36Z</time></trkpt><trkpt lat="43.4139220286514" lon="10.638238012216892"><ele>365.0</ele><time>2026-04-18T13:49:37Z</time></trkpt><trkpt lat="43.41404690730071" lon="10.638319401508795"><ele>365.0</ele><time>2026-04-18T13:49:38Z</time></trkpt><trkpt lat="43.414167731994496" lon="10.638375994002793"><ele>365.0</ele><time>2026-04-18T13:49:39Z</time></trkpt><trkpt lat="43.41427519706217" lon="10.638435874952997"><ele>365.0</ele><time>2026-04-18T13:49:40Z</time></trkpt><trkpt lat="43.41434787102263" lon="10.63855748632829"><ele>363.5</ele><time>2026-04-18T13:49:41Z</time></trkpt><trkpt lat="43.41441714659524" lon="10.63869698185757"><ele>362.0</ele><time>2026-04-18T13:49:42Z</time></trkpt><trkpt lat="43.4145042932401" lon="10.638820916472477"><ele>360.5</ele><time>2026-04-18T13:49:43Z</time></trkpt><trkpt lat="43.41459488867516" lon="10.638935740906774"><ele>359.0</ele><time>2026-04-18T13:49:44Z</time></trkpt><trkpt lat="43.41470374119933" lon="10.638990410426985"><ele>359.0</ele><time>2026-04-18T13:49:45Z</time></trkpt><trkpt lat="43.41480506627494" lon="10.63906453121159"><ele>359.0</ele><time>2026-04-18T13:49:46Z</time></trkpt><trkpt lat="43.41492055191557" lon="10.6391501146899"><ele>359.0</ele><time>2026-04-18T13:49:47Z</time></trkpt><trkpt lat="43.41504399002595" lon="10.639243327480305"><ele>359.0</ele><time>2026-04-18T13:49:48Z</time></trkpt><trkpt lat="43.4151742384651" lon="10.639348186142259"><ele>360.5</ele><time>2026-04-18T13:49:49Z</time></trkpt><trkpt lat="43.41529985011032" lon="10.639468515413824"><ele>362.0</ele><time>2026-04-18T13:49:50Z</time></trkpt><trkpt lat="43.41539470255343" lon="10.639602517818616"><ele>363.5</ele><time>2026-04-18T13:49:51Z</time></trkpt><trkpt lat="43.41549506048067" lon="10.63975343624703"><ele>365.0</ele><time>2026-04-18T13:49:52Z</time></trkpt><trkpt lat="43.41560045307737" lon="10.639876009289068"><ele>365.0</ele><time>2026-04-18T13:49:53Z</time></trkpt><trkpt lat="43.41572710335977" lon="10.639967804453526"><ele>365.0</ele><time>2026-04-18T13:49:54Z</time></trkpt><trkpt lat="43.415853352605865" lon="10.640031940871344"><ele>365.0</ele><time>2026-04-18T13:49:55Z</time></trkpt><trkpt lat="43.41597820477756" lon="10.64012084513388"><ele>365.0</ele><time>2026-04-18T13:49:56Z</time></trkpt><trkpt lat="43.416112956368416" lon="10.640159376392136"><ele>365.0</ele><time>2026-04-18T13:49:57Z</time></trkpt><trkpt lat="43.416241191187716" lon="10.640191405397696"><ele>365.0</ele><time>2026-04-18T13:49:58Z</time></trkpt><trkpt lat="43.4163806550978" lon="10.64020478655931"><ele>365.0</ele><time>2026-04-18T13:49:59Z</time></trkpt><trkpt lat="43.41649756509375" lon="10.640230180385782"><ele>365.0</ele><time>2026-04-18T13:50:00Z</time></trkpt><trkpt lat="43.416611379399704" lon="10.640276715217487"><ele>367.4</ele><time>2026-04-18T13:50:01Z</time></trkpt><trkpt lat="43.41668559922161" lon="10.640352325305763"><ele>369.8</ele><time>2026-04-18T13:50:02Z</time></trkpt><trkpt lat="43.41674372901265" lon="10.64043790667712"><ele>372.20000000000005</ele><time>2026-04-18T13:50:03Z</time></trkpt><trkpt lat="43.41681544863903" lon="10.640546617049466"><ele>374.6</ele><time>2026-04-18T13:50:04Z</time></trkpt><trkpt lat="43.4169305811436" lon="10.640691619877968"><ele>377.0</ele><time>2026-04-18T13:50:05Z</time></trkpt><trkpt lat="43.417044828168436" lon="10.640832591987877"><ele>373.33333333333337</ele><time>2026-04-18T13:50:06Z</time></trkpt><trkpt lat="43.41717767067126" lon="10.640995423762197"><ele>369.6666666666667</ele><time>2026-04-18T13:50:07Z</time></trkpt><trkpt lat="43.417317298982525" lon="10.641162290664424"><ele>366.0</ele><time>2026-04-18T13:50:08Z</time></trkpt><trkpt lat="43.41744569782715" lon="10.641328817541364"><ele>365.6666666666667</ele><time>2026-04-18T13:50:09Z</time></trkpt><trkpt lat="43.417561983680564" lon="10.641469583784902"><ele>365.33333333333337</ele><time>2026-04-18T13:50:10Z</time></trkpt><trkpt lat="43.4176797164762" lon="10.641617728850907"><ele>365.0</ele><time>2026-04-18T13:50:11Z</time></trkpt><trkpt lat="43.4177909905207" lon="10.641761884869108"><ele>365.0</ele><time>2026-04-18T13:50:12Z</time></trkpt><trkpt lat="43.41789470624826" lon="10.64193260881243"><ele>365.0</ele><time>2026-04-18T13:50:13Z</time></trkpt><trkpt lat="43.41797861090846" lon="10.6420587812077"><ele>365.0</ele><time>2026-04-18T13:50:14Z</time></trkpt><trkpt lat="43.418103525189295" lon="10.642174106236025"><ele>365.0</ele><time>2026-04-18T13:50:15Z</time></trkpt><trkpt lat="43.41821750671153" lon="10.642260121073727"><ele>365.75</ele><time>2026-04-18T13:50:16Z</time></trkpt><trkpt lat="43.418338851630665" lon="10.642372547855942"><ele>366.5</ele><time>2026-04-18T13:50:17Z</time></trkpt><trkpt lat="43.41844667478284" lon="10.642496653452355"><ele>367.25</ele><time>2026-04-18T13:50:18Z</time></trkpt><trkpt lat="43.41856890666076" lon="10.642605627271646"><ele>368.0</ele><time>2026-04-18T13:50:19Z</time></trkpt><trkpt lat="43.41870896121655" lon="10.64269955201153"><ele>370.0</ele><time>2026-04-18T13:50:20Z</time></trkpt><trkpt lat="43.41884288983624" lon="10.64279055855593"><ele>372.0</ele><time>2026-04-18T13:50:21Z</time></trkpt><trkpt lat="43.41897291104284" lon="10.642900708258862"><ele>374.0</ele><time>2026-04-18T13:50:22Z</time></trkpt><trkpt lat="43.4190827000483" lon="10.643002340717691"><ele>376.0</ele><time>2026-04-18T13:50:23Z</time></trkpt><trkpt lat="43.41918542267181" lon="10.643096451614317"><ele>376.0</ele><time>2026-04-18T13:50:24Z</time></trkpt><trkpt lat="43.419297421951406" lon="10.643166722801666"><ele>376.0</ele><time>2026-04-18T13:50:25Z</time></trkpt><trkpt lat="43.41941502538541" lon="10.643231863305969"><ele>376.0</ele><time>2026-04-18T13:50:26Z</time></trkpt><trkpt lat="43.41952929318196" lon="10.643295607458573"><ele>376.0</ele><time>2026-04-18T13:50:27Z</time></trkpt><trkpt lat="43.41962398281189" lon="10.643344004631206"><ele>376.8</ele><time>2026-04-18T13:50:28Z</time></trkpt><trkpt lat="43.419688350432395" lon="10.64341252158682"><ele>377.6</ele><time>2026-04-18T13:50:29Z</time></trkpt><trkpt lat="43.41974364980484" lon="10.643504235984562"><ele>378.4</ele><time>2026-04-18T13:50:30Z</time></trkpt><trkpt lat="43.419806243816986" lon="10.643617293804134"><ele>379.2</ele><time>2026-04-18T13:50:31Z</time></trkpt><trkpt lat="43.41987274637094" lon="10.643748336022025"><ele>380.0</ele><time>2026-04-18T13:50:32Z</time></trkpt><trkpt lat="43.41996459327435" lon="10.643892158527708"><ele>380.0</ele><time>2026-04-18T13:50:33Z</time></trkpt><trkpt lat="43.42007221371777" lon="10.644048110240288"><ele>380.0</ele><time>2026-04-18T13:50:34Z</time></trkpt><trkpt lat="43.42019590878415" lon="10.644197189070843"><ele>380.0</ele><time>2026-04-18T13:50:35Z</time></trkpt><trkpt lat="43.42030896784827" lon="10.644347778477874"><ele>380.0</ele><time>2026-04-18T13:50:36Z</time></trkpt><trkpt lat="43.42041759489031" lon="10.644462853900288"><ele>380.0</ele><time>2026-04-18T13:50:37Z</time></trkpt><trkpt lat="43.420543744199314" lon="10.644565033483987"><ele>380.0</ele><time>2026-04-18T13:50:38Z</time></trkpt><trkpt lat="43.42068088868696" lon="10.644655277176996"><ele>380.0</ele><time>2026-04-18T13:50:39Z</time></trkpt><trkpt lat="43.420812235311224" lon="10.644758730889274"><ele>377.6666666666667</ele><time>2026-04-18T13:50:40Z</time></trkpt><trkpt lat="43.42093613856412" lon="10.644887987469827"><ele>375.3333333333333</ele><time>2026-04-18T13:50:41Z</time></trkpt><trkpt lat="43.42105439493711" lon="10.645032513855606"><ele>373.0</ele><time>2026-04-18T13:50:42Z</time></trkpt><trkpt lat="43.42118107967491" lon="10.64517157531047"><ele>371.0</ele><time>2026-04-18T13:50:43Z</time></trkpt><trkpt lat="43.42130211784765" lon="10.64529948549202"><ele>369.0</ele><time>2026-04-18T13:50:44Z</time></trkpt><trkpt lat="43.42142581889546" lon="10.645422335220271"><ele>367.0</ele><time>2026-04-18T13:50:44.998Z</time></trkpt><trkpt lat="43.42155099519665" lon="10.645540924290758"><ele>367.0</ele><time>2026-04-18T13:50:45.998Z</time></trkpt><trkpt lat="43.421684299405605" lon="10.645644039439341"><ele>367.0</ele><time>2026-04-18T13:50:46.998Z</time></trkpt><trkpt lat="43.42180889465035" lon="10.645726781522072"><ele>367.0</ele><time>2026-04-18T13:50:47.998Z</time></trkpt><trkpt lat="43.42192310797787" lon="10.645795387696138"><ele>367.0</ele><time>2026-04-18T13:50:48.998Z</time></trkpt><trkpt lat="43.4220384555874" lon="10.645866029437965"><ele>365.25</ele><time>2026-04-18T13:50:49.998Z</time></trkpt><trkpt lat="43.422150529972605" lon="10.645929307442174"><ele>363.5</ele><time>2026-04-18T13:50:50.998Z</time></trkpt><trkpt lat="43.422270976423064" lon="10.64597636893527"><ele>361.75</ele><time>2026-04-18T13:50:51.998Z</time></trkpt><trkpt lat="43.422382070164865" lon="10.646016727659061"><ele>360.0</ele><time>2026-04-18T13:50:52.998Z</time></trkpt><trkpt lat="43.422488212270245" lon="10.646070049370405"><ele>356.0</ele><time>2026-04-18T13:50:53.998Z</time></trkpt><trkpt lat="43.42259530981086" lon="10.646156662430077"><ele>352.0</ele><time>2026-04-18T13:50:54.998Z</time></trkpt><trkpt lat="43.42270449007977" lon="10.646255482578075"><ele>348.0</ele><time>2026-04-18T13:50:55.998Z</time></trkpt><trkpt lat="43.42282507970077" lon="10.6463554149212"><ele>344.0</ele><time>2026-04-18T13:50:56.998Z</time></trkpt><trkpt lat="43.422936917005146" lon="10.646418866843163"><ele>344.5</ele><time>2026-04-18T13:50:57.998Z</time></trkpt><trkpt lat="43.42304772881824" lon="10.646490479127046"><ele>345.0</ele><time>2026-04-18T13:50:58.999Z</time></trkpt><trkpt lat="43.423158546500474" lon="10.646560386973835"><ele>345.5</ele><time>2026-04-18T13:50:59.999Z</time></trkpt><trkpt lat="43.423278890603626" lon="10.646633547900667"><ele>346.0</ele><time>2026-04-18T13:51:00.999Z</time></trkpt><trkpt lat="43.42340694605484" lon="10.646701084133976"><ele>346.0</ele><time>2026-04-18T13:51:01.999Z</time></trkpt><trkpt lat="43.42353719928984" lon="10.646759339898875"><ele>346.0</ele><time>2026-04-18T13:51:02.999Z</time></trkpt><trkpt lat="43.423658464471515" lon="10.646817039531697"><ele>346.0</ele><time>2026-04-18T13:51:03.999Z</time></trkpt><trkpt lat="43.4237724308439" lon="10.646863387169732"><ele>346.0</ele><time>2026-04-18T13:51:04.999Z</time></trkpt><trkpt lat="43.42388850922805" lon="10.64691174892045"><ele>339.5</ele><time>2026-04-18T13:51:05.999Z</time></trkpt><trkpt lat="43.42400130190649" lon="10.64696299598468"><ele>333.0</ele><time>2026-04-18T13:51:06.999Z</time></trkpt><trkpt lat="43.4241039297629" lon="10.647025988443758"><ele>326.5</ele><time>2026-04-18T13:51:07.999Z</time></trkpt><trkpt lat="43.424196291655186" lon="10.647090579349793"><ele>320.0</ele><time>2026-04-18T13:51:08.999Z</time></trkpt><trkpt lat="43.424289104385075" lon="10.647197276803166"><ele>320.0</ele><time>2026-04-18T13:51:09.999Z</time></trkpt><trkpt lat="43.42437942094684" lon="10.647303934711347"><ele>320.0</ele><time>2026-04-18T13:51:10.999Z</time></trkpt><trkpt lat="43.42447224817985" lon="10.647397422968858"><ele>320.0</ele><time>2026-04-18T13:51:11.999Z</time></trkpt><trkpt lat="43.42456331866841" lon="10.64749226136642"><ele>320.0</ele><time>2026-04-18T13:51:12.999Z</time></trkpt><trkpt lat="43.42466260946258" lon="10.647610763250704"><ele>319.75</ele><time>2026-04-18T13:51:13.999Z</time></trkpt><trkpt lat="43.424763872853745" lon="10.64772712018144"><ele>319.5</ele><time>2026-04-18T13:51:14.999Z</time></trkpt><trkpt lat="43.424852037619246" lon="10.64786075916049"><ele>319.25</ele><time>2026-04-18T13:51:15.999Z</time></trkpt><trkpt lat="43.42491390042282" lon="10.648005570874563"><ele>319.0</ele><time>2026-04-18T13:51:16.999Z</time></trkpt><trkpt lat="43.42494212728568" lon="10.648183158311783"><ele>315.75</ele><time>2026-04-18T13:51:17.999Z</time></trkpt><trkpt lat="43.424940655315986" lon="10.64838346981078"><ele>312.5</ele><time>2026-04-18T13:51:18.999Z</time></trkpt><trkpt lat="43.424935543809916" lon="10.648591386519813"><ele>309.25</ele><time>2026-04-18T13:51:19.999Z</time></trkpt><trkpt lat="43.42493440241728" lon="10.64876250334488"><ele>306.0</ele><time>2026-04-18T13:51:20.999Z</time></trkpt><trkpt lat="43.424947955733515" lon="10.648904024729932"><ele>305.5</ele><time>2026-04-18T13:51:21.999Z</time></trkpt><trkpt lat="43.424985320632395" lon="10.649045890146038"><ele>305.0</ele><time>2026-04-18T13:51:22.999Z</time></trkpt><trkpt lat="43.42504944264103" lon="10.64919792427021"><ele>304.5</ele><time>2026-04-18T13:51:23.999Z</time></trkpt><trkpt lat="43.42513734274267" lon="10.649295202066396"><ele>304.0</ele><time>2026-04-18T13:51:24.999Z</time></trkpt><trkpt lat="43.425235410585685" lon="10.649422510786145"><ele>303.4</ele><time>2026-04-18T13:51:25.999Z</time></trkpt><trkpt lat="43.42531399412236" lon="10.649515434794607"><ele>302.79999999999995</ele><time>2026-04-18T13:51:26.999Z</time></trkpt><trkpt lat="43.42537701143001" lon="10.649626965073683"><ele>302.20000000000005</ele><time>2026-04-18T13:51:27.999Z</time></trkpt><trkpt lat="43.4254217212985" lon="10.649742245227186"><ele>301.6</ele><time>2026-04-18T13:51:29Z</time></trkpt><trkpt lat="43.425441797283256" lon="10.649862325318535"><ele>301.0</ele><time>2026-04-18T13:51:30Z</time></trkpt><trkpt lat="43.42543424751581" lon="10.650008009304708"><ele>301.0</ele><time>2026-04-18T13:51:31Z</time></trkpt><trkpt lat="43.42539946172288" lon="10.650126998678138"><ele>301.0</ele><time>2026-04-18T13:51:32Z</time></trkpt><trkpt lat="43.4253522682503" lon="10.650271453425635"><ele>301.0</ele><time>2026-04-18T13:51:33Z</time></trkpt><trkpt lat="43.42532782024347" lon="10.650393495471674"><ele>301.0</ele><time>2026-04-18T13:51:34Z</time></trkpt><trkpt lat="43.42532831080255" lon="10.650536257676528"><ele>301.0</ele><time>2026-04-18T13:51:35Z</time></trkpt><trkpt lat="43.4253350878448" lon="10.650665986145953"><ele>298.2</ele><time>2026-04-18T13:51:36Z</time></trkpt><trkpt lat="43.42535615295402" lon="10.65080783621983"><ele>295.40000000000003</ele><time>2026-04-18T13:51:37Z</time></trkpt><trkpt lat="43.425387743049775" lon="10.650977643252567"><ele>292.6</ele><time>2026-04-18T13:51:38Z</time></trkpt><trkpt lat="43.42541899646939" lon="10.651127311939696"><ele>289.8</ele><time>2026-04-18T13:51:39Z</time></trkpt><trkpt lat="43.42546413207493" lon="10.651251668958913"><ele>287.0</ele><time>2026-04-18T13:51:40Z</time></trkpt><trkpt lat="43.42553770768645" lon="10.651361423074038"><ele>282.5</ele><time>2026-04-18T13:51:41Z</time></trkpt><trkpt lat="43.425629302957" lon="10.651455356307741"><ele>278.0</ele><time>2026-04-18T13:51:42Z</time></trkpt><trkpt lat="43.4257395867302" lon="10.65152884369906"><ele>273.5</ele><time>2026-04-18T13:51:43Z</time></trkpt><trkpt lat="43.425852726209605" lon="10.651601252438436"><ele>269.0</ele><time>2026-04-18T13:51:44Z</time></trkpt><trkpt lat="43.42595457344151" lon="10.651667811212155"><ele>269.0</ele><time>2026-04-18T13:51:45Z</time></trkpt><trkpt lat="43.42604873941782" lon="10.651732903546964"><ele>269.0</ele><time>2026-04-18T13:51:46Z</time></trkpt><trkpt lat="43.426114802522896" lon="10.651785921496744"><ele>269.0</ele><time>2026-04-18T13:51:47Z</time></trkpt><trkpt lat="43.42617180480636" lon="10.651839649797633"><ele>269.0</ele><time>2026-04-18T13:51:48Z</time></trkpt><trkpt lat="43.42622693796288" lon="10.651907631544722"><ele>269.0</ele><time>2026-04-18T13:51:49Z</time></trkpt><trkpt lat="43.42628888255041" lon="10.652010312351374"><ele>269.0</ele><time>2026-04-18T13:51:50Z</time></trkpt><trkpt lat="43.42635662919053" lon="10.652110208941428"><ele>265.59999999999997</ele><time>2026-04-18T13:51:51Z</time></trkpt><trkpt lat="43.42643953306135" lon="10.652206448790162"><ele>262.2</ele><time>2026-04-18T13:51:52Z</time></trkpt><trkpt lat="43.426528602170315" lon="10.652279826856638"><ele>258.79999999999995</ele><time>2026-04-18T13:51:53Z</time></trkpt><trkpt lat="43.42661516819798" lon="10.652335463197824"><ele>255.39999999999998</ele><time>2026-04-18T13:51:54Z</time></trkpt><trkpt lat="43.4266985968054" lon="10.65237652337201"><ele>252.0</ele><time>2026-04-18T13:51:55Z</time></trkpt><trkpt lat="43.426789343910265" lon="10.652398292288145"><ele>252.0</ele><time>2026-04-18T13:51:56Z</time></trkpt><trkpt lat="43.426889380705624" lon="10.652404658491708"><ele>252.0</ele><time>2026-04-18T13:51:57Z</time></trkpt><trkpt lat="43.42699636670748" lon="10.652414468369578"><ele>252.0</ele><time>2026-04-18T13:51:58Z</time></trkpt><trkpt lat="43.427095589803734" lon="10.652448019971537"><ele>252.0</ele><time>2026-04-18T13:51:59Z</time></trkpt><trkpt lat="43.427191457719324" lon="10.65250103604498"><ele>252.0</ele><time>2026-04-18T13:52:00Z</time></trkpt><trkpt lat="43.427291171856375" lon="10.652565108608213"><ele>250.0</ele><time>2026-04-18T13:52:01Z</time></trkpt><trkpt lat="43.427383041399324" lon="10.652627326114898"><ele>248.0</ele><time>2026-04-18T13:52:02Z</time></trkpt><trkpt lat="43.427473905742026" lon="10.652700863154362"><ele>246.0</ele><time>2026-04-18T13:52:03Z</time></trkpt><trkpt lat="43.42754583177215" lon="10.652789678410702"><ele>244.0</ele><time>2026-04-18T13:52:04Z</time></trkpt><trkpt lat="43.42761887661552" lon="10.652910786120788"><ele>242.0</ele><time>2026-04-18T13:52:05Z</time></trkpt><trkpt lat="43.42765672740441" lon="10.653040808732179"><ele>240.39999999999998</ele><time>2026-04-18T13:52:06Z</time></trkpt><trkpt lat="43.42766311924074" lon="10.653177972425869"><ele>238.79999999999998</ele><time>2026-04-18T13:52:07Z</time></trkpt><trkpt lat="43.427643532336525" lon="10.653315635558435"><ele>237.2</ele><time>2026-04-18T13:52:08Z</time></trkpt><trkpt lat="43.42760576099066" lon="10.653471262872214"><ele>235.6</ele><time>2026-04-18T13:52:09Z</time></trkpt><trkpt lat="43.42755510934685" lon="10.653611794275125"><ele>234.0</ele><time>2026-04-18T13:52:10Z</time></trkpt><trkpt lat="43.42747526817071" lon="10.653744712674312"><ele>231.6</ele><time>2026-04-18T13:52:11Z</time></trkpt><trkpt lat="43.4273759908637" lon="10.653882392894783"><ele>229.2</ele><time>2026-04-18T13:52:12Z</time></trkpt><trkpt lat="43.42728775638314" lon="10.654002101547965"><ele>226.79999999999998</ele><time>2026-04-18T13:52:13Z</time></trkpt><trkpt lat="43.42724108777968" lon="10.654099301482775"><ele>224.39999999999998</ele><time>2026-04-18T13:52:14Z</time></trkpt><trkpt lat="43.4272099949453" lon="10.654190752524912"><ele>222.0</ele><time>2026-04-18T13:52:15Z</time></trkpt><trkpt lat="43.4271887585357" lon="10.654308018877792"><ele>222.0</ele><time>2026-04-18T13:52:16Z</time></trkpt><trkpt lat="43.42719368617" lon="10.654438095829768"><ele>222.0</ele><time>2026-04-18T13:52:17Z</time></trkpt><trkpt lat="43.42721788828938" lon="10.654573352797101"><ele>222.0</ele><time>2026-04-18T13:52:18Z</time></trkpt><trkpt lat="43.427265728355856" lon="10.65469901440698"><ele>222.0</ele><time>2026-04-18T13:52:19Z</time></trkpt><trkpt lat="43.427334773840734" lon="10.654790477428307"><ele>222.0</ele><time>2026-04-18T13:52:20Z</time></trkpt><trkpt lat="43.42741246174265" lon="10.654855422743143"><ele>219.0</ele><time>2026-04-18T13:52:21Z</time></trkpt><trkpt lat="43.42751339582255" lon="10.654910224047578"><ele>216.0</ele><time>2026-04-18T13:52:22Z</time></trkpt><trkpt lat="43.427633006894304" lon="10.65496807023888"><ele>213.0</ele><time>2026-04-18T13:52:23Z</time></trkpt><trkpt lat="43.42775772833775" lon="10.655030463413791"><ele>210.0</ele><time>2026-04-18T13:52:24Z</time></trkpt><trkpt lat="43.42789189617642" lon="10.655108595605524"><ele>209.0</ele><time>2026-04-18T13:52:25Z</time></trkpt><trkpt lat="43.42801565833186" lon="10.655173541490045"><ele>208.0</ele><time>2026-04-18T13:52:26Z</time></trkpt><trkpt lat="43.42813014162921" lon="10.655251229417416"><ele>207.0</ele><time>2026-04-18T13:52:27Z</time></trkpt><trkpt lat="43.42823593400187" lon="10.655334694146498"><ele>206.0</ele><time>2026-04-18T13:52:28Z</time></trkpt><trkpt lat="43.42833941413722" lon="10.655431419864106"><ele>203.0</ele><time>2026-04-18T13:52:29Z</time></trkpt><trkpt lat="43.42843187225323" lon="10.655532779267023"><ele>200.0</ele><time>2026-04-18T13:52:30Z</time></trkpt><trkpt lat="43.42852197400952" lon="10.655661385087067"><ele>197.0</ele><time>2026-04-18T13:52:31Z</time></trkpt><trkpt lat="43.4285917276346" lon="10.65579911610673"><ele>194.0</ele><time>2026-04-18T13:52:32Z</time></trkpt><trkpt lat="43.428648642921814" lon="10.655930435292287"><ele>194.0</ele><time>2026-04-18T13:52:33.001Z</time></trkpt><trkpt lat="43.428711293910304" lon="10.656039766422312"><ele>194.0</ele><time>2026-04-18T13:52:34.001Z</time></trkpt><trkpt lat="43.42878673921302" lon="10.656124151001222"><ele>194.0</ele><time>2026-04-18T13:52:35.001Z</time></trkpt><trkpt lat="43.428872256238066" lon="10.656187913060306"><ele>194.0</ele><time>2026-04-18T13:52:36.001Z</time></trkpt><trkpt lat="43.428966371811406" lon="10.656219505897772"><ele>194.0</ele><time>2026-04-18T13:52:37.001Z</time></trkpt><trkpt lat="43.42906348254792" lon="10.65623744351438"><ele>192.0</ele><time>2026-04-18T13:52:38.001Z</time></trkpt><trkpt lat="43.42916932410645" lon="10.656264032717965"><ele>190.0</ele><time>2026-04-18T13:52:39.001Z</time></trkpt><trkpt lat="43.42926407184165" lon="10.656322858680872"><ele>188.0</ele><time>2026-04-18T13:52:40.001Z</time></trkpt><trkpt lat="43.429344653132475" lon="10.656423242264976"><ele>186.0</ele><time>2026-04-18T13:52:41.001Z</time></trkpt><trkpt lat="43.42940831896854" lon="10.656514667601186"><ele>184.0</ele><time>2026-04-18T13:52:42.001Z</time></trkpt><trkpt lat="43.42945635509964" lon="10.656579454466428"><ele>184.0</ele><time>2026-04-18T13:52:43.001Z</time></trkpt><trkpt lat="43.42951357446623" lon="10.65662934846282"><ele>184.0</ele><time>2026-04-18T13:52:44.001Z</time></trkpt><trkpt lat="43.429593795644095" lon="10.656685186674428"><ele>184.0</ele><time>2026-04-18T13:52:45.001Z</time></trkpt><trkpt lat="43.42969990104023" lon="10.656751367735591"><ele>184.0</ele><time>2026-04-18T13:52:46.001Z</time></trkpt><trkpt lat="43.42982050076681" lon="10.656825266620412"><ele>184.0</ele><time>2026-04-18T13:52:47.001Z</time></trkpt><trkpt lat="43.429951954255245" lon="10.656909568612893"><ele>183.66666666666669</ele><time>2026-04-18T13:52:48.001Z</time></trkpt><trkpt lat="43.43009379508652" lon="10.657007750909"><ele>183.33333333333334</ele><time>2026-04-18T13:52:49.001Z</time></trkpt><trkpt lat="43.43023755498458" lon="10.657111458997653"><ele>183.0</ele><time>2026-04-18T13:52:50.001Z</time></trkpt><trkpt lat="43.43039375536292" lon="10.657225079436314"><ele>182.5</ele><time>2026-04-18T13:52:50.998Z</time></trkpt><trkpt lat="43.43072924840366" lon="10.657443757356905"><ele>182.0</ele><time>2026-04-18T13:52:52.998Z</time></trkpt><trkpt lat="43.43090637433185" lon="10.657563091306812"><ele>182.0</ele><time>2026-04-18T13:52:53.998Z</time></trkpt><trkpt lat="43.431080753375305" lon="10.657685520112002"><ele>182.0</ele><time>2026-04-18T13:52:54.998Z</time></trkpt><trkpt lat="43.43126580218795" lon="10.65781017449456"><ele>182.0</ele><time>2026-04-18T13:52:55.998Z</time></trkpt><trkpt lat="43.43145399458062" lon="10.657935674434148"><ele>181.66666666666666</ele><time>2026-04-18T13:52:56.998Z</time></trkpt><trkpt lat="43.43164644272523" lon="10.658059378286222"><ele>181.33333333333334</ele><time>2026-04-18T13:52:57.998Z</time></trkpt><trkpt lat="43.431840240982794" lon="10.658185094657204"><ele>181.0</ele><time>2026-04-18T13:52:58.998Z</time></trkpt><trkpt lat="43.432027844187644" lon="10.658307631110976"><ele>180.66666666666669</ele><time>2026-04-18T13:52:59.998Z</time></trkpt><trkpt lat="43.43221475001239" lon="10.65843422855553"><ele>180.33333333333334</ele><time>2026-04-18T13:53:00.998Z</time></trkpt><trkpt lat="43.432394959489585" lon="10.658560989601119"><ele>180.0</ele><time>2026-04-18T13:53:01.998Z</time></trkpt><trkpt lat="43.43255875481736" lon="10.658670966128236"><ele>179.33333333333334</ele><time>2026-04-18T13:53:02.998Z</time></trkpt><trkpt lat="43.43270255438939" lon="10.658765825283632"><ele>178.66666666666669</ele><time>2026-04-18T13:53:03.998Z</time></trkpt><trkpt lat="43.432853373092726" lon="10.658881091854322"><ele>178.0</ele><time>2026-04-18T13:53:04.998Z</time></trkpt><trkpt lat="43.43297831026249" lon="10.65901381743313"><ele>177.66666666666669</ele><time>2026-04-18T13:53:05.999Z</time></trkpt><trkpt lat="43.4330722318195" lon="10.659189741798057"><ele>177.33333333333334</ele><time>2026-04-18T13:53:06.999Z</time></trkpt><trkpt lat="43.4331538226614" lon="10.659389786655275"><ele>177.0</ele><time>2026-04-18T13:53:07.999Z</time></trkpt><trkpt lat="43.433234777301095" lon="10.65954878950344"><ele>177.0</ele><time>2026-04-18T13:53:08.999Z</time></trkpt><trkpt lat="43.43334293561503" lon="10.659668804178924"><ele>177.0</ele><time>2026-04-18T13:53:09.999Z</time></trkpt><trkpt lat="43.433481999059644" lon="10.659750074733392"><ele>177.0</ele><time>2026-04-18T13:53:10.999Z</time></trkpt><trkpt lat="43.43363371552683" lon="10.659778352685121"><ele>177.0</ele><time>2026-04-18T13:53:11.999Z</time></trkpt><trkpt lat="43.43379011526215" lon="10.659793232092586"><ele>178.0</ele><time>2026-04-18T13:53:12.999Z</time></trkpt><trkpt lat="43.434010483795255" lon="10.659855168220675"><ele>179.0</ele><time>2026-04-18T13:53:13.999Z</time></trkpt><trkpt lat="43.43419597501672" lon="10.659918179785803"><ele>180.0</ele><time>2026-04-18T13:53:14.999Z</time></trkpt><trkpt lat="43.43439475467455" lon="10.660003909093083"><ele>180.0</ele><time>2026-04-18T13:53:15.999Z</time></trkpt><trkpt lat="43.43458221580466" lon="10.660098071993282"><ele>180.0</ele><time>2026-04-18T13:53:16.999Z</time></trkpt><trkpt lat="43.434778942702266" lon="10.660209564916666"><ele>180.0</ele><time>2026-04-18T13:53:17.999Z</time></trkpt><trkpt lat="43.43496852920515" lon="10.660339175852217"><ele>179.0</ele><time>2026-04-18T13:53:18.999Z</time></trkpt><trkpt lat="43.435161600295764" lon="10.660482552312953"><ele>178.0</ele><time>2026-04-18T13:53:19.999Z</time></trkpt><trkpt lat="43.43535109760714" lon="10.660631620998918"><ele>177.0</ele><time>2026-04-18T13:53:20.999Z</time></trkpt><trkpt lat="43.43553489270398" lon="10.6607753886704"><ele>177.0</ele><time>2026-04-18T13:53:21.999Z</time></trkpt><trkpt lat="43.43571430044499" lon="10.660917697593103"><ele>177.0</ele><time>2026-04-18T13:53:22.999Z</time></trkpt><trkpt lat="43.43588815620276" lon="10.661042161901635"><ele>177.0</ele><time>2026-04-18T13:53:23.999Z</time></trkpt><trkpt lat="43.436077433097296" lon="10.661185757328091"><ele>175.33333333333334</ele><time>2026-04-18T13:53:24.999Z</time></trkpt><trkpt lat="43.43625169782213" lon="10.661323835806797"><ele>173.66666666666669</ele><time>2026-04-18T13:53:25.999Z</time></trkpt><trkpt lat="43.43641916282522" lon="10.661452261109602"><ele>172.0</ele><time>2026-04-18T13:53:26.999Z</time></trkpt><trkpt lat="43.43658357637224" lon="10.661577251556382"><ele>172.0</ele><time>2026-04-18T13:53:27.999Z</time></trkpt><trkpt lat="43.43675131725353" lon="10.661692334104265"><ele>172.0</ele><time>2026-04-18T13:53:28.999Z</time></trkpt><trkpt lat="43.43693304798056" lon="10.661794837215997"><ele>172.0</ele><time>2026-04-18T13:53:29.999Z</time></trkpt><trkpt lat="43.43712078531262" lon="10.661875996770702"><ele>170.33333333333334</ele><time>2026-04-18T13:53:30.999Z</time></trkpt><trkpt lat="43.4373107486177" lon="10.661938632050017"><ele>168.66666666666666</ele><time>2026-04-18T13:53:31.999Z</time></trkpt><trkpt lat="43.43751181696884" lon="10.662004496574152"><ele>167.0</ele><time>2026-04-18T13:53:32.999Z</time></trkpt><trkpt lat="43.437709043827425" lon="10.662078380218842"><ele>167.0</ele><time>2026-04-18T13:53:33.999Z</time></trkpt><trkpt lat="43.43790905336798" lon="10.662153187723828"><ele>167.0</ele><time>2026-04-18T13:53:34.999Z</time></trkpt><trkpt lat="43.438107871722075" lon="10.662224249554498"><ele>167.0</ele><time>2026-04-18T13:53:36Z</time></trkpt><trkpt lat="43.43830259095958" lon="10.662296342071329"><ele>168.0</ele><time>2026-04-18T13:53:37Z</time></trkpt><trkpt lat="43.43847916879218" lon="10.66235693001474"><ele>169.0</ele><time>2026-04-18T13:53:38Z</time></trkpt><trkpt lat="43.438642034523575" lon="10.66243381200571"><ele>170.0</ele><time>2026-04-18T13:53:39Z</time></trkpt><trkpt lat="43.438795438012015" lon="10.66252926436412"><ele>169.66666666666666</ele><time>2026-04-18T13:53:40Z</time></trkpt><trkpt lat="43.43894410058653" lon="10.662655982533428"><ele>169.33333333333334</ele><time>2026-04-18T13:53:41Z</time></trkpt><trkpt lat="43.43909746850627" lon="10.662809042544914"><ele>169.0</ele><time>2026-04-18T13:53:42Z</time></trkpt><trkpt lat="43.43924825394462" lon="10.662998035775685"><ele>169.0</ele><time>2026-04-18T13:53:43Z</time></trkpt><trkpt lat="43.43936025314028" lon="10.66319100872977"><ele>169.0</ele><time>2026-04-18T13:53:44Z</time></trkpt><trkpt lat="43.439467794285655" lon="10.663390927857803"><ele>169.0</ele><time>2026-04-18T13:53:45Z</time></trkpt><trkpt lat="43.439653996688875" lon="10.66358577343958"><ele>167.66666666666669</ele><time>2026-04-18T13:53:46Z</time></trkpt><trkpt lat="43.43981198365187" lon="10.663782045133896"><ele>166.33333333333334</ele><time>2026-04-18T13:53:47Z</time></trkpt><trkpt lat="43.43995266586068" lon="10.663970346868085"><ele>165.0</ele><time>2026-04-18T13:53:48Z</time></trkpt><trkpt lat="43.440080368110976" lon="10.664139527715792"><ele>165.0</ele><time>2026-04-18T13:53:49Z</time></trkpt><trkpt lat="43.44020607189227" lon="10.664293011223092"><ele>165.0</ele><time>2026-04-18T13:53:50Z</time></trkpt><trkpt lat="43.44033624374224" lon="10.664420170086593"><ele>165.0</ele><time>2026-04-18T13:53:51Z</time></trkpt><trkpt lat="43.44047297269453" lon="10.664529104766315"><ele>164.25</ele><time>2026-04-18T13:53:52Z</time></trkpt><trkpt lat="43.44060807234685" lon="10.664616273229509"><ele>163.5</ele><time>2026-04-18T13:53:53Z</time></trkpt><trkpt lat="43.44073083440058" lon="10.664685667614151"><ele>162.75</ele><time>2026-04-18T13:53:54Z</time></trkpt><trkpt lat="43.4408464156749" lon="10.664740612389899"><ele>162.0</ele><time>2026-04-18T13:53:55Z</time></trkpt><trkpt lat="43.44096090766057" lon="10.66478871964282"><ele>162.0</ele><time>2026-04-18T13:53:56Z</time></trkpt><trkpt lat="43.44108176506179" lon="10.664827944856706"><ele>162.0</ele><time>2026-04-18T13:53:57Z</time></trkpt><trkpt lat="43.44119855625867" lon="10.664860335929973"><ele>162.0</ele><time>2026-04-18T13:53:58Z</time></trkpt><trkpt lat="43.4413123419066" lon="10.66489308088461"><ele>162.0</ele><time>2026-04-18T13:53:59Z</time></trkpt><trkpt lat="43.44144192013797" lon="10.664933429586238"><ele>161.8</ele><time>2026-04-18T13:54:00Z</time></trkpt><trkpt lat="43.441568727736524" lon="10.664973081639028"><ele>161.6</ele><time>2026-04-18T13:54:01Z</time></trkpt><trkpt lat="43.44167903739077" lon="10.665012147974315"><ele>161.4</ele><time>2026-04-18T13:54:02Z</time></trkpt><trkpt lat="43.441780212111354" lon="10.665045910744263"><ele>161.20000000000002</ele><time>2026-04-18T13:54:03Z</time></trkpt><trkpt lat="43.44186499222364" lon="10.665066976583011"><ele>161.0</ele><time>2026-04-18T13:54:04Z</time></trkpt><trkpt lat="43.44193261427958" lon="10.665083386974704"><ele>161.0</ele><time>2026-04-18T13:54:05Z</time></trkpt><trkpt lat="43.44200994064192" lon="10.665116285920046"><ele>161.0</ele><time>2026-04-18T13:54:07Z</time></trkpt><trkpt lat="43.44196826445554" lon="10.665457026509435"><ele>161.0</ele><time>2026-04-18T13:54:29Z</time></trkpt><trkpt lat="43.44196085786666" lon="10.66555176632361"><ele>161.0</ele><time>2026-04-18T13:54:30.001Z</time></trkpt><trkpt lat="43.44194438251655" lon="10.665710078101915"><ele>160.33333333333331</ele><time>2026-04-18T13:54:32.001Z</time></trkpt><trkpt lat="43.44193212076813" lon="10.665815829930802"><ele>159.66666666666666</ele><time>2026-04-18T13:54:33.001Z</time></trkpt><trkpt lat="43.441920933331495" lon="10.665908227062443"><ele>159.0</ele><time>2026-04-18T13:54:34.001Z</time></trkpt><trkpt lat="43.44190099247041" lon="10.666038867506733"><ele>158.33333333333334</ele><time>2026-04-18T13:54:36.001Z</time></trkpt><trkpt lat="43.44191266567347" lon="10.666131624368111"><ele>157.66666666666669</ele><time>2026-04-18T13:54:38.001Z</time></trkpt><trkpt lat="43.44199380730598" lon="10.666172478333426"><ele>157.0</ele><time>2026-04-18T13:54:41.001Z</time></trkpt><trkpt lat="43.442138231563455" lon="10.666210453312251"><ele>157.0</ele><time>2026-04-18T13:54:56.001Z</time></trkpt><trkpt lat="43.442212387815125" lon="10.66625093458881"><ele>157.0</ele><time>2026-04-18T13:54:56.998Z</time></trkpt><trkpt lat="43.44228447374686" lon="10.666277643972572"><ele>157.0</ele><time>2026-04-18T13:54:57.998Z</time></trkpt><trkpt lat="43.442403763265546" lon="10.666343139606793"><ele>157.0</ele><time>2026-04-18T13:54:59.998Z</time></trkpt><trkpt lat="43.44246771160908" lon="10.666378923356838"><ele>157.0</ele><time>2026-04-18T13:55:01.998Z</time></trkpt><trkpt lat="43.44267949633866" lon="10.666466360649187"><ele>157.0</ele><time>2026-04-18T13:55:05.998Z</time></trkpt><trkpt lat="43.442749156145304" lon="10.666494048849351"><ele>157.0</ele><time>2026-04-18T13:55:06.998Z</time></trkpt><trkpt lat="43.44282530724333" lon="10.666546873920328"><ele>157.0</ele><time>2026-04-18T13:55:08.999Z</time></trkpt><trkpt lat="43.44289969743281" lon="10.66658717869025"><ele>157.0</ele><time>2026-04-18T13:55:10.999Z</time></trkpt><trkpt lat="43.44302444612287" lon="10.666641547103707"><ele>157.0</ele><time>2026-04-18T13:55:12.999Z</time></trkpt><trkpt lat="43.44311567987161" lon="10.666642586932142"><ele>157.0</ele><time>2026-04-18T13:55:15.999Z</time></trkpt><trkpt lat="43.44318254921807" lon="10.666674852276552"><ele>157.0</ele><time>2026-04-18T13:55:16.999Z</time></trkpt><trkpt lat="43.44326495627806" lon="10.66670772634167"><ele>157.0</ele><time>2026-04-18T13:55:17.999Z</time></trkpt><trkpt lat="43.443347270461096" lon="10.666749007347493"><ele>157.0</ele><time>2026-04-18T13:55:18.999Z</time></trkpt><trkpt lat="43.44340621718816" lon="10.666789516905721"><ele>157.0</ele><time>2026-04-18T13:55:19.999Z</time></trkpt><trkpt lat="43.44347721616482" lon="10.666811083259248"><ele>157.0</ele><time>2026-04-18T13:55:21.999Z</time></trkpt><trkpt lat="43.443552657392566" lon="10.666848524530904"><ele>157.0</ele><time>2026-04-18T13:55:26.999Z</time></trkpt><trkpt lat="43.443623087634386" lon="10.666884996789634"><ele>157.0</ele><time>2026-04-18T13:55:33Z</time></trkpt><trkpt lat="43.44371296855549" lon="10.666913376717439"><ele>157.0</ele><time>2026-04-18T13:55:35Z</time></trkpt><trkpt lat="43.44381087041897" lon="10.666947426451255"><ele>157.0</ele><time>2026-04-18T13:55:37Z</time></trkpt><trkpt lat="43.443875152122" lon="10.666965517948668"><ele>157.0</ele><time>2026-04-18T13:55:38Z</time></trkpt><trkpt lat="43.44396392901609" lon="10.666968560066682"><ele>157.0</ele><time>2026-04-18T13:55:40Z</time></trkpt><trkpt lat="43.444033214623886" lon="10.666991129511961"><ele>156.57142857142856</ele><time>2026-04-18T13:55:52Z</time></trkpt><trkpt lat="43.444126803809084" lon="10.667015124449247"><ele>156.14285714285714</ele><time>2026-04-18T13:55:54Z</time></trkpt><trkpt lat="43.4441066791831" lon="10.667100799682705"><ele>155.71428571428572</ele><time>2026-04-18T13:55:56Z</time></trkpt><trkpt lat="43.44415837527622" lon="10.667174436775204"><ele>155.28571428571428</ele><time>2026-04-18T13:55:59Z</time></trkpt><trkpt lat="43.444213080516846" lon="10.667235275233221"><ele>154.85714285714286</ele><time>2026-04-18T13:56:28.001Z</time></trkpt><trkpt lat="43.444267340047425" lon="10.667296690013453"><ele>154.42857142857142</ele><time>2026-04-18T13:56:29.001Z</time></trkpt><trkpt lat="43.444321014605535" lon="10.667348488712573"><ele>154.0</ele><time>2026-04-18T13:56:30.001Z</time></trkpt><trkpt lat="43.44436859309705" lon="10.66742294283215"><ele>154.0</ele><time>2026-04-18T13:56:31.001Z</time></trkpt><trkpt lat="43.44448790051978" lon="10.667565588723946"><ele>154.0</ele><time>2026-04-18T13:56:33.001Z</time></trkpt><trkpt lat="43.4445602695962" lon="10.667621362380096"><ele>154.0</ele><time>2026-04-18T13:56:34.001Z</time></trkpt><trkpt lat="43.444637363045054" lon="10.667663153668926"><ele>154.0</ele><time>2026-04-18T13:56:35.001Z</time></trkpt><trkpt lat="43.444722084552424" lon="10.667704562915775"><ele>154.0</ele><time>2026-04-18T13:56:36.001Z</time></trkpt><trkpt lat="43.444809908561325" lon="10.667757169219229"><ele>153.4</ele><time>2026-04-18T13:56:37.001Z</time></trkpt><trkpt lat="43.44490300102184" lon="10.667807776689559"><ele>152.8</ele><time>2026-04-18T13:56:38.001Z</time></trkpt><trkpt lat="43.445001263285924" lon="10.66784358178791"><ele>152.2</ele><time>2026-04-18T13:56:39.001Z</time></trkpt><trkpt lat="43.445091683643" lon="10.667861030682912"><ele>151.6</ele><time>2026-04-18T13:56:40.001Z</time></trkpt><trkpt lat="43.4451847132587" lon="10.667876825758329"><ele>151.0</ele><time>2026-04-18T13:56:41.001Z</time></trkpt><trkpt lat="43.44526932019504" lon="10.667895273081038"><ele>151.0</ele><time>2026-04-18T13:56:42.001Z</time></trkpt><trkpt lat="43.44533801519665" lon="10.667960367647215"><ele>151.0</ele><time>2026-04-18T13:56:43.001Z</time></trkpt><trkpt lat="43.445416159701374" lon="10.668018816320492"><ele>151.0</ele><time>2026-04-18T13:56:44.001Z</time></trkpt><trkpt lat="43.44550845741681" lon="10.668064222237435"><ele>151.0</ele><time>2026-04-18T13:56:45.001Z</time></trkpt><trkpt lat="43.445601565779526" lon="10.668141786781723"><ele>151.0</ele><time>2026-04-18T13:56:46.001Z</time></trkpt><trkpt lat="43.4457005381742" lon="10.668218003118564"><ele>150.75</ele><time>2026-04-18T13:56:47.001Z</time></trkpt><trkpt lat="43.44580678086378" lon="10.668296887818686"><ele>150.5</ele><time>2026-04-18T13:56:48.001Z</time></trkpt><trkpt lat="43.44591557282153" lon="10.668379874291404"><ele>150.25</ele><time>2026-04-18T13:56:49.001Z</time></trkpt><trkpt lat="43.4460057978214" lon="10.668483532750319"><ele>150.0</ele><time>2026-04-18T13:56:50.001Z</time></trkpt><trkpt lat="43.44610007693495" lon="10.668577066428709"><ele>150.0</ele><time>2026-04-18T13:56:51.001Z</time></trkpt><trkpt lat="43.446202296979266" lon="10.668646836251941"><ele>150.0</ele><time>2026-04-18T13:56:52.001Z</time></trkpt><trkpt lat="43.44629225391661" lon="10.668734574945898"><ele>150.0</ele><time>2026-04-18T13:56:53.001Z</time></trkpt><trkpt lat="43.44638443528292" lon="10.668784237891627"><ele>150.0</ele><time>2026-04-18T13:56:54.001Z</time></trkpt><trkpt lat="43.44647691981098" lon="10.66882905868597"><ele>150.0</ele><time>2026-04-18T13:56:55.001Z</time></trkpt><trkpt lat="43.44655421414331" lon="10.668870040767992"><ele>149.6</ele><time>2026-04-18T13:56:56.001Z</time></trkpt><trkpt lat="43.44662180859361" lon="10.668897390211146"><ele>149.2</ele><time>2026-04-18T13:56:57.001Z</time></trkpt><trkpt lat="43.446699422008734" lon="10.668957664175982"><ele>148.8</ele><time>2026-04-18T13:56:58.001Z</time></trkpt><trkpt lat="43.446755293260466" lon="10.669021116292308"><ele>148.4</ele><time>2026-04-18T13:56:59.001Z</time></trkpt><trkpt lat="43.44684711160991" lon="10.669055289788874"><ele>148.0</ele><time>2026-04-18T13:57:01.001Z</time></trkpt><trkpt lat="43.447009629324526" lon="10.669021577845117"><ele>148.0</ele><time>2026-04-18T13:57:02.999Z</time></trkpt><trkpt lat="43.447092477481654" lon="10.66906314317806"><ele>148.0</ele><time>2026-04-18T13:57:03.999Z</time></trkpt><trkpt lat="43.447190910659465" lon="10.66915008253092"><ele>148.0</ele><time>2026-04-18T13:57:04.999Z</time></trkpt><trkpt lat="43.44724776151236" lon="10.669201315535357"><ele>148.0</ele><time>2026-04-18T13:57:05.999Z</time></trkpt><trkpt lat="43.44729837115717" lon="10.669280442535344"><ele>148.0</ele><time>2026-04-18T13:57:06.999Z</time></trkpt><trkpt lat="43.44728117047514" lon="10.66938268937522"><ele>148.0</ele><time>2026-04-18T13:57:07.999Z</time></trkpt><trkpt lat="43.44724289397162" lon="10.669306407486776"><ele>147.66666666666669</ele><time>2026-04-18T13:57:37Z</time></trkpt><trkpt lat="43.44750600541956" lon="10.669229451356891"><ele>147.33333333333334</ele><time>2026-04-18T13:57:45Z</time></trkpt><trkpt lat="43.44759911322845" lon="10.669197872820497"><ele>147.0</ele><time>2026-04-18T13:57:47Z</time></trkpt><trkpt lat="43.44768861637608" lon="10.66917109740265"><ele>147.0</ele><time>2026-04-18T13:57:49Z</time></trkpt><trkpt lat="43.44771064259076" lon="10.669037900750997"><ele>147.0</ele><time>2026-04-18T13:57:59Z</time></trkpt><trkpt lat="43.44769608925768" lon="10.66893385665806"><ele>147.0</ele><time>2026-04-18T13:58:00Z</time></trkpt><trkpt lat="43.44767090381345" lon="10.668845305391812"><ele>147.0</ele><time>2026-04-18T13:58:01Z</time></trkpt><trkpt lat="43.44771389844033" lon="10.66874094161368"><ele>147.0</ele><time>2026-04-18T13:58:03Z</time></trkpt><trkpt lat="43.447813412670136" lon="10.668773045086079"><ele>147.0</ele><time>2026-04-18T13:58:05Z</time></trkpt><trkpt lat="43.44787324062534" lon="10.668816829073169"><ele>147.0</ele><time>2026-04-18T13:58:06Z</time></trkpt><trkpt lat="43.44724289397162" lon="10.669306407486776"><ele>147.0</ele><time>2026-04-18T13:57:37Z</time></trkpt><trkpt lat="43.44750600541956" lon="10.669229451356891"><ele>147.0</ele><time>2026-04-18T13:57:45Z</time></trkpt><trkpt lat="43.44759911322845" lon="10.669197872820497"><ele>147.0</ele><time>2026-04-18T13:57:47Z</time></trkpt><trkpt lat="43.44768861637608" lon="10.66917109740265"><ele>147.0</ele><time>2026-04-18T13:57:49Z</time></trkpt><trkpt lat="43.44771064259076" lon="10.669037900750997"><ele>147.0</ele><time>2026-04-18T13:57:59Z</time></trkpt><trkpt lat="43.44769608925768" lon="10.66893385665806"><ele>147.0</ele><time>2026-04-18T13:58:00Z</time></trkpt><trkpt lat="43.44767090381345" lon="10.668845305391812"><ele>147.0</ele><time>2026-04-18T13:58:01Z</time></trkpt><trkpt lat="43.44771389844033" lon="10.66874094161368"><ele>147.0</ele><time>2026-04-18T13:58:03Z</time></trkpt><trkpt lat="43.447813412670136" lon="10.668773045086079"><ele>147.0</ele><time>2026-04-18T13:58:05Z</time></trkpt><trkpt lat="43.44787324062534" lon="10.668816829073169"><ele>147.0</ele><time>2026-04-18T13:58:06Z</time></trkpt><trkpt lat="43.44793852889202" lon="10.668862924722104"><ele>147.0</ele><time>2026-04-18T13:58:07Z</time></trkpt><trkpt lat="43.44801724827719" lon="10.66891192020115"><ele>147.0</ele><time>2026-04-18T13:58:08Z</time></trkpt><trkpt lat="43.44809450152171" lon="10.668962997015461"><ele>147.0</ele><time>2026-04-18T13:58:09Z</time></trkpt><trkpt lat="43.44818177525035" lon="10.669006839780732"><ele>147.0</ele><time>2026-04-18T13:58:10Z</time></trkpt><trkpt lat="43.448275875867594" lon="10.66902887043223"><ele>147.0</ele><time>2026-04-18T13:58:11Z</time></trkpt><trkpt lat="43.448369849259535" lon="10.669045821025538"><ele>146.83333333333334</ele><time>2026-04-18T13:58:12Z</time></trkpt><trkpt lat="43.44846955817406" lon="10.669061986088385"><ele>146.66666666666666</ele><time>2026-04-18T13:58:13Z</time></trkpt><trkpt lat="43.448569548676154" lon="10.669084311677254"><ele>146.5</ele><time>2026-04-18T13:58:14Z</time></trkpt><trkpt lat="43.44865768068362" lon="10.669087210385806"><ele>146.33333333333331</ele><time>2026-04-18T13:58:15Z</time></trkpt><trkpt lat="43.44874196933951" lon="10.669092399671621"><ele>146.16666666666666</ele><time>2026-04-18T13:58:16Z</time></trkpt><trkpt lat="43.44880506033879" lon="10.669116046040678"><ele>146.0</ele><time>2026-04-18T13:58:17.001Z</time></trkpt><trkpt lat="43.44890504761243" lon="10.669172721748438"><ele>146.0</ele><time>2026-04-18T13:58:19.001Z</time></trkpt><trkpt lat="43.448981956275475" lon="10.669191677450247"><ele>146.0</ele><time>2026-04-18T13:58:20.001Z</time></trkpt><trkpt lat="43.44907005527793" lon="10.669201860773196"><ele>146.0</ele><time>2026-04-18T13:58:21.001Z</time></trkpt><trkpt lat="43.44916728142199" lon="10.669202728755414"><ele>146.0</ele><time>2026-04-18T13:58:22.001Z</time></trkpt><trkpt lat="43.44925816035716" lon="10.669211539966765"><ele>146.0</ele><time>2026-04-18T13:58:23.001Z</time></trkpt><trkpt lat="43.44933828054934" lon="10.669220950671043"><ele>146.0</ele><time>2026-04-18T13:58:24.001Z</time></trkpt><trkpt lat="43.44942234192758" lon="10.669226058609246"><ele>146.0</ele><time>2026-04-18T13:58:25.001Z</time></trkpt><trkpt lat="43.44949410322523" lon="10.66920838300407"><ele>146.0</ele><time>2026-04-18T13:58:26.001Z</time></trkpt><trkpt lat="43.44956042905802" lon="10.66918634304211"><ele>146.0</ele><time>2026-04-18T13:58:27.001Z</time></trkpt><trkpt lat="43.44962889725031" lon="10.669196027024666"><ele>146.0</ele><time>2026-04-18T13:58:28.001Z</time></trkpt><trkpt lat="43.44973106252301" lon="10.66930241369388"><ele>146.0</ele><time>2026-04-18T13:58:30.001Z</time></trkpt><trkpt lat="43.4497832767187" lon="10.669384713596253"><ele>146.0</ele><time>2026-04-18T13:58:31.001Z</time></trkpt><trkpt lat="43.4498482225931" lon="10.669467797151418"><ele>145.66666666666666</ele><time>2026-04-18T13:58:32.001Z</time></trkpt><trkpt lat="43.44990975634304" lon="10.66954246727934"><ele>145.33333333333331</ele><time>2026-04-18T13:58:33.001Z</time></trkpt><trkpt lat="43.44994587013707" lon="10.669616195211509"><ele>145.0</ele><time>2026-04-18T13:58:34.001Z</time></trkpt><trkpt lat="43.44992325356685" lon="10.669737271641804"><ele>144.66666666666666</ele><time>2026-04-18T13:58:36.001Z</time></trkpt><trkpt lat="43.44989905394403" lon="10.669818863992154"><ele>144.33333333333334</ele><time>2026-04-18T13:58:37.001Z</time></trkpt><trkpt lat="43.44994880060311" lon="10.669922531321053"><ele>144.0</ele><time>2026-04-18T13:58:40.001Z</time></trkpt><trkpt lat="43.450001225059516" lon="10.6699797886425"><ele>144.0</ele><time>2026-04-18T13:58:41.001Z</time></trkpt><trkpt lat="43.45004660110108" lon="10.670049802246842"><ele>144.0</ele><time>2026-04-18T13:58:42.001Z</time></trkpt><trkpt lat="43.45010232323653" lon="10.670113232428255"><ele>144.0</ele><time>2026-04-18T13:58:43.001Z</time></trkpt><trkpt lat="43.45017598403698" lon="10.670201579593527"><ele>144.0</ele><time>2026-04-18T13:58:44.001Z</time></trkpt><trkpt lat="43.4502509114665" lon="10.670318083986077"><ele>144.0</ele><time>2026-04-18T13:58:45.001Z</time></trkpt><trkpt lat="43.45034129504942" lon="10.670428504866363"><ele>143.8</ele><time>2026-04-18T13:58:46.001Z</time></trkpt><trkpt lat="43.45043954398134" lon="10.670524025470272"><ele>143.60000000000002</ele><time>2026-04-18T13:58:47.001Z</time></trkpt><trkpt lat="43.450503135882684" lon="10.670603620785172"><ele>143.4</ele><time>2026-04-18T13:58:48.001Z</time></trkpt><trkpt lat="43.45056770186015" lon="10.670669061808214"><ele>143.20000000000002</ele><time>2026-04-18T13:58:49.001Z</time></trkpt><trkpt lat="43.45070864877543" lon="10.670778332333933"><ele>143.0</ele><time>2026-04-18T13:58:50.001Z</time></trkpt><trkpt lat="43.450781437838" lon="10.670842420484057"><ele>142.66666666666666</ele><time>2026-04-18T13:58:51.001Z</time></trkpt><trkpt lat="43.450845230550435" lon="10.670903698307468"><ele>142.33333333333331</ele><time>2026-04-18T13:58:52.001Z</time></trkpt><trkpt lat="43.450904608524205" lon="10.670950917125671"><ele>142.0</ele><time>2026-04-18T13:58:53.001Z</time></trkpt><trkpt lat="43.45096548684302" lon="10.670984298259608"><ele>141.66666666666666</ele><time>2026-04-18T13:58:54.001Z</time></trkpt><trkpt lat="43.45103544101264" lon="10.67101086726213"><ele>141.33333333333334</ele><time>2026-04-18T13:58:55.001Z</time></trkpt><trkpt lat="43.451120630571275" lon="10.67103451668833"><ele>141.0</ele><time>2026-04-18T13:58:56.001Z</time></trkpt><trkpt lat="43.45120294327667" lon="10.67104194743174"><ele>141.0</ele><time>2026-04-18T13:58:57.001Z</time></trkpt><trkpt lat="43.45127533068079" lon="10.671034376466082"><ele>141.0</ele><time>2026-04-18T13:58:58.001Z</time></trkpt><trkpt lat="43.45133844267217" lon="10.671014306109582"><ele>141.0</ele><time>2026-04-18T13:58:59.001Z</time></trkpt><trkpt lat="43.45143692642992" lon="10.671017595863267"><ele>141.0</ele><time>2026-04-18T13:59:01.002Z</time></trkpt><trkpt lat="43.451562055181036" lon="10.671025843226499"><ele>141.0</ele><time>2026-04-18T13:59:03.002Z</time></trkpt><trkpt lat="43.45166145080582" lon="10.67105503749577"><ele>141.0</ele><time>2026-04-18T13:59:05.002Z</time></trkpt><trkpt lat="43.4517833519037" lon="10.67107442505821"><ele>141.0</ele><time>2026-04-18T13:59:07.002Z</time></trkpt><trkpt lat="43.45187520903117" lon="10.671070041025143"><ele>141.0</ele><time>2026-04-18T13:59:08.002Z</time></trkpt><trkpt lat="43.45196552576846" lon="10.671063306584347"><ele>141.0</ele><time>2026-04-18T13:59:08.998Z</time></trkpt><trkpt lat="43.45208927312075" lon="10.671070906402445"><ele>141.0</ele><time>2026-04-18T13:59:10.998Z</time></trkpt><trkpt lat="43.4521796590844" lon="10.67106946586971"><ele>140.83333333333334</ele><time>2026-04-18T13:59:11.998Z</time></trkpt><trkpt lat="43.45226447796933" lon="10.671065835481569"><ele>140.66666666666666</ele><time>2026-04-18T13:59:12.998Z</time></trkpt><trkpt lat="43.45233430620489" lon="10.671069975905645"><ele>140.5</ele><time>2026-04-18T13:59:13.998Z</time></trkpt><trkpt lat="43.45244517413564" lon="10.671110839877743"><ele>140.33333333333331</ele><time>2026-04-18T13:59:15.998Z</time></trkpt><trkpt lat="43.45251568443955" lon="10.671148973066243"><ele>140.16666666666666</ele><time>2026-04-18T13:59:16.998Z</time></trkpt><trkpt lat="43.4525971886899" lon="10.67118569425454"><ele>140.0</ele><time>2026-04-18T13:59:17.998Z</time></trkpt><trkpt lat="43.45270467762503" lon="10.671196321817018"><ele>140.0</ele><time>2026-04-18T13:59:18.998Z</time></trkpt><trkpt lat="43.452810724115096" lon="10.671214482927022"><ele>140.0</ele><time>2026-04-18T13:59:19.999Z</time></trkpt><trkpt lat="43.452903706463374" lon="10.67122738981608"><ele>140.0</ele><time>2026-04-18T13:59:20.998Z</time></trkpt><trkpt lat="43.45300163517615" lon="10.671239887208216"><ele>140.0</ele><time>2026-04-18T13:59:21.998Z</time></trkpt><trkpt lat="43.45311507331032" lon="10.671259679633792"><ele>140.0</ele><time>2026-04-18T13:59:22.998Z</time></trkpt><trkpt lat="43.45321571878979" lon="10.671268542938442"><ele>139.6</ele><time>2026-04-18T13:59:23.998Z</time></trkpt><trkpt lat="43.45332846481198" lon="10.671286949010852"><ele>139.2</ele><time>2026-04-18T13:59:24.999Z</time></trkpt><trkpt lat="43.453437608604034" lon="10.671298356556365"><ele>138.8</ele><time>2026-04-18T13:59:25.999Z</time></trkpt><trkpt lat="43.45351743663655" lon="10.671304309162876"><ele>138.4</ele><time>2026-04-18T13:59:26.999Z</time></trkpt><trkpt lat="43.45360527784441" lon="10.671321962116219"><ele>138.0</ele><time>2026-04-18T13:59:27.999Z</time></trkpt><trkpt lat="43.45368789770011" lon="10.671352816846325"><ele>138.0</ele><time>2026-04-18T13:59:28.999Z</time></trkpt><trkpt lat="43.45377251849398" lon="10.671410307217892"><ele>138.0</ele><time>2026-04-18T13:59:29.999Z</time></trkpt><trkpt lat="43.45385912571407" lon="10.671475837491894"><ele>138.0</ele><time>2026-04-18T13:59:30.999Z</time></trkpt><trkpt lat="43.4539540777484" lon="10.67153713226996"><ele>138.0</ele><time>2026-04-18T13:59:31.999Z</time></trkpt><trkpt lat="43.45405111170577" lon="10.671592357636428"><ele>138.0</ele><time>2026-04-18T13:59:32.999Z</time></trkpt><trkpt lat="43.454117264586245" lon="10.671628899723473"><ele>138.16666666666666</ele><time>2026-04-18T13:59:33.999Z</time></trkpt><trkpt lat="43.454201295398306" lon="10.67167531026464"><ele>138.33333333333334</ele><time>2026-04-18T13:59:35.999Z</time></trkpt><trkpt lat="43.45430327662506" lon="10.671717030599575"><ele>138.5</ele><time>2026-04-18T13:59:46Z</time></trkpt><trkpt lat="43.4543285448445" lon="10.671632811664974"><ele>138.66666666666669</ele><time>2026-04-18T13:59:49Z</time></trkpt><trkpt lat="43.45426500301386" lon="10.67158352466803"><ele>138.83333333333334</ele><time>2026-04-18T13:59:52Z</time></trkpt><trkpt lat="43.454188752705186" lon="10.671593691986006"><ele>139.0</ele><time>2026-04-18T13:59:54Z</time></trkpt><trkpt lat="43.45411144090026" lon="10.671643685212366"><ele>139.0</ele><time>2026-04-18T13:59:56Z</time></trkpt><trkpt lat="43.45408176500623" lon="10.671738804227628"><ele>139.0</ele><time>2026-04-18T13:59:58Z</time></trkpt><trkpt lat="43.45406083420546" lon="10.671857517868013"><ele>139.0</ele><time>2026-04-18T14:00:00Z</time></trkpt><trkpt lat="43.454066720825175" lon="10.672003994581866"><ele>139.0</ele><time>2026-04-18T14:00:03Z</time></trkpt><trkpt lat="43.45412577566274" lon="10.672050954416894"><ele>139.0</ele><time>2026-04-18T14:00:05Z</time></trkpt><trkpt lat="43.45412451359814" lon="10.672174008564683"><ele>139.0</ele><time>2026-04-18T14:00:07Z</time></trkpt><trkpt lat="43.454125418687376" lon="10.672276072958821"><ele>139.16666666666669</ele><time>2026-04-18T14:01:18.999Z</time></trkpt><trkpt lat="43.45412717618248" lon="10.672376917013297"><ele>139.33333333333334</ele><time>2026-04-18T14:01:51.999Z</time></trkpt><trkpt lat="43.454149092613" lon="10.672488457232028"><ele>139.5</ele><time>2026-04-18T14:01:53.999Z</time></trkpt><trkpt lat="43.45419015900853" lon="10.672576706543595"><ele>139.66666666666666</ele><time>2026-04-18T14:01:56Z</time></trkpt><trkpt lat="43.45427073935102" lon="10.672580686256598"><ele>139.83333333333331</ele><time>2026-04-18T14:04:07Z</time></trkpt><trkpt lat="43.45432896131038" lon="10.672627258605063"><ele>140.0</ele><time>2026-04-18T14:04:08Z</time></trkpt><trkpt lat="43.454401395674964" lon="10.672716869231863"><ele>140.0</ele><time>2026-04-18T14:04:10Z</time></trkpt><trkpt lat="43.45443148049133" lon="10.67279514737944"><ele>140.0</ele><time>2026-04-18T14:04:11Z</time></trkpt><trkpt lat="43.45447901677131" lon="10.67286992655726"><ele>140.0</ele><time>2026-04-18T14:04:12Z</time></trkpt><trkpt lat="43.454525297514344" lon="10.672942071653168"><ele>140.0</ele><time>2026-04-18T14:04:13Z</time></trkpt><trkpt lat="43.45459855498474" lon="10.673015034751835"><ele>140.0</ele><time>2026-04-18T14:04:14Z</time></trkpt><trkpt lat="43.45468247730627" lon="10.673014383968"><ele>140.0</ele><time>2026-04-18T14:04:20Z</time></trkpt><trkpt lat="43.45470451698225" lon="10.673096365532126"><ele>140.0</ele><time>2026-04-18T14:04:23Z</time></trkpt><trkpt lat="43.454761003481295" lon="10.673232275178622"><ele>140.0</ele><time>2026-04-18T14:04:34.001Z</time></trkpt><trkpt lat="43.45477097985993" lon="10.673334361040402"><ele>140.0</ele><time>2026-04-18T14:04:45.001Z</time></trkpt><trkpt lat="43.45483438865584" lon="10.673404841127251"><ele>140.0</ele><time>2026-04-18T14:04:49.001Z</time></trkpt><trkpt lat="43.45491125677154" lon="10.673466544837737"><ele>140.0</ele><time>2026-04-18T14:04:53.001Z</time></trkpt><trkpt lat="43.455002233074225" lon="10.673472511135063"><ele>140.0</ele><time>2026-04-18T14:05:29.997Z</time></trkpt><trkpt lat="43.45510856399481" lon="10.673468540502299"><ele>140.0</ele><time>2026-04-18T14:05:34.997Z</time></trkpt><trkpt lat="43.455195126966615" lon="10.67341898420291"><ele>140.0</ele><time>2026-04-18T14:05:37.997Z</time></trkpt><trkpt lat="43.45526276231662" lon="10.673440078520741"><ele>140.0</ele><time>2026-04-18T14:05:43.998Z</time></trkpt><trkpt lat="43.45533258648365" lon="10.673453384034602"><ele>140.0</ele><time>2026-04-18T14:06:08.999Z</time></trkpt><trkpt lat="43.45651431108441" lon="10.6738687731541"><ele>139.5</ele><time>2026-04-18T14:14:36.001Z</time></trkpt><trkpt lat="43.456586007692515" lon="10.67392393963391"><ele>139.0</ele><time>2026-04-18T14:14:38.001Z</time></trkpt><trkpt lat="43.45665127023796" lon="10.673946268459774"><ele>138.5</ele><time>2026-04-18T14:14:40.001Z</time></trkpt><trkpt lat="43.45673665150439" lon="10.673973486498042"><ele>138.0</ele><time>2026-04-18T14:14:43.001Z</time></trkpt><trkpt lat="43.45681986895328" lon="10.673991435837845"><ele>137.5</ele><time>2026-04-18T14:14:46.001Z</time></trkpt><trkpt lat="43.45687963969416" lon="10.674026921621648"><ele>137.0</ele><time>2026-04-18T14:14:48.001Z</time></trkpt><trkpt lat="43.45693665796419" lon="10.674077319710749"><ele>137.0</ele><time>2026-04-18T14:14:51.001Z</time></trkpt><trkpt lat="43.4570315667422" lon="10.674104175635406"><ele>137.0</ele><time>2026-04-18T14:14:54.001Z</time></trkpt><trkpt lat="43.45710158771602" lon="10.674100780696262"><ele>137.0</ele><time>2026-04-18T14:14:57.001Z</time></trkpt><trkpt lat="43.45716873279226" lon="10.674105923630027"><ele>137.0</ele><time>2026-04-18T14:15:00.001Z</time></trkpt><trkpt lat="43.45725079136565" lon="10.674169432206869"><ele>137.0</ele><time>2026-04-18T14:15:03.001Z</time></trkpt><trkpt lat="43.45732132330693" lon="10.674134442257765"><ele>137.0</ele><time>2026-04-18T14:15:07.001Z</time></trkpt><trkpt lat="43.457387308516715" lon="10.674102380429272"><ele>136.83333333333331</ele><time>2026-04-18T14:15:09.001Z</time></trkpt><trkpt lat="43.45745270410982" lon="10.6740895903549"><ele>136.66666666666666</ele><time>2026-04-18T14:15:30.002Z</time></trkpt><trkpt lat="43.45753189625015" lon="10.674001329093853"><ele>136.5</ele><time>2026-04-18T14:15:33.002Z</time></trkpt><trkpt lat="43.45759124987316" lon="10.67397070362536"><ele>136.33333333333334</ele><time>2026-04-18T14:15:36.002Z</time></trkpt><trkpt lat="43.45765830468301" lon="10.673932539131668"><ele>136.16666666666669</ele><time>2026-04-18T14:15:39.002Z</time></trkpt><trkpt lat="43.45774228834422" lon="10.67383547870464"><ele>136.0</ele><time>2026-04-18T14:15:42.002Z</time></trkpt><trkpt lat="43.45781618203927" lon="10.673793000792735"><ele>135.99999999999997</ele><time>2026-04-18T14:15:45.002Z</time></trkpt><trkpt lat="43.457881477979925" lon="10.673822860254342"><ele>136.0</ele><time>2026-04-18T14:15:49.002Z</time></trkpt><trkpt lat="43.45795010873784" lon="10.673870230290332"><ele>136.0</ele><time>2026-04-18T14:15:51.002Z</time></trkpt><trkpt lat="43.458019144014706" lon="10.67380369565933"><ele>136.0</ele><time>2026-04-18T14:15:55.002Z</time></trkpt><trkpt lat="43.45807330731272" lon="10.67375473166797"><ele>136.0</ele><time>2026-04-18T14:15:58.002Z</time></trkpt><trkpt lat="43.45813695013997" lon="10.673725776849025"><ele>135.99999999999997</ele><time>2026-04-18T14:16:00Z</time></trkpt><trkpt lat="43.45820143223394" lon="10.673721115454539"><ele>136.0</ele><time>2026-04-18T14:16:03Z</time></trkpt><trkpt lat="43.45826093828433" lon="10.673752499056542"><ele>135.83333333333334</ele><time>2026-04-18T14:16:07Z</time></trkpt><trkpt lat="43.45834014575599" lon="10.673775527909218"><ele>135.66666666666669</ele><time>2026-04-18T14:16:17Z</time></trkpt><trkpt lat="43.458432796921024" lon="10.673820035350836"><ele>135.5</ele><time>2026-04-18T14:16:19Z</time></trkpt><trkpt lat="43.4585165735525" lon="10.673863572891065"><ele>135.33333333333334</ele><time>2026-04-18T14:16:21Z</time></trkpt><trkpt lat="43.458593968007975" lon="10.673895108088862"><ele>135.16666666666666</ele><time>2026-04-18T14:16:23Z</time></trkpt><trkpt lat="43.45863524071505" lon="10.673975616683375"><ele>135.0</ele><time>2026-04-18T14:16:31Z</time></trkpt><trkpt lat="43.45869666141251" lon="10.674079546534557"><ele>135.0</ele><time>2026-04-18T14:16:37.001Z</time></trkpt><trkpt lat="43.458696544661535" lon="10.674182896097433"><ele>135.0</ele><time>2026-04-18T14:17:26.002Z</time></trkpt><trkpt lat="43.45870384597206" lon="10.674275617614315"><ele>135.0</ele><time>2026-04-18T14:17:29.002Z</time></trkpt><trkpt lat="43.45874329029991" lon="10.674400048377443"><ele>135.0</ele><time>2026-04-18T14:18:21Z</time></trkpt><trkpt lat="43.45875927330125" lon="10.67451051686167"><ele>135.0</ele><time>2026-04-18T14:18:24Z</time></trkpt><trkpt lat="43.45879960771499" lon="10.674650651644331"><ele>135.0</ele><time>2026-04-18T14:18:26Z</time></trkpt><trkpt lat="43.458862787926826" lon="10.674700150101318"><ele>134.83333333333334</ele><time>2026-04-18T14:18:29Z</time></trkpt><trkpt lat="43.4589411635793" lon="10.674716235544178"><ele>134.66666666666666</ele><time>2026-04-18T14:18:31Z</time></trkpt><trkpt lat="43.45900451318617" lon="10.674711184155434"><ele>134.5</ele><time>2026-04-18T14:18:33Z</time></trkpt><trkpt lat="43.45911787872466" lon="10.674741274383235"><ele>134.33333333333331</ele><time>2026-04-18T14:18:39Z</time></trkpt><trkpt lat="43.4592086541235" lon="10.674797836206942"><ele>134.16666666666666</ele><time>2026-04-18T14:18:41Z</time></trkpt><trkpt lat="43.45926733500745" lon="10.674835722340937"><ele>134.0</ele><time>2026-04-18T14:18:43.001Z</time></trkpt><trkpt lat="43.45935582553989" lon="10.674817625131617"><ele>134.0</ele><time>2026-04-18T14:18:46.001Z</time></trkpt><trkpt lat="43.459437933483336" lon="10.674865151158881"><ele>134.0</ele><time>2026-04-18T14:18:48.001Z</time></trkpt><trkpt lat="43.45954236745109" lon="10.674984938251777"><ele>134.0</ele><time>2026-04-18T14:18:50.001Z</time></trkpt><trkpt lat="43.45961201233375" lon="10.675043505534543"><ele>134.0</ele><time>2026-04-18T14:18:52.001Z</time></trkpt><trkpt lat="43.4596975483499" lon="10.675001476605603"><ele>134.0</ele><time>2026-04-18T14:18:54.001Z</time></trkpt><trkpt lat="43.45978631882378" lon="10.674990346859222"><ele>133.2</ele><time>2026-04-18T14:18:56.001Z</time></trkpt><trkpt lat="43.45982228623617" lon="10.675084625411975"><ele>132.4</ele><time>2026-04-18T14:18:58.001Z</time></trkpt><trkpt lat="43.459914953147276" lon="10.67514054917828"><ele>131.6</ele><time>2026-04-18T14:19:00.001Z</time></trkpt><trkpt lat="43.4600295951727" lon="10.675195633963373"><ele>130.8</ele><time>2026-04-18T14:19:02.001Z</time></trkpt><trkpt lat="43.46010538052909" lon="10.67511027903031"><ele>130.0</ele><time>2026-04-18T14:19:05.001Z</time></trkpt><trkpt lat="43.46015227386182" lon="10.675048535865123"><ele>130.0</ele><time>2026-04-18T14:19:07.001Z</time></trkpt><trkpt lat="43.46021818060125" lon="10.675067223291254"><ele>130.0</ele><time>2026-04-18T14:19:09.001Z</time></trkpt><trkpt lat="43.460274835103945" lon="10.675123413617301"><ele>130.0</ele><time>2026-04-18T14:19:11.001Z</time></trkpt><trkpt lat="43.46034131818021" lon="10.675148025061153"><ele>130.0</ele><time>2026-04-18T14:20:04.002Z</time></trkpt><trkpt lat="43.46044559932348" lon="10.67514868005545"><ele>130.0</ele><time>2026-04-18T14:20:06.002Z</time></trkpt><trkpt lat="43.46050849147939" lon="10.675096952200619"><ele>130.0</ele><time>2026-04-18T14:20:07.002Z</time></trkpt><trkpt lat="43.46061238386468" lon="10.675133355900567"><ele>129.8</ele><time>2026-04-18T14:20:09.002Z</time></trkpt><trkpt lat="43.460715778621065" lon="10.675178705366104"><ele>129.6</ele><time>2026-04-18T14:20:11Z</time></trkpt><trkpt lat="43.46082782068268" lon="10.675144154058495"><ele>129.4</ele><time>2026-04-18T14:20:13Z</time></trkpt><trkpt lat="43.46093279217034" lon="10.675229462143523"><ele>129.2</ele><time>2026-04-18T14:20:15Z</time></trkpt><trkpt lat="43.46100199248652" lon="10.675294633574605"><ele>129.0</ele><time>2026-04-18T14:20:16Z</time></trkpt><trkpt lat="43.46106711080128" lon="10.675376341143066"><ele>129.0</ele><time>2026-04-18T14:20:18Z</time></trkpt><trkpt lat="43.46114936138218" lon="10.675428852539484"><ele>129.0</ele><time>2026-04-18T14:20:20Z</time></trkpt><trkpt lat="43.46127131444896" lon="10.675485757282793"><ele>129.0</ele><time>2026-04-18T14:20:22Z</time></trkpt><trkpt lat="43.46134607064268" lon="10.675470775620854"><ele>129.0</ele><time>2026-04-18T14:20:23Z</time></trkpt><trkpt lat="43.461417958258345" lon="10.675440156759148"><ele>129.0</ele><time>2026-04-18T14:20:24Z</time></trkpt><trkpt lat="43.4614739571411" lon="10.67539108482926"><ele>129.0</ele><time>2026-04-18T14:20:25Z</time></trkpt><trkpt lat="43.46155900429042" lon="10.675400730556351"><ele>129.0</ele><time>2026-04-18T14:20:27Z</time></trkpt><trkpt lat="43.46168328440129" lon="10.675465935808193"><ele>129.0</ele><time>2026-04-18T14:20:28Z</time></trkpt><trkpt lat="43.461747755981804" lon="10.675463977538412"><ele>129.0</ele><time>2026-04-18T14:20:29Z</time></trkpt><trkpt lat="43.461810491417744" lon="10.675490370837332"><ele>129.0</ele><time>2026-04-18T14:20:30Z</time></trkpt><trkpt lat="43.461883029872084" lon="10.675541140561693"><ele>129.0</ele><time>2026-04-18T14:20:31Z</time></trkpt><trkpt lat="43.461943162919304" lon="10.67556721268334"><ele>129.0</ele><time>2026-04-18T14:20:32Z</time></trkpt><trkpt lat="43.46199959342891" lon="10.675606542017125"><ele>129.0</ele><time>2026-04-18T14:20:33Z</time></trkpt><trkpt lat="43.46208882993986" lon="10.67569904303279"><ele>129.0</ele><time>2026-04-18T14:20:35Z</time></trkpt><trkpt lat="43.46214401442182" lon="10.67577396452389"><ele>129.0</ele><time>2026-04-18T14:20:36Z</time></trkpt><trkpt lat="43.46220579249983" lon="10.675853684971026"><ele>129.0</ele><time>2026-04-18T14:20:37Z</time></trkpt><trkpt lat="43.46225326759312" lon="10.675920937991533"><ele>129.0</ele><time>2026-04-18T14:20:38Z</time></trkpt><trkpt lat="43.462327446885794" lon="10.6760688061109"><ele>128.8</ele><time>2026-04-18T14:20:40Z</time></trkpt><trkpt lat="43.46241359813808" lon="10.6761664850902"><ele>128.60000000000002</ele><time>2026-04-18T14:20:42Z</time></trkpt><trkpt lat="43.46243820566401" lon="10.67627026325541"><ele>128.4</ele><time>2026-04-18T14:20:43Z</time></trkpt><trkpt lat="43.46246723640293" lon="10.676391183512365"><ele>128.20000000000002</ele><time>2026-04-18T14:20:44Z</time></trkpt><trkpt lat="43.462504389585426" lon="10.6764977607549"><ele>128.0</ele><time>2026-04-18T14:20:45Z</time></trkpt><trkpt lat="43.46255306869102" lon="10.676600669235341"><ele>128.0</ele><time>2026-04-18T14:20:46Z</time></trkpt><trkpt lat="43.46261243045457" lon="10.67670246577114"><ele>128.0</ele><time>2026-04-18T14:20:47Z</time></trkpt><trkpt lat="43.462675183445214" lon="10.676775663958997"><ele>128.0</ele><time>2026-04-18T14:20:48Z</time></trkpt><trkpt lat="43.4627628577894" lon="10.676891319132663"><ele>128.0</ele><time>2026-04-18T14:20:50Z</time></trkpt><trkpt lat="43.46280690826048" lon="10.676980339386496"><ele>128.0</ele><time>2026-04-18T14:20:51Z</time></trkpt><trkpt lat="43.46286684969427" lon="10.677062404604989"><ele>128.4</ele><time>2026-04-18T14:20:52Z</time></trkpt><trkpt lat="43.46292822223311" lon="10.67714681286227"><ele>128.8</ele><time>2026-04-18T14:20:53Z</time></trkpt><trkpt lat="43.46299495585337" lon="10.677249048013154"><ele>129.2</ele><time>2026-04-18T14:20:54Z</time></trkpt><trkpt lat="43.4630705400093" lon="10.677349722081047"><ele>129.6</ele><time>2026-04-18T14:20:55.001Z</time></trkpt><trkpt lat="43.46313868793416" lon="10.677448470383892"><ele>130.0</ele><time>2026-04-18T14:20:56.001Z</time></trkpt><trkpt lat="43.463204499390535" lon="10.67754325928155"><ele>129.2</ele><time>2026-04-18T14:20:57.001Z</time></trkpt><trkpt lat="43.463279916210865" lon="10.677641303794049"><ele>128.4</ele><time>2026-04-18T14:20:58.001Z</time></trkpt><trkpt lat="43.463353033014975" lon="10.677726669161439"><ele>127.6</ele><time>2026-04-18T14:20:59.001Z</time></trkpt><trkpt lat="43.46341410262555" lon="10.677782286843119"><ele>126.8</ele><time>2026-04-18T14:21:00.001Z</time></trkpt><trkpt lat="43.463519253377" lon="10.677853079050749"><ele>126.0</ele><time>2026-04-18T14:21:02.001Z</time></trkpt><trkpt lat="43.46359124717476" lon="10.677875132292048"><ele>126.0</ele><time>2026-04-18T14:21:03.001Z</time></trkpt><trkpt lat="43.46368003253921" lon="10.677880275621611"><ele>126.0</ele><time>2026-04-18T14:21:04.001Z</time></trkpt><trkpt lat="43.46375821920923" lon="10.677903979360652"><ele>126.0</ele><time>2026-04-18T14:21:05.001Z</time></trkpt><trkpt lat="43.46384562324817" lon="10.677947922267423"><ele>126.0</ele><time>2026-04-18T14:21:06.001Z</time></trkpt><trkpt lat="43.46393113366142" lon="10.67800387739951"><ele>126.0</ele><time>2026-04-18T14:21:07.001Z</time></trkpt><trkpt lat="43.463983344716766" lon="10.678075324104222"><ele>126.0</ele><time>2026-04-18T14:21:08.001Z</time></trkpt><trkpt lat="43.46403299147695" lon="10.678170881242112"><ele>126.16666666666667</ele><time>2026-04-18T14:21:09.001Z</time></trkpt><trkpt lat="43.46409303160974" lon="10.678275383628439"><ele>126.33333333333334</ele><time>2026-04-18T14:21:10.001Z</time></trkpt><trkpt lat="43.464144204383906" lon="10.678390271026723"><ele>126.5</ele><time>2026-04-18T14:21:11.001Z</time></trkpt><trkpt lat="43.46416374935857" lon="10.678511401911397"><ele>126.66666666666667</ele><time>2026-04-18T14:21:12.001Z</time></trkpt><trkpt lat="43.464175419609276" lon="10.678608183348905"><ele>126.83333333333334</ele><time>2026-04-18T14:21:13.001Z</time></trkpt><trkpt lat="43.46421141143875" lon="10.678682801034121"><ele>127.0</ele><time>2026-04-18T14:21:14.001Z</time></trkpt><trkpt lat="43.46425847971143" lon="10.678775234469825"><ele>127.00000000000001</ele><time>2026-04-18T14:21:15.001Z</time></trkpt><trkpt lat="43.46431848396128" lon="10.678868956659171"><ele>127.0</ele><time>2026-04-18T14:21:16.001Z</time></trkpt><trkpt lat="43.464360705605664" lon="10.678951437915076"><ele>127.0</ele><time>2026-04-18T14:21:17.001Z</time></trkpt><trkpt lat="43.4643399209966" lon="10.679072768144557"><ele>127.0</ele><time>2026-04-18T14:21:38.001Z</time></trkpt><trkpt lat="43.4643834117561" lon="10.67916402413403"><ele>127.00000000000001</ele><time>2026-04-18T14:21:40.001Z</time></trkpt><trkpt lat="43.46444510649865" lon="10.67920117264752"><ele>127.0</ele><time>2026-04-18T14:21:42.001Z</time></trkpt><trkpt lat="43.46450412902459" lon="10.679260949852273"><ele>127.00000000000001</ele><time>2026-04-18T14:21:43.001Z</time></trkpt><trkpt lat="43.464579173306795" lon="10.679400925203591"><ele>127.0</ele><time>2026-04-18T14:21:45.002Z</time></trkpt><trkpt lat="43.46462868960341" lon="10.679467696937525"><ele>127.0</ele><time>2026-04-18T14:21:46.002Z</time></trkpt><trkpt lat="43.464705360879144" lon="10.679552892502004"><ele>127.0</ele><time>2026-04-18T14:21:48.002Z</time></trkpt><trkpt lat="43.464760988105574" lon="10.679616688915091"><ele>127.00000000000001</ele><time>2026-04-18T14:21:50.002Z</time></trkpt><trkpt lat="43.464807084821416" lon="10.67968532553645"><ele>127.0</ele><time>2026-04-18T14:21:52.002Z</time></trkpt><trkpt lat="43.46484137229266" lon="10.67976415232046"><ele>126.8</ele><time>2026-04-18T14:21:54.002Z</time></trkpt><trkpt lat="43.46488972230585" lon="10.679869271049533"><ele>126.6</ele><time>2026-04-18T14:21:57.002Z</time></trkpt><trkpt lat="43.46493633117988" lon="10.67997829137225"><ele>126.39999999999999</ele><time>2026-04-18T14:21:59.002Z</time></trkpt><trkpt lat="43.464985377254045" lon="10.680141527645608"><ele>126.19999999999999</ele><time>2026-04-18T14:22:01.002Z</time></trkpt><trkpt lat="43.4650300552201" lon="10.680280738171197"><ele>126.0</ele><time>2026-04-18T14:22:03.002Z</time></trkpt><trkpt lat="43.46505082035271" lon="10.680362938033795"><ele>126.0</ele><time>2026-04-18T14:22:04.002Z</time></trkpt><trkpt lat="43.46507822414031" lon="10.680445889703844"><ele>126.0</ele><time>2026-04-18T14:22:05.002Z</time></trkpt><trkpt lat="43.46510952282537" lon="10.680546362763154"><ele>126.0</ele><time>2026-04-18T14:22:06.002Z</time></trkpt><trkpt lat="43.4651512563455" lon="10.680648642692447"><ele>126.0</ele><time>2026-04-18T14:22:07.002Z</time></trkpt><trkpt lat="43.465201538036595" lon="10.680754052822135"><ele>126.0</ele><time>2026-04-18T14:22:08.002Z</time></trkpt><trkpt lat="43.46525623548876" lon="10.680859822291733"><ele>126.0</ele><time>2026-04-18T14:22:09.002Z</time></trkpt><trkpt lat="43.46530750443644" lon="10.680951002143786"><ele>126.0</ele><time>2026-04-18T14:22:10.002Z</time></trkpt><trkpt lat="43.465350033436096" lon="10.68102866492183"><ele>126.0</ele><time>2026-04-18T14:22:11.002Z</time></trkpt><trkpt lat="43.465408985516916" lon="10.681088742993142"><ele>126.0</ele><time>2026-04-18T14:22:12.002Z</time></trkpt><trkpt lat="43.46547818992606" lon="10.681142331873811"><ele>126.0</ele><time>2026-04-18T14:22:13.002Z</time></trkpt><trkpt lat="43.46554718081574" lon="10.681182688680277"><ele>126.0</ele><time>2026-04-18T14:22:14.002Z</time></trkpt><trkpt lat="43.465610582626866" lon="10.681231132652998"><ele>126.0</ele><time>2026-04-18T14:22:15.002Z</time></trkpt><trkpt lat="43.46566693635276" lon="10.681280243698598"><ele>126.0</ele><time>2026-04-18T14:22:16Z</time></trkpt><trkpt lat="43.46571734923518" lon="10.68135951140171"><ele>126.33333333333333</ele><time>2026-04-18T14:22:17Z</time></trkpt><trkpt lat="43.46575382101006" lon="10.681447395060449"><ele>126.66666666666666</ele><time>2026-04-18T14:22:18Z</time></trkpt><trkpt lat="43.46578254496405" lon="10.681596194207716"><ele>127.0</ele><time>2026-04-18T14:22:20Z</time></trkpt><trkpt lat="43.46577936086717" lon="10.681698948190006"><ele>127.33333333333333</ele><time>2026-04-18T14:22:21Z</time></trkpt><trkpt lat="43.465758540727144" lon="10.681797100223019"><ele>127.66666666666666</ele><time>2026-04-18T14:22:22Z</time></trkpt><trkpt lat="43.46568118683384" lon="10.681888074392013"><ele>128.0</ele><time>2026-04-18T14:22:24Z</time></trkpt><trkpt lat="43.4657254134198" lon="10.68196181867302"><ele>128.0</ele><time>2026-04-18T14:22:40Z</time></trkpt><trkpt lat="43.46580849067919" lon="10.682090568825748"><ele>128.0</ele><time>2026-04-18T14:22:42Z</time></trkpt><trkpt lat="43.465867660102894" lon="10.682137445751858"><ele>128.0</ele><time>2026-04-18T14:22:43Z</time></trkpt><trkpt lat="43.46594465694805" lon="10.682168598570419"><ele>128.0</ele><time>2026-04-18T14:22:44Z</time></trkpt><trkpt lat="43.466026994584894" lon="10.682218355351777"><ele>128.0</ele><time>2026-04-18T14:22:46Z</time></trkpt><trkpt lat="43.466108722067894" lon="10.68228443482128"><ele>128.0</ele><time>2026-04-18T14:22:48Z</time></trkpt><trkpt lat="43.46627628216812" lon="10.682454957812118"><ele>128.0</ele><time>2026-04-18T14:22:49Z</time></trkpt><trkpt lat="43.46633672616768" lon="10.68251487521194"><ele>128.0</ele><time>2026-04-18T14:22:50Z</time></trkpt><trkpt lat="43.46643570334059" lon="10.682620218921738"><ele>128.0</ele><time>2026-04-18T14:22:52Z</time></trkpt><trkpt lat="43.46652099383845" lon="10.682711220754468"><ele>126.83333333333333</ele><time>2026-04-18T14:22:54Z</time></trkpt><trkpt lat="43.46659124973029" lon="10.6827646342052"><ele>125.66666666666666</ele><time>2026-04-18T14:22:56Z</time></trkpt><trkpt lat="43.46661667650563" lon="10.682870243411122"><ele>124.5</ele><time>2026-04-18T14:22:58Z</time></trkpt><trkpt lat="43.46664618499279" lon="10.682952789839431"><ele>123.33333333333334</ele><time>2026-04-18T14:23:00Z</time></trkpt><trkpt lat="43.46667369636979" lon="10.683113313691283"><ele>122.16666666666667</ele><time>2026-04-18T14:25:38.001Z</time></trkpt><trkpt lat="43.46669955969267" lon="10.683215961273453"><ele>121.0</ele><time>2026-04-18T14:25:39.001Z</time></trkpt><trkpt lat="43.46673470029674" lon="10.68337031334585"><ele>121.0</ele><time>2026-04-18T14:25:41.001Z</time></trkpt><trkpt lat="43.466741430257244" lon="10.683542218585105"><ele>121.0</ele><time>2026-04-18T14:25:43.001Z</time></trkpt><trkpt lat="43.46678095170335" lon="10.683691108982227"><ele>121.0</ele><time>2026-04-18T14:25:45.001Z</time></trkpt><trkpt lat="43.46680769973217" lon="10.683826010141518"><ele>121.0</ele><time>2026-04-18T14:25:47.001Z</time></trkpt><trkpt lat="43.466849428975685" lon="10.683901921333774"><ele>121.0</ele><time>2026-04-18T14:25:48.001Z</time></trkpt><trkpt lat="43.46689987978601" lon="10.683972674482014"><ele>121.66666666666667</ele><time>2026-04-18T14:25:49.001Z</time></trkpt><trkpt lat="43.46694646541482" lon="10.684047019022714"><ele>122.33333333333334</ele><time>2026-04-18T14:25:50.001Z</time></trkpt><trkpt lat="43.46697703903901" lon="10.684145479074795"><ele>123.0</ele><time>2026-04-18T14:25:51.001Z</time></trkpt><trkpt lat="43.46701370635865" lon="10.684268271351183"><ele>123.66666666666666</ele><time>2026-04-18T14:25:52.001Z</time></trkpt><trkpt lat="43.4670701274213" lon="10.684360236552308"><ele>124.33333333333333</ele><time>2026-04-18T14:25:53.001Z</time></trkpt><trkpt lat="43.467129952387786" lon="10.684482337925997"><ele>125.0</ele><time>2026-04-18T14:25:54.001Z</time></trkpt><trkpt lat="43.46719686814549" lon="10.684600650370806"><ele>124.4</ele><time>2026-04-18T14:25:55.001Z</time></trkpt><trkpt lat="43.46727089491636" lon="10.684731133253543"><ele>123.8</ele><time>2026-04-18T14:25:56.001Z</time></trkpt><trkpt lat="43.467323833482006" lon="10.684844846601127"><ele>123.19999999999999</ele><time>2026-04-18T14:25:57.001Z</time></trkpt><trkpt lat="43.46736974204004" lon="10.684963760255119"><ele>122.6</ele><time>2026-04-18T14:25:58.001Z</time></trkpt><trkpt lat="43.467415026423225" lon="10.685115735609168"><ele>122.0</ele><time>2026-04-18T14:25:59.001Z</time></trkpt><trkpt lat="43.46746848231673" lon="10.685266968028687"><ele>122.0</ele><time>2026-04-18T14:26:00.001Z</time></trkpt><trkpt lat="43.46752639602433" lon="10.685428088503905"><ele>121.99999999999999</ele><time>2026-04-18T14:26:02.001Z</time></trkpt><trkpt lat="43.46756275188519" lon="10.685543600182854"><ele>121.99999999999999</ele><time>2026-04-18T14:26:03.001Z</time></trkpt><trkpt lat="43.4675758738205" lon="10.685642579310453"><ele>122.0</ele><time>2026-04-18T14:26:04.001Z</time></trkpt><trkpt lat="43.46760955705103" lon="10.685768483153426"><ele>122.0</ele><time>2026-04-18T14:26:05.002Z</time></trkpt><trkpt lat="43.467651602686566" lon="10.685900306085992"><ele>122.0</ele><time>2026-04-18T14:26:06.002Z</time></trkpt><trkpt lat="43.46768744561888" lon="10.686014472712644"><ele>121.99999999999999</ele><time>2026-04-18T14:26:07.002Z</time></trkpt><trkpt lat="43.467723293786214" lon="10.686160798199893"><ele>121.99999999999999</ele><time>2026-04-18T14:26:09.002Z</time></trkpt><trkpt lat="43.46772810519564" lon="10.686264506403637"><ele>122.0</ele><time>2026-04-18T14:26:10.002Z</time></trkpt><trkpt lat="43.46774065358715" lon="10.686355780604389"><ele>122.0</ele><time>2026-04-18T14:26:11.002Z</time></trkpt><trkpt lat="43.46777537904076" lon="10.686513729685744"><ele>122.66666666666666</ele><time>2026-04-18T14:26:13.002Z</time></trkpt><trkpt lat="43.46776617644175" lon="10.686646507375576"><ele>123.33333333333333</ele><time>2026-04-18T14:26:14.002Z</time></trkpt><trkpt lat="43.467760222693215" lon="10.686740391298365"><ele>124.0</ele><time>2026-04-18T14:26:15.002Z</time></trkpt><trkpt lat="43.46775253955111" lon="10.686902196775314"><ele>124.66666666666666</ele><time>2026-04-18T14:26:17.002Z</time></trkpt><trkpt lat="43.46772213708334" lon="10.686981360027803"><ele>125.33333333333333</ele><time>2026-04-18T14:26:18.002Z</time></trkpt><trkpt lat="43.467729721357976" lon="10.687119033872523"><ele>126.0</ele><time>2026-04-18T14:26:19.002Z</time></trkpt><trkpt lat="43.46773730549776" lon="10.687249672815243"><ele>126.0</ele><time>2026-04-18T14:26:20.002Z</time></trkpt><trkpt lat="43.46775855234247" lon="10.687377943069789"><ele>126.0</ele><time>2026-04-18T14:26:22.002Z</time></trkpt><trkpt lat="43.467753943161604" lon="10.68748911788793"><ele>126.0</ele><time>2026-04-18T14:26:23.002Z</time></trkpt><trkpt lat="43.467783868432484" lon="10.687616349612586"><ele>126.0</ele><time>2026-04-18T14:26:24.002Z</time></trkpt><trkpt lat="43.467823380962656" lon="10.687756826382019"><ele>126.0</ele><time>2026-04-18T14:26:25.002Z</time></trkpt><trkpt lat="43.46787493607864" lon="10.687829643753139"><ele>125.83333333333333</ele><time>2026-04-18T14:26:27.002Z</time></trkpt><trkpt lat="43.467888218911675" lon="10.687931079154529"><ele>125.66666666666666</ele><time>2026-04-18T14:26:27.999Z</time></trkpt><trkpt lat="43.467915246648246" lon="10.688019899017279"><ele>125.5</ele><time>2026-04-18T14:26:28.999Z</time></trkpt><trkpt lat="43.467915148393494" lon="10.688117470890706"><ele>125.33333333333333</ele><time>2026-04-18T14:26:29.999Z</time></trkpt><trkpt lat="43.46795989501082" lon="10.688230770413103"><ele>125.16666666666666</ele><time>2026-04-18T14:26:31.999Z</time></trkpt><trkpt lat="43.4680370819087" lon="10.688340935907023"><ele>125.0</ele><time>2026-04-18T14:26:33.999Z</time></trkpt><trkpt lat="43.46805443441114" lon="10.688449713741308"><ele>122.99999999999999</ele><time>2026-04-18T14:26:46.999Z</time></trkpt><trkpt lat="43.4680923622688" lon="10.688558765075776"><ele>121.0</ele><time>2026-04-18T14:26:48.999Z</time></trkpt><trkpt lat="43.46815246492043" lon="10.688637579242446"><ele>119.0</ele><time>2026-04-18T14:26:49.999Z</time></trkpt><trkpt lat="43.46821887568913" lon="10.688726703165333"><ele>117.0</ele><time>2026-04-18T14:26:51Z</time></trkpt><trkpt lat="43.46826170093413" lon="10.68881859920488"><ele>114.99999999999999</ele><time>2026-04-18T14:26:52Z</time></trkpt><trkpt lat="43.46828508766329" lon="10.688911338208145"><ele>113.0</ele><time>2026-04-18T14:26:53Z</time></trkpt><trkpt lat="43.46829754204391" lon="10.689026421544286"><ele>112.99999999999999</ele><time>2026-04-18T14:26:54Z</time></trkpt><trkpt lat="43.468315165235275" lon="10.689124386638195"><ele>113.0</ele><time>2026-04-18T14:26:55Z</time></trkpt><trkpt lat="43.46834932408615" lon="10.689231094628065"><ele>113.0</ele><time>2026-04-18T14:26:56Z</time></trkpt><trkpt lat="43.468376652557026" lon="10.689337895395395"><ele>113.0</ele><time>2026-04-18T14:26:57Z</time></trkpt><trkpt lat="43.46845832688859" lon="10.689456441539212"><ele>112.99999999999999</ele><time>2026-04-18T14:26:59Z</time></trkpt><trkpt lat="43.468499719337196" lon="10.689537705582723"><ele>113.0</ele><time>2026-04-18T14:27:00Z</time></trkpt><trkpt lat="43.46855196613285" lon="10.689718921153194"><ele>113.0</ele><time>2026-04-18T14:27:02Z</time></trkpt><trkpt lat="43.468579794164654" lon="10.689820146414585"><ele>113.0</ele><time>2026-04-18T14:27:03Z</time></trkpt><trkpt lat="43.468626110073" lon="10.689883304039022"><ele>113.0</ele><time>2026-04-18T14:27:04Z</time></trkpt><trkpt lat="43.46868525221526" lon="10.689943033597174"><ele>113.0</ele><time>2026-04-18T14:27:05Z</time></trkpt><trkpt lat="43.46872763414467" lon="10.690019328441764"><ele>113.0</ele><time>2026-04-18T14:27:06Z</time></trkpt><trkpt lat="43.468767118158425" lon="10.690114645334974"><ele>113.0</ele><time>2026-04-18T14:27:07Z</time></trkpt><trkpt lat="43.468809580004084" lon="10.690181816787177"><ele>113.0</ele><time>2026-04-18T14:27:08Z</time></trkpt><trkpt lat="43.46885865450715" lon="10.690281711498882"><ele>112.33333333333333</ele><time>2026-04-18T14:27:09Z</time></trkpt><trkpt lat="43.46889182570547" lon="10.690374704149571"><ele>111.66666666666666</ele><time>2026-04-18T14:27:10Z</time></trkpt><trkpt lat="43.46892606666147" lon="10.69048849532566"><ele>111.0</ele><time>2026-04-18T14:27:11Z</time></trkpt><trkpt lat="43.468959231600884" lon="10.690572586480137"><ele>110.33333333333334</ele><time>2026-04-18T14:27:12Z</time></trkpt><trkpt lat="43.46903557155265" lon="10.690677234628227"><ele>109.66666666666667</ele><time>2026-04-18T14:27:14Z</time></trkpt><trkpt lat="43.469096179460976" lon="10.690767004814608"><ele>109.0</ele><time>2026-04-18T14:27:15Z</time></trkpt><trkpt lat="43.4691326739994" lon="10.690889023639253"><ele>109.00000000000001</ele><time>2026-04-18T14:27:16Z</time></trkpt><trkpt lat="43.46914502648118" lon="10.691004351113252"><ele>109.0</ele><time>2026-04-18T14:27:17Z</time></trkpt><trkpt lat="43.46917149675848" lon="10.691130196444474"><ele>109.0</ele><time>2026-04-18T14:27:18Z</time></trkpt><trkpt lat="43.46921818179479" lon="10.691240671425518"><ele>109.0</ele><time>2026-04-18T14:27:19Z</time></trkpt><trkpt lat="43.46926414240991" lon="10.691337692250498"><ele>109.00000000000001</ele><time>2026-04-18T14:27:20Z</time></trkpt><trkpt lat="43.469306848597824" lon="10.691413183875106"><ele>109.0</ele><time>2026-04-18T14:27:21Z</time></trkpt><trkpt lat="43.46937515706508" lon="10.691425228275776"><ele>109.0</ele><time>2026-04-18T14:27:33.001Z</time></trkpt><trkpt lat="43.469437354231125" lon="10.691310726433327"><ele>109.0</ele><time>2026-04-18T14:27:35.001Z</time></trkpt><trkpt lat="43.46950260239541" lon="10.691164555519613"><ele>109.0</ele><time>2026-04-18T14:27:37.001Z</time></trkpt><trkpt lat="43.46953792351263" lon="10.6909772659987"><ele>109.0</ele><time>2026-04-18T14:27:39.001Z</time></trkpt><trkpt lat="43.469551552572156" lon="10.690866991390553"><ele>109.00000000000001</ele><time>2026-04-18T14:27:40.001Z</time></trkpt><trkpt lat="43.469578965494364" lon="10.690748032250493"><ele>109.0</ele><time>2026-04-18T14:27:41.001Z</time></trkpt><trkpt lat="43.46962524336273" lon="10.69063732709524"><ele>109.0</ele><time>2026-04-18T14:27:43.001Z</time></trkpt><trkpt lat="43.46965241147562" lon="10.690553324695317"><ele>109.0</ele><time>2026-04-18T14:27:44.001Z</time></trkpt><trkpt lat="43.46971033401981" lon="10.69045033644888"><ele>109.00000000000001</ele><time>2026-04-18T14:27:47.001Z</time></trkpt><trkpt lat="43.469747522020995" lon="10.690528369533789"><ele>109.0</ele><time>2026-04-18T14:27:48.001Z</time></trkpt><trkpt lat="43.469832293423046" lon="10.690591105723664"><ele>108.5</ele><time>2026-04-18T14:27:52.001Z</time></trkpt><trkpt lat="43.469914031094156" lon="10.690595145981467"><ele>108.0</ele><time>2026-04-18T14:27:53.001Z</time></trkpt><trkpt lat="43.46997637741103" lon="10.69030100916379"><ele>107.5</ele><time>2026-04-18T14:27:56.001Z</time></trkpt><trkpt lat="43.47007701308766" lon="10.690257792368852"><ele>107.0</ele><time>2026-04-18T14:27:58.001Z</time></trkpt><trkpt lat="43.47016975102317" lon="10.69019185567638"><ele>106.99999999999999</ele><time>2026-04-18T14:28:00.001Z</time></trkpt><trkpt lat="43.47027023737934" lon="10.690109303224485"><ele>107.0</ele><time>2026-04-18T14:28:02.001Z</time></trkpt><trkpt lat="43.47031920845935" lon="10.690171085162959"><ele>107.0</ele><time>2026-04-18T14:28:05.001Z</time></trkpt><trkpt lat="43.47033913609638" lon="10.690271346757013"><ele>107.0</ele><time>2026-04-18T14:28:08.001Z</time></trkpt><trkpt lat="43.47038205265781" lon="10.690382446408554"><ele>106.99999999999999</ele><time>2026-04-18T14:28:10.002Z</time></trkpt><trkpt lat="43.47043813705804" lon="10.690457367330342"><ele>107.0</ele><time>2026-04-18T14:28:12.002Z</time></trkpt><trkpt lat="43.470548891491234" lon="10.690366120157957"><ele>107.0</ele><time>2026-04-18T14:28:15.002Z</time></trkpt><trkpt lat="43.470478659005664" lon="10.690426984076955"><ele>106.99999999999999</ele><time>2026-04-18T14:29:03Z</time></trkpt><trkpt lat="43.470371527231194" lon="10.69027822421598"><ele>106.99999999999999</ele><time>2026-04-18T14:29:06Z</time></trkpt><trkpt lat="43.47034730950015" lon="10.690193552972522"><ele>107.0</ele><time>2026-04-18T14:29:08Z</time></trkpt><trkpt lat="43.47029837561986" lon="10.69013246734157"><ele>107.0</ele><time>2026-04-18T14:29:11Z</time></trkpt><trkpt lat="43.47020494294283" lon="10.690121456136866"><ele>107.0</ele><time>2026-04-18T14:29:36.001Z</time></trkpt><trkpt lat="43.47013168279912" lon="10.690162856726795"><ele>106.99999999999999</ele><time>2026-04-18T14:29:38.001Z</time></trkpt><trkpt lat="43.4700744959496" lon="10.690206416644056"><ele>106.99999999999999</ele><time>2026-04-18T14:29:40.001Z</time></trkpt><trkpt lat="43.469994023512825" lon="10.690291544430746"><ele>107.0</ele><time>2026-04-18T14:29:42.001Z</time></trkpt><trkpt lat="43.4699346558573" lon="10.690510181923159"><ele>107.0</ele><time>2026-04-18T14:29:44.001Z</time></trkpt><trkpt lat="43.46972354298221" lon="10.690521748534168"><ele>106.83333333333333</ele><time>2026-04-18T14:29:48.001Z</time></trkpt><trkpt lat="43.46965974370717" lon="10.690522705155617"><ele>106.66666666666666</ele><time>2026-04-18T14:29:49.001Z</time></trkpt><trkpt lat="43.469607862481716" lon="10.690606475121701"><ele>106.5</ele><time>2026-04-18T14:29:58.002Z</time></trkpt><trkpt lat="43.46957324467329" lon="10.690532204351907"><ele>106.33333333333334</ele><time>2026-04-18T14:30:11.002Z</time></trkpt><trkpt lat="43.469577153940044" lon="10.6903832644968"><ele>106.16666666666667</ele><time>2026-04-18T14:30:13.002Z</time></trkpt><trkpt lat="43.46961477320974" lon="10.690306631658562"><ele>106.0</ele><time>2026-04-18T14:30:15.002Z</time></trkpt><trkpt lat="43.469687427312614" lon="10.690292700009056"><ele>106.0</ele><time>2026-04-18T14:30:23.002Z</time></trkpt><trkpt lat="43.46980643974577" lon="10.69032224731667"><ele>106.0</ele><time>2026-04-18T14:31:59.002Z</time></trkpt><trkpt lat="43.4698477088629" lon="10.690591867704276"><ele>106.0</ele><time>2026-04-18T14:32:00.002Z</time></trkpt><trkpt lat="43.46994624030654" lon="10.690308677144339"><ele>106.0</ele><time>2026-04-18T14:32:02.002Z</time></trkpt><trkpt lat="43.47004462476728" lon="10.690260891432569"><ele>106.0</ele><time>2026-04-18T14:32:04.002Z</time></trkpt><trkpt lat="43.47013030458436" lon="10.690213169093255"><ele>106.0</ele><time>2026-04-18T14:32:06.002Z</time></trkpt><trkpt lat="43.470236227980685" lon="10.690136318530547"><ele>106.0</ele><time>2026-04-18T14:32:08.002Z</time></trkpt><trkpt lat="43.470117110924775" lon="10.690245748707497"><ele>106.0</ele><time>2026-04-18T14:32:26.002Z</time></trkpt><trkpt lat="43.47004476873" lon="10.690286723554038"><ele>106.0</ele><time>2026-04-18T14:32:28.002Z</time></trkpt><trkpt lat="43.46993940000205" lon="10.690327535815374"><ele>106.0</ele><time>2026-04-18T14:32:30.003Z</time></trkpt><trkpt lat="43.46983695061986" lon="10.690332222529397"><ele>106.0</ele><time>2026-04-18T14:32:32.003Z</time></trkpt><trkpt lat="43.46972081812661" lon="10.690338174894126"><ele>106.0</ele><time>2026-04-18T14:32:34.003Z</time></trkpt><trkpt lat="43.469656270684006" lon="10.6903305157741"><ele>106.00000000000001</ele><time>2026-04-18T14:32:35.003Z</time></trkpt><trkpt lat="43.469560234982794" lon="10.690403975029499"><ele>106.0</ele><time>2026-04-18T14:32:37.003Z</time></trkpt><trkpt lat="43.46957312202819" lon="10.690511855613716"><ele>106.0</ele><time>2026-04-18T14:32:40.003Z</time></trkpt><trkpt lat="43.469591821005324" lon="10.690670840852071"><ele>106.0</ele><time>2026-04-18T14:32:42.003Z</time></trkpt><trkpt lat="43.46956400752374" lon="10.690757774237639"><ele>106.00000000000001</ele><time>2026-04-18T14:32:44.003Z</time></trkpt><trkpt lat="43.46963591787703" lon="10.690749371896848"><ele>106.0</ele><time>2026-04-18T14:32:47.001Z</time></trkpt><trkpt lat="43.46965723138748" lon="10.690632630757795"><ele>106.0</ele><time>2026-04-18T14:32:50.001Z</time></trkpt><trkpt lat="43.46960785029032" lon="10.690523460026975"><ele>106.0</ele><time>2026-04-18T14:32:52.001Z</time></trkpt><trkpt lat="43.469575198202385" lon="10.690446797451532"><ele>106.0</ele><time>2026-04-18T14:32:54.001Z</time></trkpt><trkpt lat="43.469623762521586" lon="10.690322078731148"><ele>106.0</ele><time>2026-04-18T14:32:57.001Z</time></trkpt><trkpt lat="43.46972033889915" lon="10.690588983443824"><ele>106.0</ele><time>2026-04-18T14:32:59.001Z</time></trkpt><trkpt lat="43.46989452459346" lon="10.69058310283758"><ele>106.0</ele><time>2026-04-18T14:33:08.001Z</time></trkpt><trkpt lat="43.47003162896023" lon="10.690306176720805"><ele>106.0</ele><time>2026-04-18T14:33:10.001Z</time></trkpt><trkpt lat="43.4700766583962" lon="10.690245421283702"><ele>106.0</ele><time>2026-04-18T14:33:11.001Z</time></trkpt><trkpt lat="43.470182553353496" lon="10.690185141135995"><ele>106.0</ele><time>2026-04-18T14:33:14.001Z</time></trkpt><trkpt lat="43.47023882133045" lon="10.69014504350392"><ele>106.0</ele><time>2026-04-18T14:33:15.001Z</time></trkpt><trkpt lat="43.47033633212092" lon="10.690158829513944"><ele>106.0</ele><time>2026-04-18T14:33:17.001Z</time></trkpt><trkpt lat="43.47034136891555" lon="10.690258493816142"><ele>106.0</ele><time>2026-04-18T14:33:19.001Z</time></trkpt><trkpt lat="43.47039202228336" lon="10.690392875573071"><ele>106.0</ele><time>2026-04-18T14:33:21.001Z</time></trkpt><trkpt lat="43.4704401469366" lon="10.690460250498544"><ele>106.0</ele><time>2026-04-18T14:33:24.001Z</time></trkpt><trkpt lat="43.4705574264711" lon="10.690352208979665"><ele>106.0</ele><time>2026-04-18T14:33:46.001Z</time></trkpt><trkpt lat="43.47064048440783" lon="10.690232378679628"><ele>106.0</ele><time>2026-04-18T14:33:48.001Z</time></trkpt><trkpt lat="43.470687814411086" lon="10.690148578583868"><ele>106.0</ele><time>2026-04-18T14:34:02.002Z</time></trkpt><trkpt lat="43.47073043574594" lon="10.690071487205406"><ele>106.50000000000001</ele><time>2026-04-18T14:34:03.002Z</time></trkpt><trkpt lat="43.47077554390298" lon="10.689995235571091"><ele>107.0</ele><time>2026-04-18T14:34:04.002Z</time></trkpt><trkpt lat="43.47083389342567" lon="10.68993917202417"><ele>107.5</ele><time>2026-04-18T14:34:05.002Z</time></trkpt><trkpt lat="43.47088060900183" lon="10.689857874631066"><ele>108.0</ele><time>2026-04-18T14:34:06.002Z</time></trkpt><trkpt lat="43.470986688351516" lon="10.689781383915532"><ele>108.50000000000001</ele><time>2026-04-18T14:34:07.002Z</time></trkpt><trkpt lat="43.47103851181263" lon="10.689688023663907"><ele>109.0</ele><time>2026-04-18T14:34:08.002Z</time></trkpt><trkpt lat="43.471101285154916" lon="10.689610425440627"><ele>109.00000000000001</ele><time>2026-04-18T14:34:09.002Z</time></trkpt><trkpt lat="43.471139830917906" lon="10.689535585982027"><ele>109.0</ele><time>2026-04-18T14:34:10.002Z</time></trkpt><trkpt lat="43.47122708361677" lon="10.689410925131043"><ele>109.0</ele><time>2026-04-18T14:34:12.002Z</time></trkpt><trkpt lat="43.47127058808934" lon="10.689347642028071"><ele>109.0</ele><time>2026-04-18T14:34:13.002Z</time></trkpt><trkpt lat="43.47132102349459" lon="10.689266150175715"><ele>109.00000000000001</ele><time>2026-04-18T14:34:14.002Z</time></trkpt><trkpt lat="43.471376737725656" lon="10.689190776659913"><ele>109.0</ele><time>2026-04-18T14:34:15.002Z</time></trkpt><trkpt lat="43.47145476122877" lon="10.689102028085426"><ele>109.0</ele><time>2026-04-18T14:34:16.002Z</time></trkpt><trkpt lat="43.47152662153283" lon="10.68900076365422"><ele>109.0</ele><time>2026-04-18T14:34:17.002Z</time></trkpt><trkpt lat="43.47158932871774" lon="10.688896478446466"><ele>109.0</ele><time>2026-04-18T14:34:18.002Z</time></trkpt><trkpt lat="43.47166721111416" lon="10.688779226755809"><ele>109.0</ele><time>2026-04-18T14:34:19.002Z</time></trkpt><trkpt lat="43.47176190550089" lon="10.688637885512389"><ele>109.0</ele><time>2026-04-18T14:34:20.002Z</time></trkpt><trkpt lat="43.47187180612939" lon="10.688478558419876"><ele>109.0</ele><time>2026-04-18T14:34:21.002Z</time></trkpt><trkpt lat="43.471961938848885" lon="10.688348023294754"><ele>109.0</ele><time>2026-04-18T14:34:22.002Z</time></trkpt><trkpt lat="43.472037052197706" lon="10.688239238234427"><ele>109.0</ele><time>2026-04-18T14:34:23.002Z</time></trkpt><trkpt lat="43.472097434093584" lon="10.688149874416219"><ele>109.2</ele><time>2026-04-18T14:34:24.002Z</time></trkpt><trkpt lat="43.47215421082121" lon="10.688074232887509"><ele>109.4</ele><time>2026-04-18T14:34:25.002Z</time></trkpt><trkpt lat="43.472286583334885" lon="10.687928747235114"><ele>109.6</ele><time>2026-04-18T14:34:28.002Z</time></trkpt><trkpt lat="43.472377860138664" lon="10.688041608335574"><ele>109.8</ele><time>2026-04-18T14:34:31.002Z</time></trkpt><trkpt lat="43.47241782532484" lon="10.688127035183497"><ele>110.0</ele><time>2026-04-18T14:34:32.002Z</time></trkpt><trkpt lat="43.47246730202628" lon="10.688209209414396"><ele>110.0</ele><time>2026-04-18T14:34:33.002Z</time></trkpt><trkpt lat="43.47250895748927" lon="10.688308543950646"><ele>110.0</ele><time>2026-04-18T14:34:34.002Z</time></trkpt><trkpt lat="43.47254603678347" lon="10.688396770403504"><ele>110.0</ele><time>2026-04-18T14:34:35.002Z</time></trkpt><trkpt lat="43.472610771443094" lon="10.688573601913719"><ele>110.0</ele><time>2026-04-18T14:34:37.002Z</time></trkpt><trkpt lat="43.47265832490326" lon="10.688687341438882"><ele>110.0</ele><time>2026-04-18T14:34:38.002Z</time></trkpt><trkpt lat="43.472693055691316" lon="10.688779229654967"><ele>109.66666666666666</ele><time>2026-04-18T14:34:39.002Z</time></trkpt><trkpt lat="43.47272896133786" lon="10.68887164231424"><ele>109.33333333333333</ele><time>2026-04-18T14:34:40.002Z</time></trkpt><trkpt lat="43.472766290950986" lon="10.688964380043059"><ele>109.0</ele><time>2026-04-18T14:34:41.002Z</time></trkpt><trkpt lat="43.47280334148409" lon="10.68905908095928"><ele>108.66666666666666</ele><time>2026-04-18T14:34:42.002Z</time></trkpt><trkpt lat="43.472841161283654" lon="10.689150708338595"><ele>108.33333333333333</ele><time>2026-04-18T14:34:43.003Z</time></trkpt><trkpt lat="43.472878345255886" lon="10.689243695472216"><ele>108.0</ele><time>2026-04-18T14:34:44.003Z</time></trkpt><trkpt lat="43.47292135507804" lon="10.689345017938459"><ele>108.66666666666667</ele><time>2026-04-18T14:34:45.003Z</time></trkpt><trkpt lat="43.47296400222603" lon="10.689454189766877"><ele>109.33333333333334</ele><time>2026-04-18T14:34:46.003Z</time></trkpt><trkpt lat="43.47300382175216" lon="10.689563832372244"><ele>110.0</ele><time>2026-04-18T14:34:47.003Z</time></trkpt><trkpt lat="43.47304374763644" lon="10.689669595490434"><ele>110.66666666666667</ele><time>2026-04-18T14:34:48.003Z</time></trkpt><trkpt lat="43.47308504347816" lon="10.689774627835925"><ele>111.33333333333334</ele><time>2026-04-18T14:34:49.003Z</time></trkpt><trkpt lat="43.47312644494636" lon="10.689876053636295"><ele>112.0</ele><time>2026-04-18T14:34:50.003Z</time></trkpt><trkpt lat="43.47316582971973" lon="10.689980883059576"><ele>112.00000000000001</ele><time>2026-04-18T14:34:51.003Z</time></trkpt><trkpt lat="43.47320429926868" lon="10.690087055635946"><ele>112.0</ele><time>2026-04-18T14:34:52.001Z</time></trkpt><trkpt lat="43.473243250359246" lon="10.690191286630094"><ele>112.0</ele><time>2026-04-18T14:34:53.001Z</time></trkpt><trkpt lat="43.47328469474878" lon="10.690295728960582"><ele>112.0</ele><time>2026-04-18T14:34:54.001Z</time></trkpt><trkpt lat="43.473325704109364" lon="10.690395253636506"><ele>112.00000000000001</ele><time>2026-04-18T14:34:55.001Z</time></trkpt><trkpt lat="43.47336910111573" lon="10.690496412568454"><ele>112.0</ele><time>2026-04-18T14:34:56.001Z</time></trkpt><trkpt lat="43.47340969991252" lon="10.690602571075233"><ele>111.19999999999999</ele><time>2026-04-18T14:34:57.001Z</time></trkpt><trkpt lat="43.47345006543405" lon="10.690712823993579"><ele>110.39999999999999</ele><time>2026-04-18T14:34:58.001Z</time></trkpt><trkpt lat="43.47348858077429" lon="10.690827355884837"><ele>109.60000000000001</ele><time>2026-04-18T14:34:59.001Z</time></trkpt><trkpt lat="43.4735273679294" lon="10.690943597901782"><ele>108.80000000000001</ele><time>2026-04-18T14:35:00.001Z</time></trkpt><trkpt lat="43.47357179749022" lon="10.691059036509337"><ele>108.0</ele><time>2026-04-18T14:35:01.001Z</time></trkpt><trkpt lat="43.47361643914163" lon="10.691179712319286"><ele>108.0</ele><time>2026-04-18T14:35:02.001Z</time></trkpt><trkpt lat="43.47366351527417" lon="10.691297482675866"><ele>108.00000000000001</ele><time>2026-04-18T14:35:03.001Z</time></trkpt><trkpt lat="43.473708814371" lon="10.691417899387135"><ele>108.00000000000001</ele><time>2026-04-18T14:35:04.001Z</time></trkpt><trkpt lat="43.47375390484818" lon="10.691536282267434"><ele>108.0</ele><time>2026-04-18T14:35:05.001Z</time></trkpt><trkpt lat="43.473798640769104" lon="10.691656988392998"><ele>108.0</ele><time>2026-04-18T14:35:06.001Z</time></trkpt><trkpt lat="43.47384330442795" lon="10.691772460565073"><ele>108.25</ele><time>2026-04-18T14:35:07.001Z</time></trkpt><trkpt lat="43.47389189147564" lon="10.691896766078784"><ele>108.5</ele><time>2026-04-18T14:35:08.001Z</time></trkpt><trkpt lat="43.47395007282501" lon="10.692040948860177"><ele>108.75</ele><time>2026-04-18T14:35:09.001Z</time></trkpt><trkpt lat="43.474010612812584" lon="10.692203983565834"><ele>109.0</ele><time>2026-04-18T14:35:10.001Z</time></trkpt><trkpt lat="43.47407175982301" lon="10.692362620085134"><ele>109.0</ele><time>2026-04-18T14:35:11.001Z</time></trkpt><trkpt lat="43.474140651038795" lon="10.692542471800635"><ele>109.0</ele><time>2026-04-18T14:35:12.001Z</time></trkpt><trkpt lat="43.47421341809858" lon="10.692733574230935"><ele>109.0</ele><time>2026-04-18T14:35:13.001Z</time></trkpt><trkpt lat="43.47428868467126" lon="10.692927984828293"><ele>108.0</ele><time>2026-04-18T14:35:14.001Z</time></trkpt><trkpt lat="43.47436732063011" lon="10.693130330454245"><ele>107.0</ele><time>2026-04-18T14:35:15.001Z</time></trkpt><trkpt lat="43.47444500331001" lon="10.693338679483377"><ele>106.0</ele><time>2026-04-18T14:35:16.001Z</time></trkpt><trkpt lat="43.47452362279733" lon="10.693550072238232"><ele>105.33333333333334</ele><time>2026-04-18T14:35:17.001Z</time></trkpt><trkpt lat="43.47459575168264" lon="10.69374682196767"><ele>104.66666666666666</ele><time>2026-04-18T14:35:18.001Z</time></trkpt><trkpt lat="43.47467543075105" lon="10.693954228506335"><ele>104.0</ele><time>2026-04-18T14:35:19.001Z</time></trkpt><trkpt lat="43.474760420145344" lon="10.694167421411585"><ele>104.0</ele><time>2026-04-18T14:35:20.001Z</time></trkpt><trkpt lat="43.47485325355471" lon="10.694392109032187"><ele>104.0</ele><time>2026-04-18T14:35:21.001Z</time></trkpt><trkpt lat="43.47494987973231" lon="10.694601732656995"><ele>104.0</ele><time>2026-04-18T14:35:22.001Z</time></trkpt><trkpt lat="43.47505701772456" lon="10.694813563537323"><ele>104.0</ele><time>2026-04-18T14:35:23.001Z</time></trkpt><trkpt lat="43.47517301780903" lon="10.69502038138359"><ele>104.0</ele><time>2026-04-18T14:35:24.001Z</time></trkpt><trkpt lat="43.47529602797754" lon="10.695230547498104"><ele>104.0</ele><time>2026-04-18T14:35:25.001Z</time></trkpt><trkpt lat="43.475422981074566" lon="10.695450516642193"><ele>104.66666666666666</ele><time>2026-04-18T14:35:26.001Z</time></trkpt><trkpt lat="43.47554903348169" lon="10.695672115454395"><ele>105.33333333333334</ele><time>2026-04-18T14:35:27.001Z</time></trkpt><trkpt lat="43.47567522794651" lon="10.695899973761689"><ele>106.0</ele><time>2026-04-18T14:35:28.001Z</time></trkpt><trkpt lat="43.47579654777998" lon="10.696126018359527"><ele>104.66666666666667</ele><time>2026-04-18T14:35:29.001Z</time></trkpt><trkpt lat="43.47592477224014" lon="10.696363077361909"><ele>103.33333333333334</ele><time>2026-04-18T14:35:30.001Z</time></trkpt><trkpt lat="43.47605276509526" lon="10.696585279244921"><ele>102.0</ele><time>2026-04-18T14:35:31.001Z</time></trkpt><trkpt lat="43.47618840836637" lon="10.696814431583052"><ele>101.33333333333334</ele><time>2026-04-18T14:35:32.001Z</time></trkpt><trkpt lat="43.476331511171786" lon="10.697030661904599"><ele>100.66666666666667</ele><time>2026-04-18T14:35:33.001Z</time></trkpt><trkpt lat="43.47647187987986" lon="10.697227470556909"><ele>100.0</ele><time>2026-04-18T14:35:34.001Z</time></trkpt><trkpt lat="43.476626643058985" lon="10.697429773843986"><ele>100.0</ele><time>2026-04-18T14:35:35.001Z</time></trkpt><trkpt lat="43.47678941003546" lon="10.697634760320513"><ele>100.0</ele><time>2026-04-18T14:35:36.001Z</time></trkpt><trkpt lat="43.4769568004674" lon="10.697848943196343"><ele>100.0</ele><time>2026-04-18T14:35:37.001Z</time></trkpt><trkpt lat="43.477120921371494" lon="10.69805995936399"><ele>98.66666666666667</ele><time>2026-04-18T14:35:38.001Z</time></trkpt><trkpt lat="43.47727695361956" lon="10.698261055551741"><ele>97.33333333333334</ele><time>2026-04-18T14:35:39.001Z</time></trkpt><trkpt lat="43.47743436534311" lon="10.698459873661045"><ele>96.0</ele><time>2026-04-18T14:35:40.001Z</time></trkpt><trkpt lat="43.477587923088045" lon="10.69865399869978"><ele>96.33333333333334</ele><time>2026-04-18T14:35:41.001Z</time></trkpt><trkpt lat="43.47774855955671" lon="10.6988541190599"><ele>96.66666666666667</ele><time>2026-04-18T14:35:42.001Z</time></trkpt><trkpt lat="43.47789982935256" lon="10.699048367401257"><ele>97.0</ele><time>2026-04-18T14:35:43.001Z</time></trkpt><trkpt lat="43.478062663961914" lon="10.699256458443068"><ele>96.66666666666667</ele><time>2026-04-18T14:35:44.001Z</time></trkpt><trkpt lat="43.47822064234166" lon="10.699457128764136"><ele>96.33333333333334</ele><time>2026-04-18T14:35:45.001Z</time></trkpt><trkpt lat="43.47837920491515" lon="10.69966323669345"><ele>96.0</ele><time>2026-04-18T14:35:46.001Z</time></trkpt><trkpt lat="43.478540188586656" lon="10.69987160266091"><ele>96.0</ele><time>2026-04-18T14:35:47.001Z</time></trkpt><trkpt lat="43.478699694811645" lon="10.700076611948669"><ele>96.0</ele><time>2026-04-18T14:35:48.001Z</time></trkpt><trkpt lat="43.47885320541541" lon="10.700271349750766"><ele>96.0</ele><time>2026-04-18T14:35:49.001Z</time></trkpt><trkpt lat="43.47900562431678" lon="10.70045789659724"><ele>95.0</ele><time>2026-04-18T14:35:50.001Z</time></trkpt><trkpt lat="43.479147227030424" lon="10.70063865217957"><ele>94.0</ele><time>2026-04-18T14:35:51.001Z</time></trkpt><trkpt lat="43.47928188276128" lon="10.70081063612841"><ele>93.0</ele><time>2026-04-18T14:35:52.001Z</time></trkpt><trkpt lat="43.47941054567264" lon="10.700972315787448"><ele>92.66666666666667</ele><time>2026-04-18T14:35:53.001Z</time></trkpt><trkpt lat="43.47953411639273" lon="10.701129267234078"><ele>92.33333333333334</ele><time>2026-04-18T14:35:54.001Z</time></trkpt><trkpt lat="43.47965607540503" lon="10.701285030260454"><ele>92.0</ele><time>2026-04-18T14:35:55.001Z</time></trkpt><trkpt lat="43.47977376025808" lon="10.701435380397891"><ele>92.0</ele><time>2026-04-18T14:35:56.001Z</time></trkpt><trkpt lat="43.479885534755674" lon="10.701579055753362"><ele>92.0</ele><time>2026-04-18T14:35:57.001Z</time></trkpt><trkpt lat="43.47999934175387" lon="10.70171995346105"><ele>92.0</ele><time>2026-04-18T14:35:58.001Z</time></trkpt><trkpt lat="43.48011741535959" lon="10.70187275712999"><ele>91.33333333333334</ele><time>2026-04-18T14:35:59.001Z</time></trkpt><trkpt lat="43.4802431299578" lon="10.702034552146834"><ele>90.66666666666667</ele><time>2026-04-18T14:36:00.001Z</time></trkpt><trkpt lat="43.48037272919416" lon="10.702199558353156"><ele>90.0</ele><time>2026-04-18T14:36:01.001Z</time></trkpt><trkpt lat="43.480504754038506" lon="10.702367398567322"><ele>90.0</ele><time>2026-04-18T14:36:02.001Z</time></trkpt><trkpt lat="43.480630197463434" lon="10.70252930468396"><ele>90.0</ele><time>2026-04-18T14:36:03.001Z</time></trkpt><trkpt lat="43.48076128316373" lon="10.702696189513398"><ele>90.0</ele><time>2026-04-18T14:36:04.001Z</time></trkpt><trkpt lat="43.480879170092905" lon="10.702840228533482"><ele>89.33333333333333</ele><time>2026-04-18T14:36:05.001Z</time></trkpt><trkpt lat="43.48099691314903" lon="10.702990023948482"><ele>88.66666666666666</ele><time>2026-04-18T14:36:06.001Z</time></trkpt><trkpt lat="43.48112059962061" lon="10.703150154383493"><ele>88.0</ele><time>2026-04-18T14:36:07.001Z</time></trkpt><trkpt lat="43.48125626032251" lon="10.703319399248885"><ele>88.66666666666666</ele><time>2026-04-18T14:36:08.001Z</time></trkpt><trkpt lat="43.48139308148824" lon="10.703495486681051"><ele>89.33333333333333</ele><time>2026-04-18T14:36:09.001Z</time></trkpt><trkpt lat="43.48153586943715" lon="10.703670921051527"><ele>90.0</ele><time>2026-04-18T14:36:10.001Z</time></trkpt><trkpt lat="43.481678389318844" lon="10.703857639571664"><ele>90.0</ele><time>2026-04-18T14:36:11.001Z</time></trkpt><trkpt lat="43.4818277340584" lon="10.70404454823904"><ele>90.0</ele><time>2026-04-18T14:36:12.001Z</time></trkpt><trkpt lat="43.48196329531318" lon="10.70424155237327"><ele>90.0</ele><time>2026-04-18T14:36:13.001Z</time></trkpt><trkpt lat="43.48211326115793" lon="10.704403130460792"><ele>90.33333333333333</ele><time>2026-04-18T14:36:14.001Z</time></trkpt><trkpt lat="43.482257650889345" lon="10.704593603318209"><ele>90.66666666666666</ele><time>2026-04-18T14:36:15.002Z</time></trkpt><trkpt lat="43.48240412361301" lon="10.704778281199275"><ele>91.0</ele><time>2026-04-18T14:36:16.002Z</time></trkpt><trkpt lat="43.482553030665656" lon="10.70497197852155"><ele>91.0</ele><time>2026-04-18T14:36:17.002Z</time></trkpt><trkpt lat="43.48270045541156" lon="10.70515510013856"><ele>91.0</ele><time>2026-04-18T14:36:18.002Z</time></trkpt><trkpt lat="43.482849910958" lon="10.705340408835822"><ele>91.0</ele><time>2026-04-18T14:36:19.002Z</time></trkpt><trkpt lat="43.482997867526464" lon="10.705514238073855"><ele>91.33333333333333</ele><time>2026-04-18T14:36:20.002Z</time></trkpt><trkpt lat="43.48314996401547" lon="10.705674245556898"><ele>91.66666666666667</ele><time>2026-04-18T14:36:21.002Z</time></trkpt><trkpt lat="43.48332339687782" lon="10.70583060526445"><ele>92.0</ele><time>2026-04-18T14:36:22.002Z</time></trkpt><trkpt lat="43.483503821480525" lon="10.705967870311879"><ele>90.33333333333334</ele><time>2026-04-18T14:36:23.002Z</time></trkpt><trkpt lat="43.48368056572792" lon="10.706092689970825"><ele>88.66666666666667</ele><time>2026-04-18T14:36:24.002Z</time></trkpt><trkpt lat="43.48385963065651" lon="10.706248341641954"><ele>87.0</ele><time>2026-04-18T14:36:25.002Z</time></trkpt><trkpt lat="43.48404092006366" lon="10.706386790769354"><ele>87.0</ele><time>2026-04-18T14:36:26.002Z</time></trkpt><trkpt lat="43.484227029223426" lon="10.70652674828615"><ele>87.0</ele><time>2026-04-18T14:36:27.002Z</time></trkpt><trkpt lat="43.48440935923472" lon="10.706643377154544"><ele>87.0</ele><time>2026-04-18T14:36:28.002Z</time></trkpt><trkpt lat="43.484587807680256" lon="10.70678107058169"><ele>87.0</ele><time>2026-04-18T14:36:29.002Z</time></trkpt><trkpt lat="43.48477380124041" lon="10.70691945544985"><ele>87.0</ele><time>2026-04-18T14:36:30.002Z</time></trkpt><trkpt lat="43.48494542014294" lon="10.707050977723245"><ele>87.0</ele><time>2026-04-18T14:36:31.002Z</time></trkpt><trkpt lat="43.4851127065812" lon="10.707178903748177"><ele>87.0</ele><time>2026-04-18T14:36:32.002Z</time></trkpt><trkpt lat="43.48527943781064" lon="10.707305570165303"><ele>87.0</ele><time>2026-04-18T14:36:33.002Z</time></trkpt><trkpt lat="43.48544221552869" lon="10.707429780372195"><ele>87.0</ele><time>2026-04-18T14:36:34.002Z</time></trkpt><trkpt lat="43.48560272012801" lon="10.707549999199136"><ele>85.66666666666667</ele><time>2026-04-18T14:36:35.002Z</time></trkpt><trkpt lat="43.4857604348405" lon="10.70767277358023"><ele>84.33333333333334</ele><time>2026-04-18T14:36:36.002Z</time></trkpt><trkpt lat="43.48590570644122" lon="10.707797283787446"><ele>83.0</ele><time>2026-04-18T14:36:37.002Z</time></trkpt><trkpt lat="43.48606480545689" lon="10.707918298241921"><ele>83.0</ele><time>2026-04-18T14:36:38.002Z</time></trkpt><trkpt lat="43.486217700114004" lon="10.708032982293801"><ele>83.0</ele><time>2026-04-18T14:36:39.002Z</time></trkpt><trkpt lat="43.48637525832955" lon="10.708155292680974"><ele>83.0</ele><time>2026-04-18T14:36:40.002Z</time></trkpt><trkpt lat="43.48653419698945" lon="10.708264482626433"><ele>83.66666666666667</ele><time>2026-04-18T14:36:41.002Z</time></trkpt><trkpt lat="43.48669651971701" lon="10.7083517980177"><ele>84.33333333333333</ele><time>2026-04-18T14:36:42.002Z</time></trkpt><trkpt lat="43.486887506863475" lon="10.708396342153959"><ele>85.0</ele><time>2026-04-18T14:36:43.002Z</time></trkpt><trkpt lat="43.48708203810017" lon="10.708416799908345"><ele>85.66666666666666</ele><time>2026-04-18T14:36:44.002Z</time></trkpt><trkpt lat="43.48727541017836" lon="10.708413735652547"><ele>86.33333333333333</ele><time>2026-04-18T14:36:45.002Z</time></trkpt><trkpt lat="43.487485751442684" lon="10.708402958640018"><ele>87.0</ele><time>2026-04-18T14:36:46.002Z</time></trkpt><trkpt lat="43.48769555016685" lon="10.708398183010647"><ele>87.0</ele><time>2026-04-18T14:36:47.002Z</time></trkpt><trkpt lat="43.487903992637186" lon="10.708399518942993"><ele>87.0</ele><time>2026-04-18T14:36:48.002Z</time></trkpt><trkpt lat="43.48811405926418" lon="10.708401573969008"><ele>87.0</ele><time>2026-04-18T14:36:49.002Z</time></trkpt><trkpt lat="43.488324058414435" lon="10.708407277531204"><ele>86.0</ele><time>2026-04-18T14:36:50.002Z</time></trkpt><trkpt lat="43.48851145714765" lon="10.708427918766859"><ele>85.0</ele><time>2026-04-18T14:36:51.002Z</time></trkpt><trkpt lat="43.48870042086229" lon="10.70850032236192"><ele>84.0</ele><time>2026-04-18T14:36:52.002Z</time></trkpt><trkpt lat="43.48888244846332" lon="10.708593214899873"><ele>83.33333333333333</ele><time>2026-04-18T14:36:53.002Z</time></trkpt><trkpt lat="43.48906913108377" lon="10.708697645628183"><ele>82.66666666666666</ele><time>2026-04-18T14:36:54.002Z</time></trkpt><trkpt lat="43.489262217689976" lon="10.708802394894775"><ele>82.0</ele><time>2026-04-18T14:36:55.002Z</time></trkpt><trkpt lat="43.48945382007236" lon="10.708916912453969"><ele>82.33333333333333</ele><time>2026-04-18T14:36:56.002Z</time></trkpt><trkpt lat="43.48964660083496" lon="10.709021898215793"><ele>82.66666666666667</ele><time>2026-04-18T14:36:57.002Z</time></trkpt><trkpt lat="43.489843413956" lon="10.709125963385375"><ele>83.0</ele><time>2026-04-18T14:36:58Z</time></trkpt><trkpt lat="43.490010855848354" lon="10.709219041047282"><ele>83.0</ele><time>2026-04-18T14:36:59Z</time></trkpt><trkpt lat="43.49013681276225" lon="10.709302766608094"><ele>83.0</ele><time>2026-04-18T14:37:00Z</time></trkpt><trkpt lat="43.490233563826536" lon="10.709371964175963"><ele>83.0</ele><time>2026-04-18T14:37:01Z</time></trkpt><trkpt lat="43.49031163479943" lon="10.709428284515988"><ele>83.0</ele><time>2026-04-18T14:37:02Z</time></trkpt><trkpt lat="43.490366472725384" lon="10.7094733312752"><ele>83.0</ele><time>2026-04-18T14:37:03Z</time></trkpt><trkpt lat="43.490425487690906" lon="10.709526399631107"><ele>83.0</ele><time>2026-04-18T14:37:05Z</time></trkpt><trkpt lat="43.49036641791965" lon="10.709470607060823"><ele>83.0</ele><time>2026-04-18T14:37:10Z</time></trkpt><trkpt lat="43.49036108061313" lon="10.709324137140717"><ele>83.0</ele><time>2026-04-18T14:37:11Z</time></trkpt><trkpt lat="43.490269605347116" lon="10.709336402233168"><ele>83.0</ele><time>2026-04-18T14:37:13Z</time></trkpt><trkpt lat="43.49019728406992" lon="10.709196535954018"><ele>83.0</ele><time>2026-04-18T14:37:30Z</time></trkpt><trkpt lat="43.49014215422087" lon="10.709141088702996"><ele>83.0</ele><time>2026-04-18T14:37:31Z</time></trkpt><trkpt lat="43.49006317262103" lon="10.70906740977701"><ele>83.0</ele><time>2026-04-18T14:37:32Z</time></trkpt><trkpt lat="43.48997670158293" lon="10.708968599232216"><ele>83.0</ele><time>2026-04-18T14:37:33Z</time></trkpt><trkpt lat="43.489889309511305" lon="10.708894103569355"><ele>83.0</ele><time>2026-04-18T14:37:34Z</time></trkpt><trkpt lat="43.48981611191116" lon="10.708816930682977"><ele>83.0</ele><time>2026-04-18T14:37:35Z</time></trkpt><trkpt lat="43.48975769053559" lon="10.708732697114174"><ele>83.0</ele><time>2026-04-18T14:37:36Z</time></trkpt><trkpt lat="43.48969996921858" lon="10.708601570799832"><ele>83.0</ele><time>2026-04-18T14:37:38Z</time></trkpt><trkpt lat="43.48969067098359" lon="10.708490994939803"><ele>83.0</ele><time>2026-04-18T14:37:39Z</time></trkpt><trkpt lat="43.48969254142383" lon="10.70836409351839"><ele>83.0</ele><time>2026-04-18T14:37:40Z</time></trkpt><trkpt lat="43.489706258966166" lon="10.7082407518352"><ele>83.0</ele><time>2026-04-18T14:37:41Z</time></trkpt><trkpt lat="43.48973467239349" lon="10.708122023992264"><ele>84.60000000000001</ele><time>2026-04-18T14:37:42Z</time></trkpt><trkpt lat="43.48978185565585" lon="10.70799557280293"><ele>86.2</ele><time>2026-04-18T14:37:43Z</time></trkpt><trkpt lat="43.48983622172906" lon="10.707878467752865"><ele>87.8</ele><time>2026-04-18T14:37:44Z</time></trkpt><trkpt lat="43.48989904502405" lon="10.707753687892774"><ele>89.4</ele><time>2026-04-18T14:37:45Z</time></trkpt><trkpt lat="43.48995554738143" lon="10.707627982821437"><ele>91.0</ele><time>2026-04-18T14:37:46Z</time></trkpt><trkpt lat="43.4900221297653" lon="10.707495994461066"><ele>91.0</ele><time>2026-04-18T14:37:47Z</time></trkpt><trkpt lat="43.49009336748294" lon="10.707333094290549"><ele>91.0</ele><time>2026-04-18T14:37:48Z</time></trkpt><trkpt lat="43.49015699409407" lon="10.707176084832925"><ele>91.0</ele><time>2026-04-18T14:37:49Z</time></trkpt><trkpt lat="43.49022538126646" lon="10.707028949145096"><ele>91.0</ele><time>2026-04-18T14:37:50Z</time></trkpt><trkpt lat="43.49030475764525" lon="10.706902437681553"><ele>91.0</ele><time>2026-04-18T14:37:51Z</time></trkpt><trkpt lat="43.49039973772077" lon="10.706774173252828"><ele>91.0</ele><time>2026-04-18T14:37:52Z</time></trkpt><trkpt lat="43.490491908274045" lon="10.706649791299009"><ele>91.0</ele><time>2026-04-18T14:37:53Z</time></trkpt><trkpt lat="43.49057432086277" lon="10.706517211244966"><ele>91.0</ele><time>2026-04-18T14:37:54Z</time></trkpt><trkpt lat="43.49063766681333" lon="10.706354052745027"><ele>93.0</ele><time>2026-04-18T14:37:55Z</time></trkpt><trkpt lat="43.490677693291815" lon="10.706186225776587"><ele>95.0</ele><time>2026-04-18T14:37:56Z</time></trkpt><trkpt lat="43.49072414386687" lon="10.706006076000298"><ele>97.0</ele><time>2026-04-18T14:37:57Z</time></trkpt><trkpt lat="43.49077201110237" lon="10.705818432999594"><ele>99.0</ele><time>2026-04-18T14:37:58.001Z</time></trkpt><trkpt lat="43.490819013463636" lon="10.70563988099448"><ele>99.5</ele><time>2026-04-18T14:37:59.001Z</time></trkpt><trkpt lat="43.49086439968932" lon="10.705461429498342"><ele>100.0</ele><time>2026-04-18T14:38:00.001Z</time></trkpt><trkpt lat="43.49090982016481" lon="10.705283279901856"><ele>100.5</ele><time>2026-04-18T14:38:01.001Z</time></trkpt><trkpt lat="43.490954969657636" lon="10.70512340231378"><ele>101.0</ele><time>2026-04-18T14:38:02.001Z</time></trkpt><trkpt lat="43.49099620519506" lon="10.70497975564717"><ele>101.5</ele><time>2026-04-18T14:38:03.001Z</time></trkpt><trkpt lat="43.49103937012071" lon="10.704804568102652"><ele>102.0</ele><time>2026-04-18T14:38:04.001Z</time></trkpt><trkpt lat="43.49108859738847" lon="10.704641640079346"><ele>102.5</ele><time>2026-04-18T14:38:05.001Z</time></trkpt><trkpt lat="43.491133872571275" lon="10.704472313873005"><ele>103.0</ele><time>2026-04-18T14:38:06.001Z</time></trkpt><trkpt lat="43.49118114174101" lon="10.704297250564181"><ele>103.25</ele><time>2026-04-18T14:38:07.001Z</time></trkpt><trkpt lat="43.49123228156607" lon="10.704105059730315"><ele>103.5</ele><time>2026-04-18T14:38:08.001Z</time></trkpt><trkpt lat="43.49128359090754" lon="10.703917360313337"><ele>103.75</ele><time>2026-04-18T14:38:09.001Z</time></trkpt><trkpt lat="43.49133005594959" lon="10.703748250636721"><ele>104.0</ele><time>2026-04-18T14:38:10.001Z</time></trkpt><trkpt lat="43.49138051192666" lon="10.703597688958501"><ele>106.33333333333333</ele><time>2026-04-18T14:38:11.001Z</time></trkpt><trkpt lat="43.491429553147334" lon="10.703369162524737"><ele>108.66666666666666</ele><time>2026-04-18T14:38:12.001Z</time></trkpt><trkpt lat="43.4914965160224" lon="10.703190284489764"><ele>111.0</ele><time>2026-04-18T14:38:13.001Z</time></trkpt><trkpt lat="43.49155691783803" lon="10.70301639453029"><ele>111.0</ele><time>2026-04-18T14:38:14.001Z</time></trkpt><trkpt lat="43.49162262338999" lon="10.702839442340018"><ele>111.0</ele><time>2026-04-18T14:38:15.001Z</time></trkpt><trkpt lat="43.49169248501544" lon="10.702669680929898"><ele>111.0</ele><time>2026-04-18T14:38:16.001Z</time></trkpt><trkpt lat="43.491753596554844" lon="10.702480905814708"><ele>111.0</ele><time>2026-04-18T14:38:17.001Z</time></trkpt><trkpt lat="43.491824019390044" lon="10.702299288071526"><ele>111.75</ele><time>2026-04-18T14:38:18.001Z</time></trkpt><trkpt lat="43.491881654559556" lon="10.702128392529737"><ele>112.5</ele><time>2026-04-18T14:38:19.001Z</time></trkpt><trkpt lat="43.49193827754941" lon="10.701949752711112"><ele>113.25</ele><time>2026-04-18T14:38:20.001Z</time></trkpt><trkpt lat="43.49198733238895" lon="10.701778566260526"><ele>114.0</ele><time>2026-04-18T14:38:21.001Z</time></trkpt><trkpt lat="43.49204145209561" lon="10.701596300311138"><ele>114.5</ele><time>2026-04-18T14:38:22.001Z</time></trkpt><trkpt lat="43.492089607246314" lon="10.701414364696523"><ele>115.0</ele><time>2026-04-18T14:38:23.001Z</time></trkpt><trkpt lat="43.49213076894891" lon="10.701232326931652"><ele>115.5</ele><time>2026-04-18T14:38:24.001Z</time></trkpt><trkpt lat="43.492159090273816" lon="10.701039358814034"><ele>116.0</ele><time>2026-04-18T14:38:25.001Z</time></trkpt><trkpt lat="43.492166970119214" lon="10.70084469196498"><ele>116.5</ele><time>2026-04-18T14:38:26.001Z</time></trkpt><trkpt lat="43.492150898600656" lon="10.70067180855029"><ele>117.0</ele><time>2026-04-18T14:38:27.001Z</time></trkpt><trkpt lat="43.492154377550534" lon="10.700512283963096"><ele>117.5</ele><time>2026-04-18T14:38:28.001Z</time></trkpt><trkpt lat="43.492148442475624" lon="10.700336717587712"><ele>118.0</ele><time>2026-04-18T14:38:29.001Z</time></trkpt><trkpt lat="43.492141497316474" lon="10.700070858968507"><ele>119.0</ele><time>2026-04-18T14:38:30.001Z</time></trkpt><trkpt lat="43.4921655526519" lon="10.699882497353581"><ele>120.0</ele><time>2026-04-18T14:38:31.001Z</time></trkpt><trkpt lat="43.49221339576162" lon="10.69970998255664"><ele>121.0</ele><time>2026-04-18T14:38:32.001Z</time></trkpt><trkpt lat="43.4922709327598" lon="10.699541288165975"><ele>122.0</ele><time>2026-04-18T14:38:33.001Z</time></trkpt><trkpt lat="43.49236121662368" lon="10.699400862990888"><ele>123.25</ele><time>2026-04-18T14:38:34.001Z</time></trkpt><trkpt lat="43.492408576175755" lon="10.699257648878206"><ele>124.5</ele><time>2026-04-18T14:38:35.001Z</time></trkpt><trkpt lat="43.492427097081" lon="10.69912803479747"><ele>125.75</ele><time>2026-04-18T14:38:36.001Z</time></trkpt><trkpt lat="43.4924356544086" lon="10.698969167529771"><ele>127.0</ele><time>2026-04-18T14:38:37.001Z</time></trkpt><trkpt lat="43.492458557082784" lon="10.698779419662305"><ele>127.0</ele><time>2026-04-18T14:38:38.001Z</time></trkpt><trkpt lat="43.492477608823194" lon="10.698596214945082"><ele>127.0</ele><time>2026-04-18T14:38:39.001Z</time></trkpt><trkpt lat="43.492526697106356" lon="10.69839978010795"><ele>127.0</ele><time>2026-04-18T14:38:40.001Z</time></trkpt><trkpt lat="43.492587376637466" lon="10.69822061683036"><ele>127.0</ele><time>2026-04-18T14:38:41.001Z</time></trkpt><trkpt lat="43.492627472142004" lon="10.698009587975172"><ele>128.0</ele><time>2026-04-18T14:38:42.001Z</time></trkpt><trkpt lat="43.49268955578053" lon="10.697825036258703"><ele>129.0</ele><time>2026-04-18T14:38:43.001Z</time></trkpt><trkpt lat="43.49274504867213" lon="10.697649025045012"><ele>130.0</ele><time>2026-04-18T14:38:44.001Z</time></trkpt><trkpt lat="43.492792108326064" lon="10.697506208722622"><ele>131.0</ele><time>2026-04-18T14:38:45.001Z</time></trkpt><trkpt lat="43.49284726227953" lon="10.697379924363934"><ele>130.75</ele><time>2026-04-18T14:38:46.001Z</time></trkpt><trkpt lat="43.492938091324724" lon="10.697285307145684"><ele>130.5</ele><time>2026-04-18T14:38:47.001Z</time></trkpt><trkpt lat="43.49302442612654" lon="10.69716685498647"><ele>130.25</ele><time>2026-04-18T14:38:48.001Z</time></trkpt><trkpt lat="43.49314205544158" lon="10.697061590389085"><ele>130.0</ele><time>2026-04-18T14:38:49.001Z</time></trkpt><trkpt lat="43.49325524840872" lon="10.696944800145202"><ele>130.8</ele><time>2026-04-18T14:38:50.001Z</time></trkpt><trkpt lat="43.49333839140022" lon="10.696856385860677"><ele>131.6</ele><time>2026-04-18T14:38:51.001Z</time></trkpt><trkpt lat="43.49343574314501" lon="10.696774204495437"><ele>132.4</ele><time>2026-04-18T14:38:52.001Z</time></trkpt><trkpt lat="43.49353182024038" lon="10.696679231938964"><ele>133.2</ele><time>2026-04-18T14:38:53.001Z</time></trkpt><trkpt lat="43.49361051862754" lon="10.696578227624894"><ele>134.0</ele><time>2026-04-18T14:38:54.001Z</time></trkpt><trkpt lat="43.493703171303835" lon="10.696495238355418"><ele>133.83333333333331</ele><time>2026-04-18T14:38:55.001Z</time></trkpt><trkpt lat="43.493779046335064" lon="10.696414881426648"><ele>133.66666666666666</ele><time>2026-04-18T14:38:56.001Z</time></trkpt><trkpt lat="43.49383826890801" lon="10.69634998839493"><ele>133.5</ele><time>2026-04-18T14:38:57.002Z</time></trkpt><trkpt lat="43.49390314970781" lon="10.69630501182992"><ele>133.33333333333334</ele><time>2026-04-18T14:38:58.002Z</time></trkpt><trkpt lat="43.49398920414647" lon="10.69619447589811"><ele>133.16666666666669</ele><time>2026-04-18T14:39:00.002Z</time></trkpt><trkpt lat="43.49404716821831" lon="10.69613070009497"><ele>133.0</ele><time>2026-04-18T14:39:01.002Z</time></trkpt><trkpt lat="43.49410647738343" lon="10.696071588499086"><ele>133.5</ele><time>2026-04-18T14:39:02.002Z</time></trkpt><trkpt lat="43.494181149977514" lon="10.696019943116687"><ele>134.0</ele><time>2026-04-18T14:39:03.002Z</time></trkpt><trkpt lat="43.494255883067396" lon="10.695943309908392"><ele>134.5</ele><time>2026-04-18T14:39:03.999Z</time></trkpt><trkpt lat="43.494328297930814" lon="10.695869918153841"><ele>135.0</ele><time>2026-04-18T14:39:04.999Z</time></trkpt><trkpt lat="43.49439223577107" lon="10.695783187998515"><ele>135.5</ele><time>2026-04-18T14:39:05.999Z</time></trkpt><trkpt lat="43.49446634908574" lon="10.695715074781253"><ele>136.0</ele><time>2026-04-18T14:39:06.999Z</time></trkpt><trkpt lat="43.49452374362328" lon="10.695653561244125"><ele>136.5</ele><time>2026-04-18T14:39:07.999Z</time></trkpt><trkpt lat="43.49461806893288" lon="10.695554465968293"><ele>137.0</ele><time>2026-04-18T14:39:09.999Z</time></trkpt><trkpt lat="43.49468774620067" lon="10.695491979011312"><ele>137.5</ele><time>2026-04-18T14:39:10.999Z</time></trkpt><trkpt lat="43.494767169895475" lon="10.695414600577275"><ele>138.0</ele><time>2026-04-18T14:39:11.999Z</time></trkpt><trkpt lat="43.494819582288024" lon="10.695349091779518"><ele>138.5</ele><time>2026-04-18T14:39:12.999Z</time></trkpt><trkpt lat="43.49488552962243" lon="10.695308388380319"><ele>139.0</ele><time>2026-04-18T14:39:13.999Z</time></trkpt><trkpt lat="43.49498550184086" lon="10.695185828850605"><ele>139.8</ele><time>2026-04-18T14:39:14.999Z</time></trkpt><trkpt lat="43.49507947599883" lon="10.695092129189696"><ele>140.60000000000002</ele><time>2026-04-18T14:39:15.999Z</time></trkpt><trkpt lat="43.49515742441044" lon="10.69501980655724"><ele>141.4</ele><time>2026-04-18T14:39:16.999Z</time></trkpt><trkpt lat="43.49524474464023" lon="10.694937217271582"><ele>142.20000000000002</ele><time>2026-04-18T14:39:17.999Z</time></trkpt><trkpt lat="43.49532701808882" lon="10.694856788289588"><ele>143.0</ele><time>2026-04-18T14:39:18.999Z</time></trkpt><trkpt lat="43.49541249946471" lon="10.694777233129907"><ele>141.6</ele><time>2026-04-18T14:39:19.999Z</time></trkpt><trkpt lat="43.49550246061783" lon="10.694718105041586"><ele>140.20000000000002</ele><time>2026-04-18T14:39:20.999Z</time></trkpt><trkpt lat="43.49558748681358" lon="10.694710489119835"><ele>138.8</ele><time>2026-04-18T14:39:21.999Z</time></trkpt><trkpt lat="43.4956604505412" lon="10.694665835468589"><ele>137.4</ele><time>2026-04-18T14:39:22.999Z</time></trkpt><trkpt lat="43.49577951541084" lon="10.694638290950884"><ele>136.0</ele><time>2026-04-18T14:39:25Z</time></trkpt><trkpt lat="43.49585662756386" lon="10.694612725639544"><ele>136.0</ele><time>2026-04-18T14:39:26Z</time></trkpt><trkpt lat="43.49596555879747" lon="10.694565610212386"><ele>136.0</ele><time>2026-04-18T14:39:29Z</time></trkpt><trkpt lat="43.4960521794275" lon="10.694544290761474"><ele>136.0</ele><time>2026-04-18T14:39:31Z</time></trkpt><trkpt lat="43.49611736262256" lon="10.694528337520106"><ele>136.0</ele><time>2026-04-18T14:39:33Z</time></trkpt><trkpt lat="43.496195794550545" lon="10.694498355621178"><ele>136.0</ele><time>2026-04-18T14:39:35Z</time></trkpt><trkpt lat="43.49628432820139" lon="10.694479399412515"><ele>136.0</ele><time>2026-04-18T14:39:37Z</time></trkpt><trkpt lat="43.49634894509956" lon="10.694450421979399"><ele>138.16666666666669</ele><time>2026-04-18T14:39:38Z</time></trkpt><trkpt lat="43.49642114696361" lon="10.694415974439133"><ele>140.33333333333334</ele><time>2026-04-18T14:39:39Z</time></trkpt><trkpt lat="43.49648853303666" lon="10.694373990205516"><ele>142.5</ele><time>2026-04-18T14:39:40Z</time></trkpt><trkpt lat="43.49655500320848" lon="10.694322811735546"><ele>144.66666666666666</ele><time>2026-04-18T14:39:41Z</time></trkpt><trkpt lat="43.49661204857089" lon="10.69426593066166"><ele>146.83333333333331</ele><time>2026-04-18T14:39:42Z</time></trkpt><trkpt lat="43.49666407060582" lon="10.694197148110407"><ele>149.0</ele><time>2026-04-18T14:39:43Z</time></trkpt><trkpt lat="43.496712645046564" lon="10.694084045103617"><ele>149.0</ele><time>2026-04-18T14:39:45Z</time></trkpt><trkpt lat="43.49677174038243" lon="10.693926955619109"><ele>149.0</ele><time>2026-04-18T14:39:47Z</time></trkpt><trkpt lat="43.49679456864412" lon="10.693820844916173"><ele>149.0</ele><time>2026-04-18T14:39:48Z</time></trkpt><trkpt lat="43.496812535246356" lon="10.69368993830257"><ele>149.0</ele><time>2026-04-18T14:39:49Z</time></trkpt><trkpt lat="43.49682527091009" lon="10.693561367937834"><ele>149.0</ele><time>2026-04-18T14:39:50Z</time></trkpt><trkpt lat="43.4968487805841" lon="10.693408298905325"><ele>148.6</ele><time>2026-04-18T14:39:51Z</time></trkpt><trkpt lat="43.49687065048857" lon="10.693257904894203"><ele>148.2</ele><time>2026-04-18T14:39:52Z</time></trkpt><trkpt lat="43.49691288916701" lon="10.693067041706113"><ele>147.79999999999998</ele><time>2026-04-18T14:39:53Z</time></trkpt><trkpt lat="43.496911486391866" lon="10.692967970296198"><ele>147.4</ele><time>2026-04-18T14:39:54Z</time></trkpt><trkpt lat="43.49693670890358" lon="10.692836282828177"><ele>147.0</ele><time>2026-04-18T14:39:55Z</time></trkpt><trkpt lat="43.496958320244936" lon="10.69273627756742"><ele>145.0</ele><time>2026-04-18T14:39:56Z</time></trkpt><trkpt lat="43.496982949242444" lon="10.692567197098215"><ele>143.0</ele><time>2026-04-18T14:39:57Z</time></trkpt><trkpt lat="43.49700766455998" lon="10.692397524002272"><ele>141.0</ele><time>2026-04-18T14:39:58Z</time></trkpt><trkpt lat="43.49702167351994" lon="10.692256503306268"><ele>139.0</ele><time>2026-04-18T14:39:59Z</time></trkpt><trkpt lat="43.497063984823384" lon="10.692089030732026"><ele>139.0</ele><time>2026-04-18T14:40:00Z</time></trkpt><trkpt lat="43.49706333509865" lon="10.691937853233293"><ele>139.0</ele><time>2026-04-18T14:40:03Z</time></trkpt><trkpt lat="43.49709039634233" lon="10.691814259255636"><ele>139.0</ele><time>2026-04-18T14:40:04Z</time></trkpt><trkpt lat="43.497109443265956" lon="10.691676849528728"><ele>139.0</ele><time>2026-04-18T14:40:05Z</time></trkpt><trkpt lat="43.49711874187022" lon="10.691524019996649"><ele>139.0</ele><time>2026-04-18T14:40:06Z</time></trkpt><trkpt lat="43.49713798222095" lon="10.691360596729512"><ele>139.2</ele><time>2026-04-18T14:40:07Z</time></trkpt><trkpt lat="43.497162636412654" lon="10.691203116574279"><ele>139.4</ele><time>2026-04-18T14:40:08Z</time></trkpt><trkpt lat="43.497185109707054" lon="10.691039413177258"><ele>139.6</ele><time>2026-04-18T14:40:09Z</time></trkpt><trkpt lat="43.49720014139814" lon="10.690884725620327"><ele>139.8</ele><time>2026-04-18T14:40:10Z</time></trkpt><trkpt lat="43.497212668666556" lon="10.690758892215253"><ele>140.0</ele><time>2026-04-18T14:40:11Z</time></trkpt><trkpt lat="43.49722937533485" lon="10.690649594425269"><ele>140.2</ele><time>2026-04-18T14:40:12Z</time></trkpt><trkpt lat="43.497256643484015" lon="10.69054441339186"><ele>140.4</ele><time>2026-04-18T14:40:13Z</time></trkpt><trkpt lat="43.497270435621644" lon="10.690436662653365"><ele>140.6</ele><time>2026-04-18T14:40:14.001Z</time></trkpt><trkpt lat="43.497286774205364" lon="10.690311055939778"><ele>140.8</ele><time>2026-04-18T14:40:15.001Z</time></trkpt><trkpt lat="43.49730555039889" lon="10.69017918966708"><ele>141.0</ele><time>2026-04-18T14:40:16.001Z</time></trkpt><trkpt lat="43.49732796185571" lon="10.690026884938586"><ele>141.25</ele><time>2026-04-18T14:40:17.001Z</time></trkpt><trkpt lat="43.497352139470465" lon="10.689862578057296"><ele>141.5</ele><time>2026-04-18T14:40:18.001Z</time></trkpt><trkpt lat="43.49735735006129" lon="10.689713796093786"><ele>141.75</ele><time>2026-04-18T14:40:19.001Z</time></trkpt><trkpt lat="43.49739850347069" lon="10.689555037097506"><ele>142.0</ele><time>2026-04-18T14:40:20.001Z</time></trkpt><trkpt lat="43.49742391660016" lon="10.689388364071304"><ele>142.0</ele><time>2026-04-18T14:40:21.001Z</time></trkpt><trkpt lat="43.49744856815889" lon="10.689223187864629"><ele>142.0</ele><time>2026-04-18T14:40:22.001Z</time></trkpt><trkpt lat="43.49745967629043" lon="10.689041552429655"><ele>142.0</ele><time>2026-04-18T14:40:23.001Z</time></trkpt><trkpt lat="43.49747657063135" lon="10.688889261857216"><ele>142.0</ele><time>2026-04-18T14:40:24.001Z</time></trkpt><trkpt lat="43.49749685327208" lon="10.688735223899792"><ele>142.25</ele><time>2026-04-18T14:40:25.001Z</time></trkpt><trkpt lat="43.49751822845714" lon="10.688561657393201"><ele>142.5</ele><time>2026-04-18T14:40:26.001Z</time></trkpt><trkpt lat="43.49754571292216" lon="10.688406382167539"><ele>142.75</ele><time>2026-04-18T14:40:27.001Z</time></trkpt><trkpt lat="43.497571598517" lon="10.688210974321109"><ele>143.0</ele><time>2026-04-18T14:40:28.001Z</time></trkpt><trkpt lat="43.49760931790508" lon="10.687998851966697"><ele>143.0</ele><time>2026-04-18T14:40:29.001Z</time></trkpt><trkpt lat="43.49765600825789" lon="10.687784101288802"><ele>143.0</ele><time>2026-04-18T14:40:30.001Z</time></trkpt><trkpt lat="43.49767583929787" lon="10.687539262703103"><ele>143.0</ele><time>2026-04-18T14:40:32.001Z</time></trkpt><trkpt lat="43.49769986595302" lon="10.687381393995755"><ele>143.5</ele><time>2026-04-18T14:40:33.001Z</time></trkpt><trkpt lat="43.4977207641693" lon="10.687241086654298"><ele>144.0</ele><time>2026-04-18T14:40:34.001Z</time></trkpt><trkpt lat="43.49773498294838" lon="10.687134024260123"><ele>144.5</ele><time>2026-04-18T14:40:35.001Z</time></trkpt><trkpt lat="43.49775204701699" lon="10.68701998350909"><ele>145.0</ele><time>2026-04-18T14:40:37.001Z</time></trkpt><trkpt lat="43.4977691649104" lon="10.68691815352605"><ele>145.5</ele><time>2026-04-18T14:40:39.001Z</time></trkpt><trkpt lat="43.49780684825588" lon="10.686790293327999"><ele>146.0</ele><time>2026-04-18T14:40:41.001Z</time></trkpt><trkpt lat="43.4978481110353" lon="10.6867041488818"><ele>146.25</ele><time>2026-04-18T14:40:43.001Z</time></trkpt><trkpt lat="43.49788695597569" lon="10.686626571391136"><ele>146.5</ele><time>2026-04-18T14:40:45.001Z</time></trkpt><trkpt lat="43.49793272461559" lon="10.686532712810697"><ele>146.75</ele><time>2026-04-18T14:41:07.001Z</time></trkpt><trkpt lat="43.497979059713074" lon="10.686433334201077"><ele>147.0</ele><time>2026-04-18T14:41:25Z</time></trkpt><trkpt lat="43.497607488924544" lon="10.686009885721987"><ele>147.16666666666666</ele><time>2026-04-18T14:42:41.001Z</time></trkpt><trkpt lat="43.497596289227005" lon="10.685882063169537"><ele>147.33333333333334</ele><time>2026-04-18T14:46:38Z</time></trkpt><trkpt lat="43.49758886175375" lon="10.685763171827523"><ele>147.5</ele><time>2026-04-18T14:46:41Z</time></trkpt><trkpt lat="43.497583475150996" lon="10.68565919909824"><ele>147.66666666666669</ele><time>2026-04-18T14:46:44Z</time></trkpt><trkpt lat="43.49758348531339" lon="10.68555717978147"><ele>147.83333333333334</ele><time>2026-04-18T14:46:47Z</time></trkpt><trkpt lat="43.49757660062822" lon="10.685454458288588"><ele>148.0</ele><time>2026-04-18T14:46:50Z</time></trkpt><trkpt lat="43.49757336707963" lon="10.685340442848343"><ele>148.14285714285714</ele><time>2026-04-18T14:46:54Z</time></trkpt><trkpt lat="43.497576598892" lon="10.68521391908923"><ele>148.28571428571428</ele><time>2026-04-18T14:46:57Z</time></trkpt><trkpt lat="43.49758362341522" lon="10.685123061697954"><ele>148.42857142857142</ele><time>2026-04-18T14:46:59Z</time></trkpt><trkpt lat="43.497592571339915" lon="10.685031868461706"><ele>148.57142857142856</ele><time>2026-04-18T14:47:01Z</time></trkpt><trkpt lat="43.49760078764272" lon="10.684944744618434"><ele>148.7142857142857</ele><time>2026-04-18T14:47:03Z</time></trkpt><trkpt lat="43.49761794133939" lon="10.684854217980865"><ele>148.85714285714286</ele><time>2026-04-18T14:47:06.001Z</time></trkpt><trkpt lat="43.497638460272825" lon="10.684754210079207"><ele>149.0</ele><time>2026-04-18T14:47:09.001Z</time></trkpt><trkpt lat="43.49763560329193" lon="10.684622107140447"><ele>149.0</ele><time>2026-04-18T14:47:12.001Z</time></trkpt><trkpt lat="43.49762272138462" lon="10.684526250517397"><ele>149.0</ele><time>2026-04-18T14:47:14.001Z</time></trkpt><trkpt lat="43.49758460199545" lon="10.684422449007517"><ele>149.0</ele><time>2026-04-18T14:47:16.001Z</time></trkpt><trkpt lat="43.49754810636397" lon="10.684327976572545"><ele>149.0</ele><time>2026-04-18T14:47:18.001Z</time></trkpt><trkpt lat="43.49752742225018" lon="10.684200015192028"><ele>149.0</ele><time>2026-04-18T14:47:20.001Z</time></trkpt><trkpt lat="43.497509224447654" lon="10.68408466434947"><ele>149.0</ele><time>2026-04-18T14:47:22.001Z</time></trkpt><trkpt lat="43.497492343485064" lon="10.68394539337062"><ele>149.2</ele><time>2026-04-18T14:47:24.001Z</time></trkpt><trkpt lat="43.49747998081078" lon="10.68385754358066"><ele>149.4</ele><time>2026-04-18T14:47:26.001Z</time></trkpt><trkpt lat="43.497468311050845" lon="10.683754219768577"><ele>149.6</ele><time>2026-04-18T14:47:28.001Z</time></trkpt><trkpt lat="43.497434170717746" lon="10.683629783622258"><ele>149.8</ele><time>2026-04-18T14:47:30.001Z</time></trkpt><trkpt lat="43.49735849865118" lon="10.68351972172712"><ele>150.0</ele><time>2026-04-18T14:47:32.001Z</time></trkpt><trkpt lat="43.49727112825518" lon="10.683430708317715"><ele>149.66666666666666</ele><time>2026-04-18T14:47:35.001Z</time></trkpt><trkpt lat="43.49721288083821" lon="10.683373583832836"><ele>149.33333333333334</ele><time>2026-04-18T14:47:36.001Z</time></trkpt><trkpt lat="43.497143931146525" lon="10.68330148907776"><ele>149.0</ele><time>2026-04-18T14:47:37.001Z</time></trkpt><trkpt lat="43.49707038838762" lon="10.683241692029448"><ele>148.66666666666669</ele><time>2026-04-18T14:47:38.001Z</time></trkpt><trkpt lat="43.49699065720141" lon="10.683181427409437"><ele>148.33333333333334</ele><time>2026-04-18T14:47:39.001Z</time></trkpt><trkpt lat="43.496896452630516" lon="10.683111484902751"><ele>148.0</ele><time>2026-04-18T14:47:40.001Z</time></trkpt><trkpt lat="43.49681561901453" lon="10.68304073708406"><ele>148.0</ele><time>2026-04-18T14:47:41.001Z</time></trkpt><trkpt lat="43.49674175001415" lon="10.682972401754345"><ele>148.0</ele><time>2026-04-18T14:47:42.001Z</time></trkpt><trkpt lat="43.49666992708981" lon="10.682908323816426"><ele>148.0</ele><time>2026-04-18T14:47:43.001Z</time></trkpt><trkpt lat="43.49660182799271" lon="10.682855704622238"><ele>148.0</ele><time>2026-04-18T14:47:44.001Z</time></trkpt><trkpt lat="43.49653759727481" lon="10.682801875804515"><ele>148.0</ele><time>2026-04-18T14:47:45.001Z</time></trkpt><trkpt lat="43.49646883122682" lon="10.682737337947088"><ele>148.0</ele><time>2026-04-18T14:47:46.001Z</time></trkpt><trkpt lat="43.49640782947207" lon="10.68267053941144"><ele>149.16666666666669</ele><time>2026-04-18T14:47:47.001Z</time></trkpt><trkpt lat="43.49635628751683" lon="10.682613785251405"><ele>150.33333333333334</ele><time>2026-04-18T14:47:48.001Z</time></trkpt><trkpt lat="43.49629618399802" lon="10.682529381874948"><ele>151.5</ele><time>2026-04-18T14:47:50.001Z</time></trkpt><trkpt lat="43.49623613712812" lon="10.682485562910397"><ele>152.66666666666666</ele><time>2026-04-18T14:47:52.001Z</time></trkpt><trkpt lat="43.49614380230339" lon="10.682439244142763"><ele>153.83333333333331</ele><time>2026-04-18T14:47:54.002Z</time></trkpt><trkpt lat="43.49607121938301" lon="10.682367668978445"><ele>155.0</ele><time>2026-04-18T14:47:57.002Z</time></trkpt><trkpt lat="43.495999073897984" lon="10.682284451345087"><ele>155.66666666666666</ele><time>2026-04-18T14:47:59.002Z</time></trkpt><trkpt lat="43.495944212230036" lon="10.68222783357666"><ele>156.33333333333331</ele><time>2026-04-18T14:48:00.002Z</time></trkpt><trkpt lat="43.49588965125293" lon="10.682172616806945"><ele>157.0</ele><time>2026-04-18T14:48:01.002Z</time></trkpt><trkpt lat="43.49578282826356" lon="10.682087032623716"><ele>157.66666666666666</ele><time>2026-04-18T14:48:03.002Z</time></trkpt><trkpt lat="43.49571587196425" lon="10.68203942840314"><ele>158.33333333333334</ele><time>2026-04-18T14:48:04.002Z</time></trkpt><trkpt lat="43.495633240665164" lon="10.681981758031101"><ele>159.0</ele><time>2026-04-18T14:48:05.002Z</time></trkpt><trkpt lat="43.49553953059083" lon="10.681917974879658"><ele>159.66666666666666</ele><time>2026-04-18T14:48:06.002Z</time></trkpt><trkpt lat="43.495457149558675" lon="10.68185492458728"><ele>160.33333333333334</ele><time>2026-04-18T14:48:07.002Z</time></trkpt><trkpt lat="43.49538969965186" lon="10.68181028170517"><ele>161.0</ele><time>2026-04-18T14:48:08.002Z</time></trkpt><trkpt lat="43.49533441349872" lon="10.681767717996522"><ele>161.66666666666669</ele><time>2026-04-18T14:48:09.002Z</time></trkpt><trkpt lat="43.4952750456987" lon="10.681678005751005"><ele>162.33333333333334</ele><time>2026-04-18T14:48:10.002Z</time></trkpt><trkpt lat="43.4952342228982" lon="10.681566253162128"><ele>163.0</ele><time>2026-04-18T14:48:11.002Z</time></trkpt><trkpt lat="43.495192032419766" lon="10.68143700251243"><ele>163.0</ele><time>2026-04-18T14:48:12Z</time></trkpt><trkpt lat="43.4951509697159" lon="10.681307019422809"><ele>163.0</ele><time>2026-04-18T14:48:13Z</time></trkpt><trkpt lat="43.495097556800076" lon="10.681159348419884"><ele>163.0</ele><time>2026-04-18T14:48:14Z</time></trkpt><trkpt lat="43.495041023129396" lon="10.681031028660486"><ele>163.0</ele><time>2026-04-18T14:48:15Z</time></trkpt><trkpt lat="43.49494934585161" lon="10.680916462997908"><ele>161.75</ele><time>2026-04-18T14:48:16Z</time></trkpt><trkpt lat="43.49487443206678" lon="10.680779048314236"><ele>160.5</ele><time>2026-04-18T14:48:17Z</time></trkpt><trkpt lat="43.49479283456178" lon="10.680695326922377"><ele>159.25</ele><time>2026-04-18T14:48:18Z</time></trkpt><trkpt lat="43.49470374320696" lon="10.680609873264917"><ele>158.0</ele><time>2026-04-18T14:48:19Z</time></trkpt><trkpt lat="43.4945976593825" lon="10.680535240836507"><ele>158.8</ele><time>2026-04-18T14:48:20Z</time></trkpt><trkpt lat="43.49448763677653" lon="10.680480663708053"><ele>159.60000000000002</ele><time>2026-04-18T14:48:21Z</time></trkpt><trkpt lat="43.494405319726155" lon="10.68043551310832"><ele>160.39999999999998</ele><time>2026-04-18T14:48:22Z</time></trkpt><trkpt lat="43.49433457444757" lon="10.680400377103107"><ele>161.2</ele><time>2026-04-18T14:48:23Z</time></trkpt><trkpt lat="43.494231126353334" lon="10.680434243263855"><ele>162.0</ele><time>2026-04-18T14:48:25Z</time></trkpt><trkpt lat="43.49415257650241" lon="10.680491404381502"><ele>162.0</ele><time>2026-04-18T14:48:27Z</time></trkpt><trkpt lat="43.49402391155246" lon="10.680550978356951"><ele>162.0</ele><time>2026-04-18T14:48:29Z</time></trkpt><trkpt lat="43.49394675798139" lon="10.680571918148466"><ele>162.0</ele><time>2026-04-18T14:48:30Z</time></trkpt><trkpt lat="43.49385260206021" lon="10.680584914055059"><ele>162.0</ele><time>2026-04-18T14:48:31Z</time></trkpt><trkpt lat="43.49375720318222" lon="10.680581006880555"><ele>162.0</ele><time>2026-04-18T14:48:32Z</time></trkpt><trkpt lat="43.49365502914808" lon="10.68055395051447"><ele>159.5</ele><time>2026-04-18T14:48:33Z</time></trkpt><trkpt lat="43.493535979310636" lon="10.680524284020995"><ele>157.0</ele><time>2026-04-18T14:48:34Z</time></trkpt><trkpt lat="43.49339909130114" lon="10.680493757830554"><ele>154.5</ele><time>2026-04-18T14:48:35Z</time></trkpt><trkpt lat="43.49326478663042" lon="10.68044656007466"><ele>152.0</ele><time>2026-04-18T14:48:36Z</time></trkpt><trkpt lat="43.49315576511833" lon="10.680404800981051"><ele>152.0</ele><time>2026-04-18T14:48:37Z</time></trkpt><trkpt lat="43.493057470462126" lon="10.680351405161272"><ele>152.0</ele><time>2026-04-18T14:48:38Z</time></trkpt><trkpt lat="43.49294919956672" lon="10.68029281029195"><ele>152.0</ele><time>2026-04-18T14:48:39Z</time></trkpt><trkpt lat="43.4928330633767" lon="10.680220360130132"><ele>152.0</ele><time>2026-04-18T14:48:40Z</time></trkpt><trkpt lat="43.49272592988563" lon="10.680159776536641"><ele>152.16666666666666</ele><time>2026-04-18T14:48:41Z</time></trkpt><trkpt lat="43.492635692222294" lon="10.680118166431555"><ele>152.33333333333331</ele><time>2026-04-18T14:48:42Z</time></trkpt><trkpt lat="43.492548518174466" lon="10.680097360567599"><ele>152.5</ele><time>2026-04-18T14:48:43Z</time></trkpt><trkpt lat="43.49245472354838" lon="10.680071795848171"><ele>152.66666666666666</ele><time>2026-04-18T14:48:44Z</time></trkpt><trkpt lat="43.49237544762014" lon="10.680027928790476"><ele>152.83333333333334</ele><time>2026-04-18T14:48:45Z</time></trkpt><trkpt lat="43.49232306287995" lon="10.6799667917388"><ele>153.0</ele><time>2026-04-18T14:48:46Z</time></trkpt><trkpt lat="43.492219453475954" lon="10.679854549649015"><ele>153.0</ele><time>2026-04-18T14:48:47Z</time></trkpt><trkpt lat="43.49213029703618" lon="10.67973844798587"><ele>153.0</ele><time>2026-04-18T14:48:48Z</time></trkpt><trkpt lat="43.4920368158422" lon="10.679657051174368"><ele>153.0</ele><time>2026-04-18T14:48:49Z</time></trkpt><trkpt lat="43.49194877530018" lon="10.679635879552766"><ele>153.0</ele><time>2026-04-18T14:48:50Z</time></trkpt><trkpt lat="43.491874034524265" lon="10.67962608663063"><ele>153.0</ele><time>2026-04-18T14:48:51Z</time></trkpt><trkpt lat="43.49179016737806" lon="10.679606515575275"><ele>153.0</ele><time>2026-04-18T14:48:52.001Z</time></trkpt><trkpt lat="43.491691873748735" lon="10.679552995704872"><ele>153.0</ele><time>2026-04-18T14:48:53.001Z</time></trkpt><trkpt lat="43.49160610253718" lon="10.679472050491242"><ele>153.0</ele><time>2026-04-18T14:48:54.001Z</time></trkpt><trkpt lat="43.49153807427557" lon="10.679358916759142"><ele>153.0</ele><time>2026-04-18T14:48:55.001Z</time></trkpt><trkpt lat="43.491482856555095" lon="10.679267864823274"><ele>153.0</ele><time>2026-04-18T14:48:56.001Z</time></trkpt><trkpt lat="43.491411457341464" lon="10.679172099550678"><ele>153.0</ele><time>2026-04-18T14:48:57.001Z</time></trkpt><trkpt lat="43.49130952836031" lon="10.67905672668827"><ele>153.0</ele><time>2026-04-18T14:48:58.001Z</time></trkpt><trkpt lat="43.49123229048359" lon="10.67894703140202"><ele>153.0</ele><time>2026-04-18T14:48:59.001Z</time></trkpt><trkpt lat="43.491170340051944" lon="10.678846456424795"><ele>153.0</ele><time>2026-04-18T14:49:00.001Z</time></trkpt><trkpt lat="43.49110099395889" lon="10.678748434662726"><ele>153.0</ele><time>2026-04-18T14:49:01.001Z</time></trkpt><trkpt lat="43.491024000715335" lon="10.678671914409053"><ele>152.0</ele><time>2026-04-18T14:49:02.001Z</time></trkpt><trkpt lat="43.490933203543484" lon="10.678593324469848"><ele>151.0</ele><time>2026-04-18T14:49:03.001Z</time></trkpt><trkpt lat="43.49084786942697" lon="10.67851269769904"><ele>150.0</ele><time>2026-04-18T14:49:04.001Z</time></trkpt><trkpt lat="43.490777172047515" lon="10.678436790106721"><ele>149.0</ele><time>2026-04-18T14:49:05.001Z</time></trkpt><trkpt lat="43.490694100325776" lon="10.678351169629"><ele>148.0</ele><time>2026-04-18T14:49:06.001Z</time></trkpt><trkpt lat="43.490613141633965" lon="10.678263381421095"><ele>148.0</ele><time>2026-04-18T14:49:07.001Z</time></trkpt><trkpt lat="43.49054680875363" lon="10.678184897214193"><ele>148.0</ele><time>2026-04-18T14:49:08.001Z</time></trkpt><trkpt lat="43.490474967066625" lon="10.678101819147413"><ele>148.0</ele><time>2026-04-18T14:49:09.001Z</time></trkpt><trkpt lat="43.490404062012" lon="10.67801840803011"><ele>148.0</ele><time>2026-04-18T14:49:10.001Z</time></trkpt><trkpt lat="43.490333594508634" lon="10.677907111385652"><ele>148.0</ele><time>2026-04-18T14:49:11.001Z</time></trkpt><trkpt lat="43.49027383910071" lon="10.67778942148621"><ele>145.25</ele><time>2026-04-18T14:49:12.001Z</time></trkpt><trkpt lat="43.490208652527556" lon="10.677669071650262"><ele>142.5</ele><time>2026-04-18T14:49:13.001Z</time></trkpt><trkpt lat="43.49011961363833" lon="10.677562036520376"><ele>139.75</ele><time>2026-04-18T14:49:14.001Z</time></trkpt><trkpt lat="43.49001385863521" lon="10.677475271114172"><ele>137.0</ele><time>2026-04-18T14:49:15.001Z</time></trkpt><trkpt lat="43.489914349124284" lon="10.67741147977975"><ele>137.0</ele><time>2026-04-18T14:49:16.001Z</time></trkpt><trkpt lat="43.48980868977034" lon="10.677332884860945"><ele>137.0</ele><time>2026-04-18T14:49:17.001Z</time></trkpt><trkpt lat="43.48970957124297" lon="10.677230462618198"><ele>137.0</ele><time>2026-04-18T14:49:18.001Z</time></trkpt><trkpt lat="43.48961507870937" lon="10.677112817355413"><ele>137.0</ele><time>2026-04-18T14:49:19.001Z</time></trkpt><trkpt lat="43.48952025855169" lon="10.676988267752625"><ele>135.0</ele><time>2026-04-18T14:49:20.001Z</time></trkpt><trkpt lat="43.489430418358886" lon="10.676876926489145"><ele>133.0</ele><time>2026-04-18T14:49:21.001Z</time></trkpt><trkpt lat="43.48933057621597" lon="10.676770717836057"><ele>131.0</ele><time>2026-04-18T14:49:22.001Z</time></trkpt><trkpt lat="43.48924816543361" lon="10.676653060921735"><ele>129.0</ele><time>2026-04-18T14:49:23.001Z</time></trkpt><trkpt lat="43.489163679869264" lon="10.676525264192627"><ele>129.0</ele><time>2026-04-18T14:49:24.001Z</time></trkpt><trkpt lat="43.489092622809494" lon="10.676414134606938"><ele>129.0</ele><time>2026-04-18T14:49:25.001Z</time></trkpt><trkpt lat="43.48901681887024" lon="10.67633253885008"><ele>129.0</ele><time>2026-04-18T14:49:26.001Z</time></trkpt><trkpt lat="43.488917694184316" lon="10.676271592254196"><ele>129.0</ele><time>2026-04-18T14:49:27.001Z</time></trkpt><trkpt lat="43.48880097645808" lon="10.676242082594703"><ele>129.0</ele><time>2026-04-18T14:49:28.001Z</time></trkpt><trkpt lat="43.48868101784523" lon="10.676227745344187"><ele>128.5</ele><time>2026-04-18T14:49:29.001Z</time></trkpt><trkpt lat="43.48855517377207" lon="10.676247734502008"><ele>128.0</ele><time>2026-04-18T14:49:30.001Z</time></trkpt><trkpt lat="43.48842097110999" lon="10.676296298579814"><ele>127.5</ele><time>2026-04-18T14:49:31.001Z</time></trkpt><trkpt lat="43.48829008843383" lon="10.676369130445524"><ele>127.0</ele><time>2026-04-18T14:49:32.001Z</time></trkpt><trkpt lat="43.48814099083635" lon="10.676447344311967"><ele>127.0</ele><time>2026-04-18T14:49:33.001Z</time></trkpt><trkpt lat="43.48800044945856" lon="10.67646996937231"><ele>127.0</ele><time>2026-04-18T14:49:34.001Z</time></trkpt><trkpt lat="43.487879539017" lon="10.676474609486204"><ele>127.0</ele><time>2026-04-18T14:49:35.001Z</time></trkpt><trkpt lat="43.48774797762133" lon="10.676469914675398"><ele>127.0</ele><time>2026-04-18T14:49:36.002Z</time></trkpt><trkpt lat="43.48760688319299" lon="10.67649213683051"><ele>128.5</ele><time>2026-04-18T14:49:37.002Z</time></trkpt><trkpt lat="43.48747080629814" lon="10.67652681455411"><ele>130.0</ele><time>2026-04-18T14:49:38.002Z</time></trkpt><trkpt lat="43.48732893749275" lon="10.676547326948524"><ele>131.5</ele><time>2026-04-18T14:49:39.002Z</time></trkpt><trkpt lat="43.48717341732557" lon="10.676547820618177"><ele>133.0</ele><time>2026-04-18T14:49:40.002Z</time></trkpt><trkpt lat="43.487048340605895" lon="10.676564074119545"><ele>133.75</ele><time>2026-04-18T14:49:41.002Z</time></trkpt><trkpt lat="43.48693794061138" lon="10.67659078262131"><ele>134.5</ele><time>2026-04-18T14:49:42.002Z</time></trkpt><trkpt lat="43.48679357055113" lon="10.676597400088562"><ele>135.25</ele><time>2026-04-18T14:49:43.002Z</time></trkpt><trkpt lat="43.4866681415592" lon="10.676603205444911"><ele>136.0</ele><time>2026-04-18T14:49:44.002Z</time></trkpt><trkpt lat="43.48657047406191" lon="10.676612489196117"><ele>136.0</ele><time>2026-04-18T14:49:45.002Z</time></trkpt><trkpt lat="43.486488931325056" lon="10.676622320821258"><ele>136.0</ele><time>2026-04-18T14:49:46.002Z</time></trkpt><trkpt lat="43.48639738619202" lon="10.676630446043946"><ele>136.0</ele><time>2026-04-18T14:49:47.002Z</time></trkpt><trkpt lat="43.486316858087356" lon="10.676592606792493"><ele>136.0</ele><time>2026-04-18T14:49:48.002Z</time></trkpt><trkpt lat="43.486215788319505" lon="10.676511945757321"><ele>136.0</ele><time>2026-04-18T14:49:49.002Z</time></trkpt><trkpt lat="43.48608883317569" lon="10.676425855010038"><ele>136.25</ele><time>2026-04-18T14:49:50.002Z</time></trkpt><trkpt lat="43.48596976864548" lon="10.676336197734383"><ele>136.5</ele><time>2026-04-18T14:49:51.002Z</time></trkpt><trkpt lat="43.4858342216382" lon="10.676227831266127"><ele>136.75</ele><time>2026-04-18T14:49:52.002Z</time></trkpt><trkpt lat="43.485730963555014" lon="10.676124497657234"><ele>137.0</ele><time>2026-04-18T14:49:53.002Z</time></trkpt><trkpt lat="43.48564524368549" lon="10.676030773822609"><ele>137.0</ele><time>2026-04-18T14:49:54.002Z</time></trkpt><trkpt lat="43.48557908959377" lon="10.675921001029613"><ele>137.0</ele><time>2026-04-18T14:49:55.002Z</time></trkpt><trkpt lat="43.485509306805525" lon="10.675809558909032"><ele>137.0</ele><time>2026-04-18T14:49:56.002Z</time></trkpt><trkpt lat="43.48543094952265" lon="10.675733616150568"><ele>137.0</ele><time>2026-04-18T14:49:57.002Z</time></trkpt><trkpt lat="43.48533155568616" lon="10.675689073871174"><ele>137.0</ele><time>2026-04-18T14:49:58.002Z</time></trkpt><trkpt lat="43.48520411325194" lon="10.675659378366708"><ele>137.5</ele><time>2026-04-18T14:49:59.002Z</time></trkpt><trkpt lat="43.48507064777649" lon="10.675648723790102"><ele>138.0</ele><time>2026-04-18T14:50:00.002Z</time></trkpt><trkpt lat="43.4849360442424" lon="10.67562540766279"><ele>138.5</ele><time>2026-04-18T14:50:01.002Z</time></trkpt><trkpt lat="43.484830084987415" lon="10.6755804562763"><ele>139.0</ele><time>2026-04-18T14:50:02.002Z</time></trkpt><trkpt lat="43.48470996896325" lon="10.675508741560796"><ele>139.0</ele><time>2026-04-18T14:50:03.002Z</time></trkpt><trkpt lat="43.484599919838274" lon="10.675440185760273"><ele>139.0</ele><time>2026-04-18T14:50:04.002Z</time></trkpt><trkpt lat="43.48448605202844" lon="10.675368174687813"><ele>139.0</ele><time>2026-04-18T14:50:05.002Z</time></trkpt><trkpt lat="43.484383182978135" lon="10.67528956620577"><ele>139.0</ele><time>2026-04-18T14:50:06.002Z</time></trkpt><trkpt lat="43.48430644820792" lon="10.675197745775483"><ele>140.4</ele><time>2026-04-18T14:50:07.002Z</time></trkpt><trkpt lat="43.484238187132725" lon="10.67509119452352"><ele>141.8</ele><time>2026-04-18T14:50:08.002Z</time></trkpt><trkpt lat="43.48416839384954" lon="10.67498865246151"><ele>143.2</ele><time>2026-04-18T14:50:09.002Z</time></trkpt><trkpt lat="43.48411162843946" lon="10.674924455377136"><ele>144.6</ele><time>2026-04-18T14:50:10.002Z</time></trkpt><trkpt lat="43.48400995398711" lon="10.674855792693071"><ele>146.0</ele><time>2026-04-18T14:50:12.002Z</time></trkpt><trkpt lat="43.48391362972228" lon="10.674794249754779"><ele>146.0</ele><time>2026-04-18T14:50:14.002Z</time></trkpt><trkpt lat="43.48384822144968" lon="10.674752670918844"><ele>146.0</ele><time>2026-04-18T14:50:16.002Z</time></trkpt><trkpt lat="43.483785232387355" lon="10.674712406480504"><ele>146.0</ele><time>2026-04-18T14:50:19Z</time></trkpt><trkpt lat="43.48370310019496" lon="10.674657743780754"><ele>146.0</ele><time>2026-04-18T14:50:21Z</time></trkpt><trkpt lat="43.48362841423752" lon="10.67460299699682"><ele>146.0</ele><time>2026-04-18T14:50:22Z</time></trkpt><trkpt lat="43.48354041539478" lon="10.674547800126357"><ele>146.0</ele><time>2026-04-18T14:50:23Z</time></trkpt><trkpt lat="43.48344530575997" lon="10.67449158746097"><ele>144.75</ele><time>2026-04-18T14:50:24Z</time></trkpt><trkpt lat="43.48333643950659" lon="10.674425714454536"><ele>143.5</ele><time>2026-04-18T14:50:25Z</time></trkpt><trkpt lat="43.4832282718968" lon="10.674360637371098"><ele>142.25</ele><time>2026-04-18T14:50:26Z</time></trkpt><trkpt lat="43.48312902036214" lon="10.674303109360613"><ele>141.0</ele><time>2026-04-18T14:50:27Z</time></trkpt><trkpt lat="43.48302521539888" lon="10.67423742817671"><ele>140.0</ele><time>2026-04-18T14:50:28Z</time></trkpt><trkpt lat="43.48291393749494" lon="10.674164376477385"><ele>139.0</ele><time>2026-04-18T14:50:29Z</time></trkpt><trkpt lat="43.48278935344716" lon="10.674089740430086"><ele>138.0</ele><time>2026-04-18T14:50:30Z</time></trkpt><trkpt lat="43.4826910621801" lon="10.674026323752814"><ele>137.0</ele><time>2026-04-18T14:50:31Z</time></trkpt><trkpt lat="43.48259896751894" lon="10.673977227469738"><ele>137.0</ele><time>2026-04-18T14:50:32Z</time></trkpt><trkpt lat="43.48250418569474" lon="10.67391751922984"><ele>137.0</ele><time>2026-04-18T14:50:33Z</time></trkpt><trkpt lat="43.48241906273057" lon="10.67385670912194"><ele>137.0</ele><time>2026-04-18T14:50:34Z</time></trkpt><trkpt lat="43.482357103264604" lon="10.67380434156029"><ele>137.0</ele><time>2026-04-18T14:50:35Z</time></trkpt><trkpt lat="43.48228710470298" lon="10.673743823843347"><ele>137.0</ele><time>2026-04-18T14:50:36Z</time></trkpt><trkpt lat="43.482193881206086" lon="10.673701086133056"><ele>137.0</ele><time>2026-04-18T14:50:38Z</time></trkpt><trkpt lat="43.482134077872935" lon="10.673745326027579"><ele>137.0</ele><time>2026-04-18T14:50:41Z</time></trkpt><trkpt lat="43.4820413190155" lon="10.673758932237797"><ele>137.0</ele><time>2026-04-18T14:50:43Z</time></trkpt><trkpt lat="43.48190945046323" lon="10.673746382144905"><ele>137.0</ele><time>2026-04-18T14:50:45Z</time></trkpt><trkpt lat="43.4818444817017" lon="10.67373392654376"><ele>137.0</ele><time>2026-04-18T14:50:46.001Z</time></trkpt><trkpt lat="43.48177197697115" lon="10.673717396685774"><ele>137.0</ele><time>2026-04-18T14:50:47.001Z</time></trkpt><trkpt lat="43.481710304491465" lon="10.67369773533904"><ele>137.00000000000003</ele><time>2026-04-18T14:50:48.001Z</time></trkpt><trkpt lat="43.48164128296863" lon="10.673683502256946"><ele>137.0</ele><time>2026-04-18T14:50:49.001Z</time></trkpt><trkpt lat="43.481585285719575" lon="10.673628975974639"><ele>137.0</ele><time>2026-04-18T14:50:50.001Z</time></trkpt><trkpt lat="43.481532882700776" lon="10.673560451291314"><ele>137.0</ele><time>2026-04-18T14:50:51.001Z</time></trkpt><trkpt lat="43.481488991682646" lon="10.673484097910904"><ele>137.0</ele><time>2026-04-18T14:50:52.001Z</time></trkpt><trkpt lat="43.48146574938965" lon="10.673388625814853"><ele>137.00000000000003</ele><time>2026-04-18T14:50:53.001Z</time></trkpt><trkpt lat="43.48141916037112" lon="10.673318731813044"><ele>137.0</ele><time>2026-04-18T14:50:54.001Z</time></trkpt><trkpt lat="43.4813820033808" lon="10.673166702813804"><ele>137.0</ele><time>2026-04-18T14:50:56.001Z</time></trkpt><trkpt lat="43.48132966543499" lon="10.673011479812434"><ele>137.0</ele><time>2026-04-18T14:50:58.001Z</time></trkpt><trkpt lat="43.481299455776316" lon="10.672925795609821"><ele>137.0</ele><time>2026-04-18T14:50:59.001Z</time></trkpt><trkpt lat="43.481257727972924" lon="10.672845943491026"><ele>137.0</ele><time>2026-04-18T14:51:00.001Z</time></trkpt><trkpt lat="43.48122371695966" lon="10.672748015783807"><ele>137.0</ele><time>2026-04-18T14:51:01.001Z</time></trkpt><trkpt lat="43.48119005673866" lon="10.672640461320553"><ele>137.0</ele><time>2026-04-18T14:51:02.001Z</time></trkpt><trkpt lat="43.48118048705963" lon="10.672533609911515"><ele>138.4</ele><time>2026-04-18T14:51:03.001Z</time></trkpt><trkpt lat="43.481153371046936" lon="10.672419645765839"><ele>139.79999999999998</ele><time>2026-04-18T14:51:04.001Z</time></trkpt><trkpt lat="43.481119080744236" lon="10.672271938244373"><ele>141.2</ele><time>2026-04-18T14:51:05.001Z</time></trkpt><trkpt lat="43.48108675655729" lon="10.672132699824855"><ele>142.6</ele><time>2026-04-18T14:51:06.001Z</time></trkpt><trkpt lat="43.48105619178445" lon="10.672001040220746"><ele>144.0</ele><time>2026-04-18T14:51:07.001Z</time></trkpt><trkpt lat="43.48102822334823" lon="10.67188453986901"><ele>145.6</ele><time>2026-04-18T14:51:08.001Z</time></trkpt><trkpt lat="43.480998740504575" lon="10.671765358200457"><ele>147.2</ele><time>2026-04-18T14:51:09.001Z</time></trkpt><trkpt lat="43.48096376359227" lon="10.671623967114444"><ele>148.79999999999998</ele><time>2026-04-18T14:51:10.001Z</time></trkpt><trkpt lat="43.480932942289726" lon="10.671495007025971"><ele>150.4</ele><time>2026-04-18T14:51:11.001Z</time></trkpt><trkpt lat="43.48089886667482" lon="10.671346543622018"><ele>152.0</ele><time>2026-04-18T14:51:12.001Z</time></trkpt><trkpt lat="43.480868798309196" lon="10.671193924538008"><ele>153.6</ele><time>2026-04-18T14:51:13.001Z</time></trkpt><trkpt lat="43.48085664238387" lon="10.671036451273721"><ele>155.2</ele><time>2026-04-18T14:51:14.001Z</time></trkpt><trkpt lat="43.48088910543506" lon="10.670924876682662"><ele>156.8</ele><time>2026-04-18T14:51:15.001Z</time></trkpt><trkpt lat="43.480916591562085" lon="10.670797427712122"><ele>158.4</ele><time>2026-04-18T14:51:16.001Z</time></trkpt><trkpt lat="43.480936642798554" lon="10.670637504220993"><ele>160.0</ele><time>2026-04-18T14:51:17.001Z</time></trkpt><trkpt lat="43.48095428938026" lon="10.670496569143861"><ele>160.0</ele><time>2026-04-18T14:51:18.001Z</time></trkpt><trkpt lat="43.48093677058536" lon="10.67037282603312"><ele>160.0</ele><time>2026-04-18T14:51:19.001Z</time></trkpt><trkpt lat="43.48089119545209" lon="10.670252470311931"><ele>160.0</ele><time>2026-04-18T14:51:20.001Z</time></trkpt><trkpt lat="43.48082509879975" lon="10.670143186168252"><ele>160.0</ele><time>2026-04-18T14:51:21.001Z</time></trkpt><trkpt lat="43.48076105074655" lon="10.670008531421225"><ele>160.0</ele><time>2026-04-18T14:51:22.001Z</time></trkpt><trkpt lat="43.480682561947944" lon="10.669891858856996"><ele>159.5</ele><time>2026-04-18T14:51:23.001Z</time></trkpt><trkpt lat="43.48060321133582" lon="10.669769495449557"><ele>159.0</ele><time>2026-04-18T14:51:24.001Z</time></trkpt><trkpt lat="43.48050688169408" lon="10.669613519170055"><ele>158.5</ele><time>2026-04-18T14:51:25.001Z</time></trkpt><trkpt lat="43.48038973040473" lon="10.669423828594663"><ele>158.0</ele><time>2026-04-18T14:51:26.001Z</time></trkpt><trkpt lat="43.480263256046904" lon="10.669216612493598"><ele>157.0</ele><time>2026-04-18T14:51:27.001Z</time></trkpt><trkpt lat="43.48016025673042" lon="10.66903945827143"><ele>156.0</ele><time>2026-04-18T14:51:28.001Z</time></trkpt><trkpt lat="43.480074661116575" lon="10.668873789451855"><ele>155.0</ele><time>2026-04-18T14:51:29.001Z</time></trkpt><trkpt lat="43.479984579140364" lon="10.668726047119074"><ele>155.2</ele><time>2026-04-18T14:51:30.001Z</time></trkpt><trkpt lat="43.47991863205408" lon="10.668581358768183"><ele>155.4</ele><time>2026-04-18T14:51:31.002Z</time></trkpt><trkpt lat="43.47985502027019" lon="10.668462482175528"><ele>155.6</ele><time>2026-04-18T14:51:32.002Z</time></trkpt><trkpt lat="43.479779545946485" lon="10.668367034651013"><ele>155.8</ele><time>2026-04-18T14:51:33.002Z</time></trkpt><trkpt lat="43.47968397997512" lon="10.668300921928537"><ele>156.0</ele><time>2026-04-18T14:51:34.002Z</time></trkpt><trkpt lat="43.479576707956674" lon="10.668281559263011"><ele>156.0</ele><time>2026-04-18T14:51:35.002Z</time></trkpt><trkpt lat="43.4794773731212" lon="10.668314957010452"><ele>156.0</ele><time>2026-04-18T14:51:36.002Z</time></trkpt><trkpt lat="43.479383335975825" lon="10.668388360153589"><ele>156.0</ele><time>2026-04-18T14:51:37.002Z</time></trkpt><trkpt lat="43.479289406144176" lon="10.668479179223386"><ele>156.0</ele><time>2026-04-18T14:51:38.002Z</time></trkpt><trkpt lat="43.47918987544289" lon="10.668532885483906"><ele>156.0</ele><time>2026-04-18T14:51:39.002Z</time></trkpt><trkpt lat="43.47909603308716" lon="10.668560479526223"><ele>156.0</ele><time>2026-04-18T14:51:40.002Z</time></trkpt><trkpt lat="43.479006016322934" lon="10.668567265417103"><ele>156.0</ele><time>2026-04-18T14:51:41.002Z</time></trkpt><trkpt lat="43.47889186289607" lon="10.668580564958862"><ele>156.0</ele><time>2026-04-18T14:51:42.002Z</time></trkpt><trkpt lat="43.47875491271487" lon="10.668536658541214"><ele>156.0</ele><time>2026-04-18T14:51:43.002Z</time></trkpt><trkpt lat="43.47861118946289" lon="10.668499960720277"><ele>156.0</ele><time>2026-04-18T14:51:44.002Z</time></trkpt><trkpt lat="43.47848008550718" lon="10.668462061567958"><ele>156.0</ele><time>2026-04-18T14:51:46.002Z</time></trkpt><trkpt lat="43.478323621078154" lon="10.668414831367134"><ele>156.0</ele><time>2026-04-18T14:51:47.002Z</time></trkpt><trkpt lat="43.478219867554664" lon="10.668382267716087"><ele>156.0</ele><time>2026-04-18T14:51:48.002Z</time></trkpt><trkpt lat="43.47809848087944" lon="10.668348437261043"><ele>156.0</ele><time>2026-04-18T14:51:49.002Z</time></trkpt><trkpt lat="43.47797386475868" lon="10.668335846387384"><ele>156.0</ele><time>2026-04-18T14:51:50.002Z</time></trkpt><trkpt lat="43.47784763601919" lon="10.668334830057002"><ele>156.0</ele><time>2026-04-18T14:51:51.002Z</time></trkpt><trkpt lat="43.477714467155" lon="10.668363765018116"><ele>156.0</ele><time>2026-04-18T14:51:52.002Z</time></trkpt><trkpt lat="43.47757584289142" lon="10.668403439233796"><ele>156.0</ele><time>2026-04-18T14:51:53.002Z</time></trkpt><trkpt lat="43.47743238167669" lon="10.668431228769354"><ele>156.0</ele><time>2026-04-18T14:51:54.002Z</time></trkpt><trkpt lat="43.47729001765248" lon="10.668466650157697"><ele>156.0</ele><time>2026-04-18T14:51:55.002Z</time></trkpt><trkpt lat="43.47714180756303" lon="10.66849389856201"><ele>156.0</ele><time>2026-04-18T14:51:56.002Z</time></trkpt><trkpt lat="43.47698099003367" lon="10.668527575386602"><ele>156.0</ele><time>2026-04-18T14:51:57.002Z</time></trkpt><trkpt lat="43.4768070708251" lon="10.66857178041777"><ele>156.0</ele><time>2026-04-18T14:51:58.002Z</time></trkpt><trkpt lat="43.47662683175239" lon="10.668644669828085"><ele>156.0</ele><time>2026-04-18T14:51:59.002Z</time></trkpt><trkpt lat="43.47644275232052" lon="10.668710518256274"><ele>156.0</ele><time>2026-04-18T14:52:00.002Z</time></trkpt><trkpt lat="43.476254321553675" lon="10.668744164188979"><ele>156.0</ele><time>2026-04-18T14:52:01.002Z</time></trkpt><trkpt lat="43.47607319452543" lon="10.668798178320477"><ele>156.0</ele><time>2026-04-18T14:52:02.002Z</time></trkpt><trkpt lat="43.47589472362399" lon="10.668851854645958"><ele>156.0</ele><time>2026-04-18T14:52:03.002Z</time></trkpt><trkpt lat="43.47573587987458" lon="10.668899404943586"><ele>156.0</ele><time>2026-04-18T14:52:04.002Z</time></trkpt><trkpt lat="43.475589974413275" lon="10.668947533091552"><ele>156.0</ele><time>2026-04-18T14:52:05.002Z</time></trkpt><trkpt lat="43.475454699319556" lon="10.668972263448158"><ele>156.0</ele><time>2026-04-18T14:52:06.002Z</time></trkpt><trkpt lat="43.475336993603236" lon="10.66897672271122"><ele>158.5</ele><time>2026-04-18T14:52:07.002Z</time></trkpt><trkpt lat="43.47523376889135" lon="10.668887611913155"><ele>161.0</ele><time>2026-04-18T14:52:08.002Z</time></trkpt><trkpt lat="43.47515109193158" lon="10.668794175434211"><ele>163.5</ele><time>2026-04-18T14:52:09.002Z</time></trkpt><trkpt lat="43.47506099194243" lon="10.668680582799617"><ele>166.0</ele><time>2026-04-18T14:52:10.002Z</time></trkpt><trkpt lat="43.474958762992685" lon="10.668579620423511"><ele>166.0</ele><time>2026-04-18T14:52:11.002Z</time></trkpt><trkpt lat="43.474839601943856" lon="10.668481728335916"><ele>166.0</ele><time>2026-04-18T14:52:12.002Z</time></trkpt><trkpt lat="43.47469899927826" lon="10.668401248517512"><ele>166.0</ele><time>2026-04-18T14:52:13.002Z</time></trkpt><trkpt lat="43.47455055284943" lon="10.668331637480216"><ele>166.0</ele><time>2026-04-18T14:52:14.002Z</time></trkpt><trkpt lat="43.47439255022297" lon="10.66826521275791"><ele>167.66666666666669</ele><time>2026-04-18T14:52:15.002Z</time></trkpt><trkpt lat="43.47423149826471" lon="10.6681966562222"><ele>169.33333333333334</ele><time>2026-04-18T14:52:16.002Z</time></trkpt><trkpt lat="43.474072485424884" lon="10.66810518993012"><ele>171.0</ele><time>2026-04-18T14:52:17.003Z</time></trkpt><trkpt lat="43.47391153816461" lon="10.668031301308844"><ele>171.0</ele><time>2026-04-18T14:52:18.003Z</time></trkpt><trkpt lat="43.4737723501229" lon="10.667964074645162"><ele>171.0</ele><time>2026-04-18T14:52:19.003Z</time></trkpt><trkpt lat="43.4736188466905" lon="10.667889429377363"><ele>171.0</ele><time>2026-04-18T14:52:20.003Z</time></trkpt><trkpt lat="43.47347689561675" lon="10.667815475928705"><ele>173.25</ele><time>2026-04-18T14:52:21.003Z</time></trkpt><trkpt lat="43.47333223437364" lon="10.667724417967047"><ele>175.5</ele><time>2026-04-18T14:52:22.003Z</time></trkpt><trkpt lat="43.4732135501955" lon="10.667629897874521"><ele>177.75</ele><time>2026-04-18T14:52:23.003Z</time></trkpt><trkpt lat="43.473149672352" lon="10.667537099335062"><ele>180.0</ele><time>2026-04-18T14:52:24Z</time></trkpt><trkpt lat="43.47310732468396" lon="10.66744662827825"><ele>180.0</ele><time>2026-04-18T14:52:25Z</time></trkpt><trkpt lat="43.47298990534719" lon="10.667174918333469"><ele>180.0</ele><time>2026-04-18T14:52:26Z</time></trkpt><trkpt lat="43.47292853830701" lon="10.667052392620487"><ele>180.0</ele><time>2026-04-18T14:52:27Z</time></trkpt><trkpt lat="43.47285937424514" lon="10.666946169843737"><ele>180.0</ele><time>2026-04-18T14:52:28Z</time></trkpt><trkpt lat="43.4727632285958" lon="10.666862317994415"><ele>181.75</ele><time>2026-04-18T14:52:29Z</time></trkpt><trkpt lat="43.47265945110228" lon="10.666768881269586"><ele>183.5</ele><time>2026-04-18T14:52:30Z</time></trkpt><trkpt lat="43.4725366406278" lon="10.666673561071223"><ele>185.25</ele><time>2026-04-18T14:52:31Z</time></trkpt><trkpt lat="43.472401537840106" lon="10.666569565547425"><ele>187.0</ele><time>2026-04-18T14:52:32Z</time></trkpt><trkpt lat="43.47225384181451" lon="10.666461841543425"><ele>186.66666666666669</ele><time>2026-04-18T14:52:33Z</time></trkpt><trkpt lat="43.47210589287396" lon="10.66635336406603"><ele>186.33333333333334</ele><time>2026-04-18T14:52:34Z</time></trkpt><trkpt lat="43.471957358193926" lon="10.666213929234551"><ele>186.0</ele><time>2026-04-18T14:52:35Z</time></trkpt><trkpt lat="43.47179499505757" lon="10.666089664879857"><ele>188.0</ele><time>2026-04-18T14:52:36Z</time></trkpt><trkpt lat="43.47163250324852" lon="10.665963509888844"><ele>190.0</ele><time>2026-04-18T14:52:37Z</time></trkpt><trkpt lat="43.47147102270883" lon="10.665838140004922"><ele>192.0</ele><time>2026-04-18T14:52:38Z</time></trkpt><trkpt lat="43.47130527801766" lon="10.665709582483544"><ele>192.66666666666669</ele><time>2026-04-18T14:52:39Z</time></trkpt><trkpt lat="43.47114003853741" lon="10.665581964927172"><ele>193.33333333333334</ele><time>2026-04-18T14:52:40Z</time></trkpt><trkpt lat="43.47098205761476" lon="10.665459953196846"><ele>194.0</ele><time>2026-04-18T14:52:41Z</time></trkpt><trkpt lat="43.47084893543172" lon="10.665362759033306"><ele>194.0</ele><time>2026-04-18T14:52:42Z</time></trkpt><trkpt lat="43.470745811249685" lon="10.665279294519282"><ele>194.0</ele><time>2026-04-18T14:52:43Z</time></trkpt><trkpt lat="43.470675369317576" lon="10.66519424619402"><ele>194.0</ele><time>2026-04-18T14:52:44Z</time></trkpt><trkpt lat="43.470625357601534" lon="10.66509827474788"><ele>194.0</ele><time>2026-04-18T14:52:45Z</time></trkpt><trkpt lat="43.470559267246216" lon="10.664969448275267"><ele>194.0</ele><time>2026-04-18T14:52:46Z</time></trkpt><trkpt lat="43.47049141764867" lon="10.664825946818786"><ele>199.75</ele><time>2026-04-18T14:52:47Z</time></trkpt><trkpt lat="43.47041780484239" lon="10.664661819138729"><ele>205.5</ele><time>2026-04-18T14:52:48Z</time></trkpt><trkpt lat="43.470348561946096" lon="10.664505971160104"><ele>211.25</ele><time>2026-04-18T14:52:49Z</time></trkpt><trkpt lat="43.47029056934663" lon="10.664339183956818"><ele>217.0</ele><time>2026-04-18T14:52:50.001Z</time></trkpt><trkpt lat="43.470271684067455" lon="10.66416638394451"><ele>217.5</ele><time>2026-04-18T14:52:51.001Z</time></trkpt><trkpt lat="43.47027932693962" lon="10.664001766659263"><ele>218.0</ele><time>2026-04-18T14:52:52.001Z</time></trkpt><trkpt lat="43.470276440644916" lon="10.663811018146765"><ele>218.5</ele><time>2026-04-18T14:52:53.001Z</time></trkpt><trkpt lat="43.470295609970115" lon="10.663617083960261"><ele>219.0</ele><time>2026-04-18T14:52:54.001Z</time></trkpt><trkpt lat="43.47029649646361" lon="10.663415016347134"><ele>220.25</ele><time>2026-04-18T14:52:55.001Z</time></trkpt><trkpt lat="43.470273525685286" lon="10.66322763058188"><ele>221.5</ele><time>2026-04-18T14:52:56.001Z</time></trkpt><trkpt lat="43.47023942963757" lon="10.663070706466314"><ele>222.75</ele><time>2026-04-18T14:52:57.001Z</time></trkpt><trkpt lat="43.470151267370944" lon="10.662981044475414"><ele>224.0</ele><time>2026-04-18T14:52:58.001Z</time></trkpt><trkpt lat="43.47007642918126" lon="10.662865787253777"><ele>225.0</ele><time>2026-04-18T14:52:59.001Z</time></trkpt><trkpt lat="43.469983261832105" lon="10.662747318862628"><ele>226.0</ele><time>2026-04-18T14:53:00.001Z</time></trkpt><trkpt lat="43.46987934239786" lon="10.662615177768737"><ele>227.0</ele><time>2026-04-18T14:53:01.001Z</time></trkpt><trkpt lat="43.469776803736515" lon="10.66248540901759"><ele>228.0</ele><time>2026-04-18T14:53:02.001Z</time></trkpt><trkpt lat="43.46967070616391" lon="10.662354853963839"><ele>229.5</ele><time>2026-04-18T14:53:03.001Z</time></trkpt><trkpt lat="43.469541504304" lon="10.662234282432664"><ele>231.0</ele><time>2026-04-18T14:53:04.001Z</time></trkpt><trkpt lat="43.46944801224578" lon="10.662084096391682"><ele>232.5</ele><time>2026-04-18T14:53:05.001Z</time></trkpt><trkpt lat="43.46934837042568" lon="10.661940346802435"><ele>234.0</ele><time>2026-04-18T14:53:06.001Z</time></trkpt><trkpt lat="43.46923859381626" lon="10.661795673588564"><ele>234.0</ele><time>2026-04-18T14:53:07.001Z</time></trkpt><trkpt lat="43.469181796607835" lon="10.661597663455675"><ele>234.0</ele><time>2026-04-18T14:53:08.001Z</time></trkpt><trkpt lat="43.46909518682462" lon="10.661399900368293"><ele>234.0</ele><time>2026-04-18T14:53:09.001Z</time></trkpt><trkpt lat="43.468985367665496" lon="10.66119327925499"><ele>233.66666666666669</ele><time>2026-04-18T14:53:10.001Z</time></trkpt><trkpt lat="43.46890710737855" lon="10.660980037431521"><ele>233.33333333333334</ele><time>2026-04-18T14:53:11.001Z</time></trkpt><trkpt lat="43.46880392521454" lon="10.6607738383775"><ele>233.0</ele><time>2026-04-18T14:53:12.001Z</time></trkpt><trkpt lat="43.468689826773335" lon="10.660584827862776"><ele>234.0</ele><time>2026-04-18T14:53:13.001Z</time></trkpt><trkpt lat="43.468565597427165" lon="10.660398533211703"><ele>235.0</ele><time>2026-04-18T14:53:14.001Z</time></trkpt><trkpt lat="43.46843647197725" lon="10.660210688866892"><ele>236.0</ele><time>2026-04-18T14:53:15.001Z</time></trkpt><trkpt lat="43.46830741401577" lon="10.6600240292047"><ele>238.66666666666669</ele><time>2026-04-18T14:53:16.001Z</time></trkpt><trkpt lat="43.468182955730526" lon="10.659846071291792"><ele>241.33333333333331</ele><time>2026-04-18T14:53:17.001Z</time></trkpt><trkpt lat="43.46805754849931" lon="10.65966675673658"><ele>244.0</ele><time>2026-04-18T14:53:18.001Z</time></trkpt><trkpt lat="43.46794365709851" lon="10.659503908164849"><ele>248.33333333333331</ele><time>2026-04-18T14:53:19.001Z</time></trkpt><trkpt lat="43.467823105681624" lon="10.659330206502004"><ele>252.66666666666669</ele><time>2026-04-18T14:53:20.001Z</time></trkpt><trkpt lat="43.467705692784314" lon="10.659159793466703"><ele>257.0</ele><time>2026-04-18T14:53:21.001Z</time></trkpt><trkpt lat="43.46758359058768" lon="10.65899880321949"><ele>257.0</ele><time>2026-04-18T14:53:22.001Z</time></trkpt><trkpt lat="43.467455085999006" lon="10.658854688501576"><ele>257.0</ele><time>2026-04-18T14:53:23.001Z</time></trkpt><trkpt lat="43.46732141670728" lon="10.658709265775698"><ele>257.0</ele><time>2026-04-18T14:53:24.001Z</time></trkpt><trkpt lat="43.46718668060099" lon="10.658565578644804"><ele>261.33333333333337</ele><time>2026-04-18T14:53:25.001Z</time></trkpt><trkpt lat="43.46704318154038" lon="10.658413553444353"><ele>265.6666666666667</ele><time>2026-04-18T14:53:26.001Z</time></trkpt><trkpt lat="43.46689640191786" lon="10.658258052763111"><ele>270.0</ele><time>2026-04-18T14:53:27.001Z</time></trkpt><trkpt lat="43.46675434052542" lon="10.658107550775542"><ele>270.0</ele><time>2026-04-18T14:53:28.001Z</time></trkpt><trkpt lat="43.46661497251078" lon="10.657959901998309"><ele>270.0</ele><time>2026-04-18T14:53:29.001Z</time></trkpt><trkpt lat="43.4664792335273" lon="10.657817403406703"><ele>270.0</ele><time>2026-04-18T14:53:30.001Z</time></trkpt><trkpt lat="43.46635371525999" lon="10.657679770663592"><ele>270.6666666666667</ele><time>2026-04-18T14:53:31.001Z</time></trkpt><trkpt lat="43.46630390835714" lon="10.657609018558055"><ele>271.3333333333333</ele><time>2026-04-18T14:53:32.001Z</time></trkpt><trkpt lat="43.46626024003335" lon="10.657504384157765"><ele>272.0</ele><time>2026-04-18T14:53:33.001Z</time></trkpt><trkpt lat="43.46623467595256" lon="10.657378771065517"><ele>272.66666666666663</ele><time>2026-04-18T14:53:34.001Z</time></trkpt><trkpt lat="43.46621292605278" lon="10.657266878753077"><ele>273.3333333333333</ele><time>2026-04-18T14:53:35.001Z</time></trkpt><trkpt lat="43.466183272064264" lon="10.657132771659349"><ele>274.0</ele><time>2026-04-18T14:53:36.001Z</time></trkpt><trkpt lat="43.466150598624836" lon="10.656992659400219"><ele>275.75</ele><time>2026-04-18T14:53:37.002Z</time></trkpt><trkpt lat="43.46611497666166" lon="10.656839903237275"><ele>277.5</ele><time>2026-04-18T14:53:38.002Z</time></trkpt><trkpt lat="43.46607877402483" lon="10.656685038956862"><ele>279.25</ele><time>2026-04-18T14:53:39.002Z</time></trkpt><trkpt lat="43.466044773978346" lon="10.656540432274527"><ele>281.0</ele><time>2026-04-18T14:53:40.002Z</time></trkpt><trkpt lat="43.46600355621207" lon="10.656365006556019"><ele>281.0</ele><time>2026-04-18T14:53:41.002Z</time></trkpt><trkpt lat="43.46596184209869" lon="10.656186787843339"><ele>281.0</ele><time>2026-04-18T14:53:42.002Z</time></trkpt><trkpt lat="43.465927364665646" lon="10.656039486998159"><ele>281.0</ele><time>2026-04-18T14:53:43.002Z</time></trkpt><trkpt lat="43.46589750771158" lon="10.655911081828478"><ele>281.0</ele><time>2026-04-18T14:53:44.002Z</time></trkpt><trkpt lat="43.46586270803387" lon="10.655789585063168"><ele>281.0</ele><time>2026-04-18T14:53:45.002Z</time></trkpt><trkpt lat="43.46586511624693" lon="10.655668783409551"><ele>283.0</ele><time>2026-04-18T14:53:46.002Z</time></trkpt><trkpt lat="43.46576957837431" lon="10.655392579283028"><ele>285.0</ele><time>2026-04-18T14:53:47.002Z</time></trkpt><trkpt lat="43.465739834003124" lon="10.655216475072745"><ele>287.0</ele><time>2026-04-18T14:53:48.002Z</time></trkpt><trkpt lat="43.46568873933318" lon="10.655043308382826"><ele>288.0</ele><time>2026-04-18T14:53:49.002Z</time></trkpt><trkpt lat="43.46564379815416" lon="10.654858543646135"><ele>289.0</ele><time>2026-04-18T14:53:50.002Z</time></trkpt><trkpt lat="43.465612002334744" lon="10.654668874581798"><ele>290.0</ele><time>2026-04-18T14:53:51.002Z</time></trkpt><trkpt lat="43.46555751041734" lon="10.654485813358088"><ele>291.0</ele><time>2026-04-18T14:53:52.002Z</time></trkpt><trkpt lat="43.46550931950187" lon="10.654291332636813"><ele>292.3333333333333</ele><time>2026-04-18T14:53:53.002Z</time></trkpt><trkpt lat="43.46546015622203" lon="10.654092307262367"><ele>293.66666666666663</ele><time>2026-04-18T14:53:54.002Z</time></trkpt><trkpt lat="43.4654200975527" lon="10.653887808517823"><ele>295.0</ele><time>2026-04-18T14:53:55.002Z</time></trkpt><trkpt lat="43.46536902521949" lon="10.653680822251788"><ele>297.0</ele><time>2026-04-18T14:53:56.002Z</time></trkpt><trkpt lat="43.4653328102754" lon="10.653463160584646"><ele>299.0</ele><time>2026-04-18T14:53:57.002Z</time></trkpt><trkpt lat="43.46528458111976" lon="10.653250442720301"><ele>301.0</ele><time>2026-04-18T14:53:58.002Z</time></trkpt><trkpt lat="43.46523561780514" lon="10.653052552048226"><ele>301.0</ele><time>2026-04-18T14:53:59.002Z</time></trkpt><trkpt lat="43.46519034096787" lon="10.652869561000086"><ele>301.0</ele><time>2026-04-18T14:54:00.002Z</time></trkpt><trkpt lat="43.46515225483648" lon="10.652715631454376"><ele>301.0</ele><time>2026-04-18T14:54:01.002Z</time></trkpt><trkpt lat="43.46512515748619" lon="10.652578208345133"><ele>301.0</ele><time>2026-04-18T14:54:02.002Z</time></trkpt><trkpt lat="43.46512122069135" lon="10.652416115509052"><ele>301.75</ele><time>2026-04-18T14:54:03.002Z</time></trkpt><trkpt lat="43.46515201570147" lon="10.652258201817112"><ele>302.5</ele><time>2026-04-18T14:54:04.002Z</time></trkpt><trkpt lat="43.465180026723814" lon="10.65209213069297"><ele>303.25</ele><time>2026-04-18T14:54:05.002Z</time></trkpt><trkpt lat="43.465209402864005" lon="10.65190726076007"><ele>304.0</ele><time>2026-04-18T14:54:06.002Z</time></trkpt><trkpt lat="43.46522317739974" lon="10.651704972990299"><ele>304.66666666666663</ele><time>2026-04-18T14:54:07.002Z</time></trkpt><trkpt lat="43.46525387371646" lon="10.651494566091877"><ele>305.3333333333333</ele><time>2026-04-18T14:54:08.002Z</time></trkpt><trkpt lat="43.46527807961877" lon="10.651290246711302"><ele>306.0</ele><time>2026-04-18T14:54:09.002Z</time></trkpt><trkpt lat="43.465307475901916" lon="10.65108042618293"><ele>306.5</ele><time>2026-04-18T14:54:10.002Z</time></trkpt><trkpt lat="43.46533720411097" lon="10.650867757566076"><ele>307.0</ele><time>2026-04-18T14:54:11.002Z</time></trkpt><trkpt lat="43.465365409749005" lon="10.650666416429859"><ele>307.5</ele><time>2026-04-18T14:54:12.002Z</time></trkpt><trkpt lat="43.46538770876705" lon="10.650505007174507"><ele>308.0</ele><time>2026-04-18T14:54:13.002Z</time></trkpt><trkpt lat="43.46539653165641" lon="10.650366493282696"><ele>307.83333333333337</ele><time>2026-04-18T14:54:14.002Z</time></trkpt><trkpt lat="43.465401025718776" lon="10.650261780530913"><ele>307.6666666666667</ele><time>2026-04-18T14:54:15.002Z</time></trkpt><trkpt lat="43.46540593689874" lon="10.650169428624755"><ele>307.5</ele><time>2026-04-18T14:54:16.002Z</time></trkpt><trkpt lat="43.4654194437002" lon="10.650069953300338"><ele>307.3333333333333</ele><time>2026-04-18T14:54:17.002Z</time></trkpt><trkpt lat="43.465446429782034" lon="10.64995845149639"><ele>307.16666666666663</ele><time>2026-04-18T14:54:18.002Z</time></trkpt><trkpt lat="43.46547251388439" lon="10.64984776774378"><ele>307.0</ele><time>2026-04-18T14:54:19.002Z</time></trkpt><trkpt lat="43.46550009532117" lon="10.649717789145868"><ele>307.0</ele><time>2026-04-18T14:54:20.002Z</time></trkpt><trkpt lat="43.46552380228869" lon="10.649572805291735"><ele>307.0</ele><time>2026-04-18T14:54:21.002Z</time></trkpt><trkpt lat="43.46556978108724" lon="10.649398823073597"><ele>307.0</ele><time>2026-04-18T14:54:22.003Z</time></trkpt><trkpt lat="43.4656068847852" lon="10.649253342088691"><ele>307.0</ele><time>2026-04-18T14:54:23.003Z</time></trkpt><trkpt lat="43.46562462902127" lon="10.649126840719724"><ele>307.0</ele><time>2026-04-18T14:54:24.003Z</time></trkpt><trkpt lat="43.46565981171139" lon="10.648964931625887"><ele>307.0</ele><time>2026-04-18T14:54:25.003Z</time></trkpt><trkpt lat="43.465699822376365" lon="10.648778625202532"><ele>307.0</ele><time>2026-04-18T14:54:26.003Z</time></trkpt><trkpt lat="43.465721393437406" lon="10.648626672539422"><ele>307.0</ele><time>2026-04-18T14:54:27.003Z</time></trkpt><trkpt lat="43.465750867751105" lon="10.648514384090188"><ele>307.0</ele><time>2026-04-18T14:54:28.003Z</time></trkpt><trkpt lat="43.46576155847358" lon="10.64833725142411"><ele>304.0</ele><time>2026-04-18T14:54:29.003Z</time></trkpt><trkpt lat="43.46579164326783" lon="10.648162827356648"><ele>301.0</ele><time>2026-04-18T14:54:30Z</time></trkpt><trkpt lat="43.465813816110945" lon="10.64799008580621"><ele>298.0</ele><time>2026-04-18T14:54:31Z</time></trkpt><trkpt lat="43.46582247601573" lon="10.64785616540886"><ele>295.0</ele><time>2026-04-18T14:54:32Z</time></trkpt><trkpt lat="43.46584925747375" lon="10.647655106720647"><ele>292.66666666666663</ele><time>2026-04-18T14:54:33Z</time></trkpt><trkpt lat="43.465880968747136" lon="10.647455923115484"><ele>290.3333333333333</ele><time>2026-04-18T14:54:34Z</time></trkpt><trkpt lat="43.465897816618615" lon="10.647241345768208"><ele>288.0</ele><time>2026-04-18T14:54:35Z</time></trkpt><trkpt lat="43.4659218396524" lon="10.647012023463851"><ele>287.0</ele><time>2026-04-18T14:54:36Z</time></trkpt><trkpt lat="43.465944997747364" lon="10.646771119450813"><ele>286.0</ele><time>2026-04-18T14:54:37Z</time></trkpt><trkpt lat="43.46596163971068" lon="10.646547248989176"><ele>285.0</ele><time>2026-04-18T14:54:38Z</time></trkpt><trkpt lat="43.465995052764214" lon="10.646303717230227"><ele>285.75</ele><time>2026-04-18T14:54:39Z</time></trkpt><trkpt lat="43.46602994303021" lon="10.646081046810282"><ele>286.5</ele><time>2026-04-18T14:54:40Z</time></trkpt><trkpt lat="43.466074296722795" lon="10.645917021782424"><ele>287.25</ele><time>2026-04-18T14:54:41Z</time></trkpt><trkpt lat="43.4661088908958" lon="10.645760146659258"><ele>288.0</ele><time>2026-04-18T14:54:42Z</time></trkpt><trkpt lat="43.466187572106136" lon="10.645341404034827"><ele>288.3333333333333</ele><time>2026-04-18T14:54:43Z</time></trkpt><trkpt lat="43.46624854340045" lon="10.645114001065997"><ele>288.66666666666663</ele><time>2026-04-18T14:54:44Z</time></trkpt><trkpt lat="43.46629269740127" lon="10.644913924840141"><ele>289.0</ele><time>2026-04-18T14:54:45Z</time></trkpt><trkpt lat="43.46633704457666" lon="10.644718971202678"><ele>290.3333333333333</ele><time>2026-04-18T14:54:46Z</time></trkpt><trkpt lat="43.46641444964093" lon="10.644530720020322"><ele>291.6666666666667</ele><time>2026-04-18T14:54:47Z</time></trkpt><trkpt lat="43.466473528483505" lon="10.644319744486848"><ele>293.0</ele><time>2026-04-18T14:54:48Z</time></trkpt><trkpt lat="43.46655837000763" lon="10.644113209311975"><ele>294.33333333333337</ele><time>2026-04-18T14:54:49.001Z</time></trkpt><trkpt lat="43.46663572862705" lon="10.643900107443882"><ele>295.6666666666667</ele><time>2026-04-18T14:54:50.001Z</time></trkpt><trkpt lat="43.46670922220265" lon="10.643690294430892"><ele>297.0</ele><time>2026-04-18T14:54:51.001Z</time></trkpt><trkpt lat="43.46677909293202" lon="10.64348231187455"><ele>298.0</ele><time>2026-04-18T14:54:52.001Z</time></trkpt><trkpt lat="43.466844185612864" lon="10.64329960862918"><ele>299.0</ele><time>2026-04-18T14:54:53.001Z</time></trkpt><trkpt lat="43.466905079630116" lon="10.643155515782258"><ele>300.0</ele><time>2026-04-18T14:54:54.001Z</time></trkpt><trkpt lat="43.466947527666505" lon="10.643045322504053"><ele>301.0</ele><time>2026-04-18T14:54:55.001Z</time></trkpt><trkpt lat="43.4669661335334" lon="10.642945647117845"><ele>302.0</ele><time>2026-04-18T14:54:56.001Z</time></trkpt><trkpt lat="43.4669528127972" lon="10.642854300501314"><ele>302.8571428571429</ele><time>2026-04-18T14:54:57.001Z</time></trkpt><trkpt lat="43.46691588964447" lon="10.642769032247884"><ele>303.7142857142857</ele><time>2026-04-18T14:54:58.001Z</time></trkpt><trkpt lat="43.46690074998968" lon="10.6426803993748"><ele>304.57142857142856</ele><time>2026-04-18T14:54:59.001Z</time></trkpt><trkpt lat="43.46694065836145" lon="10.642589856265067"><ele>305.42857142857144</ele><time>2026-04-18T14:55:00.001Z</time></trkpt><trkpt lat="43.467005041111314" lon="10.642558240854761"><ele>306.2857142857143</ele><time>2026-04-18T14:55:01.001Z</time></trkpt><trkpt lat="43.46705971137845" lon="10.642490338509337"><ele>307.14285714285717</ele><time>2026-04-18T14:55:02.001Z</time></trkpt><trkpt lat="43.46712562222173" lon="10.642404331525443"><ele>308.0</ele><time>2026-04-18T14:55:03.001Z</time></trkpt><trkpt lat="43.4672077113649" lon="10.642318717280771"><ele>308.8</ele><time>2026-04-18T14:55:04.001Z</time></trkpt><trkpt lat="43.467288019507414" lon="10.6422167166593"><ele>309.6</ele><time>2026-04-18T14:55:05.001Z</time></trkpt><trkpt lat="43.46735580349058" lon="10.642106608033858"><ele>310.4</ele><time>2026-04-18T14:55:06.001Z</time></trkpt><trkpt lat="43.467418188219966" lon="10.64198819506639"><ele>311.2</ele><time>2026-04-18T14:55:07.001Z</time></trkpt><trkpt lat="43.467477742739" lon="10.64186316818148"><ele>312.0</ele><time>2026-04-18T14:55:08.001Z</time></trkpt><trkpt lat="43.46754366390014" lon="10.641740016239174"><ele>313.4</ele><time>2026-04-18T14:55:09.001Z</time></trkpt><trkpt lat="43.46759249202362" lon="10.641612168173197"><ele>314.79999999999995</ele><time>2026-04-18T14:55:10.001Z</time></trkpt><trkpt lat="43.46763251518198" lon="10.6414792519376"><ele>316.2</ele><time>2026-04-18T14:55:11.001Z</time></trkpt><trkpt lat="43.46767343078644" lon="10.641342668395907"><ele>317.59999999999997</ele><time>2026-04-18T14:55:12.001Z</time></trkpt><trkpt lat="43.467722962004515" lon="10.64119690881009"><ele>319.0</ele><time>2026-04-18T14:55:13.001Z</time></trkpt><trkpt lat="43.46779106235633" lon="10.641053111649397"><ele>320.25</ele><time>2026-04-18T14:55:14.001Z</time></trkpt><trkpt lat="43.46784431638727" lon="10.640904734026801"><ele>321.5</ele><time>2026-04-18T14:55:15.001Z</time></trkpt><trkpt lat="43.467886922091466" lon="10.640752155137996"><ele>322.75</ele><time>2026-04-18T14:55:16.001Z</time></trkpt><trkpt lat="43.46794296427105" lon="10.6405965112947"><ele>324.0</ele><time>2026-04-18T14:55:17.001Z</time></trkpt><trkpt lat="43.46799824438332" lon="10.640440597788833"><ele>324.2</ele><time>2026-04-18T14:55:18.001Z</time></trkpt><trkpt lat="43.468067407233605" lon="10.640304350130085"><ele>324.4</ele><time>2026-04-18T14:55:19.001Z</time></trkpt><trkpt lat="43.46813364772193" lon="10.640169403677275"><ele>324.6</ele><time>2026-04-18T14:55:20.001Z</time></trkpt><trkpt lat="43.46821494303621" lon="10.640070953974266"><ele>324.8</ele><time>2026-04-18T14:55:21.001Z</time></trkpt><trkpt lat="43.46828263521634" lon="10.64000437340775"><ele>325.0</ele><time>2026-04-18T14:55:22.001Z</time></trkpt><trkpt lat="43.4683744216359" lon="10.639930137240931"><ele>326.0</ele><time>2026-04-18T14:55:23.001Z</time></trkpt><trkpt lat="43.46848362654398" lon="10.639873697873375"><ele>327.0</ele><time>2026-04-18T14:55:24.001Z</time></trkpt><trkpt lat="43.46859063067276" lon="10.639811704068933"><ele>328.0</ele><time>2026-04-18T14:55:25.001Z</time></trkpt><trkpt lat="43.46868449781431" lon="10.639760416953974"><ele>329.0</ele><time>2026-04-18T14:55:26.001Z</time></trkpt><trkpt lat="43.468775200588695" lon="10.6397059325461"><ele>330.0</ele><time>2026-04-18T14:55:27.001Z</time></trkpt><trkpt lat="43.46885785542205" lon="10.639677177629778"><ele>330.0</ele><time>2026-04-18T14:55:28.001Z</time></trkpt><trkpt lat="43.468920736661445" lon="10.639610559901893"><ele>330.0</ele><time>2026-04-18T14:55:29.001Z</time></trkpt><trkpt lat="43.468984758486485" lon="10.63956760763338"><ele>330.0</ele><time>2026-04-18T14:55:30.001Z</time></trkpt><trkpt lat="43.46905824718671" lon="10.639512222887271"><ele>330.0</ele><time>2026-04-18T14:55:31.001Z</time></trkpt><trkpt lat="43.46913891184097" lon="10.639443191589745"><ele>330.0</ele><time>2026-04-18T14:55:32.001Z</time></trkpt><trkpt lat="43.46921581564199" lon="10.639375212642694"><ele>330.0</ele><time>2026-04-18T14:55:33.001Z</time></trkpt><trkpt lat="43.46928782884697" lon="10.639307769969669"><ele>330.5</ele><time>2026-04-18T14:55:34.001Z</time></trkpt><trkpt lat="43.46935471817984" lon="10.639226896449287"><ele>331.0</ele><time>2026-04-18T14:55:35.001Z</time></trkpt><trkpt lat="43.46942366934324" lon="10.639157342387756"><ele>331.5</ele><time>2026-04-18T14:55:36.001Z</time></trkpt><trkpt lat="43.46945542315818" lon="10.639043874346097"><ele>332.0</ele><time>2026-04-18T14:55:37.001Z</time></trkpt><trkpt lat="43.469496005062204" lon="10.638926104330897"><ele>332.5</ele><time>2026-04-18T14:55:38.001Z</time></trkpt><trkpt lat="43.469538563871666" lon="10.638821854708446"><ele>333.0</ele><time>2026-04-18T14:55:39.002Z</time></trkpt><trkpt lat="43.469559196109245" lon="10.63870152807581"><ele>331.79999999999995</ele><time>2026-04-18T14:55:40.002Z</time></trkpt><trkpt lat="43.46958194050988" lon="10.638602192442885"><ele>330.6</ele><time>2026-04-18T14:55:41.002Z</time></trkpt><trkpt lat="43.469623413346355" lon="10.638489855643686"><ele>329.4</ele><time>2026-04-18T14:55:42.002Z</time></trkpt><trkpt lat="43.46966721967286" lon="10.638379516548596"><ele>328.20000000000005</ele><time>2026-04-18T14:55:43.002Z</time></trkpt><trkpt lat="43.46973924848881" lon="10.638296142790706"><ele>327.0</ele><time>2026-04-18T14:55:44.002Z</time></trkpt><trkpt lat="43.469821690856904" lon="10.638224842762932"><ele>330.6</ele><time>2026-04-18T14:55:45.002Z</time></trkpt><trkpt lat="43.46988947379462" lon="10.638156408207864"><ele>334.20000000000005</ele><time>2026-04-18T14:55:46.002Z</time></trkpt><trkpt lat="43.46996002685364" lon="10.638099946047822"><ele>337.8</ele><time>2026-04-18T14:55:47.002Z</time></trkpt><trkpt lat="43.4700476915685" lon="10.63804173586186"><ele>341.4</ele><time>2026-04-18T14:55:48.002Z</time></trkpt><trkpt lat="43.470134958787966" lon="10.638005902898136"><ele>345.0</ele><time>2026-04-18T14:55:49.002Z</time></trkpt><trkpt lat="43.470243619909965" lon="10.637924243291037"><ele>345.0</ele><time>2026-04-18T14:55:50.002Z</time></trkpt><trkpt lat="43.470344537193014" lon="10.637880274657826"><ele>345.0</ele><time>2026-04-18T14:55:51.002Z</time></trkpt><trkpt lat="43.47045209648346" lon="10.6378385714702"><ele>345.0</ele><time>2026-04-18T14:55:52.002Z</time></trkpt><trkpt lat="43.470547372889186" lon="10.63780257859152"><ele>345.0</ele><time>2026-04-18T14:55:53.002Z</time></trkpt><trkpt lat="43.47064953300938" lon="10.63774627513719"><ele>345.0</ele><time>2026-04-18T14:55:54.002Z</time></trkpt><trkpt lat="43.47075218805079" lon="10.637696411072785"><ele>345.8333333333333</ele><time>2026-04-18T14:55:55.002Z</time></trkpt><trkpt lat="43.470836828508524" lon="10.637658958297289"><ele>346.6666666666667</ele><time>2026-04-18T14:55:56.002Z</time></trkpt><trkpt lat="43.470902013660684" lon="10.637621349641394"><ele>347.5</ele><time>2026-04-18T14:55:57.002Z</time></trkpt><trkpt lat="43.47096274518586" lon="10.637546315602494"><ele>348.33333333333337</ele><time>2026-04-18T14:55:58.002Z</time></trkpt><trkpt lat="43.471043029091696" lon="10.637484385788971"><ele>349.1666666666667</ele><time>2026-04-18T14:55:59.002Z</time></trkpt><trkpt lat="43.47111384157686" lon="10.637416539337519"><ele>350.0</ele><time>2026-04-18T14:56:00.002Z</time></trkpt><trkpt lat="43.47118428833027" lon="10.63735177335627"><ele>350.0</ele><time>2026-04-18T14:56:01.002Z</time></trkpt><trkpt lat="43.471255493069954" lon="10.637259945199991"><ele>350.0</ele><time>2026-04-18T14:56:02.002Z</time></trkpt><trkpt lat="43.47134234813982" lon="10.637177777547064"><ele>350.0</ele><time>2026-04-18T14:56:03.002Z</time></trkpt><trkpt lat="43.47142634899396" lon="10.637093400031894"><ele>350.0</ele><time>2026-04-18T14:56:04.002Z</time></trkpt><trkpt lat="43.47152615682386" lon="10.63701018362889"><ele>350.0</ele><time>2026-04-18T14:56:05.002Z</time></trkpt><trkpt lat="43.47161296887755" lon="10.636943622116892"><ele>351.5</ele><time>2026-04-18T14:56:06.002Z</time></trkpt><trkpt lat="43.47169532237958" lon="10.636885712424542"><ele>353.0</ele><time>2026-04-18T14:56:07.002Z</time></trkpt><trkpt lat="43.471813897282004" lon="10.63679142502465"><ele>354.5</ele><time>2026-04-18T14:56:08.002Z</time></trkpt><trkpt lat="43.47191534923869" lon="10.636706626719379"><ele>356.0</ele><time>2026-04-18T14:56:09.002Z</time></trkpt><trkpt lat="43.47201235507328" lon="10.636641774187135"><ele>356.0</ele><time>2026-04-18T14:56:10.002Z</time></trkpt><trkpt lat="43.47210121465833" lon="10.63657667016032"><ele>356.0</ele><time>2026-04-18T14:56:11.002Z</time></trkpt><trkpt lat="43.47216714595703" lon="10.636529007750063"><ele>356.0</ele><time>2026-04-18T14:56:12.002Z</time></trkpt><trkpt lat="43.4722380840882" lon="10.636470644864781"><ele>356.0</ele><time>2026-04-18T14:56:13.002Z</time></trkpt><trkpt lat="43.472299930628296" lon="10.636404829795884"><ele>356.0</ele><time>2026-04-18T14:56:14.002Z</time></trkpt><trkpt lat="43.47237093360964" lon="10.636348779971208"><ele>356.0</ele><time>2026-04-18T14:56:15.002Z</time></trkpt><trkpt lat="43.47244104179755" lon="10.636287731693583"><ele>355.20000000000005</ele><time>2026-04-18T14:56:16.002Z</time></trkpt><trkpt lat="43.47249408677294" lon="10.636234080944728"><ele>354.40000000000003</ele><time>2026-04-18T14:56:17.002Z</time></trkpt><trkpt lat="43.47256822900165" lon="10.636145149365543"><ele>353.6</ele><time>2026-04-18T14:56:19.002Z</time></trkpt><trkpt lat="43.47257704000699" lon="10.636010118384801"><ele>352.8</ele><time>2026-04-18T14:56:22.002Z</time></trkpt><trkpt lat="43.472410437948746" lon="10.636098058715813"><ele>352.0</ele><time>2026-04-18T14:56:24.002Z</time></trkpt><trkpt lat="43.4723371707314" lon="10.636136132889494"><ele>352.0</ele><time>2026-04-18T14:56:25.002Z</time></trkpt><trkpt lat="43.47226112189734" lon="10.636157019449678"><ele>352.0</ele><time>2026-04-18T14:56:26.003Z</time></trkpt><trkpt lat="43.47215939579733" lon="10.636138921781859"><ele>352.0</ele><time>2026-04-18T14:56:27.003Z</time></trkpt><trkpt lat="43.47204535190941" lon="10.636131627613599"><ele>352.0</ele><time>2026-04-18T14:56:28.003Z</time></trkpt><trkpt lat="43.47195835118273" lon="10.636043539684005"><ele>352.0</ele><time>2026-04-18T14:56:29.003Z</time></trkpt><trkpt lat="43.47186972034073" lon="10.635969494537411"><ele>354.0</ele><time>2026-04-18T14:56:30.003Z</time></trkpt><trkpt lat="43.4717949653901" lon="10.635844719656895"><ele>356.0</ele><time>2026-04-18T14:56:31.003Z</time></trkpt><trkpt lat="43.471721878859775" lon="10.635688487603755"><ele>358.0</ele><time>2026-04-18T14:56:32.003Z</time></trkpt><trkpt lat="43.47166288000976" lon="10.635499709047332"><ele>360.0</ele><time>2026-04-18T14:56:33.003Z</time></trkpt><trkpt lat="43.47157741400702" lon="10.635319675745976"><ele>361.0</ele><time>2026-04-18T14:56:34.003Z</time></trkpt><trkpt lat="43.47151104944083" lon="10.635139737024986"><ele>362.0</ele><time>2026-04-18T14:56:35.003Z</time></trkpt><trkpt lat="43.47143765183244" lon="10.634951949185426"><ele>363.0</ele><time>2026-04-18T14:56:36Z</time></trkpt><trkpt lat="43.47136095379678" lon="10.634747758440193"><ele>363.0</ele><time>2026-04-18T14:56:37Z</time></trkpt><trkpt lat="43.47128042577424" lon="10.634538715826729"><ele>363.0</ele><time>2026-04-18T14:56:38Z</time></trkpt><trkpt lat="43.47119139803173" lon="10.634311451765175"><ele>363.0</ele><time>2026-04-18T14:56:39Z</time></trkpt><trkpt lat="43.47110905272743" lon="10.634091396494824"><ele>361.6666666666667</ele><time>2026-04-18T14:56:40Z</time></trkpt><trkpt lat="43.47102643389202" lon="10.633864575076798"><ele>360.33333333333337</ele><time>2026-04-18T14:56:41Z</time></trkpt><trkpt lat="43.470940381516876" lon="10.633634701690278"><ele>359.0</ele><time>2026-04-18T14:56:42Z</time></trkpt><trkpt lat="43.470854587687555" lon="10.633407352176944"><ele>359.0</ele><time>2026-04-18T14:56:43Z</time></trkpt><trkpt lat="43.470770402319054" lon="10.633203006906324"><ele>359.0</ele><time>2026-04-18T14:56:44Z</time></trkpt><trkpt lat="43.47068142981234" lon="10.63302654004475"><ele>359.0</ele><time>2026-04-18T14:56:45Z</time></trkpt><trkpt lat="43.470566939782856" lon="10.632846021811362"><ele>356.33333333333337</ele><time>2026-04-18T14:56:46Z</time></trkpt><trkpt lat="43.470430019913" lon="10.632681945684253"><ele>353.6666666666667</ele><time>2026-04-18T14:56:47Z</time></trkpt><trkpt lat="43.47028271934522" lon="10.632515532865835"><ele>351.0</ele><time>2026-04-18T14:56:48Z</time></trkpt><trkpt lat="43.47015609895135" lon="10.632323333122999"><ele>351.0</ele><time>2026-04-18T14:56:49Z</time></trkpt><trkpt lat="43.470043986844956" lon="10.63215471867696"><ele>351.0</ele><time>2026-04-18T14:56:50Z</time></trkpt><trkpt lat="43.46992869431134" lon="10.632028750602773"><ele>351.0</ele><time>2026-04-18T14:56:51Z</time></trkpt><trkpt lat="43.4697908634076" lon="10.631953695280115"><ele>348.0</ele><time>2026-04-18T14:56:52Z</time></trkpt><trkpt lat="43.46966354745288" lon="10.631905492713582"><ele>345.0</ele><time>2026-04-18T14:56:53Z</time></trkpt><trkpt lat="43.46953985859646" lon="10.631870444626674"><ele>342.0</ele><time>2026-04-18T14:56:54Z</time></trkpt><trkpt lat="43.469434631491204" lon="10.631813600235231"><ele>339.0</ele><time>2026-04-18T14:56:55Z</time></trkpt><trkpt lat="43.46938055366109" lon="10.63169154913603"><ele>339.0</ele><time>2026-04-18T14:56:56Z</time></trkpt><trkpt lat="43.46937153324073" lon="10.63155504118217"><ele>339.0</ele><time>2026-04-18T14:56:57Z</time></trkpt><trkpt lat="43.469402455384596" lon="10.631398603299278"><ele>339.0</ele><time>2026-04-18T14:56:58Z</time></trkpt><trkpt lat="43.46937307620583" lon="10.631224136405853"><ele>339.0</ele><time>2026-04-18T14:56:59Z</time></trkpt><trkpt lat="43.469322153129504" lon="10.631047780740195"><ele>341.5</ele><time>2026-04-18T14:57:00Z</time></trkpt><trkpt lat="43.46927452161884" lon="10.630879615993248"><ele>344.0</ele><time>2026-04-18T14:57:01Z</time></trkpt><trkpt lat="43.46922775296856" lon="10.630725714687662"><ele>346.5</ele><time>2026-04-18T14:57:02Z</time></trkpt><trkpt lat="43.46920451422362" lon="10.630581487741832"><ele>349.0</ele><time>2026-04-18T14:57:03Z</time></trkpt><trkpt lat="43.46921355577993" lon="10.630432400972316"><ele>349.0</ele><time>2026-04-18T14:57:04Z</time></trkpt><trkpt lat="43.46927022459257" lon="10.630311072414662"><ele>349.0</ele><time>2026-04-18T14:57:05.001Z</time></trkpt><trkpt lat="43.469359713385956" lon="10.630226847994216"><ele>349.0</ele><time>2026-04-18T14:57:06.001Z</time></trkpt><trkpt lat="43.46942863518793" lon="10.630107058084452"><ele>349.0</ele><time>2026-04-18T14:57:07.001Z</time></trkpt><trkpt lat="43.469485945059276" lon="10.629974021446081"><ele>349.0</ele><time>2026-04-18T14:57:08.001Z</time></trkpt><trkpt lat="43.46950264663085" lon="10.629819690998964"><ele>350.66666666666663</ele><time>2026-04-18T14:57:09.001Z</time></trkpt><trkpt lat="43.46949537735387" lon="10.629680229137096"><ele>352.3333333333333</ele><time>2026-04-18T14:57:10.001Z</time></trkpt><trkpt lat="43.46945826270471" lon="10.629573856255861"><ele>354.0</ele><time>2026-04-18T14:57:11.001Z</time></trkpt><trkpt lat="43.469392397761595" lon="10.629512454545186"><ele>355.6666666666667</ele><time>2026-04-18T14:57:12.001Z</time></trkpt><trkpt lat="43.46931417751873" lon="10.629508780732673"><ele>357.33333333333337</ele><time>2026-04-18T14:57:13.001Z</time></trkpt><trkpt lat="43.46922560744117" lon="10.629541537593392"><ele>359.0</ele><time>2026-04-18T14:57:14.001Z</time></trkpt><trkpt lat="43.46913898597" lon="10.62961260288236"><ele>359.0</ele><time>2026-04-18T14:57:15.001Z</time></trkpt><trkpt lat="43.469059591721795" lon="10.629705945246627"><ele>359.0</ele><time>2026-04-18T14:57:16.001Z</time></trkpt><trkpt lat="43.468968764662925" lon="10.62980352719939"><ele>359.0</ele><time>2026-04-18T14:57:17.001Z</time></trkpt><trkpt lat="43.468863217243474" lon="10.629884440831605"><ele>359.0</ele><time>2026-04-18T14:57:18.001Z</time></trkpt><trkpt lat="43.468754767110084" lon="10.629967378719359"><ele>360.25</ele><time>2026-04-18T14:57:19.001Z</time></trkpt><trkpt lat="43.468665556237156" lon="10.630079856024864"><ele>361.5</ele><time>2026-04-18T14:57:20.001Z</time></trkpt><trkpt lat="43.46859074434121" lon="10.63022015210151"><ele>362.75</ele><time>2026-04-18T14:57:21.001Z</time></trkpt><trkpt lat="43.46854269204754" lon="10.630397374433176"><ele>364.0</ele><time>2026-04-18T14:57:22.001Z</time></trkpt><trkpt lat="43.468506161329316" lon="10.63058378679398"><ele>364.0</ele><time>2026-04-18T14:57:23.001Z</time></trkpt><trkpt lat="43.46846342673725" lon="10.630778586505622"><ele>364.0</ele><time>2026-04-18T14:57:24.001Z</time></trkpt><trkpt lat="43.468411257240575" lon="10.630986861008024"><ele>364.0</ele><time>2026-04-18T14:57:25.001Z</time></trkpt><trkpt lat="43.46833128502818" lon="10.631153444975944"><ele>364.25</ele><time>2026-04-18T14:57:26.001Z</time></trkpt><trkpt lat="43.46824516142201" lon="10.631255760453161"><ele>364.5</ele><time>2026-04-18T14:57:27.001Z</time></trkpt><trkpt lat="43.46814026877067" lon="10.631254475109698"><ele>364.75</ele><time>2026-04-18T14:57:28.001Z</time></trkpt><trkpt lat="43.468042870775875" lon="10.631200071699002"><ele>365.0</ele><time>2026-04-18T14:57:29.001Z</time></trkpt><trkpt lat="43.467913734392624" lon="10.631124112319954"><ele>365.0</ele><time>2026-04-18T14:57:30.001Z</time></trkpt><trkpt lat="43.46776129148421" lon="10.631039782632536"><ele>365.0</ele><time>2026-04-18T14:57:31.001Z</time></trkpt><trkpt lat="43.46759972497766" lon="10.630969330990705"><ele>365.0</ele><time>2026-04-18T14:57:32.001Z</time></trkpt><trkpt lat="43.467429047068" lon="10.63089262325881"><ele>365.0</ele><time>2026-04-18T14:57:33.001Z</time></trkpt><trkpt lat="43.4672488514756" lon="10.63079871219455"><ele>365.0</ele><time>2026-04-18T14:57:34.001Z</time></trkpt><trkpt lat="43.46708188712573" lon="10.630745253371618"><ele>365.0</ele><time>2026-04-18T14:57:35.001Z</time></trkpt><trkpt lat="43.46692183567588" lon="10.630781361310856"><ele>364.6666666666667</ele><time>2026-04-18T14:57:36.001Z</time></trkpt><trkpt lat="43.4667497094346" lon="10.630843956067652"><ele>364.3333333333333</ele><time>2026-04-18T14:57:37.001Z</time></trkpt><trkpt lat="43.466571754441254" lon="10.630905717325168"><ele>364.0</ele><time>2026-04-18T14:57:38.001Z</time></trkpt><trkpt lat="43.466428259120924" lon="10.630940845904"><ele>364.0</ele><time>2026-04-18T14:57:39.001Z</time></trkpt><trkpt lat="43.466313117465994" lon="10.630930451638832"><ele>364.0</ele><time>2026-04-18T14:57:40.001Z</time></trkpt><trkpt lat="43.46622815656853" lon="10.630883499234065"><ele>364.0</ele><time>2026-04-18T14:57:41.001Z</time></trkpt><trkpt lat="43.466129216982964" lon="10.630785973715001"><ele>364.0</ele><time>2026-04-18T14:57:42.001Z</time></trkpt><trkpt lat="43.466063813406876" lon="10.63074105299897"><ele>364.0</ele><time>2026-04-18T14:57:43.001Z</time></trkpt><trkpt lat="43.46607120555459" lon="10.630598146398402"><ele>363.79999999999995</ele><time>2026-04-18T14:57:48.001Z</time></trkpt><trkpt lat="43.46604710096221" lon="10.630422624570388"><ele>363.59999999999997</ele><time>2026-04-18T14:57:50.001Z</time></trkpt><trkpt lat="43.46605006321768" lon="10.630328075341785"><ele>363.4</ele><time>2026-04-18T14:57:51.001Z</time></trkpt><trkpt lat="43.466060920429044" lon="10.630234240275284"><ele>363.2</ele><time>2026-04-18T14:57:52.001Z</time></trkpt><trkpt lat="43.46606223580352" lon="10.630107677026341"><ele>363.0</ele><time>2026-04-18T14:57:53.002Z</time></trkpt><trkpt lat="43.46606426670472" lon="10.629982992447916"><ele>363.4</ele><time>2026-04-18T14:57:54.002Z</time></trkpt><trkpt lat="43.466043591205995" lon="10.629891214639152"><ele>363.79999999999995</ele><time>2026-04-18T14:57:55.002Z</time></trkpt><trkpt lat="43.465999086364405" lon="10.629804636922692"><ele>364.2</ele><time>2026-04-18T14:57:56.002Z</time></trkpt><trkpt lat="43.46595750613784" lon="10.629694538567742"><ele>364.6</ele><time>2026-04-18T14:57:57.002Z</time></trkpt><trkpt lat="43.46589051272531" lon="10.629577246123457"><ele>365.0</ele><time>2026-04-18T14:57:58.002Z</time></trkpt><trkpt lat="43.46581218796405" lon="10.629455563636348"><ele>368.5</ele><time>2026-04-18T14:57:59.002Z</time></trkpt><trkpt lat="43.46573962215514" lon="10.629348072235029"><ele>372.0</ele><time>2026-04-18T14:58:00.002Z</time></trkpt><trkpt lat="43.46564997350252" lon="10.629251078049101"><ele>375.5</ele><time>2026-04-18T14:58:01.002Z</time></trkpt><trkpt lat="43.46556478280651" lon="10.629131251372117"><ele>379.0</ele><time>2026-04-18T14:58:02.002Z</time></trkpt><trkpt lat="43.46544961689094" lon="10.629065662216746"><ele>376.0</ele><time>2026-04-18T14:58:03.002Z</time></trkpt><trkpt lat="43.46536196180164" lon="10.628950623792527"><ele>373.0</ele><time>2026-04-18T14:58:04.002Z</time></trkpt><trkpt lat="43.46528148546675" lon="10.628827548356043"><ele>370.0</ele><time>2026-04-18T14:58:05.002Z</time></trkpt><trkpt lat="43.46519692260947" lon="10.62869594740949"><ele>367.0</ele><time>2026-04-18T14:58:06.002Z</time></trkpt><trkpt lat="43.46513220121145" lon="10.628579939320428"><ele>367.0</ele><time>2026-04-18T14:58:07.002Z</time></trkpt><trkpt lat="43.46508443226133" lon="10.62847750947533"><ele>367.0</ele><time>2026-04-18T14:58:08.002Z</time></trkpt><trkpt lat="43.4650479539812" lon="10.628385998072279"><ele>367.0</ele><time>2026-04-18T14:58:09.002Z</time></trkpt><trkpt lat="43.4650136202626" lon="10.62829633002931"><ele>367.0</ele><time>2026-04-18T14:58:10.002Z</time></trkpt><trkpt lat="43.46506710364858" lon="10.628143538657628"><ele>367.0</ele><time>2026-04-18T14:58:12.002Z</time></trkpt><trkpt lat="43.46513854676821" lon="10.628063073062592"><ele>367.0</ele><time>2026-04-18T14:58:13.002Z</time></trkpt><trkpt lat="43.46520242217677" lon="10.62796880355093"><ele>367.0</ele><time>2026-04-18T14:58:14.002Z</time></trkpt><trkpt lat="43.46524961066419" lon="10.627842860969627"><ele>367.0</ele><time>2026-04-18T14:58:15.002Z</time></trkpt><trkpt lat="43.46530730006257" lon="10.627723140165694"><ele>367.0</ele><time>2026-04-18T14:58:16.002Z</time></trkpt><trkpt lat="43.46537974583256" lon="10.62761847021076"><ele>367.0</ele><time>2026-04-18T14:58:17.002Z</time></trkpt><trkpt lat="43.465448763544046" lon="10.62754297373103"><ele>367.66666666666663</ele><time>2026-04-18T14:58:18.002Z</time></trkpt><trkpt lat="43.46549728391328" lon="10.627487270508828"><ele>368.3333333333333</ele><time>2026-04-18T14:58:19.002Z</time></trkpt><trkpt lat="43.46552917728037" lon="10.627374726983867"><ele>369.0</ele><time>2026-04-18T14:58:21.002Z</time></trkpt><trkpt lat="43.46555248230601" lon="10.627250397641516"><ele>369.6666666666667</ele><time>2026-04-18T14:58:23.002Z</time></trkpt><trkpt lat="43.46552687930347" lon="10.627160949744306"><ele>370.33333333333337</ele><time>2026-04-18T14:58:24.002Z</time></trkpt><trkpt lat="43.46543309367358" lon="10.627097850833675"><ele>371.0</ele><time>2026-04-18T14:58:25.002Z</time></trkpt><trkpt lat="43.465341667634995" lon="10.627093751468376"><ele>371.0</ele><time>2026-04-18T14:58:26.002Z</time></trkpt><trkpt lat="43.46524461654511" lon="10.627063548288715"><ele>371.0</ele><time>2026-04-18T14:58:27.002Z</time></trkpt><trkpt lat="43.46514513075255" lon="10.627044423251405"><ele>371.0</ele><time>2026-04-18T14:58:28.002Z</time></trkpt><trkpt lat="43.46503024829635" lon="10.627038775316711"><ele>371.0</ele><time>2026-04-18T14:58:29.002Z</time></trkpt><trkpt lat="43.46491201876498" lon="10.627011520997835"><ele>371.0</ele><time>2026-04-18T14:58:30.002Z</time></trkpt><trkpt lat="43.464812080823314" lon="10.626985823350191"><ele>369.5</ele><time>2026-04-18T14:58:31.002Z</time></trkpt><trkpt lat="43.464725334240946" lon="10.626958034778417"><ele>368.0</ele><time>2026-04-18T14:58:32.002Z</time></trkpt><trkpt lat="43.46464750111937" lon="10.62690791823879"><ele>366.5</ele><time>2026-04-18T14:58:33.002Z</time></trkpt><trkpt lat="43.46458042091196" lon="10.626833860923739"><ele>365.0</ele><time>2026-04-18T14:58:34.002Z</time></trkpt><trkpt lat="43.46451557186852" lon="10.626748333893033"><ele>363.5</ele><time>2026-04-18T14:58:35.002Z</time></trkpt><trkpt lat="43.46447087131962" lon="10.626667650582803"><ele>362.0</ele><time>2026-04-18T14:58:36.002Z</time></trkpt><trkpt lat="43.464437216691" lon="10.626588317582506"><ele>362.0</ele><time>2026-04-18T14:58:37.002Z</time></trkpt><trkpt lat="43.46443755821163" lon="10.626474135136466"><ele>362.0</ele><time>2026-04-18T14:58:38.002Z</time></trkpt><trkpt lat="43.46442631765793" lon="10.62636863454253"><ele>362.0</ele><time>2026-04-18T14:58:39.002Z</time></trkpt><trkpt lat="43.46441703311839" lon="10.626236011080687"><ele>362.0</ele><time>2026-04-18T14:58:40.003Z</time></trkpt><trkpt lat="43.46441876358643" lon="10.626106363312974"><ele>362.0</ele><time>2026-04-18T14:58:41.003Z</time></trkpt><trkpt lat="43.464446822172626" lon="10.62597953653039"><ele>362.0</ele><time>2026-04-18T14:58:42Z</time></trkpt><trkpt lat="43.46448709176167" lon="10.625883773136318"><ele>362.8</ele><time>2026-04-18T14:58:43Z</time></trkpt><trkpt lat="43.46454707353846" lon="10.625793725961385"><ele>363.6</ele><time>2026-04-18T14:58:44Z</time></trkpt><trkpt lat="43.464609054561905" lon="10.625679937716521"><ele>364.40000000000003</ele><time>2026-04-18T14:58:45Z</time></trkpt><trkpt lat="43.46466588709259" lon="10.625552535731739"><ele>365.20000000000005</ele><time>2026-04-18T14:58:46Z</time></trkpt><trkpt lat="43.46474621896993" lon="10.625463482870066"><ele>366.0</ele><time>2026-04-18T14:58:47Z</time></trkpt><trkpt lat="43.46475452586515" lon="10.625374995880115"><ele>371.1666666666667</ele><time>2026-04-18T14:58:48Z</time></trkpt><trkpt lat="43.46477429783656" lon="10.625286968120028"><ele>376.33333333333337</ele><time>2026-04-18T14:58:49Z</time></trkpt><trkpt lat="43.46474996561679" lon="10.625147816535343"><ele>381.5</ele><time>2026-04-18T14:58:50Z</time></trkpt><trkpt lat="43.46473213468409" lon="10.625007663356527"><ele>386.6666666666667</ele><time>2026-04-18T14:58:51Z</time></trkpt><trkpt lat="43.46474381821207" lon="10.624907758535851"><ele>391.83333333333337</ele><time>2026-04-18T14:58:52Z</time></trkpt><trkpt lat="43.464790740311784" lon="10.624841601057142"><ele>397.0</ele><time>2026-04-18T14:58:53Z</time></trkpt><trkpt lat="43.46484658787081" lon="10.624762110341848"><ele>397.0</ele><time>2026-04-18T14:58:54Z</time></trkpt><trkpt lat="43.46491786329181" lon="10.624659272051003"><ele>397.0</ele><time>2026-04-18T14:58:55Z</time></trkpt><trkpt lat="43.4649896760775" lon="10.624522219626899"><ele>397.0</ele><time>2026-04-18T14:58:56Z</time></trkpt><trkpt lat="43.4650346240349" lon="10.624456469800176"><ele>397.0</ele><time>2026-04-18T14:58:57Z</time></trkpt><trkpt lat="43.46508013349758" lon="10.62437850746444"><ele>397.0</ele><time>2026-04-18T14:58:58Z</time></trkpt><trkpt lat="43.46515396627079" lon="10.624244034064125"><ele>394.40000000000003</ele><time>2026-04-18T14:58:59Z</time></trkpt><trkpt lat="43.465195373097124" lon="10.624119771766807"><ele>391.8</ele><time>2026-04-18T14:59:00Z</time></trkpt><trkpt lat="43.46525420290202" lon="10.623999723559555"><ele>389.2</ele><time>2026-04-18T14:59:01Z</time></trkpt><trkpt lat="43.46531668815501" lon="10.623865283017995"><ele>386.6</ele><time>2026-04-18T14:59:02Z</time></trkpt><trkpt lat="43.46536199389275" lon="10.623766706197104"><ele>384.0</ele><time>2026-04-18T14:59:03Z</time></trkpt><trkpt lat="43.46540910468285" lon="10.623650671370655"><ele>387.2</ele><time>2026-04-18T14:59:04Z</time></trkpt><trkpt lat="43.46547385406422" lon="10.623540838221873"><ele>390.4</ele><time>2026-04-18T14:59:05Z</time></trkpt><trkpt lat="43.465530004470224" lon="10.62341337494117"><ele>393.6</ele><time>2026-04-18T14:59:06Z</time></trkpt><trkpt lat="43.46557707096082" lon="10.623280896744532"><ele>396.8</ele><time>2026-04-18T14:59:07Z</time></trkpt><trkpt lat="43.46561517538849" lon="10.623172248128627"><ele>400.0</ele><time>2026-04-18T14:59:08Z</time></trkpt><trkpt lat="43.46566314543778" lon="10.623067622727568"><ele>400.0</ele><time>2026-04-18T14:59:10.001Z</time></trkpt><trkpt lat="43.465788475815096" lon="10.622955237246648"><ele>400.0</ele><time>2026-04-18T14:59:11.001Z</time></trkpt><trkpt lat="43.46585629748674" lon="10.622969920321411"><ele>400.0</ele><time>2026-04-18T14:59:12.001Z</time></trkpt><trkpt lat="43.46593741751136" lon="10.622959665401854"><ele>400.0</ele><time>2026-04-18T14:59:13.001Z</time></trkpt><trkpt lat="43.46603187009526" lon="10.622939593921817"><ele>400.0</ele><time>2026-04-18T14:59:14.001Z</time></trkpt><trkpt lat="43.466122442129915" lon="10.622897772078929"><ele>400.0</ele><time>2026-04-18T14:59:15.001Z</time></trkpt><trkpt lat="43.466208597401234" lon="10.622852163232512"><ele>400.0</ele><time>2026-04-18T14:59:16.001Z</time></trkpt><trkpt lat="43.46629538854704" lon="10.622792316638545"><ele>400.0</ele><time>2026-04-18T14:59:17.001Z</time></trkpt><trkpt lat="43.46637595382669" lon="10.622701621921602"><ele>400.0</ele><time>2026-04-18T14:59:18.001Z</time></trkpt><trkpt lat="43.466421619402304" lon="10.622595219080893"><ele>400.0</ele><time>2026-04-18T14:59:19.001Z</time></trkpt><trkpt lat="43.466461669746046" lon="10.622504885899115"><ele>400.50000000000006</ele><time>2026-04-18T14:59:20.001Z</time></trkpt><trkpt lat="43.466473222787855" lon="10.62240622717941"><ele>401.0</ele><time>2026-04-18T14:59:21.001Z</time></trkpt><trkpt lat="43.46646587550127" lon="10.622300762333447"><ele>401.5</ele><time>2026-04-18T14:59:22.001Z</time></trkpt><trkpt lat="43.466477925315544" lon="10.62217521500023"><ele>402.0</ele><time>2026-04-18T14:59:23.001Z</time></trkpt><trkpt lat="43.466473818871" lon="10.622044991677516"><ele>402.50000000000006</ele><time>2026-04-18T14:59:24.001Z</time></trkpt><trkpt lat="43.46646226304681" lon="10.621898054231368"><ele>403.0</ele><time>2026-04-18T14:59:25.001Z</time></trkpt><trkpt lat="43.46648726529677" lon="10.62174015511626"><ele>403.0</ele><time>2026-04-18T14:59:26.001Z</time></trkpt><trkpt lat="43.466536001897865" lon="10.62161010098316"><ele>403.0</ele><time>2026-04-18T14:59:27.001Z</time></trkpt><trkpt lat="43.46657324062154" lon="10.6215234769098"><ele>403.0</ele><time>2026-04-18T14:59:28.001Z</time></trkpt><trkpt lat="43.46664827698691" lon="10.621437232920673"><ele>403.0</ele><time>2026-04-18T14:59:30.001Z</time></trkpt><trkpt lat="43.46674066578144" lon="10.621313126285635"><ele>403.0</ele><time>2026-04-18T14:59:32.001Z</time></trkpt><trkpt lat="43.466793620766566" lon="10.621244003626742"><ele>403.00000000000006</ele><time>2026-04-18T14:59:33.001Z</time></trkpt><trkpt lat="43.466865475398286" lon="10.621152397272033"><ele>403.0</ele><time>2026-04-18T14:59:35.001Z</time></trkpt><trkpt lat="43.46691018668959" lon="10.621036727985597"><ele>403.0</ele><time>2026-04-18T14:59:37.001Z</time></trkpt><trkpt lat="43.46691935237858" lon="10.620945113922787"><ele>403.0</ele><time>2026-04-18T14:59:38.001Z</time></trkpt><trkpt lat="43.466919648788114" lon="10.620835962282262"><ele>403.00000000000006</ele><time>2026-04-18T14:59:39.001Z</time></trkpt><trkpt lat="43.46689404931975" lon="10.620747306063752"><ele>403.0</ele><time>2026-04-18T14:59:40.001Z</time></trkpt><trkpt lat="43.4668481070364" lon="10.620680611159425"><ele>403.50000000000006</ele><time>2026-04-18T14:59:41.001Z</time></trkpt><trkpt lat="43.46678971789872" lon="10.620605940189412"><ele>404.0</ele><time>2026-04-18T14:59:42.001Z</time></trkpt><trkpt lat="43.46672533892378" lon="10.620536375698936"><ele>404.5</ele><time>2026-04-18T14:59:43.001Z</time></trkpt><trkpt lat="43.46667852892003" lon="10.620435540513133"><ele>405.0</ele><time>2026-04-18T14:59:44.001Z</time></trkpt><trkpt lat="43.46663917261109" lon="10.620351639260129"><ele>405.50000000000006</ele><time>2026-04-18T14:59:45.001Z</time></trkpt><trkpt lat="43.46664191076754" lon="10.620208321190555"><ele>406.0</ele><time>2026-04-18T14:59:47.001Z</time></trkpt><trkpt lat="43.4666530084082" lon="10.620096497572515"><ele>406.00000000000006</ele><time>2026-04-18T14:59:48.001Z</time></trkpt><trkpt lat="43.46666751839763" lon="10.619984777347328"><ele>406.0</ele><time>2026-04-18T14:59:49.001Z</time></trkpt><trkpt lat="43.46668366605454" lon="10.619858389890528"><ele>406.0</ele><time>2026-04-18T14:59:50.001Z</time></trkpt><trkpt lat="43.466685036388256" lon="10.619729179270813"><ele>406.0</ele><time>2026-04-18T14:59:51.001Z</time></trkpt><trkpt lat="43.46669395365978" lon="10.619606632421252"><ele>406.00000000000006</ele><time>2026-04-18T14:59:52.001Z</time></trkpt><trkpt lat="43.466688867014746" lon="10.619490407442424"><ele>406.0</ele><time>2026-04-18T14:59:53.001Z</time></trkpt><trkpt lat="43.466679633325406" lon="10.619375267110245"><ele>407.00000000000006</ele><time>2026-04-18T14:59:54.001Z</time></trkpt><trkpt lat="43.46666167967974" lon="10.619249407750518"><ele>408.0</ele><time>2026-04-18T14:59:55.001Z</time></trkpt><trkpt lat="43.466652725315306" lon="10.619071568972059"><ele>409.0</ele><time>2026-04-18T14:59:57.001Z</time></trkpt><trkpt lat="43.46665606065388" lon="10.618975191992067"><ele>410.0</ele><time>2026-04-18T14:59:58.001Z</time></trkpt><trkpt lat="43.46665589324165" lon="10.618868348830118"><ele>411.00000000000006</ele><time>2026-04-18T14:59:59.002Z</time></trkpt><trkpt lat="43.46666345873606" lon="10.618769710651854"><ele>412.0</ele><time>2026-04-18T15:00:00.002Z</time></trkpt><trkpt lat="43.46664833301993" lon="10.61865939794932"><ele>414.1666666666667</ele><time>2026-04-18T15:00:01.002Z</time></trkpt><trkpt lat="43.46659034146427" lon="10.618534236359034"><ele>416.33333333333337</ele><time>2026-04-18T15:00:03.002Z</time></trkpt><trkpt lat="43.46653936317899" lon="10.618466093402008"><ele>418.5</ele><time>2026-04-18T15:00:04.002Z</time></trkpt><trkpt lat="43.46648815116964" lon="10.61840685935688"><ele>420.66666666666663</ele><time>2026-04-18T15:00:05.002Z</time></trkpt><trkpt lat="43.46644352113315" lon="10.618335923268218"><ele>422.8333333333333</ele><time>2026-04-18T15:00:06.002Z</time></trkpt><trkpt lat="43.46640395255894" lon="10.618262399661251"><ele>425.0</ele><time>2026-04-18T15:00:07.002Z</time></trkpt><trkpt lat="43.466340557506605" lon="10.61812555264519"><ele>425.0</ele><time>2026-04-18T15:00:09.002Z</time></trkpt><trkpt lat="43.46629792100977" lon="10.618037632932399"><ele>425.0</ele><time>2026-04-18T15:00:10.002Z</time></trkpt><trkpt lat="43.466251965044314" lon="10.617964968168112"><ele>425.0</ele><time>2026-04-18T15:00:11.002Z</time></trkpt><trkpt lat="43.466194876088025" lon="10.617870641461113"><ele>425.0</ele><time>2026-04-18T15:00:12.002Z</time></trkpt><trkpt lat="43.46617175644766" lon="10.617755961238695"><ele>425.0</ele><time>2026-04-18T15:00:13.002Z</time></trkpt><trkpt lat="43.46611163523262" lon="10.617577423578451"><ele>422.8</ele><time>2026-04-18T15:00:15.002Z</time></trkpt><trkpt lat="43.4660605846145" lon="10.617479010885065"><ele>420.6</ele><time>2026-04-18T15:00:16.002Z</time></trkpt><trkpt lat="43.4660233469082" lon="10.61734555890931"><ele>418.4</ele><time>2026-04-18T15:00:17.002Z</time></trkpt><trkpt lat="43.46597966870042" lon="10.61721117748754"><ele>416.2</ele><time>2026-04-18T15:00:18.002Z</time></trkpt><trkpt lat="43.465927526666775" lon="10.61709978767192"><ele>414.0</ele><time>2026-04-18T15:00:19.002Z</time></trkpt><trkpt lat="43.46589599902519" lon="10.616991022394702"><ele>417.0</ele><time>2026-04-18T15:00:20.002Z</time></trkpt><trkpt lat="43.46586590099153" lon="10.61690557480674"><ele>420.0</ele><time>2026-04-18T15:00:21.002Z</time></trkpt><trkpt lat="43.46583299709494" lon="10.616803189893044"><ele>423.0</ele><time>2026-04-18T15:00:22.002Z</time></trkpt><trkpt lat="43.465794432021774" lon="10.61672102201049"><ele>426.0</ele><time>2026-04-18T15:00:23.002Z</time></trkpt><trkpt lat="43.46576815125318" lon="10.616615385230798"><ele>429.0</ele><time>2026-04-18T15:00:24.002Z</time></trkpt><trkpt lat="43.4657360867934" lon="10.616494657281851"><ele>432.0</ele><time>2026-04-18T15:00:25.002Z</time></trkpt><trkpt lat="43.46570812107478" lon="10.616367135284277"><ele>432.0</ele><time>2026-04-18T15:00:26.002Z</time></trkpt><trkpt lat="43.46567698194135" lon="10.616245956354767"><ele>432.0</ele><time>2026-04-18T15:00:27.002Z</time></trkpt><trkpt lat="43.46564329104311" lon="10.616140821003842"><ele>432.0</ele><time>2026-04-18T15:00:28.002Z</time></trkpt><trkpt lat="43.46563179372878" lon="10.616038591859546"><ele>432.0</ele><time>2026-04-18T15:00:29.002Z</time></trkpt><trkpt lat="43.46561125978363" lon="10.615949507278383"><ele>432.0</ele><time>2026-04-18T15:00:30.002Z</time></trkpt><trkpt lat="43.465595191402215" lon="10.615855569143008"><ele>432.0</ele><time>2026-04-18T15:00:31.002Z</time></trkpt><trkpt lat="43.46558077435305" lon="10.615742456068592"><ele>433.5</ele><time>2026-04-18T15:00:32.002Z</time></trkpt><trkpt lat="43.46559386109933" lon="10.615591461303529"><ele>435.0</ele><time>2026-04-18T15:00:34.002Z</time></trkpt><trkpt lat="43.46563639425194" lon="10.615517399713497"><ele>436.5</ele><time>2026-04-18T15:00:35.002Z</time></trkpt><trkpt lat="43.46569312425929" lon="10.615434168923745"><ele>438.0</ele><time>2026-04-18T15:00:36.002Z</time></trkpt><trkpt lat="43.46576589372374" lon="10.61536425875045"><ele>439.5</ele><time>2026-04-18T15:00:37.002Z</time></trkpt><trkpt lat="43.46580914596892" lon="10.615257134808434"><ele>441.0</ele><time>2026-04-18T15:00:38.002Z</time></trkpt><trkpt lat="43.465810018801164" lon="10.615147841312078"><ele>441.1666666666667</ele><time>2026-04-18T15:00:39.002Z</time></trkpt><trkpt lat="43.465805600865956" lon="10.615031060550425"><ele>441.33333333333337</ele><time>2026-04-18T15:00:40.002Z</time></trkpt><trkpt lat="43.46582143921888" lon="10.614910118810787"><ele>441.5</ele><time>2026-04-18T15:00:41.002Z</time></trkpt><trkpt lat="43.46583623765859" lon="10.614776805615772"><ele>441.6666666666667</ele><time>2026-04-18T15:00:42.002Z</time></trkpt><trkpt lat="43.46586601337444" lon="10.614656892609085"><ele>441.83333333333337</ele><time>2026-04-18T15:00:43.002Z</time></trkpt><trkpt lat="43.465905499097" lon="10.614555125662765"><ele>442.0</ele><time>2026-04-18T15:00:44.002Z</time></trkpt><trkpt lat="43.46595274940933" lon="10.614446307267073"><ele>443.8</ele><time>2026-04-18T15:00:45.002Z</time></trkpt><trkpt lat="43.46601242853398" lon="10.614326884181063"><ele>445.6</ele><time>2026-04-18T15:00:46.002Z</time></trkpt><trkpt lat="43.46607742899012" lon="10.614201529928986"><ele>447.40000000000003</ele><time>2026-04-18T15:00:47.001Z</time></trkpt><trkpt lat="43.46612743326433" lon="10.614066357016732"><ele>449.20000000000005</ele><time>2026-04-18T15:00:48Z</time></trkpt><trkpt lat="43.46619264434544" lon="10.613961318543696"><ele>451.0</ele><time>2026-04-18T15:00:49.001Z</time></trkpt><trkpt lat="43.46622503900877" lon="10.613869047652745"><ele>451.0</ele><time>2026-04-18T15:00:50.001Z</time></trkpt><trkpt lat="43.46625016325694" lon="10.613755900011185"><ele>451.0</ele><time>2026-04-18T15:00:52.001Z</time></trkpt><trkpt lat="43.46625243108408" lon="10.613618599254758"><ele>451.0</ele><time>2026-04-18T15:00:54Z</time></trkpt><trkpt lat="43.466217984018556" lon="10.613490130110673"><ele>451.0</ele><time>2026-04-18T15:00:56Z</time></trkpt><trkpt lat="43.466146668996664" lon="10.613404254441981"><ele>451.0</ele><time>2026-04-18T15:00:58Z</time></trkpt><trkpt lat="43.46605421208722" lon="10.613403742246634"><ele>451.0</ele><time>2026-04-18T15:01:00Z</time></trkpt><trkpt lat="43.465986459722586" lon="10.613511575691136"><ele>451.0</ele><time>2026-04-18T15:01:02Z</time></trkpt><trkpt lat="43.46593499261252" lon="10.613592636743805"><ele>451.0</ele><time>2026-04-18T15:01:03.001Z</time></trkpt><trkpt lat="43.46587180700831" lon="10.613653217773109"><ele>451.0</ele><time>2026-04-18T15:01:04.001Z</time></trkpt><trkpt lat="43.465785763189324" lon="10.613772665356903"><ele>451.0</ele><time>2026-04-18T15:01:06.001Z</time></trkpt><trkpt lat="43.46571055058439" lon="10.613878088869962"><ele>451.0</ele><time>2026-04-18T15:01:07.001Z</time></trkpt><trkpt lat="43.46562154071634" lon="10.61400474519909"><ele>451.0</ele><time>2026-04-18T15:01:09.001Z</time></trkpt><trkpt lat="43.4655579362779" lon="10.614095250940823"><ele>451.0</ele><time>2026-04-18T15:01:10.001Z</time></trkpt><trkpt lat="43.46549091938004" lon="10.614195754919153"><ele>451.0</ele><time>2026-04-18T15:01:11.001Z</time></trkpt><trkpt lat="43.46542677386949" lon="10.614274301600044"><ele>451.0</ele><time>2026-04-18T15:01:12.001Z</time></trkpt><trkpt lat="43.46534266228384" lon="10.614403562555413"><ele>453.6666666666667</ele><time>2026-04-18T15:01:14.001Z</time></trkpt><trkpt lat="43.46529889759742" lon="10.614466505459582"><ele>456.33333333333337</ele><time>2026-04-18T15:01:15.001Z</time></trkpt><trkpt lat="43.465242514389" lon="10.6145489052427"><ele>459.0</ele><time>2026-04-18T15:01:16.001Z</time></trkpt><trkpt lat="43.465180779272586" lon="10.6146405035359"><ele>461.66666666666663</ele><time>2026-04-18T15:01:17.001Z</time></trkpt><trkpt lat="43.46511795569201" lon="10.614734421049063"><ele>464.3333333333333</ele><time>2026-04-18T15:01:18.001Z</time></trkpt><trkpt lat="43.465071577210466" lon="10.614805435955725"><ele>467.0</ele><time>2026-04-18T15:01:19.001Z</time></trkpt><trkpt lat="43.46502088088685" lon="10.61488306225409"><ele>467.0</ele><time>2026-04-18T15:01:20.001Z</time></trkpt><trkpt lat="43.464959048401404" lon="10.614980752186606"><ele>467.00000000000006</ele><time>2026-04-18T15:01:21.001Z</time></trkpt><trkpt lat="43.464910604843595" lon="10.61506057951089"><ele>467.00000000000006</ele><time>2026-04-18T15:01:22.001Z</time></trkpt><trkpt lat="43.464839805583765" lon="10.615182920216318"><ele>467.0</ele><time>2026-04-18T15:01:23.001Z</time></trkpt><trkpt lat="43.46477549845631" lon="10.615300366408183"><ele>467.0</ele><time>2026-04-18T15:01:24.001Z</time></trkpt><trkpt lat="43.464711281680096" lon="10.615424599252721"><ele>468.40000000000003</ele><time>2026-04-18T15:01:25.001Z</time></trkpt><trkpt lat="43.46465204963883" lon="10.615547507347873"><ele>469.80000000000007</ele><time>2026-04-18T15:01:26.001Z</time></trkpt><trkpt lat="43.4645889148854" lon="10.615683932833683"><ele>471.2</ele><time>2026-04-18T15:01:27.001Z</time></trkpt><trkpt lat="43.46455359521789" lon="10.615801966463401"><ele>472.6</ele><time>2026-04-18T15:01:28.001Z</time></trkpt><trkpt lat="43.46448639061742" lon="10.615903690111264"><ele>474.0</ele><time>2026-04-18T15:01:29.001Z</time></trkpt><trkpt lat="43.464440875159724" lon="10.61599968833863"><ele>474.0</ele><time>2026-04-18T15:01:30.001Z</time></trkpt><trkpt lat="43.46439264242746" lon="10.616070740848299"><ele>474.0</ele><time>2026-04-18T15:01:31.001Z</time></trkpt><trkpt lat="43.46436269683695" lon="10.616174279509364"><ele>474.0</ele><time>2026-04-18T15:01:32.001Z</time></trkpt><trkpt lat="43.46432554643398" lon="10.616281441184254"><ele>474.0</ele><time>2026-04-18T15:01:33.001Z</time></trkpt><trkpt lat="43.46429220946484" lon="10.616380894918521"><ele>474.0</ele><time>2026-04-18T15:01:34.001Z</time></trkpt><trkpt lat="43.46425672931299" lon="10.61647622505022"><ele>474.0</ele><time>2026-04-18T15:01:35.001Z</time></trkpt><trkpt lat="43.464245120914114" lon="10.616568902015974"><ele>471.1666666666667</ele><time>2026-04-18T15:01:36.001Z</time></trkpt><trkpt lat="43.464227839659856" lon="10.616655658807714"><ele>468.33333333333337</ele><time>2026-04-18T15:01:37.001Z</time></trkpt><trkpt lat="43.46417781857881" lon="10.616720004133962"><ele>465.5</ele><time>2026-04-18T15:01:38.001Z</time></trkpt><trkpt lat="43.46409145996267" lon="10.616786360695258"><ele>462.6666666666667</ele><time>2026-04-18T15:01:40.001Z</time></trkpt><trkpt lat="43.46404430089115" lon="10.616711623635906"><ele>459.83333333333337</ele><time>2026-04-18T15:01:42.001Z</time></trkpt><trkpt lat="43.46405861573273" lon="10.616606733286387"><ele>457.0</ele><time>2026-04-18T15:01:44.001Z</time></trkpt><trkpt lat="43.463986249788725" lon="10.616450433742282"><ele>457.00000000000006</ele><time>2026-04-18T15:01:46.001Z</time></trkpt><trkpt lat="43.46396664148128" lon="10.616347584484245"><ele>457.0</ele><time>2026-04-18T15:01:47.001Z</time></trkpt><trkpt lat="43.463934641124105" lon="10.616245509254428"><ele>457.0</ele><time>2026-04-18T15:01:48.001Z</time></trkpt><trkpt lat="43.46389715275198" lon="10.616135107454722"><ele>457.0</ele><time>2026-04-18T15:01:49.001Z</time></trkpt><trkpt lat="43.463855450174826" lon="10.61604238397858"><ele>457.00000000000006</ele><time>2026-04-18T15:01:50.001Z</time></trkpt><trkpt lat="43.463794506158834" lon="10.61593218021955"><ele>457.0</ele><time>2026-04-18T15:01:51.001Z</time></trkpt><trkpt lat="43.46375442855324" lon="10.615805319768938"><ele>460.20000000000005</ele><time>2026-04-18T15:01:52.001Z</time></trkpt><trkpt lat="43.46370670803048" lon="10.61572479655848"><ele>463.40000000000003</ele><time>2026-04-18T15:01:53.001Z</time></trkpt><trkpt lat="43.46366785879793" lon="10.615644070252596"><ele>466.59999999999997</ele><time>2026-04-18T15:01:54.001Z</time></trkpt><trkpt lat="43.463607618982465" lon="10.615550824128121"><ele>469.79999999999995</ele><time>2026-04-18T15:01:55.001Z</time></trkpt><trkpt lat="43.46354958316498" lon="10.615431621204594"><ele>473.0</ele><time>2026-04-18T15:01:56.001Z</time></trkpt><trkpt lat="43.46348312831955" lon="10.61530563764875"><ele>473.0</ele><time>2026-04-18T15:01:57.001Z</time></trkpt><trkpt lat="43.4634472741159" lon="10.615229324589121"><ele>473.0</ele><time>2026-04-18T15:01:58.001Z</time></trkpt><trkpt lat="43.463368789015185" lon="10.61515514815689"><ele>473.0</ele><time>2026-04-18T15:02:00.002Z</time></trkpt><trkpt lat="43.46343344662345" lon="10.615252565915576"><ele>473.0</ele><time>2026-04-18T15:02:23.002Z</time></trkpt><trkpt lat="43.46321696872688" lon="10.615354905926129"><ele>473.0</ele><time>2026-04-18T15:02:24.002Z</time></trkpt><trkpt lat="43.46322797670939" lon="10.6154896151576"><ele>472.99999999999994</ele><time>2026-04-18T15:02:25.002Z</time></trkpt><trkpt lat="43.463242914007935" lon="10.615597606846862"><ele>472.99999999999994</ele><time>2026-04-18T15:02:26.002Z</time></trkpt><trkpt lat="43.46328005114249" lon="10.615797274184107"><ele>473.0</ele><time>2026-04-18T15:02:28.002Z</time></trkpt><trkpt lat="43.46330316443795" lon="10.615904446392861"><ele>473.0</ele><time>2026-04-18T15:02:29.002Z</time></trkpt><trkpt lat="43.46380238301576" lon="10.615930905779521"><ele>473.2</ele><time>2026-04-18T15:02:30.002Z</time></trkpt><trkpt lat="43.46386263121182" lon="10.615976831987618"><ele>473.4</ele><time>2026-04-18T15:02:31.002Z</time></trkpt><trkpt lat="43.46390407690206" lon="10.616093872606724"><ele>473.59999999999997</ele><time>2026-04-18T15:02:32.002Z</time></trkpt><trkpt lat="43.46396891354465" lon="10.616271537287105"><ele>473.79999999999995</ele><time>2026-04-18T15:02:34.002Z</time></trkpt><trkpt lat="43.46398710557857" lon="10.616377398930377"><ele>474.0</ele><time>2026-04-18T15:02:35.002Z</time></trkpt><trkpt lat="43.46403543861755" lon="10.616548361477921"><ele>471.1666666666667</ele><time>2026-04-18T15:02:37.002Z</time></trkpt><trkpt lat="43.464050308285785" lon="10.616642846292859"><ele>468.33333333333337</ele><time>2026-04-18T15:02:38.002Z</time></trkpt><trkpt lat="43.464069917685016" lon="10.616757175629585"><ele>465.5</ele><time>2026-04-18T15:02:40.002Z</time></trkpt><trkpt lat="43.46414438590142" lon="10.616692725009814"><ele>462.6666666666667</ele><time>2026-04-18T15:02:45.002Z</time></trkpt><trkpt lat="43.46414075990746" lon="10.616593108182936"><ele>459.83333333333337</ele><time>2026-04-18T15:02:47.002Z</time></trkpt><trkpt lat="43.46415178743708" lon="10.616447229454145"><ele>457.0</ele><time>2026-04-18T15:02:49.003Z</time></trkpt><trkpt lat="43.464147130783374" lon="10.616317996553052"><ele>457.0</ele><time>2026-04-18T15:02:51.003Z</time></trkpt><trkpt lat="43.464152421106164" lon="10.61617876617508"><ele>457.00000000000006</ele><time>2026-04-18T15:02:53.001Z</time></trkpt><trkpt lat="43.464156139047" lon="10.61601166503742"><ele>457.00000000000006</ele><time>2026-04-18T15:02:55.001Z</time></trkpt><trkpt lat="43.46411555694735" lon="10.615875117290699"><ele>457.0</ele><time>2026-04-18T15:02:57.001Z</time></trkpt><trkpt lat="43.464073969669684" lon="10.615798355449986"><ele>457.0</ele><time>2026-04-18T15:02:59.001Z</time></trkpt><trkpt lat="43.46403955768513" lon="10.615680160809301"><ele>460.40000000000003</ele><time>2026-04-18T15:03:01.001Z</time></trkpt><trkpt lat="43.46404295792864" lon="10.615535600374189"><ele>463.80000000000007</ele><time>2026-04-18T15:03:03.001Z</time></trkpt><trkpt lat="43.46408977479669" lon="10.61537004843164"><ele>467.2</ele><time>2026-04-18T15:03:05.001Z</time></trkpt><trkpt lat="43.4641343110068" lon="10.61521486637982"><ele>470.6</ele><time>2026-04-18T15:03:07.001Z</time></trkpt><trkpt lat="43.464170710570166" lon="10.61512366188544"><ele>474.0</ele><time>2026-04-18T15:03:08.001Z</time></trkpt><trkpt lat="43.46421622816589" lon="10.615024608888206"><ele>478.2</ele><time>2026-04-18T15:03:09.001Z</time></trkpt><trkpt lat="43.46424230310886" lon="10.6149388695033"><ele>482.4</ele><time>2026-04-18T15:03:10.001Z</time></trkpt><trkpt lat="43.464269032868955" lon="10.6147712086991"><ele>486.6</ele><time>2026-04-18T15:03:12.001Z</time></trkpt><trkpt lat="43.46427652150741" lon="10.614590306323203"><ele>490.8</ele><time>2026-04-18T15:03:14.001Z</time></trkpt><trkpt lat="43.46431333995661" lon="10.614490682255298"><ele>495.0</ele><time>2026-04-18T15:03:15.001Z</time></trkpt><trkpt lat="43.46434759431981" lon="10.614410685829776"><ele>497.5</ele><time>2026-04-18T15:03:16.001Z</time></trkpt><trkpt lat="43.46437576826484" lon="10.614320512320475"><ele>500.0</ele><time>2026-04-18T15:03:17.001Z</time></trkpt><trkpt lat="43.464397331051785" lon="10.61423596992269"><ele>502.5</ele><time>2026-04-18T15:03:18.001Z</time></trkpt><trkpt lat="43.46439964039274" lon="10.614116121841331"><ele>505.0</ele><time>2026-04-18T15:03:19.001Z</time></trkpt><trkpt lat="43.464421615893066" lon="10.61399455968473"><ele>507.5</ele><time>2026-04-18T15:03:20.001Z</time></trkpt><trkpt lat="43.4644388205394" lon="10.613890241733726"><ele>510.0</ele><time>2026-04-18T15:03:21.001Z</time></trkpt><trkpt lat="43.46447479893083" lon="10.613772957918128"><ele>510.0</ele><time>2026-04-18T15:03:22.001Z</time></trkpt><trkpt lat="43.46449756808746" lon="10.613659188925846"><ele>510.0</ele><time>2026-04-18T15:03:23.001Z</time></trkpt><trkpt lat="43.464518340810564" lon="10.613538156529911"><ele>510.0</ele><time>2026-04-18T15:03:24.001Z</time></trkpt><trkpt lat="43.464551231376646" lon="10.613414444472873"><ele>510.0</ele><time>2026-04-18T15:03:25.001Z</time></trkpt><trkpt lat="43.46459659731593" lon="10.613316558280678"><ele>510.0</ele><time>2026-04-18T15:03:26.001Z</time></trkpt><trkpt lat="43.464641983703196" lon="10.613242685998182"><ele>510.0</ele><time>2026-04-18T15:03:27.001Z</time></trkpt><trkpt lat="43.464675256990276" lon="10.613167075999732"><ele>510.6</ele><time>2026-04-18T15:03:28.001Z</time></trkpt><trkpt lat="43.46467146557218" lon="10.61299734806791"><ele>511.2</ele><time>2026-04-18T15:03:30.001Z</time></trkpt><trkpt lat="43.464641042179686" lon="10.612877174931377"><ele>511.79999999999995</ele><time>2026-04-18T15:03:31.001Z</time></trkpt><trkpt lat="43.46460424593869" lon="10.612768440484706"><ele>512.4</ele><time>2026-04-18T15:03:32.001Z</time></trkpt><trkpt lat="43.46457822102854" lon="10.612667039870473"><ele>513.0</ele><time>2026-04-18T15:03:33.001Z</time></trkpt><trkpt lat="43.46457454317146" lon="10.612569369373709"><ele>515.8333333333334</ele><time>2026-04-18T15:03:34.001Z</time></trkpt><trkpt lat="43.46457396207694" lon="10.6124128148454"><ele>518.6666666666666</ele><time>2026-04-18T15:03:36.001Z</time></trkpt><trkpt lat="43.464559385428885" lon="10.612321157634359"><ele>521.5</ele><time>2026-04-18T15:03:37.001Z</time></trkpt><trkpt lat="43.46456026776755" lon="10.612223881595785"><ele>524.3333333333333</ele><time>2026-04-18T15:03:38.001Z</time></trkpt><trkpt lat="43.46457711893773" lon="10.612100510208403"><ele>527.1666666666666</ele><time>2026-04-18T15:03:39.001Z</time></trkpt><trkpt lat="43.464583473477056" lon="10.6119909976669"><ele>530.0</ele><time>2026-04-18T15:03:40.001Z</time></trkpt><trkpt lat="43.46458387483867" lon="10.611879040196028"><ele>532.4</ele><time>2026-04-18T15:03:41.001Z</time></trkpt><trkpt lat="43.46458262597416" lon="10.611754583596564"><ele>534.8</ele><time>2026-04-18T15:03:42.001Z</time></trkpt><trkpt lat="43.46456735230463" lon="10.611646217757102"><ele>537.2</ele><time>2026-04-18T15:03:43.001Z</time></trkpt><trkpt lat="43.4645813539966" lon="10.611478939970125"><ele>539.6</ele><time>2026-04-18T15:03:45.001Z</time></trkpt><trkpt lat="43.46460854822525" lon="10.611300708193358"><ele>542.0</ele><time>2026-04-18T15:03:47.001Z</time></trkpt><trkpt lat="43.46461315568149" lon="10.611195370259372"><ele>545.0</ele><time>2026-04-18T15:03:48.001Z</time></trkpt><trkpt lat="43.46462478433856" lon="10.61109434541563"><ele>548.0</ele><time>2026-04-18T15:03:49.001Z</time></trkpt><trkpt lat="43.46465881510516" lon="10.611015105650207"><ele>551.0</ele><time>2026-04-18T15:03:50.001Z</time></trkpt><trkpt lat="43.4647061049091" lon="10.610942859402039"><ele>554.0</ele><time>2026-04-18T15:03:51.001Z</time></trkpt><trkpt lat="43.46474716994519" lon="10.61086970357395"><ele>557.0</ele><time>2026-04-18T15:03:52.001Z</time></trkpt><trkpt lat="43.464813401074856" lon="10.61070812797583"><ele>560.0</ele><time>2026-04-18T15:03:54.001Z</time></trkpt><trkpt lat="43.46486617864243" lon="10.61063101476969"><ele>560.0</ele><time>2026-04-18T15:03:55.001Z</time></trkpt><trkpt lat="43.46491109202088" lon="10.610554838819457"><ele>560.0</ele><time>2026-04-18T15:03:56.001Z</time></trkpt><trkpt lat="43.46493132502495" lon="10.61044500809353"><ele>560.0</ele><time>2026-04-18T15:03:58.001Z</time></trkpt><trkpt lat="43.4649674120407" lon="10.610369911260701"><ele>560.0</ele><time>2026-04-18T15:04:33.002Z</time></trkpt><trkpt lat="43.46501924618162" lon="10.61028616072604"><ele>560.0</ele><time>2026-04-18T15:04:35.002Z</time></trkpt><trkpt lat="43.46506445535563" lon="10.610196182776805"><ele>560.0</ele><time>2026-04-18T15:04:37.002Z</time></trkpt><trkpt lat="43.46508209358988" lon="10.610042256705631"><ele>560.8</ele><time>2026-04-18T15:04:39.002Z</time></trkpt><trkpt lat="43.46512027086316" lon="10.60987586815901"><ele>561.6</ele><time>2026-04-18T15:04:41.002Z</time></trkpt><trkpt lat="43.46515559473591" lon="10.609800712512744"><ele>562.4</ele><time>2026-04-18T15:04:42.002Z</time></trkpt><trkpt lat="43.465188784591795" lon="10.609708861249407"><ele>563.2</ele><time>2026-04-18T15:04:43.002Z</time></trkpt><trkpt lat="43.46524920083957" lon="10.609616643470925"><ele>564.0</ele><time>2026-04-18T15:04:44.002Z</time></trkpt><trkpt lat="43.46531175902434" lon="10.609480858903565"><ele>564.2</ele><time>2026-04-18T15:04:45.002Z</time></trkpt><trkpt lat="43.46538745311981" lon="10.609347865963123"><ele>564.4</ele><time>2026-04-18T15:04:46.002Z</time></trkpt><trkpt lat="43.46544105362675" lon="10.609249718910503"><ele>564.6</ele><time>2026-04-18T15:04:47.002Z</time></trkpt><trkpt lat="43.46550639712683" lon="10.609152512100655"><ele>564.8</ele><time>2026-04-18T15:04:48.002Z</time></trkpt><trkpt lat="43.46554984046925" lon="10.60906777368874"><ele>565.0</ele><time>2026-04-18T15:04:49.002Z</time></trkpt><trkpt lat="43.465577915590536" lon="10.608950125327892"><ele>566.4285714285713</ele><time>2026-04-18T15:04:51.002Z</time></trkpt><trkpt lat="43.46555510666423" lon="10.608866549801284"><ele>567.8571428571429</ele><time>2026-04-18T15:04:52.002Z</time></trkpt><trkpt lat="43.46552879590551" lon="10.608785392347077"><ele>569.2857142857142</ele><time>2026-04-18T15:04:53.002Z</time></trkpt><trkpt lat="43.46551926991084" lon="10.608694691633463"><ele>570.7142857142857</ele><time>2026-04-18T15:04:54.002Z</time></trkpt><trkpt lat="43.46557554161434" lon="10.608600325538484"><ele>572.1428571428571</ele><time>2026-04-18T15:04:56.002Z</time></trkpt><trkpt lat="43.46565602056431" lon="10.608569515565419"><ele>573.5714285714286</ele><time>2026-04-18T15:04:57.002Z</time></trkpt><trkpt lat="43.46572356987671" lon="10.608553323465346"><ele>575.0</ele><time>2026-04-18T15:04:58.002Z</time></trkpt><trkpt lat="43.46580373661868" lon="10.608556060620774"><ele>575.1666666666666</ele><time>2026-04-18T15:04:59.001Z</time></trkpt><trkpt lat="43.46588807124105" lon="10.608555084922727"><ele>575.3333333333333</ele><time>2026-04-18T15:05:00.001Z</time></trkpt><trkpt lat="43.46598810976951" lon="10.608550137519234"><ele>575.5</ele><time>2026-04-18T15:05:02.001Z</time></trkpt><trkpt lat="43.466052197718454" lon="10.608529817845167"><ele>575.6666666666666</ele><time>2026-04-18T15:05:14.001Z</time></trkpt><trkpt lat="43.4661678741599" lon="10.6085483749291"><ele>575.8333333333334</ele><time>2026-04-18T15:05:16.001Z</time></trkpt><trkpt lat="43.466240804904324" lon="10.608552771285142"><ele>576.0</ele><time>2026-04-18T15:05:17.001Z</time></trkpt><trkpt lat="43.46633158405149" lon="10.608557812227783"><ele>576.4</ele><time>2026-04-18T15:05:18.001Z</time></trkpt><trkpt lat="43.466396379382786" lon="10.608559516149386"><ele>576.8</ele><time>2026-04-18T15:05:19.001Z</time></trkpt><trkpt lat="43.466460311499155" lon="10.608528616411846"><ele>577.1999999999999</ele><time>2026-04-18T15:05:21.001Z</time></trkpt><trkpt lat="43.46654593352942" lon="10.608382255036103"><ele>577.6</ele><time>2026-04-18T15:05:23.001Z</time></trkpt><trkpt lat="43.466614888617485" lon="10.608271819747353"><ele>578.0</ele><time>2026-04-18T15:05:24.001Z</time></trkpt><trkpt lat="43.46667020910471" lon="10.608190110920518"><ele>578.0</ele><time>2026-04-18T15:05:25.001Z</time></trkpt><trkpt lat="43.46672269819087" lon="10.608107089016197"><ele>578.0</ele><time>2026-04-18T15:05:26.001Z</time></trkpt><trkpt lat="43.466789357568366" lon="10.607983333178016"><ele>578.0</ele><time>2026-04-18T15:05:28.001Z</time></trkpt><trkpt lat="43.46685338697857" lon="10.607826331153516"><ele>578.0</ele><time>2026-04-18T15:05:30.001Z</time></trkpt><trkpt lat="43.46693402944633" lon="10.607700952918579"><ele>578.0</ele><time>2026-04-18T15:05:32.001Z</time></trkpt><trkpt lat="43.466919436139264" lon="10.607599089428849"><ele>577.5</ele><time>2026-04-18T15:05:34.001Z</time></trkpt><trkpt lat="43.4669706734767" lon="10.607516482050213"><ele>577.0</ele><time>2026-04-18T15:05:36.001Z</time></trkpt><trkpt lat="43.467059804523366" lon="10.607534102677398"><ele>576.5</ele><time>2026-04-18T15:05:41.001Z</time></trkpt><trkpt lat="43.46715848486479" lon="10.607514851728798"><ele>576.0</ele><time>2026-04-18T15:05:43.001Z</time></trkpt><trkpt lat="43.46721677242104" lon="10.607433696643112"><ele>575.5</ele><time>2026-04-18T15:05:44.001Z</time></trkpt><trkpt lat="43.46728610877906" lon="10.607343934118527"><ele>575.0</ele><time>2026-04-18T15:05:45.001Z</time></trkpt><trkpt lat="43.46737683909996" lon="10.607241089483521"><ele>574.8</ele><time>2026-04-18T15:05:46.001Z</time></trkpt><trkpt lat="43.46745685847728" lon="10.607148539073403"><ele>574.6</ele><time>2026-04-18T15:05:47.001Z</time></trkpt><trkpt lat="43.46751549227704" lon="10.607091832824826"><ele>574.4</ele><time>2026-04-18T15:05:48.001Z</time></trkpt><trkpt lat="43.46759306403646" lon="10.607046563717892"><ele>574.2</ele><time>2026-04-18T15:05:49.001Z</time></trkpt><trkpt lat="43.46768289006987" lon="10.606997993415012"><ele>574.0</ele><time>2026-04-18T15:05:50.001Z</time></trkpt><trkpt lat="43.46778253795178" lon="10.606960046295269"><ele>574.8</ele><time>2026-04-18T15:05:51.001Z</time></trkpt><trkpt lat="43.46787601531622" lon="10.606903861330869"><ele>575.5999999999999</ele><time>2026-04-18T15:05:52.001Z</time></trkpt><trkpt lat="43.46794561272625" lon="10.606821825522104"><ele>576.4</ele><time>2026-04-18T15:05:53.001Z</time></trkpt><trkpt lat="43.46798705296343" lon="10.606741729424556"><ele>577.1999999999999</ele><time>2026-04-18T15:05:54.001Z</time></trkpt><trkpt lat="43.468037008619696" lon="10.6066163802793"><ele>578.0</ele><time>2026-04-18T15:05:56.001Z</time></trkpt><trkpt lat="43.468047421483384" lon="10.606497287371099"><ele>578.0</ele><time>2026-04-18T15:05:57.001Z</time></trkpt><trkpt lat="43.46806204737132" lon="10.606370667164734"><ele>578.0</ele><time>2026-04-18T15:05:58.001Z</time></trkpt><trkpt lat="43.468073988590824" lon="10.60624014191844"><ele>578.0</ele><time>2026-04-18T15:05:59.001Z</time></trkpt><trkpt lat="43.46808148570832" lon="10.606089772367675"><ele>578.0</ele><time>2026-04-18T15:06:00.001Z</time></trkpt><trkpt lat="43.46807887255288" lon="10.605963436496774"><ele>578.0</ele><time>2026-04-18T15:06:01.001Z</time></trkpt><trkpt lat="43.46809422603633" lon="10.605805797535194"><ele>578.6</ele><time>2026-04-18T15:06:02.001Z</time></trkpt><trkpt lat="43.46812220420606" lon="10.605673407462028"><ele>579.1999999999999</ele><time>2026-04-18T15:06:03.001Z</time></trkpt><trkpt lat="43.46814054867445" lon="10.60554298498569"><ele>579.8</ele><time>2026-04-18T15:06:04.001Z</time></trkpt><trkpt lat="43.468145453215264" lon="10.605398315050971"><ele>580.4</ele><time>2026-04-18T15:06:05.001Z</time></trkpt><trkpt lat="43.46812875422268" lon="10.605255570019299"><ele>581.0</ele><time>2026-04-18T15:06:06.001Z</time></trkpt><trkpt lat="43.468111207091184" lon="10.605110917254729"><ele>581.2</ele><time>2026-04-18T15:06:07.001Z</time></trkpt><trkpt lat="43.46807521921553" lon="10.604951338916994"><ele>581.4000000000001</ele><time>2026-04-18T15:06:08.001Z</time></trkpt><trkpt lat="43.46806184529417" lon="10.604783390220364"><ele>581.6</ele><time>2026-04-18T15:06:09.001Z</time></trkpt><trkpt lat="43.468066500821585" lon="10.604666580052722"><ele>581.8000000000001</ele><time>2026-04-18T15:06:10.002Z</time></trkpt><trkpt lat="43.468097989014055" lon="10.60458187764067"><ele>582.0</ele><time>2026-04-18T15:06:11.002Z</time></trkpt><trkpt lat="43.46813488378828" lon="10.6044629728231"><ele>581.6</ele><time>2026-04-18T15:06:12.002Z</time></trkpt><trkpt lat="43.468158169877896" lon="10.604376718519314"><ele>581.2</ele><time>2026-04-18T15:06:13.002Z</time></trkpt><trkpt lat="43.468226567705344" lon="10.604263408660751"><ele>580.8</ele><time>2026-04-18T15:06:15.002Z</time></trkpt><trkpt lat="43.468299752745274" lon="10.604212510101295"><ele>580.4</ele><time>2026-04-18T15:06:18.002Z</time></trkpt><trkpt lat="43.4683839775987" lon="10.604146150539034"><ele>580.0</ele><time>2026-04-18T15:06:20.002Z</time></trkpt><trkpt lat="43.46845823883678" lon="10.60403542144581"><ele>580.0</ele><time>2026-04-18T15:06:22.002Z</time></trkpt><trkpt lat="43.46847934726608" lon="10.603947613051194"><ele>580.0</ele><time>2026-04-18T15:06:23.002Z</time></trkpt><trkpt lat="43.46847998014755" lon="10.603837213276757"><ele>580.0</ele><time>2026-04-18T15:06:24.002Z</time></trkpt><trkpt lat="43.46845439578355" lon="10.603709964904743"><ele>580.0</ele><time>2026-04-18T15:06:25.002Z</time></trkpt><trkpt lat="43.46843067949553" lon="10.603609193860272"><ele>580.0</ele><time>2026-04-18T15:06:26.002Z</time></trkpt><trkpt lat="43.46840886977019" lon="10.6034795749609"><ele>580.0</ele><time>2026-04-18T15:06:27.002Z</time></trkpt><trkpt lat="43.46838864755475" lon="10.603369826642787"><ele>580.0</ele><time>2026-04-18T15:06:28.002Z</time></trkpt><trkpt lat="43.468356186222046" lon="10.603233885721009"><ele>580.0</ele><time>2026-04-18T15:06:29.002Z</time></trkpt><trkpt lat="43.46833271055124" lon="10.603106020533383"><ele>580.0</ele><time>2026-04-18T15:06:30.002Z</time></trkpt><trkpt lat="43.46831635337091" lon="10.60299781414935"><ele>580.0</ele><time>2026-04-18T15:06:31.002Z</time></trkpt><trkpt lat="43.46830788198069" lon="10.602887269484222"><ele>580.0</ele><time>2026-04-18T15:06:33.002Z</time></trkpt><trkpt lat="43.468352108852024" lon="10.602813290323782"><ele>580.0</ele><time>2026-04-18T15:06:35.002Z</time></trkpt><trkpt lat="43.4684152732627" lon="10.602829602244354"><ele>580.0</ele><time>2026-04-18T15:06:43.002Z</time></trkpt><trkpt lat="43.46851063708886" lon="10.602884675574918"><ele>580.0</ele><time>2026-04-18T15:06:45.002Z</time></trkpt><trkpt lat="43.46857619675765" lon="10.60293245513863"><ele>580.0</ele><time>2026-04-18T15:06:46.002Z</time></trkpt><trkpt lat="43.468639746749304" lon="10.602975081060986"><ele>580.0</ele><time>2026-04-18T15:06:47.002Z</time></trkpt><trkpt lat="43.46871636469831" lon="10.603015294456165"><ele>580.0</ele><time>2026-04-18T15:06:48.002Z</time></trkpt><trkpt lat="43.468789181387095" lon="10.603053323527496"><ele>580.0</ele><time>2026-04-18T15:06:49.002Z</time></trkpt><trkpt lat="43.46886655687532" lon="10.603096704940262"><ele>581.8</ele><time>2026-04-18T15:06:50.002Z</time></trkpt><trkpt lat="43.46893092990927" lon="10.603135566118315"><ele>583.6</ele><time>2026-04-18T15:06:51.002Z</time></trkpt><trkpt lat="43.46902331879546" lon="10.603196132819745"><ele>585.4</ele><time>2026-04-18T15:06:52.002Z</time></trkpt><trkpt lat="43.46912394303571" lon="10.60327236861299"><ele>587.2</ele><time>2026-04-18T15:06:53.002Z</time></trkpt><trkpt lat="43.46922790225803" lon="10.603361554423143"><ele>589.0</ele><time>2026-04-18T15:06:54.002Z</time></trkpt><trkpt lat="43.46932822235288" lon="10.603455274839552"><ele>589.0</ele><time>2026-04-18T15:06:55.002Z</time></trkpt><trkpt lat="43.46941904174117" lon="10.603530030022782"><ele>589.0</ele><time>2026-04-18T15:06:56.002Z</time></trkpt><trkpt lat="43.46950534747768" lon="10.60359552638988"><ele>589.0</ele><time>2026-04-18T15:06:57.002Z</time></trkpt><trkpt lat="43.46958818351118" lon="10.603662468099945"><ele>589.0</ele><time>2026-04-18T15:06:58.002Z</time></trkpt><trkpt lat="43.46968119310993" lon="10.60373863512042"><ele>589.0</ele><time>2026-04-18T15:06:59.002Z</time></trkpt><trkpt lat="43.469770974660854" lon="10.603832517525412"><ele>587.75</ele><time>2026-04-18T15:07:00.002Z</time></trkpt><trkpt lat="43.46987209909662" lon="10.603926802289795"><ele>586.5</ele><time>2026-04-18T15:07:01.002Z</time></trkpt><trkpt lat="43.469964440168624" lon="10.604001820265077"><ele>585.25</ele><time>2026-04-18T15:07:02.002Z</time></trkpt><trkpt lat="43.470064430256265" lon="10.604061430468498"><ele>584.0</ele><time>2026-04-18T15:07:03.002Z</time></trkpt><trkpt lat="43.47017839870727" lon="10.60410736681419"><ele>584.0</ele><time>2026-04-18T15:07:04.002Z</time></trkpt><trkpt lat="43.47028751344226" lon="10.604156669597801"><ele>584.0</ele><time>2026-04-18T15:07:05.001Z</time></trkpt><trkpt lat="43.47039497741275" lon="10.604167031310784"><ele>584.0</ele><time>2026-04-18T15:07:06.001Z</time></trkpt><trkpt lat="43.47049171042846" lon="10.604197414678088"><ele>584.0</ele><time>2026-04-18T15:07:07.001Z</time></trkpt><trkpt lat="43.47059059045817" lon="10.604218041199596"><ele>584.0</ele><time>2026-04-18T15:07:08.001Z</time></trkpt><trkpt lat="43.470705176062886" lon="10.604216087279244"><ele>583.0</ele><time>2026-04-18T15:07:09.001Z</time></trkpt><trkpt lat="43.470838281447726" lon="10.604189278807532"><ele>582.0</ele><time>2026-04-18T15:07:10.001Z</time></trkpt><trkpt lat="43.47097911774473" lon="10.604165667489251"><ele>581.0</ele><time>2026-04-18T15:07:11.001Z</time></trkpt><trkpt lat="43.47109644647537" lon="10.604160343633973"><ele>580.0</ele><time>2026-04-18T15:07:12.001Z</time></trkpt><trkpt lat="43.47120629550476" lon="10.604203726394942"><ele>580.5</ele><time>2026-04-18T15:07:13.001Z</time></trkpt><trkpt lat="43.47132486968546" lon="10.604231546849512"><ele>581.0</ele><time>2026-04-18T15:07:14.001Z</time></trkpt><trkpt lat="43.471438984269305" lon="10.604264769458988"><ele>581.5</ele><time>2026-04-18T15:07:15.001Z</time></trkpt><trkpt lat="43.47155150993772" lon="10.604296497043604"><ele>582.0</ele><time>2026-04-18T15:07:16.001Z</time></trkpt><trkpt lat="43.4716627090212" lon="10.604293626425724"><ele>582.0</ele><time>2026-04-18T15:07:17.001Z</time></trkpt><trkpt lat="43.47176134500052" lon="10.604272425831608"><ele>582.0</ele><time>2026-04-18T15:07:18.001Z</time></trkpt><trkpt lat="43.471860073994726" lon="10.604207059226939"><ele>582.0</ele><time>2026-04-18T15:07:19.001Z</time></trkpt><trkpt lat="43.471936054122395" lon="10.604135280961776"><ele>582.0</ele><time>2026-04-18T15:07:20.001Z</time></trkpt><trkpt lat="43.47201101862245" lon="10.604118124745757"><ele>582.0</ele><time>2026-04-18T15:07:21.001Z</time></trkpt><trkpt lat="43.472097747141696" lon="10.604116077961868"><ele>582.8000000000001</ele><time>2026-04-18T15:07:22.001Z</time></trkpt><trkpt lat="43.47218026206521" lon="10.60416448112533"><ele>583.6</ele><time>2026-04-18T15:07:23.001Z</time></trkpt><trkpt lat="43.472216358665776" lon="10.604258860133333"><ele>584.4000000000001</ele><time>2026-04-18T15:07:24.001Z</time></trkpt><trkpt lat="43.47225582176061" lon="10.604390251925205"><ele>585.2</ele><time>2026-04-18T15:07:25.001Z</time></trkpt><trkpt lat="43.472293550889944" lon="10.60451851052902"><ele>586.0</ele><time>2026-04-18T15:07:26.001Z</time></trkpt><trkpt lat="43.47235304274811" lon="10.604645367425976"><ele>586.0</ele><time>2026-04-18T15:07:27.001Z</time></trkpt><trkpt lat="43.47241636054644" lon="10.604812967297025"><ele>586.0</ele><time>2026-04-18T15:07:28.001Z</time></trkpt><trkpt lat="43.47248340945469" lon="10.604980098834671"><ele>586.0</ele><time>2026-04-18T15:07:29.001Z</time></trkpt><trkpt lat="43.47255507449262" lon="10.6051503102604"><ele>586.0</ele><time>2026-04-18T15:07:30.001Z</time></trkpt><trkpt lat="43.47259920373548" lon="10.60531996479955"><ele>585.4</ele><time>2026-04-18T15:07:31.001Z</time></trkpt><trkpt lat="43.47261989923392" lon="10.605472368530943"><ele>584.8</ele><time>2026-04-18T15:07:32.001Z</time></trkpt><trkpt lat="43.47266664479991" lon="10.60561147696758"><ele>584.1999999999999</ele><time>2026-04-18T15:07:33.001Z</time></trkpt><trkpt lat="43.47273660033804" lon="10.605711451492082"><ele>583.6</ele><time>2026-04-18T15:07:34.001Z</time></trkpt><trkpt lat="43.47282265335113" lon="10.605809690335171"><ele>583.0</ele><time>2026-04-18T15:07:35.001Z</time></trkpt><trkpt lat="43.47291541319001" lon="10.60590345853034"><ele>582.75</ele><time>2026-04-18T15:07:36.001Z</time></trkpt><trkpt lat="43.47301749306079" lon="10.606000142522635"><ele>582.5</ele><time>2026-04-18T15:07:37.001Z</time></trkpt><trkpt lat="43.47312238361637" lon="10.60610389587042"><ele>582.25</ele><time>2026-04-18T15:07:38.001Z</time></trkpt><trkpt lat="43.47322461088518" lon="10.60620053490576"><ele>582.0</ele><time>2026-04-18T15:07:39.001Z</time></trkpt><trkpt lat="43.47330176111619" lon="10.606287328687998"><ele>582.0</ele><time>2026-04-18T15:07:40.001Z</time></trkpt><trkpt lat="43.473373420139524" lon="10.606342173530868"><ele>582.0</ele><time>2026-04-18T15:07:41.001Z</time></trkpt><trkpt lat="43.47344104721872" lon="10.606342541522684"><ele>582.0</ele><time>2026-04-18T15:07:42.001Z</time></trkpt><trkpt lat="43.473517905991834" lon="10.606331298194664"><ele>582.0</ele><time>2026-04-18T15:07:43.001Z</time></trkpt><trkpt lat="43.4736143800532" lon="10.606302222474355"><ele>582.0</ele><time>2026-04-18T15:07:44.001Z</time></trkpt><trkpt lat="43.47370650887231" lon="10.606273534573138"><ele>582.0</ele><time>2026-04-18T15:07:45.001Z</time></trkpt><trkpt lat="43.473789850403854" lon="10.606240675383226"><ele>581.2</ele><time>2026-04-18T15:07:46.001Z</time></trkpt><trkpt lat="43.47387478698252" lon="10.606215311895676"><ele>580.4000000000001</ele><time>2026-04-18T15:07:47.001Z</time></trkpt><trkpt lat="43.47399085944814" lon="10.606231645299685"><ele>579.5999999999999</ele><time>2026-04-18T15:07:48.001Z</time></trkpt><trkpt lat="43.474098838119644" lon="10.606243400725964"><ele>578.8</ele><time>2026-04-18T15:07:49.001Z</time></trkpt><trkpt lat="43.47421426129143" lon="10.606255443253444"><ele>578.0</ele><time>2026-04-18T15:07:50.001Z</time></trkpt><trkpt lat="43.47433575947259" lon="10.606227863150004"><ele>578.0</ele><time>2026-04-18T15:07:51.001Z</time></trkpt><trkpt lat="43.474463138265904" lon="10.606200390609963"><ele>578.0</ele><time>2026-04-18T15:07:52.001Z</time></trkpt><trkpt lat="43.47458365233519" lon="10.606170077351965"><ele>578.0</ele><time>2026-04-18T15:07:53.001Z</time></trkpt><trkpt lat="43.47470293530234" lon="10.60615928402138"><ele>578.0</ele><time>2026-04-18T15:07:54.001Z</time></trkpt><trkpt lat="43.47479227475194" lon="10.60617800346103"><ele>577.6666666666666</ele><time>2026-04-18T15:07:55.001Z</time></trkpt><trkpt lat="43.474857122287915" lon="10.60618662729416"><ele>577.3333333333333</ele><time>2026-04-18T15:07:56.001Z</time></trkpt><trkpt lat="43.474864663630335" lon="10.60609014691754"><ele>577.0</ele><time>2026-04-18T15:08:00.001Z</time></trkpt><trkpt lat="43.4749378707272" lon="10.606003933591804"><ele>576.6666666666666</ele><time>2026-04-18T15:08:02.001Z</time></trkpt><trkpt lat="43.47497307648255" lon="10.605892833589602"><ele>576.3333333333334</ele><time>2026-04-18T15:08:04.001Z</time></trkpt><trkpt lat="43.474986323455795" lon="10.605745535496574"><ele>576.0</ele><time>2026-04-18T15:08:06.001Z</time></trkpt><trkpt lat="43.47496813656517" lon="10.605649472568732"><ele>576.3333333333334</ele><time>2026-04-18T15:08:07.001Z</time></trkpt><trkpt lat="43.474908015129614" lon="10.605376314710329"><ele>576.6666666666667</ele><time>2026-04-18T15:08:09.001Z</time></trkpt><trkpt lat="43.474888060049274" lon="10.60521773715263"><ele>577.0</ele><time>2026-04-18T15:08:10.001Z</time></trkpt><trkpt lat="43.47488200624283" lon="10.605034941382609"><ele>577.0</ele><time>2026-04-18T15:08:11.001Z</time></trkpt><trkpt lat="43.47486017587939" lon="10.604885809531885"><ele>577.0</ele><time>2026-04-18T15:08:12.001Z</time></trkpt><trkpt lat="43.47482811023377" lon="10.604775548878823"><ele>577.0</ele><time>2026-04-18T15:08:13.001Z</time></trkpt><trkpt lat="43.47480085446411" lon="10.604693438060329"><ele>577.0</ele><time>2026-04-18T15:08:14.001Z</time></trkpt><trkpt lat="43.47480053758286" lon="10.604604755354142"><ele>577.0</ele><time>2026-04-18T15:08:15.001Z</time></trkpt><trkpt lat="43.47479864035508" lon="10.604513802038039"><ele>577.0</ele><time>2026-04-18T15:08:16.001Z</time></trkpt><trkpt lat="43.474829242569946" lon="10.604385251608067"><ele>577.5</ele><time>2026-04-18T15:08:17.001Z</time></trkpt><trkpt lat="43.47483534207838" lon="10.604272331528113"><ele>578.0</ele><time>2026-04-18T15:08:18.001Z</time></trkpt><trkpt lat="43.47482872688067" lon="10.604135899720243"><ele>578.5</ele><time>2026-04-18T15:08:19.001Z</time></trkpt><trkpt lat="43.47481725331796" lon="10.604003351277575"><ele>579.0</ele><time>2026-04-18T15:08:20.001Z</time></trkpt><trkpt lat="43.4748368958767" lon="10.60389406575112"><ele>579.5</ele><time>2026-04-18T15:08:21.001Z</time></trkpt><trkpt lat="43.474870721770586" lon="10.60378337529165"><ele>580.0</ele><time>2026-04-18T15:08:22.001Z</time></trkpt><trkpt lat="43.47489248283467" lon="10.603693365965588"><ele>579.6</ele><time>2026-04-18T15:08:23.001Z</time></trkpt><trkpt lat="43.4748784996647" lon="10.603548386900183"><ele>579.2</ele><time>2026-04-18T15:08:25.001Z</time></trkpt><trkpt lat="43.47494947391491" lon="10.603434525237265"><ele>578.8</ele><time>2026-04-18T15:08:27.001Z</time></trkpt><trkpt lat="43.475041586520256" lon="10.603411114138588"><ele>578.4</ele><time>2026-04-18T15:08:29.002Z</time></trkpt><trkpt lat="43.47512396341908" lon="10.60339540471424"><ele>578.0</ele><time>2026-04-18T15:08:31.002Z</time></trkpt><trkpt lat="43.47521893149793" lon="10.60337767643836"><ele>578.0</ele><time>2026-04-18T15:08:33.002Z</time></trkpt><trkpt lat="43.47530180826475" lon="10.603375729152278"><ele>578.0</ele><time>2026-04-18T15:08:36.002Z</time></trkpt><trkpt lat="43.47537168427832" lon="10.603371466676345"><ele>578.0</ele><time>2026-04-18T15:08:39.002Z</time></trkpt><trkpt lat="43.475446782320596" lon="10.60337584076718"><ele>578.0</ele><time>2026-04-18T15:08:43.002Z</time></trkpt><trkpt lat="43.47551967463403" lon="10.603354145692093"><ele>578.0</ele><time>2026-04-18T15:08:47.002Z</time></trkpt><trkpt lat="43.47558396043694" lon="10.603353137879967"><ele>578.0</ele><time>2026-04-18T15:08:49.002Z</time></trkpt><trkpt lat="43.47567190752044" lon="10.603359715883757"><ele>577.4</ele><time>2026-04-18T15:08:51.002Z</time></trkpt><trkpt lat="43.475746974017156" lon="10.603367859069913"><ele>576.8</ele><time>2026-04-18T15:08:52.002Z</time></trkpt><trkpt lat="43.475842231793315" lon="10.603378126187746"><ele>576.2</ele><time>2026-04-18T15:08:53.002Z</time></trkpt><trkpt lat="43.47595310281862" lon="10.603404105864277"><ele>575.6</ele><time>2026-04-18T15:08:54.002Z</time></trkpt><trkpt lat="43.47606863198367" lon="10.603462965291829"><ele>575.0</ele><time>2026-04-18T15:08:55.002Z</time></trkpt><trkpt lat="43.476172484129364" lon="10.60354922095235"><ele>575.0</ele><time>2026-04-18T15:08:56.002Z</time></trkpt><trkpt lat="43.47625628204702" lon="10.6036609578304"><ele>575.0</ele><time>2026-04-18T15:08:57.002Z</time></trkpt><trkpt lat="43.4763385061625" lon="10.603757544789753"><ele>575.0</ele><time>2026-04-18T15:08:58.002Z</time></trkpt><trkpt lat="43.47643016024573" lon="10.603833838222965"><ele>575.0</ele><time>2026-04-18T15:08:59.002Z</time></trkpt><trkpt lat="43.47652999739402" lon="10.603888126648773"><ele>575.0</ele><time>2026-04-18T15:09:00.002Z</time></trkpt><trkpt lat="43.47663073421692" lon="10.603899712959933"><ele>573.8333333333333</ele><time>2026-04-18T15:09:01.002Z</time></trkpt><trkpt lat="43.47672723385525" lon="10.603889276511774"><ele>572.6666666666666</ele><time>2026-04-18T15:09:02.002Z</time></trkpt><trkpt lat="43.476808055166806" lon="10.603860786233039"><ele>571.5</ele><time>2026-04-18T15:09:03.002Z</time></trkpt><trkpt lat="43.47687770454907" lon="10.603825458084184"><ele>570.3333333333334</ele><time>2026-04-18T15:09:04.002Z</time></trkpt><trkpt lat="43.47695601243998" lon="10.603768275933408"><ele>569.1666666666667</ele><time>2026-04-18T15:09:05.002Z</time></trkpt><trkpt lat="43.47704206232457" lon="10.603712894663781"><ele>568.0</ele><time>2026-04-18T15:09:06.002Z</time></trkpt><trkpt lat="43.477154226743636" lon="10.603655304058169"><ele>566.1999999999999</ele><time>2026-04-18T15:09:07.002Z</time></trkpt><trkpt lat="43.47727362071104" lon="10.603620798518342"><ele>564.4</ele><time>2026-04-18T15:09:08.002Z</time></trkpt><trkpt lat="43.477379416160275" lon="10.603601836667815"><ele>562.5999999999999</ele><time>2026-04-18T15:09:09.002Z</time></trkpt><trkpt lat="43.477477792894604" lon="10.603566831648493"><ele>560.8</ele><time>2026-04-18T15:09:10.002Z</time></trkpt><trkpt lat="43.47755484594654" lon="10.603518916731637"><ele>559.0</ele><time>2026-04-18T15:09:11.001Z</time></trkpt><trkpt lat="43.47763192647101" lon="10.60344937536516"><ele>559.0</ele><time>2026-04-18T15:09:12.001Z</time></trkpt><trkpt lat="43.47770485444488" lon="10.60335743967783"><ele>559.0</ele><time>2026-04-18T15:09:13.001Z</time></trkpt><trkpt lat="43.47776891342884" lon="10.603264393260451"><ele>559.0</ele><time>2026-04-18T15:09:14.001Z</time></trkpt><trkpt lat="43.4778395654653" lon="10.6031752041898"><ele>559.0</ele><time>2026-04-18T15:09:15.001Z</time></trkpt><trkpt lat="43.4779081778125" lon="10.603078931020594"><ele>559.0</ele><time>2026-04-18T15:09:16.001Z</time></trkpt><trkpt lat="43.47797368639602" lon="10.602992230881895"><ele>556.6</ele><time>2026-04-18T15:09:17.001Z</time></trkpt><trkpt lat="43.478039655226425" lon="10.602908846921784"><ele>554.2</ele><time>2026-04-18T15:09:18.001Z</time></trkpt><trkpt lat="43.47810795805678" lon="10.602817109565434"><ele>551.8000000000001</ele><time>2026-04-18T15:09:19.001Z</time></trkpt><trkpt lat="43.47816532579646" lon="10.602720996634696"><ele>549.4</ele><time>2026-04-18T15:09:20.001Z</time></trkpt><trkpt lat="43.478193380290165" lon="10.602622765459847"><ele>547.0</ele><time>2026-04-18T15:09:21Z</time></trkpt><trkpt lat="43.47823182441881" lon="10.602479432851263"><ele>547.0</ele><time>2026-04-18T15:09:22Z</time></trkpt><trkpt lat="43.47827299443445" lon="10.602341424911948"><ele>547.0</ele><time>2026-04-18T15:09:23Z</time></trkpt><trkpt lat="43.47831286875053" lon="10.602242743707075"><ele>547.0</ele><time>2026-04-18T15:09:24Z</time></trkpt><trkpt lat="43.47838256895845" lon="10.602132070486865"><ele>547.0</ele><time>2026-04-18T15:09:25Z</time></trkpt><trkpt lat="43.47846177088557" lon="10.602030629166975"><ele>547.0</ele><time>2026-04-18T15:09:26Z</time></trkpt><trkpt lat="43.47854842378997" lon="10.601930322048517"><ele>546.6</ele><time>2026-04-18T15:09:27Z</time></trkpt><trkpt lat="43.478632555387776" lon="10.60183006952565"><ele>546.2</ele><time>2026-04-18T15:09:28Z</time></trkpt><trkpt lat="43.4787127843941" lon="10.60175540824757"><ele>545.8</ele><time>2026-04-18T15:09:29Z</time></trkpt><trkpt lat="43.478784502946915" lon="10.60172383427367"><ele>545.4</ele><time>2026-04-18T15:09:30Z</time></trkpt><trkpt lat="43.47886896478751" lon="10.601705596871225"><ele>545.0</ele><time>2026-04-18T15:09:31Z</time></trkpt><trkpt lat="43.47896540667983" lon="10.601712717605349"><ele>544.6</ele><time>2026-04-18T15:09:32Z</time></trkpt><trkpt lat="43.4790613875047" lon="10.601745134788667"><ele>544.2</ele><time>2026-04-18T15:09:33Z</time></trkpt><trkpt lat="43.479151746380055" lon="10.601776679607314"><ele>543.8</ele><time>2026-04-18T15:09:34Z</time></trkpt><trkpt lat="43.47923950213988" lon="10.60176851395555"><ele>543.4</ele><time>2026-04-18T15:09:35Z</time></trkpt><trkpt lat="43.479308922609405" lon="10.601716124986533"><ele>543.0</ele><time>2026-04-18T15:09:36Z</time></trkpt><trkpt lat="43.479381994207685" lon="10.601635904399691"><ele>543.0</ele><time>2026-04-18T15:09:37Z</time></trkpt><trkpt lat="43.47944698192076" lon="10.601529227584896"><ele>543.0</ele><time>2026-04-18T15:09:38Z</time></trkpt><trkpt lat="43.47951453806483" lon="10.601410871736048"><ele>543.0</ele><time>2026-04-18T15:09:39Z</time></trkpt><trkpt lat="43.479592828351855" lon="10.601294179224979"><ele>543.0</ele><time>2026-04-18T15:09:40Z</time></trkpt><trkpt lat="43.479689221648854" lon="10.601198556925997"><ele>543.0</ele><time>2026-04-18T15:09:41Z</time></trkpt><trkpt lat="43.47978352860216" lon="10.601127004655861"><ele>541.5</ele><time>2026-04-18T15:09:42Z</time></trkpt><trkpt lat="43.479861317744835" lon="10.601065904070811"><ele>540.0</ele><time>2026-04-18T15:09:43Z</time></trkpt><trkpt lat="43.479919737622765" lon="10.600982334050281"><ele>538.5</ele><time>2026-04-18T15:09:44Z</time></trkpt><trkpt lat="43.47995055534212" lon="10.600886375363"><ele>537.0</ele><time>2026-04-18T15:09:45Z</time></trkpt><trkpt lat="43.47996680529189" lon="10.600765180437133"><ele>535.5</ele><time>2026-04-18T15:09:46Z</time></trkpt><trkpt lat="43.47997371951599" lon="10.600627688307124"><ele>534.0</ele><time>2026-04-18T15:09:47Z</time></trkpt><trkpt lat="43.479975828907705" lon="10.600480295412126"><ele>534.0</ele><time>2026-04-18T15:09:48.001Z</time></trkpt><trkpt lat="43.47998891970626" lon="10.600333615692378"><ele>534.0</ele><time>2026-04-18T15:09:49.001Z</time></trkpt><trkpt lat="43.480020827275595" lon="10.600188885270102"><ele>534.0</ele><time>2026-04-18T15:09:50.001Z</time></trkpt><trkpt lat="43.480057477389714" lon="10.600097440218851"><ele>534.0</ele><time>2026-04-18T15:09:51.001Z</time></trkpt><trkpt lat="43.48010997431611" lon="10.600018626674114"><ele>534.0</ele><time>2026-04-18T15:09:52.001Z</time></trkpt><trkpt lat="43.480197756847964" lon="10.599897095733787"><ele>533.2</ele><time>2026-04-18T15:09:53.001Z</time></trkpt><trkpt lat="43.48028776539704" lon="10.599804145830733"><ele>532.4</ele><time>2026-04-18T15:09:54.001Z</time></trkpt><trkpt lat="43.480379726691034" lon="10.5997293027328"><ele>531.6</ele><time>2026-04-18T15:09:55.001Z</time></trkpt><trkpt lat="43.48046668025667" lon="10.599682899662568"><ele>530.8</ele><time>2026-04-18T15:09:56.001Z</time></trkpt><trkpt lat="43.48054763509204" lon="10.599651739750847"><ele>530.0</ele><time>2026-04-18T15:09:57.001Z</time></trkpt><trkpt lat="43.48063059721083" lon="10.599624165498119"><ele>529.4285714285713</ele><time>2026-04-18T15:09:58.001Z</time></trkpt><trkpt lat="43.48070813754091" lon="10.59959841367572"><ele>528.8571428571429</ele><time>2026-04-18T15:09:59.001Z</time></trkpt><trkpt lat="43.480782568818064" lon="10.599574036276358"><ele>528.2857142857142</ele><time>2026-04-18T15:10:00.001Z</time></trkpt><trkpt lat="43.480848057156344" lon="10.599560350945465"><ele>527.7142857142857</ele><time>2026-04-18T15:10:01.001Z</time></trkpt><trkpt lat="43.48092929310131" lon="10.599555711142587"><ele>527.1428571428571</ele><time>2026-04-18T15:10:03.001Z</time></trkpt><trkpt lat="43.48086990057657" lon="10.599512843568995"><ele>526.5714285714286</ele><time>2026-04-18T15:11:05.002Z</time></trkpt><trkpt lat="43.48088146212708" lon="10.59942539382954"><ele>526.0</ele><time>2026-04-18T15:11:57.001Z</time></trkpt><trkpt lat="43.48090572746296" lon="10.599509185539024"><ele>526.0</ele><time>2026-04-18T15:14:07Z</time></trkpt><trkpt lat="43.48102661186942" lon="10.599513900482004"><ele>526.0</ele><time>2026-04-18T15:14:09Z</time></trkpt><trkpt lat="43.48109944663616" lon="10.599490132559447"><ele>526.0</ele><time>2026-04-18T15:14:10Z</time></trkpt><trkpt lat="43.48116702807691" lon="10.599462128257718"><ele>526.0</ele><time>2026-04-18T15:14:11Z</time></trkpt><trkpt lat="43.48123825849253" lon="10.599434475432396"><ele>526.0</ele><time>2026-04-18T15:14:12Z</time></trkpt><trkpt lat="43.481299159978356" lon="10.599410369578809"><ele>526.0</ele><time>2026-04-18T15:14:13Z</time></trkpt><trkpt lat="43.48136491568418" lon="10.599391962797043"><ele>523.6666666666667</ele><time>2026-04-18T15:14:14Z</time></trkpt><trkpt lat="43.48143890990261" lon="10.599374387859115"><ele>521.3333333333334</ele><time>2026-04-18T15:14:15Z</time></trkpt><trkpt lat="43.48150656438934" lon="10.599363642585631"><ele>519.0</ele><time>2026-04-18T15:14:16Z</time></trkpt><trkpt lat="43.4815841709483" lon="10.599363196991828"><ele>516.6666666666666</ele><time>2026-04-18T15:14:17Z</time></trkpt><trkpt lat="43.481658218313385" lon="10.599359053868213"><ele>514.3333333333333</ele><time>2026-04-18T15:14:18Z</time></trkpt><trkpt lat="43.48173361387494" lon="10.599359349220974"><ele>512.0</ele><time>2026-04-18T15:14:19Z</time></trkpt><trkpt lat="43.48182530986584" lon="10.599358429761297"><ele>511.99999999999994</ele><time>2026-04-18T15:14:20Z</time></trkpt><trkpt lat="43.48190398616603" lon="10.59935203605951"><ele>512.0</ele><time>2026-04-18T15:14:21Z</time></trkpt><trkpt lat="43.48198231042646" lon="10.599347146434893"><ele>512.0</ele><time>2026-04-18T15:14:22Z</time></trkpt><trkpt lat="43.4820618603339" lon="10.599343587877428"><ele>512.0</ele><time>2026-04-18T15:14:23Z</time></trkpt><trkpt lat="43.48213909395138" lon="10.599343460976032"><ele>511.99999999999994</ele><time>2026-04-18T15:14:24Z</time></trkpt><trkpt lat="43.48221379620425" lon="10.599345334932618"><ele>512.0</ele><time>2026-04-18T15:14:25Z</time></trkpt><trkpt lat="43.48229983157944" lon="10.59935447603856"><ele>509.3333333333333</ele><time>2026-04-18T15:14:26Z</time></trkpt><trkpt lat="43.48237150895565" lon="10.599372714214905"><ele>506.66666666666663</ele><time>2026-04-18T15:14:27Z</time></trkpt><trkpt lat="43.482453980134146" lon="10.599406792382434"><ele>504.0</ele><time>2026-04-18T15:14:28Z</time></trkpt><trkpt lat="43.48254125471273" lon="10.59945135159846"><ele>501.33333333333337</ele><time>2026-04-18T15:14:29Z</time></trkpt><trkpt lat="43.482625311664414" lon="10.599504228545774"><ele>498.6666666666667</ele><time>2026-04-18T15:14:30Z</time></trkpt><trkpt lat="43.482700770315645" lon="10.599556901309017"><ele>496.0</ele><time>2026-04-18T15:14:31Z</time></trkpt><trkpt lat="43.4827904663313" lon="10.599616387319237"><ele>496.20000000000005</ele><time>2026-04-18T15:14:32Z</time></trkpt><trkpt lat="43.482871664900465" lon="10.599663295948316"><ele>496.40000000000003</ele><time>2026-04-18T15:14:33Z</time></trkpt><trkpt lat="43.48295198960133" lon="10.599709307574313"><ele>496.6</ele><time>2026-04-18T15:14:34Z</time></trkpt><trkpt lat="43.48303248412979" lon="10.599756262961776"><ele>496.8</ele><time>2026-04-18T15:14:35Z</time></trkpt><trkpt lat="43.483117746533814" lon="10.599814876140634"><ele>497.0</ele><time>2026-04-18T15:14:36Z</time></trkpt><trkpt lat="43.48321357232536" lon="10.599876167564767"><ele>497.0</ele><time>2026-04-18T15:14:37Z</time></trkpt><trkpt lat="43.48330568379757" lon="10.599931837785487"><ele>497.00000000000006</ele><time>2026-04-18T15:14:38Z</time></trkpt><trkpt lat="43.48340117098934" lon="10.599977132074999"><ele>497.00000000000006</ele><time>2026-04-18T15:14:39Z</time></trkpt><trkpt lat="43.48350462891753" lon="10.600033928841686"><ele>497.0</ele><time>2026-04-18T15:14:40Z</time></trkpt><trkpt lat="43.48360668285094" lon="10.600068984566201"><ele>497.0</ele><time>2026-04-18T15:14:41Z</time></trkpt><trkpt lat="43.48371399479251" lon="10.600096673035495"><ele>498.5</ele><time>2026-04-18T15:14:42Z</time></trkpt><trkpt lat="43.48383192605732" lon="10.600114892667973"><ele>500.0</ele><time>2026-04-18T15:14:43Z</time></trkpt><trkpt lat="43.48395449902167" lon="10.600117792884518"><ele>501.5</ele><time>2026-04-18T15:14:44Z</time></trkpt><trkpt lat="43.48408329552575" lon="10.600115332110693"><ele>503.0</ele><time>2026-04-18T15:14:45Z</time></trkpt><trkpt lat="43.4842110850093" lon="10.60010199706583"><ele>503.0</ele><time>2026-04-18T15:14:46Z</time></trkpt><trkpt lat="43.48434718775435" lon="10.600078983325936"><ele>503.0</ele><time>2026-04-18T15:14:47Z</time></trkpt><trkpt lat="43.48448543214834" lon="10.6000593755374"><ele>503.0</ele><time>2026-04-18T15:14:48.001Z</time></trkpt><trkpt lat="43.484642770784326" lon="10.600049422267238"><ele>503.0</ele><time>2026-04-18T15:14:49.001Z</time></trkpt><trkpt lat="43.48478964233945" lon="10.60003524219177"><ele>503.5</ele><time>2026-04-18T15:14:50.001Z</time></trkpt><trkpt lat="43.484942477650236" lon="10.600014175416879"><ele>504.0</ele><time>2026-04-18T15:14:51.001Z</time></trkpt><trkpt lat="43.48509255868076" lon="10.59998172549959"><ele>504.5</ele><time>2026-04-18T15:14:52.001Z</time></trkpt><trkpt lat="43.48522833804272" lon="10.59993612317589"><ele>505.0</ele><time>2026-04-18T15:14:53.001Z</time></trkpt><trkpt lat="43.48534316869534" lon="10.599888110959194"><ele>505.0</ele><time>2026-04-18T15:14:54.001Z</time></trkpt><trkpt lat="43.485422133891724" lon="10.599849384795059"><ele>505.0</ele><time>2026-04-18T15:14:55.001Z</time></trkpt><trkpt lat="43.485510737105805" lon="10.599803977361224"><ele>505.0</ele><time>2026-04-18T15:14:56.001Z</time></trkpt><trkpt lat="43.48560904214422" lon="10.599744830103369"><ele>505.0</ele><time>2026-04-18T15:14:57.001Z</time></trkpt><trkpt lat="43.48572379780593" lon="10.599688963567418"><ele>505.0</ele><time>2026-04-18T15:14:58.001Z</time></trkpt><trkpt lat="43.48584135460548" lon="10.59965243801942"><ele>505.5</ele><time>2026-04-18T15:14:59.001Z</time></trkpt><trkpt lat="43.485966789239114" lon="10.599632732868516"><ele>506.0</ele><time>2026-04-18T15:15:00.001Z</time></trkpt><trkpt lat="43.48610115555138" lon="10.59964981177446"><ele>506.5</ele><time>2026-04-18T15:15:01.001Z</time></trkpt><trkpt lat="43.486241419995935" lon="10.599676790786212"><ele>507.0</ele><time>2026-04-18T15:15:02.001Z</time></trkpt><trkpt lat="43.486376809355264" lon="10.59971077528476"><ele>505.75</ele><time>2026-04-18T15:15:03.001Z</time></trkpt><trkpt lat="43.48650546697711" lon="10.599748575170922"><ele>504.5</ele><time>2026-04-18T15:15:04.001Z</time></trkpt><trkpt lat="43.486632386104176" lon="10.599776635381428"><ele>503.25</ele><time>2026-04-18T15:15:05.001Z</time></trkpt><trkpt lat="43.486765108351456" lon="10.599779477213584"><ele>502.0</ele><time>2026-04-18T15:15:06.001Z</time></trkpt><trkpt lat="43.48687813335462" lon="10.599763376859846"><ele>502.0</ele><time>2026-04-18T15:15:07.001Z</time></trkpt><trkpt lat="43.48698747538199" lon="10.599719222342776"><ele>502.0</ele><time>2026-04-18T15:15:08.001Z</time></trkpt><trkpt lat="43.48708859176036" lon="10.599633482935674"><ele>502.0</ele><time>2026-04-18T15:15:09.001Z</time></trkpt><trkpt lat="43.48719596232154" lon="10.599498308753835"><ele>502.0</ele><time>2026-04-18T15:15:10.001Z</time></trkpt><trkpt lat="43.487291447649845" lon="10.599364271648007"><ele>500.0</ele><time>2026-04-18T15:15:11.001Z</time></trkpt><trkpt lat="43.48739655042172" lon="10.5992159590871"><ele>498.0</ele><time>2026-04-18T15:15:12.001Z</time></trkpt><trkpt lat="43.48750647299039" lon="10.599071992515565"><ele>496.0</ele><time>2026-04-18T15:15:13.001Z</time></trkpt><trkpt lat="43.48760054191917" lon="10.598920164081791"><ele>494.0</ele><time>2026-04-18T15:15:14.001Z</time></trkpt><trkpt lat="43.48768830858387" lon="10.598768710768494"><ele>493.25</ele><time>2026-04-18T15:15:15.001Z</time></trkpt><trkpt lat="43.48775795381435" lon="10.598618553865755"><ele>492.5</ele><time>2026-04-18T15:15:16.001Z</time></trkpt><trkpt lat="43.48781402869375" lon="10.598443462614414"><ele>491.75</ele><time>2026-04-18T15:15:17.001Z</time></trkpt><trkpt lat="43.487860255525874" lon="10.598271646516201"><ele>491.0</ele><time>2026-04-18T15:15:18.001Z</time></trkpt><trkpt lat="43.48792031634539" lon="10.59811183484764"><ele>491.4</ele><time>2026-04-18T15:15:19.001Z</time></trkpt><trkpt lat="43.487966979859195" lon="10.598004905261424"><ele>491.8</ele><time>2026-04-18T15:15:20.001Z</time></trkpt><trkpt lat="43.488014650095764" lon="10.597919007137058"><ele>492.19999999999993</ele><time>2026-04-18T15:15:21.001Z</time></trkpt><trkpt lat="43.48808348511521" lon="10.597842177918617"><ele>492.59999999999997</ele><time>2026-04-18T15:15:22.001Z</time></trkpt><trkpt lat="43.488166869263814" lon="10.597755166430158"><ele>493.0</ele><time>2026-04-18T15:15:23.001Z</time></trkpt><trkpt lat="43.48825361854902" lon="10.597639434524385"><ele>493.5</ele><time>2026-04-18T15:15:24.001Z</time></trkpt><trkpt lat="43.4883414560826" lon="10.597521012088109"><ele>494.0</ele><time>2026-04-18T15:15:25.001Z</time></trkpt><trkpt lat="43.488414384301336" lon="10.597396296034777"><ele>494.5</ele><time>2026-04-18T15:15:26.001Z</time></trkpt><trkpt lat="43.4884748439061" lon="10.597255431369538"><ele>495.0</ele><time>2026-04-18T15:15:27.001Z</time></trkpt><trkpt lat="43.488524229872795" lon="10.597096634629441"><ele>494.25</ele><time>2026-04-18T15:15:28.001Z</time></trkpt><trkpt lat="43.488580546994235" lon="10.59693655173388"><ele>493.5</ele><time>2026-04-18T15:15:28.999Z</time></trkpt><trkpt lat="43.48865656680325" lon="10.596770068692091"><ele>492.75</ele><time>2026-04-18T15:15:29.999Z</time></trkpt><trkpt lat="43.48874222617579" lon="10.596616336264155"><ele>492.0</ele><time>2026-04-18T15:15:30.999Z</time></trkpt><trkpt lat="43.48883295296963" lon="10.596484552696134"><ele>492.0</ele><time>2026-04-18T15:15:31.999Z</time></trkpt><trkpt lat="43.48892366451773" lon="10.596406029619494"><ele>492.00000000000006</ele><time>2026-04-18T15:15:32.999Z</time></trkpt><trkpt lat="43.48901490762653" lon="10.59636303232172"><ele>492.00000000000006</ele><time>2026-04-18T15:15:33.999Z</time></trkpt><trkpt lat="43.48909891496308" lon="10.59636023597025"><ele>492.0</ele><time>2026-04-18T15:15:34.999Z</time></trkpt><trkpt lat="43.489186740502326" lon="10.59638416182216"><ele>492.0</ele><time>2026-04-18T15:15:35.999Z</time></trkpt><trkpt lat="43.48927455826711" lon="10.596433779612422"><ele>492.0</ele><time>2026-04-18T15:15:36.999Z</time></trkpt><trkpt lat="43.4893593496215" lon="10.59649317354919"><ele>492.00000000000006</ele><time>2026-04-18T15:15:37.999Z</time></trkpt><trkpt lat="43.48945413477284" lon="10.596535734119053"><ele>492.00000000000006</ele><time>2026-04-18T15:15:38.999Z</time></trkpt><trkpt lat="43.48956284663501" lon="10.596554838739838"><ele>492.0</ele><time>2026-04-18T15:15:39.999Z</time></trkpt><trkpt lat="43.48968400764523" lon="10.596567578075186"><ele>492.0</ele><time>2026-04-18T15:15:40.999Z</time></trkpt><trkpt lat="43.48981706514668" lon="10.59658728008124"><ele>492.0</ele><time>2026-04-18T15:15:41.999Z</time></trkpt><trkpt lat="43.48993365336095" lon="10.596580931839245"><ele>492.0</ele><time>2026-04-18T15:15:42.999Z</time></trkpt><trkpt lat="43.49003643212155" lon="10.59655381992792"><ele>492.0</ele><time>2026-04-18T15:15:43.999Z</time></trkpt><trkpt lat="43.49014687273351" lon="10.596491258684434"><ele>492.0</ele><time>2026-04-18T15:15:44.999Z</time></trkpt><trkpt lat="43.49027482600089" lon="10.59640899040837"><ele>492.0</ele><time>2026-04-18T15:15:45.999Z</time></trkpt><trkpt lat="43.49040484894944" lon="10.596332824871206"><ele>492.0</ele><time>2026-04-18T15:15:46.999Z</time></trkpt><trkpt lat="43.49051915199896" lon="10.596299002489804"><ele>492.0</ele><time>2026-04-18T15:15:47.999Z</time></trkpt><trkpt lat="43.49061329657628" lon="10.596305706738734"><ele>492.0</ele><time>2026-04-18T15:15:48.999Z</time></trkpt><trkpt lat="43.490708162592504" lon="10.59633765007439"><ele>491.5</ele><time>2026-04-18T15:15:49.999Z</time></trkpt><trkpt lat="43.4908081714536" lon="10.596360056585775"><ele>491.0</ele><time>2026-04-18T15:15:50.999Z</time></trkpt><trkpt lat="43.490923978557035" lon="10.596365954573088"><ele>490.5</ele><time>2026-04-18T15:15:51.999Z</time></trkpt><trkpt lat="43.49104732690338" lon="10.596363864318176"><ele>490.0</ele><time>2026-04-18T15:15:52.999Z</time></trkpt><trkpt lat="43.49116000078828" lon="10.596375264774283"><ele>489.0</ele><time>2026-04-18T15:15:54Z</time></trkpt><trkpt lat="43.491268083576074" lon="10.596392953147138"><ele>488.0</ele><time>2026-04-18T15:15:55Z</time></trkpt><trkpt lat="43.49137314949055" lon="10.596430259240938"><ele>487.0</ele><time>2026-04-18T15:15:56Z</time></trkpt><trkpt lat="43.49148894331059" lon="10.596493315343293"><ele>486.0</ele><time>2026-04-18T15:15:57Z</time></trkpt><trkpt lat="43.49160287954485" lon="10.596580423835023"><ele>486.0</ele><time>2026-04-18T15:15:58Z</time></trkpt><trkpt lat="43.49171551986798" lon="10.596677711225666"><ele>486.0</ele><time>2026-04-18T15:15:59Z</time></trkpt><trkpt lat="43.4918122199034" lon="10.596755473924901"><ele>486.0</ele><time>2026-04-18T15:16:00Z</time></trkpt><trkpt lat="43.49188459133509" lon="10.596818482241687"><ele>486.0</ele><time>2026-04-18T15:16:02Z</time></trkpt><trkpt lat="43.491874760987486" lon="10.597000096047449"><ele>485.25</ele><time>2026-04-18T15:16:05Z</time></trkpt><trkpt lat="43.49188040544707" lon="10.597116715006432"><ele>484.5</ele><time>2026-04-18T15:16:06Z</time></trkpt><trkpt lat="43.491907224101034" lon="10.597267075640952"><ele>483.75</ele><time>2026-04-18T15:16:07Z</time></trkpt><trkpt lat="43.4919508793818" lon="10.597465214547029"><ele>483.0</ele><time>2026-04-18T15:16:08Z</time></trkpt><trkpt lat="43.49199001787788" lon="10.597644571005338"><ele>483.0</ele><time>2026-04-18T15:16:09Z</time></trkpt><trkpt lat="43.492024972834926" lon="10.597821759575181"><ele>483.0</ele><time>2026-04-18T15:16:10Z</time></trkpt><trkpt lat="43.49204215718282" lon="10.5980197884957"><ele>483.0</ele><time>2026-04-18T15:16:11Z</time></trkpt><trkpt lat="43.492062100273344" lon="10.598176033177278"><ele>483.0</ele><time>2026-04-18T15:16:12Z</time></trkpt><trkpt lat="43.49206893500683" lon="10.598285796959214"><ele>481.2</ele><time>2026-04-18T15:16:13Z</time></trkpt><trkpt lat="43.49205161690853" lon="10.59840758245005"><ele>479.4</ele><time>2026-04-18T15:16:14Z</time></trkpt><trkpt lat="43.492031562399404" lon="10.598535691619526"><ele>477.59999999999997</ele><time>2026-04-18T15:16:15Z</time></trkpt><trkpt lat="43.49200645580447" lon="10.598704403219521"><ele>475.79999999999995</ele><time>2026-04-18T15:16:16Z</time></trkpt><trkpt lat="43.491981646378285" lon="10.598852824370644"><ele>474.0</ele><time>2026-04-18T15:16:17Z</time></trkpt><trkpt lat="43.49196156848146" lon="10.598987697161787"><ele>472.5</ele><time>2026-04-18T15:16:18Z</time></trkpt><trkpt lat="43.491957318920036" lon="10.599150135934321"><ele>471.0</ele><time>2026-04-18T15:16:19Z</time></trkpt><trkpt lat="43.49197487896403" lon="10.599312058265205"><ele>469.5</ele><time>2026-04-18T15:16:20Z</time></trkpt><trkpt lat="43.49198002591416" lon="10.599482783287609"><ele>468.0</ele><time>2026-04-18T15:16:21Z</time></trkpt><trkpt lat="43.49197983063694" lon="10.599640893068544"><ele>467.79999999999995</ele><time>2026-04-18T15:16:22Z</time></trkpt><trkpt lat="43.49200160960976" lon="10.599774569207202"><ele>467.59999999999997</ele><time>2026-04-18T15:16:23Z</time></trkpt><trkpt lat="43.49204700893673" lon="10.59988978488539"><ele>467.40000000000003</ele><time>2026-04-18T15:16:24Z</time></trkpt><trkpt lat="43.49211957843449" lon="10.599963216046735"><ele>467.20000000000005</ele><time>2026-04-18T15:16:25Z</time></trkpt><trkpt lat="43.49221275590947" lon="10.600010637143715"><ele>467.0</ele><time>2026-04-18T15:16:26Z</time></trkpt><trkpt lat="43.492315418250925" lon="10.600057520298986"><ele>467.0</ele><time>2026-04-18T15:16:27Z</time></trkpt><trkpt lat="43.49241103515809" lon="10.600139835982402"><ele>467.00000000000006</ele><time>2026-04-18T15:16:28Z</time></trkpt><trkpt lat="43.492463818416475" lon="10.60024414003711"><ele>467.00000000000006</ele><time>2026-04-18T15:16:29Z</time></trkpt><trkpt lat="43.49247306477178" lon="10.60036977204538"><ele>467.0</ele><time>2026-04-18T15:16:31Z</time></trkpt><trkpt lat="43.49248833367743" lon="10.600502469860427"><ele>467.0</ele><time>2026-04-18T15:16:56.001Z</time></trkpt><trkpt lat="43.49251271480232" lon="10.600600808368736"><ele>466.20000000000005</ele><time>2026-04-18T15:16:57.001Z</time></trkpt><trkpt lat="43.49256312776561" lon="10.60070546426979"><ele>465.40000000000003</ele><time>2026-04-18T15:16:58.001Z</time></trkpt><trkpt lat="43.492627514230236" lon="10.600804791102044"><ele>464.59999999999997</ele><time>2026-04-18T15:16:59.001Z</time></trkpt><trkpt lat="43.49270323954098" lon="10.600909727992684"><ele>463.79999999999995</ele><time>2026-04-18T15:17:00.001Z</time></trkpt><trkpt lat="43.492786203529455" lon="10.601023869157215"><ele>463.0</ele><time>2026-04-18T15:17:01.001Z</time></trkpt><trkpt lat="43.492878581349316" lon="10.601125851118379"><ele>463.75</ele><time>2026-04-18T15:17:02.001Z</time></trkpt><trkpt lat="43.492977269015775" lon="10.601218164956709"><ele>464.5</ele><time>2026-04-18T15:17:03.001Z</time></trkpt><trkpt lat="43.49308999121965" lon="10.601287823521151"><ele>465.25</ele><time>2026-04-18T15:17:04.001Z</time></trkpt><trkpt lat="43.493198098114604" lon="10.601347561511584"><ele>466.0</ele><time>2026-04-18T15:17:05.001Z</time></trkpt><trkpt lat="43.493293916523065" lon="10.601414301156188"><ele>466.0</ele><time>2026-04-18T15:17:06.001Z</time></trkpt><trkpt lat="43.49338415743852" lon="10.601497428284755"><ele>466.0</ele><time>2026-04-18T15:17:07.001Z</time></trkpt><trkpt lat="43.49346376296654" lon="10.601601160275527"><ele>466.0</ele><time>2026-04-18T15:17:08.001Z</time></trkpt><trkpt lat="43.49353865729802" lon="10.601703240153544"><ele>466.0</ele><time>2026-04-18T15:17:09.001Z</time></trkpt><trkpt lat="43.493612051273885" lon="10.601801959803232"><ele>466.0</ele><time>2026-04-18T15:17:10.001Z</time></trkpt><trkpt lat="43.49369596111625" lon="10.601931333008409"><ele>467.25</ele><time>2026-04-18T15:17:11.001Z</time></trkpt><trkpt lat="43.49374309710866" lon="10.602057812130894"><ele>468.5</ele><time>2026-04-18T15:17:12.001Z</time></trkpt><trkpt lat="43.49377674746974" lon="10.602203415542377"><ele>469.75</ele><time>2026-04-18T15:17:13.001Z</time></trkpt><trkpt lat="43.49379484918155" lon="10.602361864586303"><ele>471.0</ele><time>2026-04-18T15:17:14.001Z</time></trkpt><trkpt lat="43.49381330671492" lon="10.602552117255922"><ele>471.0</ele><time>2026-04-18T15:17:15.001Z</time></trkpt><trkpt lat="43.49382903926589" lon="10.602732279550121"><ele>471.0</ele><time>2026-04-18T15:17:16.001Z</time></trkpt><trkpt lat="43.49385820787579" lon="10.602899417790564"><ele>471.0</ele><time>2026-04-18T15:17:17.001Z</time></trkpt><trkpt lat="43.49388962000467" lon="10.603035020938272"><ele>471.0</ele><time>2026-04-18T15:17:18.001Z</time></trkpt><trkpt lat="43.49393138085114" lon="10.60312672720261"><ele>471.0</ele><time>2026-04-18T15:17:19.001Z</time></trkpt><trkpt lat="43.49398064621966" lon="10.6031932256913"><ele>470.6</ele><time>2026-04-18T15:17:20.001Z</time></trkpt><trkpt lat="43.49403524589497" lon="10.603280663786851"><ele>470.20000000000005</ele><time>2026-04-18T15:17:21.001Z</time></trkpt><trkpt lat="43.494100143022635" lon="10.603396732752538"><ele>469.79999999999995</ele><time>2026-04-18T15:17:22.001Z</time></trkpt><trkpt lat="43.494173266007465" lon="10.603536302624754"><ele>469.4</ele><time>2026-04-18T15:17:23.001Z</time></trkpt><trkpt lat="43.49424869846857" lon="10.60365953832428"><ele>469.0</ele><time>2026-04-18T15:17:24.001Z</time></trkpt><trkpt lat="43.494331196969554" lon="10.60376944377421"><ele>469.0</ele><time>2026-04-18T15:17:25.001Z</time></trkpt><trkpt lat="43.49439948452017" lon="10.60386403379265"><ele>469.0</ele><time>2026-04-18T15:17:26.001Z</time></trkpt><trkpt lat="43.494462636981375" lon="10.60394988179457"><ele>469.0</ele><time>2026-04-18T15:17:27.001Z</time></trkpt><trkpt lat="43.49454800097686" lon="10.604032936297065"><ele>469.0</ele><time>2026-04-18T15:17:28.001Z</time></trkpt><trkpt lat="43.49463246183858" lon="10.604099500290022"><ele>469.0</ele><time>2026-04-18T15:17:29.001Z</time></trkpt><trkpt lat="43.49469831746541" lon="10.60414442104136"><ele>469.00000000000006</ele><time>2026-04-18T15:17:30.001Z</time></trkpt><trkpt lat="43.4947762491881" lon="10.604168880739214"><ele>469.0</ele><time>2026-04-18T15:17:32.001Z</time></trkpt><trkpt lat="43.49488246476067" lon="10.60420614415891"><ele>469.0</ele><time>2026-04-18T15:17:51Z</time></trkpt><trkpt lat="43.49494144085434" lon="10.604238173205955"><ele>469.0</ele><time>2026-04-18T15:17:52Z</time></trkpt><trkpt lat="43.49501379663754" lon="10.60428037215274"><ele>469.00000000000006</ele><time>2026-04-18T15:17:53Z</time></trkpt><trkpt lat="43.49506954616084" lon="10.604324813061886"><ele>469.0</ele><time>2026-04-18T15:17:54Z</time></trkpt><trkpt lat="43.495137081750464" lon="10.604407502104312"><ele>468.00000000000006</ele><time>2026-04-18T15:17:56Z</time></trkpt><trkpt lat="43.49521015820639" lon="10.604540599276639"><ele>467.0</ele><time>2026-04-18T15:17:58Z</time></trkpt><trkpt lat="43.49526575043656" lon="10.604621658069254"><ele>466.0</ele><time>2026-04-18T15:17:59Z</time></trkpt><trkpt lat="43.49533076910582" lon="10.604692739398777"><ele>465.0</ele><time>2026-04-18T15:18:00Z</time></trkpt><trkpt lat="43.49538570714577" lon="10.604756411436172"><ele>464.00000000000006</ele><time>2026-04-18T15:18:01Z</time></trkpt><trkpt lat="43.49542803836723" lon="10.604854626245627"><ele>463.0</ele><time>2026-04-18T15:18:03Z</time></trkpt><trkpt lat="43.495423047297805" lon="10.605004309797515"><ele>463.5</ele><time>2026-04-18T15:18:05Z</time></trkpt><trkpt lat="43.495442221253846" lon="10.605262264489998"><ele>464.0</ele><time>2026-04-18T15:18:07Z</time></trkpt><trkpt lat="43.495459932579315" lon="10.605404311269435"><ele>464.5</ele><time>2026-04-18T15:18:08Z</time></trkpt><trkpt lat="43.49549615628972" lon="10.605530168091219"><ele>465.0</ele><time>2026-04-18T15:18:09Z</time></trkpt><trkpt lat="43.49554397840877" lon="10.605657207536659"><ele>465.0</ele><time>2026-04-18T15:18:10Z</time></trkpt><trkpt lat="43.49558571897484" lon="10.605778428074274"><ele>465.0</ele><time>2026-04-18T15:18:11Z</time></trkpt><trkpt lat="43.49563956256095" lon="10.605864789700808"><ele>465.0</ele><time>2026-04-18T15:18:12Z</time></trkpt><trkpt lat="43.49569755111685" lon="10.605985521229652"><ele>465.0</ele><time>2026-04-18T15:18:13Z</time></trkpt><trkpt lat="43.49575578706984" lon="10.606183795031743"><ele>465.0</ele><time>2026-04-18T15:18:15Z</time></trkpt><trkpt lat="43.4957675441848" lon="10.606296912346627"><ele>465.6</ele><time>2026-04-18T15:18:17Z</time></trkpt><trkpt lat="43.49577206223693" lon="10.60644802875049"><ele>466.2</ele><time>2026-04-18T15:18:19Z</time></trkpt><trkpt lat="43.495765336659076" lon="10.606552139716133"><ele>466.79999999999995</ele><time>2026-04-18T15:18:20Z</time></trkpt><trkpt lat="43.495747349108804" lon="10.606654793817365"><ele>467.4</ele><time>2026-04-18T15:18:21Z</time></trkpt><trkpt lat="43.49571368965765" lon="10.606790982577309"><ele>468.0</ele><time>2026-04-18T15:18:23Z</time></trkpt><trkpt lat="43.49579039760999" lon="10.606845675479503"><ele>468.0</ele><time>2026-04-18T15:18:25Z</time></trkpt><trkpt lat="43.49587753068484" lon="10.606812906110953"><ele>468.0</ele><time>2026-04-18T15:18:50.001Z</time></trkpt><trkpt lat="43.4959626706028" lon="10.606808629573596"><ele>468.0</ele><time>2026-04-18T15:18:52.001Z</time></trkpt><trkpt lat="43.49605248451076" lon="10.606808328869382"><ele>468.0</ele><time>2026-04-18T15:18:54.001Z</time></trkpt><trkpt lat="43.49612928434222" lon="10.606816416461626"><ele>468.0</ele><time>2026-04-18T15:18:56.001Z</time></trkpt><trkpt lat="43.49621339069931" lon="10.606825380201434"><ele>468.0</ele><time>2026-04-18T15:18:58.001Z</time></trkpt><trkpt lat="43.49629867517117" lon="10.606845811696738"><ele>467.8333333333333</ele><time>2026-04-18T15:19:00.001Z</time></trkpt><trkpt lat="43.49636539375167" lon="10.606890885373723"><ele>467.66666666666663</ele><time>2026-04-18T15:19:02.001Z</time></trkpt><trkpt lat="43.49640758495889" lon="10.60697552658569"><ele>467.5</ele><time>2026-04-18T15:19:04.001Z</time></trkpt><trkpt lat="43.496405746610286" lon="10.607067852659599"><ele>467.3333333333333</ele><time>2026-04-18T15:19:06.001Z</time></trkpt><trkpt lat="43.49640818017502" lon="10.607210801548302"><ele>467.16666666666663</ele><time>2026-04-18T15:19:08.001Z</time></trkpt><trkpt lat="43.49636791874378" lon="10.607380418201524"><ele>467.0</ele><time>2026-04-18T15:19:10.001Z</time></trkpt><trkpt lat="43.496359699846614" lon="10.60749679483733"><ele>467.0</ele><time>2026-04-18T15:19:11.001Z</time></trkpt><trkpt lat="43.49635693179593" lon="10.607599733446516"><ele>467.00000000000006</ele><time>2026-04-18T15:19:12.001Z</time></trkpt><trkpt lat="43.4963634816534" lon="10.607743521264478"><ele>467.00000000000006</ele><time>2026-04-18T15:19:13.001Z</time></trkpt><trkpt lat="43.49637830412788" lon="10.60785953451097"><ele>467.0</ele><time>2026-04-18T15:19:14.001Z</time></trkpt><trkpt lat="43.49637984610423" lon="10.607955993773386"><ele>467.0</ele><time>2026-04-18T15:19:15.001Z</time></trkpt><trkpt lat="43.496343842144775" lon="10.608118098581865"><ele>467.20000000000005</ele><time>2026-04-18T15:19:17.001Z</time></trkpt><trkpt lat="43.49631172864497" lon="10.608212551605963"><ele>467.40000000000003</ele><time>2026-04-18T15:19:18.001Z</time></trkpt><trkpt lat="43.49627137890399" lon="10.608287297758107"><ele>467.59999999999997</ele><time>2026-04-18T15:19:19.001Z</time></trkpt><trkpt lat="43.49619618145783" lon="10.608384111334045"><ele>467.79999999999995</ele><time>2026-04-18T15:19:20.001Z</time></trkpt><trkpt lat="43.496137216320385" lon="10.60845350404893"><ele>468.0</ele><time>2026-04-18T15:19:21.001Z</time></trkpt><trkpt lat="43.49587753068484" lon="10.606812906110953"><ele>468.0</ele><time>2026-04-18T15:18:50.001Z</time></trkpt><trkpt lat="43.4959626706028" lon="10.606808629573596"><ele>468.0</ele><time>2026-04-18T15:18:52.001Z</time></trkpt><trkpt lat="43.49605248451076" lon="10.606808328869382"><ele>468.0</ele><time>2026-04-18T15:18:54.001Z</time></trkpt><trkpt lat="43.49612928434222" lon="10.606816416461626"><ele>468.0</ele><time>2026-04-18T15:18:56.001Z</time></trkpt><trkpt lat="43.49621339069931" lon="10.606825380201434"><ele>468.0</ele><time>2026-04-18T15:18:58.001Z</time></trkpt><trkpt lat="43.49629867517117" lon="10.606845811696738"><ele>468.0</ele><time>2026-04-18T15:19:00.001Z</time></trkpt><trkpt lat="43.49636539375167" lon="10.606890885373723"><ele>467.79999999999995</ele><time>2026-04-18T15:19:02.001Z</time></trkpt><trkpt lat="43.49640758495889" lon="10.60697552658569"><ele>467.59999999999997</ele><time>2026-04-18T15:19:04.001Z</time></trkpt><trkpt lat="43.496405746610286" lon="10.607067852659599"><ele>467.40000000000003</ele><time>2026-04-18T15:19:06.001Z</time></trkpt><trkpt lat="43.49640818017502" lon="10.607210801548302"><ele>467.20000000000005</ele><time>2026-04-18T15:19:08.001Z</time></trkpt><trkpt lat="43.49636791874378" lon="10.607380418201524"><ele>467.0</ele><time>2026-04-18T15:19:10.001Z</time></trkpt><trkpt lat="43.496359699846614" lon="10.60749679483733"><ele>467.0</ele><time>2026-04-18T15:19:11.001Z</time></trkpt><trkpt lat="43.49635693179593" lon="10.607599733446516"><ele>467.00000000000006</ele><time>2026-04-18T15:19:12.001Z</time></trkpt><trkpt lat="43.4963634816534" lon="10.607743521264478"><ele>467.00000000000006</ele><time>2026-04-18T15:19:13.001Z</time></trkpt><trkpt lat="43.49637830412788" lon="10.60785953451097"><ele>467.0</ele><time>2026-04-18T15:19:14.001Z</time></trkpt><trkpt lat="43.49637984610423" lon="10.607955993773386"><ele>467.0</ele><time>2026-04-18T15:19:15.001Z</time></trkpt><trkpt lat="43.496343842144775" lon="10.608118098581865"><ele>466.16666666666663</ele><time>2026-04-18T15:19:17.001Z</time></trkpt><trkpt lat="43.49631172864497" lon="10.608212551605963"><ele>465.3333333333333</ele><time>2026-04-18T15:19:18.001Z</time></trkpt><trkpt lat="43.49627137890399" lon="10.608287297758107"><ele>464.5</ele><time>2026-04-18T15:19:19.001Z</time></trkpt><trkpt lat="43.49619618145783" lon="10.608384111334045"><ele>463.66666666666663</ele><time>2026-04-18T15:19:20.001Z</time></trkpt><trkpt lat="43.496137216320385" lon="10.60845350404893"><ele>462.8333333333333</ele><time>2026-04-18T15:19:21.001Z</time></trkpt><trkpt lat="43.496090883836715" lon="10.608574304028146"><ele>462.0</ele><time>2026-04-18T15:19:23.001Z</time></trkpt><trkpt lat="43.496074891196514" lon="10.608681306824524"><ele>462.0</ele><time>2026-04-18T15:19:24.001Z</time></trkpt><trkpt lat="43.49606337169205" lon="10.60878607629357"><ele>462.0</ele><time>2026-04-18T15:19:25.001Z</time></trkpt><trkpt lat="43.49605916927298" lon="10.608872665886961"><ele>462.0</ele><time>2026-04-18T15:19:26.001Z</time></trkpt><trkpt lat="43.49602941677629" lon="10.608975854600182"><ele>462.0</ele><time>2026-04-18T15:19:27.001Z</time></trkpt><trkpt lat="43.49599001623344" lon="10.609084133071176"><ele>462.0</ele><time>2026-04-18T15:19:28.001Z</time></trkpt><trkpt lat="43.49595367635644" lon="10.609189515110332"><ele>462.0</ele><time>2026-04-18T15:19:29.001Z</time></trkpt><trkpt lat="43.4959277916489" lon="10.609294676729162"><ele>462.0</ele><time>2026-04-18T15:19:30.001Z</time></trkpt><trkpt lat="43.4959235976919" lon="10.609406649029888"><ele>462.00000000000006</ele><time>2026-04-18T15:19:31.001Z</time></trkpt><trkpt lat="43.495972623556035" lon="10.609547141944748"><ele>462.00000000000006</ele><time>2026-04-18T15:19:33.001Z</time></trkpt><trkpt lat="43.49599043063869" lon="10.609666960957497"><ele>462.0</ele><time>2026-04-18T15:19:34.001Z</time></trkpt><trkpt lat="43.49604725917943" lon="10.60976580912198"><ele>462.0</ele><time>2026-04-18T15:19:35.001Z</time></trkpt><trkpt lat="43.49612080651481" lon="10.609866698472265"><ele>460.0</ele><time>2026-04-18T15:19:36.001Z</time></trkpt><trkpt lat="43.49620257849137" lon="10.609968574951449"><ele>458.00000000000006</ele><time>2026-04-18T15:19:37.001Z</time></trkpt><trkpt lat="43.496283793568516" lon="10.61007240980912"><ele>456.00000000000006</ele><time>2026-04-18T15:19:38.001Z</time></trkpt><trkpt lat="43.496349059838096" lon="10.610179527507457"><ele>454.0</ele><time>2026-04-18T15:19:39.001Z</time></trkpt><trkpt lat="43.49640689218111" lon="10.610263818397963"><ele>452.0</ele><time>2026-04-18T15:19:40.001Z</time></trkpt><trkpt lat="43.49646251258033" lon="10.610312829715417"><ele>452.16666666666663</ele><time>2026-04-18T15:19:41Z</time></trkpt><trkpt lat="43.49651125251067" lon="10.61038979312155"><ele>452.3333333333333</ele><time>2026-04-18T15:19:42Z</time></trkpt><trkpt lat="43.49656619213582" lon="10.61045464189571"><ele>452.5</ele><time>2026-04-18T15:19:43Z</time></trkpt><trkpt lat="43.49661770827217" lon="10.610562060432223"><ele>452.66666666666663</ele><time>2026-04-18T15:19:44Z</time></trkpt><trkpt lat="43.49665497877204" lon="10.610657468822906"><ele>452.8333333333333</ele><time>2026-04-18T15:19:45Z</time></trkpt><trkpt lat="43.49669685410002" lon="10.610750959701038"><ele>453.0</ele><time>2026-04-18T15:19:46Z</time></trkpt><trkpt lat="43.49676255509252" lon="10.610850738776032"><ele>453.0</ele><time>2026-04-18T15:19:47Z</time></trkpt><trkpt lat="43.496824899334946" lon="10.610944496151086"><ele>453.0</ele><time>2026-04-18T15:19:48Z</time></trkpt><trkpt lat="43.49689457007686" lon="10.611059811494021"><ele>453.0</ele><time>2026-04-18T15:19:49Z</time></trkpt><trkpt lat="43.49696020605457" lon="10.611159351741"><ele>453.0</ele><time>2026-04-18T15:19:50Z</time></trkpt><trkpt lat="43.49701445310652" lon="10.611246385163243"><ele>453.0</ele><time>2026-04-18T15:19:51Z</time></trkpt><trkpt lat="43.49704377354655" lon="10.611329023256314"><ele>453.0</ele><time>2026-04-18T15:19:52Z</time></trkpt><trkpt lat="43.49704801761453" lon="10.611451180202875"><ele>449.79999999999995</ele><time>2026-04-18T15:19:53Z</time></trkpt><trkpt lat="43.4970513712083" lon="10.611565108538533"><ele>446.59999999999997</ele><time>2026-04-18T15:19:54Z</time></trkpt><trkpt lat="43.49703193890929" lon="10.611696234488896"><ele>443.40000000000003</ele><time>2026-04-18T15:19:55Z</time></trkpt><trkpt lat="43.49702393723183" lon="10.611798644005168"><ele>440.20000000000005</ele><time>2026-04-18T15:19:56Z</time></trkpt><trkpt lat="43.49703318182709" lon="10.611914821120564"><ele>437.0</ele><time>2026-04-18T15:19:57Z</time></trkpt><trkpt lat="43.49704567595488" lon="10.612079692090608"><ele>436.6</ele><time>2026-04-18T15:19:59Z</time></trkpt><trkpt lat="43.497071594736525" lon="10.612178842496576"><ele>436.20000000000005</ele><time>2026-04-18T15:20:00Z</time></trkpt><trkpt lat="43.49710449540187" lon="10.612271615893267"><ele>435.8</ele><time>2026-04-18T15:20:01Z</time></trkpt><trkpt lat="43.49716056377547" lon="10.612365236231597"><ele>435.4</ele><time>2026-04-18T15:20:02Z</time></trkpt><trkpt lat="43.49722618455131" lon="10.612521060296729"><ele>435.0</ele><time>2026-04-18T15:20:04Z</time></trkpt><trkpt lat="43.49732980691618" lon="10.6126960353329"><ele>435.0</ele><time>2026-04-18T15:20:06Z</time></trkpt><trkpt lat="43.49740946531692" lon="10.612751530515956"><ele>435.0</ele><time>2026-04-18T15:20:07Z</time></trkpt><trkpt lat="43.497491958524535" lon="10.612813491329591"><ele>435.0</ele><time>2026-04-18T15:20:08Z</time></trkpt><trkpt lat="43.497565208245234" lon="10.612904408680155"><ele>435.0</ele><time>2026-04-18T15:20:09Z</time></trkpt><trkpt lat="43.497636109031205" lon="10.613000875195723"><ele>435.0</ele><time>2026-04-18T15:20:10Z</time></trkpt><trkpt lat="43.497721217262644" lon="10.613097040417644"><ele>432.6</ele><time>2026-04-18T15:20:11Z</time></trkpt><trkpt lat="43.497798155783066" lon="10.613187475545711"><ele>430.2</ele><time>2026-04-18T15:20:12Z</time></trkpt><trkpt lat="43.497874754380256" lon="10.613274422909438"><ele>427.79999999999995</ele><time>2026-04-18T15:20:13Z</time></trkpt><trkpt lat="43.49795486209526" lon="10.613363661977434"><ele>425.4</ele><time>2026-04-18T15:20:14Z</time></trkpt><trkpt lat="43.49802588983453" lon="10.61344452737703"><ele>423.0</ele><time>2026-04-18T15:20:15Z</time></trkpt><trkpt lat="43.49808037905066" lon="10.61352514010746"><ele>422.5</ele><time>2026-04-18T15:20:16Z</time></trkpt><trkpt lat="43.498128171852414" lon="10.613603044420044"><ele>422.0</ele><time>2026-04-18T15:20:17Z</time></trkpt><trkpt lat="43.49817652604624" lon="10.613705803006697"><ele>421.5</ele><time>2026-04-18T15:20:18Z</time></trkpt><trkpt lat="43.49821316822228" lon="10.613826626160185"><ele>421.0</ele><time>2026-04-18T15:20:19Z</time></trkpt><trkpt lat="43.49823737985175" lon="10.613937278818243"><ele>420.5</ele><time>2026-04-18T15:20:20Z</time></trkpt><trkpt lat="43.498260427474555" lon="10.61405028991452"><ele>420.0</ele><time>2026-04-18T15:20:21Z</time></trkpt><trkpt lat="43.498280528705905" lon="10.614179925772383"><ele>420.0</ele><time>2026-04-18T15:20:22Z</time></trkpt><trkpt lat="43.49832802899086" lon="10.614311370865838"><ele>420.0</ele><time>2026-04-18T15:20:23Z</time></trkpt><trkpt lat="43.49838710360674" lon="10.614433372381747"><ele>420.0</ele><time>2026-04-18T15:20:24Z</time></trkpt><trkpt lat="43.498445265001735" lon="10.614575124178508"><ele>420.0</ele><time>2026-04-18T15:20:25Z</time></trkpt><trkpt lat="43.49848902811239" lon="10.614707904879861"><ele>420.0</ele><time>2026-04-18T15:20:26Z</time></trkpt><trkpt lat="43.49853361131414" lon="10.614852967513631"><ele>420.0</ele><time>2026-04-18T15:20:27Z</time></trkpt><trkpt lat="43.498569592965964" lon="10.614985787294103"><ele>420.0</ele><time>2026-04-18T15:20:28Z</time></trkpt><trkpt lat="43.49860799234974" lon="10.615060757532097"><ele>420.0</ele><time>2026-04-18T15:20:29Z</time></trkpt><trkpt lat="43.49865653715554" lon="10.615119976254014"><ele>420.0</ele><time>2026-04-18T15:20:30Z</time></trkpt><trkpt lat="43.49872537836681" lon="10.615139879212965"><ele>420.0</ele><time>2026-04-18T15:20:31Z</time></trkpt><trkpt lat="43.498825922888294" lon="10.615139393652253"><ele>420.0</ele><time>2026-04-18T15:20:32Z</time></trkpt><trkpt lat="43.498939218124704" lon="10.61513229310551"><ele>418.5</ele><time>2026-04-18T15:20:33Z</time></trkpt><trkpt lat="43.49901985155739" lon="10.615154346147634"><ele>417.0</ele><time>2026-04-18T15:20:34Z</time></trkpt><trkpt lat="43.49908569031421" lon="10.615200728389564"><ele>415.5</ele><time>2026-04-18T15:20:35Z</time></trkpt><trkpt lat="43.49916648216743" lon="10.615315161039595"><ele>414.0</ele><time>2026-04-18T15:20:37Z</time></trkpt><trkpt lat="43.49919897919795" lon="10.615391135247135"><ele>412.5</ele><time>2026-04-18T15:20:38Z</time></trkpt><trkpt lat="43.49919246761619" lon="10.615481749531066"><ele>411.0</ele><time>2026-04-18T15:20:39Z</time></trkpt><trkpt lat="43.49916165399249" lon="10.615568685586815"><ele>410.1666666666667</ele><time>2026-04-18T15:20:40Z</time></trkpt><trkpt lat="43.49911907854313" lon="10.615666214814011"><ele>409.33333333333337</ele><time>2026-04-18T15:20:41Z</time></trkpt><trkpt lat="43.49906851358291" lon="10.615760501543209"><ele>408.5</ele><time>2026-04-18T15:20:42Z</time></trkpt><trkpt lat="43.499014603986694" lon="10.6158755346274"><ele>407.6666666666667</ele><time>2026-04-18T15:20:43Z</time></trkpt><trkpt lat="43.498980105122726" lon="10.615952191677769"><ele>406.83333333333337</ele><time>2026-04-18T15:20:44Z</time></trkpt><trkpt lat="43.498958980681664" lon="10.616045459976007"><ele>406.0</ele><time>2026-04-18T15:20:46Z</time></trkpt><trkpt lat="43.499015260210214" lon="10.616142634350448"><ele>403.8</ele><time>2026-04-18T15:20:48Z</time></trkpt><trkpt lat="43.49907147240289" lon="10.616206339444235"><ele>401.6</ele><time>2026-04-18T15:21:09.001Z</time></trkpt><trkpt lat="43.499145500359056" lon="10.61625462955587"><ele>399.4</ele><time>2026-04-18T15:21:11.001Z</time></trkpt><trkpt lat="43.49923696981779" lon="10.616277167037886"><ele>397.2</ele><time>2026-04-18T15:21:13.001Z</time></trkpt><trkpt lat="43.49933268054059" lon="10.61631553866351"><ele>395.0</ele><time>2026-04-18T15:21:14.001Z</time></trkpt><trkpt lat="43.49943564834787" lon="10.616335205078393"><ele>395.0</ele><time>2026-04-18T15:21:15.001Z</time></trkpt><trkpt lat="43.49954045644158" lon="10.616337831553649"><ele>395.0</ele><time>2026-04-18T15:21:16.001Z</time></trkpt><trkpt lat="43.499621427118214" lon="10.616338494947382"><ele>395.0</ele><time>2026-04-18T15:21:17.001Z</time></trkpt><trkpt lat="43.49969245134089" lon="10.616353799334068"><ele>395.0</ele><time>2026-04-18T15:21:18.001Z</time></trkpt><trkpt lat="43.499775275654585" lon="10.616375325312378"><ele>395.0</ele><time>2026-04-18T15:21:19.001Z</time></trkpt><trkpt lat="43.499883073682014" lon="10.616409736749183"><ele>395.2</ele><time>2026-04-18T15:21:20.001Z</time></trkpt><trkpt lat="43.49995783742317" lon="10.616366256089902"><ele>395.4</ele><time>2026-04-18T15:21:22.001Z</time></trkpt><trkpt lat="43.50003971604263" lon="10.616348509948278"><ele>395.6</ele><time>2026-04-18T15:21:23.001Z</time></trkpt><trkpt lat="43.50011475373366" lon="10.616280869190698"><ele>395.8</ele><time>2026-04-18T15:21:24.001Z</time></trkpt><trkpt lat="43.50017850609984" lon="10.616228744242264"><ele>396.0</ele><time>2026-04-18T15:21:25.001Z</time></trkpt><trkpt lat="43.50029969199804" lon="10.616143959557052"><ele>396.0</ele><time>2026-04-18T15:21:27.001Z</time></trkpt><trkpt lat="43.50036034648432" lon="10.616119298246852"><ele>396.0</ele><time>2026-04-18T15:21:28.001Z</time></trkpt><trkpt lat="43.500484588941426" lon="10.616145180113001"><ele>396.0</ele><time>2026-04-18T15:21:30.001Z</time></trkpt><trkpt lat="43.50060318015119" lon="10.616276955454966"><ele>396.0</ele><time>2026-04-18T15:21:32.001Z</time></trkpt><trkpt lat="43.50067630373908" lon="10.616345680717963"><ele>396.0</ele><time>2026-04-18T15:21:33.001Z</time></trkpt><trkpt lat="43.500812745862824" lon="10.616358676097896"><ele>394.0</ele><time>2026-04-18T15:21:35.001Z</time></trkpt><trkpt lat="43.50089817138596" lon="10.616332131632532"><ele>392.0</ele><time>2026-04-18T15:21:36.001Z</time></trkpt><trkpt lat="43.50099477001975" lon="10.61630749086748"><ele>390.0</ele><time>2026-04-18T15:21:37.001Z</time></trkpt><trkpt lat="43.50110144706246" lon="10.616280055110519"><ele>388.0</ele><time>2026-04-18T15:21:38.001Z</time></trkpt><trkpt lat="43.501191260756194" lon="10.616268332599269"><ele>386.0</ele><time>2026-04-18T15:21:39.001Z</time></trkpt><trkpt lat="43.501260941625745" lon="10.616237949352692"><ele>387.8</ele><time>2026-04-18T15:21:40.001Z</time></trkpt><trkpt lat="43.501369453517285" lon="10.616117667847702"><ele>389.6</ele><time>2026-04-18T15:21:42.001Z</time></trkpt><trkpt lat="43.50143619192214" lon="10.616033976747172"><ele>391.4</ele><time>2026-04-18T15:21:43.001Z</time></trkpt><trkpt lat="43.50148080959063" lon="10.615937450174677"><ele>393.2</ele><time>2026-04-18T15:21:44.001Z</time></trkpt><trkpt lat="43.50153035497804" lon="10.61585050842628"><ele>395.0</ele><time>2026-04-18T15:21:45.001Z</time></trkpt><trkpt lat="43.50160540085737" lon="10.615778765705388"><ele>394.99999999999994</ele><time>2026-04-18T15:21:46.001Z</time></trkpt><trkpt lat="43.50169263081513" lon="10.61571606660866"><ele>395.0</ele><time>2026-04-18T15:21:46.999Z</time></trkpt><trkpt lat="43.50178272869" lon="10.615697969405925"><ele>395.0</ele><time>2026-04-18T15:21:48.999Z</time></trkpt><trkpt lat="43.50189501325985" lon="10.615702471753785"><ele>395.0</ele><time>2026-04-18T15:21:50.999Z</time></trkpt><trkpt lat="43.50196054812012" lon="10.615702138700753"><ele>394.99999999999994</ele><time>2026-04-18T15:21:51.999Z</time></trkpt><trkpt lat="43.50204040362654" lon="10.615693656691795"><ele>395.0</ele><time>2026-04-18T15:21:52.999Z</time></trkpt><trkpt lat="43.502136408380295" lon="10.61566498421811"><ele>393.6</ele><time>2026-04-18T15:21:53.999Z</time></trkpt><trkpt lat="43.50220311155587" lon="10.615660775945548"><ele>392.2</ele><time>2026-04-18T15:21:55Z</time></trkpt><trkpt lat="43.502329146333096" lon="10.61566593021884"><ele>390.79999999999995</ele><time>2026-04-18T15:21:57Z</time></trkpt><trkpt lat="43.50239253742935" lon="10.615719282138727"><ele>389.4</ele><time>2026-04-18T15:21:58Z</time></trkpt><trkpt lat="43.50248130872137" lon="10.615778383477226"><ele>388.0</ele><time>2026-04-18T15:21:59Z</time></trkpt><trkpt lat="43.50257614945723" lon="10.615847344508321"><ele>388.00000000000006</ele><time>2026-04-18T15:22:00Z</time></trkpt><trkpt lat="43.50265087066716" lon="10.615905313507545"><ele>388.0</ele><time>2026-04-18T15:22:01Z</time></trkpt><trkpt lat="43.50271523136187" lon="10.615920715959584"><ele>388.0</ele><time>2026-04-18T15:22:02Z</time></trkpt><trkpt lat="43.502812474614174" lon="10.615892989707636"><ele>388.0</ele><time>2026-04-18T15:22:04Z</time></trkpt><trkpt lat="43.50290009559362" lon="10.615766959063654"><ele>388.00000000000006</ele><time>2026-04-18T15:22:06Z</time></trkpt><trkpt lat="43.50294258913211" lon="10.615694451057122"><ele>388.0</ele><time>2026-04-18T15:22:07Z</time></trkpt><trkpt lat="43.50299565525353" lon="10.615612231341567"><ele>386.79999999999995</ele><time>2026-04-18T15:22:09Z</time></trkpt><trkpt lat="43.50307281076873" lon="10.615552083275677"><ele>385.6</ele><time>2026-04-18T15:22:11Z</time></trkpt><trkpt lat="43.50315644101112" lon="10.615529783115555"><ele>384.4</ele><time>2026-04-18T15:22:12Z</time></trkpt><trkpt lat="43.503229212481024" lon="10.615512507870333"><ele>383.20000000000005</ele><time>2026-04-18T15:22:13Z</time></trkpt><trkpt lat="43.50334078642635" lon="10.615455870520044"><ele>382.0</ele><time>2026-04-18T15:22:15Z</time></trkpt><trkpt lat="43.50341570558598" lon="10.615337239068152"><ele>382.0</ele><time>2026-04-18T15:22:17Z</time></trkpt><trkpt lat="43.50345662459177" lon="10.615232995649889"><ele>382.0</ele><time>2026-04-18T15:22:18Z</time></trkpt><trkpt lat="43.5034899452244" lon="10.615116135430434"><ele>382.0</ele><time>2026-04-18T15:22:19Z</time></trkpt><trkpt lat="43.50351787062093" lon="10.615007445479737"><ele>382.0</ele><time>2026-04-18T15:22:20Z</time></trkpt><trkpt lat="43.5036192289102" lon="10.614879053102118"><ele>382.0</ele><time>2026-04-18T15:22:22Z</time></trkpt><trkpt lat="43.50374246916358" lon="10.614819881226596"><ele>378.8</ele><time>2026-04-18T15:22:24Z</time></trkpt><trkpt lat="43.50381621374764" lon="10.614793402615115"><ele>375.6</ele><time>2026-04-18T15:22:25Z</time></trkpt><trkpt lat="43.50390050359297" lon="10.614746167017513"><ele>372.40000000000003</ele><time>2026-04-18T15:22:27Z</time></trkpt><trkpt lat="43.50399717833461" lon="10.614716233962278"><ele>369.20000000000005</ele><time>2026-04-18T15:22:29Z</time></trkpt><trkpt lat="43.50410716983574" lon="10.61471891387557"><ele>366.0</ele><time>2026-04-18T15:22:30Z</time></trkpt><trkpt lat="43.50419143750919" lon="10.61474552858665"><ele>366.0</ele><time>2026-04-18T15:22:31Z</time></trkpt><trkpt lat="43.50425868786451" lon="10.614811676585731"><ele>366.0</ele><time>2026-04-18T15:22:32Z</time></trkpt><trkpt lat="43.504318927488534" lon="10.614875733254243"><ele>366.0</ele><time>2026-04-18T15:22:33Z</time></trkpt><trkpt lat="43.50442376789698" lon="10.614968410596669"><ele>366.0</ele><time>2026-04-18T15:22:35Z</time></trkpt><trkpt lat="43.5045377092523" lon="10.615016431038141"><ele>366.0</ele><time>2026-04-18T15:22:37Z</time></trkpt><trkpt lat="43.50463287948908" lon="10.615060972773462"><ele>362.6</ele><time>2026-04-18T15:22:38Z</time></trkpt><trkpt lat="43.504717508692714" lon="10.615112809616784"><ele>359.20000000000005</ele><time>2026-04-18T15:22:39Z</time></trkpt><trkpt lat="43.50478837853348" lon="10.615141638553556"><ele>355.79999999999995</ele><time>2026-04-18T15:22:40Z</time></trkpt><trkpt lat="43.50490489902403" lon="10.615166977332194"><ele>352.4</ele><time>2026-04-18T15:22:42Z</time></trkpt><trkpt lat="43.50502108114683" lon="10.615145097992974"><ele>349.0</ele><time>2026-04-18T15:22:44Z</time></trkpt><trkpt lat="43.50513292703785" lon="10.615129185126285"><ele>349.0</ele><time>2026-04-18T15:22:46Z</time></trkpt><trkpt lat="43.50524483539654" lon="10.615076629602733"><ele>349.0</ele><time>2026-04-18T15:22:48Z</time></trkpt><trkpt lat="43.50536387265581" lon="10.615144166014339"><ele>349.0</ele><time>2026-04-18T15:22:49Z</time></trkpt><trkpt lat="43.50542600955583" lon="10.615077617971595"><ele>349.0</ele><time>2026-04-18T15:22:50Z</time></trkpt><trkpt lat="43.505490175924926" lon="10.615006756314113"><ele>349.0</ele><time>2026-04-18T15:22:51Z</time></trkpt><trkpt lat="43.50555009999788" lon="10.614950314457364"><ele>346.16666666666663</ele><time>2026-04-18T15:22:52Z</time></trkpt><trkpt lat="43.5056118894898" lon="10.61489280392743"><ele>343.3333333333333</ele><time>2026-04-18T15:22:53Z</time></trkpt><trkpt lat="43.505672300690144" lon="10.61484816775588"><ele>340.5</ele><time>2026-04-18T15:22:55Z</time></trkpt><trkpt lat="43.505747020474836" lon="10.614852196839134"><ele>337.6666666666667</ele><time>2026-04-18T15:22:57Z</time></trkpt><trkpt lat="43.50586927683733" lon="10.614923452537724"><ele>334.83333333333337</ele><time>2026-04-18T15:22:59.001Z</time></trkpt><trkpt lat="43.50594648515959" lon="10.614963151061097"><ele>332.0</ele><time>2026-04-18T15:23:00.001Z</time></trkpt><trkpt lat="43.506040752134304" lon="10.615000118708062"><ele>332.0</ele><time>2026-04-18T15:23:02.001Z</time></trkpt><trkpt lat="43.50610861342289" lon="10.614990030091151"><ele>332.0</ele><time>2026-04-18T15:23:04.001Z</time></trkpt><trkpt lat="43.50616617837451" lon="10.615089463483839"><ele>332.0</ele><time>2026-04-18T15:23:07.001Z</time></trkpt><trkpt lat="43.50621226872501" lon="10.615166986392834"><ele>332.0</ele><time>2026-04-18T15:23:09.001Z</time></trkpt><trkpt lat="43.50626177625123" lon="10.615276043406434"><ele>332.0</ele><time>2026-04-18T15:23:11.001Z</time></trkpt><trkpt lat="43.506324027482435" lon="10.615394606364424"><ele>332.0</ele><time>2026-04-18T15:23:13.001Z</time></trkpt><trkpt lat="43.50638934621247" lon="10.615532957675438"><ele>330.5</ele><time>2026-04-18T15:23:15.001Z</time></trkpt><trkpt lat="43.506433508478715" lon="10.615608121585888"><ele>329.0</ele><time>2026-04-18T15:23:16.001Z</time></trkpt><trkpt lat="43.50650791596967" lon="10.615735305479145"><ele>327.5</ele><time>2026-04-18T15:23:18.001Z</time></trkpt><trkpt lat="43.506551984419126" lon="10.615808846133916"><ele>326.0</ele><time>2026-04-18T15:23:19.001Z</time></trkpt><trkpt lat="43.506621951666446" lon="10.615897844783627"><ele>324.5</ele><time>2026-04-18T15:23:20.001Z</time></trkpt><trkpt lat="43.50667268433062" lon="10.615983004028001"><ele>323.0</ele><time>2026-04-18T15:23:21.001Z</time></trkpt><trkpt lat="43.506738570196106" lon="10.616025584151256"><ele>323.0</ele><time>2026-04-18T15:23:22.001Z</time></trkpt><trkpt lat="43.506788066556325" lon="10.616086736665999"><ele>323.0</ele><time>2026-04-18T15:23:23.001Z</time></trkpt><trkpt lat="43.506861611397206" lon="10.61606991737897"><ele>323.0</ele><time>2026-04-18T15:23:24.001Z</time></trkpt><trkpt lat="43.50695015462617" lon="10.616078002169044"><ele>323.0</ele><time>2026-04-18T15:23:25.001Z</time></trkpt><trkpt lat="43.507059343764226" lon="10.616057256164805"><ele>323.0</ele><time>2026-04-18T15:23:26.001Z</time></trkpt><trkpt lat="43.507171614949534" lon="10.616042887903308"><ele>321.25</ele><time>2026-04-18T15:23:27.001Z</time></trkpt><trkpt lat="43.50729018037352" lon="10.616019038859113"><ele>319.5</ele><time>2026-04-18T15:23:28.001Z</time></trkpt><trkpt lat="43.50741001984692" lon="10.615969938491371"><ele>317.75</ele><time>2026-04-18T15:23:29.001Z</time></trkpt><trkpt lat="43.50752827394052" lon="10.61592405240293"><ele>316.0</ele><time>2026-04-18T15:23:30.001Z</time></trkpt><trkpt lat="43.5076419106437" lon="10.615847917686795"><ele>316.0</ele><time>2026-04-18T15:23:31.001Z</time></trkpt><trkpt lat="43.507750138233476" lon="10.615760352993574"><ele>316.0</ele><time>2026-04-18T15:23:32.001Z</time></trkpt><trkpt lat="43.50786665616118" lon="10.615713037355066"><ele>316.0</ele><time>2026-04-18T15:23:33.001Z</time></trkpt><trkpt lat="43.50796869759756" lon="10.61565636096158"><ele>316.0</ele><time>2026-04-18T15:23:34.001Z</time></trkpt><trkpt lat="43.508070992875446" lon="10.615635067154566"><ele>314.0</ele><time>2026-04-18T15:23:35.001Z</time></trkpt><trkpt lat="43.508167313548206" lon="10.615604241777032"><ele>312.0</ele><time>2026-04-18T15:23:36.001Z</time></trkpt><trkpt lat="43.50823337762026" lon="10.615563982990125"><ele>310.0</ele><time>2026-04-18T15:23:37.001Z</time></trkpt><trkpt lat="43.50830709922358" lon="10.615548782556534"><ele>308.0</ele><time>2026-04-18T15:23:38.001Z</time></trkpt><trkpt lat="43.508421742127815" lon="10.615454468045376"><ele>306.0</ele><time>2026-04-18T15:23:40.001Z</time></trkpt><trkpt lat="43.50847015526638" lon="10.615364071887244"><ele>307.8</ele><time>2026-04-18T15:23:41.001Z</time></trkpt><trkpt lat="43.508528075753425" lon="10.615274022816829"><ele>309.6</ele><time>2026-04-18T15:23:42.001Z</time></trkpt><trkpt lat="43.50858287489139" lon="10.615169492617447"><ele>311.4</ele><time>2026-04-18T15:23:43.001Z</time></trkpt><trkpt lat="43.508639801389315" lon="10.61511780750298"><ele>313.2</ele><time>2026-04-18T15:23:44.001Z</time></trkpt><trkpt lat="43.50876481396878" lon="10.615204989099563"><ele>315.0</ele><time>2026-04-18T15:23:46.001Z</time></trkpt><trkpt lat="43.50878982207451" lon="10.615330532502293"><ele>310.8</ele><time>2026-04-18T15:23:47.001Z</time></trkpt><trkpt lat="43.50884469487977" lon="10.615446185622424"><ele>306.6</ele><time>2026-04-18T15:23:48.001Z</time></trkpt><trkpt lat="43.508869279363786" lon="10.61558510066927"><ele>302.4</ele><time>2026-04-18T15:23:49.001Z</time></trkpt><trkpt lat="43.50888947414613" lon="10.615711636030541"><ele>298.2</ele><time>2026-04-18T15:23:50.001Z</time></trkpt><trkpt lat="43.50889176483968" lon="10.615837269837385"><ele>294.0</ele><time>2026-04-18T15:23:51.001Z</time></trkpt><trkpt lat="43.508925246117705" lon="10.615959840635414"><ele>294.0</ele><time>2026-04-18T15:23:52.001Z</time></trkpt><trkpt lat="43.508973878074265" lon="10.616067249891133"><ele>294.0</ele><time>2026-04-18T15:23:53Z</time></trkpt><trkpt lat="43.50903391815739" lon="10.616131931393317"><ele>294.0</ele><time>2026-04-18T15:23:54Z</time></trkpt><trkpt lat="43.50905637723982" lon="10.616217224973514"><ele>294.0</ele><time>2026-04-18T15:23:55Z</time></trkpt><trkpt lat="43.50899102364065" lon="10.61635544937914"><ele>294.0</ele><time>2026-04-18T15:23:57Z</time></trkpt><trkpt lat="43.50889351775628" lon="10.616387003372838"><ele>293.5</ele><time>2026-04-18T15:23:58Z</time></trkpt><trkpt lat="43.50880915143796" lon="10.616483508452061"><ele>293.0</ele><time>2026-04-18T15:23:59Z</time></trkpt><trkpt lat="43.50873270545918" lon="10.616599183337128"><ele>292.5</ele><time>2026-04-18T15:24:00Z</time></trkpt><trkpt lat="43.50863394900303" lon="10.61671576393734"><ele>292.0</ele><time>2026-04-18T15:24:01Z</time></trkpt><trkpt lat="43.50853289739919" lon="10.616833976248586"><ele>291.25</ele><time>2026-04-18T15:24:02Z</time></trkpt><trkpt lat="43.50845245921141" lon="10.616940076864003"><ele>290.5</ele><time>2026-04-18T15:24:03Z</time></trkpt><trkpt lat="43.50837775883846" lon="10.617052374088232"><ele>289.75</ele><time>2026-04-18T15:24:04Z</time></trkpt><trkpt lat="43.508304489590984" lon="10.617189236947736"><ele>289.0</ele><time>2026-04-18T15:24:05Z</time></trkpt><trkpt lat="43.50824015834926" lon="10.617344651645777"><ele>289.0</ele><time>2026-04-18T15:24:06Z</time></trkpt><trkpt lat="43.508167168283414" lon="10.617509724237605"><ele>289.0</ele><time>2026-04-18T15:24:07Z</time></trkpt><trkpt lat="43.508103321654744" lon="10.617693675320082"><ele>289.0</ele><time>2026-04-18T15:24:08Z</time></trkpt><trkpt lat="43.50803528100202" lon="10.617870749134772"><ele>289.0</ele><time>2026-04-18T15:24:09Z</time></trkpt><trkpt lat="43.50798002518886" lon="10.618049686319756"><ele>288.0</ele><time>2026-04-18T15:24:10Z</time></trkpt><trkpt lat="43.50790380718824" lon="10.618200283831769"><ele>287.0</ele><time>2026-04-18T15:24:11Z</time></trkpt><trkpt lat="43.507841694028535" lon="10.618343735306864"><ele>286.0</ele><time>2026-04-18T15:24:12Z</time></trkpt><trkpt lat="43.50775198334233" lon="10.618479132043442"><ele>285.0</ele><time>2026-04-18T15:24:13Z</time></trkpt><trkpt lat="43.50764267237292" lon="10.6185712019177"><ele>285.0</ele><time>2026-04-18T15:24:14Z</time></trkpt><trkpt lat="43.507557002510694" lon="10.618643411991776"><ele>285.0</ele><time>2026-04-18T15:24:15Z</time></trkpt><trkpt lat="43.50749668508633" lon="10.618687145114219"><ele>285.0</ele><time>2026-04-18T15:24:16Z</time></trkpt><trkpt lat="43.50743142335362" lon="10.618741559363205"><ele>285.0</ele><time>2026-04-18T15:24:17Z</time></trkpt><trkpt lat="43.50733320539165" lon="10.618774222775501"><ele>285.0</ele><time>2026-04-18T15:24:18Z</time></trkpt><trkpt lat="43.507207467357034" lon="10.618824347413911"><ele>285.8</ele><time>2026-04-18T15:24:19Z</time></trkpt><trkpt lat="43.507104560096565" lon="10.61889370565772"><ele>286.6</ele><time>2026-04-18T15:24:20Z</time></trkpt><trkpt lat="43.50701536597313" lon="10.619001688733631"><ele>287.4</ele><time>2026-04-18T15:24:21Z</time></trkpt><trkpt lat="43.506938888031875" lon="10.619117314707823"><ele>288.2</ele><time>2026-04-18T15:24:22Z</time></trkpt><trkpt lat="43.50688253110862" lon="10.619200390252445"><ele>289.0</ele><time>2026-04-18T15:24:23Z</time></trkpt><trkpt lat="43.506796101865845" lon="10.619225707091752"><ele>289.0</ele><time>2026-04-18T15:24:24Z</time></trkpt><trkpt lat="43.506704198314964" lon="10.61926253889714"><ele>289.0</ele><time>2026-04-18T15:24:25Z</time></trkpt><trkpt lat="43.50660186998422" lon="10.619301091773194"><ele>289.0</ele><time>2026-04-18T15:24:26Z</time></trkpt><trkpt lat="43.50650174215695" lon="10.619314586163965"><ele>289.0</ele><time>2026-04-18T15:24:27Z</time></trkpt><trkpt lat="43.506376675784765" lon="10.61929630012485"><ele>289.0</ele><time>2026-04-18T15:24:28Z</time></trkpt><trkpt lat="43.506246818294564" lon="10.619295135416358"><ele>291.75</ele><time>2026-04-18T15:24:29Z</time></trkpt><trkpt lat="43.5061074508192" lon="10.619340667427748"><ele>294.5</ele><time>2026-04-18T15:24:30Z</time></trkpt><trkpt lat="43.50597201987038" lon="10.61938416734881"><ele>297.25</ele><time>2026-04-18T15:24:31Z</time></trkpt><trkpt lat="43.505842070776175" lon="10.619429685118527"><ele>300.0</ele><time>2026-04-18T15:24:32Z</time></trkpt><trkpt lat="43.50573459121171" lon="10.619456548723752"><ele>300.0</ele><time>2026-04-18T15:24:33Z</time></trkpt><trkpt lat="43.50563575132192" lon="10.619441490129045"><ele>300.0</ele><time>2026-04-18T15:24:34Z</time></trkpt><trkpt lat="43.50553055255668" lon="10.619391973170012"><ele>300.0</ele><time>2026-04-18T15:24:35Z</time></trkpt><trkpt lat="43.50540733147953" lon="10.619354505215762"><ele>300.0</ele><time>2026-04-18T15:24:36Z</time></trkpt><trkpt lat="43.50529222886347" lon="10.619344218854897"><ele>301.8</ele><time>2026-04-18T15:24:37Z</time></trkpt><trkpt lat="43.50522066245889" lon="10.619323212408858"><ele>303.6</ele><time>2026-04-18T15:24:38Z</time></trkpt><trkpt lat="43.505139957200605" lon="10.619382487779847"><ele>305.4</ele><time>2026-04-18T15:24:40Z</time></trkpt><trkpt lat="43.50512045935425" lon="10.619510166614289"><ele>307.2</ele><time>2026-04-18T15:24:41Z</time></trkpt><trkpt lat="43.505070717788655" lon="10.619641456335884"><ele>309.0</ele><time>2026-04-18T15:24:42Z</time></trkpt><trkpt lat="43.50502715361815" lon="10.619774212443623"><ele>309.0</ele><time>2026-04-18T15:24:43Z</time></trkpt><trkpt lat="43.50497900149033" lon="10.619893919210677"><ele>309.0</ele><time>2026-04-18T15:24:44Z</time></trkpt><trkpt lat="43.504875734456725" lon="10.619942687786407"><ele>309.0</ele><time>2026-04-18T15:24:45Z</time></trkpt><trkpt lat="43.5047820614937" lon="10.620046863621422"><ele>309.0</ele><time>2026-04-18T15:24:46Z</time></trkpt><trkpt lat="43.50472349026849" lon="10.620139882626917"><ele>309.0</ele><time>2026-04-18T15:24:47Z</time></trkpt><trkpt lat="43.504644056221366" lon="10.620191769457923"><ele>309.3333333333333</ele><time>2026-04-18T15:24:49Z</time></trkpt><trkpt lat="43.504570115862805" lon="10.620137662482193"><ele>309.6666666666667</ele><time>2026-04-18T15:24:51Z</time></trkpt><trkpt lat="43.504526086307834" lon="10.620071240563352"><ele>310.0</ele><time>2026-04-18T15:24:52Z</time></trkpt><trkpt lat="43.504478140090534" lon="10.61998157730527"><ele>310.33333333333337</ele><time>2026-04-18T15:24:53Z</time></trkpt><trkpt lat="43.504440643762464" lon="10.6198789708131"><ele>310.6666666666667</ele><time>2026-04-18T15:24:54Z</time></trkpt><trkpt lat="43.5044014572012" lon="10.619763748272797"><ele>311.0</ele><time>2026-04-18T15:24:55Z</time></trkpt><trkpt lat="43.50436445370115" lon="10.619641436444752"><ele>311.0</ele><time>2026-04-18T15:24:56Z</time></trkpt><trkpt lat="43.50433942947749" lon="10.619543504666801"><ele>311.0</ele><time>2026-04-18T15:24:57Z</time></trkpt><trkpt lat="43.5043253675842" lon="10.619444868314343"><ele>311.0</ele><time>2026-04-18T15:24:58Z</time></trkpt><trkpt lat="43.50430450260827" lon="10.619319302480044"><ele>311.0</ele><time>2026-04-18T15:25:00Z</time></trkpt><trkpt lat="43.50450600981891" lon="10.619100234463689"><ele>311.2</ele><time>2026-04-18T15:25:03Z</time></trkpt><trkpt lat="43.50457983316195" lon="10.619028527944849"><ele>311.40000000000003</ele><time>2026-04-18T15:25:04Z</time></trkpt><trkpt lat="43.50471240356739" lon="10.618909938010479"><ele>311.6</ele><time>2026-04-18T15:25:06Z</time></trkpt><trkpt lat="43.50478050891167" lon="10.618862826677171"><ele>311.8</ele><time>2026-04-18T15:25:08.001Z</time></trkpt><trkpt lat="43.5048325516879" lon="10.618799552737665"><ele>312.0</ele><time>2026-04-18T15:25:10.001Z</time></trkpt><trkpt lat="43.504884326261205" lon="10.618718831526238"><ele>313.2</ele><time>2026-04-18T15:25:12.001Z</time></trkpt><trkpt lat="43.50490825856102" lon="10.618554290763926"><ele>314.4</ele><time>2026-04-18T15:25:14.001Z</time></trkpt><trkpt lat="43.50488744939626" lon="10.618459896329787"><ele>315.6</ele><time>2026-04-18T15:25:15.001Z</time></trkpt><trkpt lat="43.50487070599537" lon="10.618358632277959"><ele>316.8</ele><time>2026-04-18T15:25:16.001Z</time></trkpt><trkpt lat="43.50491842568915" lon="10.618203381886378"><ele>318.0</ele><time>2026-04-18T15:25:18.001Z</time></trkpt><trkpt lat="43.50493170343896" lon="10.618112005733446"><ele>318.0</ele><time>2026-04-18T15:25:19.001Z</time></trkpt><trkpt lat="43.504918145457594" lon="10.618022188702943"><ele>318.0</ele><time>2026-04-18T15:25:21.001Z</time></trkpt><trkpt lat="43.504937957368135" lon="10.617920992545967"><ele>318.0</ele><time>2026-04-18T15:25:24.001Z</time></trkpt><trkpt lat="43.50500123788586" lon="10.617932578829944"><ele>318.0</ele><time>2026-04-18T15:25:29.001Z</time></trkpt></trkseg></trk></gpx>